<?xml version="1.0" encoding="UTF-8"?>
<gpx version="1.1" creator="https://www.youtrack.es" xsi:schemaLocation="http://www.topografix.com/GPX/1/1 http://www.topografix.com/GPX/1/1/gpx.xsd http://www.garmin.com/xmlschemas/GpxExtensions/v3 http://www.garmin.com/xmlschemas/GpxExtensionsv3.xsd http://www.garmin.com/xmlschemas/TrackPointExtension/v1 http://www.garmin.com/xmlschemas/TrackPointExtensionv1.xsd" xmlns:gpxtpx="http://www.garmin.com/xmlschemas/TrackPointExtension/v1" xmlns:gpxx="http://www.garmin.com/xmlschemas/GpxExtensions/v3" xmlns:xsi="http://www.w3.org/2001/XMLSchema-instance">
  <metadata>
    <link href="https://www.youtrack.es">
      <text>YouTrack.es</text>
    </link>
    <time>2026-05-08T16:13:00Z</time>
  </metadata>
  <trk>
    <src>https://www.youtrack.es</src>
    <link href="https://www.youtrack.es/ruta/23738-sant-joan">
      <text>YouTrack.es</text>
    </link>
    <trkseg>
      <trkpt lat="41.36889167" lon="1.14367833">
        <ele>214.0</ele>
        <time>2021-07-11T07:48:27.000Z</time>
      </trkpt>
      <trkpt lat="41.36889167" lon="1.14367833">
        <ele>497.0</ele>
        <time>2021-07-11T07:48:29.000Z</time>
      </trkpt>
      <trkpt lat="41.36889167" lon="1.14367833">
        <ele>494.0</ele>
        <time>2021-07-11T07:48:31.000Z</time>
      </trkpt>
      <trkpt lat="41.36889167" lon="1.14367833">
        <ele>488.0</ele>
        <time>2021-07-11T07:48:32.000Z</time>
      </trkpt>
      <trkpt lat="41.36885667" lon="1.14367833">
        <ele>486.0</ele>
        <time>2021-07-11T07:48:33.000Z</time>
      </trkpt>
      <trkpt lat="41.36885167" lon="1.14367167">
        <ele>485.0</ele>
        <time>2021-07-11T07:48:34.000Z</time>
      </trkpt>
      <trkpt lat="41.36885167" lon="1.14366333">
        <ele>487.0</ele>
        <time>2021-07-11T07:48:35.000Z</time>
      </trkpt>
      <trkpt lat="41.36884833" lon="1.14365167">
        <ele>487.0</ele>
        <time>2021-07-11T07:48:36.000Z</time>
      </trkpt>
      <trkpt lat="41.36884167" lon="1.143645">
        <ele>487.0</ele>
        <time>2021-07-11T07:48:37.000Z</time>
      </trkpt>
      <trkpt lat="41.368845" lon="1.14364">
        <ele>488.0</ele>
        <time>2021-07-11T07:48:38.000Z</time>
      </trkpt>
      <trkpt lat="41.36883667" lon="1.14363">
        <ele>487.0</ele>
        <time>2021-07-11T07:48:39.000Z</time>
      </trkpt>
      <trkpt lat="41.36883167" lon="1.14361833">
        <ele>487.0</ele>
        <time>2021-07-11T07:48:40.000Z</time>
      </trkpt>
      <trkpt lat="41.36882667" lon="1.14361167">
        <ele>484.0</ele>
        <time>2021-07-11T07:48:41.000Z</time>
      </trkpt>
      <trkpt lat="41.368825" lon="1.14359667">
        <ele>484.0</ele>
        <time>2021-07-11T07:48:42.000Z</time>
      </trkpt>
      <trkpt lat="41.36882333" lon="1.14358667">
        <ele>484.0</ele>
        <time>2021-07-11T07:48:43.000Z</time>
      </trkpt>
      <trkpt lat="41.36882" lon="1.14358">
        <ele>484.0</ele>
        <time>2021-07-11T07:48:44.000Z</time>
      </trkpt>
      <trkpt lat="41.36882" lon="1.14357">
        <ele>481.0</ele>
        <time>2021-07-11T07:48:45.000Z</time>
      </trkpt>
      <trkpt lat="41.36882167" lon="1.14355333">
        <ele>479.0</ele>
        <time>2021-07-11T07:48:46.000Z</time>
      </trkpt>
      <trkpt lat="41.368825" lon="1.143545">
        <ele>479.0</ele>
        <time>2021-07-11T07:48:47.000Z</time>
      </trkpt>
      <trkpt lat="41.36883" lon="1.143535">
        <ele>478.0</ele>
        <time>2021-07-11T07:48:48.000Z</time>
      </trkpt>
      <trkpt lat="41.36883" lon="1.14352167">
        <ele>480.0</ele>
        <time>2021-07-11T07:48:49.000Z</time>
      </trkpt>
      <trkpt lat="41.36883833" lon="1.14351333">
        <ele>480.0</ele>
        <time>2021-07-11T07:48:50.000Z</time>
      </trkpt>
      <trkpt lat="41.36884167" lon="1.14350667">
        <ele>480.0</ele>
        <time>2021-07-11T07:48:51.000Z</time>
      </trkpt>
      <trkpt lat="41.36884167" lon="1.14349667">
        <ele>480.0</ele>
        <time>2021-07-11T07:48:52.000Z</time>
      </trkpt>
      <trkpt lat="41.368845" lon="1.14348333">
        <ele>480.0</ele>
        <time>2021-07-11T07:48:53.000Z</time>
      </trkpt>
      <trkpt lat="41.36884833" lon="1.14348167">
        <ele>478.0</ele>
        <time>2021-07-11T07:48:54.000Z</time>
      </trkpt>
      <trkpt lat="41.36885667" lon="1.14347167">
        <ele>478.0</ele>
        <time>2021-07-11T07:48:55.000Z</time>
      </trkpt>
      <trkpt lat="41.36886" lon="1.143465">
        <ele>478.0</ele>
        <time>2021-07-11T07:48:56.000Z</time>
      </trkpt>
      <trkpt lat="41.36886333" lon="1.14346167">
        <ele>478.0</ele>
        <time>2021-07-11T07:48:57.000Z</time>
      </trkpt>
      <trkpt lat="41.368865" lon="1.143465">
        <ele>479.0</ele>
        <time>2021-07-11T07:48:58.000Z</time>
      </trkpt>
      <trkpt lat="41.36887" lon="1.14345667">
        <ele>480.0</ele>
        <time>2021-07-11T07:48:59.000Z</time>
      </trkpt>
      <trkpt lat="41.36887" lon="1.14345">
        <ele>480.0</ele>
        <time>2021-07-11T07:49:00.000Z</time>
      </trkpt>
      <trkpt lat="41.36887167" lon="1.14344667">
        <ele>480.0</ele>
        <time>2021-07-11T07:49:01.000Z</time>
      </trkpt>
      <trkpt lat="41.36888167" lon="1.14343833">
        <ele>480.0</ele>
        <time>2021-07-11T07:49:02.000Z</time>
      </trkpt>
      <trkpt lat="41.368885" lon="1.14343">
        <ele>480.0</ele>
        <time>2021-07-11T07:49:03.000Z</time>
      </trkpt>
      <trkpt lat="41.36888833" lon="1.14341833">
        <ele>480.0</ele>
        <time>2021-07-11T07:49:04.000Z</time>
      </trkpt>
      <trkpt lat="41.36889167" lon="1.14340667">
        <ele>480.0</ele>
        <time>2021-07-11T07:49:05.000Z</time>
      </trkpt>
      <trkpt lat="41.36889167" lon="1.14339667">
        <ele>480.0</ele>
        <time>2021-07-11T07:49:06.000Z</time>
      </trkpt>
      <trkpt lat="41.36889833" lon="1.14338167">
        <ele>480.0</ele>
        <time>2021-07-11T07:49:07.000Z</time>
      </trkpt>
      <trkpt lat="41.36890167" lon="1.14336667">
        <ele>480.0</ele>
        <time>2021-07-11T07:49:08.000Z</time>
      </trkpt>
      <trkpt lat="41.36890167" lon="1.14335667">
        <ele>480.0</ele>
        <time>2021-07-11T07:49:09.000Z</time>
      </trkpt>
      <trkpt lat="41.36890167" lon="1.14334667">
        <ele>480.0</ele>
        <time>2021-07-11T07:49:10.000Z</time>
      </trkpt>
      <trkpt lat="41.36889833" lon="1.14333833">
        <ele>482.0</ele>
        <time>2021-07-11T07:49:11.000Z</time>
      </trkpt>
      <trkpt lat="41.36889833" lon="1.14333">
        <ele>482.0</ele>
        <time>2021-07-11T07:49:12.000Z</time>
      </trkpt>
      <trkpt lat="41.36889667" lon="1.14331667">
        <ele>482.0</ele>
        <time>2021-07-11T07:49:13.000Z</time>
      </trkpt>
      <trkpt lat="41.36889667" lon="1.14331333">
        <ele>482.0</ele>
        <time>2021-07-11T07:49:14.000Z</time>
      </trkpt>
      <trkpt lat="41.3689" lon="1.143305">
        <ele>482.0</ele>
        <time>2021-07-11T07:49:15.000Z</time>
      </trkpt>
      <trkpt lat="41.36889833" lon="1.14329333">
        <ele>483.0</ele>
        <time>2021-07-11T07:49:16.000Z</time>
      </trkpt>
      <trkpt lat="41.36889667" lon="1.143275">
        <ele>483.0</ele>
        <time>2021-07-11T07:49:17.000Z</time>
      </trkpt>
      <trkpt lat="41.36889833" lon="1.143255">
        <ele>483.0</ele>
        <time>2021-07-11T07:49:18.000Z</time>
      </trkpt>
      <trkpt lat="41.36889833" lon="1.14324333">
        <ele>484.0</ele>
        <time>2021-07-11T07:49:19.000Z</time>
      </trkpt>
      <trkpt lat="41.368895" lon="1.143235">
        <ele>485.0</ele>
        <time>2021-07-11T07:49:20.000Z</time>
      </trkpt>
      <trkpt lat="41.36889667" lon="1.14323">
        <ele>485.0</ele>
        <time>2021-07-11T07:49:21.000Z</time>
      </trkpt>
      <trkpt lat="41.36890167" lon="1.14322667">
        <ele>485.0</ele>
        <time>2021-07-11T07:49:22.000Z</time>
      </trkpt>
      <trkpt lat="41.36890833" lon="1.143215">
        <ele>485.0</ele>
        <time>2021-07-11T07:49:23.000Z</time>
      </trkpt>
      <trkpt lat="41.368915" lon="1.14320167">
        <ele>485.0</ele>
        <time>2021-07-11T07:49:24.000Z</time>
      </trkpt>
      <trkpt lat="41.36891333" lon="1.14318833">
        <ele>486.0</ele>
        <time>2021-07-11T07:49:25.000Z</time>
      </trkpt>
      <trkpt lat="41.36891333" lon="1.14318">
        <ele>487.0</ele>
        <time>2021-07-11T07:49:26.000Z</time>
      </trkpt>
      <trkpt lat="41.36891333" lon="1.14317167">
        <ele>487.0</ele>
        <time>2021-07-11T07:49:27.000Z</time>
      </trkpt>
      <trkpt lat="41.36891667" lon="1.14317167">
        <ele>487.0</ele>
        <time>2021-07-11T07:49:28.000Z</time>
      </trkpt>
      <trkpt lat="41.36891333" lon="1.143165">
        <ele>488.0</ele>
        <time>2021-07-11T07:49:29.000Z</time>
      </trkpt>
      <trkpt lat="41.36891333" lon="1.14315333">
        <ele>488.0</ele>
        <time>2021-07-11T07:49:30.000Z</time>
      </trkpt>
      <trkpt lat="41.36891167" lon="1.14314333">
        <ele>488.0</ele>
        <time>2021-07-11T07:49:31.000Z</time>
      </trkpt>
      <trkpt lat="41.36891167" lon="1.14313333">
        <ele>488.0</ele>
        <time>2021-07-11T07:49:32.000Z</time>
      </trkpt>
      <trkpt lat="41.36891" lon="1.14312833">
        <ele>488.0</ele>
        <time>2021-07-11T07:49:33.000Z</time>
      </trkpt>
      <trkpt lat="41.36890667" lon="1.14312667">
        <ele>488.0</ele>
        <time>2021-07-11T07:49:34.000Z</time>
      </trkpt>
      <trkpt lat="41.36890333" lon="1.14311667">
        <ele>489.0</ele>
        <time>2021-07-11T07:49:35.000Z</time>
      </trkpt>
      <trkpt lat="41.36889667" lon="1.143105">
        <ele>489.0</ele>
        <time>2021-07-11T07:49:36.000Z</time>
      </trkpt>
      <trkpt lat="41.36889167" lon="1.1431">
        <ele>489.0</ele>
        <time>2021-07-11T07:49:37.000Z</time>
      </trkpt>
      <trkpt lat="41.36889" lon="1.14309333">
        <ele>489.0</ele>
        <time>2021-07-11T07:49:38.000Z</time>
      </trkpt>
      <trkpt lat="41.36888833" lon="1.14308833">
        <ele>489.0</ele>
        <time>2021-07-11T07:49:39.000Z</time>
      </trkpt>
      <trkpt lat="41.36889167" lon="1.14308333">
        <ele>488.0</ele>
        <time>2021-07-11T07:49:40.000Z</time>
      </trkpt>
      <trkpt lat="41.36889667" lon="1.14308">
        <ele>488.0</ele>
        <time>2021-07-11T07:49:41.000Z</time>
      </trkpt>
      <trkpt lat="41.368905" lon="1.14307833">
        <ele>488.0</ele>
        <time>2021-07-11T07:49:42.000Z</time>
      </trkpt>
      <trkpt lat="41.36891333" lon="1.14307667">
        <ele>488.0</ele>
        <time>2021-07-11T07:49:43.000Z</time>
      </trkpt>
      <trkpt lat="41.36892167" lon="1.14307333">
        <ele>488.0</ele>
        <time>2021-07-11T07:49:44.000Z</time>
      </trkpt>
      <trkpt lat="41.368925" lon="1.14307667">
        <ele>488.0</ele>
        <time>2021-07-11T07:49:45.000Z</time>
      </trkpt>
      <trkpt lat="41.36892833" lon="1.14308333">
        <ele>488.0</ele>
        <time>2021-07-11T07:49:46.000Z</time>
      </trkpt>
      <trkpt lat="41.36893333" lon="1.14308833">
        <ele>489.0</ele>
        <time>2021-07-11T07:49:47.000Z</time>
      </trkpt>
      <trkpt lat="41.36893833" lon="1.14309167">
        <ele>489.0</ele>
        <time>2021-07-11T07:49:48.000Z</time>
      </trkpt>
      <trkpt lat="41.368945" lon="1.1431">
        <ele>489.0</ele>
        <time>2021-07-11T07:49:49.000Z</time>
      </trkpt>
      <trkpt lat="41.36894833" lon="1.14310167">
        <ele>490.0</ele>
        <time>2021-07-11T07:49:50.000Z</time>
      </trkpt>
      <trkpt lat="41.36895167" lon="1.14310167">
        <ele>490.0</ele>
        <time>2021-07-11T07:49:51.000Z</time>
      </trkpt>
      <trkpt lat="41.36895833" lon="1.14310167">
        <ele>490.0</ele>
        <time>2021-07-11T07:49:52.000Z</time>
      </trkpt>
      <trkpt lat="41.368965" lon="1.1431">
        <ele>491.0</ele>
        <time>2021-07-11T07:49:53.000Z</time>
      </trkpt>
      <trkpt lat="41.36896667" lon="1.1431">
        <ele>491.0</ele>
        <time>2021-07-11T07:49:54.000Z</time>
      </trkpt>
      <trkpt lat="41.368965" lon="1.14310167">
        <ele>491.0</ele>
        <time>2021-07-11T07:49:55.000Z</time>
      </trkpt>
      <trkpt lat="41.36896333" lon="1.1431">
        <ele>493.0</ele>
        <time>2021-07-11T07:49:56.000Z</time>
      </trkpt>
      <trkpt lat="41.36896167" lon="1.14309333">
        <ele>494.0</ele>
        <time>2021-07-11T07:49:57.000Z</time>
      </trkpt>
      <trkpt lat="41.36896" lon="1.143095">
        <ele>494.0</ele>
        <time>2021-07-11T07:49:58.000Z</time>
      </trkpt>
      <trkpt lat="41.36895833" lon="1.14308833">
        <ele>494.0</ele>
        <time>2021-07-11T07:49:59.000Z</time>
      </trkpt>
      <trkpt lat="41.36896" lon="1.143085">
        <ele>494.0</ele>
        <time>2021-07-11T07:50:00.000Z</time>
      </trkpt>
      <trkpt lat="41.36895833" lon="1.14307667">
        <ele>494.0</ele>
        <time>2021-07-11T07:50:01.000Z</time>
      </trkpt>
      <trkpt lat="41.36895833" lon="1.143065">
        <ele>494.0</ele>
        <time>2021-07-11T07:50:02.000Z</time>
      </trkpt>
      <trkpt lat="41.36895833" lon="1.14305333">
        <ele>494.0</ele>
        <time>2021-07-11T07:50:03.000Z</time>
      </trkpt>
      <trkpt lat="41.368955" lon="1.14304833">
        <ele>494.0</ele>
        <time>2021-07-11T07:50:04.000Z</time>
      </trkpt>
      <trkpt lat="41.36895" lon="1.143045">
        <ele>495.0</ele>
        <time>2021-07-11T07:50:05.000Z</time>
      </trkpt>
      <trkpt lat="41.368945" lon="1.14304667">
        <ele>496.0</ele>
        <time>2021-07-11T07:50:06.000Z</time>
      </trkpt>
      <trkpt lat="41.36893833" lon="1.143045">
        <ele>496.0</ele>
        <time>2021-07-11T07:50:07.000Z</time>
      </trkpt>
      <trkpt lat="41.36892667" lon="1.14304333">
        <ele>497.0</ele>
        <time>2021-07-11T07:50:08.000Z</time>
      </trkpt>
      <trkpt lat="41.36891833" lon="1.14303667">
        <ele>496.0</ele>
        <time>2021-07-11T07:50:09.000Z</time>
      </trkpt>
      <trkpt lat="41.36891" lon="1.14303">
        <ele>496.0</ele>
        <time>2021-07-11T07:50:10.000Z</time>
      </trkpt>
      <trkpt lat="41.36890667" lon="1.14302333">
        <ele>497.0</ele>
        <time>2021-07-11T07:50:11.000Z</time>
      </trkpt>
      <trkpt lat="41.36890333" lon="1.14301833">
        <ele>497.0</ele>
        <time>2021-07-11T07:50:12.000Z</time>
      </trkpt>
      <trkpt lat="41.3689" lon="1.143015">
        <ele>497.0</ele>
        <time>2021-07-11T07:50:13.000Z</time>
      </trkpt>
      <trkpt lat="41.36889667" lon="1.14300667">
        <ele>497.0</ele>
        <time>2021-07-11T07:50:14.000Z</time>
      </trkpt>
      <trkpt lat="41.36889167" lon="1.14299667">
        <ele>497.0</ele>
        <time>2021-07-11T07:50:15.000Z</time>
      </trkpt>
      <trkpt lat="41.36888667" lon="1.14299333">
        <ele>497.0</ele>
        <time>2021-07-11T07:50:16.000Z</time>
      </trkpt>
      <trkpt lat="41.36887667" lon="1.14298">
        <ele>497.0</ele>
        <time>2021-07-11T07:50:17.000Z</time>
      </trkpt>
      <trkpt lat="41.36887167" lon="1.14297833">
        <ele>497.0</ele>
        <time>2021-07-11T07:50:18.000Z</time>
      </trkpt>
      <trkpt lat="41.36887167" lon="1.14297333">
        <ele>497.0</ele>
        <time>2021-07-11T07:50:19.000Z</time>
      </trkpt>
      <trkpt lat="41.36886833" lon="1.14296">
        <ele>497.0</ele>
        <time>2021-07-11T07:50:20.000Z</time>
      </trkpt>
      <trkpt lat="41.36886667" lon="1.142945">
        <ele>497.0</ele>
        <time>2021-07-11T07:50:21.000Z</time>
      </trkpt>
      <trkpt lat="41.36886167" lon="1.14293">
        <ele>497.0</ele>
        <time>2021-07-11T07:50:22.000Z</time>
      </trkpt>
      <trkpt lat="41.36886" lon="1.142925">
        <ele>497.0</ele>
        <time>2021-07-11T07:50:23.000Z</time>
      </trkpt>
      <trkpt lat="41.368855" lon="1.14291333">
        <ele>497.0</ele>
        <time>2021-07-11T07:50:24.000Z</time>
      </trkpt>
      <trkpt lat="41.36885333" lon="1.1429">
        <ele>497.0</ele>
        <time>2021-07-11T07:50:25.000Z</time>
      </trkpt>
      <trkpt lat="41.36885167" lon="1.14289">
        <ele>497.0</ele>
        <time>2021-07-11T07:50:26.000Z</time>
      </trkpt>
      <trkpt lat="41.36885333" lon="1.14287833">
        <ele>496.0</ele>
        <time>2021-07-11T07:50:27.000Z</time>
      </trkpt>
      <trkpt lat="41.36885167" lon="1.14286333">
        <ele>496.0</ele>
        <time>2021-07-11T07:50:28.000Z</time>
      </trkpt>
      <trkpt lat="41.36884667" lon="1.14285667">
        <ele>495.0</ele>
        <time>2021-07-11T07:50:29.000Z</time>
      </trkpt>
      <trkpt lat="41.36884333" lon="1.14285">
        <ele>495.0</ele>
        <time>2021-07-11T07:50:30.000Z</time>
      </trkpt>
      <trkpt lat="41.36884333" lon="1.142845">
        <ele>495.0</ele>
        <time>2021-07-11T07:50:31.000Z</time>
      </trkpt>
      <trkpt lat="41.36884167" lon="1.14284333">
        <ele>495.0</ele>
        <time>2021-07-11T07:50:32.000Z</time>
      </trkpt>
      <trkpt lat="41.36883667" lon="1.14283833">
        <ele>495.0</ele>
        <time>2021-07-11T07:50:33.000Z</time>
      </trkpt>
      <trkpt lat="41.36882833" lon="1.14284">
        <ele>495.0</ele>
        <time>2021-07-11T07:50:34.000Z</time>
      </trkpt>
      <trkpt lat="41.36882" lon="1.14283667">
        <ele>495.0</ele>
        <time>2021-07-11T07:50:35.000Z</time>
      </trkpt>
      <trkpt lat="41.36881667" lon="1.14283">
        <ele>495.0</ele>
        <time>2021-07-11T07:50:36.000Z</time>
      </trkpt>
      <trkpt lat="41.36881167" lon="1.142825">
        <ele>494.0</ele>
        <time>2021-07-11T07:50:37.000Z</time>
      </trkpt>
      <trkpt lat="41.36880833" lon="1.14281833">
        <ele>495.0</ele>
        <time>2021-07-11T07:50:38.000Z</time>
      </trkpt>
      <trkpt lat="41.368795" lon="1.14282167">
        <ele>494.0</ele>
        <time>2021-07-11T07:50:39.000Z</time>
      </trkpt>
      <trkpt lat="41.36878333" lon="1.14281833">
        <ele>494.0</ele>
        <time>2021-07-11T07:50:40.000Z</time>
      </trkpt>
      <trkpt lat="41.36877" lon="1.14281667">
        <ele>494.0</ele>
        <time>2021-07-11T07:50:41.000Z</time>
      </trkpt>
      <trkpt lat="41.36876167" lon="1.14281">
        <ele>493.0</ele>
        <time>2021-07-11T07:50:42.000Z</time>
      </trkpt>
      <trkpt lat="41.36875333" lon="1.1428">
        <ele>493.0</ele>
        <time>2021-07-11T07:50:43.000Z</time>
      </trkpt>
      <trkpt lat="41.36875" lon="1.14279">
        <ele>493.0</ele>
        <time>2021-07-11T07:50:44.000Z</time>
      </trkpt>
      <trkpt lat="41.36874167" lon="1.142785">
        <ele>493.0</ele>
        <time>2021-07-11T07:50:45.000Z</time>
      </trkpt>
      <trkpt lat="41.36873333" lon="1.14278167">
        <ele>493.0</ele>
        <time>2021-07-11T07:50:46.000Z</time>
      </trkpt>
      <trkpt lat="41.36872167" lon="1.14277833">
        <ele>493.0</ele>
        <time>2021-07-11T07:50:47.000Z</time>
      </trkpt>
      <trkpt lat="41.368715" lon="1.14277167">
        <ele>493.0</ele>
        <time>2021-07-11T07:50:48.000Z</time>
      </trkpt>
      <trkpt lat="41.36871167" lon="1.14276667">
        <ele>493.0</ele>
        <time>2021-07-11T07:50:49.000Z</time>
      </trkpt>
      <trkpt lat="41.36870333" lon="1.14276333">
        <ele>493.0</ele>
        <time>2021-07-11T07:50:50.000Z</time>
      </trkpt>
      <trkpt lat="41.36869167" lon="1.14275833">
        <ele>493.0</ele>
        <time>2021-07-11T07:50:51.000Z</time>
      </trkpt>
      <trkpt lat="41.36868667" lon="1.142755">
        <ele>493.0</ele>
        <time>2021-07-11T07:50:52.000Z</time>
      </trkpt>
      <trkpt lat="41.36867333" lon="1.14275667">
        <ele>493.0</ele>
        <time>2021-07-11T07:50:53.000Z</time>
      </trkpt>
      <trkpt lat="41.368655" lon="1.14275667">
        <ele>492.0</ele>
        <time>2021-07-11T07:50:54.000Z</time>
      </trkpt>
      <trkpt lat="41.368645" lon="1.14275333">
        <ele>492.0</ele>
        <time>2021-07-11T07:50:55.000Z</time>
      </trkpt>
      <trkpt lat="41.36863667" lon="1.14275">
        <ele>492.0</ele>
        <time>2021-07-11T07:50:56.000Z</time>
      </trkpt>
      <trkpt lat="41.368625" lon="1.14275667">
        <ele>492.0</ele>
        <time>2021-07-11T07:50:57.000Z</time>
      </trkpt>
      <trkpt lat="41.368615" lon="1.14275333">
        <ele>491.0</ele>
        <time>2021-07-11T07:50:58.000Z</time>
      </trkpt>
      <trkpt lat="41.36860333" lon="1.14275667">
        <ele>491.0</ele>
        <time>2021-07-11T07:50:59.000Z</time>
      </trkpt>
      <trkpt lat="41.36859833" lon="1.142755">
        <ele>491.0</ele>
        <time>2021-07-11T07:51:00.000Z</time>
      </trkpt>
      <trkpt lat="41.368595" lon="1.14275167">
        <ele>491.0</ele>
        <time>2021-07-11T07:51:01.000Z</time>
      </trkpt>
      <trkpt lat="41.36859333" lon="1.14275333">
        <ele>492.0</ele>
        <time>2021-07-11T07:51:02.000Z</time>
      </trkpt>
      <trkpt lat="41.36859333" lon="1.14275333">
        <ele>492.0</ele>
        <time>2021-07-11T07:51:03.000Z</time>
      </trkpt>
      <trkpt lat="41.36859" lon="1.14275">
        <ele>492.0</ele>
        <time>2021-07-11T07:51:04.000Z</time>
      </trkpt>
      <trkpt lat="41.368585" lon="1.14274333">
        <ele>492.0</ele>
        <time>2021-07-11T07:51:05.000Z</time>
      </trkpt>
      <trkpt lat="41.36857833" lon="1.14274">
        <ele>492.0</ele>
        <time>2021-07-11T07:51:06.000Z</time>
      </trkpt>
      <trkpt lat="41.36856667" lon="1.142735">
        <ele>492.0</ele>
        <time>2021-07-11T07:51:07.000Z</time>
      </trkpt>
      <trkpt lat="41.368555" lon="1.14273333">
        <ele>492.0</ele>
        <time>2021-07-11T07:51:08.000Z</time>
      </trkpt>
      <trkpt lat="41.36854667" lon="1.14273">
        <ele>492.0</ele>
        <time>2021-07-11T07:51:09.000Z</time>
      </trkpt>
      <trkpt lat="41.36854" lon="1.14273">
        <ele>492.0</ele>
        <time>2021-07-11T07:51:10.000Z</time>
      </trkpt>
      <trkpt lat="41.36852833" lon="1.14273833">
        <ele>492.0</ele>
        <time>2021-07-11T07:51:11.000Z</time>
      </trkpt>
      <trkpt lat="41.36851667" lon="1.14273667">
        <ele>492.0</ele>
        <time>2021-07-11T07:51:12.000Z</time>
      </trkpt>
      <trkpt lat="41.36850333" lon="1.142735">
        <ele>492.0</ele>
        <time>2021-07-11T07:51:13.000Z</time>
      </trkpt>
      <trkpt lat="41.36849167" lon="1.142725">
        <ele>492.0</ele>
        <time>2021-07-11T07:51:14.000Z</time>
      </trkpt>
      <trkpt lat="41.36848" lon="1.14271833">
        <ele>492.0</ele>
        <time>2021-07-11T07:51:15.000Z</time>
      </trkpt>
      <trkpt lat="41.36847" lon="1.14270833">
        <ele>492.0</ele>
        <time>2021-07-11T07:51:16.000Z</time>
      </trkpt>
      <trkpt lat="41.36846333" lon="1.14270167">
        <ele>492.0</ele>
        <time>2021-07-11T07:51:17.000Z</time>
      </trkpt>
      <trkpt lat="41.36845667" lon="1.14269">
        <ele>492.0</ele>
        <time>2021-07-11T07:51:18.000Z</time>
      </trkpt>
      <trkpt lat="41.36845167" lon="1.14267333">
        <ele>492.0</ele>
        <time>2021-07-11T07:51:19.000Z</time>
      </trkpt>
      <trkpt lat="41.368455" lon="1.14265">
        <ele>493.0</ele>
        <time>2021-07-11T07:51:20.000Z</time>
      </trkpt>
      <trkpt lat="41.368455" lon="1.14263167">
        <ele>493.0</ele>
        <time>2021-07-11T07:51:21.000Z</time>
      </trkpt>
      <trkpt lat="41.368455" lon="1.142615">
        <ele>493.0</ele>
        <time>2021-07-11T07:51:22.000Z</time>
      </trkpt>
      <trkpt lat="41.36845333" lon="1.14260167">
        <ele>493.0</ele>
        <time>2021-07-11T07:51:23.000Z</time>
      </trkpt>
      <trkpt lat="41.36845167" lon="1.14258667">
        <ele>493.0</ele>
        <time>2021-07-11T07:51:24.000Z</time>
      </trkpt>
      <trkpt lat="41.36844833" lon="1.14257333">
        <ele>493.0</ele>
        <time>2021-07-11T07:51:25.000Z</time>
      </trkpt>
      <trkpt lat="41.36844667" lon="1.14255167">
        <ele>493.0</ele>
        <time>2021-07-11T07:51:26.000Z</time>
      </trkpt>
      <trkpt lat="41.36844333" lon="1.14253667">
        <ele>493.0</ele>
        <time>2021-07-11T07:51:27.000Z</time>
      </trkpt>
      <trkpt lat="41.36844" lon="1.14252667">
        <ele>493.0</ele>
        <time>2021-07-11T07:51:28.000Z</time>
      </trkpt>
      <trkpt lat="41.36843667" lon="1.14252333">
        <ele>493.0</ele>
        <time>2021-07-11T07:51:29.000Z</time>
      </trkpt>
      <trkpt lat="41.368435" lon="1.14252">
        <ele>493.0</ele>
        <time>2021-07-11T07:51:30.000Z</time>
      </trkpt>
      <trkpt lat="41.36843167" lon="1.14251333">
        <ele>493.0</ele>
        <time>2021-07-11T07:51:31.000Z</time>
      </trkpt>
      <trkpt lat="41.36842833" lon="1.142505">
        <ele>493.0</ele>
        <time>2021-07-11T07:51:32.000Z</time>
      </trkpt>
      <trkpt lat="41.368425" lon="1.14249167">
        <ele>493.0</ele>
        <time>2021-07-11T07:51:33.000Z</time>
      </trkpt>
      <trkpt lat="41.36842" lon="1.14248">
        <ele>493.0</ele>
        <time>2021-07-11T07:51:34.000Z</time>
      </trkpt>
      <trkpt lat="41.36841667" lon="1.14247167">
        <ele>493.0</ele>
        <time>2021-07-11T07:51:35.000Z</time>
      </trkpt>
      <trkpt lat="41.36841" lon="1.14246">
        <ele>493.0</ele>
        <time>2021-07-11T07:51:36.000Z</time>
      </trkpt>
      <trkpt lat="41.368405" lon="1.142445">
        <ele>494.0</ele>
        <time>2021-07-11T07:51:37.000Z</time>
      </trkpt>
      <trkpt lat="41.36840167" lon="1.14242833">
        <ele>494.0</ele>
        <time>2021-07-11T07:51:38.000Z</time>
      </trkpt>
      <trkpt lat="41.36839333" lon="1.14241">
        <ele>494.0</ele>
        <time>2021-07-11T07:51:39.000Z</time>
      </trkpt>
      <trkpt lat="41.368385" lon="1.14239667">
        <ele>494.0</ele>
        <time>2021-07-11T07:51:40.000Z</time>
      </trkpt>
      <trkpt lat="41.36837833" lon="1.14239167">
        <ele>494.0</ele>
        <time>2021-07-11T07:51:41.000Z</time>
      </trkpt>
      <trkpt lat="41.36837333" lon="1.142385">
        <ele>494.0</ele>
        <time>2021-07-11T07:51:42.000Z</time>
      </trkpt>
      <trkpt lat="41.36837167" lon="1.14238">
        <ele>494.0</ele>
        <time>2021-07-11T07:51:43.000Z</time>
      </trkpt>
      <trkpt lat="41.36836833" lon="1.14237">
        <ele>494.0</ele>
        <time>2021-07-11T07:51:44.000Z</time>
      </trkpt>
      <trkpt lat="41.36836833" lon="1.14236167">
        <ele>494.0</ele>
        <time>2021-07-11T07:51:45.000Z</time>
      </trkpt>
      <trkpt lat="41.36835833" lon="1.142355">
        <ele>494.0</ele>
        <time>2021-07-11T07:51:46.000Z</time>
      </trkpt>
      <trkpt lat="41.368355" lon="1.14234833">
        <ele>494.0</ele>
        <time>2021-07-11T07:51:47.000Z</time>
      </trkpt>
      <trkpt lat="41.36834833" lon="1.14234333">
        <ele>494.0</ele>
        <time>2021-07-11T07:51:48.000Z</time>
      </trkpt>
      <trkpt lat="41.36834" lon="1.14233833">
        <ele>494.0</ele>
        <time>2021-07-11T07:51:49.000Z</time>
      </trkpt>
      <trkpt lat="41.36833333" lon="1.142335">
        <ele>494.0</ele>
        <time>2021-07-11T07:51:50.000Z</time>
      </trkpt>
      <trkpt lat="41.36832167" lon="1.142325">
        <ele>494.0</ele>
        <time>2021-07-11T07:51:51.000Z</time>
      </trkpt>
      <trkpt lat="41.36831333" lon="1.14231833">
        <ele>495.0</ele>
        <time>2021-07-11T07:51:52.000Z</time>
      </trkpt>
      <trkpt lat="41.36830667" lon="1.142315">
        <ele>495.0</ele>
        <time>2021-07-11T07:51:53.000Z</time>
      </trkpt>
      <trkpt lat="41.36830333" lon="1.14231667">
        <ele>495.0</ele>
        <time>2021-07-11T07:51:54.000Z</time>
      </trkpt>
      <trkpt lat="41.36829833" lon="1.14232167">
        <ele>495.0</ele>
        <time>2021-07-11T07:51:55.000Z</time>
      </trkpt>
      <trkpt lat="41.36829167" lon="1.14232167">
        <ele>496.0</ele>
        <time>2021-07-11T07:51:56.000Z</time>
      </trkpt>
      <trkpt lat="41.36828167" lon="1.14232167">
        <ele>496.0</ele>
        <time>2021-07-11T07:51:57.000Z</time>
      </trkpt>
      <trkpt lat="41.36826833" lon="1.14232">
        <ele>496.0</ele>
        <time>2021-07-11T07:51:58.000Z</time>
      </trkpt>
      <trkpt lat="41.36826" lon="1.14231833">
        <ele>497.0</ele>
        <time>2021-07-11T07:51:59.000Z</time>
      </trkpt>
      <trkpt lat="41.36825333" lon="1.14231333">
        <ele>497.0</ele>
        <time>2021-07-11T07:52:00.000Z</time>
      </trkpt>
      <trkpt lat="41.36824833" lon="1.14230833">
        <ele>497.0</ele>
        <time>2021-07-11T07:52:01.000Z</time>
      </trkpt>
      <trkpt lat="41.36824167" lon="1.1423">
        <ele>497.0</ele>
        <time>2021-07-11T07:52:02.000Z</time>
      </trkpt>
      <trkpt lat="41.368235" lon="1.14229667">
        <ele>497.0</ele>
        <time>2021-07-11T07:52:03.000Z</time>
      </trkpt>
      <trkpt lat="41.36822833" lon="1.14229333">
        <ele>497.0</ele>
        <time>2021-07-11T07:52:04.000Z</time>
      </trkpt>
      <trkpt lat="41.36822" lon="1.14228167">
        <ele>497.0</ele>
        <time>2021-07-11T07:52:05.000Z</time>
      </trkpt>
      <trkpt lat="41.36821333" lon="1.14227667">
        <ele>496.0</ele>
        <time>2021-07-11T07:52:06.000Z</time>
      </trkpt>
      <trkpt lat="41.36820667" lon="1.14226333">
        <ele>496.0</ele>
        <time>2021-07-11T07:52:07.000Z</time>
      </trkpt>
      <trkpt lat="41.36820167" lon="1.14225833">
        <ele>496.0</ele>
        <time>2021-07-11T07:52:08.000Z</time>
      </trkpt>
      <trkpt lat="41.36819667" lon="1.14225">
        <ele>496.0</ele>
        <time>2021-07-11T07:52:09.000Z</time>
      </trkpt>
      <trkpt lat="41.36819167" lon="1.14225">
        <ele>496.0</ele>
        <time>2021-07-11T07:52:10.000Z</time>
      </trkpt>
      <trkpt lat="41.36819" lon="1.14224333">
        <ele>496.0</ele>
        <time>2021-07-11T07:52:11.000Z</time>
      </trkpt>
      <trkpt lat="41.36818667" lon="1.14224">
        <ele>497.0</ele>
        <time>2021-07-11T07:52:12.000Z</time>
      </trkpt>
      <trkpt lat="41.36818667" lon="1.14223667">
        <ele>497.0</ele>
        <time>2021-07-11T07:52:13.000Z</time>
      </trkpt>
      <trkpt lat="41.368185" lon="1.14222833">
        <ele>497.0</ele>
        <time>2021-07-11T07:52:14.000Z</time>
      </trkpt>
      <trkpt lat="41.368185" lon="1.142225">
        <ele>497.0</ele>
        <time>2021-07-11T07:52:15.000Z</time>
      </trkpt>
      <trkpt lat="41.36818333" lon="1.14221333">
        <ele>497.0</ele>
        <time>2021-07-11T07:52:16.000Z</time>
      </trkpt>
      <trkpt lat="41.36818167" lon="1.1422">
        <ele>497.0</ele>
        <time>2021-07-11T07:52:17.000Z</time>
      </trkpt>
      <trkpt lat="41.36817833" lon="1.14219167">
        <ele>497.0</ele>
        <time>2021-07-11T07:52:18.000Z</time>
      </trkpt>
      <trkpt lat="41.36816667" lon="1.14218667">
        <ele>497.0</ele>
        <time>2021-07-11T07:52:19.000Z</time>
      </trkpt>
      <trkpt lat="41.36816167" lon="1.14217667">
        <ele>497.0</ele>
        <time>2021-07-11T07:52:20.000Z</time>
      </trkpt>
      <trkpt lat="41.36816333" lon="1.142165">
        <ele>497.0</ele>
        <time>2021-07-11T07:52:21.000Z</time>
      </trkpt>
      <trkpt lat="41.36816167" lon="1.14214833">
        <ele>497.0</ele>
        <time>2021-07-11T07:52:22.000Z</time>
      </trkpt>
      <trkpt lat="41.36815833" lon="1.14213333">
        <ele>498.0</ele>
        <time>2021-07-11T07:52:23.000Z</time>
      </trkpt>
      <trkpt lat="41.36815667" lon="1.14212667">
        <ele>498.0</ele>
        <time>2021-07-11T07:52:24.000Z</time>
      </trkpt>
      <trkpt lat="41.36815833" lon="1.14211833">
        <ele>498.0</ele>
        <time>2021-07-11T07:52:25.000Z</time>
      </trkpt>
      <trkpt lat="41.36816167" lon="1.14211333">
        <ele>498.0</ele>
        <time>2021-07-11T07:52:26.000Z</time>
      </trkpt>
      <trkpt lat="41.36816333" lon="1.142105">
        <ele>498.0</ele>
        <time>2021-07-11T07:52:27.000Z</time>
      </trkpt>
      <trkpt lat="41.368165" lon="1.142095">
        <ele>498.0</ele>
        <time>2021-07-11T07:52:28.000Z</time>
      </trkpt>
      <trkpt lat="41.36816167" lon="1.14208667">
        <ele>499.0</ele>
        <time>2021-07-11T07:52:29.000Z</time>
      </trkpt>
      <trkpt lat="41.36815833" lon="1.142075">
        <ele>499.0</ele>
        <time>2021-07-11T07:52:30.000Z</time>
      </trkpt>
      <trkpt lat="41.36815833" lon="1.14205833">
        <ele>499.0</ele>
        <time>2021-07-11T07:52:31.000Z</time>
      </trkpt>
      <trkpt lat="41.36815667" lon="1.14204">
        <ele>499.0</ele>
        <time>2021-07-11T07:52:32.000Z</time>
      </trkpt>
      <trkpt lat="41.368155" lon="1.14203167">
        <ele>499.0</ele>
        <time>2021-07-11T07:52:33.000Z</time>
      </trkpt>
      <trkpt lat="41.36815167" lon="1.14202333">
        <ele>499.0</ele>
        <time>2021-07-11T07:52:34.000Z</time>
      </trkpt>
      <trkpt lat="41.36815" lon="1.14201333">
        <ele>499.0</ele>
        <time>2021-07-11T07:52:35.000Z</time>
      </trkpt>
      <trkpt lat="41.36814" lon="1.14200667">
        <ele>499.0</ele>
        <time>2021-07-11T07:52:36.000Z</time>
      </trkpt>
      <trkpt lat="41.36813333" lon="1.14199833">
        <ele>499.0</ele>
        <time>2021-07-11T07:52:37.000Z</time>
      </trkpt>
      <trkpt lat="41.36813" lon="1.14199">
        <ele>499.0</ele>
        <time>2021-07-11T07:52:38.000Z</time>
      </trkpt>
      <trkpt lat="41.36812833" lon="1.14198833">
        <ele>499.0</ele>
        <time>2021-07-11T07:52:39.000Z</time>
      </trkpt>
      <trkpt lat="41.36812167" lon="1.14199">
        <ele>499.0</ele>
        <time>2021-07-11T07:52:40.000Z</time>
      </trkpt>
      <trkpt lat="41.36811667" lon="1.14198833">
        <ele>500.0</ele>
        <time>2021-07-11T07:52:41.000Z</time>
      </trkpt>
      <trkpt lat="41.36810667" lon="1.14198333">
        <ele>500.0</ele>
        <time>2021-07-11T07:52:42.000Z</time>
      </trkpt>
      <trkpt lat="41.36810167" lon="1.14197">
        <ele>500.0</ele>
        <time>2021-07-11T07:52:43.000Z</time>
      </trkpt>
      <trkpt lat="41.368095" lon="1.14196667">
        <ele>500.0</ele>
        <time>2021-07-11T07:52:44.000Z</time>
      </trkpt>
      <trkpt lat="41.368095" lon="1.14196">
        <ele>500.0</ele>
        <time>2021-07-11T07:52:45.000Z</time>
      </trkpt>
      <trkpt lat="41.36809667" lon="1.14194833">
        <ele>500.0</ele>
        <time>2021-07-11T07:52:46.000Z</time>
      </trkpt>
      <trkpt lat="41.3681" lon="1.14193167">
        <ele>500.0</ele>
        <time>2021-07-11T07:52:47.000Z</time>
      </trkpt>
      <trkpt lat="41.36809833" lon="1.141925">
        <ele>500.0</ele>
        <time>2021-07-11T07:52:48.000Z</time>
      </trkpt>
      <trkpt lat="41.36809667" lon="1.14191833">
        <ele>500.0</ele>
        <time>2021-07-11T07:52:49.000Z</time>
      </trkpt>
      <trkpt lat="41.3681" lon="1.1419">
        <ele>500.0</ele>
        <time>2021-07-11T07:52:50.000Z</time>
      </trkpt>
      <trkpt lat="41.3681" lon="1.14188667">
        <ele>500.0</ele>
        <time>2021-07-11T07:52:51.000Z</time>
      </trkpt>
      <trkpt lat="41.3681" lon="1.14187">
        <ele>500.0</ele>
        <time>2021-07-11T07:52:52.000Z</time>
      </trkpt>
      <trkpt lat="41.36809667" lon="1.14185333">
        <ele>501.0</ele>
        <time>2021-07-11T07:52:53.000Z</time>
      </trkpt>
      <trkpt lat="41.36809833" lon="1.14184">
        <ele>501.0</ele>
        <time>2021-07-11T07:52:54.000Z</time>
      </trkpt>
      <trkpt lat="41.36809833" lon="1.14183333">
        <ele>501.0</ele>
        <time>2021-07-11T07:52:55.000Z</time>
      </trkpt>
      <trkpt lat="41.3681" lon="1.14182833">
        <ele>501.0</ele>
        <time>2021-07-11T07:52:56.000Z</time>
      </trkpt>
      <trkpt lat="41.368105" lon="1.14181667">
        <ele>501.0</ele>
        <time>2021-07-11T07:52:57.000Z</time>
      </trkpt>
      <trkpt lat="41.36810833" lon="1.14181">
        <ele>502.0</ele>
        <time>2021-07-11T07:52:58.000Z</time>
      </trkpt>
      <trkpt lat="41.36811" lon="1.14180833">
        <ele>502.0</ele>
        <time>2021-07-11T07:52:59.000Z</time>
      </trkpt>
      <trkpt lat="41.36810833" lon="1.14180333">
        <ele>502.0</ele>
        <time>2021-07-11T07:53:00.000Z</time>
      </trkpt>
      <trkpt lat="41.36810667" lon="1.14180167">
        <ele>502.0</ele>
        <time>2021-07-11T07:53:01.000Z</time>
      </trkpt>
      <trkpt lat="41.368105" lon="1.141805">
        <ele>502.0</ele>
        <time>2021-07-11T07:53:02.000Z</time>
      </trkpt>
      <trkpt lat="41.36810833" lon="1.14180333">
        <ele>502.0</ele>
        <time>2021-07-11T07:53:03.000Z</time>
      </trkpt>
      <trkpt lat="41.36810333" lon="1.1418">
        <ele>502.0</ele>
        <time>2021-07-11T07:53:04.000Z</time>
      </trkpt>
      <trkpt lat="41.368095" lon="1.14179667">
        <ele>502.0</ele>
        <time>2021-07-11T07:53:05.000Z</time>
      </trkpt>
      <trkpt lat="41.368095" lon="1.14179333">
        <ele>502.0</ele>
        <time>2021-07-11T07:53:06.000Z</time>
      </trkpt>
      <trkpt lat="41.36809" lon="1.14178667">
        <ele>503.0</ele>
        <time>2021-07-11T07:53:07.000Z</time>
      </trkpt>
      <trkpt lat="41.368085" lon="1.14177333">
        <ele>503.0</ele>
        <time>2021-07-11T07:53:08.000Z</time>
      </trkpt>
      <trkpt lat="41.36807" lon="1.14176167">
        <ele>503.0</ele>
        <time>2021-07-11T07:53:09.000Z</time>
      </trkpt>
      <trkpt lat="41.36805833" lon="1.14175">
        <ele>503.0</ele>
        <time>2021-07-11T07:53:10.000Z</time>
      </trkpt>
      <trkpt lat="41.368045" lon="1.14173833">
        <ele>503.0</ele>
        <time>2021-07-11T07:53:11.000Z</time>
      </trkpt>
      <trkpt lat="41.36803333" lon="1.141735">
        <ele>503.0</ele>
        <time>2021-07-11T07:53:12.000Z</time>
      </trkpt>
      <trkpt lat="41.36801833" lon="1.141725">
        <ele>503.0</ele>
        <time>2021-07-11T07:53:13.000Z</time>
      </trkpt>
      <trkpt lat="41.36800333" lon="1.14171667">
        <ele>503.0</ele>
        <time>2021-07-11T07:53:14.000Z</time>
      </trkpt>
      <trkpt lat="41.36799167" lon="1.14171333">
        <ele>503.0</ele>
        <time>2021-07-11T07:53:15.000Z</time>
      </trkpt>
      <trkpt lat="41.36798167" lon="1.14171667">
        <ele>503.0</ele>
        <time>2021-07-11T07:53:16.000Z</time>
      </trkpt>
      <trkpt lat="41.367975" lon="1.14171333">
        <ele>503.0</ele>
        <time>2021-07-11T07:53:17.000Z</time>
      </trkpt>
      <trkpt lat="41.36796833" lon="1.14171333">
        <ele>503.0</ele>
        <time>2021-07-11T07:53:18.000Z</time>
      </trkpt>
      <trkpt lat="41.36796" lon="1.14171333">
        <ele>503.0</ele>
        <time>2021-07-11T07:53:19.000Z</time>
      </trkpt>
      <trkpt lat="41.367955" lon="1.14171333">
        <ele>503.0</ele>
        <time>2021-07-11T07:53:20.000Z</time>
      </trkpt>
      <trkpt lat="41.36795167" lon="1.14171167">
        <ele>504.0</ele>
        <time>2021-07-11T07:53:21.000Z</time>
      </trkpt>
      <trkpt lat="41.36794167" lon="1.141705">
        <ele>504.0</ele>
        <time>2021-07-11T07:53:22.000Z</time>
      </trkpt>
      <trkpt lat="41.367935" lon="1.14169333">
        <ele>504.0</ele>
        <time>2021-07-11T07:53:23.000Z</time>
      </trkpt>
      <trkpt lat="41.36792833" lon="1.14168333">
        <ele>504.0</ele>
        <time>2021-07-11T07:53:24.000Z</time>
      </trkpt>
      <trkpt lat="41.36792167" lon="1.14167667">
        <ele>504.0</ele>
        <time>2021-07-11T07:53:25.000Z</time>
      </trkpt>
      <trkpt lat="41.36791667" lon="1.141665">
        <ele>504.0</ele>
        <time>2021-07-11T07:53:26.000Z</time>
      </trkpt>
      <trkpt lat="41.36791667" lon="1.14165167">
        <ele>504.0</ele>
        <time>2021-07-11T07:53:27.000Z</time>
      </trkpt>
      <trkpt lat="41.36791167" lon="1.14163833">
        <ele>504.0</ele>
        <time>2021-07-11T07:53:28.000Z</time>
      </trkpt>
      <trkpt lat="41.36791167" lon="1.14162667">
        <ele>504.0</ele>
        <time>2021-07-11T07:53:29.000Z</time>
      </trkpt>
      <trkpt lat="41.36791" lon="1.14162">
        <ele>504.0</ele>
        <time>2021-07-11T07:53:30.000Z</time>
      </trkpt>
      <trkpt lat="41.3679" lon="1.14161333">
        <ele>504.0</ele>
        <time>2021-07-11T07:53:31.000Z</time>
      </trkpt>
      <trkpt lat="41.36789667" lon="1.14160333">
        <ele>504.0</ele>
        <time>2021-07-11T07:53:32.000Z</time>
      </trkpt>
      <trkpt lat="41.36788833" lon="1.14159833">
        <ele>504.0</ele>
        <time>2021-07-11T07:53:33.000Z</time>
      </trkpt>
      <trkpt lat="41.36788333" lon="1.14159667">
        <ele>504.0</ele>
        <time>2021-07-11T07:53:34.000Z</time>
      </trkpt>
      <trkpt lat="41.36788833" lon="1.141585">
        <ele>505.0</ele>
        <time>2021-07-11T07:53:35.000Z</time>
      </trkpt>
      <trkpt lat="41.36788667" lon="1.14156833">
        <ele>505.0</ele>
        <time>2021-07-11T07:53:36.000Z</time>
      </trkpt>
      <trkpt lat="41.36788333" lon="1.14156">
        <ele>505.0</ele>
        <time>2021-07-11T07:53:37.000Z</time>
      </trkpt>
      <trkpt lat="41.36788167" lon="1.141555">
        <ele>506.0</ele>
        <time>2021-07-11T07:53:38.000Z</time>
      </trkpt>
      <trkpt lat="41.36788167" lon="1.14155">
        <ele>506.0</ele>
        <time>2021-07-11T07:53:39.000Z</time>
      </trkpt>
      <trkpt lat="41.36787667" lon="1.14155167">
        <ele>506.0</ele>
        <time>2021-07-11T07:53:40.000Z</time>
      </trkpt>
      <trkpt lat="41.367875" lon="1.141545">
        <ele>506.0</ele>
        <time>2021-07-11T07:53:41.000Z</time>
      </trkpt>
      <trkpt lat="41.367875" lon="1.141535">
        <ele>507.0</ele>
        <time>2021-07-11T07:53:42.000Z</time>
      </trkpt>
      <trkpt lat="41.36787667" lon="1.14152167">
        <ele>507.0</ele>
        <time>2021-07-11T07:53:43.000Z</time>
      </trkpt>
      <trkpt lat="41.36788" lon="1.14150833">
        <ele>507.0</ele>
        <time>2021-07-11T07:53:44.000Z</time>
      </trkpt>
      <trkpt lat="41.36788167" lon="1.1415">
        <ele>507.0</ele>
        <time>2021-07-11T07:53:45.000Z</time>
      </trkpt>
      <trkpt lat="41.36788667" lon="1.14148833">
        <ele>507.0</ele>
        <time>2021-07-11T07:53:46.000Z</time>
      </trkpt>
      <trkpt lat="41.36789" lon="1.14147833">
        <ele>507.0</ele>
        <time>2021-07-11T07:53:47.000Z</time>
      </trkpt>
      <trkpt lat="41.36789" lon="1.14146667">
        <ele>508.0</ele>
        <time>2021-07-11T07:53:48.000Z</time>
      </trkpt>
      <trkpt lat="41.36789" lon="1.14145833">
        <ele>508.0</ele>
        <time>2021-07-11T07:53:49.000Z</time>
      </trkpt>
      <trkpt lat="41.36789333" lon="1.14145667">
        <ele>508.0</ele>
        <time>2021-07-11T07:53:50.000Z</time>
      </trkpt>
      <trkpt lat="41.36789333" lon="1.14144833">
        <ele>508.0</ele>
        <time>2021-07-11T07:53:51.000Z</time>
      </trkpt>
      <trkpt lat="41.36789667" lon="1.14144167">
        <ele>508.0</ele>
        <time>2021-07-11T07:53:52.000Z</time>
      </trkpt>
      <trkpt lat="41.36789667" lon="1.14143167">
        <ele>508.0</ele>
        <time>2021-07-11T07:53:53.000Z</time>
      </trkpt>
      <trkpt lat="41.3679" lon="1.141425">
        <ele>508.0</ele>
        <time>2021-07-11T07:53:54.000Z</time>
      </trkpt>
      <trkpt lat="41.36789833" lon="1.14141667">
        <ele>508.0</ele>
        <time>2021-07-11T07:53:55.000Z</time>
      </trkpt>
      <trkpt lat="41.36789833" lon="1.14140667">
        <ele>508.0</ele>
        <time>2021-07-11T07:53:56.000Z</time>
      </trkpt>
      <trkpt lat="41.367895" lon="1.141405">
        <ele>509.0</ele>
        <time>2021-07-11T07:53:57.000Z</time>
      </trkpt>
      <trkpt lat="41.36789167" lon="1.14140167">
        <ele>509.0</ele>
        <time>2021-07-11T07:53:58.000Z</time>
      </trkpt>
      <trkpt lat="41.36789167" lon="1.14140167">
        <ele>509.0</ele>
        <time>2021-07-11T07:53:59.000Z</time>
      </trkpt>
      <trkpt lat="41.3679" lon="1.14139833">
        <ele>509.0</ele>
        <time>2021-07-11T07:54:00.000Z</time>
      </trkpt>
      <trkpt lat="41.367905" lon="1.14140833">
        <ele>509.0</ele>
        <time>2021-07-11T07:54:01.000Z</time>
      </trkpt>
      <trkpt lat="41.36791333" lon="1.14141167">
        <ele>509.0</ele>
        <time>2021-07-11T07:54:02.000Z</time>
      </trkpt>
      <trkpt lat="41.36791833" lon="1.14142">
        <ele>509.0</ele>
        <time>2021-07-11T07:54:03.000Z</time>
      </trkpt>
      <trkpt lat="41.36792833" lon="1.14141833">
        <ele>509.0</ele>
        <time>2021-07-11T07:54:04.000Z</time>
      </trkpt>
      <trkpt lat="41.36793333" lon="1.14142167">
        <ele>509.0</ele>
        <time>2021-07-11T07:54:05.000Z</time>
      </trkpt>
      <trkpt lat="41.36793667" lon="1.14142667">
        <ele>509.0</ele>
        <time>2021-07-11T07:54:06.000Z</time>
      </trkpt>
      <trkpt lat="41.36794167" lon="1.14143333">
        <ele>509.0</ele>
        <time>2021-07-11T07:54:07.000Z</time>
      </trkpt>
      <trkpt lat="41.367945" lon="1.14143833">
        <ele>509.0</ele>
        <time>2021-07-11T07:54:08.000Z</time>
      </trkpt>
      <trkpt lat="41.36794833" lon="1.14144833">
        <ele>509.0</ele>
        <time>2021-07-11T07:54:09.000Z</time>
      </trkpt>
      <trkpt lat="41.36795" lon="1.14145667">
        <ele>509.0</ele>
        <time>2021-07-11T07:54:10.000Z</time>
      </trkpt>
      <trkpt lat="41.367955" lon="1.14146167">
        <ele>509.0</ele>
        <time>2021-07-11T07:54:11.000Z</time>
      </trkpt>
      <trkpt lat="41.36795833" lon="1.141465">
        <ele>509.0</ele>
        <time>2021-07-11T07:54:12.000Z</time>
      </trkpt>
      <trkpt lat="41.36796833" lon="1.14146833">
        <ele>509.0</ele>
        <time>2021-07-11T07:54:13.000Z</time>
      </trkpt>
      <trkpt lat="41.367975" lon="1.14147167">
        <ele>509.0</ele>
        <time>2021-07-11T07:54:14.000Z</time>
      </trkpt>
      <trkpt lat="41.36799" lon="1.14147333">
        <ele>509.0</ele>
        <time>2021-07-11T07:54:15.000Z</time>
      </trkpt>
      <trkpt lat="41.36799667" lon="1.14147333">
        <ele>509.0</ele>
        <time>2021-07-11T07:54:16.000Z</time>
      </trkpt>
      <trkpt lat="41.36800667" lon="1.14147333">
        <ele>510.0</ele>
        <time>2021-07-11T07:54:17.000Z</time>
      </trkpt>
      <trkpt lat="41.368015" lon="1.14147333">
        <ele>510.0</ele>
        <time>2021-07-11T07:54:18.000Z</time>
      </trkpt>
      <trkpt lat="41.368025" lon="1.14147167">
        <ele>510.0</ele>
        <time>2021-07-11T07:54:19.000Z</time>
      </trkpt>
      <trkpt lat="41.36802833" lon="1.14147167">
        <ele>510.0</ele>
        <time>2021-07-11T07:54:20.000Z</time>
      </trkpt>
      <trkpt lat="41.36803167" lon="1.141465">
        <ele>510.0</ele>
        <time>2021-07-11T07:54:21.000Z</time>
      </trkpt>
      <trkpt lat="41.36803" lon="1.14146167">
        <ele>510.0</ele>
        <time>2021-07-11T07:54:22.000Z</time>
      </trkpt>
      <trkpt lat="41.36803" lon="1.14145667">
        <ele>510.0</ele>
        <time>2021-07-11T07:54:23.000Z</time>
      </trkpt>
      <trkpt lat="41.368025" lon="1.14145167">
        <ele>511.0</ele>
        <time>2021-07-11T07:54:24.000Z</time>
      </trkpt>
      <trkpt lat="41.36802167" lon="1.14144">
        <ele>511.0</ele>
        <time>2021-07-11T07:54:25.000Z</time>
      </trkpt>
      <trkpt lat="41.36801833" lon="1.14142833">
        <ele>511.0</ele>
        <time>2021-07-11T07:54:26.000Z</time>
      </trkpt>
      <trkpt lat="41.36801" lon="1.14142">
        <ele>511.0</ele>
        <time>2021-07-11T07:54:27.000Z</time>
      </trkpt>
      <trkpt lat="41.368005" lon="1.14141667">
        <ele>511.0</ele>
        <time>2021-07-11T07:54:28.000Z</time>
      </trkpt>
      <trkpt lat="41.36799667" lon="1.14141167">
        <ele>511.0</ele>
        <time>2021-07-11T07:54:29.000Z</time>
      </trkpt>
      <trkpt lat="41.36798833" lon="1.14140167">
        <ele>511.0</ele>
        <time>2021-07-11T07:54:30.000Z</time>
      </trkpt>
      <trkpt lat="41.36798" lon="1.14139167">
        <ele>511.0</ele>
        <time>2021-07-11T07:54:31.000Z</time>
      </trkpt>
      <trkpt lat="41.36797667" lon="1.141385">
        <ele>511.0</ele>
        <time>2021-07-11T07:54:32.000Z</time>
      </trkpt>
      <trkpt lat="41.36797333" lon="1.14138">
        <ele>511.0</ele>
        <time>2021-07-11T07:54:33.000Z</time>
      </trkpt>
      <trkpt lat="41.36797" lon="1.14136833">
        <ele>511.0</ele>
        <time>2021-07-11T07:54:34.000Z</time>
      </trkpt>
      <trkpt lat="41.36796167" lon="1.14135833">
        <ele>511.0</ele>
        <time>2021-07-11T07:54:35.000Z</time>
      </trkpt>
      <trkpt lat="41.367965" lon="1.14134333">
        <ele>511.0</ele>
        <time>2021-07-11T07:54:36.000Z</time>
      </trkpt>
      <trkpt lat="41.36796167" lon="1.14133333">
        <ele>511.0</ele>
        <time>2021-07-11T07:54:37.000Z</time>
      </trkpt>
      <trkpt lat="41.36795833" lon="1.14131833">
        <ele>512.0</ele>
        <time>2021-07-11T07:54:38.000Z</time>
      </trkpt>
      <trkpt lat="41.367955" lon="1.14131167">
        <ele>512.0</ele>
        <time>2021-07-11T07:54:39.000Z</time>
      </trkpt>
      <trkpt lat="41.36795833" lon="1.14130333">
        <ele>512.0</ele>
        <time>2021-07-11T07:54:40.000Z</time>
      </trkpt>
      <trkpt lat="41.367955" lon="1.14129667">
        <ele>512.0</ele>
        <time>2021-07-11T07:54:41.000Z</time>
      </trkpt>
      <trkpt lat="41.367955" lon="1.141285">
        <ele>512.0</ele>
        <time>2021-07-11T07:54:42.000Z</time>
      </trkpt>
      <trkpt lat="41.36795" lon="1.141275">
        <ele>512.0</ele>
        <time>2021-07-11T07:54:43.000Z</time>
      </trkpt>
      <trkpt lat="41.36794167" lon="1.14126833">
        <ele>512.0</ele>
        <time>2021-07-11T07:54:44.000Z</time>
      </trkpt>
      <trkpt lat="41.367935" lon="1.14126333">
        <ele>512.0</ele>
        <time>2021-07-11T07:54:45.000Z</time>
      </trkpt>
      <trkpt lat="41.36792833" lon="1.14126333">
        <ele>513.0</ele>
        <time>2021-07-11T07:54:46.000Z</time>
      </trkpt>
      <trkpt lat="41.36792333" lon="1.14126">
        <ele>513.0</ele>
        <time>2021-07-11T07:54:47.000Z</time>
      </trkpt>
      <trkpt lat="41.36791667" lon="1.14125333">
        <ele>513.0</ele>
        <time>2021-07-11T07:54:48.000Z</time>
      </trkpt>
      <trkpt lat="41.36791" lon="1.14124333">
        <ele>513.0</ele>
        <time>2021-07-11T07:54:49.000Z</time>
      </trkpt>
      <trkpt lat="41.36790167" lon="1.14124167">
        <ele>513.0</ele>
        <time>2021-07-11T07:54:50.000Z</time>
      </trkpt>
      <trkpt lat="41.36789167" lon="1.14124">
        <ele>513.0</ele>
        <time>2021-07-11T07:54:51.000Z</time>
      </trkpt>
      <trkpt lat="41.36788667" lon="1.141235">
        <ele>513.0</ele>
        <time>2021-07-11T07:54:52.000Z</time>
      </trkpt>
      <trkpt lat="41.36788" lon="1.14122833">
        <ele>513.0</ele>
        <time>2021-07-11T07:54:53.000Z</time>
      </trkpt>
      <trkpt lat="41.36787333" lon="1.14122167">
        <ele>513.0</ele>
        <time>2021-07-11T07:54:54.000Z</time>
      </trkpt>
      <trkpt lat="41.36786833" lon="1.14121833">
        <ele>514.0</ele>
        <time>2021-07-11T07:54:55.000Z</time>
      </trkpt>
      <trkpt lat="41.367865" lon="1.14121167">
        <ele>514.0</ele>
        <time>2021-07-11T07:54:56.000Z</time>
      </trkpt>
      <trkpt lat="41.36786333" lon="1.14120167">
        <ele>514.0</ele>
        <time>2021-07-11T07:54:57.000Z</time>
      </trkpt>
      <trkpt lat="41.36786167" lon="1.14118833">
        <ele>514.0</ele>
        <time>2021-07-11T07:54:58.000Z</time>
      </trkpt>
      <trkpt lat="41.36785333" lon="1.141175">
        <ele>515.0</ele>
        <time>2021-07-11T07:54:59.000Z</time>
      </trkpt>
      <trkpt lat="41.36784833" lon="1.14115667">
        <ele>515.0</ele>
        <time>2021-07-11T07:55:00.000Z</time>
      </trkpt>
      <trkpt lat="41.36784667" lon="1.14113667">
        <ele>515.0</ele>
        <time>2021-07-11T07:55:01.000Z</time>
      </trkpt>
      <trkpt lat="41.367845" lon="1.141125">
        <ele>515.0</ele>
        <time>2021-07-11T07:55:02.000Z</time>
      </trkpt>
      <trkpt lat="41.36784167" lon="1.14111667">
        <ele>515.0</ele>
        <time>2021-07-11T07:55:03.000Z</time>
      </trkpt>
      <trkpt lat="41.36784167" lon="1.14110667">
        <ele>515.0</ele>
        <time>2021-07-11T07:55:04.000Z</time>
      </trkpt>
      <trkpt lat="41.36784" lon="1.14108667">
        <ele>516.0</ele>
        <time>2021-07-11T07:55:05.000Z</time>
      </trkpt>
      <trkpt lat="41.36784" lon="1.14107833">
        <ele>516.0</ele>
        <time>2021-07-11T07:55:06.000Z</time>
      </trkpt>
      <trkpt lat="41.36784" lon="1.14106833">
        <ele>516.0</ele>
        <time>2021-07-11T07:55:07.000Z</time>
      </trkpt>
      <trkpt lat="41.36784" lon="1.14105833">
        <ele>516.0</ele>
        <time>2021-07-11T07:55:08.000Z</time>
      </trkpt>
      <trkpt lat="41.36783833" lon="1.14104833">
        <ele>516.0</ele>
        <time>2021-07-11T07:55:09.000Z</time>
      </trkpt>
      <trkpt lat="41.36783667" lon="1.14103833">
        <ele>516.0</ele>
        <time>2021-07-11T07:55:10.000Z</time>
      </trkpt>
      <trkpt lat="41.367835" lon="1.141035">
        <ele>518.0</ele>
        <time>2021-07-11T07:55:11.000Z</time>
      </trkpt>
      <trkpt lat="41.36783167" lon="1.141035">
        <ele>518.0</ele>
        <time>2021-07-11T07:55:12.000Z</time>
      </trkpt>
      <trkpt lat="41.36782833" lon="1.14103333">
        <ele>518.0</ele>
        <time>2021-07-11T07:55:13.000Z</time>
      </trkpt>
      <trkpt lat="41.36782833" lon="1.14102667">
        <ele>518.0</ele>
        <time>2021-07-11T07:55:14.000Z</time>
      </trkpt>
      <trkpt lat="41.367825" lon="1.141015">
        <ele>518.0</ele>
        <time>2021-07-11T07:55:15.000Z</time>
      </trkpt>
      <trkpt lat="41.36782667" lon="1.14100167">
        <ele>518.0</ele>
        <time>2021-07-11T07:55:16.000Z</time>
      </trkpt>
      <trkpt lat="41.36782667" lon="1.14099">
        <ele>519.0</ele>
        <time>2021-07-11T07:55:17.000Z</time>
      </trkpt>
      <trkpt lat="41.36782333" lon="1.140975">
        <ele>519.0</ele>
        <time>2021-07-11T07:55:18.000Z</time>
      </trkpt>
      <trkpt lat="41.36782333" lon="1.140965">
        <ele>519.0</ele>
        <time>2021-07-11T07:55:19.000Z</time>
      </trkpt>
      <trkpt lat="41.36782" lon="1.14095333">
        <ele>519.0</ele>
        <time>2021-07-11T07:55:20.000Z</time>
      </trkpt>
      <trkpt lat="41.36782333" lon="1.14094833">
        <ele>519.0</ele>
        <time>2021-07-11T07:55:21.000Z</time>
      </trkpt>
      <trkpt lat="41.36782667" lon="1.14094">
        <ele>519.0</ele>
        <time>2021-07-11T07:55:22.000Z</time>
      </trkpt>
      <trkpt lat="41.36783167" lon="1.140935">
        <ele>520.0</ele>
        <time>2021-07-11T07:55:23.000Z</time>
      </trkpt>
      <trkpt lat="41.36783667" lon="1.14092667">
        <ele>520.0</ele>
        <time>2021-07-11T07:55:24.000Z</time>
      </trkpt>
      <trkpt lat="41.36783667" lon="1.14091667">
        <ele>520.0</ele>
        <time>2021-07-11T07:55:25.000Z</time>
      </trkpt>
      <trkpt lat="41.36783833" lon="1.14089833">
        <ele>520.0</ele>
        <time>2021-07-11T07:55:26.000Z</time>
      </trkpt>
      <trkpt lat="41.36784" lon="1.14088667">
        <ele>521.0</ele>
        <time>2021-07-11T07:55:27.000Z</time>
      </trkpt>
      <trkpt lat="41.36784333" lon="1.14087">
        <ele>521.0</ele>
        <time>2021-07-11T07:55:28.000Z</time>
      </trkpt>
      <trkpt lat="41.36784333" lon="1.14085833">
        <ele>521.0</ele>
        <time>2021-07-11T07:55:29.000Z</time>
      </trkpt>
      <trkpt lat="41.36784333" lon="1.140845">
        <ele>521.0</ele>
        <time>2021-07-11T07:55:30.000Z</time>
      </trkpt>
      <trkpt lat="41.36784" lon="1.14083833">
        <ele>521.0</ele>
        <time>2021-07-11T07:55:31.000Z</time>
      </trkpt>
      <trkpt lat="41.36784167" lon="1.14082667">
        <ele>521.0</ele>
        <time>2021-07-11T07:55:32.000Z</time>
      </trkpt>
      <trkpt lat="41.36784" lon="1.140815">
        <ele>522.0</ele>
        <time>2021-07-11T07:55:33.000Z</time>
      </trkpt>
      <trkpt lat="41.36783833" lon="1.14080667">
        <ele>522.0</ele>
        <time>2021-07-11T07:55:34.000Z</time>
      </trkpt>
      <trkpt lat="41.36783333" lon="1.14079667">
        <ele>522.0</ele>
        <time>2021-07-11T07:55:35.000Z</time>
      </trkpt>
      <trkpt lat="41.36783333" lon="1.14078">
        <ele>522.0</ele>
        <time>2021-07-11T07:55:36.000Z</time>
      </trkpt>
      <trkpt lat="41.36783333" lon="1.14076667">
        <ele>522.0</ele>
        <time>2021-07-11T07:55:37.000Z</time>
      </trkpt>
      <trkpt lat="41.36783" lon="1.14076167">
        <ele>522.0</ele>
        <time>2021-07-11T07:55:38.000Z</time>
      </trkpt>
      <trkpt lat="41.36783" lon="1.14074833">
        <ele>522.0</ele>
        <time>2021-07-11T07:55:39.000Z</time>
      </trkpt>
      <trkpt lat="41.36782833" lon="1.14074">
        <ele>522.0</ele>
        <time>2021-07-11T07:55:40.000Z</time>
      </trkpt>
      <trkpt lat="41.36782167" lon="1.14073333">
        <ele>522.0</ele>
        <time>2021-07-11T07:55:41.000Z</time>
      </trkpt>
      <trkpt lat="41.36781833" lon="1.14073167">
        <ele>523.0</ele>
        <time>2021-07-11T07:55:42.000Z</time>
      </trkpt>
      <trkpt lat="41.36781333" lon="1.140725">
        <ele>523.0</ele>
        <time>2021-07-11T07:55:43.000Z</time>
      </trkpt>
      <trkpt lat="41.36780833" lon="1.14071833">
        <ele>523.0</ele>
        <time>2021-07-11T07:55:44.000Z</time>
      </trkpt>
      <trkpt lat="41.36780333" lon="1.14070667">
        <ele>523.0</ele>
        <time>2021-07-11T07:55:45.000Z</time>
      </trkpt>
      <trkpt lat="41.36779833" lon="1.14070333">
        <ele>523.0</ele>
        <time>2021-07-11T07:55:46.000Z</time>
      </trkpt>
      <trkpt lat="41.36779167" lon="1.14070167">
        <ele>523.0</ele>
        <time>2021-07-11T07:55:47.000Z</time>
      </trkpt>
      <trkpt lat="41.36778667" lon="1.1407">
        <ele>523.0</ele>
        <time>2021-07-11T07:55:48.000Z</time>
      </trkpt>
      <trkpt lat="41.36778333" lon="1.140695">
        <ele>523.0</ele>
        <time>2021-07-11T07:55:49.000Z</time>
      </trkpt>
      <trkpt lat="41.36777833" lon="1.14069">
        <ele>524.0</ele>
        <time>2021-07-11T07:55:50.000Z</time>
      </trkpt>
      <trkpt lat="41.36777333" lon="1.14067833">
        <ele>524.0</ele>
        <time>2021-07-11T07:55:51.000Z</time>
      </trkpt>
      <trkpt lat="41.36777" lon="1.14067333">
        <ele>524.0</ele>
        <time>2021-07-11T07:55:52.000Z</time>
      </trkpt>
      <trkpt lat="41.36777" lon="1.14066667">
        <ele>525.0</ele>
        <time>2021-07-11T07:55:53.000Z</time>
      </trkpt>
      <trkpt lat="41.36776333" lon="1.14065833">
        <ele>525.0</ele>
        <time>2021-07-11T07:55:54.000Z</time>
      </trkpt>
      <trkpt lat="41.36776167" lon="1.14065333">
        <ele>525.0</ele>
        <time>2021-07-11T07:55:55.000Z</time>
      </trkpt>
      <trkpt lat="41.367755" lon="1.14065667">
        <ele>525.0</ele>
        <time>2021-07-11T07:55:56.000Z</time>
      </trkpt>
      <trkpt lat="41.36774833" lon="1.14065167">
        <ele>525.0</ele>
        <time>2021-07-11T07:55:57.000Z</time>
      </trkpt>
      <trkpt lat="41.36774" lon="1.14064167">
        <ele>525.0</ele>
        <time>2021-07-11T07:55:58.000Z</time>
      </trkpt>
      <trkpt lat="41.36773667" lon="1.14063667">
        <ele>525.0</ele>
        <time>2021-07-11T07:55:59.000Z</time>
      </trkpt>
      <trkpt lat="41.36773167" lon="1.14063167">
        <ele>525.0</ele>
        <time>2021-07-11T07:56:00.000Z</time>
      </trkpt>
      <trkpt lat="41.36773" lon="1.14062167">
        <ele>525.0</ele>
        <time>2021-07-11T07:56:01.000Z</time>
      </trkpt>
      <trkpt lat="41.36772667" lon="1.14061167">
        <ele>525.0</ele>
        <time>2021-07-11T07:56:02.000Z</time>
      </trkpt>
      <trkpt lat="41.36772" lon="1.1406">
        <ele>525.0</ele>
        <time>2021-07-11T07:56:03.000Z</time>
      </trkpt>
      <trkpt lat="41.36771333" lon="1.14059833">
        <ele>526.0</ele>
        <time>2021-07-11T07:56:04.000Z</time>
      </trkpt>
      <trkpt lat="41.36770667" lon="1.14059667">
        <ele>526.0</ele>
        <time>2021-07-11T07:56:05.000Z</time>
      </trkpt>
      <trkpt lat="41.36770333" lon="1.1406">
        <ele>526.0</ele>
        <time>2021-07-11T07:56:06.000Z</time>
      </trkpt>
      <trkpt lat="41.36770167" lon="1.14060333">
        <ele>526.0</ele>
        <time>2021-07-11T07:56:07.000Z</time>
      </trkpt>
      <trkpt lat="41.36770167" lon="1.14060167">
        <ele>526.0</ele>
        <time>2021-07-11T07:56:08.000Z</time>
      </trkpt>
      <trkpt lat="41.36770333" lon="1.14060333">
        <ele>526.0</ele>
        <time>2021-07-11T07:56:09.000Z</time>
      </trkpt>
      <trkpt lat="41.3677" lon="1.14060667">
        <ele>526.0</ele>
        <time>2021-07-11T07:56:10.000Z</time>
      </trkpt>
      <trkpt lat="41.3677" lon="1.14060833">
        <ele>526.0</ele>
        <time>2021-07-11T07:56:11.000Z</time>
      </trkpt>
      <trkpt lat="41.36769833" lon="1.14061167">
        <ele>526.0</ele>
        <time>2021-07-11T07:56:12.000Z</time>
      </trkpt>
      <trkpt lat="41.36769667" lon="1.14061333">
        <ele>526.0</ele>
        <time>2021-07-11T07:56:13.000Z</time>
      </trkpt>
      <trkpt lat="41.36768833" lon="1.14062">
        <ele>526.0</ele>
        <time>2021-07-11T07:56:14.000Z</time>
      </trkpt>
      <trkpt lat="41.36768833" lon="1.14061833">
        <ele>526.0</ele>
        <time>2021-07-11T07:56:15.000Z</time>
      </trkpt>
      <trkpt lat="41.36769" lon="1.14061833">
        <ele>526.0</ele>
        <time>2021-07-11T07:56:16.000Z</time>
      </trkpt>
      <trkpt lat="41.36768667" lon="1.14061833">
        <ele>526.0</ele>
        <time>2021-07-11T07:56:17.000Z</time>
      </trkpt>
      <trkpt lat="41.36768333" lon="1.14061167">
        <ele>526.0</ele>
        <time>2021-07-11T07:56:18.000Z</time>
      </trkpt>
      <trkpt lat="41.36768167" lon="1.14061">
        <ele>526.0</ele>
        <time>2021-07-11T07:56:19.000Z</time>
      </trkpt>
      <trkpt lat="41.36768333" lon="1.14060667">
        <ele>526.0</ele>
        <time>2021-07-11T07:56:20.000Z</time>
      </trkpt>
      <trkpt lat="41.36768" lon="1.14060833">
        <ele>526.0</ele>
        <time>2021-07-11T07:56:21.000Z</time>
      </trkpt>
      <trkpt lat="41.367685" lon="1.14060667">
        <ele>526.0</ele>
        <time>2021-07-11T07:56:22.000Z</time>
      </trkpt>
      <trkpt lat="41.36768667" lon="1.14060667">
        <ele>526.0</ele>
        <time>2021-07-11T07:56:23.000Z</time>
      </trkpt>
      <trkpt lat="41.36769333" lon="1.14060167">
        <ele>525.0</ele>
        <time>2021-07-11T07:56:24.000Z</time>
      </trkpt>
      <trkpt lat="41.36769333" lon="1.140595">
        <ele>525.0</ele>
        <time>2021-07-11T07:56:25.000Z</time>
      </trkpt>
      <trkpt lat="41.36769333" lon="1.14059333">
        <ele>525.0</ele>
        <time>2021-07-11T07:56:26.000Z</time>
      </trkpt>
      <trkpt lat="41.36769667" lon="1.14059">
        <ele>525.0</ele>
        <time>2021-07-11T07:56:27.000Z</time>
      </trkpt>
      <trkpt lat="41.36769667" lon="1.14059167">
        <ele>525.0</ele>
        <time>2021-07-11T07:56:28.000Z</time>
      </trkpt>
      <trkpt lat="41.367695" lon="1.1406">
        <ele>525.0</ele>
        <time>2021-07-11T07:56:29.000Z</time>
      </trkpt>
      <trkpt lat="41.36769167" lon="1.14060167">
        <ele>525.0</ele>
        <time>2021-07-11T07:56:30.000Z</time>
      </trkpt>
      <trkpt lat="41.367695" lon="1.140605">
        <ele>525.0</ele>
        <time>2021-07-11T07:56:31.000Z</time>
      </trkpt>
      <trkpt lat="41.367695" lon="1.14061167">
        <ele>526.0</ele>
        <time>2021-07-11T07:56:32.000Z</time>
      </trkpt>
      <trkpt lat="41.367695" lon="1.14061667">
        <ele>527.0</ele>
        <time>2021-07-11T07:56:33.000Z</time>
      </trkpt>
      <trkpt lat="41.36769667" lon="1.14061667">
        <ele>527.0</ele>
        <time>2021-07-11T07:56:34.000Z</time>
      </trkpt>
      <trkpt lat="41.36769333" lon="1.14061833">
        <ele>527.0</ele>
        <time>2021-07-11T07:56:35.000Z</time>
      </trkpt>
      <trkpt lat="41.367695" lon="1.14061833">
        <ele>527.0</ele>
        <time>2021-07-11T07:56:36.000Z</time>
      </trkpt>
      <trkpt lat="41.36769333" lon="1.14062">
        <ele>527.0</ele>
        <time>2021-07-11T07:56:37.000Z</time>
      </trkpt>
      <trkpt lat="41.36769167" lon="1.14062333">
        <ele>528.0</ele>
        <time>2021-07-11T07:56:38.000Z</time>
      </trkpt>
      <trkpt lat="41.36769167" lon="1.14062833">
        <ele>528.0</ele>
        <time>2021-07-11T07:56:39.000Z</time>
      </trkpt>
      <trkpt lat="41.36769" lon="1.14063333">
        <ele>529.0</ele>
        <time>2021-07-11T07:56:40.000Z</time>
      </trkpt>
      <trkpt lat="41.36768833" lon="1.140635">
        <ele>529.0</ele>
        <time>2021-07-11T07:56:41.000Z</time>
      </trkpt>
      <trkpt lat="41.36768833" lon="1.14063667">
        <ele>529.0</ele>
        <time>2021-07-11T07:56:42.000Z</time>
      </trkpt>
      <trkpt lat="41.36768667" lon="1.14064">
        <ele>529.0</ele>
        <time>2021-07-11T07:56:43.000Z</time>
      </trkpt>
      <trkpt lat="41.36768667" lon="1.140645">
        <ele>530.0</ele>
        <time>2021-07-11T07:56:44.000Z</time>
      </trkpt>
      <trkpt lat="41.367685" lon="1.14064667">
        <ele>530.0</ele>
        <time>2021-07-11T07:56:45.000Z</time>
      </trkpt>
      <trkpt lat="41.36768333" lon="1.14065">
        <ele>530.0</ele>
        <time>2021-07-11T07:56:46.000Z</time>
      </trkpt>
      <trkpt lat="41.36768333" lon="1.14065167">
        <ele>531.0</ele>
        <time>2021-07-11T07:56:47.000Z</time>
      </trkpt>
      <trkpt lat="41.36768" lon="1.14065667">
        <ele>531.0</ele>
        <time>2021-07-11T07:56:48.000Z</time>
      </trkpt>
      <trkpt lat="41.36767833" lon="1.14066">
        <ele>531.0</ele>
        <time>2021-07-11T07:56:49.000Z</time>
      </trkpt>
      <trkpt lat="41.36767833" lon="1.14066333">
        <ele>531.0</ele>
        <time>2021-07-11T07:56:50.000Z</time>
      </trkpt>
      <trkpt lat="41.36767833" lon="1.140665">
        <ele>532.0</ele>
        <time>2021-07-11T07:56:51.000Z</time>
      </trkpt>
      <trkpt lat="41.36767833" lon="1.140665">
        <ele>533.0</ele>
        <time>2021-07-11T07:56:52.000Z</time>
      </trkpt>
      <trkpt lat="41.36767833" lon="1.14066667">
        <ele>533.0</ele>
        <time>2021-07-11T07:56:53.000Z</time>
      </trkpt>
      <trkpt lat="41.36767833" lon="1.14066833">
        <ele>533.0</ele>
        <time>2021-07-11T07:56:54.000Z</time>
      </trkpt>
      <trkpt lat="41.36767667" lon="1.14067">
        <ele>533.0</ele>
        <time>2021-07-11T07:56:55.000Z</time>
      </trkpt>
      <trkpt lat="41.367675" lon="1.14067333">
        <ele>533.0</ele>
        <time>2021-07-11T07:56:56.000Z</time>
      </trkpt>
      <trkpt lat="41.367675" lon="1.140675">
        <ele>534.0</ele>
        <time>2021-07-11T07:56:57.000Z</time>
      </trkpt>
      <trkpt lat="41.36767333" lon="1.14067667">
        <ele>534.0</ele>
        <time>2021-07-11T07:56:58.000Z</time>
      </trkpt>
      <trkpt lat="41.367675" lon="1.140675">
        <ele>534.0</ele>
        <time>2021-07-11T07:56:59.000Z</time>
      </trkpt>
      <trkpt lat="41.367675" lon="1.14067333">
        <ele>534.0</ele>
        <time>2021-07-11T07:57:00.000Z</time>
      </trkpt>
      <trkpt lat="41.367675" lon="1.14067167">
        <ele>534.0</ele>
        <time>2021-07-11T07:57:01.000Z</time>
      </trkpt>
      <trkpt lat="41.367675" lon="1.14067333">
        <ele>534.0</ele>
        <time>2021-07-11T07:57:02.000Z</time>
      </trkpt>
      <trkpt lat="41.367675" lon="1.14067167">
        <ele>534.0</ele>
        <time>2021-07-11T07:57:03.000Z</time>
      </trkpt>
      <trkpt lat="41.367675" lon="1.14067167">
        <ele>535.0</ele>
        <time>2021-07-11T07:57:04.000Z</time>
      </trkpt>
      <trkpt lat="41.367675" lon="1.14067">
        <ele>535.0</ele>
        <time>2021-07-11T07:57:05.000Z</time>
      </trkpt>
      <trkpt lat="41.367675" lon="1.14067">
        <ele>535.0</ele>
        <time>2021-07-11T07:57:06.000Z</time>
      </trkpt>
      <trkpt lat="41.367675" lon="1.14067167">
        <ele>535.0</ele>
        <time>2021-07-11T07:57:07.000Z</time>
      </trkpt>
      <trkpt lat="41.367675" lon="1.14067167">
        <ele>535.0</ele>
        <time>2021-07-11T07:57:08.000Z</time>
      </trkpt>
      <trkpt lat="41.36767333" lon="1.14067333">
        <ele>535.0</ele>
        <time>2021-07-11T07:57:09.000Z</time>
      </trkpt>
      <trkpt lat="41.36767167" lon="1.14067333">
        <ele>535.0</ele>
        <time>2021-07-11T07:57:10.000Z</time>
      </trkpt>
      <trkpt lat="41.36767" lon="1.14067333">
        <ele>535.0</ele>
        <time>2021-07-11T07:57:11.000Z</time>
      </trkpt>
      <trkpt lat="41.36767" lon="1.140675">
        <ele>536.0</ele>
        <time>2021-07-11T07:57:12.000Z</time>
      </trkpt>
      <trkpt lat="41.36767" lon="1.14067833">
        <ele>536.0</ele>
        <time>2021-07-11T07:57:13.000Z</time>
      </trkpt>
      <trkpt lat="41.36766833" lon="1.14068167">
        <ele>536.0</ele>
        <time>2021-07-11T07:57:14.000Z</time>
      </trkpt>
      <trkpt lat="41.36766667" lon="1.140685">
        <ele>536.0</ele>
        <time>2021-07-11T07:57:15.000Z</time>
      </trkpt>
      <trkpt lat="41.36766667" lon="1.14068833">
        <ele>536.0</ele>
        <time>2021-07-11T07:57:16.000Z</time>
      </trkpt>
      <trkpt lat="41.36766667" lon="1.14069">
        <ele>536.0</ele>
        <time>2021-07-11T07:57:17.000Z</time>
      </trkpt>
      <trkpt lat="41.36766667" lon="1.14069167">
        <ele>537.0</ele>
        <time>2021-07-11T07:57:18.000Z</time>
      </trkpt>
      <trkpt lat="41.36766667" lon="1.14069167">
        <ele>537.0</ele>
        <time>2021-07-11T07:57:19.000Z</time>
      </trkpt>
      <trkpt lat="41.36766667" lon="1.14069167">
        <ele>537.0</ele>
        <time>2021-07-11T07:57:20.000Z</time>
      </trkpt>
      <trkpt lat="41.36766833" lon="1.14069">
        <ele>537.0</ele>
        <time>2021-07-11T07:57:21.000Z</time>
      </trkpt>
      <trkpt lat="41.36766833" lon="1.14069167">
        <ele>537.0</ele>
        <time>2021-07-11T07:57:22.000Z</time>
      </trkpt>
      <trkpt lat="41.36766833" lon="1.14069333">
        <ele>537.0</ele>
        <time>2021-07-11T07:57:23.000Z</time>
      </trkpt>
      <trkpt lat="41.36766833" lon="1.14069333">
        <ele>537.0</ele>
        <time>2021-07-11T07:57:24.000Z</time>
      </trkpt>
      <trkpt lat="41.36766833" lon="1.140695">
        <ele>538.0</ele>
        <time>2021-07-11T07:57:25.000Z</time>
      </trkpt>
      <trkpt lat="41.36766833" lon="1.14069667">
        <ele>538.0</ele>
        <time>2021-07-11T07:57:26.000Z</time>
      </trkpt>
      <trkpt lat="41.36766833" lon="1.1407">
        <ele>538.0</ele>
        <time>2021-07-11T07:57:27.000Z</time>
      </trkpt>
      <trkpt lat="41.36767" lon="1.14070167">
        <ele>538.0</ele>
        <time>2021-07-11T07:57:28.000Z</time>
      </trkpt>
      <trkpt lat="41.36767167" lon="1.14070167">
        <ele>538.0</ele>
        <time>2021-07-11T07:57:29.000Z</time>
      </trkpt>
      <trkpt lat="41.36767333" lon="1.1407">
        <ele>539.0</ele>
        <time>2021-07-11T07:57:30.000Z</time>
      </trkpt>
      <trkpt lat="41.367675" lon="1.14069833">
        <ele>539.0</ele>
        <time>2021-07-11T07:57:31.000Z</time>
      </trkpt>
      <trkpt lat="41.36768" lon="1.140695">
        <ele>539.0</ele>
        <time>2021-07-11T07:57:32.000Z</time>
      </trkpt>
      <trkpt lat="41.36768333" lon="1.14069333">
        <ele>539.0</ele>
        <time>2021-07-11T07:57:33.000Z</time>
      </trkpt>
      <trkpt lat="41.367685" lon="1.14069">
        <ele>539.0</ele>
        <time>2021-07-11T07:57:34.000Z</time>
      </trkpt>
      <trkpt lat="41.36768833" lon="1.14068833">
        <ele>539.0</ele>
        <time>2021-07-11T07:57:35.000Z</time>
      </trkpt>
      <trkpt lat="41.36769" lon="1.14068833">
        <ele>540.0</ele>
        <time>2021-07-11T07:57:36.000Z</time>
      </trkpt>
      <trkpt lat="41.36769167" lon="1.14068833">
        <ele>540.0</ele>
        <time>2021-07-11T07:57:37.000Z</time>
      </trkpt>
      <trkpt lat="41.36769333" lon="1.14068667">
        <ele>540.0</ele>
        <time>2021-07-11T07:57:38.000Z</time>
      </trkpt>
      <trkpt lat="41.367695" lon="1.14068333">
        <ele>540.0</ele>
        <time>2021-07-11T07:57:39.000Z</time>
      </trkpt>
      <trkpt lat="41.36769333" lon="1.14068">
        <ele>540.0</ele>
        <time>2021-07-11T07:57:40.000Z</time>
      </trkpt>
      <trkpt lat="41.36769" lon="1.14067333">
        <ele>540.0</ele>
        <time>2021-07-11T07:57:41.000Z</time>
      </trkpt>
      <trkpt lat="41.367685" lon="1.14066">
        <ele>540.0</ele>
        <time>2021-07-11T07:57:42.000Z</time>
      </trkpt>
      <trkpt lat="41.36768" lon="1.14064667">
        <ele>540.0</ele>
        <time>2021-07-11T07:57:43.000Z</time>
      </trkpt>
      <trkpt lat="41.36767833" lon="1.14063167">
        <ele>540.0</ele>
        <time>2021-07-11T07:57:44.000Z</time>
      </trkpt>
      <trkpt lat="41.367675" lon="1.140615">
        <ele>540.0</ele>
        <time>2021-07-11T07:57:45.000Z</time>
      </trkpt>
      <trkpt lat="41.36767" lon="1.14060167">
        <ele>540.0</ele>
        <time>2021-07-11T07:57:46.000Z</time>
      </trkpt>
      <trkpt lat="41.36766333" lon="1.14058667">
        <ele>540.0</ele>
        <time>2021-07-11T07:57:47.000Z</time>
      </trkpt>
      <trkpt lat="41.367655" lon="1.140575">
        <ele>539.0</ele>
        <time>2021-07-11T07:57:48.000Z</time>
      </trkpt>
      <trkpt lat="41.36764667" lon="1.14056333">
        <ele>539.0</ele>
        <time>2021-07-11T07:57:49.000Z</time>
      </trkpt>
      <trkpt lat="41.36763667" lon="1.14055333">
        <ele>539.0</ele>
        <time>2021-07-11T07:57:50.000Z</time>
      </trkpt>
      <trkpt lat="41.36762667" lon="1.14054333">
        <ele>539.0</ele>
        <time>2021-07-11T07:57:51.000Z</time>
      </trkpt>
      <trkpt lat="41.36761667" lon="1.14053333">
        <ele>539.0</ele>
        <time>2021-07-11T07:57:52.000Z</time>
      </trkpt>
      <trkpt lat="41.36760667" lon="1.140525">
        <ele>539.0</ele>
        <time>2021-07-11T07:57:53.000Z</time>
      </trkpt>
      <trkpt lat="41.36759667" lon="1.140515">
        <ele>539.0</ele>
        <time>2021-07-11T07:57:54.000Z</time>
      </trkpt>
      <trkpt lat="41.36758833" lon="1.14050167">
        <ele>539.0</ele>
        <time>2021-07-11T07:57:55.000Z</time>
      </trkpt>
      <trkpt lat="41.36758167" lon="1.14049">
        <ele>539.0</ele>
        <time>2021-07-11T07:57:56.000Z</time>
      </trkpt>
      <trkpt lat="41.367575" lon="1.14048">
        <ele>538.0</ele>
        <time>2021-07-11T07:57:57.000Z</time>
      </trkpt>
      <trkpt lat="41.36756833" lon="1.14047167">
        <ele>538.0</ele>
        <time>2021-07-11T07:57:58.000Z</time>
      </trkpt>
      <trkpt lat="41.36756167" lon="1.14046333">
        <ele>538.0</ele>
        <time>2021-07-11T07:57:59.000Z</time>
      </trkpt>
      <trkpt lat="41.36755333" lon="1.14045333">
        <ele>538.0</ele>
        <time>2021-07-11T07:58:00.000Z</time>
      </trkpt>
      <trkpt lat="41.36754333" lon="1.14044333">
        <ele>538.0</ele>
        <time>2021-07-11T07:58:01.000Z</time>
      </trkpt>
      <trkpt lat="41.36753333" lon="1.140435">
        <ele>538.0</ele>
        <time>2021-07-11T07:58:02.000Z</time>
      </trkpt>
      <trkpt lat="41.367525" lon="1.14042833">
        <ele>538.0</ele>
        <time>2021-07-11T07:58:03.000Z</time>
      </trkpt>
      <trkpt lat="41.367515" lon="1.14042333">
        <ele>538.0</ele>
        <time>2021-07-11T07:58:04.000Z</time>
      </trkpt>
      <trkpt lat="41.367505" lon="1.14041667">
        <ele>538.0</ele>
        <time>2021-07-11T07:58:05.000Z</time>
      </trkpt>
      <trkpt lat="41.36749333" lon="1.14041">
        <ele>538.0</ele>
        <time>2021-07-11T07:58:06.000Z</time>
      </trkpt>
      <trkpt lat="41.36748333" lon="1.1404">
        <ele>538.0</ele>
        <time>2021-07-11T07:58:07.000Z</time>
      </trkpt>
      <trkpt lat="41.36747167" lon="1.14039167">
        <ele>538.0</ele>
        <time>2021-07-11T07:58:08.000Z</time>
      </trkpt>
      <trkpt lat="41.36746167" lon="1.140385">
        <ele>538.0</ele>
        <time>2021-07-11T07:58:09.000Z</time>
      </trkpt>
      <trkpt lat="41.367455" lon="1.14037333">
        <ele>538.0</ele>
        <time>2021-07-11T07:58:10.000Z</time>
      </trkpt>
      <trkpt lat="41.36745" lon="1.14036167">
        <ele>538.0</ele>
        <time>2021-07-11T07:58:11.000Z</time>
      </trkpt>
      <trkpt lat="41.367445" lon="1.14035333">
        <ele>538.0</ele>
        <time>2021-07-11T07:58:12.000Z</time>
      </trkpt>
      <trkpt lat="41.36743833" lon="1.14034333">
        <ele>539.0</ele>
        <time>2021-07-11T07:58:13.000Z</time>
      </trkpt>
      <trkpt lat="41.36743333" lon="1.140335">
        <ele>539.0</ele>
        <time>2021-07-11T07:58:14.000Z</time>
      </trkpt>
      <trkpt lat="41.36742833" lon="1.140325">
        <ele>539.0</ele>
        <time>2021-07-11T07:58:15.000Z</time>
      </trkpt>
      <trkpt lat="41.36742167" lon="1.14031833">
        <ele>539.0</ele>
        <time>2021-07-11T07:58:16.000Z</time>
      </trkpt>
      <trkpt lat="41.36741667" lon="1.14031333">
        <ele>539.0</ele>
        <time>2021-07-11T07:58:17.000Z</time>
      </trkpt>
      <trkpt lat="41.36741333" lon="1.14030833">
        <ele>539.0</ele>
        <time>2021-07-11T07:58:18.000Z</time>
      </trkpt>
      <trkpt lat="41.36740833" lon="1.14029833">
        <ele>539.0</ele>
        <time>2021-07-11T07:58:19.000Z</time>
      </trkpt>
      <trkpt lat="41.36740333" lon="1.14029">
        <ele>539.0</ele>
        <time>2021-07-11T07:58:20.000Z</time>
      </trkpt>
      <trkpt lat="41.36739833" lon="1.14028167">
        <ele>539.0</ele>
        <time>2021-07-11T07:58:21.000Z</time>
      </trkpt>
      <trkpt lat="41.36739667" lon="1.14027333">
        <ele>539.0</ele>
        <time>2021-07-11T07:58:22.000Z</time>
      </trkpt>
      <trkpt lat="41.367395" lon="1.14026333">
        <ele>539.0</ele>
        <time>2021-07-11T07:58:23.000Z</time>
      </trkpt>
      <trkpt lat="41.36739333" lon="1.14025333">
        <ele>540.0</ele>
        <time>2021-07-11T07:58:24.000Z</time>
      </trkpt>
      <trkpt lat="41.36739167" lon="1.140245">
        <ele>540.0</ele>
        <time>2021-07-11T07:58:25.000Z</time>
      </trkpt>
      <trkpt lat="41.36739333" lon="1.14023333">
        <ele>540.0</ele>
        <time>2021-07-11T07:58:26.000Z</time>
      </trkpt>
      <trkpt lat="41.367395" lon="1.14022167">
        <ele>540.0</ele>
        <time>2021-07-11T07:58:27.000Z</time>
      </trkpt>
      <trkpt lat="41.36739833" lon="1.14021">
        <ele>540.0</ele>
        <time>2021-07-11T07:58:28.000Z</time>
      </trkpt>
      <trkpt lat="41.36740333" lon="1.14019667">
        <ele>540.0</ele>
        <time>2021-07-11T07:58:29.000Z</time>
      </trkpt>
      <trkpt lat="41.36740833" lon="1.14018333">
        <ele>540.0</ele>
        <time>2021-07-11T07:58:30.000Z</time>
      </trkpt>
      <trkpt lat="41.36741333" lon="1.14017">
        <ele>540.0</ele>
        <time>2021-07-11T07:58:31.000Z</time>
      </trkpt>
      <trkpt lat="41.36741833" lon="1.14015833">
        <ele>540.0</ele>
        <time>2021-07-11T07:58:32.000Z</time>
      </trkpt>
      <trkpt lat="41.36742" lon="1.14015">
        <ele>540.0</ele>
        <time>2021-07-11T07:58:33.000Z</time>
      </trkpt>
      <trkpt lat="41.36742167" lon="1.14013667">
        <ele>540.0</ele>
        <time>2021-07-11T07:58:34.000Z</time>
      </trkpt>
      <trkpt lat="41.367425" lon="1.140125">
        <ele>540.0</ele>
        <time>2021-07-11T07:58:35.000Z</time>
      </trkpt>
      <trkpt lat="41.36743" lon="1.14010833">
        <ele>540.0</ele>
        <time>2021-07-11T07:58:36.000Z</time>
      </trkpt>
      <trkpt lat="41.367435" lon="1.14009667">
        <ele>540.0</ele>
        <time>2021-07-11T07:58:37.000Z</time>
      </trkpt>
      <trkpt lat="41.36743833" lon="1.14008167">
        <ele>540.0</ele>
        <time>2021-07-11T07:58:38.000Z</time>
      </trkpt>
      <trkpt lat="41.36744333" lon="1.14006833">
        <ele>540.0</ele>
        <time>2021-07-11T07:58:39.000Z</time>
      </trkpt>
      <trkpt lat="41.36745" lon="1.14005667">
        <ele>540.0</ele>
        <time>2021-07-11T07:58:40.000Z</time>
      </trkpt>
      <trkpt lat="41.367455" lon="1.14004833">
        <ele>540.0</ele>
        <time>2021-07-11T07:58:41.000Z</time>
      </trkpt>
      <trkpt lat="41.36746" lon="1.14004">
        <ele>540.0</ele>
        <time>2021-07-11T07:58:42.000Z</time>
      </trkpt>
      <trkpt lat="41.367465" lon="1.14003167">
        <ele>540.0</ele>
        <time>2021-07-11T07:58:43.000Z</time>
      </trkpt>
      <trkpt lat="41.36747167" lon="1.14002333">
        <ele>541.0</ele>
        <time>2021-07-11T07:58:44.000Z</time>
      </trkpt>
      <trkpt lat="41.36747833" lon="1.14001167">
        <ele>541.0</ele>
        <time>2021-07-11T07:58:45.000Z</time>
      </trkpt>
      <trkpt lat="41.36748667" lon="1.14000167">
        <ele>541.0</ele>
        <time>2021-07-11T07:58:46.000Z</time>
      </trkpt>
      <trkpt lat="41.367495" lon="1.13999333">
        <ele>541.0</ele>
        <time>2021-07-11T07:58:47.000Z</time>
      </trkpt>
      <trkpt lat="41.367505" lon="1.13998667">
        <ele>541.0</ele>
        <time>2021-07-11T07:58:48.000Z</time>
      </trkpt>
      <trkpt lat="41.36751333" lon="1.13997667">
        <ele>541.0</ele>
        <time>2021-07-11T07:58:49.000Z</time>
      </trkpt>
      <trkpt lat="41.36752333" lon="1.13996667">
        <ele>541.0</ele>
        <time>2021-07-11T07:58:50.000Z</time>
      </trkpt>
      <trkpt lat="41.36753333" lon="1.13995667">
        <ele>541.0</ele>
        <time>2021-07-11T07:58:51.000Z</time>
      </trkpt>
      <trkpt lat="41.36754333" lon="1.13994833">
        <ele>541.0</ele>
        <time>2021-07-11T07:58:52.000Z</time>
      </trkpt>
      <trkpt lat="41.36755333" lon="1.13994333">
        <ele>541.0</ele>
        <time>2021-07-11T07:58:53.000Z</time>
      </trkpt>
      <trkpt lat="41.36756" lon="1.13994">
        <ele>541.0</ele>
        <time>2021-07-11T07:58:54.000Z</time>
      </trkpt>
      <trkpt lat="41.36756833" lon="1.13993667">
        <ele>542.0</ele>
        <time>2021-07-11T07:58:55.000Z</time>
      </trkpt>
      <trkpt lat="41.36757667" lon="1.139935">
        <ele>542.0</ele>
        <time>2021-07-11T07:58:56.000Z</time>
      </trkpt>
      <trkpt lat="41.367585" lon="1.13993333">
        <ele>542.0</ele>
        <time>2021-07-11T07:58:57.000Z</time>
      </trkpt>
      <trkpt lat="41.36759167" lon="1.13993">
        <ele>542.0</ele>
        <time>2021-07-11T07:58:58.000Z</time>
      </trkpt>
      <trkpt lat="41.3676" lon="1.139925">
        <ele>542.0</ele>
        <time>2021-07-11T07:58:59.000Z</time>
      </trkpt>
      <trkpt lat="41.36760833" lon="1.13992333">
        <ele>542.0</ele>
        <time>2021-07-11T07:59:00.000Z</time>
      </trkpt>
      <trkpt lat="41.36761333" lon="1.13991833">
        <ele>542.0</ele>
        <time>2021-07-11T07:59:01.000Z</time>
      </trkpt>
      <trkpt lat="41.36761667" lon="1.13991667">
        <ele>542.0</ele>
        <time>2021-07-11T07:59:02.000Z</time>
      </trkpt>
      <trkpt lat="41.36762" lon="1.13991167">
        <ele>543.0</ele>
        <time>2021-07-11T07:59:03.000Z</time>
      </trkpt>
      <trkpt lat="41.36762667" lon="1.13990333">
        <ele>543.0</ele>
        <time>2021-07-11T07:59:04.000Z</time>
      </trkpt>
      <trkpt lat="41.36763333" lon="1.13989667">
        <ele>543.0</ele>
        <time>2021-07-11T07:59:05.000Z</time>
      </trkpt>
      <trkpt lat="41.36763667" lon="1.13989333">
        <ele>543.0</ele>
        <time>2021-07-11T07:59:06.000Z</time>
      </trkpt>
      <trkpt lat="41.36764" lon="1.13988333">
        <ele>543.0</ele>
        <time>2021-07-11T07:59:07.000Z</time>
      </trkpt>
      <trkpt lat="41.367645" lon="1.139875">
        <ele>543.0</ele>
        <time>2021-07-11T07:59:08.000Z</time>
      </trkpt>
      <trkpt lat="41.36765167" lon="1.13986667">
        <ele>543.0</ele>
        <time>2021-07-11T07:59:09.000Z</time>
      </trkpt>
      <trkpt lat="41.36765667" lon="1.13985833">
        <ele>544.0</ele>
        <time>2021-07-11T07:59:10.000Z</time>
      </trkpt>
      <trkpt lat="41.36766333" lon="1.13985">
        <ele>544.0</ele>
        <time>2021-07-11T07:59:11.000Z</time>
      </trkpt>
      <trkpt lat="41.36767" lon="1.13984167">
        <ele>544.0</ele>
        <time>2021-07-11T07:59:12.000Z</time>
      </trkpt>
      <trkpt lat="41.367675" lon="1.13983167">
        <ele>544.0</ele>
        <time>2021-07-11T07:59:13.000Z</time>
      </trkpt>
      <trkpt lat="41.36767833" lon="1.13982167">
        <ele>544.0</ele>
        <time>2021-07-11T07:59:14.000Z</time>
      </trkpt>
      <trkpt lat="41.36768167" lon="1.13981333">
        <ele>545.0</ele>
        <time>2021-07-11T07:59:15.000Z</time>
      </trkpt>
      <trkpt lat="41.367685" lon="1.13980333">
        <ele>545.0</ele>
        <time>2021-07-11T07:59:16.000Z</time>
      </trkpt>
      <trkpt lat="41.367685" lon="1.13979333">
        <ele>545.0</ele>
        <time>2021-07-11T07:59:17.000Z</time>
      </trkpt>
      <trkpt lat="41.36768833" lon="1.13978167">
        <ele>545.0</ele>
        <time>2021-07-11T07:59:18.000Z</time>
      </trkpt>
      <trkpt lat="41.36769167" lon="1.13977">
        <ele>545.0</ele>
        <time>2021-07-11T07:59:19.000Z</time>
      </trkpt>
      <trkpt lat="41.36769667" lon="1.13975833">
        <ele>545.0</ele>
        <time>2021-07-11T07:59:20.000Z</time>
      </trkpt>
      <trkpt lat="41.36769667" lon="1.13975333">
        <ele>546.0</ele>
        <time>2021-07-11T07:59:21.000Z</time>
      </trkpt>
      <trkpt lat="41.36769833" lon="1.13974167">
        <ele>546.0</ele>
        <time>2021-07-11T07:59:22.000Z</time>
      </trkpt>
      <trkpt lat="41.3677" lon="1.13973">
        <ele>546.0</ele>
        <time>2021-07-11T07:59:23.000Z</time>
      </trkpt>
      <trkpt lat="41.36770333" lon="1.13972">
        <ele>546.0</ele>
        <time>2021-07-11T07:59:24.000Z</time>
      </trkpt>
      <trkpt lat="41.367705" lon="1.13971167">
        <ele>546.0</ele>
        <time>2021-07-11T07:59:25.000Z</time>
      </trkpt>
      <trkpt lat="41.367705" lon="1.13970333">
        <ele>546.0</ele>
        <time>2021-07-11T07:59:26.000Z</time>
      </trkpt>
      <trkpt lat="41.367705" lon="1.13969333">
        <ele>546.0</ele>
        <time>2021-07-11T07:59:27.000Z</time>
      </trkpt>
      <trkpt lat="41.36770833" lon="1.13968167">
        <ele>546.0</ele>
        <time>2021-07-11T07:59:28.000Z</time>
      </trkpt>
      <trkpt lat="41.36771167" lon="1.13967333">
        <ele>546.0</ele>
        <time>2021-07-11T07:59:29.000Z</time>
      </trkpt>
      <trkpt lat="41.36771333" lon="1.13966333">
        <ele>547.0</ele>
        <time>2021-07-11T07:59:30.000Z</time>
      </trkpt>
      <trkpt lat="41.367715" lon="1.13965333">
        <ele>547.0</ele>
        <time>2021-07-11T07:59:31.000Z</time>
      </trkpt>
      <trkpt lat="41.36771833" lon="1.139645">
        <ele>547.0</ele>
        <time>2021-07-11T07:59:32.000Z</time>
      </trkpt>
      <trkpt lat="41.36772167" lon="1.13963667">
        <ele>547.0</ele>
        <time>2021-07-11T07:59:33.000Z</time>
      </trkpt>
      <trkpt lat="41.367725" lon="1.13962333">
        <ele>547.0</ele>
        <time>2021-07-11T07:59:34.000Z</time>
      </trkpt>
      <trkpt lat="41.36772833" lon="1.139615">
        <ele>547.0</ele>
        <time>2021-07-11T07:59:35.000Z</time>
      </trkpt>
      <trkpt lat="41.36772667" lon="1.139605">
        <ele>547.0</ele>
        <time>2021-07-11T07:59:36.000Z</time>
      </trkpt>
      <trkpt lat="41.36772667" lon="1.13959667">
        <ele>547.0</ele>
        <time>2021-07-11T07:59:37.000Z</time>
      </trkpt>
      <trkpt lat="41.367725" lon="1.13959167">
        <ele>547.0</ele>
        <time>2021-07-11T07:59:38.000Z</time>
      </trkpt>
      <trkpt lat="41.367725" lon="1.139585">
        <ele>547.0</ele>
        <time>2021-07-11T07:59:39.000Z</time>
      </trkpt>
      <trkpt lat="41.36772333" lon="1.13958">
        <ele>547.0</ele>
        <time>2021-07-11T07:59:40.000Z</time>
      </trkpt>
      <trkpt lat="41.36772333" lon="1.13957667">
        <ele>547.0</ele>
        <time>2021-07-11T07:59:41.000Z</time>
      </trkpt>
      <trkpt lat="41.36772167" lon="1.13956833">
        <ele>547.0</ele>
        <time>2021-07-11T07:59:42.000Z</time>
      </trkpt>
      <trkpt lat="41.36772333" lon="1.13956">
        <ele>547.0</ele>
        <time>2021-07-11T07:59:43.000Z</time>
      </trkpt>
      <trkpt lat="41.36772333" lon="1.13955333">
        <ele>548.0</ele>
        <time>2021-07-11T07:59:44.000Z</time>
      </trkpt>
      <trkpt lat="41.36772333" lon="1.13954667">
        <ele>548.0</ele>
        <time>2021-07-11T07:59:45.000Z</time>
      </trkpt>
      <trkpt lat="41.36772333" lon="1.13954">
        <ele>549.0</ele>
        <time>2021-07-11T07:59:46.000Z</time>
      </trkpt>
      <trkpt lat="41.36772333" lon="1.13953167">
        <ele>549.0</ele>
        <time>2021-07-11T07:59:47.000Z</time>
      </trkpt>
      <trkpt lat="41.36772333" lon="1.13952333">
        <ele>549.0</ele>
        <time>2021-07-11T07:59:48.000Z</time>
      </trkpt>
      <trkpt lat="41.36772333" lon="1.13951333">
        <ele>549.0</ele>
        <time>2021-07-11T07:59:49.000Z</time>
      </trkpt>
      <trkpt lat="41.36772167" lon="1.13950167">
        <ele>549.0</ele>
        <time>2021-07-11T07:59:50.000Z</time>
      </trkpt>
      <trkpt lat="41.36772" lon="1.13949333">
        <ele>550.0</ele>
        <time>2021-07-11T07:59:51.000Z</time>
      </trkpt>
      <trkpt lat="41.36772167" lon="1.13948667">
        <ele>550.0</ele>
        <time>2021-07-11T07:59:52.000Z</time>
      </trkpt>
      <trkpt lat="41.36772167" lon="1.13947833">
        <ele>550.0</ele>
        <time>2021-07-11T07:59:53.000Z</time>
      </trkpt>
      <trkpt lat="41.36772333" lon="1.13947">
        <ele>550.0</ele>
        <time>2021-07-11T07:59:54.000Z</time>
      </trkpt>
      <trkpt lat="41.36772667" lon="1.13946167">
        <ele>550.0</ele>
        <time>2021-07-11T07:59:55.000Z</time>
      </trkpt>
      <trkpt lat="41.36772833" lon="1.139455">
        <ele>551.0</ele>
        <time>2021-07-11T07:59:56.000Z</time>
      </trkpt>
      <trkpt lat="41.36773" lon="1.13944833">
        <ele>551.0</ele>
        <time>2021-07-11T07:59:57.000Z</time>
      </trkpt>
      <trkpt lat="41.36772833" lon="1.13944">
        <ele>551.0</ele>
        <time>2021-07-11T07:59:58.000Z</time>
      </trkpt>
      <trkpt lat="41.36773" lon="1.13943">
        <ele>551.0</ele>
        <time>2021-07-11T07:59:59.000Z</time>
      </trkpt>
      <trkpt lat="41.36773" lon="1.13942167">
        <ele>551.0</ele>
        <time>2021-07-11T08:00:00.000Z</time>
      </trkpt>
      <trkpt lat="41.36773167" lon="1.13941">
        <ele>551.0</ele>
        <time>2021-07-11T08:00:01.000Z</time>
      </trkpt>
      <trkpt lat="41.36773167" lon="1.1394">
        <ele>551.0</ele>
        <time>2021-07-11T08:00:02.000Z</time>
      </trkpt>
      <trkpt lat="41.36773" lon="1.13939167">
        <ele>552.0</ele>
        <time>2021-07-11T08:00:03.000Z</time>
      </trkpt>
      <trkpt lat="41.36773" lon="1.13938333">
        <ele>552.0</ele>
        <time>2021-07-11T08:00:04.000Z</time>
      </trkpt>
      <trkpt lat="41.36773" lon="1.139375">
        <ele>552.0</ele>
        <time>2021-07-11T08:00:05.000Z</time>
      </trkpt>
      <trkpt lat="41.36773" lon="1.13936667">
        <ele>552.0</ele>
        <time>2021-07-11T08:00:06.000Z</time>
      </trkpt>
      <trkpt lat="41.36772833" lon="1.13935833">
        <ele>552.0</ele>
        <time>2021-07-11T08:00:07.000Z</time>
      </trkpt>
      <trkpt lat="41.36772833" lon="1.13934667">
        <ele>553.0</ele>
        <time>2021-07-11T08:00:08.000Z</time>
      </trkpt>
      <trkpt lat="41.36772833" lon="1.13933667">
        <ele>553.0</ele>
        <time>2021-07-11T08:00:09.000Z</time>
      </trkpt>
      <trkpt lat="41.36773" lon="1.13932667">
        <ele>553.0</ele>
        <time>2021-07-11T08:00:10.000Z</time>
      </trkpt>
      <trkpt lat="41.36773167" lon="1.13931667">
        <ele>553.0</ele>
        <time>2021-07-11T08:00:11.000Z</time>
      </trkpt>
      <trkpt lat="41.36773167" lon="1.13930667">
        <ele>553.0</ele>
        <time>2021-07-11T08:00:12.000Z</time>
      </trkpt>
      <trkpt lat="41.36773167" lon="1.139295">
        <ele>553.0</ele>
        <time>2021-07-11T08:00:13.000Z</time>
      </trkpt>
      <trkpt lat="41.36773" lon="1.13928667">
        <ele>554.0</ele>
        <time>2021-07-11T08:00:14.000Z</time>
      </trkpt>
      <trkpt lat="41.36772667" lon="1.13927667">
        <ele>554.0</ele>
        <time>2021-07-11T08:00:15.000Z</time>
      </trkpt>
      <trkpt lat="41.36772333" lon="1.13926667">
        <ele>554.0</ele>
        <time>2021-07-11T08:00:16.000Z</time>
      </trkpt>
      <trkpt lat="41.36772" lon="1.13925667">
        <ele>555.0</ele>
        <time>2021-07-11T08:00:17.000Z</time>
      </trkpt>
      <trkpt lat="41.36771833" lon="1.13924833">
        <ele>555.0</ele>
        <time>2021-07-11T08:00:18.000Z</time>
      </trkpt>
      <trkpt lat="41.367715" lon="1.13924">
        <ele>555.0</ele>
        <time>2021-07-11T08:00:19.000Z</time>
      </trkpt>
      <trkpt lat="41.36771167" lon="1.13923333">
        <ele>555.0</ele>
        <time>2021-07-11T08:00:20.000Z</time>
      </trkpt>
      <trkpt lat="41.36770667" lon="1.139225">
        <ele>555.0</ele>
        <time>2021-07-11T08:00:21.000Z</time>
      </trkpt>
      <trkpt lat="41.36770333" lon="1.13921667">
        <ele>556.0</ele>
        <time>2021-07-11T08:00:22.000Z</time>
      </trkpt>
      <trkpt lat="41.3677" lon="1.13920833">
        <ele>556.0</ele>
        <time>2021-07-11T08:00:23.000Z</time>
      </trkpt>
      <trkpt lat="41.367695" lon="1.13920167">
        <ele>556.0</ele>
        <time>2021-07-11T08:00:24.000Z</time>
      </trkpt>
      <trkpt lat="41.36769167" lon="1.139195">
        <ele>557.0</ele>
        <time>2021-07-11T08:00:25.000Z</time>
      </trkpt>
      <trkpt lat="41.36768833" lon="1.13918667">
        <ele>557.0</ele>
        <time>2021-07-11T08:00:26.000Z</time>
      </trkpt>
      <trkpt lat="41.36768667" lon="1.13917833">
        <ele>557.0</ele>
        <time>2021-07-11T08:00:27.000Z</time>
      </trkpt>
      <trkpt lat="41.36768333" lon="1.13916833">
        <ele>557.0</ele>
        <time>2021-07-11T08:00:28.000Z</time>
      </trkpt>
      <trkpt lat="41.36768167" lon="1.13915667">
        <ele>557.0</ele>
        <time>2021-07-11T08:00:29.000Z</time>
      </trkpt>
      <trkpt lat="41.36768" lon="1.139145">
        <ele>558.0</ele>
        <time>2021-07-11T08:00:30.000Z</time>
      </trkpt>
      <trkpt lat="41.36767833" lon="1.13913333">
        <ele>558.0</ele>
        <time>2021-07-11T08:00:31.000Z</time>
      </trkpt>
      <trkpt lat="41.36768" lon="1.13912333">
        <ele>558.0</ele>
        <time>2021-07-11T08:00:32.000Z</time>
      </trkpt>
      <trkpt lat="41.36768333" lon="1.13911333">
        <ele>558.0</ele>
        <time>2021-07-11T08:00:33.000Z</time>
      </trkpt>
      <trkpt lat="41.36768667" lon="1.139105">
        <ele>559.0</ele>
        <time>2021-07-11T08:00:34.000Z</time>
      </trkpt>
      <trkpt lat="41.36769" lon="1.13909667">
        <ele>559.0</ele>
        <time>2021-07-11T08:00:35.000Z</time>
      </trkpt>
      <trkpt lat="41.36769333" lon="1.13908833">
        <ele>559.0</ele>
        <time>2021-07-11T08:00:36.000Z</time>
      </trkpt>
      <trkpt lat="41.367695" lon="1.13908167">
        <ele>559.0</ele>
        <time>2021-07-11T08:00:37.000Z</time>
      </trkpt>
      <trkpt lat="41.36769833" lon="1.13907">
        <ele>559.0</ele>
        <time>2021-07-11T08:00:38.000Z</time>
      </trkpt>
      <trkpt lat="41.3677" lon="1.13906167">
        <ele>560.0</ele>
        <time>2021-07-11T08:00:39.000Z</time>
      </trkpt>
      <trkpt lat="41.3677" lon="1.13905333">
        <ele>560.0</ele>
        <time>2021-07-11T08:00:40.000Z</time>
      </trkpt>
      <trkpt lat="41.36770167" lon="1.13904667">
        <ele>560.0</ele>
        <time>2021-07-11T08:00:41.000Z</time>
      </trkpt>
      <trkpt lat="41.36770333" lon="1.13903833">
        <ele>560.0</ele>
        <time>2021-07-11T08:00:42.000Z</time>
      </trkpt>
      <trkpt lat="41.36770333" lon="1.13903333">
        <ele>560.0</ele>
        <time>2021-07-11T08:00:43.000Z</time>
      </trkpt>
      <trkpt lat="41.367705" lon="1.139025">
        <ele>560.0</ele>
        <time>2021-07-11T08:00:44.000Z</time>
      </trkpt>
      <trkpt lat="41.36770667" lon="1.13901667">
        <ele>560.0</ele>
        <time>2021-07-11T08:00:45.000Z</time>
      </trkpt>
      <trkpt lat="41.36770667" lon="1.13901">
        <ele>560.0</ele>
        <time>2021-07-11T08:00:46.000Z</time>
      </trkpt>
      <trkpt lat="41.367705" lon="1.139">
        <ele>561.0</ele>
        <time>2021-07-11T08:00:47.000Z</time>
      </trkpt>
      <trkpt lat="41.36770667" lon="1.13898833">
        <ele>562.0</ele>
        <time>2021-07-11T08:00:48.000Z</time>
      </trkpt>
      <trkpt lat="41.36770667" lon="1.13898">
        <ele>562.0</ele>
        <time>2021-07-11T08:00:49.000Z</time>
      </trkpt>
      <trkpt lat="41.367705" lon="1.13897">
        <ele>562.0</ele>
        <time>2021-07-11T08:00:50.000Z</time>
      </trkpt>
      <trkpt lat="41.367705" lon="1.13896333">
        <ele>562.0</ele>
        <time>2021-07-11T08:00:51.000Z</time>
      </trkpt>
      <trkpt lat="41.36770333" lon="1.13895333">
        <ele>563.0</ele>
        <time>2021-07-11T08:00:52.000Z</time>
      </trkpt>
      <trkpt lat="41.36770167" lon="1.138945">
        <ele>563.0</ele>
        <time>2021-07-11T08:00:53.000Z</time>
      </trkpt>
      <trkpt lat="41.36770167" lon="1.138935">
        <ele>563.0</ele>
        <time>2021-07-11T08:00:54.000Z</time>
      </trkpt>
      <trkpt lat="41.36770167" lon="1.138925">
        <ele>563.0</ele>
        <time>2021-07-11T08:00:55.000Z</time>
      </trkpt>
      <trkpt lat="41.36770333" lon="1.138915">
        <ele>563.0</ele>
        <time>2021-07-11T08:00:56.000Z</time>
      </trkpt>
      <trkpt lat="41.36770333" lon="1.138905">
        <ele>563.0</ele>
        <time>2021-07-11T08:00:57.000Z</time>
      </trkpt>
      <trkpt lat="41.36770333" lon="1.13889833">
        <ele>564.0</ele>
        <time>2021-07-11T08:00:58.000Z</time>
      </trkpt>
      <trkpt lat="41.36770333" lon="1.13889">
        <ele>564.0</ele>
        <time>2021-07-11T08:00:59.000Z</time>
      </trkpt>
      <trkpt lat="41.367705" lon="1.13888167">
        <ele>564.0</ele>
        <time>2021-07-11T08:01:00.000Z</time>
      </trkpt>
      <trkpt lat="41.367705" lon="1.138875">
        <ele>564.0</ele>
        <time>2021-07-11T08:01:01.000Z</time>
      </trkpt>
      <trkpt lat="41.36770333" lon="1.138865">
        <ele>565.0</ele>
        <time>2021-07-11T08:01:02.000Z</time>
      </trkpt>
      <trkpt lat="41.3677" lon="1.138855">
        <ele>565.0</ele>
        <time>2021-07-11T08:01:03.000Z</time>
      </trkpt>
      <trkpt lat="41.36769667" lon="1.138845">
        <ele>565.0</ele>
        <time>2021-07-11T08:01:04.000Z</time>
      </trkpt>
      <trkpt lat="41.367695" lon="1.13883667">
        <ele>566.0</ele>
        <time>2021-07-11T08:01:05.000Z</time>
      </trkpt>
      <trkpt lat="41.36769333" lon="1.13882667">
        <ele>566.0</ele>
        <time>2021-07-11T08:01:06.000Z</time>
      </trkpt>
      <trkpt lat="41.36769333" lon="1.13881667">
        <ele>566.0</ele>
        <time>2021-07-11T08:01:07.000Z</time>
      </trkpt>
      <trkpt lat="41.36769167" lon="1.13880667">
        <ele>566.0</ele>
        <time>2021-07-11T08:01:08.000Z</time>
      </trkpt>
      <trkpt lat="41.36769" lon="1.13879833">
        <ele>566.0</ele>
        <time>2021-07-11T08:01:09.000Z</time>
      </trkpt>
      <trkpt lat="41.36768833" lon="1.13878833">
        <ele>567.0</ele>
        <time>2021-07-11T08:01:10.000Z</time>
      </trkpt>
      <trkpt lat="41.36768833" lon="1.13877833">
        <ele>567.0</ele>
        <time>2021-07-11T08:01:11.000Z</time>
      </trkpt>
      <trkpt lat="41.36768667" lon="1.13877">
        <ele>567.0</ele>
        <time>2021-07-11T08:01:12.000Z</time>
      </trkpt>
      <trkpt lat="41.367685" lon="1.13876333">
        <ele>567.0</ele>
        <time>2021-07-11T08:01:13.000Z</time>
      </trkpt>
      <trkpt lat="41.367685" lon="1.13875333">
        <ele>567.0</ele>
        <time>2021-07-11T08:01:14.000Z</time>
      </trkpt>
      <trkpt lat="41.367685" lon="1.138745">
        <ele>567.0</ele>
        <time>2021-07-11T08:01:15.000Z</time>
      </trkpt>
      <trkpt lat="41.36768333" lon="1.13873333">
        <ele>568.0</ele>
        <time>2021-07-11T08:01:16.000Z</time>
      </trkpt>
      <trkpt lat="41.36768167" lon="1.138725">
        <ele>568.0</ele>
        <time>2021-07-11T08:01:17.000Z</time>
      </trkpt>
      <trkpt lat="41.36767667" lon="1.138715">
        <ele>568.0</ele>
        <time>2021-07-11T08:01:18.000Z</time>
      </trkpt>
      <trkpt lat="41.367675" lon="1.13870667">
        <ele>568.0</ele>
        <time>2021-07-11T08:01:19.000Z</time>
      </trkpt>
      <trkpt lat="41.367675" lon="1.138695">
        <ele>568.0</ele>
        <time>2021-07-11T08:01:20.000Z</time>
      </trkpt>
      <trkpt lat="41.367675" lon="1.13868167">
        <ele>568.0</ele>
        <time>2021-07-11T08:01:21.000Z</time>
      </trkpt>
      <trkpt lat="41.367675" lon="1.13867">
        <ele>569.0</ele>
        <time>2021-07-11T08:01:22.000Z</time>
      </trkpt>
      <trkpt lat="41.36767333" lon="1.13865833">
        <ele>569.0</ele>
        <time>2021-07-11T08:01:23.000Z</time>
      </trkpt>
      <trkpt lat="41.36767167" lon="1.13864667">
        <ele>569.0</ele>
        <time>2021-07-11T08:01:24.000Z</time>
      </trkpt>
      <trkpt lat="41.36767167" lon="1.138635">
        <ele>569.0</ele>
        <time>2021-07-11T08:01:25.000Z</time>
      </trkpt>
      <trkpt lat="41.36767" lon="1.13862">
        <ele>569.0</ele>
        <time>2021-07-11T08:01:26.000Z</time>
      </trkpt>
      <trkpt lat="41.36766667" lon="1.13860833">
        <ele>569.0</ele>
        <time>2021-07-11T08:01:27.000Z</time>
      </trkpt>
      <trkpt lat="41.36766333" lon="1.13859833">
        <ele>569.0</ele>
        <time>2021-07-11T08:01:28.000Z</time>
      </trkpt>
      <trkpt lat="41.36765833" lon="1.13859">
        <ele>570.0</ele>
        <time>2021-07-11T08:01:29.000Z</time>
      </trkpt>
      <trkpt lat="41.36765667" lon="1.13858167">
        <ele>570.0</ele>
        <time>2021-07-11T08:01:30.000Z</time>
      </trkpt>
      <trkpt lat="41.367655" lon="1.13857167">
        <ele>570.0</ele>
        <time>2021-07-11T08:01:31.000Z</time>
      </trkpt>
      <trkpt lat="41.36765" lon="1.13855833">
        <ele>570.0</ele>
        <time>2021-07-11T08:01:32.000Z</time>
      </trkpt>
      <trkpt lat="41.36764667" lon="1.13854667">
        <ele>570.0</ele>
        <time>2021-07-11T08:01:33.000Z</time>
      </trkpt>
      <trkpt lat="41.367645" lon="1.13853667">
        <ele>570.0</ele>
        <time>2021-07-11T08:01:34.000Z</time>
      </trkpt>
      <trkpt lat="41.36764167" lon="1.13852667">
        <ele>570.0</ele>
        <time>2021-07-11T08:01:35.000Z</time>
      </trkpt>
      <trkpt lat="41.36764" lon="1.138515">
        <ele>570.0</ele>
        <time>2021-07-11T08:01:36.000Z</time>
      </trkpt>
      <trkpt lat="41.36763667" lon="1.138505">
        <ele>571.0</ele>
        <time>2021-07-11T08:01:37.000Z</time>
      </trkpt>
      <trkpt lat="41.36763167" lon="1.138495">
        <ele>571.0</ele>
        <time>2021-07-11T08:01:38.000Z</time>
      </trkpt>
      <trkpt lat="41.36762667" lon="1.138485">
        <ele>571.0</ele>
        <time>2021-07-11T08:01:39.000Z</time>
      </trkpt>
      <trkpt lat="41.36762333" lon="1.138475">
        <ele>571.0</ele>
        <time>2021-07-11T08:01:40.000Z</time>
      </trkpt>
      <trkpt lat="41.36761833" lon="1.138465">
        <ele>571.0</ele>
        <time>2021-07-11T08:01:41.000Z</time>
      </trkpt>
      <trkpt lat="41.367615" lon="1.13845333">
        <ele>571.0</ele>
        <time>2021-07-11T08:01:42.000Z</time>
      </trkpt>
      <trkpt lat="41.36761167" lon="1.13844333">
        <ele>571.0</ele>
        <time>2021-07-11T08:01:43.000Z</time>
      </trkpt>
      <trkpt lat="41.36761" lon="1.13843167">
        <ele>571.0</ele>
        <time>2021-07-11T08:01:44.000Z</time>
      </trkpt>
      <trkpt lat="41.36760833" lon="1.13842167">
        <ele>571.0</ele>
        <time>2021-07-11T08:01:45.000Z</time>
      </trkpt>
      <trkpt lat="41.36760833" lon="1.13841">
        <ele>571.0</ele>
        <time>2021-07-11T08:01:46.000Z</time>
      </trkpt>
      <trkpt lat="41.36760667" lon="1.13840167">
        <ele>572.0</ele>
        <time>2021-07-11T08:01:47.000Z</time>
      </trkpt>
      <trkpt lat="41.36760667" lon="1.13839">
        <ele>572.0</ele>
        <time>2021-07-11T08:01:48.000Z</time>
      </trkpt>
      <trkpt lat="41.367605" lon="1.13837833">
        <ele>572.0</ele>
        <time>2021-07-11T08:01:49.000Z</time>
      </trkpt>
      <trkpt lat="41.36760333" lon="1.13837">
        <ele>572.0</ele>
        <time>2021-07-11T08:01:50.000Z</time>
      </trkpt>
      <trkpt lat="41.36760167" lon="1.13836">
        <ele>573.0</ele>
        <time>2021-07-11T08:01:51.000Z</time>
      </trkpt>
      <trkpt lat="41.3676" lon="1.13834667">
        <ele>573.0</ele>
        <time>2021-07-11T08:01:52.000Z</time>
      </trkpt>
      <trkpt lat="41.36759833" lon="1.138335">
        <ele>573.0</ele>
        <time>2021-07-11T08:01:53.000Z</time>
      </trkpt>
      <trkpt lat="41.36759667" lon="1.13832333">
        <ele>573.0</ele>
        <time>2021-07-11T08:01:54.000Z</time>
      </trkpt>
      <trkpt lat="41.367595" lon="1.138315">
        <ele>573.0</ele>
        <time>2021-07-11T08:01:55.000Z</time>
      </trkpt>
      <trkpt lat="41.36759333" lon="1.13830333">
        <ele>573.0</ele>
        <time>2021-07-11T08:01:56.000Z</time>
      </trkpt>
      <trkpt lat="41.36759167" lon="1.13829167">
        <ele>573.0</ele>
        <time>2021-07-11T08:01:57.000Z</time>
      </trkpt>
      <trkpt lat="41.36758833" lon="1.13828167">
        <ele>573.0</ele>
        <time>2021-07-11T08:01:58.000Z</time>
      </trkpt>
      <trkpt lat="41.36758333" lon="1.13827167">
        <ele>573.0</ele>
        <time>2021-07-11T08:01:59.000Z</time>
      </trkpt>
      <trkpt lat="41.36758167" lon="1.13826167">
        <ele>573.0</ele>
        <time>2021-07-11T08:02:00.000Z</time>
      </trkpt>
      <trkpt lat="41.36758" lon="1.13825167">
        <ele>573.0</ele>
        <time>2021-07-11T08:02:01.000Z</time>
      </trkpt>
      <trkpt lat="41.36757833" lon="1.13824">
        <ele>574.0</ele>
        <time>2021-07-11T08:02:02.000Z</time>
      </trkpt>
      <trkpt lat="41.36757333" lon="1.13823333">
        <ele>574.0</ele>
        <time>2021-07-11T08:02:03.000Z</time>
      </trkpt>
      <trkpt lat="41.36757" lon="1.13822333">
        <ele>574.0</ele>
        <time>2021-07-11T08:02:04.000Z</time>
      </trkpt>
      <trkpt lat="41.36756667" lon="1.13821333">
        <ele>574.0</ele>
        <time>2021-07-11T08:02:05.000Z</time>
      </trkpt>
      <trkpt lat="41.36756333" lon="1.13820333">
        <ele>574.0</ele>
        <time>2021-07-11T08:02:06.000Z</time>
      </trkpt>
      <trkpt lat="41.36755833" lon="1.13819167">
        <ele>574.0</ele>
        <time>2021-07-11T08:02:07.000Z</time>
      </trkpt>
      <trkpt lat="41.367555" lon="1.138185">
        <ele>574.0</ele>
        <time>2021-07-11T08:02:08.000Z</time>
      </trkpt>
      <trkpt lat="41.36755333" lon="1.13817833">
        <ele>575.0</ele>
        <time>2021-07-11T08:02:09.000Z</time>
      </trkpt>
      <trkpt lat="41.36755167" lon="1.13817">
        <ele>575.0</ele>
        <time>2021-07-11T08:02:10.000Z</time>
      </trkpt>
      <trkpt lat="41.36755167" lon="1.13815833">
        <ele>575.0</ele>
        <time>2021-07-11T08:02:11.000Z</time>
      </trkpt>
      <trkpt lat="41.36755333" lon="1.13815">
        <ele>575.0</ele>
        <time>2021-07-11T08:02:12.000Z</time>
      </trkpt>
      <trkpt lat="41.36755333" lon="1.13814667">
        <ele>575.0</ele>
        <time>2021-07-11T08:02:13.000Z</time>
      </trkpt>
      <trkpt lat="41.367555" lon="1.13814667">
        <ele>575.0</ele>
        <time>2021-07-11T08:02:14.000Z</time>
      </trkpt>
      <trkpt lat="41.36756" lon="1.13814833">
        <ele>576.0</ele>
        <time>2021-07-11T08:02:15.000Z</time>
      </trkpt>
      <trkpt lat="41.367565" lon="1.13815333">
        <ele>576.0</ele>
        <time>2021-07-11T08:02:16.000Z</time>
      </trkpt>
      <trkpt lat="41.36756833" lon="1.13815833">
        <ele>576.0</ele>
        <time>2021-07-11T08:02:17.000Z</time>
      </trkpt>
      <trkpt lat="41.36757" lon="1.13816">
        <ele>576.0</ele>
        <time>2021-07-11T08:02:18.000Z</time>
      </trkpt>
      <trkpt lat="41.36757167" lon="1.13815833">
        <ele>576.0</ele>
        <time>2021-07-11T08:02:19.000Z</time>
      </trkpt>
      <trkpt lat="41.36757333" lon="1.13815667">
        <ele>576.0</ele>
        <time>2021-07-11T08:02:20.000Z</time>
      </trkpt>
      <trkpt lat="41.36757333" lon="1.13815667">
        <ele>576.0</ele>
        <time>2021-07-11T08:02:21.000Z</time>
      </trkpt>
      <trkpt lat="41.36757333" lon="1.138155">
        <ele>577.0</ele>
        <time>2021-07-11T08:02:22.000Z</time>
      </trkpt>
      <trkpt lat="41.367575" lon="1.138155">
        <ele>577.0</ele>
        <time>2021-07-11T08:02:23.000Z</time>
      </trkpt>
      <trkpt lat="41.36757667" lon="1.13815333">
        <ele>577.0</ele>
        <time>2021-07-11T08:02:24.000Z</time>
      </trkpt>
      <trkpt lat="41.36758" lon="1.13815">
        <ele>577.0</ele>
        <time>2021-07-11T08:02:25.000Z</time>
      </trkpt>
      <trkpt lat="41.36765333" lon="1.13819667">
        <ele>578.0</ele>
        <time>2021-07-11T08:02:58.000Z</time>
      </trkpt>
      <trkpt lat="41.36765333" lon="1.13819667">
        <ele>578.0</ele>
        <time>2021-07-11T08:02:59.000Z</time>
      </trkpt>
      <trkpt lat="41.36765167" lon="1.13819833">
        <ele>584.0</ele>
        <time>2021-07-11T08:03:00.000Z</time>
      </trkpt>
      <trkpt lat="41.36765167" lon="1.13819833">
        <ele>584.0</ele>
        <time>2021-07-11T08:03:01.000Z</time>
      </trkpt>
      <trkpt lat="41.36765167" lon="1.13819833">
        <ele>584.0</ele>
        <time>2021-07-11T08:03:02.000Z</time>
      </trkpt>
      <trkpt lat="41.36765" lon="1.13819667">
        <ele>584.0</ele>
        <time>2021-07-11T08:03:03.000Z</time>
      </trkpt>
      <trkpt lat="41.36764833" lon="1.138195">
        <ele>584.0</ele>
        <time>2021-07-11T08:03:04.000Z</time>
      </trkpt>
      <trkpt lat="41.36764667" lon="1.138195">
        <ele>583.0</ele>
        <time>2021-07-11T08:03:05.000Z</time>
      </trkpt>
      <trkpt lat="41.36764667" lon="1.13819333">
        <ele>583.0</ele>
        <time>2021-07-11T08:03:06.000Z</time>
      </trkpt>
      <trkpt lat="41.367645" lon="1.13819">
        <ele>583.0</ele>
        <time>2021-07-11T08:03:07.000Z</time>
      </trkpt>
      <trkpt lat="41.367645" lon="1.13818833">
        <ele>583.0</ele>
        <time>2021-07-11T08:03:08.000Z</time>
      </trkpt>
      <trkpt lat="41.367645" lon="1.13819">
        <ele>583.0</ele>
        <time>2021-07-11T08:03:09.000Z</time>
      </trkpt>
      <trkpt lat="41.36764333" lon="1.13819">
        <ele>583.0</ele>
        <time>2021-07-11T08:03:10.000Z</time>
      </trkpt>
      <trkpt lat="41.36764167" lon="1.13819167">
        <ele>583.0</ele>
        <time>2021-07-11T08:03:11.000Z</time>
      </trkpt>
      <trkpt lat="41.36764" lon="1.13819333">
        <ele>583.0</ele>
        <time>2021-07-11T08:03:12.000Z</time>
      </trkpt>
      <trkpt lat="41.36764" lon="1.138195">
        <ele>583.0</ele>
        <time>2021-07-11T08:03:13.000Z</time>
      </trkpt>
      <trkpt lat="41.36764167" lon="1.138195">
        <ele>583.0</ele>
        <time>2021-07-11T08:03:14.000Z</time>
      </trkpt>
      <trkpt lat="41.36764167" lon="1.13819333">
        <ele>583.0</ele>
        <time>2021-07-11T08:03:15.000Z</time>
      </trkpt>
      <trkpt lat="41.36764333" lon="1.138195">
        <ele>584.0</ele>
        <time>2021-07-11T08:03:16.000Z</time>
      </trkpt>
      <trkpt lat="41.36764167" lon="1.138195">
        <ele>584.0</ele>
        <time>2021-07-11T08:03:17.000Z</time>
      </trkpt>
      <trkpt lat="41.36764167" lon="1.138195">
        <ele>584.0</ele>
        <time>2021-07-11T08:03:18.000Z</time>
      </trkpt>
      <trkpt lat="41.36764333" lon="1.13819333">
        <ele>584.0</ele>
        <time>2021-07-11T08:03:19.000Z</time>
      </trkpt>
      <trkpt lat="41.36764833" lon="1.138195">
        <ele>584.0</ele>
        <time>2021-07-11T08:03:20.000Z</time>
      </trkpt>
      <trkpt lat="41.36765167" lon="1.13820333">
        <ele>584.0</ele>
        <time>2021-07-11T08:03:21.000Z</time>
      </trkpt>
      <trkpt lat="41.36765667" lon="1.138215">
        <ele>584.0</ele>
        <time>2021-07-11T08:03:22.000Z</time>
      </trkpt>
      <trkpt lat="41.36766" lon="1.13822833">
        <ele>584.0</ele>
        <time>2021-07-11T08:03:23.000Z</time>
      </trkpt>
      <trkpt lat="41.367665" lon="1.13824167">
        <ele>584.0</ele>
        <time>2021-07-11T08:03:24.000Z</time>
      </trkpt>
      <trkpt lat="41.36766833" lon="1.138255">
        <ele>584.0</ele>
        <time>2021-07-11T08:03:25.000Z</time>
      </trkpt>
      <trkpt lat="41.36767167" lon="1.13826833">
        <ele>584.0</ele>
        <time>2021-07-11T08:03:26.000Z</time>
      </trkpt>
      <trkpt lat="41.36767667" lon="1.13828">
        <ele>584.0</ele>
        <time>2021-07-11T08:03:27.000Z</time>
      </trkpt>
      <trkpt lat="41.36768" lon="1.138295">
        <ele>584.0</ele>
        <time>2021-07-11T08:03:28.000Z</time>
      </trkpt>
      <trkpt lat="41.36768167" lon="1.13830833">
        <ele>584.0</ele>
        <time>2021-07-11T08:03:29.000Z</time>
      </trkpt>
      <trkpt lat="41.367685" lon="1.13832167">
        <ele>585.0</ele>
        <time>2021-07-11T08:03:30.000Z</time>
      </trkpt>
      <trkpt lat="41.36769" lon="1.138335">
        <ele>585.0</ele>
        <time>2021-07-11T08:03:31.000Z</time>
      </trkpt>
      <trkpt lat="41.36769667" lon="1.13835">
        <ele>585.0</ele>
        <time>2021-07-11T08:03:32.000Z</time>
      </trkpt>
      <trkpt lat="41.36770333" lon="1.13836167">
        <ele>585.0</ele>
        <time>2021-07-11T08:03:33.000Z</time>
      </trkpt>
      <trkpt lat="41.36771" lon="1.138375">
        <ele>585.0</ele>
        <time>2021-07-11T08:03:34.000Z</time>
      </trkpt>
      <trkpt lat="41.36771833" lon="1.138385">
        <ele>585.0</ele>
        <time>2021-07-11T08:03:35.000Z</time>
      </trkpt>
      <trkpt lat="41.36772167" lon="1.13839833">
        <ele>585.0</ele>
        <time>2021-07-11T08:03:36.000Z</time>
      </trkpt>
      <trkpt lat="41.36772667" lon="1.138415">
        <ele>585.0</ele>
        <time>2021-07-11T08:03:37.000Z</time>
      </trkpt>
      <trkpt lat="41.36773333" lon="1.13843">
        <ele>585.0</ele>
        <time>2021-07-11T08:03:38.000Z</time>
      </trkpt>
      <trkpt lat="41.36774" lon="1.138445">
        <ele>585.0</ele>
        <time>2021-07-11T08:03:39.000Z</time>
      </trkpt>
      <trkpt lat="41.367745" lon="1.13846167">
        <ele>585.0</ele>
        <time>2021-07-11T08:03:40.000Z</time>
      </trkpt>
      <trkpt lat="41.36774833" lon="1.13847667">
        <ele>585.0</ele>
        <time>2021-07-11T08:03:41.000Z</time>
      </trkpt>
      <trkpt lat="41.36775333" lon="1.13849167">
        <ele>585.0</ele>
        <time>2021-07-11T08:03:42.000Z</time>
      </trkpt>
      <trkpt lat="41.36775667" lon="1.138505">
        <ele>585.0</ele>
        <time>2021-07-11T08:03:43.000Z</time>
      </trkpt>
      <trkpt lat="41.36775833" lon="1.13851667">
        <ele>585.0</ele>
        <time>2021-07-11T08:03:44.000Z</time>
      </trkpt>
      <trkpt lat="41.36776333" lon="1.13853333">
        <ele>585.0</ele>
        <time>2021-07-11T08:03:45.000Z</time>
      </trkpt>
      <trkpt lat="41.36776833" lon="1.13855">
        <ele>585.0</ele>
        <time>2021-07-11T08:03:46.000Z</time>
      </trkpt>
      <trkpt lat="41.367775" lon="1.13856333">
        <ele>585.0</ele>
        <time>2021-07-11T08:03:47.000Z</time>
      </trkpt>
      <trkpt lat="41.36778" lon="1.13857667">
        <ele>585.0</ele>
        <time>2021-07-11T08:03:48.000Z</time>
      </trkpt>
      <trkpt lat="41.367785" lon="1.13859">
        <ele>585.0</ele>
        <time>2021-07-11T08:03:49.000Z</time>
      </trkpt>
      <trkpt lat="41.36779" lon="1.1386">
        <ele>585.0</ele>
        <time>2021-07-11T08:03:50.000Z</time>
      </trkpt>
      <trkpt lat="41.367795" lon="1.13861333">
        <ele>584.0</ele>
        <time>2021-07-11T08:03:51.000Z</time>
      </trkpt>
      <trkpt lat="41.3678" lon="1.13862833">
        <ele>584.0</ele>
        <time>2021-07-11T08:03:52.000Z</time>
      </trkpt>
      <trkpt lat="41.367805" lon="1.13864833">
        <ele>584.0</ele>
        <time>2021-07-11T08:03:53.000Z</time>
      </trkpt>
      <trkpt lat="41.36781" lon="1.13866833">
        <ele>584.0</ele>
        <time>2021-07-11T08:03:54.000Z</time>
      </trkpt>
      <trkpt lat="41.36781333" lon="1.13868667">
        <ele>584.0</ele>
        <time>2021-07-11T08:03:55.000Z</time>
      </trkpt>
      <trkpt lat="41.36781667" lon="1.13870333">
        <ele>584.0</ele>
        <time>2021-07-11T08:03:56.000Z</time>
      </trkpt>
      <trkpt lat="41.36782167" lon="1.13872">
        <ele>584.0</ele>
        <time>2021-07-11T08:03:57.000Z</time>
      </trkpt>
      <trkpt lat="41.36782833" lon="1.138735">
        <ele>584.0</ele>
        <time>2021-07-11T08:03:58.000Z</time>
      </trkpt>
      <trkpt lat="41.36783667" lon="1.13875167">
        <ele>583.0</ele>
        <time>2021-07-11T08:03:59.000Z</time>
      </trkpt>
      <trkpt lat="41.36784333" lon="1.138765">
        <ele>583.0</ele>
        <time>2021-07-11T08:04:00.000Z</time>
      </trkpt>
      <trkpt lat="41.36784667" lon="1.13878">
        <ele>583.0</ele>
        <time>2021-07-11T08:04:01.000Z</time>
      </trkpt>
      <trkpt lat="41.36785333" lon="1.138795">
        <ele>583.0</ele>
        <time>2021-07-11T08:04:02.000Z</time>
      </trkpt>
      <trkpt lat="41.36785833" lon="1.13881333">
        <ele>583.0</ele>
        <time>2021-07-11T08:04:03.000Z</time>
      </trkpt>
      <trkpt lat="41.36786167" lon="1.13882833">
        <ele>583.0</ele>
        <time>2021-07-11T08:04:04.000Z</time>
      </trkpt>
      <trkpt lat="41.36786667" lon="1.138845">
        <ele>583.0</ele>
        <time>2021-07-11T08:04:05.000Z</time>
      </trkpt>
      <trkpt lat="41.36787167" lon="1.13886">
        <ele>583.0</ele>
        <time>2021-07-11T08:04:06.000Z</time>
      </trkpt>
      <trkpt lat="41.36787833" lon="1.138875">
        <ele>583.0</ele>
        <time>2021-07-11T08:04:07.000Z</time>
      </trkpt>
      <trkpt lat="41.36788333" lon="1.13888833">
        <ele>583.0</ele>
        <time>2021-07-11T08:04:08.000Z</time>
      </trkpt>
      <trkpt lat="41.36789" lon="1.13890167">
        <ele>583.0</ele>
        <time>2021-07-11T08:04:09.000Z</time>
      </trkpt>
      <trkpt lat="41.36789833" lon="1.13891333">
        <ele>583.0</ele>
        <time>2021-07-11T08:04:10.000Z</time>
      </trkpt>
      <trkpt lat="41.36790667" lon="1.138925">
        <ele>583.0</ele>
        <time>2021-07-11T08:04:11.000Z</time>
      </trkpt>
      <trkpt lat="41.36791333" lon="1.13893667">
        <ele>582.0</ele>
        <time>2021-07-11T08:04:12.000Z</time>
      </trkpt>
      <trkpt lat="41.36791833" lon="1.13894667">
        <ele>582.0</ele>
        <time>2021-07-11T08:04:13.000Z</time>
      </trkpt>
      <trkpt lat="41.36792667" lon="1.138955">
        <ele>582.0</ele>
        <time>2021-07-11T08:04:14.000Z</time>
      </trkpt>
      <trkpt lat="41.36793167" lon="1.13896333">
        <ele>582.0</ele>
        <time>2021-07-11T08:04:15.000Z</time>
      </trkpt>
      <trkpt lat="41.36794" lon="1.13897">
        <ele>582.0</ele>
        <time>2021-07-11T08:04:16.000Z</time>
      </trkpt>
      <trkpt lat="41.36794667" lon="1.13898">
        <ele>582.0</ele>
        <time>2021-07-11T08:04:17.000Z</time>
      </trkpt>
      <trkpt lat="41.36795333" lon="1.13898833">
        <ele>582.0</ele>
        <time>2021-07-11T08:04:18.000Z</time>
      </trkpt>
      <trkpt lat="41.36796" lon="1.138995">
        <ele>582.0</ele>
        <time>2021-07-11T08:04:19.000Z</time>
      </trkpt>
      <trkpt lat="41.367965" lon="1.13900333">
        <ele>582.0</ele>
        <time>2021-07-11T08:04:20.000Z</time>
      </trkpt>
      <trkpt lat="41.36797167" lon="1.13901">
        <ele>582.0</ele>
        <time>2021-07-11T08:04:21.000Z</time>
      </trkpt>
      <trkpt lat="41.36797833" lon="1.13901667">
        <ele>582.0</ele>
        <time>2021-07-11T08:04:22.000Z</time>
      </trkpt>
      <trkpt lat="41.367985" lon="1.13902333">
        <ele>582.0</ele>
        <time>2021-07-11T08:04:23.000Z</time>
      </trkpt>
      <trkpt lat="41.36799167" lon="1.13902833">
        <ele>582.0</ele>
        <time>2021-07-11T08:04:24.000Z</time>
      </trkpt>
      <trkpt lat="41.36799833" lon="1.13903167">
        <ele>582.0</ele>
        <time>2021-07-11T08:04:25.000Z</time>
      </trkpt>
      <trkpt lat="41.368005" lon="1.139035">
        <ele>582.0</ele>
        <time>2021-07-11T08:04:26.000Z</time>
      </trkpt>
      <trkpt lat="41.36801333" lon="1.13904333">
        <ele>582.0</ele>
        <time>2021-07-11T08:04:27.000Z</time>
      </trkpt>
      <trkpt lat="41.36802333" lon="1.13905333">
        <ele>583.0</ele>
        <time>2021-07-11T08:04:28.000Z</time>
      </trkpt>
      <trkpt lat="41.36803333" lon="1.13906167">
        <ele>583.0</ele>
        <time>2021-07-11T08:04:29.000Z</time>
      </trkpt>
      <trkpt lat="41.368045" lon="1.13907">
        <ele>583.0</ele>
        <time>2021-07-11T08:04:30.000Z</time>
      </trkpt>
      <trkpt lat="41.36805167" lon="1.13907667">
        <ele>583.0</ele>
        <time>2021-07-11T08:04:31.000Z</time>
      </trkpt>
      <trkpt lat="41.36806" lon="1.139085">
        <ele>583.0</ele>
        <time>2021-07-11T08:04:32.000Z</time>
      </trkpt>
      <trkpt lat="41.36806667" lon="1.13909333">
        <ele>583.0</ele>
        <time>2021-07-11T08:04:33.000Z</time>
      </trkpt>
      <trkpt lat="41.368075" lon="1.13910167">
        <ele>583.0</ele>
        <time>2021-07-11T08:04:34.000Z</time>
      </trkpt>
      <trkpt lat="41.36808333" lon="1.13911167">
        <ele>583.0</ele>
        <time>2021-07-11T08:04:35.000Z</time>
      </trkpt>
      <trkpt lat="41.36809167" lon="1.13912">
        <ele>583.0</ele>
        <time>2021-07-11T08:04:36.000Z</time>
      </trkpt>
      <trkpt lat="41.36809833" lon="1.13913">
        <ele>583.0</ele>
        <time>2021-07-11T08:04:37.000Z</time>
      </trkpt>
      <trkpt lat="41.368105" lon="1.13913833">
        <ele>583.0</ele>
        <time>2021-07-11T08:04:38.000Z</time>
      </trkpt>
      <trkpt lat="41.36811167" lon="1.13914833">
        <ele>583.0</ele>
        <time>2021-07-11T08:04:39.000Z</time>
      </trkpt>
      <trkpt lat="41.36812167" lon="1.13915833">
        <ele>583.0</ele>
        <time>2021-07-11T08:04:40.000Z</time>
      </trkpt>
      <trkpt lat="41.36813" lon="1.13916833">
        <ele>583.0</ele>
        <time>2021-07-11T08:04:41.000Z</time>
      </trkpt>
      <trkpt lat="41.36813667" lon="1.13917833">
        <ele>583.0</ele>
        <time>2021-07-11T08:04:42.000Z</time>
      </trkpt>
      <trkpt lat="41.36814333" lon="1.139185">
        <ele>583.0</ele>
        <time>2021-07-11T08:04:43.000Z</time>
      </trkpt>
      <trkpt lat="41.36815" lon="1.13919167">
        <ele>583.0</ele>
        <time>2021-07-11T08:04:44.000Z</time>
      </trkpt>
      <trkpt lat="41.368155" lon="1.1392">
        <ele>583.0</ele>
        <time>2021-07-11T08:04:45.000Z</time>
      </trkpt>
      <trkpt lat="41.36816" lon="1.13920833">
        <ele>583.0</ele>
        <time>2021-07-11T08:04:46.000Z</time>
      </trkpt>
      <trkpt lat="41.36816667" lon="1.13922">
        <ele>583.0</ele>
        <time>2021-07-11T08:04:47.000Z</time>
      </trkpt>
      <trkpt lat="41.36817167" lon="1.13923">
        <ele>584.0</ele>
        <time>2021-07-11T08:04:48.000Z</time>
      </trkpt>
      <trkpt lat="41.36817833" lon="1.13923833">
        <ele>584.0</ele>
        <time>2021-07-11T08:04:49.000Z</time>
      </trkpt>
      <trkpt lat="41.36818333" lon="1.13924667">
        <ele>584.0</ele>
        <time>2021-07-11T08:04:50.000Z</time>
      </trkpt>
      <trkpt lat="41.36819167" lon="1.139255">
        <ele>584.0</ele>
        <time>2021-07-11T08:04:51.000Z</time>
      </trkpt>
      <trkpt lat="41.36819667" lon="1.139265">
        <ele>584.0</ele>
        <time>2021-07-11T08:04:52.000Z</time>
      </trkpt>
      <trkpt lat="41.36820167" lon="1.139275">
        <ele>584.0</ele>
        <time>2021-07-11T08:04:53.000Z</time>
      </trkpt>
      <trkpt lat="41.36820833" lon="1.139285">
        <ele>584.0</ele>
        <time>2021-07-11T08:04:54.000Z</time>
      </trkpt>
      <trkpt lat="41.36821667" lon="1.139295">
        <ele>584.0</ele>
        <time>2021-07-11T08:04:55.000Z</time>
      </trkpt>
      <trkpt lat="41.368225" lon="1.13930667">
        <ele>584.0</ele>
        <time>2021-07-11T08:04:56.000Z</time>
      </trkpt>
      <trkpt lat="41.36823333" lon="1.13931833">
        <ele>585.0</ele>
        <time>2021-07-11T08:04:57.000Z</time>
      </trkpt>
      <trkpt lat="41.36824" lon="1.13932833">
        <ele>585.0</ele>
        <time>2021-07-11T08:04:58.000Z</time>
      </trkpt>
      <trkpt lat="41.36824833" lon="1.13933833">
        <ele>585.0</ele>
        <time>2021-07-11T08:04:59.000Z</time>
      </trkpt>
      <trkpt lat="41.36825667" lon="1.13934833">
        <ele>585.0</ele>
        <time>2021-07-11T08:05:00.000Z</time>
      </trkpt>
      <trkpt lat="41.368265" lon="1.13935833">
        <ele>585.0</ele>
        <time>2021-07-11T08:05:01.000Z</time>
      </trkpt>
      <trkpt lat="41.36827167" lon="1.13937">
        <ele>585.0</ele>
        <time>2021-07-11T08:05:02.000Z</time>
      </trkpt>
      <trkpt lat="41.36828167" lon="1.13938167">
        <ele>585.0</ele>
        <time>2021-07-11T08:05:03.000Z</time>
      </trkpt>
      <trkpt lat="41.36829" lon="1.13939333">
        <ele>585.0</ele>
        <time>2021-07-11T08:05:04.000Z</time>
      </trkpt>
      <trkpt lat="41.36829833" lon="1.13940833">
        <ele>585.0</ele>
        <time>2021-07-11T08:05:05.000Z</time>
      </trkpt>
      <trkpt lat="41.36830667" lon="1.13942167">
        <ele>585.0</ele>
        <time>2021-07-11T08:05:06.000Z</time>
      </trkpt>
      <trkpt lat="41.368315" lon="1.13943667">
        <ele>585.0</ele>
        <time>2021-07-11T08:05:07.000Z</time>
      </trkpt>
      <trkpt lat="41.36832167" lon="1.13945">
        <ele>585.0</ele>
        <time>2021-07-11T08:05:08.000Z</time>
      </trkpt>
      <trkpt lat="41.36833167" lon="1.139465">
        <ele>586.0</ele>
        <time>2021-07-11T08:05:09.000Z</time>
      </trkpt>
      <trkpt lat="41.36834" lon="1.13947833">
        <ele>586.0</ele>
        <time>2021-07-11T08:05:10.000Z</time>
      </trkpt>
      <trkpt lat="41.36834833" lon="1.13949167">
        <ele>586.0</ele>
        <time>2021-07-11T08:05:11.000Z</time>
      </trkpt>
      <trkpt lat="41.36835667" lon="1.139505">
        <ele>586.0</ele>
        <time>2021-07-11T08:05:12.000Z</time>
      </trkpt>
      <trkpt lat="41.36836667" lon="1.13952">
        <ele>586.0</ele>
        <time>2021-07-11T08:05:13.000Z</time>
      </trkpt>
      <trkpt lat="41.36837333" lon="1.13953167">
        <ele>586.0</ele>
        <time>2021-07-11T08:05:14.000Z</time>
      </trkpt>
      <trkpt lat="41.36838" lon="1.13954333">
        <ele>586.0</ele>
        <time>2021-07-11T08:05:15.000Z</time>
      </trkpt>
      <trkpt lat="41.368385" lon="1.139555">
        <ele>586.0</ele>
        <time>2021-07-11T08:05:16.000Z</time>
      </trkpt>
      <trkpt lat="41.36838667" lon="1.139565">
        <ele>586.0</ele>
        <time>2021-07-11T08:05:17.000Z</time>
      </trkpt>
      <trkpt lat="41.36839167" lon="1.139575">
        <ele>586.0</ele>
        <time>2021-07-11T08:05:18.000Z</time>
      </trkpt>
      <trkpt lat="41.36839833" lon="1.13958833">
        <ele>586.0</ele>
        <time>2021-07-11T08:05:19.000Z</time>
      </trkpt>
      <trkpt lat="41.368405" lon="1.1396">
        <ele>586.0</ele>
        <time>2021-07-11T08:05:20.000Z</time>
      </trkpt>
      <trkpt lat="41.36841" lon="1.13961">
        <ele>587.0</ele>
        <time>2021-07-11T08:05:21.000Z</time>
      </trkpt>
      <trkpt lat="41.36841333" lon="1.13962">
        <ele>587.0</ele>
        <time>2021-07-11T08:05:22.000Z</time>
      </trkpt>
      <trkpt lat="41.368415" lon="1.13963">
        <ele>587.0</ele>
        <time>2021-07-11T08:05:23.000Z</time>
      </trkpt>
      <trkpt lat="41.36841833" lon="1.13964167">
        <ele>587.0</ele>
        <time>2021-07-11T08:05:24.000Z</time>
      </trkpt>
      <trkpt lat="41.36842167" lon="1.139655">
        <ele>587.0</ele>
        <time>2021-07-11T08:05:25.000Z</time>
      </trkpt>
      <trkpt lat="41.36842333" lon="1.13966833">
        <ele>587.0</ele>
        <time>2021-07-11T08:05:26.000Z</time>
      </trkpt>
      <trkpt lat="41.36842333" lon="1.13968167">
        <ele>587.0</ele>
        <time>2021-07-11T08:05:27.000Z</time>
      </trkpt>
      <trkpt lat="41.36842167" lon="1.13969333">
        <ele>587.0</ele>
        <time>2021-07-11T08:05:28.000Z</time>
      </trkpt>
      <trkpt lat="41.36842" lon="1.13970333">
        <ele>587.0</ele>
        <time>2021-07-11T08:05:29.000Z</time>
      </trkpt>
      <trkpt lat="41.36842" lon="1.13971667">
        <ele>587.0</ele>
        <time>2021-07-11T08:05:30.000Z</time>
      </trkpt>
      <trkpt lat="41.36841833" lon="1.13973">
        <ele>588.0</ele>
        <time>2021-07-11T08:05:31.000Z</time>
      </trkpt>
      <trkpt lat="41.368415" lon="1.139745">
        <ele>588.0</ele>
        <time>2021-07-11T08:05:32.000Z</time>
      </trkpt>
      <trkpt lat="41.36841167" lon="1.13976">
        <ele>588.0</ele>
        <time>2021-07-11T08:05:33.000Z</time>
      </trkpt>
      <trkpt lat="41.36840833" lon="1.13977167">
        <ele>588.0</ele>
        <time>2021-07-11T08:05:34.000Z</time>
      </trkpt>
      <trkpt lat="41.36840333" lon="1.13978333">
        <ele>588.0</ele>
        <time>2021-07-11T08:05:35.000Z</time>
      </trkpt>
      <trkpt lat="41.36839667" lon="1.13979333">
        <ele>588.0</ele>
        <time>2021-07-11T08:05:36.000Z</time>
      </trkpt>
      <trkpt lat="41.36839167" lon="1.13980833">
        <ele>588.0</ele>
        <time>2021-07-11T08:05:37.000Z</time>
      </trkpt>
      <trkpt lat="41.368385" lon="1.13982167">
        <ele>588.0</ele>
        <time>2021-07-11T08:05:38.000Z</time>
      </trkpt>
      <trkpt lat="41.36837667" lon="1.13983667">
        <ele>588.0</ele>
        <time>2021-07-11T08:05:39.000Z</time>
      </trkpt>
      <trkpt lat="41.36837167" lon="1.13985">
        <ele>588.0</ele>
        <time>2021-07-11T08:05:40.000Z</time>
      </trkpt>
      <trkpt lat="41.36836667" lon="1.139865">
        <ele>588.0</ele>
        <time>2021-07-11T08:05:41.000Z</time>
      </trkpt>
      <trkpt lat="41.36836" lon="1.13988167">
        <ele>588.0</ele>
        <time>2021-07-11T08:05:42.000Z</time>
      </trkpt>
      <trkpt lat="41.36835167" lon="1.13989667">
        <ele>588.0</ele>
        <time>2021-07-11T08:05:43.000Z</time>
      </trkpt>
      <trkpt lat="41.368345" lon="1.13991333">
        <ele>588.0</ele>
        <time>2021-07-11T08:05:44.000Z</time>
      </trkpt>
      <trkpt lat="41.36833833" lon="1.13992833">
        <ele>588.0</ele>
        <time>2021-07-11T08:05:45.000Z</time>
      </trkpt>
      <trkpt lat="41.36833333" lon="1.13994333">
        <ele>588.0</ele>
        <time>2021-07-11T08:05:46.000Z</time>
      </trkpt>
      <trkpt lat="41.36832833" lon="1.13996">
        <ele>588.0</ele>
        <time>2021-07-11T08:05:47.000Z</time>
      </trkpt>
      <trkpt lat="41.36832333" lon="1.13997667">
        <ele>588.0</ele>
        <time>2021-07-11T08:05:48.000Z</time>
      </trkpt>
      <trkpt lat="41.36832" lon="1.13999167">
        <ele>588.0</ele>
        <time>2021-07-11T08:05:49.000Z</time>
      </trkpt>
      <trkpt lat="41.36831667" lon="1.14000667">
        <ele>588.0</ele>
        <time>2021-07-11T08:05:50.000Z</time>
      </trkpt>
      <trkpt lat="41.36831667" lon="1.14002333">
        <ele>588.0</ele>
        <time>2021-07-11T08:05:51.000Z</time>
      </trkpt>
      <trkpt lat="41.36831833" lon="1.14004167">
        <ele>588.0</ele>
        <time>2021-07-11T08:05:52.000Z</time>
      </trkpt>
      <trkpt lat="41.36831833" lon="1.14005833">
        <ele>588.0</ele>
        <time>2021-07-11T08:05:53.000Z</time>
      </trkpt>
      <trkpt lat="41.36832" lon="1.14007333">
        <ele>588.0</ele>
        <time>2021-07-11T08:05:54.000Z</time>
      </trkpt>
      <trkpt lat="41.36832" lon="1.14009167">
        <ele>588.0</ele>
        <time>2021-07-11T08:05:55.000Z</time>
      </trkpt>
      <trkpt lat="41.36832167" lon="1.14011167">
        <ele>588.0</ele>
        <time>2021-07-11T08:05:56.000Z</time>
      </trkpt>
      <trkpt lat="41.36832167" lon="1.14012667">
        <ele>588.0</ele>
        <time>2021-07-11T08:05:57.000Z</time>
      </trkpt>
      <trkpt lat="41.36832333" lon="1.140145">
        <ele>588.0</ele>
        <time>2021-07-11T08:05:58.000Z</time>
      </trkpt>
      <trkpt lat="41.36832333" lon="1.14016">
        <ele>588.0</ele>
        <time>2021-07-11T08:05:59.000Z</time>
      </trkpt>
      <trkpt lat="41.36832667" lon="1.140175">
        <ele>588.0</ele>
        <time>2021-07-11T08:06:00.000Z</time>
      </trkpt>
      <trkpt lat="41.36833167" lon="1.14018667">
        <ele>588.0</ele>
        <time>2021-07-11T08:06:01.000Z</time>
      </trkpt>
      <trkpt lat="41.36833833" lon="1.1402">
        <ele>588.0</ele>
        <time>2021-07-11T08:06:02.000Z</time>
      </trkpt>
      <trkpt lat="41.36834667" lon="1.14021333">
        <ele>588.0</ele>
        <time>2021-07-11T08:06:03.000Z</time>
      </trkpt>
      <trkpt lat="41.368355" lon="1.14022333">
        <ele>588.0</ele>
        <time>2021-07-11T08:06:04.000Z</time>
      </trkpt>
      <trkpt lat="41.368365" lon="1.14023333">
        <ele>588.0</ele>
        <time>2021-07-11T08:06:05.000Z</time>
      </trkpt>
      <trkpt lat="41.36837333" lon="1.14024167">
        <ele>588.0</ele>
        <time>2021-07-11T08:06:06.000Z</time>
      </trkpt>
      <trkpt lat="41.36838333" lon="1.14024833">
        <ele>588.0</ele>
        <time>2021-07-11T08:06:07.000Z</time>
      </trkpt>
      <trkpt lat="41.36839333" lon="1.14025667">
        <ele>588.0</ele>
        <time>2021-07-11T08:06:08.000Z</time>
      </trkpt>
      <trkpt lat="41.36840167" lon="1.14026333">
        <ele>588.0</ele>
        <time>2021-07-11T08:06:09.000Z</time>
      </trkpt>
      <trkpt lat="41.36841333" lon="1.14027">
        <ele>589.0</ele>
        <time>2021-07-11T08:06:10.000Z</time>
      </trkpt>
      <trkpt lat="41.368425" lon="1.14028">
        <ele>589.0</ele>
        <time>2021-07-11T08:06:11.000Z</time>
      </trkpt>
      <trkpt lat="41.36843667" lon="1.14029">
        <ele>589.0</ele>
        <time>2021-07-11T08:06:12.000Z</time>
      </trkpt>
      <trkpt lat="41.36844667" lon="1.14029833">
        <ele>589.0</ele>
        <time>2021-07-11T08:06:13.000Z</time>
      </trkpt>
      <trkpt lat="41.368455" lon="1.140305">
        <ele>589.0</ele>
        <time>2021-07-11T08:06:14.000Z</time>
      </trkpt>
      <trkpt lat="41.36846333" lon="1.14031333">
        <ele>589.0</ele>
        <time>2021-07-11T08:06:15.000Z</time>
      </trkpt>
      <trkpt lat="41.36847333" lon="1.14032167">
        <ele>589.0</ele>
        <time>2021-07-11T08:06:16.000Z</time>
      </trkpt>
      <trkpt lat="41.36848167" lon="1.14032833">
        <ele>589.0</ele>
        <time>2021-07-11T08:06:17.000Z</time>
      </trkpt>
      <trkpt lat="41.36849167" lon="1.14034">
        <ele>589.0</ele>
        <time>2021-07-11T08:06:18.000Z</time>
      </trkpt>
      <trkpt lat="41.3685" lon="1.14035167">
        <ele>588.0</ele>
        <time>2021-07-11T08:06:19.000Z</time>
      </trkpt>
      <trkpt lat="41.36850833" lon="1.140365">
        <ele>588.0</ele>
        <time>2021-07-11T08:06:20.000Z</time>
      </trkpt>
      <trkpt lat="41.36851333" lon="1.14037333">
        <ele>588.0</ele>
        <time>2021-07-11T08:06:21.000Z</time>
      </trkpt>
      <trkpt lat="41.36852" lon="1.14038333">
        <ele>588.0</ele>
        <time>2021-07-11T08:06:22.000Z</time>
      </trkpt>
      <trkpt lat="41.36852667" lon="1.14039167">
        <ele>588.0</ele>
        <time>2021-07-11T08:06:23.000Z</time>
      </trkpt>
      <trkpt lat="41.368535" lon="1.14039833">
        <ele>588.0</ele>
        <time>2021-07-11T08:06:24.000Z</time>
      </trkpt>
      <trkpt lat="41.36854333" lon="1.14040833">
        <ele>588.0</ele>
        <time>2021-07-11T08:06:25.000Z</time>
      </trkpt>
      <trkpt lat="41.36855" lon="1.140415">
        <ele>588.0</ele>
        <time>2021-07-11T08:06:26.000Z</time>
      </trkpt>
      <trkpt lat="41.36855667" lon="1.14042333">
        <ele>588.0</ele>
        <time>2021-07-11T08:06:27.000Z</time>
      </trkpt>
      <trkpt lat="41.36856333" lon="1.14043167">
        <ele>588.0</ele>
        <time>2021-07-11T08:06:28.000Z</time>
      </trkpt>
      <trkpt lat="41.36857167" lon="1.14044">
        <ele>588.0</ele>
        <time>2021-07-11T08:06:29.000Z</time>
      </trkpt>
      <trkpt lat="41.36857833" lon="1.140445">
        <ele>587.0</ele>
        <time>2021-07-11T08:06:30.000Z</time>
      </trkpt>
      <trkpt lat="41.36858667" lon="1.14044833">
        <ele>587.0</ele>
        <time>2021-07-11T08:06:31.000Z</time>
      </trkpt>
      <trkpt lat="41.368595" lon="1.140455">
        <ele>587.0</ele>
        <time>2021-07-11T08:06:32.000Z</time>
      </trkpt>
      <trkpt lat="41.368605" lon="1.14046">
        <ele>587.0</ele>
        <time>2021-07-11T08:06:33.000Z</time>
      </trkpt>
      <trkpt lat="41.368615" lon="1.14046667">
        <ele>587.0</ele>
        <time>2021-07-11T08:06:34.000Z</time>
      </trkpt>
      <trkpt lat="41.368625" lon="1.14047333">
        <ele>587.0</ele>
        <time>2021-07-11T08:06:35.000Z</time>
      </trkpt>
      <trkpt lat="41.368635" lon="1.14048167">
        <ele>587.0</ele>
        <time>2021-07-11T08:06:36.000Z</time>
      </trkpt>
      <trkpt lat="41.368645" lon="1.14048833">
        <ele>587.0</ele>
        <time>2021-07-11T08:06:37.000Z</time>
      </trkpt>
      <trkpt lat="41.36865667" lon="1.140495">
        <ele>587.0</ele>
        <time>2021-07-11T08:06:38.000Z</time>
      </trkpt>
      <trkpt lat="41.36866667" lon="1.140505">
        <ele>587.0</ele>
        <time>2021-07-11T08:06:39.000Z</time>
      </trkpt>
      <trkpt lat="41.36867833" lon="1.14051167">
        <ele>587.0</ele>
        <time>2021-07-11T08:06:40.000Z</time>
      </trkpt>
      <trkpt lat="41.36868667" lon="1.14052">
        <ele>587.0</ele>
        <time>2021-07-11T08:06:41.000Z</time>
      </trkpt>
      <trkpt lat="41.368695" lon="1.14052833">
        <ele>587.0</ele>
        <time>2021-07-11T08:06:42.000Z</time>
      </trkpt>
      <trkpt lat="41.368705" lon="1.14054">
        <ele>587.0</ele>
        <time>2021-07-11T08:06:43.000Z</time>
      </trkpt>
      <trkpt lat="41.368715" lon="1.14055167">
        <ele>587.0</ele>
        <time>2021-07-11T08:06:44.000Z</time>
      </trkpt>
      <trkpt lat="41.368725" lon="1.14056">
        <ele>587.0</ele>
        <time>2021-07-11T08:06:45.000Z</time>
      </trkpt>
      <trkpt lat="41.36873667" lon="1.14057">
        <ele>587.0</ele>
        <time>2021-07-11T08:06:46.000Z</time>
      </trkpt>
      <trkpt lat="41.36874667" lon="1.14057667">
        <ele>587.0</ele>
        <time>2021-07-11T08:06:47.000Z</time>
      </trkpt>
      <trkpt lat="41.36875667" lon="1.14058333">
        <ele>587.0</ele>
        <time>2021-07-11T08:06:48.000Z</time>
      </trkpt>
      <trkpt lat="41.36876667" lon="1.14058667">
        <ele>588.0</ele>
        <time>2021-07-11T08:06:49.000Z</time>
      </trkpt>
      <trkpt lat="41.36877667" lon="1.14058833">
        <ele>588.0</ele>
        <time>2021-07-11T08:06:50.000Z</time>
      </trkpt>
      <trkpt lat="41.36878833" lon="1.14058833">
        <ele>587.0</ele>
        <time>2021-07-11T08:06:51.000Z</time>
      </trkpt>
      <trkpt lat="41.3688" lon="1.140585">
        <ele>587.0</ele>
        <time>2021-07-11T08:06:52.000Z</time>
      </trkpt>
      <trkpt lat="41.36881333" lon="1.14058333">
        <ele>587.0</ele>
        <time>2021-07-11T08:06:53.000Z</time>
      </trkpt>
      <trkpt lat="41.368825" lon="1.14058167">
        <ele>587.0</ele>
        <time>2021-07-11T08:06:54.000Z</time>
      </trkpt>
      <trkpt lat="41.36883667" lon="1.14057833">
        <ele>587.0</ele>
        <time>2021-07-11T08:06:55.000Z</time>
      </trkpt>
      <trkpt lat="41.36884667" lon="1.140575">
        <ele>587.0</ele>
        <time>2021-07-11T08:06:56.000Z</time>
      </trkpt>
      <trkpt lat="41.36885667" lon="1.14057167">
        <ele>587.0</ele>
        <time>2021-07-11T08:06:57.000Z</time>
      </trkpt>
      <trkpt lat="41.368865" lon="1.14056833">
        <ele>587.0</ele>
        <time>2021-07-11T08:06:58.000Z</time>
      </trkpt>
      <trkpt lat="41.36887333" lon="1.140565">
        <ele>587.0</ele>
        <time>2021-07-11T08:06:59.000Z</time>
      </trkpt>
      <trkpt lat="41.36888333" lon="1.14055833">
        <ele>587.0</ele>
        <time>2021-07-11T08:07:00.000Z</time>
      </trkpt>
      <trkpt lat="41.36889333" lon="1.14055167">
        <ele>587.0</ele>
        <time>2021-07-11T08:07:01.000Z</time>
      </trkpt>
      <trkpt lat="41.368905" lon="1.140545">
        <ele>587.0</ele>
        <time>2021-07-11T08:07:02.000Z</time>
      </trkpt>
      <trkpt lat="41.368915" lon="1.14053833">
        <ele>587.0</ele>
        <time>2021-07-11T08:07:03.000Z</time>
      </trkpt>
      <trkpt lat="41.368925" lon="1.14053">
        <ele>588.0</ele>
        <time>2021-07-11T08:07:04.000Z</time>
      </trkpt>
      <trkpt lat="41.36893333" lon="1.14052333">
        <ele>588.0</ele>
        <time>2021-07-11T08:07:05.000Z</time>
      </trkpt>
      <trkpt lat="41.36894333" lon="1.14051667">
        <ele>588.0</ele>
        <time>2021-07-11T08:07:06.000Z</time>
      </trkpt>
      <trkpt lat="41.368955" lon="1.14050833">
        <ele>588.0</ele>
        <time>2021-07-11T08:07:07.000Z</time>
      </trkpt>
      <trkpt lat="41.36896167" lon="1.14050333">
        <ele>588.0</ele>
        <time>2021-07-11T08:07:08.000Z</time>
      </trkpt>
      <trkpt lat="41.36897167" lon="1.14049833">
        <ele>588.0</ele>
        <time>2021-07-11T08:07:09.000Z</time>
      </trkpt>
      <trkpt lat="41.36898167" lon="1.14049">
        <ele>588.0</ele>
        <time>2021-07-11T08:07:10.000Z</time>
      </trkpt>
      <trkpt lat="41.36899167" lon="1.14048167">
        <ele>588.0</ele>
        <time>2021-07-11T08:07:11.000Z</time>
      </trkpt>
      <trkpt lat="41.369" lon="1.14047333">
        <ele>588.0</ele>
        <time>2021-07-11T08:07:12.000Z</time>
      </trkpt>
      <trkpt lat="41.36900833" lon="1.140465">
        <ele>588.0</ele>
        <time>2021-07-11T08:07:13.000Z</time>
      </trkpt>
      <trkpt lat="41.36901667" lon="1.14045667">
        <ele>588.0</ele>
        <time>2021-07-11T08:07:14.000Z</time>
      </trkpt>
      <trkpt lat="41.369025" lon="1.14044833">
        <ele>588.0</ele>
        <time>2021-07-11T08:07:15.000Z</time>
      </trkpt>
      <trkpt lat="41.36903" lon="1.14043833">
        <ele>588.0</ele>
        <time>2021-07-11T08:07:16.000Z</time>
      </trkpt>
      <trkpt lat="41.369035" lon="1.14042833">
        <ele>588.0</ele>
        <time>2021-07-11T08:07:17.000Z</time>
      </trkpt>
      <trkpt lat="41.36904" lon="1.14042">
        <ele>588.0</ele>
        <time>2021-07-11T08:07:18.000Z</time>
      </trkpt>
      <trkpt lat="41.36904667" lon="1.14041">
        <ele>588.0</ele>
        <time>2021-07-11T08:07:19.000Z</time>
      </trkpt>
      <trkpt lat="41.36905167" lon="1.14039833">
        <ele>588.0</ele>
        <time>2021-07-11T08:07:20.000Z</time>
      </trkpt>
      <trkpt lat="41.36906" lon="1.14038667">
        <ele>588.0</ele>
        <time>2021-07-11T08:07:21.000Z</time>
      </trkpt>
      <trkpt lat="41.36906833" lon="1.14037667">
        <ele>588.0</ele>
        <time>2021-07-11T08:07:22.000Z</time>
      </trkpt>
      <trkpt lat="41.369075" lon="1.14036833">
        <ele>588.0</ele>
        <time>2021-07-11T08:07:23.000Z</time>
      </trkpt>
      <trkpt lat="41.36908167" lon="1.14035833">
        <ele>588.0</ele>
        <time>2021-07-11T08:07:24.000Z</time>
      </trkpt>
      <trkpt lat="41.36908833" lon="1.14034833">
        <ele>588.0</ele>
        <time>2021-07-11T08:07:25.000Z</time>
      </trkpt>
      <trkpt lat="41.36909333" lon="1.14033833">
        <ele>588.0</ele>
        <time>2021-07-11T08:07:26.000Z</time>
      </trkpt>
      <trkpt lat="41.3691" lon="1.14033">
        <ele>588.0</ele>
        <time>2021-07-11T08:07:27.000Z</time>
      </trkpt>
      <trkpt lat="41.36910833" lon="1.14032">
        <ele>589.0</ele>
        <time>2021-07-11T08:07:28.000Z</time>
      </trkpt>
      <trkpt lat="41.36911833" lon="1.14030833">
        <ele>589.0</ele>
        <time>2021-07-11T08:07:29.000Z</time>
      </trkpt>
      <trkpt lat="41.36912667" lon="1.1403">
        <ele>589.0</ele>
        <time>2021-07-11T08:07:30.000Z</time>
      </trkpt>
      <trkpt lat="41.36913667" lon="1.14028833">
        <ele>589.0</ele>
        <time>2021-07-11T08:07:31.000Z</time>
      </trkpt>
      <trkpt lat="41.369145" lon="1.14027833">
        <ele>589.0</ele>
        <time>2021-07-11T08:07:32.000Z</time>
      </trkpt>
      <trkpt lat="41.36915333" lon="1.14026833">
        <ele>589.0</ele>
        <time>2021-07-11T08:07:33.000Z</time>
      </trkpt>
      <trkpt lat="41.36916167" lon="1.14025667">
        <ele>589.0</ele>
        <time>2021-07-11T08:07:34.000Z</time>
      </trkpt>
      <trkpt lat="41.36916833" lon="1.140245">
        <ele>589.0</ele>
        <time>2021-07-11T08:07:35.000Z</time>
      </trkpt>
      <trkpt lat="41.369175" lon="1.140235">
        <ele>589.0</ele>
        <time>2021-07-11T08:07:36.000Z</time>
      </trkpt>
      <trkpt lat="41.36918333" lon="1.14022167">
        <ele>589.0</ele>
        <time>2021-07-11T08:07:37.000Z</time>
      </trkpt>
      <trkpt lat="41.36919167" lon="1.14021">
        <ele>589.0</ele>
        <time>2021-07-11T08:07:38.000Z</time>
      </trkpt>
      <trkpt lat="41.36920333" lon="1.1402">
        <ele>590.0</ele>
        <time>2021-07-11T08:07:39.000Z</time>
      </trkpt>
      <trkpt lat="41.36921333" lon="1.14019">
        <ele>590.0</ele>
        <time>2021-07-11T08:07:40.000Z</time>
      </trkpt>
      <trkpt lat="41.36922333" lon="1.14018">
        <ele>590.0</ele>
        <time>2021-07-11T08:07:41.000Z</time>
      </trkpt>
      <trkpt lat="41.36923167" lon="1.14017167">
        <ele>590.0</ele>
        <time>2021-07-11T08:07:42.000Z</time>
      </trkpt>
      <trkpt lat="41.36924167" lon="1.140165">
        <ele>590.0</ele>
        <time>2021-07-11T08:07:43.000Z</time>
      </trkpt>
      <trkpt lat="41.36925167" lon="1.14015667">
        <ele>590.0</ele>
        <time>2021-07-11T08:07:44.000Z</time>
      </trkpt>
      <trkpt lat="41.36926167" lon="1.14014833">
        <ele>590.0</ele>
        <time>2021-07-11T08:07:45.000Z</time>
      </trkpt>
      <trkpt lat="41.36927" lon="1.14013833">
        <ele>590.0</ele>
        <time>2021-07-11T08:07:46.000Z</time>
      </trkpt>
      <trkpt lat="41.36928167" lon="1.14012833">
        <ele>590.0</ele>
        <time>2021-07-11T08:07:47.000Z</time>
      </trkpt>
      <trkpt lat="41.36928833" lon="1.14011667">
        <ele>590.0</ele>
        <time>2021-07-11T08:07:48.000Z</time>
      </trkpt>
      <trkpt lat="41.36929667" lon="1.14010833">
        <ele>591.0</ele>
        <time>2021-07-11T08:07:49.000Z</time>
      </trkpt>
      <trkpt lat="41.36930167" lon="1.1401">
        <ele>591.0</ele>
        <time>2021-07-11T08:07:50.000Z</time>
      </trkpt>
      <trkpt lat="41.36931" lon="1.14009167">
        <ele>591.0</ele>
        <time>2021-07-11T08:07:51.000Z</time>
      </trkpt>
      <trkpt lat="41.36931667" lon="1.14008333">
        <ele>592.0</ele>
        <time>2021-07-11T08:07:52.000Z</time>
      </trkpt>
      <trkpt lat="41.369325" lon="1.14007667">
        <ele>592.0</ele>
        <time>2021-07-11T08:07:53.000Z</time>
      </trkpt>
      <trkpt lat="41.36933333" lon="1.14006833">
        <ele>592.0</ele>
        <time>2021-07-11T08:07:54.000Z</time>
      </trkpt>
      <trkpt lat="41.36934167" lon="1.14006167">
        <ele>592.0</ele>
        <time>2021-07-11T08:07:55.000Z</time>
      </trkpt>
      <trkpt lat="41.36935167" lon="1.14005333">
        <ele>592.0</ele>
        <time>2021-07-11T08:07:56.000Z</time>
      </trkpt>
      <trkpt lat="41.36936333" lon="1.140045">
        <ele>592.0</ele>
        <time>2021-07-11T08:07:57.000Z</time>
      </trkpt>
      <trkpt lat="41.36937167" lon="1.14004">
        <ele>592.0</ele>
        <time>2021-07-11T08:07:58.000Z</time>
      </trkpt>
      <trkpt lat="41.36938333" lon="1.14003667">
        <ele>592.0</ele>
        <time>2021-07-11T08:07:59.000Z</time>
      </trkpt>
      <trkpt lat="41.369395" lon="1.14003167">
        <ele>593.0</ele>
        <time>2021-07-11T08:08:00.000Z</time>
      </trkpt>
      <trkpt lat="41.369405" lon="1.140025">
        <ele>593.0</ele>
        <time>2021-07-11T08:08:01.000Z</time>
      </trkpt>
      <trkpt lat="41.369415" lon="1.14002">
        <ele>593.0</ele>
        <time>2021-07-11T08:08:02.000Z</time>
      </trkpt>
      <trkpt lat="41.36942333" lon="1.140015">
        <ele>593.0</ele>
        <time>2021-07-11T08:08:03.000Z</time>
      </trkpt>
      <trkpt lat="41.369435" lon="1.14001333">
        <ele>593.0</ele>
        <time>2021-07-11T08:08:04.000Z</time>
      </trkpt>
      <trkpt lat="41.369445" lon="1.14001">
        <ele>593.0</ele>
        <time>2021-07-11T08:08:05.000Z</time>
      </trkpt>
      <trkpt lat="41.36945333" lon="1.14000833">
        <ele>593.0</ele>
        <time>2021-07-11T08:08:06.000Z</time>
      </trkpt>
      <trkpt lat="41.369465" lon="1.14000667">
        <ele>593.0</ele>
        <time>2021-07-11T08:08:07.000Z</time>
      </trkpt>
      <trkpt lat="41.369475" lon="1.140005">
        <ele>593.0</ele>
        <time>2021-07-11T08:08:08.000Z</time>
      </trkpt>
      <trkpt lat="41.36948667" lon="1.14000167">
        <ele>593.0</ele>
        <time>2021-07-11T08:08:09.000Z</time>
      </trkpt>
      <trkpt lat="41.36949667" lon="1.14">
        <ele>594.0</ele>
        <time>2021-07-11T08:08:10.000Z</time>
      </trkpt>
      <trkpt lat="41.36950667" lon="1.13999833">
        <ele>594.0</ele>
        <time>2021-07-11T08:08:11.000Z</time>
      </trkpt>
      <trkpt lat="41.36951667" lon="1.14000167">
        <ele>594.0</ele>
        <time>2021-07-11T08:08:12.000Z</time>
      </trkpt>
      <trkpt lat="41.369525" lon="1.140005">
        <ele>594.0</ele>
        <time>2021-07-11T08:08:13.000Z</time>
      </trkpt>
      <trkpt lat="41.369535" lon="1.14000833">
        <ele>594.0</ele>
        <time>2021-07-11T08:08:14.000Z</time>
      </trkpt>
      <trkpt lat="41.369545" lon="1.14001">
        <ele>594.0</ele>
        <time>2021-07-11T08:08:15.000Z</time>
      </trkpt>
      <trkpt lat="41.369555" lon="1.14001167">
        <ele>594.0</ele>
        <time>2021-07-11T08:08:16.000Z</time>
      </trkpt>
      <trkpt lat="41.36956667" lon="1.14001">
        <ele>594.0</ele>
        <time>2021-07-11T08:08:17.000Z</time>
      </trkpt>
      <trkpt lat="41.36957667" lon="1.14001">
        <ele>594.0</ele>
        <time>2021-07-11T08:08:18.000Z</time>
      </trkpt>
      <trkpt lat="41.36958667" lon="1.14000833">
        <ele>594.0</ele>
        <time>2021-07-11T08:08:19.000Z</time>
      </trkpt>
      <trkpt lat="41.36959667" lon="1.140005">
        <ele>594.0</ele>
        <time>2021-07-11T08:08:20.000Z</time>
      </trkpt>
      <trkpt lat="41.36960833" lon="1.14000667">
        <ele>594.0</ele>
        <time>2021-07-11T08:08:21.000Z</time>
      </trkpt>
      <trkpt lat="41.36962" lon="1.14001">
        <ele>594.0</ele>
        <time>2021-07-11T08:08:22.000Z</time>
      </trkpt>
      <trkpt lat="41.36963" lon="1.14001167">
        <ele>594.0</ele>
        <time>2021-07-11T08:08:23.000Z</time>
      </trkpt>
      <trkpt lat="41.36964" lon="1.14001167">
        <ele>594.0</ele>
        <time>2021-07-11T08:08:24.000Z</time>
      </trkpt>
      <trkpt lat="41.36965" lon="1.14000833">
        <ele>594.0</ele>
        <time>2021-07-11T08:08:25.000Z</time>
      </trkpt>
      <trkpt lat="41.36966" lon="1.140005">
        <ele>594.0</ele>
        <time>2021-07-11T08:08:26.000Z</time>
      </trkpt>
      <trkpt lat="41.36967" lon="1.140005">
        <ele>594.0</ele>
        <time>2021-07-11T08:08:27.000Z</time>
      </trkpt>
      <trkpt lat="41.36968167" lon="1.14000333">
        <ele>594.0</ele>
        <time>2021-07-11T08:08:28.000Z</time>
      </trkpt>
      <trkpt lat="41.36969167" lon="1.14">
        <ele>594.0</ele>
        <time>2021-07-11T08:08:29.000Z</time>
      </trkpt>
      <trkpt lat="41.369705" lon="1.13999833">
        <ele>594.0</ele>
        <time>2021-07-11T08:08:30.000Z</time>
      </trkpt>
      <trkpt lat="41.36971833" lon="1.13999833">
        <ele>594.0</ele>
        <time>2021-07-11T08:08:31.000Z</time>
      </trkpt>
      <trkpt lat="41.36973" lon="1.13999833">
        <ele>594.0</ele>
        <time>2021-07-11T08:08:32.000Z</time>
      </trkpt>
      <trkpt lat="41.36973833" lon="1.14">
        <ele>594.0</ele>
        <time>2021-07-11T08:08:33.000Z</time>
      </trkpt>
      <trkpt lat="41.36974667" lon="1.13999833">
        <ele>594.0</ele>
        <time>2021-07-11T08:08:34.000Z</time>
      </trkpt>
      <trkpt lat="41.36975667" lon="1.13999833">
        <ele>594.0</ele>
        <time>2021-07-11T08:08:35.000Z</time>
      </trkpt>
      <trkpt lat="41.36976833" lon="1.13999667">
        <ele>594.0</ele>
        <time>2021-07-11T08:08:36.000Z</time>
      </trkpt>
      <trkpt lat="41.36978167" lon="1.139995">
        <ele>594.0</ele>
        <time>2021-07-11T08:08:37.000Z</time>
      </trkpt>
      <trkpt lat="41.36979333" lon="1.13999667">
        <ele>595.0</ele>
        <time>2021-07-11T08:08:38.000Z</time>
      </trkpt>
      <trkpt lat="41.36980667" lon="1.139995">
        <ele>595.0</ele>
        <time>2021-07-11T08:08:39.000Z</time>
      </trkpt>
      <trkpt lat="41.36981833" lon="1.139995">
        <ele>595.0</ele>
        <time>2021-07-11T08:08:40.000Z</time>
      </trkpt>
      <trkpt lat="41.36983333" lon="1.13998833">
        <ele>595.0</ele>
        <time>2021-07-11T08:08:41.000Z</time>
      </trkpt>
      <trkpt lat="41.369845" lon="1.139985">
        <ele>595.0</ele>
        <time>2021-07-11T08:08:42.000Z</time>
      </trkpt>
      <trkpt lat="41.369855" lon="1.13998">
        <ele>595.0</ele>
        <time>2021-07-11T08:08:43.000Z</time>
      </trkpt>
      <trkpt lat="41.369865" lon="1.139975">
        <ele>595.0</ele>
        <time>2021-07-11T08:08:44.000Z</time>
      </trkpt>
      <trkpt lat="41.36987333" lon="1.13997">
        <ele>595.0</ele>
        <time>2021-07-11T08:08:45.000Z</time>
      </trkpt>
      <trkpt lat="41.36988333" lon="1.139965">
        <ele>595.0</ele>
        <time>2021-07-11T08:08:46.000Z</time>
      </trkpt>
      <trkpt lat="41.369895" lon="1.13996167">
        <ele>595.0</ele>
        <time>2021-07-11T08:08:47.000Z</time>
      </trkpt>
      <trkpt lat="41.36990833" lon="1.13995667">
        <ele>595.0</ele>
        <time>2021-07-11T08:08:48.000Z</time>
      </trkpt>
      <trkpt lat="41.36992167" lon="1.13995333">
        <ele>595.0</ele>
        <time>2021-07-11T08:08:49.000Z</time>
      </trkpt>
      <trkpt lat="41.369935" lon="1.13994667">
        <ele>595.0</ele>
        <time>2021-07-11T08:08:50.000Z</time>
      </trkpt>
      <trkpt lat="41.36995" lon="1.13994">
        <ele>595.0</ele>
        <time>2021-07-11T08:08:51.000Z</time>
      </trkpt>
      <trkpt lat="41.36996333" lon="1.139935">
        <ele>595.0</ele>
        <time>2021-07-11T08:08:52.000Z</time>
      </trkpt>
      <trkpt lat="41.369975" lon="1.13992667">
        <ele>595.0</ele>
        <time>2021-07-11T08:08:53.000Z</time>
      </trkpt>
      <trkpt lat="41.36999" lon="1.13992">
        <ele>595.0</ele>
        <time>2021-07-11T08:08:54.000Z</time>
      </trkpt>
      <trkpt lat="41.37000333" lon="1.13991333">
        <ele>595.0</ele>
        <time>2021-07-11T08:08:55.000Z</time>
      </trkpt>
      <trkpt lat="41.370015" lon="1.13990833">
        <ele>595.0</ele>
        <time>2021-07-11T08:08:56.000Z</time>
      </trkpt>
      <trkpt lat="41.37002833" lon="1.139905">
        <ele>595.0</ele>
        <time>2021-07-11T08:08:57.000Z</time>
      </trkpt>
      <trkpt lat="41.37004" lon="1.1399">
        <ele>595.0</ele>
        <time>2021-07-11T08:08:58.000Z</time>
      </trkpt>
      <trkpt lat="41.37005" lon="1.139895">
        <ele>596.0</ele>
        <time>2021-07-11T08:08:59.000Z</time>
      </trkpt>
      <trkpt lat="41.37006" lon="1.13988833">
        <ele>596.0</ele>
        <time>2021-07-11T08:09:00.000Z</time>
      </trkpt>
      <trkpt lat="41.37006833" lon="1.13988">
        <ele>596.0</ele>
        <time>2021-07-11T08:09:01.000Z</time>
      </trkpt>
      <trkpt lat="41.37007833" lon="1.13987333">
        <ele>596.0</ele>
        <time>2021-07-11T08:09:02.000Z</time>
      </trkpt>
      <trkpt lat="41.37009" lon="1.13986333">
        <ele>596.0</ele>
        <time>2021-07-11T08:09:03.000Z</time>
      </trkpt>
      <trkpt lat="41.37010167" lon="1.13985333">
        <ele>596.0</ele>
        <time>2021-07-11T08:09:04.000Z</time>
      </trkpt>
      <trkpt lat="41.37011333" lon="1.13984333">
        <ele>596.0</ele>
        <time>2021-07-11T08:09:05.000Z</time>
      </trkpt>
      <trkpt lat="41.37012667" lon="1.13983167">
        <ele>596.0</ele>
        <time>2021-07-11T08:09:06.000Z</time>
      </trkpt>
      <trkpt lat="41.37013667" lon="1.13982">
        <ele>596.0</ele>
        <time>2021-07-11T08:09:07.000Z</time>
      </trkpt>
      <trkpt lat="41.37014667" lon="1.13980833">
        <ele>596.0</ele>
        <time>2021-07-11T08:09:08.000Z</time>
      </trkpt>
      <trkpt lat="41.370155" lon="1.13979833">
        <ele>596.0</ele>
        <time>2021-07-11T08:09:09.000Z</time>
      </trkpt>
      <trkpt lat="41.37016333" lon="1.13978833">
        <ele>596.0</ele>
        <time>2021-07-11T08:09:10.000Z</time>
      </trkpt>
      <trkpt lat="41.37017" lon="1.13977667">
        <ele>596.0</ele>
        <time>2021-07-11T08:09:11.000Z</time>
      </trkpt>
      <trkpt lat="41.37017833" lon="1.13976667">
        <ele>596.0</ele>
        <time>2021-07-11T08:09:12.000Z</time>
      </trkpt>
      <trkpt lat="41.37018833" lon="1.139755">
        <ele>596.0</ele>
        <time>2021-07-11T08:09:13.000Z</time>
      </trkpt>
      <trkpt lat="41.37019833" lon="1.13974833">
        <ele>596.0</ele>
        <time>2021-07-11T08:09:14.000Z</time>
      </trkpt>
      <trkpt lat="41.37020833" lon="1.13974167">
        <ele>596.0</ele>
        <time>2021-07-11T08:09:15.000Z</time>
      </trkpt>
      <trkpt lat="41.37021667" lon="1.13973167">
        <ele>596.0</ele>
        <time>2021-07-11T08:09:16.000Z</time>
      </trkpt>
      <trkpt lat="41.370225" lon="1.13972167">
        <ele>596.0</ele>
        <time>2021-07-11T08:09:17.000Z</time>
      </trkpt>
      <trkpt lat="41.37023167" lon="1.139715">
        <ele>596.0</ele>
        <time>2021-07-11T08:09:18.000Z</time>
      </trkpt>
      <trkpt lat="41.37024" lon="1.13970667">
        <ele>596.0</ele>
        <time>2021-07-11T08:09:19.000Z</time>
      </trkpt>
      <trkpt lat="41.37024833" lon="1.1397">
        <ele>597.0</ele>
        <time>2021-07-11T08:09:20.000Z</time>
      </trkpt>
      <trkpt lat="41.37025667" lon="1.13969333">
        <ele>597.0</ele>
        <time>2021-07-11T08:09:21.000Z</time>
      </trkpt>
      <trkpt lat="41.37026833" lon="1.139685">
        <ele>597.0</ele>
        <time>2021-07-11T08:09:22.000Z</time>
      </trkpt>
      <trkpt lat="41.37027833" lon="1.13967833">
        <ele>597.0</ele>
        <time>2021-07-11T08:09:23.000Z</time>
      </trkpt>
      <trkpt lat="41.37029" lon="1.13967">
        <ele>597.0</ele>
        <time>2021-07-11T08:09:24.000Z</time>
      </trkpt>
      <trkpt lat="41.37030167" lon="1.139665">
        <ele>597.0</ele>
        <time>2021-07-11T08:09:25.000Z</time>
      </trkpt>
      <trkpt lat="41.37031333" lon="1.13965833">
        <ele>597.0</ele>
        <time>2021-07-11T08:09:26.000Z</time>
      </trkpt>
      <trkpt lat="41.37032167" lon="1.13965333">
        <ele>597.0</ele>
        <time>2021-07-11T08:09:27.000Z</time>
      </trkpt>
      <trkpt lat="41.37033167" lon="1.13964833">
        <ele>597.0</ele>
        <time>2021-07-11T08:09:28.000Z</time>
      </trkpt>
      <trkpt lat="41.37034167" lon="1.13964167">
        <ele>598.0</ele>
        <time>2021-07-11T08:09:29.000Z</time>
      </trkpt>
      <trkpt lat="41.37034833" lon="1.13963333">
        <ele>598.0</ele>
        <time>2021-07-11T08:09:30.000Z</time>
      </trkpt>
      <trkpt lat="41.37035833" lon="1.139625">
        <ele>598.0</ele>
        <time>2021-07-11T08:09:31.000Z</time>
      </trkpt>
      <trkpt lat="41.37036833" lon="1.13961667">
        <ele>598.0</ele>
        <time>2021-07-11T08:09:32.000Z</time>
      </trkpt>
      <trkpt lat="41.37038" lon="1.13961">
        <ele>598.0</ele>
        <time>2021-07-11T08:09:33.000Z</time>
      </trkpt>
      <trkpt lat="41.37039" lon="1.139605">
        <ele>598.0</ele>
        <time>2021-07-11T08:09:34.000Z</time>
      </trkpt>
      <trkpt lat="41.37040167" lon="1.13960167">
        <ele>598.0</ele>
        <time>2021-07-11T08:09:35.000Z</time>
      </trkpt>
      <trkpt lat="41.37040833" lon="1.1396">
        <ele>598.0</ele>
        <time>2021-07-11T08:09:36.000Z</time>
      </trkpt>
      <trkpt lat="41.37041333" lon="1.13959833">
        <ele>598.0</ele>
        <time>2021-07-11T08:09:37.000Z</time>
      </trkpt>
      <trkpt lat="41.37041667" lon="1.1396">
        <ele>598.0</ele>
        <time>2021-07-11T08:09:38.000Z</time>
      </trkpt>
      <trkpt lat="41.37042" lon="1.13959833">
        <ele>598.0</ele>
        <time>2021-07-11T08:09:39.000Z</time>
      </trkpt>
      <trkpt lat="41.370425" lon="1.13959667">
        <ele>598.0</ele>
        <time>2021-07-11T08:09:40.000Z</time>
      </trkpt>
      <trkpt lat="41.37043" lon="1.13959333">
        <ele>598.0</ele>
        <time>2021-07-11T08:09:41.000Z</time>
      </trkpt>
      <trkpt lat="41.37044" lon="1.13959">
        <ele>598.0</ele>
        <time>2021-07-11T08:09:42.000Z</time>
      </trkpt>
      <trkpt lat="41.37045167" lon="1.13958833">
        <ele>598.0</ele>
        <time>2021-07-11T08:09:43.000Z</time>
      </trkpt>
      <trkpt lat="41.37046333" lon="1.13958833">
        <ele>598.0</ele>
        <time>2021-07-11T08:09:44.000Z</time>
      </trkpt>
      <trkpt lat="41.370475" lon="1.13958667">
        <ele>598.0</ele>
        <time>2021-07-11T08:09:45.000Z</time>
      </trkpt>
      <trkpt lat="41.37048667" lon="1.13958167">
        <ele>598.0</ele>
        <time>2021-07-11T08:09:46.000Z</time>
      </trkpt>
      <trkpt lat="41.37049833" lon="1.139575">
        <ele>598.0</ele>
        <time>2021-07-11T08:09:47.000Z</time>
      </trkpt>
      <trkpt lat="41.37051" lon="1.13957">
        <ele>598.0</ele>
        <time>2021-07-11T08:09:48.000Z</time>
      </trkpt>
      <trkpt lat="41.37051833" lon="1.13956167">
        <ele>598.0</ele>
        <time>2021-07-11T08:09:49.000Z</time>
      </trkpt>
      <trkpt lat="41.37053" lon="1.13955333">
        <ele>598.0</ele>
        <time>2021-07-11T08:09:50.000Z</time>
      </trkpt>
      <trkpt lat="41.37054" lon="1.13954833">
        <ele>598.0</ele>
        <time>2021-07-11T08:09:51.000Z</time>
      </trkpt>
      <trkpt lat="41.37054833" lon="1.13954667">
        <ele>599.0</ele>
        <time>2021-07-11T08:09:52.000Z</time>
      </trkpt>
      <trkpt lat="41.370555" lon="1.13954833">
        <ele>599.0</ele>
        <time>2021-07-11T08:09:53.000Z</time>
      </trkpt>
      <trkpt lat="41.37056" lon="1.13954833">
        <ele>599.0</ele>
        <time>2021-07-11T08:09:54.000Z</time>
      </trkpt>
      <trkpt lat="41.37056333" lon="1.13954667">
        <ele>600.0</ele>
        <time>2021-07-11T08:09:55.000Z</time>
      </trkpt>
      <trkpt lat="41.370565" lon="1.13954333">
        <ele>600.0</ele>
        <time>2021-07-11T08:09:56.000Z</time>
      </trkpt>
      <trkpt lat="41.370565" lon="1.139545">
        <ele>600.0</ele>
        <time>2021-07-11T08:09:57.000Z</time>
      </trkpt>
      <trkpt lat="41.370565" lon="1.13954667">
        <ele>600.0</ele>
        <time>2021-07-11T08:09:58.000Z</time>
      </trkpt>
      <trkpt lat="41.37056667" lon="1.13955">
        <ele>600.0</ele>
        <time>2021-07-11T08:09:59.000Z</time>
      </trkpt>
      <trkpt lat="41.37057" lon="1.13955333">
        <ele>600.0</ele>
        <time>2021-07-11T08:10:00.000Z</time>
      </trkpt>
      <trkpt lat="41.37057833" lon="1.13955333">
        <ele>600.0</ele>
        <time>2021-07-11T08:10:01.000Z</time>
      </trkpt>
      <trkpt lat="41.37058667" lon="1.13955167">
        <ele>600.0</ele>
        <time>2021-07-11T08:10:02.000Z</time>
      </trkpt>
      <trkpt lat="41.37059333" lon="1.13954833">
        <ele>600.0</ele>
        <time>2021-07-11T08:10:03.000Z</time>
      </trkpt>
      <trkpt lat="41.37060333" lon="1.13954333">
        <ele>600.0</ele>
        <time>2021-07-11T08:10:04.000Z</time>
      </trkpt>
      <trkpt lat="41.37061167" lon="1.13953833">
        <ele>600.0</ele>
        <time>2021-07-11T08:10:05.000Z</time>
      </trkpt>
      <trkpt lat="41.37062167" lon="1.13953">
        <ele>600.0</ele>
        <time>2021-07-11T08:10:06.000Z</time>
      </trkpt>
      <trkpt lat="41.37063167" lon="1.13952333">
        <ele>600.0</ele>
        <time>2021-07-11T08:10:07.000Z</time>
      </trkpt>
      <trkpt lat="41.37064333" lon="1.13951833">
        <ele>600.0</ele>
        <time>2021-07-11T08:10:08.000Z</time>
      </trkpt>
      <trkpt lat="41.37065333" lon="1.13951167">
        <ele>600.0</ele>
        <time>2021-07-11T08:10:09.000Z</time>
      </trkpt>
      <trkpt lat="41.37066333" lon="1.139505">
        <ele>601.0</ele>
        <time>2021-07-11T08:10:10.000Z</time>
      </trkpt>
      <trkpt lat="41.37067167" lon="1.139495">
        <ele>601.0</ele>
        <time>2021-07-11T08:10:11.000Z</time>
      </trkpt>
      <trkpt lat="41.37068" lon="1.13948833">
        <ele>601.0</ele>
        <time>2021-07-11T08:10:12.000Z</time>
      </trkpt>
      <trkpt lat="41.37068833" lon="1.13947833">
        <ele>601.0</ele>
        <time>2021-07-11T08:10:13.000Z</time>
      </trkpt>
      <trkpt lat="41.37069833" lon="1.13947">
        <ele>601.0</ele>
        <time>2021-07-11T08:10:14.000Z</time>
      </trkpt>
      <trkpt lat="41.37071" lon="1.13946">
        <ele>601.0</ele>
        <time>2021-07-11T08:10:15.000Z</time>
      </trkpt>
      <trkpt lat="41.37072" lon="1.13945">
        <ele>601.0</ele>
        <time>2021-07-11T08:10:16.000Z</time>
      </trkpt>
      <trkpt lat="41.37073333" lon="1.13944167">
        <ele>601.0</ele>
        <time>2021-07-11T08:10:17.000Z</time>
      </trkpt>
      <trkpt lat="41.370745" lon="1.13943333">
        <ele>601.0</ele>
        <time>2021-07-11T08:10:18.000Z</time>
      </trkpt>
      <trkpt lat="41.37075833" lon="1.139425">
        <ele>601.0</ele>
        <time>2021-07-11T08:10:19.000Z</time>
      </trkpt>
      <trkpt lat="41.37077" lon="1.13941667">
        <ele>601.0</ele>
        <time>2021-07-11T08:10:20.000Z</time>
      </trkpt>
      <trkpt lat="41.37078167" lon="1.13941">
        <ele>601.0</ele>
        <time>2021-07-11T08:10:21.000Z</time>
      </trkpt>
      <trkpt lat="41.370795" lon="1.13940167">
        <ele>601.0</ele>
        <time>2021-07-11T08:10:22.000Z</time>
      </trkpt>
      <trkpt lat="41.37080667" lon="1.139395">
        <ele>601.0</ele>
        <time>2021-07-11T08:10:23.000Z</time>
      </trkpt>
      <trkpt lat="41.37081833" lon="1.13938833">
        <ele>601.0</ele>
        <time>2021-07-11T08:10:24.000Z</time>
      </trkpt>
      <trkpt lat="41.37082667" lon="1.13937667">
        <ele>601.0</ele>
        <time>2021-07-11T08:10:25.000Z</time>
      </trkpt>
      <trkpt lat="41.37083667" lon="1.13936667">
        <ele>601.0</ele>
        <time>2021-07-11T08:10:26.000Z</time>
      </trkpt>
      <trkpt lat="41.37084333" lon="1.13935667">
        <ele>601.0</ele>
        <time>2021-07-11T08:10:27.000Z</time>
      </trkpt>
      <trkpt lat="41.37085167" lon="1.139345">
        <ele>601.0</ele>
        <time>2021-07-11T08:10:28.000Z</time>
      </trkpt>
      <trkpt lat="41.37086" lon="1.139335">
        <ele>601.0</ele>
        <time>2021-07-11T08:10:29.000Z</time>
      </trkpt>
      <trkpt lat="41.37086667" lon="1.139325">
        <ele>601.0</ele>
        <time>2021-07-11T08:10:30.000Z</time>
      </trkpt>
      <trkpt lat="41.370875" lon="1.139315">
        <ele>601.0</ele>
        <time>2021-07-11T08:10:31.000Z</time>
      </trkpt>
      <trkpt lat="41.37088167" lon="1.13930667">
        <ele>601.0</ele>
        <time>2021-07-11T08:10:32.000Z</time>
      </trkpt>
      <trkpt lat="41.37089" lon="1.13929833">
        <ele>602.0</ele>
        <time>2021-07-11T08:10:33.000Z</time>
      </trkpt>
      <trkpt lat="41.37089667" lon="1.13928833">
        <ele>602.0</ele>
        <time>2021-07-11T08:10:34.000Z</time>
      </trkpt>
      <trkpt lat="41.370905" lon="1.13928">
        <ele>602.0</ele>
        <time>2021-07-11T08:10:35.000Z</time>
      </trkpt>
      <trkpt lat="41.37091333" lon="1.13927167">
        <ele>602.0</ele>
        <time>2021-07-11T08:10:36.000Z</time>
      </trkpt>
      <trkpt lat="41.37092167" lon="1.139265">
        <ele>602.0</ele>
        <time>2021-07-11T08:10:37.000Z</time>
      </trkpt>
      <trkpt lat="41.37092833" lon="1.13926">
        <ele>602.0</ele>
        <time>2021-07-11T08:10:38.000Z</time>
      </trkpt>
      <trkpt lat="41.370935" lon="1.13925167">
        <ele>602.0</ele>
        <time>2021-07-11T08:10:39.000Z</time>
      </trkpt>
      <trkpt lat="41.37094333" lon="1.139245">
        <ele>602.0</ele>
        <time>2021-07-11T08:10:40.000Z</time>
      </trkpt>
      <trkpt lat="41.37095167" lon="1.139235">
        <ele>602.0</ele>
        <time>2021-07-11T08:10:41.000Z</time>
      </trkpt>
      <trkpt lat="41.37096167" lon="1.13922667">
        <ele>602.0</ele>
        <time>2021-07-11T08:10:42.000Z</time>
      </trkpt>
      <trkpt lat="41.37097" lon="1.13921833">
        <ele>602.0</ele>
        <time>2021-07-11T08:10:43.000Z</time>
      </trkpt>
      <trkpt lat="41.37097833" lon="1.13921">
        <ele>602.0</ele>
        <time>2021-07-11T08:10:44.000Z</time>
      </trkpt>
      <trkpt lat="41.37098833" lon="1.13920333">
        <ele>602.0</ele>
        <time>2021-07-11T08:10:45.000Z</time>
      </trkpt>
      <trkpt lat="41.371" lon="1.13919667">
        <ele>603.0</ele>
        <time>2021-07-11T08:10:46.000Z</time>
      </trkpt>
      <trkpt lat="41.37101" lon="1.13918833">
        <ele>603.0</ele>
        <time>2021-07-11T08:10:47.000Z</time>
      </trkpt>
      <trkpt lat="41.37101833" lon="1.13918167">
        <ele>603.0</ele>
        <time>2021-07-11T08:10:48.000Z</time>
      </trkpt>
      <trkpt lat="41.37102667" lon="1.13917333">
        <ele>603.0</ele>
        <time>2021-07-11T08:10:49.000Z</time>
      </trkpt>
      <trkpt lat="41.37103333" lon="1.13916333">
        <ele>603.0</ele>
        <time>2021-07-11T08:10:50.000Z</time>
      </trkpt>
      <trkpt lat="41.37104" lon="1.139155">
        <ele>603.0</ele>
        <time>2021-07-11T08:10:51.000Z</time>
      </trkpt>
      <trkpt lat="41.37104833" lon="1.13914333">
        <ele>603.0</ele>
        <time>2021-07-11T08:10:52.000Z</time>
      </trkpt>
      <trkpt lat="41.371055" lon="1.13913167">
        <ele>603.0</ele>
        <time>2021-07-11T08:10:53.000Z</time>
      </trkpt>
      <trkpt lat="41.37105833" lon="1.13912333">
        <ele>603.0</ele>
        <time>2021-07-11T08:10:54.000Z</time>
      </trkpt>
      <trkpt lat="41.37106333" lon="1.139115">
        <ele>603.0</ele>
        <time>2021-07-11T08:10:55.000Z</time>
      </trkpt>
      <trkpt lat="41.37106833" lon="1.13910167">
        <ele>603.0</ele>
        <time>2021-07-11T08:10:56.000Z</time>
      </trkpt>
      <trkpt lat="41.37107167" lon="1.13909">
        <ele>603.0</ele>
        <time>2021-07-11T08:10:57.000Z</time>
      </trkpt>
      <trkpt lat="41.37107167" lon="1.13908">
        <ele>604.0</ele>
        <time>2021-07-11T08:10:58.000Z</time>
      </trkpt>
      <trkpt lat="41.37107167" lon="1.13906667">
        <ele>604.0</ele>
        <time>2021-07-11T08:10:59.000Z</time>
      </trkpt>
      <trkpt lat="41.37107" lon="1.139055">
        <ele>604.0</ele>
        <time>2021-07-11T08:11:00.000Z</time>
      </trkpt>
      <trkpt lat="41.37106833" lon="1.13904667">
        <ele>604.0</ele>
        <time>2021-07-11T08:11:01.000Z</time>
      </trkpt>
      <trkpt lat="41.371065" lon="1.13904">
        <ele>604.0</ele>
        <time>2021-07-11T08:11:02.000Z</time>
      </trkpt>
      <trkpt lat="41.37105833" lon="1.13903167">
        <ele>604.0</ele>
        <time>2021-07-11T08:11:03.000Z</time>
      </trkpt>
      <trkpt lat="41.37104833" lon="1.13902167">
        <ele>604.0</ele>
        <time>2021-07-11T08:11:04.000Z</time>
      </trkpt>
      <trkpt lat="41.37104" lon="1.13901833">
        <ele>604.0</ele>
        <time>2021-07-11T08:11:05.000Z</time>
      </trkpt>
      <trkpt lat="41.37103" lon="1.13901667">
        <ele>605.0</ele>
        <time>2021-07-11T08:11:06.000Z</time>
      </trkpt>
      <trkpt lat="41.37101833" lon="1.13902">
        <ele>605.0</ele>
        <time>2021-07-11T08:11:07.000Z</time>
      </trkpt>
      <trkpt lat="41.37100667" lon="1.139025">
        <ele>605.0</ele>
        <time>2021-07-11T08:11:08.000Z</time>
      </trkpt>
      <trkpt lat="41.370995" lon="1.13903">
        <ele>605.0</ele>
        <time>2021-07-11T08:11:09.000Z</time>
      </trkpt>
      <trkpt lat="41.370985" lon="1.13903833">
        <ele>605.0</ele>
        <time>2021-07-11T08:11:10.000Z</time>
      </trkpt>
      <trkpt lat="41.37097833" lon="1.13904167">
        <ele>605.0</ele>
        <time>2021-07-11T08:11:11.000Z</time>
      </trkpt>
      <trkpt lat="41.37097" lon="1.13904167">
        <ele>605.0</ele>
        <time>2021-07-11T08:11:12.000Z</time>
      </trkpt>
      <trkpt lat="41.37096167" lon="1.139045">
        <ele>605.0</ele>
        <time>2021-07-11T08:11:13.000Z</time>
      </trkpt>
      <trkpt lat="41.370955" lon="1.13904833">
        <ele>605.0</ele>
        <time>2021-07-11T08:11:14.000Z</time>
      </trkpt>
      <trkpt lat="41.37095" lon="1.13905333">
        <ele>606.0</ele>
        <time>2021-07-11T08:11:15.000Z</time>
      </trkpt>
      <trkpt lat="41.370945" lon="1.13905833">
        <ele>606.0</ele>
        <time>2021-07-11T08:11:16.000Z</time>
      </trkpt>
      <trkpt lat="41.37094" lon="1.139065">
        <ele>606.0</ele>
        <time>2021-07-11T08:11:17.000Z</time>
      </trkpt>
      <trkpt lat="41.37093333" lon="1.13907167">
        <ele>606.0</ele>
        <time>2021-07-11T08:11:18.000Z</time>
      </trkpt>
      <trkpt lat="41.37092667" lon="1.13907833">
        <ele>606.0</ele>
        <time>2021-07-11T08:11:19.000Z</time>
      </trkpt>
      <trkpt lat="41.37092" lon="1.13908667">
        <ele>606.0</ele>
        <time>2021-07-11T08:11:20.000Z</time>
      </trkpt>
      <trkpt lat="41.37091333" lon="1.139095">
        <ele>606.0</ele>
        <time>2021-07-11T08:11:21.000Z</time>
      </trkpt>
      <trkpt lat="41.370905" lon="1.13910333">
        <ele>606.0</ele>
        <time>2021-07-11T08:11:22.000Z</time>
      </trkpt>
      <trkpt lat="41.37089667" lon="1.13911167">
        <ele>606.0</ele>
        <time>2021-07-11T08:11:23.000Z</time>
      </trkpt>
      <trkpt lat="41.37088833" lon="1.13912">
        <ele>606.0</ele>
        <time>2021-07-11T08:11:24.000Z</time>
      </trkpt>
      <trkpt lat="41.37087833" lon="1.13912667">
        <ele>606.0</ele>
        <time>2021-07-11T08:11:25.000Z</time>
      </trkpt>
      <trkpt lat="41.37086833" lon="1.13913667">
        <ele>606.0</ele>
        <time>2021-07-11T08:11:26.000Z</time>
      </trkpt>
      <trkpt lat="41.370855" lon="1.13914667">
        <ele>606.0</ele>
        <time>2021-07-11T08:11:27.000Z</time>
      </trkpt>
      <trkpt lat="41.37084333" lon="1.139155">
        <ele>606.0</ele>
        <time>2021-07-11T08:11:28.000Z</time>
      </trkpt>
      <trkpt lat="41.37083167" lon="1.13916167">
        <ele>606.0</ele>
        <time>2021-07-11T08:11:29.000Z</time>
      </trkpt>
      <trkpt lat="41.37082167" lon="1.13916667">
        <ele>606.0</ele>
        <time>2021-07-11T08:11:30.000Z</time>
      </trkpt>
      <trkpt lat="41.37081333" lon="1.13917">
        <ele>606.0</ele>
        <time>2021-07-11T08:11:31.000Z</time>
      </trkpt>
      <trkpt lat="41.37080167" lon="1.13917167">
        <ele>606.0</ele>
        <time>2021-07-11T08:11:32.000Z</time>
      </trkpt>
      <trkpt lat="41.37079" lon="1.13917333">
        <ele>606.0</ele>
        <time>2021-07-11T08:11:33.000Z</time>
      </trkpt>
      <trkpt lat="41.37077833" lon="1.13917333">
        <ele>606.0</ele>
        <time>2021-07-11T08:11:34.000Z</time>
      </trkpt>
      <trkpt lat="41.370765" lon="1.13917167">
        <ele>607.0</ele>
        <time>2021-07-11T08:11:35.000Z</time>
      </trkpt>
      <trkpt lat="41.37075333" lon="1.13917167">
        <ele>607.0</ele>
        <time>2021-07-11T08:11:36.000Z</time>
      </trkpt>
      <trkpt lat="41.37074167" lon="1.13917">
        <ele>607.0</ele>
        <time>2021-07-11T08:11:37.000Z</time>
      </trkpt>
      <trkpt lat="41.37073167" lon="1.13916667">
        <ele>607.0</ele>
        <time>2021-07-11T08:11:38.000Z</time>
      </trkpt>
      <trkpt lat="41.37072" lon="1.139165">
        <ele>607.0</ele>
        <time>2021-07-11T08:11:39.000Z</time>
      </trkpt>
      <trkpt lat="41.37070833" lon="1.13916167">
        <ele>607.0</ele>
        <time>2021-07-11T08:11:40.000Z</time>
      </trkpt>
      <trkpt lat="41.3707" lon="1.13915833">
        <ele>607.0</ele>
        <time>2021-07-11T08:11:41.000Z</time>
      </trkpt>
      <trkpt lat="41.37069" lon="1.13915167">
        <ele>607.0</ele>
        <time>2021-07-11T08:11:42.000Z</time>
      </trkpt>
      <trkpt lat="41.37068167" lon="1.139145">
        <ele>607.0</ele>
        <time>2021-07-11T08:11:43.000Z</time>
      </trkpt>
      <trkpt lat="41.370675" lon="1.13913833">
        <ele>607.0</ele>
        <time>2021-07-11T08:11:44.000Z</time>
      </trkpt>
      <trkpt lat="41.37066833" lon="1.13913">
        <ele>608.0</ele>
        <time>2021-07-11T08:11:45.000Z</time>
      </trkpt>
      <trkpt lat="41.37066333" lon="1.13912167">
        <ele>608.0</ele>
        <time>2021-07-11T08:11:46.000Z</time>
      </trkpt>
      <trkpt lat="41.37066" lon="1.13911167">
        <ele>608.0</ele>
        <time>2021-07-11T08:11:47.000Z</time>
      </trkpt>
      <trkpt lat="41.37065833" lon="1.1391">
        <ele>608.0</ele>
        <time>2021-07-11T08:11:48.000Z</time>
      </trkpt>
      <trkpt lat="41.37065667" lon="1.13909167">
        <ele>608.0</ele>
        <time>2021-07-11T08:11:49.000Z</time>
      </trkpt>
      <trkpt lat="41.37066" lon="1.13908167">
        <ele>608.0</ele>
        <time>2021-07-11T08:11:50.000Z</time>
      </trkpt>
      <trkpt lat="41.37066" lon="1.13907333">
        <ele>608.0</ele>
        <time>2021-07-11T08:11:51.000Z</time>
      </trkpt>
      <trkpt lat="41.37066167" lon="1.139065">
        <ele>609.0</ele>
        <time>2021-07-11T08:11:52.000Z</time>
      </trkpt>
      <trkpt lat="41.370665" lon="1.13905333">
        <ele>609.0</ele>
        <time>2021-07-11T08:11:53.000Z</time>
      </trkpt>
      <trkpt lat="41.37067" lon="1.13904333">
        <ele>609.0</ele>
        <time>2021-07-11T08:11:54.000Z</time>
      </trkpt>
      <trkpt lat="41.370675" lon="1.13903333">
        <ele>609.0</ele>
        <time>2021-07-11T08:11:55.000Z</time>
      </trkpt>
      <trkpt lat="41.37068167" lon="1.13902">
        <ele>609.0</ele>
        <time>2021-07-11T08:11:56.000Z</time>
      </trkpt>
      <trkpt lat="41.37068667" lon="1.13900833">
        <ele>609.0</ele>
        <time>2021-07-11T08:11:57.000Z</time>
      </trkpt>
      <trkpt lat="41.37069333" lon="1.13899667">
        <ele>609.0</ele>
        <time>2021-07-11T08:11:58.000Z</time>
      </trkpt>
      <trkpt lat="41.3707" lon="1.138985">
        <ele>609.0</ele>
        <time>2021-07-11T08:11:59.000Z</time>
      </trkpt>
      <trkpt lat="41.370705" lon="1.13897167">
        <ele>609.0</ele>
        <time>2021-07-11T08:12:00.000Z</time>
      </trkpt>
      <trkpt lat="41.37070833" lon="1.13896">
        <ele>610.0</ele>
        <time>2021-07-11T08:12:01.000Z</time>
      </trkpt>
      <trkpt lat="41.37071333" lon="1.13894833">
        <ele>610.0</ele>
        <time>2021-07-11T08:12:02.000Z</time>
      </trkpt>
      <trkpt lat="41.37072" lon="1.13893833">
        <ele>610.0</ele>
        <time>2021-07-11T08:12:03.000Z</time>
      </trkpt>
      <trkpt lat="41.37072667" lon="1.13892833">
        <ele>610.0</ele>
        <time>2021-07-11T08:12:04.000Z</time>
      </trkpt>
      <trkpt lat="41.37073333" lon="1.13891667">
        <ele>610.0</ele>
        <time>2021-07-11T08:12:05.000Z</time>
      </trkpt>
      <trkpt lat="41.37073833" lon="1.13890833">
        <ele>610.0</ele>
        <time>2021-07-11T08:12:06.000Z</time>
      </trkpt>
      <trkpt lat="41.37074667" lon="1.13889667">
        <ele>610.0</ele>
        <time>2021-07-11T08:12:07.000Z</time>
      </trkpt>
      <trkpt lat="41.370755" lon="1.13888833">
        <ele>610.0</ele>
        <time>2021-07-11T08:12:08.000Z</time>
      </trkpt>
      <trkpt lat="41.37076333" lon="1.13887833">
        <ele>610.0</ele>
        <time>2021-07-11T08:12:09.000Z</time>
      </trkpt>
      <trkpt lat="41.37077333" lon="1.13887167">
        <ele>610.0</ele>
        <time>2021-07-11T08:12:10.000Z</time>
      </trkpt>
      <trkpt lat="41.37078333" lon="1.13886333">
        <ele>610.0</ele>
        <time>2021-07-11T08:12:11.000Z</time>
      </trkpt>
      <trkpt lat="41.370795" lon="1.13885667">
        <ele>610.0</ele>
        <time>2021-07-11T08:12:12.000Z</time>
      </trkpt>
      <trkpt lat="41.37080167" lon="1.13885">
        <ele>610.0</ele>
        <time>2021-07-11T08:12:13.000Z</time>
      </trkpt>
      <trkpt lat="41.37081" lon="1.13884333">
        <ele>611.0</ele>
        <time>2021-07-11T08:12:14.000Z</time>
      </trkpt>
      <trkpt lat="41.37081833" lon="1.138835">
        <ele>611.0</ele>
        <time>2021-07-11T08:12:15.000Z</time>
      </trkpt>
      <trkpt lat="41.370825" lon="1.13882833">
        <ele>611.0</ele>
        <time>2021-07-11T08:12:16.000Z</time>
      </trkpt>
      <trkpt lat="41.37083333" lon="1.13882167">
        <ele>611.0</ele>
        <time>2021-07-11T08:12:17.000Z</time>
      </trkpt>
      <trkpt lat="41.37084167" lon="1.13881333">
        <ele>611.0</ele>
        <time>2021-07-11T08:12:18.000Z</time>
      </trkpt>
      <trkpt lat="41.37085" lon="1.138805">
        <ele>611.0</ele>
        <time>2021-07-11T08:12:19.000Z</time>
      </trkpt>
      <trkpt lat="41.37086167" lon="1.13879833">
        <ele>611.0</ele>
        <time>2021-07-11T08:12:20.000Z</time>
      </trkpt>
      <trkpt lat="41.37087167" lon="1.13879167">
        <ele>611.0</ele>
        <time>2021-07-11T08:12:21.000Z</time>
      </trkpt>
      <trkpt lat="41.37088167" lon="1.13878333">
        <ele>611.0</ele>
        <time>2021-07-11T08:12:22.000Z</time>
      </trkpt>
      <trkpt lat="41.37089" lon="1.13877667">
        <ele>612.0</ele>
        <time>2021-07-11T08:12:23.000Z</time>
      </trkpt>
      <trkpt lat="41.37089667" lon="1.13877">
        <ele>612.0</ele>
        <time>2021-07-11T08:12:24.000Z</time>
      </trkpt>
      <trkpt lat="41.370905" lon="1.13876333">
        <ele>612.0</ele>
        <time>2021-07-11T08:12:25.000Z</time>
      </trkpt>
      <trkpt lat="41.37091167" lon="1.138755">
        <ele>612.0</ele>
        <time>2021-07-11T08:12:26.000Z</time>
      </trkpt>
      <trkpt lat="41.37092" lon="1.13874667">
        <ele>612.0</ele>
        <time>2021-07-11T08:12:27.000Z</time>
      </trkpt>
      <trkpt lat="41.37093" lon="1.13873833">
        <ele>612.0</ele>
        <time>2021-07-11T08:12:28.000Z</time>
      </trkpt>
      <trkpt lat="41.37094" lon="1.13873167">
        <ele>612.0</ele>
        <time>2021-07-11T08:12:29.000Z</time>
      </trkpt>
      <trkpt lat="41.37095" lon="1.138725">
        <ele>612.0</ele>
        <time>2021-07-11T08:12:30.000Z</time>
      </trkpt>
      <trkpt lat="41.37095833" lon="1.13871667">
        <ele>612.0</ele>
        <time>2021-07-11T08:12:31.000Z</time>
      </trkpt>
      <trkpt lat="41.37096667" lon="1.13870667">
        <ele>613.0</ele>
        <time>2021-07-11T08:12:32.000Z</time>
      </trkpt>
      <trkpt lat="41.37097667" lon="1.1387">
        <ele>613.0</ele>
        <time>2021-07-11T08:12:33.000Z</time>
      </trkpt>
      <trkpt lat="41.370985" lon="1.13869167">
        <ele>613.0</ele>
        <time>2021-07-11T08:12:34.000Z</time>
      </trkpt>
      <trkpt lat="41.37099333" lon="1.13868167">
        <ele>613.0</ele>
        <time>2021-07-11T08:12:35.000Z</time>
      </trkpt>
      <trkpt lat="41.37100333" lon="1.13867167">
        <ele>613.0</ele>
        <time>2021-07-11T08:12:36.000Z</time>
      </trkpt>
      <trkpt lat="41.37101167" lon="1.13866167">
        <ele>613.0</ele>
        <time>2021-07-11T08:12:37.000Z</time>
      </trkpt>
      <trkpt lat="41.37102167" lon="1.13865333">
        <ele>613.0</ele>
        <time>2021-07-11T08:12:38.000Z</time>
      </trkpt>
      <trkpt lat="41.37103167" lon="1.13864667">
        <ele>613.0</ele>
        <time>2021-07-11T08:12:39.000Z</time>
      </trkpt>
      <trkpt lat="41.37104167" lon="1.13864">
        <ele>613.0</ele>
        <time>2021-07-11T08:12:40.000Z</time>
      </trkpt>
      <trkpt lat="41.371055" lon="1.13863167">
        <ele>613.0</ele>
        <time>2021-07-11T08:12:41.000Z</time>
      </trkpt>
      <trkpt lat="41.37106667" lon="1.138625">
        <ele>613.0</ele>
        <time>2021-07-11T08:12:42.000Z</time>
      </trkpt>
      <trkpt lat="41.37107833" lon="1.13862">
        <ele>613.0</ele>
        <time>2021-07-11T08:12:43.000Z</time>
      </trkpt>
      <trkpt lat="41.37109" lon="1.13861167">
        <ele>613.0</ele>
        <time>2021-07-11T08:12:44.000Z</time>
      </trkpt>
      <trkpt lat="41.3711" lon="1.13860333">
        <ele>613.0</ele>
        <time>2021-07-11T08:12:45.000Z</time>
      </trkpt>
      <trkpt lat="41.37110833" lon="1.138595">
        <ele>613.0</ele>
        <time>2021-07-11T08:12:46.000Z</time>
      </trkpt>
      <trkpt lat="41.37111667" lon="1.13858667">
        <ele>613.0</ele>
        <time>2021-07-11T08:12:47.000Z</time>
      </trkpt>
      <trkpt lat="41.37112667" lon="1.13857667">
        <ele>614.0</ele>
        <time>2021-07-11T08:12:48.000Z</time>
      </trkpt>
      <trkpt lat="41.371135" lon="1.138565">
        <ele>614.0</ele>
        <time>2021-07-11T08:12:49.000Z</time>
      </trkpt>
      <trkpt lat="41.371145" lon="1.13855333">
        <ele>614.0</ele>
        <time>2021-07-11T08:12:50.000Z</time>
      </trkpt>
      <trkpt lat="41.37115167" lon="1.13854167">
        <ele>614.0</ele>
        <time>2021-07-11T08:12:51.000Z</time>
      </trkpt>
      <trkpt lat="41.37115833" lon="1.13853167">
        <ele>614.0</ele>
        <time>2021-07-11T08:12:52.000Z</time>
      </trkpt>
      <trkpt lat="41.371165" lon="1.13851833">
        <ele>614.0</ele>
        <time>2021-07-11T08:12:53.000Z</time>
      </trkpt>
      <trkpt lat="41.37117333" lon="1.138505">
        <ele>614.0</ele>
        <time>2021-07-11T08:12:54.000Z</time>
      </trkpt>
      <trkpt lat="41.37118167" lon="1.13849167">
        <ele>614.0</ele>
        <time>2021-07-11T08:12:55.000Z</time>
      </trkpt>
      <trkpt lat="41.37118833" lon="1.13847833">
        <ele>614.0</ele>
        <time>2021-07-11T08:12:56.000Z</time>
      </trkpt>
      <trkpt lat="41.37119667" lon="1.138465">
        <ele>614.0</ele>
        <time>2021-07-11T08:12:57.000Z</time>
      </trkpt>
      <trkpt lat="41.37120667" lon="1.13845167">
        <ele>614.0</ele>
        <time>2021-07-11T08:12:58.000Z</time>
      </trkpt>
      <trkpt lat="41.371215" lon="1.13843833">
        <ele>614.0</ele>
        <time>2021-07-11T08:12:59.000Z</time>
      </trkpt>
      <trkpt lat="41.37122167" lon="1.13842333">
        <ele>614.0</ele>
        <time>2021-07-11T08:13:00.000Z</time>
      </trkpt>
      <trkpt lat="41.37122833" lon="1.13840833">
        <ele>615.0</ele>
        <time>2021-07-11T08:13:01.000Z</time>
      </trkpt>
      <trkpt lat="41.371235" lon="1.13839667">
        <ele>615.0</ele>
        <time>2021-07-11T08:13:02.000Z</time>
      </trkpt>
      <trkpt lat="41.37124" lon="1.13838667">
        <ele>615.0</ele>
        <time>2021-07-11T08:13:03.000Z</time>
      </trkpt>
      <trkpt lat="41.37124667" lon="1.138375">
        <ele>615.0</ele>
        <time>2021-07-11T08:13:04.000Z</time>
      </trkpt>
      <trkpt lat="41.37125333" lon="1.13836167">
        <ele>615.0</ele>
        <time>2021-07-11T08:13:05.000Z</time>
      </trkpt>
      <trkpt lat="41.37125833" lon="1.13834833">
        <ele>615.0</ele>
        <time>2021-07-11T08:13:06.000Z</time>
      </trkpt>
      <trkpt lat="41.371265" lon="1.138335">
        <ele>615.0</ele>
        <time>2021-07-11T08:13:07.000Z</time>
      </trkpt>
      <trkpt lat="41.37126833" lon="1.13832167">
        <ele>615.0</ele>
        <time>2021-07-11T08:13:08.000Z</time>
      </trkpt>
      <trkpt lat="41.37127167" lon="1.13831">
        <ele>615.0</ele>
        <time>2021-07-11T08:13:09.000Z</time>
      </trkpt>
      <trkpt lat="41.37127667" lon="1.1383">
        <ele>615.0</ele>
        <time>2021-07-11T08:13:10.000Z</time>
      </trkpt>
      <trkpt lat="41.37128" lon="1.13828833">
        <ele>615.0</ele>
        <time>2021-07-11T08:13:11.000Z</time>
      </trkpt>
      <trkpt lat="41.37128333" lon="1.13827833">
        <ele>615.0</ele>
        <time>2021-07-11T08:13:12.000Z</time>
      </trkpt>
      <trkpt lat="41.37128667" lon="1.13826833">
        <ele>616.0</ele>
        <time>2021-07-11T08:13:13.000Z</time>
      </trkpt>
      <trkpt lat="41.37128667" lon="1.13825667">
        <ele>616.0</ele>
        <time>2021-07-11T08:13:14.000Z</time>
      </trkpt>
      <trkpt lat="41.37128833" lon="1.13824667">
        <ele>617.0</ele>
        <time>2021-07-11T08:13:15.000Z</time>
      </trkpt>
      <trkpt lat="41.37129167" lon="1.138235">
        <ele>617.0</ele>
        <time>2021-07-11T08:13:16.000Z</time>
      </trkpt>
      <trkpt lat="41.371295" lon="1.13822333">
        <ele>617.0</ele>
        <time>2021-07-11T08:13:17.000Z</time>
      </trkpt>
      <trkpt lat="41.37129833" lon="1.13821167">
        <ele>617.0</ele>
        <time>2021-07-11T08:13:18.000Z</time>
      </trkpt>
      <trkpt lat="41.37130167" lon="1.13820167">
        <ele>617.0</ele>
        <time>2021-07-11T08:13:19.000Z</time>
      </trkpt>
      <trkpt lat="41.37130333" lon="1.13819167">
        <ele>617.0</ele>
        <time>2021-07-11T08:13:20.000Z</time>
      </trkpt>
      <trkpt lat="41.371305" lon="1.13818167">
        <ele>617.0</ele>
        <time>2021-07-11T08:13:21.000Z</time>
      </trkpt>
      <trkpt lat="41.37130667" lon="1.13817">
        <ele>617.0</ele>
        <time>2021-07-11T08:13:22.000Z</time>
      </trkpt>
      <trkpt lat="41.37130833" lon="1.13815667">
        <ele>617.0</ele>
        <time>2021-07-11T08:13:23.000Z</time>
      </trkpt>
      <trkpt lat="41.37131" lon="1.13814833">
        <ele>618.0</ele>
        <time>2021-07-11T08:13:24.000Z</time>
      </trkpt>
      <trkpt lat="41.37131" lon="1.13813667">
        <ele>618.0</ele>
        <time>2021-07-11T08:13:25.000Z</time>
      </trkpt>
      <trkpt lat="41.37131333" lon="1.13812667">
        <ele>618.0</ele>
        <time>2021-07-11T08:13:26.000Z</time>
      </trkpt>
      <trkpt lat="41.37131333" lon="1.13811667">
        <ele>618.0</ele>
        <time>2021-07-11T08:13:27.000Z</time>
      </trkpt>
      <trkpt lat="41.37131667" lon="1.13810833">
        <ele>618.0</ele>
        <time>2021-07-11T08:13:28.000Z</time>
      </trkpt>
      <trkpt lat="41.37132" lon="1.13809833">
        <ele>618.0</ele>
        <time>2021-07-11T08:13:29.000Z</time>
      </trkpt>
      <trkpt lat="41.37132167" lon="1.13808667">
        <ele>619.0</ele>
        <time>2021-07-11T08:13:30.000Z</time>
      </trkpt>
      <trkpt lat="41.371325" lon="1.13807333">
        <ele>619.0</ele>
        <time>2021-07-11T08:13:31.000Z</time>
      </trkpt>
      <trkpt lat="41.37132833" lon="1.13806">
        <ele>619.0</ele>
        <time>2021-07-11T08:13:32.000Z</time>
      </trkpt>
      <trkpt lat="41.37133167" lon="1.13804667">
        <ele>619.0</ele>
        <time>2021-07-11T08:13:33.000Z</time>
      </trkpt>
      <trkpt lat="41.37133333" lon="1.138035">
        <ele>619.0</ele>
        <time>2021-07-11T08:13:34.000Z</time>
      </trkpt>
      <trkpt lat="41.371335" lon="1.13802667">
        <ele>619.0</ele>
        <time>2021-07-11T08:13:35.000Z</time>
      </trkpt>
      <trkpt lat="41.37133333" lon="1.13801667">
        <ele>620.0</ele>
        <time>2021-07-11T08:13:36.000Z</time>
      </trkpt>
      <trkpt lat="41.37133167" lon="1.13800333">
        <ele>620.0</ele>
        <time>2021-07-11T08:13:37.000Z</time>
      </trkpt>
      <trkpt lat="41.37133" lon="1.13799333">
        <ele>620.0</ele>
        <time>2021-07-11T08:13:38.000Z</time>
      </trkpt>
      <trkpt lat="41.371325" lon="1.13798167">
        <ele>620.0</ele>
        <time>2021-07-11T08:13:39.000Z</time>
      </trkpt>
      <trkpt lat="41.37132" lon="1.13797167">
        <ele>620.0</ele>
        <time>2021-07-11T08:13:40.000Z</time>
      </trkpt>
      <trkpt lat="41.37131333" lon="1.13796333">
        <ele>620.0</ele>
        <time>2021-07-11T08:13:41.000Z</time>
      </trkpt>
      <trkpt lat="41.37130667" lon="1.137955">
        <ele>620.0</ele>
        <time>2021-07-11T08:13:42.000Z</time>
      </trkpt>
      <trkpt lat="41.37129667" lon="1.13795333">
        <ele>620.0</ele>
        <time>2021-07-11T08:13:43.000Z</time>
      </trkpt>
      <trkpt lat="41.37128667" lon="1.13794833">
        <ele>620.0</ele>
        <time>2021-07-11T08:13:44.000Z</time>
      </trkpt>
      <trkpt lat="41.37127667" lon="1.13794667">
        <ele>620.0</ele>
        <time>2021-07-11T08:13:45.000Z</time>
      </trkpt>
      <trkpt lat="41.37126833" lon="1.137945">
        <ele>621.0</ele>
        <time>2021-07-11T08:13:46.000Z</time>
      </trkpt>
      <trkpt lat="41.37125833" lon="1.137945">
        <ele>621.0</ele>
        <time>2021-07-11T08:13:47.000Z</time>
      </trkpt>
      <trkpt lat="41.37125" lon="1.13794833">
        <ele>621.0</ele>
        <time>2021-07-11T08:13:48.000Z</time>
      </trkpt>
      <trkpt lat="41.37124167" lon="1.13795">
        <ele>621.0</ele>
        <time>2021-07-11T08:13:49.000Z</time>
      </trkpt>
      <trkpt lat="41.371235" lon="1.13795333">
        <ele>621.0</ele>
        <time>2021-07-11T08:13:50.000Z</time>
      </trkpt>
      <trkpt lat="41.37122667" lon="1.13795833">
        <ele>621.0</ele>
        <time>2021-07-11T08:13:51.000Z</time>
      </trkpt>
      <trkpt lat="41.37122" lon="1.13796333">
        <ele>621.0</ele>
        <time>2021-07-11T08:13:52.000Z</time>
      </trkpt>
      <trkpt lat="41.37121333" lon="1.13797">
        <ele>622.0</ele>
        <time>2021-07-11T08:13:53.000Z</time>
      </trkpt>
      <trkpt lat="41.37120667" lon="1.13797667">
        <ele>622.0</ele>
        <time>2021-07-11T08:13:54.000Z</time>
      </trkpt>
      <trkpt lat="41.37119833" lon="1.13798333">
        <ele>622.0</ele>
        <time>2021-07-11T08:13:55.000Z</time>
      </trkpt>
      <trkpt lat="41.37119" lon="1.13799">
        <ele>623.0</ele>
        <time>2021-07-11T08:13:56.000Z</time>
      </trkpt>
      <trkpt lat="41.37118333" lon="1.137995">
        <ele>623.0</ele>
        <time>2021-07-11T08:13:57.000Z</time>
      </trkpt>
      <trkpt lat="41.37117333" lon="1.13800167">
        <ele>623.0</ele>
        <time>2021-07-11T08:13:58.000Z</time>
      </trkpt>
      <trkpt lat="41.37116333" lon="1.13801">
        <ele>623.0</ele>
        <time>2021-07-11T08:13:59.000Z</time>
      </trkpt>
      <trkpt lat="41.37115333" lon="1.13801667">
        <ele>623.0</ele>
        <time>2021-07-11T08:14:00.000Z</time>
      </trkpt>
      <trkpt lat="41.37114333" lon="1.13802167">
        <ele>623.0</ele>
        <time>2021-07-11T08:14:01.000Z</time>
      </trkpt>
      <trkpt lat="41.37113333" lon="1.13802667">
        <ele>624.0</ele>
        <time>2021-07-11T08:14:02.000Z</time>
      </trkpt>
      <trkpt lat="41.371125" lon="1.13803167">
        <ele>624.0</ele>
        <time>2021-07-11T08:14:03.000Z</time>
      </trkpt>
      <trkpt lat="41.371115" lon="1.13803667">
        <ele>624.0</ele>
        <time>2021-07-11T08:14:04.000Z</time>
      </trkpt>
      <trkpt lat="41.37110667" lon="1.13804333">
        <ele>624.0</ele>
        <time>2021-07-11T08:14:05.000Z</time>
      </trkpt>
      <trkpt lat="41.37109667" lon="1.13804667">
        <ele>624.0</ele>
        <time>2021-07-11T08:14:06.000Z</time>
      </trkpt>
      <trkpt lat="41.37108833" lon="1.13805167">
        <ele>624.0</ele>
        <time>2021-07-11T08:14:07.000Z</time>
      </trkpt>
      <trkpt lat="41.37108167" lon="1.138055">
        <ele>624.0</ele>
        <time>2021-07-11T08:14:08.000Z</time>
      </trkpt>
      <trkpt lat="41.37107333" lon="1.13806">
        <ele>624.0</ele>
        <time>2021-07-11T08:14:09.000Z</time>
      </trkpt>
      <trkpt lat="41.37106667" lon="1.138065">
        <ele>624.0</ele>
        <time>2021-07-11T08:14:10.000Z</time>
      </trkpt>
      <trkpt lat="41.37106" lon="1.13807167">
        <ele>625.0</ele>
        <time>2021-07-11T08:14:11.000Z</time>
      </trkpt>
      <trkpt lat="41.37105333" lon="1.13808">
        <ele>626.0</ele>
        <time>2021-07-11T08:14:12.000Z</time>
      </trkpt>
      <trkpt lat="41.37104667" lon="1.13808833">
        <ele>626.0</ele>
        <time>2021-07-11T08:14:13.000Z</time>
      </trkpt>
      <trkpt lat="41.37103833" lon="1.13809833">
        <ele>626.0</ele>
        <time>2021-07-11T08:14:14.000Z</time>
      </trkpt>
      <trkpt lat="41.37103" lon="1.13811">
        <ele>626.0</ele>
        <time>2021-07-11T08:14:15.000Z</time>
      </trkpt>
      <trkpt lat="41.37102167" lon="1.13812">
        <ele>627.0</ele>
        <time>2021-07-11T08:14:16.000Z</time>
      </trkpt>
      <trkpt lat="41.371015" lon="1.13813">
        <ele>627.0</ele>
        <time>2021-07-11T08:14:17.000Z</time>
      </trkpt>
      <trkpt lat="41.37100667" lon="1.13814">
        <ele>627.0</ele>
        <time>2021-07-11T08:14:18.000Z</time>
      </trkpt>
      <trkpt lat="41.37099833" lon="1.13815167">
        <ele>627.0</ele>
        <time>2021-07-11T08:14:19.000Z</time>
      </trkpt>
      <trkpt lat="41.37098833" lon="1.13815833">
        <ele>627.0</ele>
        <time>2021-07-11T08:14:20.000Z</time>
      </trkpt>
      <trkpt lat="41.37097667" lon="1.13816333">
        <ele>627.0</ele>
        <time>2021-07-11T08:14:21.000Z</time>
      </trkpt>
      <trkpt lat="41.37096333" lon="1.13816667">
        <ele>627.0</ele>
        <time>2021-07-11T08:14:22.000Z</time>
      </trkpt>
      <trkpt lat="41.37095167" lon="1.13816833">
        <ele>627.0</ele>
        <time>2021-07-11T08:14:23.000Z</time>
      </trkpt>
      <trkpt lat="41.37094" lon="1.13816833">
        <ele>627.0</ele>
        <time>2021-07-11T08:14:24.000Z</time>
      </trkpt>
      <trkpt lat="41.37093" lon="1.13816167">
        <ele>627.0</ele>
        <time>2021-07-11T08:14:25.000Z</time>
      </trkpt>
      <trkpt lat="41.37092167" lon="1.138155">
        <ele>627.0</ele>
        <time>2021-07-11T08:14:26.000Z</time>
      </trkpt>
      <trkpt lat="41.37091667" lon="1.13814667">
        <ele>628.0</ele>
        <time>2021-07-11T08:14:27.000Z</time>
      </trkpt>
      <trkpt lat="41.37091" lon="1.13813167">
        <ele>628.0</ele>
        <time>2021-07-11T08:14:28.000Z</time>
      </trkpt>
      <trkpt lat="41.37090667" lon="1.13811667">
        <ele>628.0</ele>
        <time>2021-07-11T08:14:29.000Z</time>
      </trkpt>
      <trkpt lat="41.37090667" lon="1.13810333">
        <ele>628.0</ele>
        <time>2021-07-11T08:14:30.000Z</time>
      </trkpt>
      <trkpt lat="41.37090833" lon="1.13809167">
        <ele>628.0</ele>
        <time>2021-07-11T08:14:31.000Z</time>
      </trkpt>
      <trkpt lat="41.37090833" lon="1.13808">
        <ele>628.0</ele>
        <time>2021-07-11T08:14:32.000Z</time>
      </trkpt>
      <trkpt lat="41.37091167" lon="1.13806833">
        <ele>628.0</ele>
        <time>2021-07-11T08:14:33.000Z</time>
      </trkpt>
      <trkpt lat="41.37091667" lon="1.138055">
        <ele>628.0</ele>
        <time>2021-07-11T08:14:34.000Z</time>
      </trkpt>
      <trkpt lat="41.37092333" lon="1.13804333">
        <ele>628.0</ele>
        <time>2021-07-11T08:14:35.000Z</time>
      </trkpt>
      <trkpt lat="41.37092833" lon="1.13803">
        <ele>629.0</ele>
        <time>2021-07-11T08:14:36.000Z</time>
      </trkpt>
      <trkpt lat="41.37093333" lon="1.13801833">
        <ele>629.0</ele>
        <time>2021-07-11T08:14:37.000Z</time>
      </trkpt>
      <trkpt lat="41.37093833" lon="1.13800667">
        <ele>629.0</ele>
        <time>2021-07-11T08:14:38.000Z</time>
      </trkpt>
      <trkpt lat="41.37094" lon="1.137995">
        <ele>629.0</ele>
        <time>2021-07-11T08:14:39.000Z</time>
      </trkpt>
      <trkpt lat="41.37094333" lon="1.13798333">
        <ele>629.0</ele>
        <time>2021-07-11T08:14:40.000Z</time>
      </trkpt>
      <trkpt lat="41.37094833" lon="1.13796667">
        <ele>629.0</ele>
        <time>2021-07-11T08:14:41.000Z</time>
      </trkpt>
      <trkpt lat="41.370955" lon="1.13795333">
        <ele>629.0</ele>
        <time>2021-07-11T08:14:42.000Z</time>
      </trkpt>
      <trkpt lat="41.37096333" lon="1.13794">
        <ele>629.0</ele>
        <time>2021-07-11T08:14:43.000Z</time>
      </trkpt>
      <trkpt lat="41.37097167" lon="1.13792833">
        <ele>629.0</ele>
        <time>2021-07-11T08:14:44.000Z</time>
      </trkpt>
      <trkpt lat="41.37097833" lon="1.13791833">
        <ele>630.0</ele>
        <time>2021-07-11T08:14:45.000Z</time>
      </trkpt>
      <trkpt lat="41.37098833" lon="1.13791">
        <ele>630.0</ele>
        <time>2021-07-11T08:14:46.000Z</time>
      </trkpt>
      <trkpt lat="41.37099833" lon="1.13789833">
        <ele>630.0</ele>
        <time>2021-07-11T08:14:47.000Z</time>
      </trkpt>
      <trkpt lat="41.37100833" lon="1.13788667">
        <ele>630.0</ele>
        <time>2021-07-11T08:14:48.000Z</time>
      </trkpt>
      <trkpt lat="41.37101833" lon="1.13787333">
        <ele>630.0</ele>
        <time>2021-07-11T08:14:49.000Z</time>
      </trkpt>
      <trkpt lat="41.37102667" lon="1.13786">
        <ele>630.0</ele>
        <time>2021-07-11T08:14:50.000Z</time>
      </trkpt>
      <trkpt lat="41.371035" lon="1.13784833">
        <ele>630.0</ele>
        <time>2021-07-11T08:14:51.000Z</time>
      </trkpt>
      <trkpt lat="41.37104167" lon="1.13784">
        <ele>631.0</ele>
        <time>2021-07-11T08:14:52.000Z</time>
      </trkpt>
      <trkpt lat="41.37104667" lon="1.13783">
        <ele>631.0</ele>
        <time>2021-07-11T08:14:53.000Z</time>
      </trkpt>
      <trkpt lat="41.37105333" lon="1.13782">
        <ele>631.0</ele>
        <time>2021-07-11T08:14:54.000Z</time>
      </trkpt>
      <trkpt lat="41.37105833" lon="1.13780833">
        <ele>631.0</ele>
        <time>2021-07-11T08:14:55.000Z</time>
      </trkpt>
      <trkpt lat="41.37106167" lon="1.13779667">
        <ele>631.0</ele>
        <time>2021-07-11T08:14:56.000Z</time>
      </trkpt>
      <trkpt lat="41.371065" lon="1.13778667">
        <ele>631.0</ele>
        <time>2021-07-11T08:14:57.000Z</time>
      </trkpt>
      <trkpt lat="41.37107" lon="1.13777833">
        <ele>631.0</ele>
        <time>2021-07-11T08:14:58.000Z</time>
      </trkpt>
      <trkpt lat="41.37107333" lon="1.13776667">
        <ele>631.0</ele>
        <time>2021-07-11T08:14:59.000Z</time>
      </trkpt>
      <trkpt lat="41.37107833" lon="1.13776">
        <ele>632.0</ele>
        <time>2021-07-11T08:15:00.000Z</time>
      </trkpt>
      <trkpt lat="41.37108667" lon="1.13775167">
        <ele>632.0</ele>
        <time>2021-07-11T08:15:01.000Z</time>
      </trkpt>
      <trkpt lat="41.371095" lon="1.13774167">
        <ele>632.0</ele>
        <time>2021-07-11T08:15:02.000Z</time>
      </trkpt>
      <trkpt lat="41.37110167" lon="1.13773167">
        <ele>632.0</ele>
        <time>2021-07-11T08:15:03.000Z</time>
      </trkpt>
      <trkpt lat="41.37110833" lon="1.13772333">
        <ele>632.0</ele>
        <time>2021-07-11T08:15:04.000Z</time>
      </trkpt>
      <trkpt lat="41.37111333" lon="1.13771667">
        <ele>632.0</ele>
        <time>2021-07-11T08:15:05.000Z</time>
      </trkpt>
      <trkpt lat="41.37111667" lon="1.13771">
        <ele>632.0</ele>
        <time>2021-07-11T08:15:06.000Z</time>
      </trkpt>
      <trkpt lat="41.37111833" lon="1.13770167">
        <ele>632.0</ele>
        <time>2021-07-11T08:15:07.000Z</time>
      </trkpt>
      <trkpt lat="41.37112167" lon="1.13769167">
        <ele>632.0</ele>
        <time>2021-07-11T08:15:08.000Z</time>
      </trkpt>
      <trkpt lat="41.37112833" lon="1.13768">
        <ele>632.0</ele>
        <time>2021-07-11T08:15:09.000Z</time>
      </trkpt>
      <trkpt lat="41.371135" lon="1.13767">
        <ele>633.0</ele>
        <time>2021-07-11T08:15:10.000Z</time>
      </trkpt>
      <trkpt lat="41.37114333" lon="1.13765833">
        <ele>633.0</ele>
        <time>2021-07-11T08:15:11.000Z</time>
      </trkpt>
      <trkpt lat="41.37115167" lon="1.13764833">
        <ele>633.0</ele>
        <time>2021-07-11T08:15:12.000Z</time>
      </trkpt>
      <trkpt lat="41.37115833" lon="1.13763667">
        <ele>633.0</ele>
        <time>2021-07-11T08:15:13.000Z</time>
      </trkpt>
      <trkpt lat="41.371165" lon="1.13762333">
        <ele>633.0</ele>
        <time>2021-07-11T08:15:14.000Z</time>
      </trkpt>
      <trkpt lat="41.37117167" lon="1.13761">
        <ele>633.0</ele>
        <time>2021-07-11T08:15:15.000Z</time>
      </trkpt>
      <trkpt lat="41.37117833" lon="1.13759667">
        <ele>633.0</ele>
        <time>2021-07-11T08:15:16.000Z</time>
      </trkpt>
      <trkpt lat="41.37118667" lon="1.13758333">
        <ele>633.0</ele>
        <time>2021-07-11T08:15:17.000Z</time>
      </trkpt>
      <trkpt lat="41.37119667" lon="1.13757">
        <ele>633.0</ele>
        <time>2021-07-11T08:15:18.000Z</time>
      </trkpt>
      <trkpt lat="41.37120333" lon="1.13755667">
        <ele>633.0</ele>
        <time>2021-07-11T08:15:19.000Z</time>
      </trkpt>
      <trkpt lat="41.37121" lon="1.137545">
        <ele>633.0</ele>
        <time>2021-07-11T08:15:20.000Z</time>
      </trkpt>
      <trkpt lat="41.371215" lon="1.13753667">
        <ele>633.0</ele>
        <time>2021-07-11T08:15:21.000Z</time>
      </trkpt>
      <trkpt lat="41.37122167" lon="1.13753">
        <ele>633.0</ele>
        <time>2021-07-11T08:15:22.000Z</time>
      </trkpt>
      <trkpt lat="41.37123167" lon="1.13752">
        <ele>634.0</ele>
        <time>2021-07-11T08:15:23.000Z</time>
      </trkpt>
      <trkpt lat="41.37124" lon="1.13751167">
        <ele>634.0</ele>
        <time>2021-07-11T08:15:24.000Z</time>
      </trkpt>
      <trkpt lat="41.37125" lon="1.13750333">
        <ele>634.0</ele>
        <time>2021-07-11T08:15:25.000Z</time>
      </trkpt>
      <trkpt lat="41.37125667" lon="1.137495">
        <ele>634.0</ele>
        <time>2021-07-11T08:15:26.000Z</time>
      </trkpt>
      <trkpt lat="41.371265" lon="1.137485">
        <ele>634.0</ele>
        <time>2021-07-11T08:15:27.000Z</time>
      </trkpt>
      <trkpt lat="41.37127333" lon="1.13747667">
        <ele>634.0</ele>
        <time>2021-07-11T08:15:28.000Z</time>
      </trkpt>
      <trkpt lat="41.37128167" lon="1.137465">
        <ele>634.0</ele>
        <time>2021-07-11T08:15:29.000Z</time>
      </trkpt>
      <trkpt lat="41.37128833" lon="1.13745667">
        <ele>634.0</ele>
        <time>2021-07-11T08:15:30.000Z</time>
      </trkpt>
      <trkpt lat="41.37129833" lon="1.13744833">
        <ele>634.0</ele>
        <time>2021-07-11T08:15:31.000Z</time>
      </trkpt>
      <trkpt lat="41.37130667" lon="1.13743833">
        <ele>634.0</ele>
        <time>2021-07-11T08:15:32.000Z</time>
      </trkpt>
      <trkpt lat="41.371315" lon="1.13742667">
        <ele>634.0</ele>
        <time>2021-07-11T08:15:33.000Z</time>
      </trkpt>
      <trkpt lat="41.37132333" lon="1.137415">
        <ele>635.0</ele>
        <time>2021-07-11T08:15:34.000Z</time>
      </trkpt>
      <trkpt lat="41.37133167" lon="1.137405">
        <ele>635.0</ele>
        <time>2021-07-11T08:15:35.000Z</time>
      </trkpt>
      <trkpt lat="41.37133833" lon="1.137395">
        <ele>635.0</ele>
        <time>2021-07-11T08:15:36.000Z</time>
      </trkpt>
      <trkpt lat="41.371345" lon="1.137385">
        <ele>635.0</ele>
        <time>2021-07-11T08:15:37.000Z</time>
      </trkpt>
      <trkpt lat="41.37135167" lon="1.13737667">
        <ele>635.0</ele>
        <time>2021-07-11T08:15:38.000Z</time>
      </trkpt>
      <trkpt lat="41.37135833" lon="1.13736667">
        <ele>635.0</ele>
        <time>2021-07-11T08:15:39.000Z</time>
      </trkpt>
      <trkpt lat="41.37136333" lon="1.13735833">
        <ele>635.0</ele>
        <time>2021-07-11T08:15:40.000Z</time>
      </trkpt>
      <trkpt lat="41.37137" lon="1.13734833">
        <ele>635.0</ele>
        <time>2021-07-11T08:15:41.000Z</time>
      </trkpt>
      <trkpt lat="41.371375" lon="1.13733833">
        <ele>636.0</ele>
        <time>2021-07-11T08:15:42.000Z</time>
      </trkpt>
      <trkpt lat="41.37138" lon="1.13733">
        <ele>636.0</ele>
        <time>2021-07-11T08:15:43.000Z</time>
      </trkpt>
      <trkpt lat="41.37138667" lon="1.13731833">
        <ele>636.0</ele>
        <time>2021-07-11T08:15:44.000Z</time>
      </trkpt>
      <trkpt lat="41.371395" lon="1.13730833">
        <ele>636.0</ele>
        <time>2021-07-11T08:15:45.000Z</time>
      </trkpt>
      <trkpt lat="41.37140167" lon="1.13729667">
        <ele>636.0</ele>
        <time>2021-07-11T08:15:46.000Z</time>
      </trkpt>
      <trkpt lat="41.37140667" lon="1.13728667">
        <ele>636.0</ele>
        <time>2021-07-11T08:15:47.000Z</time>
      </trkpt>
      <trkpt lat="41.37141333" lon="1.137275">
        <ele>636.0</ele>
        <time>2021-07-11T08:15:48.000Z</time>
      </trkpt>
      <trkpt lat="41.37141833" lon="1.13726333">
        <ele>637.0</ele>
        <time>2021-07-11T08:15:49.000Z</time>
      </trkpt>
      <trkpt lat="41.371425" lon="1.13725333">
        <ele>637.0</ele>
        <time>2021-07-11T08:15:50.000Z</time>
      </trkpt>
      <trkpt lat="41.37143" lon="1.13724333">
        <ele>637.0</ele>
        <time>2021-07-11T08:15:51.000Z</time>
      </trkpt>
      <trkpt lat="41.371435" lon="1.137235">
        <ele>637.0</ele>
        <time>2021-07-11T08:15:52.000Z</time>
      </trkpt>
      <trkpt lat="41.37143833" lon="1.13722833">
        <ele>637.0</ele>
        <time>2021-07-11T08:15:53.000Z</time>
      </trkpt>
      <trkpt lat="41.37144167" lon="1.13722">
        <ele>637.0</ele>
        <time>2021-07-11T08:15:54.000Z</time>
      </trkpt>
      <trkpt lat="41.37144667" lon="1.13720833">
        <ele>637.0</ele>
        <time>2021-07-11T08:15:55.000Z</time>
      </trkpt>
      <trkpt lat="41.37145" lon="1.13719667">
        <ele>637.0</ele>
        <time>2021-07-11T08:15:56.000Z</time>
      </trkpt>
      <trkpt lat="41.371455" lon="1.137185">
        <ele>637.0</ele>
        <time>2021-07-11T08:15:57.000Z</time>
      </trkpt>
      <trkpt lat="41.37145833" lon="1.13717333">
        <ele>637.0</ele>
        <time>2021-07-11T08:15:58.000Z</time>
      </trkpt>
      <trkpt lat="41.37146167" lon="1.13716">
        <ele>637.0</ele>
        <time>2021-07-11T08:15:59.000Z</time>
      </trkpt>
      <trkpt lat="41.37146667" lon="1.13714333">
        <ele>637.0</ele>
        <time>2021-07-11T08:16:00.000Z</time>
      </trkpt>
      <trkpt lat="41.37147167" lon="1.13712833">
        <ele>637.0</ele>
        <time>2021-07-11T08:16:01.000Z</time>
      </trkpt>
      <trkpt lat="41.371475" lon="1.13711667">
        <ele>637.0</ele>
        <time>2021-07-11T08:16:02.000Z</time>
      </trkpt>
      <trkpt lat="41.37147833" lon="1.13710333">
        <ele>638.0</ele>
        <time>2021-07-11T08:16:03.000Z</time>
      </trkpt>
      <trkpt lat="41.37148" lon="1.13709">
        <ele>638.0</ele>
        <time>2021-07-11T08:16:04.000Z</time>
      </trkpt>
      <trkpt lat="41.371485" lon="1.13707333">
        <ele>638.0</ele>
        <time>2021-07-11T08:16:05.000Z</time>
      </trkpt>
      <trkpt lat="41.37149" lon="1.13705833">
        <ele>638.0</ele>
        <time>2021-07-11T08:16:06.000Z</time>
      </trkpt>
      <trkpt lat="41.371495" lon="1.13704667">
        <ele>638.0</ele>
        <time>2021-07-11T08:16:07.000Z</time>
      </trkpt>
      <trkpt lat="41.3715" lon="1.137035">
        <ele>638.0</ele>
        <time>2021-07-11T08:16:08.000Z</time>
      </trkpt>
      <trkpt lat="41.371505" lon="1.137025">
        <ele>638.0</ele>
        <time>2021-07-11T08:16:09.000Z</time>
      </trkpt>
      <trkpt lat="41.37151" lon="1.137015">
        <ele>639.0</ele>
        <time>2021-07-11T08:16:10.000Z</time>
      </trkpt>
      <trkpt lat="41.371515" lon="1.13700333">
        <ele>639.0</ele>
        <time>2021-07-11T08:16:11.000Z</time>
      </trkpt>
      <trkpt lat="41.37151833" lon="1.13699167">
        <ele>639.0</ele>
        <time>2021-07-11T08:16:12.000Z</time>
      </trkpt>
      <trkpt lat="41.37152" lon="1.13698167">
        <ele>639.0</ele>
        <time>2021-07-11T08:16:13.000Z</time>
      </trkpt>
      <trkpt lat="41.37152333" lon="1.13697">
        <ele>639.0</ele>
        <time>2021-07-11T08:16:14.000Z</time>
      </trkpt>
      <trkpt lat="41.37152667" lon="1.13696">
        <ele>640.0</ele>
        <time>2021-07-11T08:16:15.000Z</time>
      </trkpt>
      <trkpt lat="41.37152833" lon="1.13695">
        <ele>640.0</ele>
        <time>2021-07-11T08:16:16.000Z</time>
      </trkpt>
      <trkpt lat="41.37153167" lon="1.13694">
        <ele>640.0</ele>
        <time>2021-07-11T08:16:17.000Z</time>
      </trkpt>
      <trkpt lat="41.37153333" lon="1.13692833">
        <ele>640.0</ele>
        <time>2021-07-11T08:16:18.000Z</time>
      </trkpt>
      <trkpt lat="41.37153667" lon="1.13691667">
        <ele>640.0</ele>
        <time>2021-07-11T08:16:19.000Z</time>
      </trkpt>
      <trkpt lat="41.37154" lon="1.13690667">
        <ele>640.0</ele>
        <time>2021-07-11T08:16:20.000Z</time>
      </trkpt>
      <trkpt lat="41.37154333" lon="1.13689833">
        <ele>641.0</ele>
        <time>2021-07-11T08:16:21.000Z</time>
      </trkpt>
      <trkpt lat="41.371545" lon="1.13689">
        <ele>641.0</ele>
        <time>2021-07-11T08:16:22.000Z</time>
      </trkpt>
      <trkpt lat="41.37154667" lon="1.13688">
        <ele>641.0</ele>
        <time>2021-07-11T08:16:23.000Z</time>
      </trkpt>
      <trkpt lat="41.37154667" lon="1.13687167">
        <ele>641.0</ele>
        <time>2021-07-11T08:16:24.000Z</time>
      </trkpt>
      <trkpt lat="41.37154833" lon="1.13686">
        <ele>641.0</ele>
        <time>2021-07-11T08:16:25.000Z</time>
      </trkpt>
      <trkpt lat="41.37155" lon="1.13684667">
        <ele>641.0</ele>
        <time>2021-07-11T08:16:26.000Z</time>
      </trkpt>
      <trkpt lat="41.37155333" lon="1.136835">
        <ele>641.0</ele>
        <time>2021-07-11T08:16:27.000Z</time>
      </trkpt>
      <trkpt lat="41.37155667" lon="1.136825">
        <ele>641.0</ele>
        <time>2021-07-11T08:16:28.000Z</time>
      </trkpt>
      <trkpt lat="41.37155833" lon="1.136815">
        <ele>641.0</ele>
        <time>2021-07-11T08:16:29.000Z</time>
      </trkpt>
      <trkpt lat="41.37156333" lon="1.13680167">
        <ele>641.0</ele>
        <time>2021-07-11T08:16:30.000Z</time>
      </trkpt>
      <trkpt lat="41.37156667" lon="1.13679">
        <ele>641.0</ele>
        <time>2021-07-11T08:16:31.000Z</time>
      </trkpt>
      <trkpt lat="41.37157" lon="1.13677833">
        <ele>642.0</ele>
        <time>2021-07-11T08:16:32.000Z</time>
      </trkpt>
      <trkpt lat="41.37157333" lon="1.136765">
        <ele>641.0</ele>
        <time>2021-07-11T08:16:33.000Z</time>
      </trkpt>
      <trkpt lat="41.37157667" lon="1.13675167">
        <ele>641.0</ele>
        <time>2021-07-11T08:16:34.000Z</time>
      </trkpt>
      <trkpt lat="41.37158167" lon="1.13674167">
        <ele>642.0</ele>
        <time>2021-07-11T08:16:35.000Z</time>
      </trkpt>
      <trkpt lat="41.371585" lon="1.13673">
        <ele>642.0</ele>
        <time>2021-07-11T08:16:36.000Z</time>
      </trkpt>
      <trkpt lat="41.37158833" lon="1.13672">
        <ele>642.0</ele>
        <time>2021-07-11T08:16:37.000Z</time>
      </trkpt>
      <trkpt lat="41.37159" lon="1.13671">
        <ele>642.0</ele>
        <time>2021-07-11T08:16:38.000Z</time>
      </trkpt>
      <trkpt lat="41.37159167" lon="1.1367">
        <ele>642.0</ele>
        <time>2021-07-11T08:16:39.000Z</time>
      </trkpt>
      <trkpt lat="41.37159333" lon="1.13669167">
        <ele>642.0</ele>
        <time>2021-07-11T08:16:40.000Z</time>
      </trkpt>
      <trkpt lat="41.371595" lon="1.13668167">
        <ele>642.0</ele>
        <time>2021-07-11T08:16:41.000Z</time>
      </trkpt>
      <trkpt lat="41.37159833" lon="1.13667167">
        <ele>642.0</ele>
        <time>2021-07-11T08:16:42.000Z</time>
      </trkpt>
      <trkpt lat="41.37160167" lon="1.13666333">
        <ele>642.0</ele>
        <time>2021-07-11T08:16:43.000Z</time>
      </trkpt>
      <trkpt lat="41.37160167" lon="1.13665667">
        <ele>642.0</ele>
        <time>2021-07-11T08:16:44.000Z</time>
      </trkpt>
      <trkpt lat="41.37160167" lon="1.13664833">
        <ele>643.0</ele>
        <time>2021-07-11T08:16:45.000Z</time>
      </trkpt>
      <trkpt lat="41.37160333" lon="1.13663833">
        <ele>643.0</ele>
        <time>2021-07-11T08:16:46.000Z</time>
      </trkpt>
      <trkpt lat="41.37160667" lon="1.13662833">
        <ele>643.0</ele>
        <time>2021-07-11T08:16:47.000Z</time>
      </trkpt>
      <trkpt lat="41.37160667" lon="1.13661833">
        <ele>643.0</ele>
        <time>2021-07-11T08:16:48.000Z</time>
      </trkpt>
      <trkpt lat="41.37160667" lon="1.13661">
        <ele>643.0</ele>
        <time>2021-07-11T08:16:49.000Z</time>
      </trkpt>
      <trkpt lat="41.37160667" lon="1.1366">
        <ele>643.0</ele>
        <time>2021-07-11T08:16:50.000Z</time>
      </trkpt>
      <trkpt lat="41.371605" lon="1.136585">
        <ele>644.0</ele>
        <time>2021-07-11T08:16:51.000Z</time>
      </trkpt>
      <trkpt lat="41.37160333" lon="1.13657333">
        <ele>644.0</ele>
        <time>2021-07-11T08:16:52.000Z</time>
      </trkpt>
      <trkpt lat="41.371605" lon="1.13656167">
        <ele>644.0</ele>
        <time>2021-07-11T08:16:53.000Z</time>
      </trkpt>
      <trkpt lat="41.37160667" lon="1.13655">
        <ele>644.0</ele>
        <time>2021-07-11T08:16:54.000Z</time>
      </trkpt>
      <trkpt lat="41.37160833" lon="1.13653667">
        <ele>644.0</ele>
        <time>2021-07-11T08:16:55.000Z</time>
      </trkpt>
      <trkpt lat="41.37161" lon="1.13652667">
        <ele>645.0</ele>
        <time>2021-07-11T08:16:56.000Z</time>
      </trkpt>
      <trkpt lat="41.37161" lon="1.13652">
        <ele>645.0</ele>
        <time>2021-07-11T08:16:57.000Z</time>
      </trkpt>
      <trkpt lat="41.371615" lon="1.13651167">
        <ele>645.0</ele>
        <time>2021-07-11T08:16:58.000Z</time>
      </trkpt>
      <trkpt lat="41.37161667" lon="1.13650167">
        <ele>645.0</ele>
        <time>2021-07-11T08:16:59.000Z</time>
      </trkpt>
      <trkpt lat="41.37161833" lon="1.13649167">
        <ele>645.0</ele>
        <time>2021-07-11T08:17:00.000Z</time>
      </trkpt>
      <trkpt lat="41.37161833" lon="1.13648">
        <ele>645.0</ele>
        <time>2021-07-11T08:17:01.000Z</time>
      </trkpt>
      <trkpt lat="41.37161667" lon="1.13647">
        <ele>645.0</ele>
        <time>2021-07-11T08:17:02.000Z</time>
      </trkpt>
      <trkpt lat="41.37161333" lon="1.13646">
        <ele>645.0</ele>
        <time>2021-07-11T08:17:03.000Z</time>
      </trkpt>
      <trkpt lat="41.37160833" lon="1.13644667">
        <ele>646.0</ele>
        <time>2021-07-11T08:17:04.000Z</time>
      </trkpt>
      <trkpt lat="41.37160667" lon="1.136435">
        <ele>646.0</ele>
        <time>2021-07-11T08:17:05.000Z</time>
      </trkpt>
      <trkpt lat="41.371605" lon="1.13642333">
        <ele>646.0</ele>
        <time>2021-07-11T08:17:06.000Z</time>
      </trkpt>
      <trkpt lat="41.37160667" lon="1.13641167">
        <ele>646.0</ele>
        <time>2021-07-11T08:17:07.000Z</time>
      </trkpt>
      <trkpt lat="41.37160667" lon="1.13640333">
        <ele>646.0</ele>
        <time>2021-07-11T08:17:08.000Z</time>
      </trkpt>
      <trkpt lat="41.37160667" lon="1.136395">
        <ele>647.0</ele>
        <time>2021-07-11T08:17:09.000Z</time>
      </trkpt>
      <trkpt lat="41.37160667" lon="1.136385">
        <ele>647.0</ele>
        <time>2021-07-11T08:17:10.000Z</time>
      </trkpt>
      <trkpt lat="41.37160667" lon="1.13637333">
        <ele>647.0</ele>
        <time>2021-07-11T08:17:11.000Z</time>
      </trkpt>
      <trkpt lat="41.37160833" lon="1.13636">
        <ele>647.0</ele>
        <time>2021-07-11T08:17:12.000Z</time>
      </trkpt>
      <trkpt lat="41.37161" lon="1.13635">
        <ele>648.0</ele>
        <time>2021-07-11T08:17:13.000Z</time>
      </trkpt>
      <trkpt lat="41.37161333" lon="1.13633833">
        <ele>648.0</ele>
        <time>2021-07-11T08:17:14.000Z</time>
      </trkpt>
      <trkpt lat="41.37161667" lon="1.13632667">
        <ele>648.0</ele>
        <time>2021-07-11T08:17:15.000Z</time>
      </trkpt>
      <trkpt lat="41.37162" lon="1.136315">
        <ele>648.0</ele>
        <time>2021-07-11T08:17:16.000Z</time>
      </trkpt>
      <trkpt lat="41.371625" lon="1.136305">
        <ele>649.0</ele>
        <time>2021-07-11T08:17:17.000Z</time>
      </trkpt>
      <trkpt lat="41.37163" lon="1.13629333">
        <ele>649.0</ele>
        <time>2021-07-11T08:17:18.000Z</time>
      </trkpt>
      <trkpt lat="41.37163333" lon="1.13628167">
        <ele>649.0</ele>
        <time>2021-07-11T08:17:19.000Z</time>
      </trkpt>
      <trkpt lat="41.37163667" lon="1.13627167">
        <ele>649.0</ele>
        <time>2021-07-11T08:17:20.000Z</time>
      </trkpt>
      <trkpt lat="41.37164" lon="1.13626167">
        <ele>649.0</ele>
        <time>2021-07-11T08:17:21.000Z</time>
      </trkpt>
      <trkpt lat="41.371645" lon="1.13625">
        <ele>649.0</ele>
        <time>2021-07-11T08:17:22.000Z</time>
      </trkpt>
      <trkpt lat="41.37165" lon="1.13623833">
        <ele>649.0</ele>
        <time>2021-07-11T08:17:23.000Z</time>
      </trkpt>
      <trkpt lat="41.371655" lon="1.13622833">
        <ele>649.0</ele>
        <time>2021-07-11T08:17:24.000Z</time>
      </trkpt>
      <trkpt lat="41.37166167" lon="1.13621667">
        <ele>650.0</ele>
        <time>2021-07-11T08:17:25.000Z</time>
      </trkpt>
      <trkpt lat="41.37166833" lon="1.13620333">
        <ele>650.0</ele>
        <time>2021-07-11T08:17:26.000Z</time>
      </trkpt>
      <trkpt lat="41.37167333" lon="1.13619">
        <ele>650.0</ele>
        <time>2021-07-11T08:17:27.000Z</time>
      </trkpt>
      <trkpt lat="41.37167833" lon="1.13618">
        <ele>650.0</ele>
        <time>2021-07-11T08:17:28.000Z</time>
      </trkpt>
      <trkpt lat="41.37168333" lon="1.13616833">
        <ele>650.0</ele>
        <time>2021-07-11T08:17:29.000Z</time>
      </trkpt>
      <trkpt lat="41.37168667" lon="1.13615667">
        <ele>650.0</ele>
        <time>2021-07-11T08:17:30.000Z</time>
      </trkpt>
      <trkpt lat="41.37169167" lon="1.13614333">
        <ele>651.0</ele>
        <time>2021-07-11T08:17:31.000Z</time>
      </trkpt>
      <trkpt lat="41.371695" lon="1.13613">
        <ele>651.0</ele>
        <time>2021-07-11T08:17:32.000Z</time>
      </trkpt>
      <trkpt lat="41.3717" lon="1.13611833">
        <ele>651.0</ele>
        <time>2021-07-11T08:17:33.000Z</time>
      </trkpt>
      <trkpt lat="41.37170333" lon="1.13610333">
        <ele>651.0</ele>
        <time>2021-07-11T08:17:34.000Z</time>
      </trkpt>
      <trkpt lat="41.371705" lon="1.13609">
        <ele>651.0</ele>
        <time>2021-07-11T08:17:35.000Z</time>
      </trkpt>
      <trkpt lat="41.37170833" lon="1.13607667">
        <ele>651.0</ele>
        <time>2021-07-11T08:17:36.000Z</time>
      </trkpt>
      <trkpt lat="41.37171167" lon="1.13606167">
        <ele>652.0</ele>
        <time>2021-07-11T08:17:37.000Z</time>
      </trkpt>
      <trkpt lat="41.37171333" lon="1.13604667">
        <ele>652.0</ele>
        <time>2021-07-11T08:17:38.000Z</time>
      </trkpt>
      <trkpt lat="41.371715" lon="1.13603667">
        <ele>652.0</ele>
        <time>2021-07-11T08:17:39.000Z</time>
      </trkpt>
      <trkpt lat="41.37171833" lon="1.13602833">
        <ele>652.0</ele>
        <time>2021-07-11T08:17:40.000Z</time>
      </trkpt>
      <trkpt lat="41.37171833" lon="1.13602">
        <ele>652.0</ele>
        <time>2021-07-11T08:17:41.000Z</time>
      </trkpt>
      <trkpt lat="41.37172" lon="1.13600833">
        <ele>652.0</ele>
        <time>2021-07-11T08:17:42.000Z</time>
      </trkpt>
      <trkpt lat="41.37172333" lon="1.13599667">
        <ele>653.0</ele>
        <time>2021-07-11T08:17:43.000Z</time>
      </trkpt>
      <trkpt lat="41.371725" lon="1.135985">
        <ele>653.0</ele>
        <time>2021-07-11T08:17:44.000Z</time>
      </trkpt>
      <trkpt lat="41.37172667" lon="1.13597333">
        <ele>653.0</ele>
        <time>2021-07-11T08:17:45.000Z</time>
      </trkpt>
      <trkpt lat="41.37173" lon="1.135965">
        <ele>653.0</ele>
        <time>2021-07-11T08:17:46.000Z</time>
      </trkpt>
      <trkpt lat="41.37173333" lon="1.13595333">
        <ele>653.0</ele>
        <time>2021-07-11T08:17:47.000Z</time>
      </trkpt>
      <trkpt lat="41.37173833" lon="1.13594">
        <ele>653.0</ele>
        <time>2021-07-11T08:17:48.000Z</time>
      </trkpt>
      <trkpt lat="41.37174333" lon="1.13592833">
        <ele>653.0</ele>
        <time>2021-07-11T08:17:49.000Z</time>
      </trkpt>
      <trkpt lat="41.37174833" lon="1.135915">
        <ele>653.0</ele>
        <time>2021-07-11T08:17:50.000Z</time>
      </trkpt>
      <trkpt lat="41.37175333" lon="1.1359">
        <ele>654.0</ele>
        <time>2021-07-11T08:17:51.000Z</time>
      </trkpt>
      <trkpt lat="41.37175667" lon="1.13588167">
        <ele>654.0</ele>
        <time>2021-07-11T08:17:52.000Z</time>
      </trkpt>
      <trkpt lat="41.37176167" lon="1.135865">
        <ele>654.0</ele>
        <time>2021-07-11T08:17:53.000Z</time>
      </trkpt>
      <trkpt lat="41.37176667" lon="1.13584833">
        <ele>654.0</ele>
        <time>2021-07-11T08:17:54.000Z</time>
      </trkpt>
      <trkpt lat="41.37176833" lon="1.13583333">
        <ele>654.0</ele>
        <time>2021-07-11T08:17:55.000Z</time>
      </trkpt>
      <trkpt lat="41.37176833" lon="1.13582">
        <ele>654.0</ele>
        <time>2021-07-11T08:17:56.000Z</time>
      </trkpt>
      <trkpt lat="41.37177" lon="1.135805">
        <ele>654.0</ele>
        <time>2021-07-11T08:17:57.000Z</time>
      </trkpt>
      <trkpt lat="41.37177167" lon="1.13579">
        <ele>655.0</ele>
        <time>2021-07-11T08:17:58.000Z</time>
      </trkpt>
      <trkpt lat="41.37177667" lon="1.13577333">
        <ele>655.0</ele>
        <time>2021-07-11T08:17:59.000Z</time>
      </trkpt>
      <trkpt lat="41.37178" lon="1.13575667">
        <ele>655.0</ele>
        <time>2021-07-11T08:18:00.000Z</time>
      </trkpt>
      <trkpt lat="41.37178167" lon="1.13574">
        <ele>655.0</ele>
        <time>2021-07-11T08:18:01.000Z</time>
      </trkpt>
      <trkpt lat="41.371785" lon="1.135725">
        <ele>655.0</ele>
        <time>2021-07-11T08:18:02.000Z</time>
      </trkpt>
      <trkpt lat="41.37179" lon="1.13571">
        <ele>655.0</ele>
        <time>2021-07-11T08:18:03.000Z</time>
      </trkpt>
      <trkpt lat="41.37179333" lon="1.13569667">
        <ele>655.0</ele>
        <time>2021-07-11T08:18:04.000Z</time>
      </trkpt>
      <trkpt lat="41.371795" lon="1.13568333">
        <ele>655.0</ele>
        <time>2021-07-11T08:18:05.000Z</time>
      </trkpt>
      <trkpt lat="41.37179667" lon="1.13566833">
        <ele>655.0</ele>
        <time>2021-07-11T08:18:06.000Z</time>
      </trkpt>
      <trkpt lat="41.37179667" lon="1.135655">
        <ele>655.0</ele>
        <time>2021-07-11T08:18:07.000Z</time>
      </trkpt>
      <trkpt lat="41.37179833" lon="1.13564167">
        <ele>655.0</ele>
        <time>2021-07-11T08:18:08.000Z</time>
      </trkpt>
      <trkpt lat="41.3718" lon="1.13563">
        <ele>655.0</ele>
        <time>2021-07-11T08:18:09.000Z</time>
      </trkpt>
      <trkpt lat="41.37180167" lon="1.135615">
        <ele>655.0</ele>
        <time>2021-07-11T08:18:10.000Z</time>
      </trkpt>
      <trkpt lat="41.37180167" lon="1.1356">
        <ele>656.0</ele>
        <time>2021-07-11T08:18:11.000Z</time>
      </trkpt>
      <trkpt lat="41.37180167" lon="1.135585">
        <ele>656.0</ele>
        <time>2021-07-11T08:18:12.000Z</time>
      </trkpt>
      <trkpt lat="41.37180167" lon="1.13557167">
        <ele>656.0</ele>
        <time>2021-07-11T08:18:13.000Z</time>
      </trkpt>
      <trkpt lat="41.3718" lon="1.13556167">
        <ele>656.0</ele>
        <time>2021-07-11T08:18:14.000Z</time>
      </trkpt>
      <trkpt lat="41.37179833" lon="1.13555167">
        <ele>656.0</ele>
        <time>2021-07-11T08:18:15.000Z</time>
      </trkpt>
      <trkpt lat="41.37179833" lon="1.13554">
        <ele>656.0</ele>
        <time>2021-07-11T08:18:16.000Z</time>
      </trkpt>
      <trkpt lat="41.3718" lon="1.13552667">
        <ele>656.0</ele>
        <time>2021-07-11T08:18:17.000Z</time>
      </trkpt>
      <trkpt lat="41.3718" lon="1.135515">
        <ele>657.0</ele>
        <time>2021-07-11T08:18:18.000Z</time>
      </trkpt>
      <trkpt lat="41.37180167" lon="1.13550167">
        <ele>657.0</ele>
        <time>2021-07-11T08:18:19.000Z</time>
      </trkpt>
      <trkpt lat="41.371805" lon="1.13548667">
        <ele>657.0</ele>
        <time>2021-07-11T08:18:20.000Z</time>
      </trkpt>
      <trkpt lat="41.371805" lon="1.13547">
        <ele>657.0</ele>
        <time>2021-07-11T08:18:21.000Z</time>
      </trkpt>
      <trkpt lat="41.371805" lon="1.13545167">
        <ele>657.0</ele>
        <time>2021-07-11T08:18:22.000Z</time>
      </trkpt>
      <trkpt lat="41.37180167" lon="1.135435">
        <ele>657.0</ele>
        <time>2021-07-11T08:18:23.000Z</time>
      </trkpt>
      <trkpt lat="41.37179833" lon="1.13541833">
        <ele>657.0</ele>
        <time>2021-07-11T08:18:24.000Z</time>
      </trkpt>
      <trkpt lat="41.37179333" lon="1.13540167">
        <ele>657.0</ele>
        <time>2021-07-11T08:18:25.000Z</time>
      </trkpt>
      <trkpt lat="41.37179" lon="1.13538667">
        <ele>658.0</ele>
        <time>2021-07-11T08:18:26.000Z</time>
      </trkpt>
      <trkpt lat="41.371785" lon="1.13537">
        <ele>658.0</ele>
        <time>2021-07-11T08:18:27.000Z</time>
      </trkpt>
      <trkpt lat="41.37177833" lon="1.13535667">
        <ele>658.0</ele>
        <time>2021-07-11T08:18:28.000Z</time>
      </trkpt>
      <trkpt lat="41.37177167" lon="1.13533833">
        <ele>658.0</ele>
        <time>2021-07-11T08:18:29.000Z</time>
      </trkpt>
      <trkpt lat="41.37176667" lon="1.135325">
        <ele>658.0</ele>
        <time>2021-07-11T08:18:30.000Z</time>
      </trkpt>
      <trkpt lat="41.37176167" lon="1.13531">
        <ele>658.0</ele>
        <time>2021-07-11T08:18:31.000Z</time>
      </trkpt>
      <trkpt lat="41.37175667" lon="1.13529333">
        <ele>658.0</ele>
        <time>2021-07-11T08:18:32.000Z</time>
      </trkpt>
      <trkpt lat="41.37175167" lon="1.13527333">
        <ele>658.0</ele>
        <time>2021-07-11T08:18:33.000Z</time>
      </trkpt>
      <trkpt lat="41.371745" lon="1.135255">
        <ele>658.0</ele>
        <time>2021-07-11T08:18:34.000Z</time>
      </trkpt>
      <trkpt lat="41.37173667" lon="1.13524">
        <ele>658.0</ele>
        <time>2021-07-11T08:18:35.000Z</time>
      </trkpt>
      <trkpt lat="41.37173167" lon="1.135225">
        <ele>658.0</ele>
        <time>2021-07-11T08:18:36.000Z</time>
      </trkpt>
      <trkpt lat="41.371725" lon="1.13521167">
        <ele>658.0</ele>
        <time>2021-07-11T08:18:37.000Z</time>
      </trkpt>
      <trkpt lat="41.37171667" lon="1.1352">
        <ele>658.0</ele>
        <time>2021-07-11T08:18:38.000Z</time>
      </trkpt>
      <trkpt lat="41.37170833" lon="1.135185">
        <ele>658.0</ele>
        <time>2021-07-11T08:18:39.000Z</time>
      </trkpt>
      <trkpt lat="41.37169833" lon="1.13517167">
        <ele>658.0</ele>
        <time>2021-07-11T08:18:40.000Z</time>
      </trkpt>
      <trkpt lat="41.37169167" lon="1.13515667">
        <ele>659.0</ele>
        <time>2021-07-11T08:18:41.000Z</time>
      </trkpt>
      <trkpt lat="41.37168167" lon="1.13514167">
        <ele>659.0</ele>
        <time>2021-07-11T08:18:42.000Z</time>
      </trkpt>
      <trkpt lat="41.37167167" lon="1.13512667">
        <ele>659.0</ele>
        <time>2021-07-11T08:18:43.000Z</time>
      </trkpt>
      <trkpt lat="41.37165833" lon="1.13511333">
        <ele>659.0</ele>
        <time>2021-07-11T08:18:44.000Z</time>
      </trkpt>
      <trkpt lat="41.37164833" lon="1.1351">
        <ele>659.0</ele>
        <time>2021-07-11T08:18:45.000Z</time>
      </trkpt>
      <trkpt lat="41.37163833" lon="1.13508333">
        <ele>659.0</ele>
        <time>2021-07-11T08:18:46.000Z</time>
      </trkpt>
      <trkpt lat="41.37163" lon="1.13507">
        <ele>659.0</ele>
        <time>2021-07-11T08:18:47.000Z</time>
      </trkpt>
      <trkpt lat="41.37162167" lon="1.13505667">
        <ele>659.0</ele>
        <time>2021-07-11T08:18:48.000Z</time>
      </trkpt>
      <trkpt lat="41.37161333" lon="1.13504667">
        <ele>659.0</ele>
        <time>2021-07-11T08:18:49.000Z</time>
      </trkpt>
      <trkpt lat="41.37160667" lon="1.135035">
        <ele>659.0</ele>
        <time>2021-07-11T08:18:50.000Z</time>
      </trkpt>
      <trkpt lat="41.37159833" lon="1.135025">
        <ele>659.0</ele>
        <time>2021-07-11T08:18:51.000Z</time>
      </trkpt>
      <trkpt lat="41.37159" lon="1.13501833">
        <ele>660.0</ele>
        <time>2021-07-11T08:18:52.000Z</time>
      </trkpt>
      <trkpt lat="41.37158" lon="1.13501167">
        <ele>660.0</ele>
        <time>2021-07-11T08:18:53.000Z</time>
      </trkpt>
      <trkpt lat="41.37157167" lon="1.135">
        <ele>660.0</ele>
        <time>2021-07-11T08:18:54.000Z</time>
      </trkpt>
      <trkpt lat="41.371565" lon="1.13498833">
        <ele>660.0</ele>
        <time>2021-07-11T08:18:55.000Z</time>
      </trkpt>
      <trkpt lat="41.37156" lon="1.13497833">
        <ele>660.0</ele>
        <time>2021-07-11T08:18:56.000Z</time>
      </trkpt>
      <trkpt lat="41.37155333" lon="1.13496667">
        <ele>660.0</ele>
        <time>2021-07-11T08:18:57.000Z</time>
      </trkpt>
      <trkpt lat="41.37154833" lon="1.13495833">
        <ele>661.0</ele>
        <time>2021-07-11T08:18:58.000Z</time>
      </trkpt>
      <trkpt lat="41.371545" lon="1.13494833">
        <ele>661.0</ele>
        <time>2021-07-11T08:18:59.000Z</time>
      </trkpt>
      <trkpt lat="41.37154167" lon="1.13493833">
        <ele>661.0</ele>
        <time>2021-07-11T08:19:00.000Z</time>
      </trkpt>
      <trkpt lat="41.371535" lon="1.13492833">
        <ele>661.0</ele>
        <time>2021-07-11T08:19:01.000Z</time>
      </trkpt>
      <trkpt lat="41.37153167" lon="1.13491833">
        <ele>661.0</ele>
        <time>2021-07-11T08:19:02.000Z</time>
      </trkpt>
      <trkpt lat="41.37152833" lon="1.13491">
        <ele>661.0</ele>
        <time>2021-07-11T08:19:03.000Z</time>
      </trkpt>
      <trkpt lat="41.371525" lon="1.1349">
        <ele>661.0</ele>
        <time>2021-07-11T08:19:04.000Z</time>
      </trkpt>
      <trkpt lat="41.37152167" lon="1.13489167">
        <ele>661.0</ele>
        <time>2021-07-11T08:19:05.000Z</time>
      </trkpt>
      <trkpt lat="41.37151667" lon="1.13488">
        <ele>661.0</ele>
        <time>2021-07-11T08:19:06.000Z</time>
      </trkpt>
      <trkpt lat="41.37151" lon="1.13487333">
        <ele>662.0</ele>
        <time>2021-07-11T08:19:07.000Z</time>
      </trkpt>
      <trkpt lat="41.371505" lon="1.13486333">
        <ele>662.0</ele>
        <time>2021-07-11T08:19:08.000Z</time>
      </trkpt>
      <trkpt lat="41.37149833" lon="1.13485333">
        <ele>662.0</ele>
        <time>2021-07-11T08:19:09.000Z</time>
      </trkpt>
      <trkpt lat="41.37149333" lon="1.134845">
        <ele>662.0</ele>
        <time>2021-07-11T08:19:10.000Z</time>
      </trkpt>
      <trkpt lat="41.37149167" lon="1.13484">
        <ele>662.0</ele>
        <time>2021-07-11T08:19:11.000Z</time>
      </trkpt>
      <trkpt lat="41.37148667" lon="1.13483167">
        <ele>662.0</ele>
        <time>2021-07-11T08:19:12.000Z</time>
      </trkpt>
      <trkpt lat="41.37148167" lon="1.13482167">
        <ele>662.0</ele>
        <time>2021-07-11T08:19:13.000Z</time>
      </trkpt>
      <trkpt lat="41.37147833" lon="1.13481167">
        <ele>662.0</ele>
        <time>2021-07-11T08:19:14.000Z</time>
      </trkpt>
      <trkpt lat="41.371475" lon="1.1348">
        <ele>662.0</ele>
        <time>2021-07-11T08:19:15.000Z</time>
      </trkpt>
      <trkpt lat="41.37147167" lon="1.13479">
        <ele>662.0</ele>
        <time>2021-07-11T08:19:16.000Z</time>
      </trkpt>
      <trkpt lat="41.37146833" lon="1.13477667">
        <ele>662.0</ele>
        <time>2021-07-11T08:19:17.000Z</time>
      </trkpt>
      <trkpt lat="41.37146333" lon="1.134765">
        <ele>662.0</ele>
        <time>2021-07-11T08:19:18.000Z</time>
      </trkpt>
      <trkpt lat="41.37146167" lon="1.13475667">
        <ele>663.0</ele>
        <time>2021-07-11T08:19:19.000Z</time>
      </trkpt>
      <trkpt lat="41.37145833" lon="1.13474833">
        <ele>663.0</ele>
        <time>2021-07-11T08:19:20.000Z</time>
      </trkpt>
      <trkpt lat="41.371455" lon="1.13474167">
        <ele>663.0</ele>
        <time>2021-07-11T08:19:21.000Z</time>
      </trkpt>
      <trkpt lat="41.37145333" lon="1.13473667">
        <ele>663.0</ele>
        <time>2021-07-11T08:19:22.000Z</time>
      </trkpt>
      <trkpt lat="41.37145167" lon="1.13473">
        <ele>663.0</ele>
        <time>2021-07-11T08:19:23.000Z</time>
      </trkpt>
      <trkpt lat="41.37145" lon="1.13472333">
        <ele>663.0</ele>
        <time>2021-07-11T08:19:24.000Z</time>
      </trkpt>
      <trkpt lat="41.37145" lon="1.13471833">
        <ele>663.0</ele>
        <time>2021-07-11T08:19:25.000Z</time>
      </trkpt>
      <trkpt lat="41.37144833" lon="1.13470833">
        <ele>663.0</ele>
        <time>2021-07-11T08:19:26.000Z</time>
      </trkpt>
      <trkpt lat="41.37145" lon="1.1347">
        <ele>664.0</ele>
        <time>2021-07-11T08:19:27.000Z</time>
      </trkpt>
      <trkpt lat="41.37145" lon="1.13469167">
        <ele>664.0</ele>
        <time>2021-07-11T08:19:28.000Z</time>
      </trkpt>
      <trkpt lat="41.37145" lon="1.134685">
        <ele>664.0</ele>
        <time>2021-07-11T08:19:29.000Z</time>
      </trkpt>
      <trkpt lat="41.37145167" lon="1.13468">
        <ele>664.0</ele>
        <time>2021-07-11T08:19:30.000Z</time>
      </trkpt>
      <trkpt lat="41.37145167" lon="1.13467667">
        <ele>664.0</ele>
        <time>2021-07-11T08:19:31.000Z</time>
      </trkpt>
      <trkpt lat="41.37145" lon="1.13467">
        <ele>664.0</ele>
        <time>2021-07-11T08:19:32.000Z</time>
      </trkpt>
      <trkpt lat="41.37144667" lon="1.13466167">
        <ele>664.0</ele>
        <time>2021-07-11T08:19:33.000Z</time>
      </trkpt>
      <trkpt lat="41.37144167" lon="1.13465">
        <ele>664.0</ele>
        <time>2021-07-11T08:19:34.000Z</time>
      </trkpt>
      <trkpt lat="41.37143833" lon="1.13464167">
        <ele>664.0</ele>
        <time>2021-07-11T08:19:35.000Z</time>
      </trkpt>
      <trkpt lat="41.371435" lon="1.13463333">
        <ele>664.0</ele>
        <time>2021-07-11T08:19:36.000Z</time>
      </trkpt>
      <trkpt lat="41.37143333" lon="1.134625">
        <ele>665.0</ele>
        <time>2021-07-11T08:19:37.000Z</time>
      </trkpt>
      <trkpt lat="41.37143333" lon="1.13461667">
        <ele>665.0</ele>
        <time>2021-07-11T08:19:38.000Z</time>
      </trkpt>
      <trkpt lat="41.37143167" lon="1.13461">
        <ele>665.0</ele>
        <time>2021-07-11T08:19:39.000Z</time>
      </trkpt>
      <trkpt lat="41.37143167" lon="1.134605">
        <ele>665.0</ele>
        <time>2021-07-11T08:19:40.000Z</time>
      </trkpt>
      <trkpt lat="41.37143333" lon="1.13460167">
        <ele>665.0</ele>
        <time>2021-07-11T08:19:41.000Z</time>
      </trkpt>
      <trkpt lat="41.37143333" lon="1.134595">
        <ele>665.0</ele>
        <time>2021-07-11T08:19:42.000Z</time>
      </trkpt>
      <trkpt lat="41.37143333" lon="1.13459">
        <ele>666.0</ele>
        <time>2021-07-11T08:19:43.000Z</time>
      </trkpt>
      <trkpt lat="41.37143667" lon="1.13458167">
        <ele>666.0</ele>
        <time>2021-07-11T08:19:44.000Z</time>
      </trkpt>
      <trkpt lat="41.37143833" lon="1.134575">
        <ele>666.0</ele>
        <time>2021-07-11T08:19:45.000Z</time>
      </trkpt>
      <trkpt lat="41.37144167" lon="1.13456667">
        <ele>666.0</ele>
        <time>2021-07-11T08:19:46.000Z</time>
      </trkpt>
      <trkpt lat="41.37144667" lon="1.13455667">
        <ele>666.0</ele>
        <time>2021-07-11T08:19:47.000Z</time>
      </trkpt>
      <trkpt lat="41.37145167" lon="1.13454667">
        <ele>666.0</ele>
        <time>2021-07-11T08:19:48.000Z</time>
      </trkpt>
      <trkpt lat="41.37145667" lon="1.13453667">
        <ele>666.0</ele>
        <time>2021-07-11T08:19:49.000Z</time>
      </trkpt>
      <trkpt lat="41.37146" lon="1.13452833">
        <ele>666.0</ele>
        <time>2021-07-11T08:19:50.000Z</time>
      </trkpt>
      <trkpt lat="41.37146167" lon="1.13452333">
        <ele>666.0</ele>
        <time>2021-07-11T08:19:51.000Z</time>
      </trkpt>
      <trkpt lat="41.371465" lon="1.13451333">
        <ele>667.0</ele>
        <time>2021-07-11T08:19:52.000Z</time>
      </trkpt>
      <trkpt lat="41.37146833" lon="1.13450167">
        <ele>667.0</ele>
        <time>2021-07-11T08:19:53.000Z</time>
      </trkpt>
      <trkpt lat="41.37147" lon="1.13449167">
        <ele>667.0</ele>
        <time>2021-07-11T08:19:54.000Z</time>
      </trkpt>
      <trkpt lat="41.37147" lon="1.13448167">
        <ele>667.0</ele>
        <time>2021-07-11T08:19:55.000Z</time>
      </trkpt>
      <trkpt lat="41.37147" lon="1.13447">
        <ele>667.0</ele>
        <time>2021-07-11T08:19:56.000Z</time>
      </trkpt>
      <trkpt lat="41.37147" lon="1.13445667">
        <ele>667.0</ele>
        <time>2021-07-11T08:19:57.000Z</time>
      </trkpt>
      <trkpt lat="41.37147" lon="1.13444333">
        <ele>667.0</ele>
        <time>2021-07-11T08:19:58.000Z</time>
      </trkpt>
      <trkpt lat="41.37147" lon="1.13443167">
        <ele>667.0</ele>
        <time>2021-07-11T08:19:59.000Z</time>
      </trkpt>
      <trkpt lat="41.37147" lon="1.13442167">
        <ele>667.0</ele>
        <time>2021-07-11T08:20:00.000Z</time>
      </trkpt>
      <trkpt lat="41.37146667" lon="1.13441">
        <ele>667.0</ele>
        <time>2021-07-11T08:20:01.000Z</time>
      </trkpt>
      <trkpt lat="41.371465" lon="1.13439833">
        <ele>667.0</ele>
        <time>2021-07-11T08:20:02.000Z</time>
      </trkpt>
      <trkpt lat="41.37146167" lon="1.13438667">
        <ele>667.0</ele>
        <time>2021-07-11T08:20:03.000Z</time>
      </trkpt>
      <trkpt lat="41.37145667" lon="1.13437667">
        <ele>667.0</ele>
        <time>2021-07-11T08:20:04.000Z</time>
      </trkpt>
      <trkpt lat="41.371455" lon="1.13436833">
        <ele>667.0</ele>
        <time>2021-07-11T08:20:05.000Z</time>
      </trkpt>
      <trkpt lat="41.37145333" lon="1.13435833">
        <ele>668.0</ele>
        <time>2021-07-11T08:20:06.000Z</time>
      </trkpt>
      <trkpt lat="41.37145333" lon="1.13434667">
        <ele>668.0</ele>
        <time>2021-07-11T08:20:07.000Z</time>
      </trkpt>
      <trkpt lat="41.37145167" lon="1.134335">
        <ele>668.0</ele>
        <time>2021-07-11T08:20:08.000Z</time>
      </trkpt>
      <trkpt lat="41.37144833" lon="1.13432333">
        <ele>668.0</ele>
        <time>2021-07-11T08:20:09.000Z</time>
      </trkpt>
      <trkpt lat="41.37144833" lon="1.13431167">
        <ele>668.0</ele>
        <time>2021-07-11T08:20:10.000Z</time>
      </trkpt>
      <trkpt lat="41.37145" lon="1.13429833">
        <ele>668.0</ele>
        <time>2021-07-11T08:20:11.000Z</time>
      </trkpt>
      <trkpt lat="41.37145333" lon="1.134285">
        <ele>668.0</ele>
        <time>2021-07-11T08:20:12.000Z</time>
      </trkpt>
      <trkpt lat="41.37145667" lon="1.13427">
        <ele>668.0</ele>
        <time>2021-07-11T08:20:13.000Z</time>
      </trkpt>
      <trkpt lat="41.37146" lon="1.134255">
        <ele>668.0</ele>
        <time>2021-07-11T08:20:14.000Z</time>
      </trkpt>
      <trkpt lat="41.37146333" lon="1.13423833">
        <ele>668.0</ele>
        <time>2021-07-11T08:20:15.000Z</time>
      </trkpt>
      <trkpt lat="41.37146667" lon="1.13422167">
        <ele>669.0</ele>
        <time>2021-07-11T08:20:16.000Z</time>
      </trkpt>
      <trkpt lat="41.37147" lon="1.13420667">
        <ele>669.0</ele>
        <time>2021-07-11T08:20:17.000Z</time>
      </trkpt>
      <trkpt lat="41.37147333" lon="1.13419">
        <ele>669.0</ele>
        <time>2021-07-11T08:20:18.000Z</time>
      </trkpt>
      <trkpt lat="41.37148" lon="1.13417333">
        <ele>669.0</ele>
        <time>2021-07-11T08:20:19.000Z</time>
      </trkpt>
      <trkpt lat="41.37148333" lon="1.134155">
        <ele>669.0</ele>
        <time>2021-07-11T08:20:20.000Z</time>
      </trkpt>
      <trkpt lat="41.37148667" lon="1.13413833">
        <ele>669.0</ele>
        <time>2021-07-11T08:20:21.000Z</time>
      </trkpt>
      <trkpt lat="41.37149167" lon="1.13412">
        <ele>669.0</ele>
        <time>2021-07-11T08:20:22.000Z</time>
      </trkpt>
      <trkpt lat="41.37149667" lon="1.13410333">
        <ele>669.0</ele>
        <time>2021-07-11T08:20:23.000Z</time>
      </trkpt>
      <trkpt lat="41.37150167" lon="1.13408667">
        <ele>669.0</ele>
        <time>2021-07-11T08:20:24.000Z</time>
      </trkpt>
      <trkpt lat="41.37150833" lon="1.13407">
        <ele>669.0</ele>
        <time>2021-07-11T08:20:25.000Z</time>
      </trkpt>
      <trkpt lat="41.37151333" lon="1.13405167">
        <ele>669.0</ele>
        <time>2021-07-11T08:20:26.000Z</time>
      </trkpt>
      <trkpt lat="41.37151667" lon="1.13403667">
        <ele>669.0</ele>
        <time>2021-07-11T08:20:27.000Z</time>
      </trkpt>
      <trkpt lat="41.37152" lon="1.13402167">
        <ele>669.0</ele>
        <time>2021-07-11T08:20:28.000Z</time>
      </trkpt>
      <trkpt lat="41.371525" lon="1.134005">
        <ele>669.0</ele>
        <time>2021-07-11T08:20:29.000Z</time>
      </trkpt>
      <trkpt lat="41.37152833" lon="1.13399">
        <ele>669.0</ele>
        <time>2021-07-11T08:20:30.000Z</time>
      </trkpt>
      <trkpt lat="41.37153167" lon="1.13397333">
        <ele>669.0</ele>
        <time>2021-07-11T08:20:31.000Z</time>
      </trkpt>
      <trkpt lat="41.37153333" lon="1.13395667">
        <ele>670.0</ele>
        <time>2021-07-11T08:20:32.000Z</time>
      </trkpt>
      <trkpt lat="41.37153333" lon="1.13394">
        <ele>670.0</ele>
        <time>2021-07-11T08:20:33.000Z</time>
      </trkpt>
      <trkpt lat="41.37153333" lon="1.13392333">
        <ele>670.0</ele>
        <time>2021-07-11T08:20:34.000Z</time>
      </trkpt>
      <trkpt lat="41.371535" lon="1.13390667">
        <ele>670.0</ele>
        <time>2021-07-11T08:20:35.000Z</time>
      </trkpt>
      <trkpt lat="41.37153167" lon="1.13389">
        <ele>670.0</ele>
        <time>2021-07-11T08:20:36.000Z</time>
      </trkpt>
      <trkpt lat="41.37152833" lon="1.13387333">
        <ele>670.0</ele>
        <time>2021-07-11T08:20:37.000Z</time>
      </trkpt>
      <trkpt lat="41.371525" lon="1.13385667">
        <ele>670.0</ele>
        <time>2021-07-11T08:20:38.000Z</time>
      </trkpt>
      <trkpt lat="41.371525" lon="1.13384">
        <ele>670.0</ele>
        <time>2021-07-11T08:20:39.000Z</time>
      </trkpt>
      <trkpt lat="41.371525" lon="1.133825">
        <ele>671.0</ele>
        <time>2021-07-11T08:20:40.000Z</time>
      </trkpt>
      <trkpt lat="41.371525" lon="1.13381">
        <ele>671.0</ele>
        <time>2021-07-11T08:20:41.000Z</time>
      </trkpt>
      <trkpt lat="41.371525" lon="1.133795">
        <ele>671.0</ele>
        <time>2021-07-11T08:20:42.000Z</time>
      </trkpt>
      <trkpt lat="41.37152667" lon="1.13378">
        <ele>671.0</ele>
        <time>2021-07-11T08:20:43.000Z</time>
      </trkpt>
      <trkpt lat="41.37152667" lon="1.13376833">
        <ele>671.0</ele>
        <time>2021-07-11T08:20:44.000Z</time>
      </trkpt>
      <trkpt lat="41.37152667" lon="1.133755">
        <ele>671.0</ele>
        <time>2021-07-11T08:20:45.000Z</time>
      </trkpt>
      <trkpt lat="41.371525" lon="1.13374167">
        <ele>671.0</ele>
        <time>2021-07-11T08:20:46.000Z</time>
      </trkpt>
      <trkpt lat="41.371525" lon="1.13373">
        <ele>671.0</ele>
        <time>2021-07-11T08:20:47.000Z</time>
      </trkpt>
      <trkpt lat="41.37152833" lon="1.133715">
        <ele>672.0</ele>
        <time>2021-07-11T08:20:48.000Z</time>
      </trkpt>
      <trkpt lat="41.37153167" lon="1.13369833">
        <ele>672.0</ele>
        <time>2021-07-11T08:20:49.000Z</time>
      </trkpt>
      <trkpt lat="41.37153333" lon="1.13368167">
        <ele>672.0</ele>
        <time>2021-07-11T08:20:50.000Z</time>
      </trkpt>
      <trkpt lat="41.371535" lon="1.13366667">
        <ele>672.0</ele>
        <time>2021-07-11T08:20:51.000Z</time>
      </trkpt>
      <trkpt lat="41.37153833" lon="1.13365167">
        <ele>672.0</ele>
        <time>2021-07-11T08:20:52.000Z</time>
      </trkpt>
      <trkpt lat="41.37154" lon="1.13363667">
        <ele>672.0</ele>
        <time>2021-07-11T08:20:53.000Z</time>
      </trkpt>
      <trkpt lat="41.37154333" lon="1.13362">
        <ele>672.0</ele>
        <time>2021-07-11T08:20:54.000Z</time>
      </trkpt>
      <trkpt lat="41.371545" lon="1.13359833">
        <ele>673.0</ele>
        <time>2021-07-11T08:20:55.000Z</time>
      </trkpt>
      <trkpt lat="41.371545" lon="1.13357667">
        <ele>673.0</ele>
        <time>2021-07-11T08:20:56.000Z</time>
      </trkpt>
      <trkpt lat="41.37154667" lon="1.133555">
        <ele>673.0</ele>
        <time>2021-07-11T08:20:57.000Z</time>
      </trkpt>
      <trkpt lat="41.37154833" lon="1.133535">
        <ele>673.0</ele>
        <time>2021-07-11T08:20:58.000Z</time>
      </trkpt>
      <trkpt lat="41.37155" lon="1.13351667">
        <ele>673.0</ele>
        <time>2021-07-11T08:20:59.000Z</time>
      </trkpt>
      <trkpt lat="41.37155167" lon="1.13350167">
        <ele>673.0</ele>
        <time>2021-07-11T08:21:00.000Z</time>
      </trkpt>
      <trkpt lat="41.371555" lon="1.133485">
        <ele>673.0</ele>
        <time>2021-07-11T08:21:01.000Z</time>
      </trkpt>
      <trkpt lat="41.37156" lon="1.13346833">
        <ele>673.0</ele>
        <time>2021-07-11T08:21:02.000Z</time>
      </trkpt>
      <trkpt lat="41.37156667" lon="1.13345333">
        <ele>673.0</ele>
        <time>2021-07-11T08:21:03.000Z</time>
      </trkpt>
      <trkpt lat="41.37157167" lon="1.133435">
        <ele>673.0</ele>
        <time>2021-07-11T08:21:04.000Z</time>
      </trkpt>
      <trkpt lat="41.37157667" lon="1.13341833">
        <ele>673.0</ele>
        <time>2021-07-11T08:21:05.000Z</time>
      </trkpt>
      <trkpt lat="41.371585" lon="1.13340167">
        <ele>673.0</ele>
        <time>2021-07-11T08:21:06.000Z</time>
      </trkpt>
      <trkpt lat="41.37159167" lon="1.13338667">
        <ele>673.0</ele>
        <time>2021-07-11T08:21:07.000Z</time>
      </trkpt>
      <trkpt lat="41.37159833" lon="1.133375">
        <ele>673.0</ele>
        <time>2021-07-11T08:21:08.000Z</time>
      </trkpt>
      <trkpt lat="41.37160333" lon="1.13336333">
        <ele>673.0</ele>
        <time>2021-07-11T08:21:09.000Z</time>
      </trkpt>
      <trkpt lat="41.37160833" lon="1.13335167">
        <ele>673.0</ele>
        <time>2021-07-11T08:21:10.000Z</time>
      </trkpt>
      <trkpt lat="41.37161333" lon="1.13334">
        <ele>674.0</ele>
        <time>2021-07-11T08:21:11.000Z</time>
      </trkpt>
      <trkpt lat="41.37161833" lon="1.13332667">
        <ele>674.0</ele>
        <time>2021-07-11T08:21:12.000Z</time>
      </trkpt>
      <trkpt lat="41.37162333" lon="1.13331333">
        <ele>674.0</ele>
        <time>2021-07-11T08:21:13.000Z</time>
      </trkpt>
      <trkpt lat="41.37162833" lon="1.1333">
        <ele>674.0</ele>
        <time>2021-07-11T08:21:14.000Z</time>
      </trkpt>
      <trkpt lat="41.37163" lon="1.13329">
        <ele>674.0</ele>
        <time>2021-07-11T08:21:15.000Z</time>
      </trkpt>
      <trkpt lat="41.37163333" lon="1.13328167">
        <ele>674.0</ele>
        <time>2021-07-11T08:21:16.000Z</time>
      </trkpt>
      <trkpt lat="41.37163833" lon="1.13327167">
        <ele>674.0</ele>
        <time>2021-07-11T08:21:17.000Z</time>
      </trkpt>
      <trkpt lat="41.37164167" lon="1.13326167">
        <ele>674.0</ele>
        <time>2021-07-11T08:21:18.000Z</time>
      </trkpt>
      <trkpt lat="41.371645" lon="1.13325167">
        <ele>674.0</ele>
        <time>2021-07-11T08:21:19.000Z</time>
      </trkpt>
      <trkpt lat="41.37164833" lon="1.13324167">
        <ele>674.0</ele>
        <time>2021-07-11T08:21:20.000Z</time>
      </trkpt>
      <trkpt lat="41.37165333" lon="1.13323">
        <ele>675.0</ele>
        <time>2021-07-11T08:21:21.000Z</time>
      </trkpt>
      <trkpt lat="41.37165667" lon="1.13322">
        <ele>675.0</ele>
        <time>2021-07-11T08:21:22.000Z</time>
      </trkpt>
      <trkpt lat="41.37166167" lon="1.13320833">
        <ele>675.0</ele>
        <time>2021-07-11T08:21:23.000Z</time>
      </trkpt>
      <trkpt lat="41.37166667" lon="1.13319833">
        <ele>675.0</ele>
        <time>2021-07-11T08:21:24.000Z</time>
      </trkpt>
      <trkpt lat="41.37167" lon="1.13318833">
        <ele>675.0</ele>
        <time>2021-07-11T08:21:25.000Z</time>
      </trkpt>
      <trkpt lat="41.371675" lon="1.13317833">
        <ele>675.0</ele>
        <time>2021-07-11T08:21:26.000Z</time>
      </trkpt>
      <trkpt lat="41.37168" lon="1.13316833">
        <ele>675.0</ele>
        <time>2021-07-11T08:21:27.000Z</time>
      </trkpt>
      <trkpt lat="41.371685" lon="1.13315667">
        <ele>675.0</ele>
        <time>2021-07-11T08:21:28.000Z</time>
      </trkpt>
      <trkpt lat="41.37169" lon="1.13314667">
        <ele>675.0</ele>
        <time>2021-07-11T08:21:29.000Z</time>
      </trkpt>
      <trkpt lat="41.37169667" lon="1.13314">
        <ele>676.0</ele>
        <time>2021-07-11T08:21:30.000Z</time>
      </trkpt>
      <trkpt lat="41.371705" lon="1.13313">
        <ele>676.0</ele>
        <time>2021-07-11T08:21:31.000Z</time>
      </trkpt>
      <trkpt lat="41.37171333" lon="1.13312167">
        <ele>676.0</ele>
        <time>2021-07-11T08:21:32.000Z</time>
      </trkpt>
      <trkpt lat="41.37172167" lon="1.13311">
        <ele>676.0</ele>
        <time>2021-07-11T08:21:33.000Z</time>
      </trkpt>
      <trkpt lat="41.37173" lon="1.13310167">
        <ele>676.0</ele>
        <time>2021-07-11T08:21:34.000Z</time>
      </trkpt>
      <trkpt lat="41.37173833" lon="1.13309333">
        <ele>676.0</ele>
        <time>2021-07-11T08:21:35.000Z</time>
      </trkpt>
      <trkpt lat="41.371745" lon="1.13308667">
        <ele>676.0</ele>
        <time>2021-07-11T08:21:36.000Z</time>
      </trkpt>
      <trkpt lat="41.37175167" lon="1.13308167">
        <ele>676.0</ele>
        <time>2021-07-11T08:21:37.000Z</time>
      </trkpt>
      <trkpt lat="41.37175833" lon="1.13307667">
        <ele>677.0</ele>
        <time>2021-07-11T08:21:38.000Z</time>
      </trkpt>
      <trkpt lat="41.371765" lon="1.13307">
        <ele>677.0</ele>
        <time>2021-07-11T08:21:39.000Z</time>
      </trkpt>
      <trkpt lat="41.37177333" lon="1.13306167">
        <ele>677.0</ele>
        <time>2021-07-11T08:21:40.000Z</time>
      </trkpt>
      <trkpt lat="41.37178333" lon="1.13305333">
        <ele>677.0</ele>
        <time>2021-07-11T08:21:41.000Z</time>
      </trkpt>
      <trkpt lat="41.37179333" lon="1.13304667">
        <ele>677.0</ele>
        <time>2021-07-11T08:21:42.000Z</time>
      </trkpt>
      <trkpt lat="41.37180333" lon="1.13304">
        <ele>678.0</ele>
        <time>2021-07-11T08:21:43.000Z</time>
      </trkpt>
      <trkpt lat="41.37181667" lon="1.13303667">
        <ele>678.0</ele>
        <time>2021-07-11T08:21:44.000Z</time>
      </trkpt>
      <trkpt lat="41.37182833" lon="1.13303333">
        <ele>678.0</ele>
        <time>2021-07-11T08:21:45.000Z</time>
      </trkpt>
      <trkpt lat="41.37184" lon="1.13302833">
        <ele>678.0</ele>
        <time>2021-07-11T08:21:46.000Z</time>
      </trkpt>
      <trkpt lat="41.37185" lon="1.13302167">
        <ele>678.0</ele>
        <time>2021-07-11T08:21:47.000Z</time>
      </trkpt>
      <trkpt lat="41.37186333" lon="1.133015">
        <ele>678.0</ele>
        <time>2021-07-11T08:21:48.000Z</time>
      </trkpt>
      <trkpt lat="41.371875" lon="1.13301333">
        <ele>679.0</ele>
        <time>2021-07-11T08:21:49.000Z</time>
      </trkpt>
      <trkpt lat="41.37188667" lon="1.13301167">
        <ele>679.0</ele>
        <time>2021-07-11T08:21:50.000Z</time>
      </trkpt>
      <trkpt lat="41.37189667" lon="1.13300667">
        <ele>679.0</ele>
        <time>2021-07-11T08:21:51.000Z</time>
      </trkpt>
      <trkpt lat="41.37190833" lon="1.13300333">
        <ele>679.0</ele>
        <time>2021-07-11T08:21:52.000Z</time>
      </trkpt>
      <trkpt lat="41.37192" lon="1.133">
        <ele>680.0</ele>
        <time>2021-07-11T08:21:53.000Z</time>
      </trkpt>
      <trkpt lat="41.37193167" lon="1.13299667">
        <ele>680.0</ele>
        <time>2021-07-11T08:21:54.000Z</time>
      </trkpt>
      <trkpt lat="41.37194333" lon="1.13299167">
        <ele>680.0</ele>
        <time>2021-07-11T08:21:55.000Z</time>
      </trkpt>
      <trkpt lat="41.371955" lon="1.13298833">
        <ele>680.0</ele>
        <time>2021-07-11T08:21:56.000Z</time>
      </trkpt>
      <trkpt lat="41.37196833" lon="1.13298833">
        <ele>681.0</ele>
        <time>2021-07-11T08:21:57.000Z</time>
      </trkpt>
      <trkpt lat="41.37198" lon="1.13298667">
        <ele>681.0</ele>
        <time>2021-07-11T08:21:58.000Z</time>
      </trkpt>
      <trkpt lat="41.37199167" lon="1.13298667">
        <ele>681.0</ele>
        <time>2021-07-11T08:21:59.000Z</time>
      </trkpt>
      <trkpt lat="41.37200333" lon="1.13298333">
        <ele>681.0</ele>
        <time>2021-07-11T08:22:00.000Z</time>
      </trkpt>
      <trkpt lat="41.37201667" lon="1.13298">
        <ele>682.0</ele>
        <time>2021-07-11T08:22:01.000Z</time>
      </trkpt>
      <trkpt lat="41.37202833" lon="1.13297833">
        <ele>682.0</ele>
        <time>2021-07-11T08:22:02.000Z</time>
      </trkpt>
      <trkpt lat="41.37204167" lon="1.132975">
        <ele>682.0</ele>
        <time>2021-07-11T08:22:03.000Z</time>
      </trkpt>
      <trkpt lat="41.37205667" lon="1.13297">
        <ele>682.0</ele>
        <time>2021-07-11T08:22:04.000Z</time>
      </trkpt>
      <trkpt lat="41.37206833" lon="1.13296333">
        <ele>682.0</ele>
        <time>2021-07-11T08:22:05.000Z</time>
      </trkpt>
      <trkpt lat="41.37208167" lon="1.13295833">
        <ele>682.0</ele>
        <time>2021-07-11T08:22:06.000Z</time>
      </trkpt>
      <trkpt lat="41.37209333" lon="1.132955">
        <ele>682.0</ele>
        <time>2021-07-11T08:22:07.000Z</time>
      </trkpt>
      <trkpt lat="41.372105" lon="1.13295333">
        <ele>682.0</ele>
        <time>2021-07-11T08:22:08.000Z</time>
      </trkpt>
      <trkpt lat="41.37211667" lon="1.13295">
        <ele>682.0</ele>
        <time>2021-07-11T08:22:09.000Z</time>
      </trkpt>
      <trkpt lat="41.37212833" lon="1.13294667">
        <ele>682.0</ele>
        <time>2021-07-11T08:22:10.000Z</time>
      </trkpt>
      <trkpt lat="41.37213833" lon="1.13294167">
        <ele>683.0</ele>
        <time>2021-07-11T08:22:11.000Z</time>
      </trkpt>
      <trkpt lat="41.37214833" lon="1.13293833">
        <ele>683.0</ele>
        <time>2021-07-11T08:22:12.000Z</time>
      </trkpt>
      <trkpt lat="41.37215833" lon="1.132935">
        <ele>683.0</ele>
        <time>2021-07-11T08:22:13.000Z</time>
      </trkpt>
      <trkpt lat="41.37216833" lon="1.13292833">
        <ele>683.0</ele>
        <time>2021-07-11T08:22:14.000Z</time>
      </trkpt>
      <trkpt lat="41.37217833" lon="1.13292333">
        <ele>683.0</ele>
        <time>2021-07-11T08:22:15.000Z</time>
      </trkpt>
      <trkpt lat="41.37219" lon="1.13291833">
        <ele>683.0</ele>
        <time>2021-07-11T08:22:16.000Z</time>
      </trkpt>
      <trkpt lat="41.37219833" lon="1.13291333">
        <ele>683.0</ele>
        <time>2021-07-11T08:22:17.000Z</time>
      </trkpt>
      <trkpt lat="41.37220833" lon="1.13290667">
        <ele>683.0</ele>
        <time>2021-07-11T08:22:18.000Z</time>
      </trkpt>
      <trkpt lat="41.37221833" lon="1.13290167">
        <ele>683.0</ele>
        <time>2021-07-11T08:22:19.000Z</time>
      </trkpt>
      <trkpt lat="41.37222833" lon="1.13289667">
        <ele>683.0</ele>
        <time>2021-07-11T08:22:20.000Z</time>
      </trkpt>
      <trkpt lat="41.37223833" lon="1.13289167">
        <ele>683.0</ele>
        <time>2021-07-11T08:22:21.000Z</time>
      </trkpt>
      <trkpt lat="41.37225" lon="1.13288333">
        <ele>683.0</ele>
        <time>2021-07-11T08:22:22.000Z</time>
      </trkpt>
      <trkpt lat="41.37226167" lon="1.13287667">
        <ele>683.0</ele>
        <time>2021-07-11T08:22:23.000Z</time>
      </trkpt>
      <trkpt lat="41.37227167" lon="1.13287">
        <ele>683.0</ele>
        <time>2021-07-11T08:22:24.000Z</time>
      </trkpt>
      <trkpt lat="41.37228333" lon="1.13286">
        <ele>683.0</ele>
        <time>2021-07-11T08:22:25.000Z</time>
      </trkpt>
      <trkpt lat="41.372295" lon="1.13284833">
        <ele>683.0</ele>
        <time>2021-07-11T08:22:26.000Z</time>
      </trkpt>
      <trkpt lat="41.37230667" lon="1.13283833">
        <ele>683.0</ele>
        <time>2021-07-11T08:22:27.000Z</time>
      </trkpt>
      <trkpt lat="41.37232" lon="1.13283">
        <ele>683.0</ele>
        <time>2021-07-11T08:22:28.000Z</time>
      </trkpt>
      <trkpt lat="41.37233167" lon="1.132825">
        <ele>683.0</ele>
        <time>2021-07-11T08:22:29.000Z</time>
      </trkpt>
      <trkpt lat="41.37234167" lon="1.13281667">
        <ele>683.0</ele>
        <time>2021-07-11T08:22:30.000Z</time>
      </trkpt>
      <trkpt lat="41.37235167" lon="1.13280833">
        <ele>683.0</ele>
        <time>2021-07-11T08:22:31.000Z</time>
      </trkpt>
      <trkpt lat="41.37236" lon="1.13279833">
        <ele>683.0</ele>
        <time>2021-07-11T08:22:32.000Z</time>
      </trkpt>
      <trkpt lat="41.372365" lon="1.13278667">
        <ele>683.0</ele>
        <time>2021-07-11T08:22:33.000Z</time>
      </trkpt>
      <trkpt lat="41.37237333" lon="1.13277667">
        <ele>683.0</ele>
        <time>2021-07-11T08:22:34.000Z</time>
      </trkpt>
      <trkpt lat="41.37238" lon="1.13276833">
        <ele>683.0</ele>
        <time>2021-07-11T08:22:35.000Z</time>
      </trkpt>
      <trkpt lat="41.37238833" lon="1.13276">
        <ele>683.0</ele>
        <time>2021-07-11T08:22:36.000Z</time>
      </trkpt>
      <trkpt lat="41.37239667" lon="1.13275">
        <ele>683.0</ele>
        <time>2021-07-11T08:22:37.000Z</time>
      </trkpt>
      <trkpt lat="41.37240667" lon="1.13273833">
        <ele>683.0</ele>
        <time>2021-07-11T08:22:38.000Z</time>
      </trkpt>
      <trkpt lat="41.372415" lon="1.13272667">
        <ele>683.0</ele>
        <time>2021-07-11T08:22:39.000Z</time>
      </trkpt>
      <trkpt lat="41.37242333" lon="1.132715">
        <ele>683.0</ele>
        <time>2021-07-11T08:22:40.000Z</time>
      </trkpt>
      <trkpt lat="41.37243333" lon="1.132705">
        <ele>683.0</ele>
        <time>2021-07-11T08:22:41.000Z</time>
      </trkpt>
      <trkpt lat="41.37244333" lon="1.132695">
        <ele>683.0</ele>
        <time>2021-07-11T08:22:42.000Z</time>
      </trkpt>
      <trkpt lat="41.37245167" lon="1.13268667">
        <ele>683.0</ele>
        <time>2021-07-11T08:22:43.000Z</time>
      </trkpt>
      <trkpt lat="41.37246" lon="1.13267667">
        <ele>683.0</ele>
        <time>2021-07-11T08:22:44.000Z</time>
      </trkpt>
      <trkpt lat="41.37247" lon="1.132665">
        <ele>684.0</ele>
        <time>2021-07-11T08:22:45.000Z</time>
      </trkpt>
      <trkpt lat="41.37248" lon="1.13265167">
        <ele>684.0</ele>
        <time>2021-07-11T08:22:46.000Z</time>
      </trkpt>
      <trkpt lat="41.37248833" lon="1.13263833">
        <ele>684.0</ele>
        <time>2021-07-11T08:22:47.000Z</time>
      </trkpt>
      <trkpt lat="41.37249667" lon="1.132625">
        <ele>684.0</ele>
        <time>2021-07-11T08:22:48.000Z</time>
      </trkpt>
      <trkpt lat="41.37250333" lon="1.13261">
        <ele>684.0</ele>
        <time>2021-07-11T08:22:49.000Z</time>
      </trkpt>
      <trkpt lat="41.37251" lon="1.132595">
        <ele>684.0</ele>
        <time>2021-07-11T08:22:50.000Z</time>
      </trkpt>
      <trkpt lat="41.37251667" lon="1.13258333">
        <ele>684.0</ele>
        <time>2021-07-11T08:22:51.000Z</time>
      </trkpt>
      <trkpt lat="41.372525" lon="1.13257167">
        <ele>684.0</ele>
        <time>2021-07-11T08:22:52.000Z</time>
      </trkpt>
      <trkpt lat="41.37253167" lon="1.13255833">
        <ele>684.0</ele>
        <time>2021-07-11T08:22:53.000Z</time>
      </trkpt>
      <trkpt lat="41.37253667" lon="1.13254667">
        <ele>684.0</ele>
        <time>2021-07-11T08:22:54.000Z</time>
      </trkpt>
      <trkpt lat="41.372545" lon="1.13253">
        <ele>684.0</ele>
        <time>2021-07-11T08:22:55.000Z</time>
      </trkpt>
      <trkpt lat="41.37255333" lon="1.132515">
        <ele>684.0</ele>
        <time>2021-07-11T08:22:56.000Z</time>
      </trkpt>
      <trkpt lat="41.37256" lon="1.13250167">
        <ele>684.0</ele>
        <time>2021-07-11T08:22:57.000Z</time>
      </trkpt>
      <trkpt lat="41.372565" lon="1.13248833">
        <ele>684.0</ele>
        <time>2021-07-11T08:22:58.000Z</time>
      </trkpt>
      <trkpt lat="41.37257" lon="1.13247333">
        <ele>684.0</ele>
        <time>2021-07-11T08:22:59.000Z</time>
      </trkpt>
      <trkpt lat="41.37257333" lon="1.13245667">
        <ele>684.0</ele>
        <time>2021-07-11T08:23:00.000Z</time>
      </trkpt>
      <trkpt lat="41.37257833" lon="1.13244167">
        <ele>684.0</ele>
        <time>2021-07-11T08:23:01.000Z</time>
      </trkpt>
      <trkpt lat="41.37258333" lon="1.13242333">
        <ele>684.0</ele>
        <time>2021-07-11T08:23:02.000Z</time>
      </trkpt>
      <trkpt lat="41.37258667" lon="1.132405">
        <ele>684.0</ele>
        <time>2021-07-11T08:23:03.000Z</time>
      </trkpt>
      <trkpt lat="41.37259" lon="1.13238833">
        <ele>684.0</ele>
        <time>2021-07-11T08:23:04.000Z</time>
      </trkpt>
      <trkpt lat="41.37259167" lon="1.13237167">
        <ele>684.0</ele>
        <time>2021-07-11T08:23:05.000Z</time>
      </trkpt>
      <trkpt lat="41.37259333" lon="1.13235667">
        <ele>684.0</ele>
        <time>2021-07-11T08:23:06.000Z</time>
      </trkpt>
      <trkpt lat="41.372595" lon="1.13234167">
        <ele>684.0</ele>
        <time>2021-07-11T08:23:07.000Z</time>
      </trkpt>
      <trkpt lat="41.37259667" lon="1.13232833">
        <ele>684.0</ele>
        <time>2021-07-11T08:23:08.000Z</time>
      </trkpt>
      <trkpt lat="41.37259667" lon="1.132315">
        <ele>684.0</ele>
        <time>2021-07-11T08:23:09.000Z</time>
      </trkpt>
      <trkpt lat="41.372595" lon="1.132305">
        <ele>684.0</ele>
        <time>2021-07-11T08:23:10.000Z</time>
      </trkpt>
      <trkpt lat="41.372595" lon="1.13229333">
        <ele>684.0</ele>
        <time>2021-07-11T08:23:11.000Z</time>
      </trkpt>
      <trkpt lat="41.372595" lon="1.13228333">
        <ele>684.0</ele>
        <time>2021-07-11T08:23:12.000Z</time>
      </trkpt>
      <trkpt lat="41.37259667" lon="1.13226833">
        <ele>685.0</ele>
        <time>2021-07-11T08:23:13.000Z</time>
      </trkpt>
      <trkpt lat="41.37259833" lon="1.13225333">
        <ele>685.0</ele>
        <time>2021-07-11T08:23:14.000Z</time>
      </trkpt>
      <trkpt lat="41.37259833" lon="1.13223833">
        <ele>685.0</ele>
        <time>2021-07-11T08:23:15.000Z</time>
      </trkpt>
      <trkpt lat="41.37259833" lon="1.13222167">
        <ele>685.0</ele>
        <time>2021-07-11T08:23:16.000Z</time>
      </trkpt>
      <trkpt lat="41.37259667" lon="1.132205">
        <ele>685.0</ele>
        <time>2021-07-11T08:23:17.000Z</time>
      </trkpt>
      <trkpt lat="41.372595" lon="1.13218667">
        <ele>685.0</ele>
        <time>2021-07-11T08:23:18.000Z</time>
      </trkpt>
      <trkpt lat="41.372595" lon="1.13217">
        <ele>685.0</ele>
        <time>2021-07-11T08:23:19.000Z</time>
      </trkpt>
      <trkpt lat="41.37259333" lon="1.13215">
        <ele>685.0</ele>
        <time>2021-07-11T08:23:20.000Z</time>
      </trkpt>
      <trkpt lat="41.37259167" lon="1.13213333">
        <ele>685.0</ele>
        <time>2021-07-11T08:23:21.000Z</time>
      </trkpt>
      <trkpt lat="41.37259167" lon="1.132115">
        <ele>685.0</ele>
        <time>2021-07-11T08:23:22.000Z</time>
      </trkpt>
      <trkpt lat="41.37259167" lon="1.13209667">
        <ele>685.0</ele>
        <time>2021-07-11T08:23:23.000Z</time>
      </trkpt>
      <trkpt lat="41.37259167" lon="1.13208">
        <ele>685.0</ele>
        <time>2021-07-11T08:23:24.000Z</time>
      </trkpt>
      <trkpt lat="41.37259333" lon="1.13206333">
        <ele>685.0</ele>
        <time>2021-07-11T08:23:25.000Z</time>
      </trkpt>
      <trkpt lat="41.372595" lon="1.13204667">
        <ele>685.0</ele>
        <time>2021-07-11T08:23:26.000Z</time>
      </trkpt>
      <trkpt lat="41.37259667" lon="1.13203">
        <ele>685.0</ele>
        <time>2021-07-11T08:23:27.000Z</time>
      </trkpt>
      <trkpt lat="41.3726" lon="1.13201333">
        <ele>685.0</ele>
        <time>2021-07-11T08:23:28.000Z</time>
      </trkpt>
      <trkpt lat="41.372605" lon="1.131995">
        <ele>685.0</ele>
        <time>2021-07-11T08:23:29.000Z</time>
      </trkpt>
      <trkpt lat="41.37261" lon="1.13197833">
        <ele>685.0</ele>
        <time>2021-07-11T08:23:30.000Z</time>
      </trkpt>
      <trkpt lat="41.37261167" lon="1.13196333">
        <ele>686.0</ele>
        <time>2021-07-11T08:23:31.000Z</time>
      </trkpt>
      <trkpt lat="41.37261167" lon="1.13195">
        <ele>686.0</ele>
        <time>2021-07-11T08:23:32.000Z</time>
      </trkpt>
      <trkpt lat="41.37261" lon="1.131935">
        <ele>686.0</ele>
        <time>2021-07-11T08:23:33.000Z</time>
      </trkpt>
      <trkpt lat="41.37261" lon="1.13192167">
        <ele>686.0</ele>
        <time>2021-07-11T08:23:34.000Z</time>
      </trkpt>
      <trkpt lat="41.37261" lon="1.13190667">
        <ele>686.0</ele>
        <time>2021-07-11T08:23:35.000Z</time>
      </trkpt>
      <trkpt lat="41.37261167" lon="1.13189167">
        <ele>686.0</ele>
        <time>2021-07-11T08:23:36.000Z</time>
      </trkpt>
      <trkpt lat="41.37261333" lon="1.13187667">
        <ele>687.0</ele>
        <time>2021-07-11T08:23:37.000Z</time>
      </trkpt>
      <trkpt lat="41.37261333" lon="1.13186333">
        <ele>687.0</ele>
        <time>2021-07-11T08:23:38.000Z</time>
      </trkpt>
      <trkpt lat="41.37261333" lon="1.13185167">
        <ele>688.0</ele>
        <time>2021-07-11T08:23:39.000Z</time>
      </trkpt>
      <trkpt lat="41.37261333" lon="1.13184">
        <ele>688.0</ele>
        <time>2021-07-11T08:23:40.000Z</time>
      </trkpt>
      <trkpt lat="41.37261167" lon="1.13182667">
        <ele>688.0</ele>
        <time>2021-07-11T08:23:41.000Z</time>
      </trkpt>
      <trkpt lat="41.37261" lon="1.13181167">
        <ele>688.0</ele>
        <time>2021-07-11T08:23:42.000Z</time>
      </trkpt>
      <trkpt lat="41.37260667" lon="1.13179833">
        <ele>688.0</ele>
        <time>2021-07-11T08:23:43.000Z</time>
      </trkpt>
      <trkpt lat="41.3726" lon="1.131785">
        <ele>688.0</ele>
        <time>2021-07-11T08:23:44.000Z</time>
      </trkpt>
      <trkpt lat="41.37259667" lon="1.13177333">
        <ele>689.0</ele>
        <time>2021-07-11T08:23:45.000Z</time>
      </trkpt>
      <trkpt lat="41.37259333" lon="1.13175833">
        <ele>689.0</ele>
        <time>2021-07-11T08:23:46.000Z</time>
      </trkpt>
      <trkpt lat="41.37259" lon="1.13175">
        <ele>689.0</ele>
        <time>2021-07-11T08:23:47.000Z</time>
      </trkpt>
      <trkpt lat="41.372585" lon="1.13174167">
        <ele>689.0</ele>
        <time>2021-07-11T08:23:48.000Z</time>
      </trkpt>
      <trkpt lat="41.37258333" lon="1.13173333">
        <ele>689.0</ele>
        <time>2021-07-11T08:23:49.000Z</time>
      </trkpt>
      <trkpt lat="41.37258167" lon="1.13172333">
        <ele>689.0</ele>
        <time>2021-07-11T08:23:50.000Z</time>
      </trkpt>
      <trkpt lat="41.37258333" lon="1.13171333">
        <ele>690.0</ele>
        <time>2021-07-11T08:23:51.000Z</time>
      </trkpt>
      <trkpt lat="41.37258167" lon="1.13170167">
        <ele>690.0</ele>
        <time>2021-07-11T08:23:52.000Z</time>
      </trkpt>
      <trkpt lat="41.37258167" lon="1.13169167">
        <ele>690.0</ele>
        <time>2021-07-11T08:23:53.000Z</time>
      </trkpt>
      <trkpt lat="41.37258167" lon="1.13168">
        <ele>690.0</ele>
        <time>2021-07-11T08:23:54.000Z</time>
      </trkpt>
      <trkpt lat="41.37258333" lon="1.13166667">
        <ele>690.0</ele>
        <time>2021-07-11T08:23:55.000Z</time>
      </trkpt>
      <trkpt lat="41.37258333" lon="1.13165333">
        <ele>691.0</ele>
        <time>2021-07-11T08:23:56.000Z</time>
      </trkpt>
      <trkpt lat="41.37258333" lon="1.13164">
        <ele>691.0</ele>
        <time>2021-07-11T08:23:57.000Z</time>
      </trkpt>
      <trkpt lat="41.37258167" lon="1.131625">
        <ele>691.0</ele>
        <time>2021-07-11T08:23:58.000Z</time>
      </trkpt>
      <trkpt lat="41.37258167" lon="1.13161">
        <ele>691.0</ele>
        <time>2021-07-11T08:23:59.000Z</time>
      </trkpt>
      <trkpt lat="41.37258" lon="1.13159667">
        <ele>691.0</ele>
        <time>2021-07-11T08:24:00.000Z</time>
      </trkpt>
      <trkpt lat="41.37257833" lon="1.13158">
        <ele>691.0</ele>
        <time>2021-07-11T08:24:01.000Z</time>
      </trkpt>
      <trkpt lat="41.372575" lon="1.131565">
        <ele>691.0</ele>
        <time>2021-07-11T08:24:02.000Z</time>
      </trkpt>
      <trkpt lat="41.372575" lon="1.13155">
        <ele>691.0</ele>
        <time>2021-07-11T08:24:03.000Z</time>
      </trkpt>
      <trkpt lat="41.372575" lon="1.131535">
        <ele>691.0</ele>
        <time>2021-07-11T08:24:04.000Z</time>
      </trkpt>
      <trkpt lat="41.372575" lon="1.13152">
        <ele>692.0</ele>
        <time>2021-07-11T08:24:05.000Z</time>
      </trkpt>
      <trkpt lat="41.372575" lon="1.13150333">
        <ele>692.0</ele>
        <time>2021-07-11T08:24:06.000Z</time>
      </trkpt>
      <trkpt lat="41.37257333" lon="1.13148833">
        <ele>692.0</ele>
        <time>2021-07-11T08:24:07.000Z</time>
      </trkpt>
      <trkpt lat="41.37257" lon="1.131475">
        <ele>692.0</ele>
        <time>2021-07-11T08:24:08.000Z</time>
      </trkpt>
      <trkpt lat="41.37256667" lon="1.13146167">
        <ele>692.0</ele>
        <time>2021-07-11T08:24:09.000Z</time>
      </trkpt>
      <trkpt lat="41.37256167" lon="1.13144833">
        <ele>692.0</ele>
        <time>2021-07-11T08:24:10.000Z</time>
      </trkpt>
      <trkpt lat="41.37256" lon="1.13143333">
        <ele>692.0</ele>
        <time>2021-07-11T08:24:11.000Z</time>
      </trkpt>
      <trkpt lat="41.37256" lon="1.13141833">
        <ele>692.0</ele>
        <time>2021-07-11T08:24:12.000Z</time>
      </trkpt>
      <trkpt lat="41.37256" lon="1.13140333">
        <ele>692.0</ele>
        <time>2021-07-11T08:24:13.000Z</time>
      </trkpt>
      <trkpt lat="41.37255833" lon="1.13139">
        <ele>692.0</ele>
        <time>2021-07-11T08:24:14.000Z</time>
      </trkpt>
      <trkpt lat="41.372555" lon="1.13137833">
        <ele>692.0</ele>
        <time>2021-07-11T08:24:15.000Z</time>
      </trkpt>
      <trkpt lat="41.37255333" lon="1.13136667">
        <ele>692.0</ele>
        <time>2021-07-11T08:24:16.000Z</time>
      </trkpt>
      <trkpt lat="41.37255333" lon="1.13135167">
        <ele>692.0</ele>
        <time>2021-07-11T08:24:17.000Z</time>
      </trkpt>
      <trkpt lat="41.37255333" lon="1.13133333">
        <ele>692.0</ele>
        <time>2021-07-11T08:24:18.000Z</time>
      </trkpt>
      <trkpt lat="41.37255" lon="1.13131833">
        <ele>692.0</ele>
        <time>2021-07-11T08:24:19.000Z</time>
      </trkpt>
      <trkpt lat="41.37254667" lon="1.131305">
        <ele>693.0</ele>
        <time>2021-07-11T08:24:20.000Z</time>
      </trkpt>
      <trkpt lat="41.37254333" lon="1.13129167">
        <ele>693.0</ele>
        <time>2021-07-11T08:24:21.000Z</time>
      </trkpt>
      <trkpt lat="41.37254167" lon="1.13127667">
        <ele>693.0</ele>
        <time>2021-07-11T08:24:22.000Z</time>
      </trkpt>
      <trkpt lat="41.37253833" lon="1.131265">
        <ele>693.0</ele>
        <time>2021-07-11T08:24:23.000Z</time>
      </trkpt>
      <trkpt lat="41.37253667" lon="1.13125167">
        <ele>693.0</ele>
        <time>2021-07-11T08:24:24.000Z</time>
      </trkpt>
      <trkpt lat="41.372535" lon="1.131235">
        <ele>693.0</ele>
        <time>2021-07-11T08:24:25.000Z</time>
      </trkpt>
      <trkpt lat="41.37253167" lon="1.13122">
        <ele>694.0</ele>
        <time>2021-07-11T08:24:26.000Z</time>
      </trkpt>
      <trkpt lat="41.37252833" lon="1.131205">
        <ele>694.0</ele>
        <time>2021-07-11T08:24:27.000Z</time>
      </trkpt>
      <trkpt lat="41.37252333" lon="1.13119167">
        <ele>694.0</ele>
        <time>2021-07-11T08:24:28.000Z</time>
      </trkpt>
      <trkpt lat="41.37251667" lon="1.13117833">
        <ele>694.0</ele>
        <time>2021-07-11T08:24:29.000Z</time>
      </trkpt>
      <trkpt lat="41.37251" lon="1.13116333">
        <ele>694.0</ele>
        <time>2021-07-11T08:24:30.000Z</time>
      </trkpt>
      <trkpt lat="41.37250333" lon="1.13114667">
        <ele>694.0</ele>
        <time>2021-07-11T08:24:31.000Z</time>
      </trkpt>
      <trkpt lat="41.37249667" lon="1.13113333">
        <ele>694.0</ele>
        <time>2021-07-11T08:24:32.000Z</time>
      </trkpt>
      <trkpt lat="41.37249" lon="1.13112">
        <ele>694.0</ele>
        <time>2021-07-11T08:24:33.000Z</time>
      </trkpt>
      <trkpt lat="41.37248167" lon="1.13110667">
        <ele>694.0</ele>
        <time>2021-07-11T08:24:34.000Z</time>
      </trkpt>
      <trkpt lat="41.372475" lon="1.13109333">
        <ele>695.0</ele>
        <time>2021-07-11T08:24:35.000Z</time>
      </trkpt>
      <trkpt lat="41.37247" lon="1.13107667">
        <ele>695.0</ele>
        <time>2021-07-11T08:24:36.000Z</time>
      </trkpt>
      <trkpt lat="41.372465" lon="1.13106333">
        <ele>695.0</ele>
        <time>2021-07-11T08:24:37.000Z</time>
      </trkpt>
      <trkpt lat="41.37246167" lon="1.13104667">
        <ele>695.0</ele>
        <time>2021-07-11T08:24:38.000Z</time>
      </trkpt>
      <trkpt lat="41.37245667" lon="1.13103">
        <ele>695.0</ele>
        <time>2021-07-11T08:24:39.000Z</time>
      </trkpt>
      <trkpt lat="41.37245167" lon="1.131015">
        <ele>695.0</ele>
        <time>2021-07-11T08:24:40.000Z</time>
      </trkpt>
      <trkpt lat="41.37244833" lon="1.13100167">
        <ele>696.0</ele>
        <time>2021-07-11T08:24:41.000Z</time>
      </trkpt>
      <trkpt lat="41.37244667" lon="1.130985">
        <ele>696.0</ele>
        <time>2021-07-11T08:24:42.000Z</time>
      </trkpt>
      <trkpt lat="41.37244333" lon="1.13096833">
        <ele>696.0</ele>
        <time>2021-07-11T08:24:43.000Z</time>
      </trkpt>
      <trkpt lat="41.37244" lon="1.13095">
        <ele>696.0</ele>
        <time>2021-07-11T08:24:44.000Z</time>
      </trkpt>
      <trkpt lat="41.37244" lon="1.13093167">
        <ele>696.0</ele>
        <time>2021-07-11T08:24:45.000Z</time>
      </trkpt>
      <trkpt lat="41.37244" lon="1.13091667">
        <ele>696.0</ele>
        <time>2021-07-11T08:24:46.000Z</time>
      </trkpt>
      <trkpt lat="41.37243833" lon="1.13090167">
        <ele>696.0</ele>
        <time>2021-07-11T08:24:47.000Z</time>
      </trkpt>
      <trkpt lat="41.37243833" lon="1.130885">
        <ele>696.0</ele>
        <time>2021-07-11T08:24:48.000Z</time>
      </trkpt>
      <trkpt lat="41.37243667" lon="1.13087">
        <ele>696.0</ele>
        <time>2021-07-11T08:24:49.000Z</time>
      </trkpt>
      <trkpt lat="41.37243667" lon="1.13085333">
        <ele>696.0</ele>
        <time>2021-07-11T08:24:50.000Z</time>
      </trkpt>
      <trkpt lat="41.37243333" lon="1.13083833">
        <ele>696.0</ele>
        <time>2021-07-11T08:24:51.000Z</time>
      </trkpt>
      <trkpt lat="41.37243" lon="1.13082167">
        <ele>696.0</ele>
        <time>2021-07-11T08:24:52.000Z</time>
      </trkpt>
      <trkpt lat="41.372425" lon="1.130805">
        <ele>697.0</ele>
        <time>2021-07-11T08:24:53.000Z</time>
      </trkpt>
      <trkpt lat="41.37241667" lon="1.130785">
        <ele>697.0</ele>
        <time>2021-07-11T08:24:54.000Z</time>
      </trkpt>
      <trkpt lat="41.37241" lon="1.13076833">
        <ele>697.0</ele>
        <time>2021-07-11T08:24:55.000Z</time>
      </trkpt>
      <trkpt lat="41.37240333" lon="1.13075333">
        <ele>697.0</ele>
        <time>2021-07-11T08:24:56.000Z</time>
      </trkpt>
      <trkpt lat="41.372395" lon="1.13073833">
        <ele>697.0</ele>
        <time>2021-07-11T08:24:57.000Z</time>
      </trkpt>
      <trkpt lat="41.37239" lon="1.130725">
        <ele>697.0</ele>
        <time>2021-07-11T08:24:58.000Z</time>
      </trkpt>
      <trkpt lat="41.37238333" lon="1.13071167">
        <ele>697.0</ele>
        <time>2021-07-11T08:24:59.000Z</time>
      </trkpt>
      <trkpt lat="41.37237667" lon="1.1307">
        <ele>697.0</ele>
        <time>2021-07-11T08:25:00.000Z</time>
      </trkpt>
      <trkpt lat="41.37237" lon="1.13068833">
        <ele>697.0</ele>
        <time>2021-07-11T08:25:01.000Z</time>
      </trkpt>
      <trkpt lat="41.37236333" lon="1.13067833">
        <ele>697.0</ele>
        <time>2021-07-11T08:25:02.000Z</time>
      </trkpt>
      <trkpt lat="41.37235333" lon="1.13066833">
        <ele>697.0</ele>
        <time>2021-07-11T08:25:03.000Z</time>
      </trkpt>
      <trkpt lat="41.372345" lon="1.13065667">
        <ele>697.0</ele>
        <time>2021-07-11T08:25:04.000Z</time>
      </trkpt>
      <trkpt lat="41.372335" lon="1.13064667">
        <ele>698.0</ele>
        <time>2021-07-11T08:25:05.000Z</time>
      </trkpt>
      <trkpt lat="41.372325" lon="1.13063667">
        <ele>698.0</ele>
        <time>2021-07-11T08:25:06.000Z</time>
      </trkpt>
      <trkpt lat="41.372315" lon="1.130625">
        <ele>698.0</ele>
        <time>2021-07-11T08:25:07.000Z</time>
      </trkpt>
      <trkpt lat="41.37230667" lon="1.130615">
        <ele>698.0</ele>
        <time>2021-07-11T08:25:08.000Z</time>
      </trkpt>
      <trkpt lat="41.37229833" lon="1.130605">
        <ele>698.0</ele>
        <time>2021-07-11T08:25:09.000Z</time>
      </trkpt>
      <trkpt lat="41.37229167" lon="1.130595">
        <ele>698.0</ele>
        <time>2021-07-11T08:25:10.000Z</time>
      </trkpt>
      <trkpt lat="41.37228167" lon="1.130585">
        <ele>698.0</ele>
        <time>2021-07-11T08:25:11.000Z</time>
      </trkpt>
      <trkpt lat="41.37227333" lon="1.130575">
        <ele>698.0</ele>
        <time>2021-07-11T08:25:12.000Z</time>
      </trkpt>
      <trkpt lat="41.372265" lon="1.130565">
        <ele>699.0</ele>
        <time>2021-07-11T08:25:13.000Z</time>
      </trkpt>
      <trkpt lat="41.37225667" lon="1.130555">
        <ele>699.0</ele>
        <time>2021-07-11T08:25:14.000Z</time>
      </trkpt>
      <trkpt lat="41.37225" lon="1.13054667">
        <ele>699.0</ele>
        <time>2021-07-11T08:25:15.000Z</time>
      </trkpt>
      <trkpt lat="41.37224333" lon="1.13053833">
        <ele>700.0</ele>
        <time>2021-07-11T08:25:16.000Z</time>
      </trkpt>
      <trkpt lat="41.37223667" lon="1.13053167">
        <ele>700.0</ele>
        <time>2021-07-11T08:25:17.000Z</time>
      </trkpt>
      <trkpt lat="41.37223" lon="1.13052167">
        <ele>700.0</ele>
        <time>2021-07-11T08:25:18.000Z</time>
      </trkpt>
      <trkpt lat="41.372225" lon="1.13051167">
        <ele>700.0</ele>
        <time>2021-07-11T08:25:19.000Z</time>
      </trkpt>
      <trkpt lat="41.37222167" lon="1.130505">
        <ele>700.0</ele>
        <time>2021-07-11T08:25:20.000Z</time>
      </trkpt>
      <trkpt lat="41.37221667" lon="1.13049667">
        <ele>700.0</ele>
        <time>2021-07-11T08:25:21.000Z</time>
      </trkpt>
      <trkpt lat="41.372215" lon="1.130485">
        <ele>700.0</ele>
        <time>2021-07-11T08:25:22.000Z</time>
      </trkpt>
      <trkpt lat="41.37221167" lon="1.130475">
        <ele>701.0</ele>
        <time>2021-07-11T08:25:23.000Z</time>
      </trkpt>
      <trkpt lat="41.37220667" lon="1.130465">
        <ele>701.0</ele>
        <time>2021-07-11T08:25:24.000Z</time>
      </trkpt>
      <trkpt lat="41.37220333" lon="1.130455">
        <ele>701.0</ele>
        <time>2021-07-11T08:25:25.000Z</time>
      </trkpt>
      <trkpt lat="41.37220167" lon="1.130445">
        <ele>701.0</ele>
        <time>2021-07-11T08:25:26.000Z</time>
      </trkpt>
      <trkpt lat="41.37219833" lon="1.130435">
        <ele>701.0</ele>
        <time>2021-07-11T08:25:27.000Z</time>
      </trkpt>
      <trkpt lat="41.372195" lon="1.130425">
        <ele>701.0</ele>
        <time>2021-07-11T08:25:28.000Z</time>
      </trkpt>
      <trkpt lat="41.37219167" lon="1.13041333">
        <ele>701.0</ele>
        <time>2021-07-11T08:25:29.000Z</time>
      </trkpt>
      <trkpt lat="41.37219" lon="1.1304">
        <ele>701.0</ele>
        <time>2021-07-11T08:25:30.000Z</time>
      </trkpt>
      <trkpt lat="41.37219" lon="1.13038833">
        <ele>701.0</ele>
        <time>2021-07-11T08:25:31.000Z</time>
      </trkpt>
      <trkpt lat="41.37219" lon="1.130375">
        <ele>701.0</ele>
        <time>2021-07-11T08:25:32.000Z</time>
      </trkpt>
      <trkpt lat="41.37218833" lon="1.13035833">
        <ele>701.0</ele>
        <time>2021-07-11T08:25:33.000Z</time>
      </trkpt>
      <trkpt lat="41.37218833" lon="1.13034">
        <ele>701.0</ele>
        <time>2021-07-11T08:25:34.000Z</time>
      </trkpt>
      <trkpt lat="41.37218667" lon="1.13032333">
        <ele>701.0</ele>
        <time>2021-07-11T08:25:35.000Z</time>
      </trkpt>
      <trkpt lat="41.372185" lon="1.13030833">
        <ele>701.0</ele>
        <time>2021-07-11T08:25:36.000Z</time>
      </trkpt>
      <trkpt lat="41.37218667" lon="1.130295">
        <ele>701.0</ele>
        <time>2021-07-11T08:25:37.000Z</time>
      </trkpt>
      <trkpt lat="41.37218833" lon="1.13028333">
        <ele>701.0</ele>
        <time>2021-07-11T08:25:38.000Z</time>
      </trkpt>
      <trkpt lat="41.37219167" lon="1.13027167">
        <ele>701.0</ele>
        <time>2021-07-11T08:25:39.000Z</time>
      </trkpt>
      <trkpt lat="41.37219167" lon="1.13026">
        <ele>701.0</ele>
        <time>2021-07-11T08:25:40.000Z</time>
      </trkpt>
      <trkpt lat="41.37219167" lon="1.13025">
        <ele>701.0</ele>
        <time>2021-07-11T08:25:41.000Z</time>
      </trkpt>
      <trkpt lat="41.37219167" lon="1.13023833">
        <ele>702.0</ele>
        <time>2021-07-11T08:25:42.000Z</time>
      </trkpt>
      <trkpt lat="41.37219333" lon="1.130225">
        <ele>702.0</ele>
        <time>2021-07-11T08:25:43.000Z</time>
      </trkpt>
      <trkpt lat="41.37219333" lon="1.13021167">
        <ele>702.0</ele>
        <time>2021-07-11T08:25:44.000Z</time>
      </trkpt>
      <trkpt lat="41.372195" lon="1.13019667">
        <ele>702.0</ele>
        <time>2021-07-11T08:25:45.000Z</time>
      </trkpt>
      <trkpt lat="41.37219333" lon="1.130185">
        <ele>702.0</ele>
        <time>2021-07-11T08:25:46.000Z</time>
      </trkpt>
      <trkpt lat="41.37219" lon="1.13017167">
        <ele>702.0</ele>
        <time>2021-07-11T08:25:47.000Z</time>
      </trkpt>
      <trkpt lat="41.37218833" lon="1.13016">
        <ele>702.0</ele>
        <time>2021-07-11T08:25:48.000Z</time>
      </trkpt>
      <trkpt lat="41.37219" lon="1.13014667">
        <ele>702.0</ele>
        <time>2021-07-11T08:25:49.000Z</time>
      </trkpt>
      <trkpt lat="41.37219167" lon="1.13013333">
        <ele>702.0</ele>
        <time>2021-07-11T08:25:50.000Z</time>
      </trkpt>
      <trkpt lat="41.37219333" lon="1.13011833">
        <ele>702.0</ele>
        <time>2021-07-11T08:25:51.000Z</time>
      </trkpt>
      <trkpt lat="41.37219667" lon="1.13010333">
        <ele>702.0</ele>
        <time>2021-07-11T08:25:52.000Z</time>
      </trkpt>
      <trkpt lat="41.37219667" lon="1.13009">
        <ele>702.0</ele>
        <time>2021-07-11T08:25:53.000Z</time>
      </trkpt>
      <trkpt lat="41.37219667" lon="1.13007667">
        <ele>702.0</ele>
        <time>2021-07-11T08:25:54.000Z</time>
      </trkpt>
      <trkpt lat="41.3722" lon="1.13006">
        <ele>702.0</ele>
        <time>2021-07-11T08:25:55.000Z</time>
      </trkpt>
      <trkpt lat="41.37220333" lon="1.130045">
        <ele>702.0</ele>
        <time>2021-07-11T08:25:56.000Z</time>
      </trkpt>
      <trkpt lat="41.37220667" lon="1.13003">
        <ele>702.0</ele>
        <time>2021-07-11T08:25:57.000Z</time>
      </trkpt>
      <trkpt lat="41.37220667" lon="1.13001667">
        <ele>702.0</ele>
        <time>2021-07-11T08:25:58.000Z</time>
      </trkpt>
      <trkpt lat="41.37220833" lon="1.13">
        <ele>702.0</ele>
        <time>2021-07-11T08:25:59.000Z</time>
      </trkpt>
      <trkpt lat="41.37220833" lon="1.129985">
        <ele>702.0</ele>
        <time>2021-07-11T08:26:00.000Z</time>
      </trkpt>
      <trkpt lat="41.37220667" lon="1.12997167">
        <ele>702.0</ele>
        <time>2021-07-11T08:26:01.000Z</time>
      </trkpt>
      <trkpt lat="41.37220667" lon="1.12995667">
        <ele>702.0</ele>
        <time>2021-07-11T08:26:02.000Z</time>
      </trkpt>
      <trkpt lat="41.372205" lon="1.12994167">
        <ele>702.0</ele>
        <time>2021-07-11T08:26:03.000Z</time>
      </trkpt>
      <trkpt lat="41.37220333" lon="1.12992167">
        <ele>702.0</ele>
        <time>2021-07-11T08:26:04.000Z</time>
      </trkpt>
      <trkpt lat="41.37220167" lon="1.12990167">
        <ele>702.0</ele>
        <time>2021-07-11T08:26:05.000Z</time>
      </trkpt>
      <trkpt lat="41.3722" lon="1.12988333">
        <ele>702.0</ele>
        <time>2021-07-11T08:26:06.000Z</time>
      </trkpt>
      <trkpt lat="41.3722" lon="1.129865">
        <ele>703.0</ele>
        <time>2021-07-11T08:26:07.000Z</time>
      </trkpt>
      <trkpt lat="41.37219833" lon="1.12984833">
        <ele>703.0</ele>
        <time>2021-07-11T08:26:08.000Z</time>
      </trkpt>
      <trkpt lat="41.37219833" lon="1.12983">
        <ele>703.0</ele>
        <time>2021-07-11T08:26:09.000Z</time>
      </trkpt>
      <trkpt lat="41.37219667" lon="1.12981333">
        <ele>703.0</ele>
        <time>2021-07-11T08:26:10.000Z</time>
      </trkpt>
      <trkpt lat="41.372195" lon="1.12979667">
        <ele>703.0</ele>
        <time>2021-07-11T08:26:11.000Z</time>
      </trkpt>
      <trkpt lat="41.37219333" lon="1.12978">
        <ele>704.0</ele>
        <time>2021-07-11T08:26:12.000Z</time>
      </trkpt>
      <trkpt lat="41.37219167" lon="1.129765">
        <ele>704.0</ele>
        <time>2021-07-11T08:26:13.000Z</time>
      </trkpt>
      <trkpt lat="41.37219" lon="1.12974833">
        <ele>704.0</ele>
        <time>2021-07-11T08:26:14.000Z</time>
      </trkpt>
      <trkpt lat="41.37218667" lon="1.12973167">
        <ele>704.0</ele>
        <time>2021-07-11T08:26:15.000Z</time>
      </trkpt>
      <trkpt lat="41.37218167" lon="1.129715">
        <ele>704.0</ele>
        <time>2021-07-11T08:26:16.000Z</time>
      </trkpt>
      <trkpt lat="41.37217667" lon="1.1297">
        <ele>704.0</ele>
        <time>2021-07-11T08:26:17.000Z</time>
      </trkpt>
      <trkpt lat="41.372175" lon="1.12969">
        <ele>705.0</ele>
        <time>2021-07-11T08:26:18.000Z</time>
      </trkpt>
      <trkpt lat="41.37217167" lon="1.12968167">
        <ele>705.0</ele>
        <time>2021-07-11T08:26:19.000Z</time>
      </trkpt>
      <trkpt lat="41.37216833" lon="1.12967167">
        <ele>705.0</ele>
        <time>2021-07-11T08:26:20.000Z</time>
      </trkpt>
      <trkpt lat="41.37216667" lon="1.12966167">
        <ele>705.0</ele>
        <time>2021-07-11T08:26:21.000Z</time>
      </trkpt>
      <trkpt lat="41.37216167" lon="1.12965">
        <ele>706.0</ele>
        <time>2021-07-11T08:26:22.000Z</time>
      </trkpt>
      <trkpt lat="41.37215833" lon="1.12963667">
        <ele>706.0</ele>
        <time>2021-07-11T08:26:23.000Z</time>
      </trkpt>
      <trkpt lat="41.37215167" lon="1.12962">
        <ele>706.0</ele>
        <time>2021-07-11T08:26:24.000Z</time>
      </trkpt>
      <trkpt lat="41.37214333" lon="1.12960333">
        <ele>706.0</ele>
        <time>2021-07-11T08:26:25.000Z</time>
      </trkpt>
      <trkpt lat="41.37213333" lon="1.129585">
        <ele>706.0</ele>
        <time>2021-07-11T08:26:26.000Z</time>
      </trkpt>
      <trkpt lat="41.372125" lon="1.12957167">
        <ele>706.0</ele>
        <time>2021-07-11T08:26:27.000Z</time>
      </trkpt>
      <trkpt lat="41.37212" lon="1.12956">
        <ele>706.0</ele>
        <time>2021-07-11T08:26:28.000Z</time>
      </trkpt>
      <trkpt lat="41.372115" lon="1.12954833">
        <ele>707.0</ele>
        <time>2021-07-11T08:26:29.000Z</time>
      </trkpt>
      <trkpt lat="41.37211333" lon="1.12953333">
        <ele>707.0</ele>
        <time>2021-07-11T08:26:30.000Z</time>
      </trkpt>
      <trkpt lat="41.37211" lon="1.12952167">
        <ele>707.0</ele>
        <time>2021-07-11T08:26:31.000Z</time>
      </trkpt>
      <trkpt lat="41.37210833" lon="1.12951">
        <ele>707.0</ele>
        <time>2021-07-11T08:26:32.000Z</time>
      </trkpt>
      <trkpt lat="41.37210333" lon="1.129495">
        <ele>707.0</ele>
        <time>2021-07-11T08:26:33.000Z</time>
      </trkpt>
      <trkpt lat="41.3721" lon="1.12948333">
        <ele>707.0</ele>
        <time>2021-07-11T08:26:34.000Z</time>
      </trkpt>
      <trkpt lat="41.37209667" lon="1.12947167">
        <ele>707.0</ele>
        <time>2021-07-11T08:26:35.000Z</time>
      </trkpt>
      <trkpt lat="41.37209" lon="1.12946">
        <ele>707.0</ele>
        <time>2021-07-11T08:26:36.000Z</time>
      </trkpt>
      <trkpt lat="41.372085" lon="1.12944833">
        <ele>707.0</ele>
        <time>2021-07-11T08:26:37.000Z</time>
      </trkpt>
      <trkpt lat="41.37208167" lon="1.12943333">
        <ele>707.0</ele>
        <time>2021-07-11T08:26:38.000Z</time>
      </trkpt>
      <trkpt lat="41.372075" lon="1.129415">
        <ele>707.0</ele>
        <time>2021-07-11T08:26:39.000Z</time>
      </trkpt>
      <trkpt lat="41.37207167" lon="1.12939667">
        <ele>708.0</ele>
        <time>2021-07-11T08:26:40.000Z</time>
      </trkpt>
      <trkpt lat="41.37207" lon="1.12937667">
        <ele>708.0</ele>
        <time>2021-07-11T08:26:41.000Z</time>
      </trkpt>
      <trkpt lat="41.37206833" lon="1.12936">
        <ele>708.0</ele>
        <time>2021-07-11T08:26:42.000Z</time>
      </trkpt>
      <trkpt lat="41.372065" lon="1.129345">
        <ele>708.0</ele>
        <time>2021-07-11T08:26:43.000Z</time>
      </trkpt>
      <trkpt lat="41.37206333" lon="1.12933167">
        <ele>708.0</ele>
        <time>2021-07-11T08:26:44.000Z</time>
      </trkpt>
      <trkpt lat="41.37206333" lon="1.12931667">
        <ele>708.0</ele>
        <time>2021-07-11T08:26:45.000Z</time>
      </trkpt>
      <trkpt lat="41.37206167" lon="1.12930333">
        <ele>708.0</ele>
        <time>2021-07-11T08:26:46.000Z</time>
      </trkpt>
      <trkpt lat="41.37206" lon="1.12928833">
        <ele>708.0</ele>
        <time>2021-07-11T08:26:47.000Z</time>
      </trkpt>
      <trkpt lat="41.37205667" lon="1.12927167">
        <ele>708.0</ele>
        <time>2021-07-11T08:26:48.000Z</time>
      </trkpt>
      <trkpt lat="41.37205167" lon="1.129255">
        <ele>708.0</ele>
        <time>2021-07-11T08:26:49.000Z</time>
      </trkpt>
      <trkpt lat="41.37204667" lon="1.12924">
        <ele>708.0</ele>
        <time>2021-07-11T08:26:50.000Z</time>
      </trkpt>
      <trkpt lat="41.37204167" lon="1.12922333">
        <ele>708.0</ele>
        <time>2021-07-11T08:26:51.000Z</time>
      </trkpt>
      <trkpt lat="41.372035" lon="1.12920667">
        <ele>708.0</ele>
        <time>2021-07-11T08:26:52.000Z</time>
      </trkpt>
      <trkpt lat="41.37203167" lon="1.12919333">
        <ele>709.0</ele>
        <time>2021-07-11T08:26:53.000Z</time>
      </trkpt>
      <trkpt lat="41.37202833" lon="1.12918167">
        <ele>709.0</ele>
        <time>2021-07-11T08:26:54.000Z</time>
      </trkpt>
      <trkpt lat="41.37202667" lon="1.12917">
        <ele>709.0</ele>
        <time>2021-07-11T08:26:55.000Z</time>
      </trkpt>
      <trkpt lat="41.37202333" lon="1.12915667">
        <ele>709.0</ele>
        <time>2021-07-11T08:26:56.000Z</time>
      </trkpt>
      <trkpt lat="41.37202" lon="1.12914333">
        <ele>709.0</ele>
        <time>2021-07-11T08:26:57.000Z</time>
      </trkpt>
      <trkpt lat="41.372015" lon="1.12912833">
        <ele>709.0</ele>
        <time>2021-07-11T08:26:58.000Z</time>
      </trkpt>
      <trkpt lat="41.37201167" lon="1.12911333">
        <ele>710.0</ele>
        <time>2021-07-11T08:26:59.000Z</time>
      </trkpt>
      <trkpt lat="41.37200667" lon="1.129095">
        <ele>710.0</ele>
        <time>2021-07-11T08:27:00.000Z</time>
      </trkpt>
      <trkpt lat="41.37200333" lon="1.12908167">
        <ele>710.0</ele>
        <time>2021-07-11T08:27:01.000Z</time>
      </trkpt>
      <trkpt lat="41.372" lon="1.129065">
        <ele>710.0</ele>
        <time>2021-07-11T08:27:02.000Z</time>
      </trkpt>
      <trkpt lat="41.37199667" lon="1.12905">
        <ele>710.0</ele>
        <time>2021-07-11T08:27:03.000Z</time>
      </trkpt>
      <trkpt lat="41.37199" lon="1.12903333">
        <ele>710.0</ele>
        <time>2021-07-11T08:27:04.000Z</time>
      </trkpt>
      <trkpt lat="41.371985" lon="1.12901667">
        <ele>711.0</ele>
        <time>2021-07-11T08:27:05.000Z</time>
      </trkpt>
      <trkpt lat="41.37198" lon="1.129">
        <ele>711.0</ele>
        <time>2021-07-11T08:27:06.000Z</time>
      </trkpt>
      <trkpt lat="41.37197833" lon="1.128985">
        <ele>711.0</ele>
        <time>2021-07-11T08:27:07.000Z</time>
      </trkpt>
      <trkpt lat="41.371975" lon="1.12897">
        <ele>711.0</ele>
        <time>2021-07-11T08:27:08.000Z</time>
      </trkpt>
      <trkpt lat="41.37197333" lon="1.128955">
        <ele>711.0</ele>
        <time>2021-07-11T08:27:09.000Z</time>
      </trkpt>
      <trkpt lat="41.37197" lon="1.12894">
        <ele>712.0</ele>
        <time>2021-07-11T08:27:10.000Z</time>
      </trkpt>
      <trkpt lat="41.37196667" lon="1.128925">
        <ele>712.0</ele>
        <time>2021-07-11T08:27:11.000Z</time>
      </trkpt>
      <trkpt lat="41.371965" lon="1.12891">
        <ele>712.0</ele>
        <time>2021-07-11T08:27:12.000Z</time>
      </trkpt>
      <trkpt lat="41.37196167" lon="1.128895">
        <ele>712.0</ele>
        <time>2021-07-11T08:27:13.000Z</time>
      </trkpt>
      <trkpt lat="41.37195833" lon="1.12888167">
        <ele>712.0</ele>
        <time>2021-07-11T08:27:14.000Z</time>
      </trkpt>
      <trkpt lat="41.371955" lon="1.12886667">
        <ele>712.0</ele>
        <time>2021-07-11T08:27:15.000Z</time>
      </trkpt>
      <trkpt lat="41.37195333" lon="1.12885333">
        <ele>713.0</ele>
        <time>2021-07-11T08:27:16.000Z</time>
      </trkpt>
      <trkpt lat="41.37195167" lon="1.12883833">
        <ele>713.0</ele>
        <time>2021-07-11T08:27:17.000Z</time>
      </trkpt>
      <trkpt lat="41.37194833" lon="1.12882333">
        <ele>713.0</ele>
        <time>2021-07-11T08:27:18.000Z</time>
      </trkpt>
      <trkpt lat="41.37194333" lon="1.12881">
        <ele>713.0</ele>
        <time>2021-07-11T08:27:19.000Z</time>
      </trkpt>
      <trkpt lat="41.37193833" lon="1.12879833">
        <ele>713.0</ele>
        <time>2021-07-11T08:27:20.000Z</time>
      </trkpt>
      <trkpt lat="41.37193333" lon="1.128785">
        <ele>713.0</ele>
        <time>2021-07-11T08:27:21.000Z</time>
      </trkpt>
      <trkpt lat="41.37193" lon="1.12877333">
        <ele>713.0</ele>
        <time>2021-07-11T08:27:22.000Z</time>
      </trkpt>
      <trkpt lat="41.371925" lon="1.12876">
        <ele>713.0</ele>
        <time>2021-07-11T08:27:23.000Z</time>
      </trkpt>
      <trkpt lat="41.37192167" lon="1.12874333">
        <ele>713.0</ele>
        <time>2021-07-11T08:27:24.000Z</time>
      </trkpt>
      <trkpt lat="41.37191833" lon="1.12872833">
        <ele>714.0</ele>
        <time>2021-07-11T08:27:25.000Z</time>
      </trkpt>
      <trkpt lat="41.371915" lon="1.128715">
        <ele>714.0</ele>
        <time>2021-07-11T08:27:26.000Z</time>
      </trkpt>
      <trkpt lat="41.37191167" lon="1.12870333">
        <ele>714.0</ele>
        <time>2021-07-11T08:27:27.000Z</time>
      </trkpt>
      <trkpt lat="41.37190667" lon="1.12869167">
        <ele>714.0</ele>
        <time>2021-07-11T08:27:28.000Z</time>
      </trkpt>
      <trkpt lat="41.37190333" lon="1.12868333">
        <ele>714.0</ele>
        <time>2021-07-11T08:27:29.000Z</time>
      </trkpt>
      <trkpt lat="41.37190167" lon="1.128675">
        <ele>714.0</ele>
        <time>2021-07-11T08:27:30.000Z</time>
      </trkpt>
      <trkpt lat="41.37189833" lon="1.12866333">
        <ele>714.0</ele>
        <time>2021-07-11T08:27:31.000Z</time>
      </trkpt>
      <trkpt lat="41.37189667" lon="1.12865333">
        <ele>714.0</ele>
        <time>2021-07-11T08:27:32.000Z</time>
      </trkpt>
      <trkpt lat="41.371895" lon="1.12864333">
        <ele>715.0</ele>
        <time>2021-07-11T08:27:33.000Z</time>
      </trkpt>
      <trkpt lat="41.37189" lon="1.12863333">
        <ele>715.0</ele>
        <time>2021-07-11T08:27:34.000Z</time>
      </trkpt>
      <trkpt lat="41.371885" lon="1.12862333">
        <ele>715.0</ele>
        <time>2021-07-11T08:27:35.000Z</time>
      </trkpt>
      <trkpt lat="41.37188333" lon="1.12861333">
        <ele>715.0</ele>
        <time>2021-07-11T08:27:36.000Z</time>
      </trkpt>
      <trkpt lat="41.37188" lon="1.12860333">
        <ele>715.0</ele>
        <time>2021-07-11T08:27:37.000Z</time>
      </trkpt>
      <trkpt lat="41.37187667" lon="1.12859333">
        <ele>715.0</ele>
        <time>2021-07-11T08:27:38.000Z</time>
      </trkpt>
      <trkpt lat="41.371875" lon="1.128585">
        <ele>716.0</ele>
        <time>2021-07-11T08:27:39.000Z</time>
      </trkpt>
      <trkpt lat="41.37187167" lon="1.12857667">
        <ele>716.0</ele>
        <time>2021-07-11T08:27:40.000Z</time>
      </trkpt>
      <trkpt lat="41.37186667" lon="1.12857">
        <ele>716.0</ele>
        <time>2021-07-11T08:27:41.000Z</time>
      </trkpt>
      <trkpt lat="41.37186167" lon="1.128565">
        <ele>716.0</ele>
        <time>2021-07-11T08:27:42.000Z</time>
      </trkpt>
      <trkpt lat="41.37185667" lon="1.12855833">
        <ele>716.0</ele>
        <time>2021-07-11T08:27:43.000Z</time>
      </trkpt>
      <trkpt lat="41.37184833" lon="1.12855">
        <ele>717.0</ele>
        <time>2021-07-11T08:27:44.000Z</time>
      </trkpt>
      <trkpt lat="41.37184167" lon="1.12854167">
        <ele>717.0</ele>
        <time>2021-07-11T08:27:45.000Z</time>
      </trkpt>
      <trkpt lat="41.37183333" lon="1.12853333">
        <ele>717.0</ele>
        <time>2021-07-11T08:27:46.000Z</time>
      </trkpt>
      <trkpt lat="41.371825" lon="1.12852333">
        <ele>717.0</ele>
        <time>2021-07-11T08:27:47.000Z</time>
      </trkpt>
      <trkpt lat="41.37181667" lon="1.12851667">
        <ele>717.0</ele>
        <time>2021-07-11T08:27:48.000Z</time>
      </trkpt>
      <trkpt lat="41.37181" lon="1.128505">
        <ele>718.0</ele>
        <time>2021-07-11T08:27:49.000Z</time>
      </trkpt>
      <trkpt lat="41.37180333" lon="1.128495">
        <ele>718.0</ele>
        <time>2021-07-11T08:27:50.000Z</time>
      </trkpt>
      <trkpt lat="41.37179833" lon="1.128485">
        <ele>718.0</ele>
        <time>2021-07-11T08:27:51.000Z</time>
      </trkpt>
      <trkpt lat="41.37179167" lon="1.12847667">
        <ele>718.0</ele>
        <time>2021-07-11T08:27:52.000Z</time>
      </trkpt>
      <trkpt lat="41.37178667" lon="1.128465">
        <ele>718.0</ele>
        <time>2021-07-11T08:27:53.000Z</time>
      </trkpt>
      <trkpt lat="41.37178" lon="1.12845667">
        <ele>718.0</ele>
        <time>2021-07-11T08:27:54.000Z</time>
      </trkpt>
      <trkpt lat="41.371775" lon="1.12844667">
        <ele>718.0</ele>
        <time>2021-07-11T08:27:55.000Z</time>
      </trkpt>
      <trkpt lat="41.37176833" lon="1.128435">
        <ele>719.0</ele>
        <time>2021-07-11T08:27:56.000Z</time>
      </trkpt>
      <trkpt lat="41.37176167" lon="1.12842667">
        <ele>719.0</ele>
        <time>2021-07-11T08:27:57.000Z</time>
      </trkpt>
      <trkpt lat="41.371755" lon="1.12841667">
        <ele>719.0</ele>
        <time>2021-07-11T08:27:58.000Z</time>
      </trkpt>
      <trkpt lat="41.37175" lon="1.12840667">
        <ele>719.0</ele>
        <time>2021-07-11T08:27:59.000Z</time>
      </trkpt>
      <trkpt lat="41.37174667" lon="1.12839833">
        <ele>719.0</ele>
        <time>2021-07-11T08:28:00.000Z</time>
      </trkpt>
      <trkpt lat="41.37173833" lon="1.12839167">
        <ele>719.0</ele>
        <time>2021-07-11T08:28:01.000Z</time>
      </trkpt>
      <trkpt lat="41.37173167" lon="1.12838333">
        <ele>720.0</ele>
        <time>2021-07-11T08:28:02.000Z</time>
      </trkpt>
      <trkpt lat="41.371725" lon="1.12837333">
        <ele>720.0</ele>
        <time>2021-07-11T08:28:03.000Z</time>
      </trkpt>
      <trkpt lat="41.37171833" lon="1.12836167">
        <ele>720.0</ele>
        <time>2021-07-11T08:28:04.000Z</time>
      </trkpt>
      <trkpt lat="41.37171167" lon="1.12835167">
        <ele>720.0</ele>
        <time>2021-07-11T08:28:05.000Z</time>
      </trkpt>
      <trkpt lat="41.37170667" lon="1.128345">
        <ele>720.0</ele>
        <time>2021-07-11T08:28:06.000Z</time>
      </trkpt>
      <trkpt lat="41.3717" lon="1.128335">
        <ele>720.0</ele>
        <time>2021-07-11T08:28:07.000Z</time>
      </trkpt>
      <trkpt lat="41.37169167" lon="1.12832167">
        <ele>720.0</ele>
        <time>2021-07-11T08:28:08.000Z</time>
      </trkpt>
      <trkpt lat="41.37168333" lon="1.12831">
        <ele>720.0</ele>
        <time>2021-07-11T08:28:09.000Z</time>
      </trkpt>
      <trkpt lat="41.371675" lon="1.12830167">
        <ele>720.0</ele>
        <time>2021-07-11T08:28:10.000Z</time>
      </trkpt>
      <trkpt lat="41.37166667" lon="1.128295">
        <ele>721.0</ele>
        <time>2021-07-11T08:28:11.000Z</time>
      </trkpt>
      <trkpt lat="41.37166" lon="1.12828667">
        <ele>721.0</ele>
        <time>2021-07-11T08:28:12.000Z</time>
      </trkpt>
      <trkpt lat="41.37165167" lon="1.12828">
        <ele>721.0</ele>
        <time>2021-07-11T08:28:13.000Z</time>
      </trkpt>
      <trkpt lat="41.37164167" lon="1.12827167">
        <ele>721.0</ele>
        <time>2021-07-11T08:28:14.000Z</time>
      </trkpt>
      <trkpt lat="41.37163" lon="1.12826667">
        <ele>721.0</ele>
        <time>2021-07-11T08:28:15.000Z</time>
      </trkpt>
      <trkpt lat="41.37162" lon="1.12826167">
        <ele>721.0</ele>
        <time>2021-07-11T08:28:16.000Z</time>
      </trkpt>
      <trkpt lat="41.37161167" lon="1.12825333">
        <ele>721.0</ele>
        <time>2021-07-11T08:28:17.000Z</time>
      </trkpt>
      <trkpt lat="41.37160167" lon="1.12824333">
        <ele>721.0</ele>
        <time>2021-07-11T08:28:18.000Z</time>
      </trkpt>
      <trkpt lat="41.37159167" lon="1.12823167">
        <ele>721.0</ele>
        <time>2021-07-11T08:28:19.000Z</time>
      </trkpt>
      <trkpt lat="41.37158167" lon="1.12822167">
        <ele>721.0</ele>
        <time>2021-07-11T08:28:20.000Z</time>
      </trkpt>
      <trkpt lat="41.37157" lon="1.128215">
        <ele>721.0</ele>
        <time>2021-07-11T08:28:21.000Z</time>
      </trkpt>
      <trkpt lat="41.37156" lon="1.12820667">
        <ele>721.0</ele>
        <time>2021-07-11T08:28:22.000Z</time>
      </trkpt>
      <trkpt lat="41.37154833" lon="1.12819833">
        <ele>721.0</ele>
        <time>2021-07-11T08:28:23.000Z</time>
      </trkpt>
      <trkpt lat="41.37153833" lon="1.12819">
        <ele>722.0</ele>
        <time>2021-07-11T08:28:24.000Z</time>
      </trkpt>
      <trkpt lat="41.37152667" lon="1.12818">
        <ele>722.0</ele>
        <time>2021-07-11T08:28:25.000Z</time>
      </trkpt>
      <trkpt lat="41.37151833" lon="1.12817">
        <ele>722.0</ele>
        <time>2021-07-11T08:28:26.000Z</time>
      </trkpt>
      <trkpt lat="41.37150833" lon="1.12816">
        <ele>722.0</ele>
        <time>2021-07-11T08:28:27.000Z</time>
      </trkpt>
      <trkpt lat="41.37149833" lon="1.12814667">
        <ele>722.0</ele>
        <time>2021-07-11T08:28:28.000Z</time>
      </trkpt>
      <trkpt lat="41.37148833" lon="1.128135">
        <ele>722.0</ele>
        <time>2021-07-11T08:28:29.000Z</time>
      </trkpt>
      <trkpt lat="41.37147833" lon="1.12812167">
        <ele>722.0</ele>
        <time>2021-07-11T08:28:30.000Z</time>
      </trkpt>
      <trkpt lat="41.37147333" lon="1.12810833">
        <ele>722.0</ele>
        <time>2021-07-11T08:28:31.000Z</time>
      </trkpt>
      <trkpt lat="41.37146833" lon="1.12809667">
        <ele>722.0</ele>
        <time>2021-07-11T08:28:32.000Z</time>
      </trkpt>
      <trkpt lat="41.371465" lon="1.128085">
        <ele>722.0</ele>
        <time>2021-07-11T08:28:33.000Z</time>
      </trkpt>
      <trkpt lat="41.37146167" lon="1.128075">
        <ele>723.0</ele>
        <time>2021-07-11T08:28:34.000Z</time>
      </trkpt>
      <trkpt lat="41.37146" lon="1.12806167">
        <ele>723.0</ele>
        <time>2021-07-11T08:28:35.000Z</time>
      </trkpt>
      <trkpt lat="41.37146167" lon="1.12804833">
        <ele>723.0</ele>
        <time>2021-07-11T08:28:36.000Z</time>
      </trkpt>
      <trkpt lat="41.37146333" lon="1.128035">
        <ele>723.0</ele>
        <time>2021-07-11T08:28:37.000Z</time>
      </trkpt>
      <trkpt lat="41.37146667" lon="1.12802333">
        <ele>723.0</ele>
        <time>2021-07-11T08:28:38.000Z</time>
      </trkpt>
      <trkpt lat="41.37147167" lon="1.12801333">
        <ele>723.0</ele>
        <time>2021-07-11T08:28:39.000Z</time>
      </trkpt>
      <trkpt lat="41.37147833" lon="1.128">
        <ele>723.0</ele>
        <time>2021-07-11T08:28:40.000Z</time>
      </trkpt>
      <trkpt lat="41.37148667" lon="1.12798833">
        <ele>724.0</ele>
        <time>2021-07-11T08:28:41.000Z</time>
      </trkpt>
      <trkpt lat="41.371495" lon="1.127975">
        <ele>724.0</ele>
        <time>2021-07-11T08:28:42.000Z</time>
      </trkpt>
      <trkpt lat="41.371505" lon="1.12796167">
        <ele>724.0</ele>
        <time>2021-07-11T08:28:43.000Z</time>
      </trkpt>
      <trkpt lat="41.371515" lon="1.12794833">
        <ele>724.0</ele>
        <time>2021-07-11T08:28:44.000Z</time>
      </trkpt>
      <trkpt lat="41.37152333" lon="1.127935">
        <ele>724.0</ele>
        <time>2021-07-11T08:28:45.000Z</time>
      </trkpt>
      <trkpt lat="41.37153" lon="1.12792833">
        <ele>724.0</ele>
        <time>2021-07-11T08:28:46.000Z</time>
      </trkpt>
      <trkpt lat="41.37153667" lon="1.12792167">
        <ele>724.0</ele>
        <time>2021-07-11T08:28:47.000Z</time>
      </trkpt>
      <trkpt lat="41.37154167" lon="1.127915">
        <ele>724.0</ele>
        <time>2021-07-11T08:28:48.000Z</time>
      </trkpt>
      <trkpt lat="41.37154833" lon="1.12791">
        <ele>724.0</ele>
        <time>2021-07-11T08:28:49.000Z</time>
      </trkpt>
      <trkpt lat="41.37155667" lon="1.12790667">
        <ele>724.0</ele>
        <time>2021-07-11T08:28:50.000Z</time>
      </trkpt>
      <trkpt lat="41.371565" lon="1.12790333">
        <ele>725.0</ele>
        <time>2021-07-11T08:28:51.000Z</time>
      </trkpt>
      <trkpt lat="41.37157333" lon="1.12789833">
        <ele>725.0</ele>
        <time>2021-07-11T08:28:52.000Z</time>
      </trkpt>
      <trkpt lat="41.37158333" lon="1.12789167">
        <ele>725.0</ele>
        <time>2021-07-11T08:28:53.000Z</time>
      </trkpt>
      <trkpt lat="41.37159167" lon="1.12788667">
        <ele>725.0</ele>
        <time>2021-07-11T08:28:54.000Z</time>
      </trkpt>
      <trkpt lat="41.3716" lon="1.12788333">
        <ele>725.0</ele>
        <time>2021-07-11T08:28:55.000Z</time>
      </trkpt>
      <trkpt lat="41.37161" lon="1.12788167">
        <ele>725.0</ele>
        <time>2021-07-11T08:28:56.000Z</time>
      </trkpt>
      <trkpt lat="41.37161833" lon="1.127875">
        <ele>725.0</ele>
        <time>2021-07-11T08:28:57.000Z</time>
      </trkpt>
      <trkpt lat="41.37162833" lon="1.12787">
        <ele>725.0</ele>
        <time>2021-07-11T08:28:58.000Z</time>
      </trkpt>
      <trkpt lat="41.37164" lon="1.12786833">
        <ele>725.0</ele>
        <time>2021-07-11T08:28:59.000Z</time>
      </trkpt>
      <trkpt lat="41.37165167" lon="1.127865">
        <ele>726.0</ele>
        <time>2021-07-11T08:29:00.000Z</time>
      </trkpt>
      <trkpt lat="41.37166333" lon="1.12786333">
        <ele>726.0</ele>
        <time>2021-07-11T08:29:01.000Z</time>
      </trkpt>
      <trkpt lat="41.37167333" lon="1.12786167">
        <ele>726.0</ele>
        <time>2021-07-11T08:29:02.000Z</time>
      </trkpt>
      <trkpt lat="41.37168167" lon="1.12786167">
        <ele>726.0</ele>
        <time>2021-07-11T08:29:03.000Z</time>
      </trkpt>
      <trkpt lat="41.37168833" lon="1.12786167">
        <ele>726.0</ele>
        <time>2021-07-11T08:29:04.000Z</time>
      </trkpt>
      <trkpt lat="41.37169667" lon="1.12786333">
        <ele>726.0</ele>
        <time>2021-07-11T08:29:05.000Z</time>
      </trkpt>
      <trkpt lat="41.37170667" lon="1.127865">
        <ele>726.0</ele>
        <time>2021-07-11T08:29:06.000Z</time>
      </trkpt>
      <trkpt lat="41.37171833" lon="1.12786833">
        <ele>727.0</ele>
        <time>2021-07-11T08:29:07.000Z</time>
      </trkpt>
      <trkpt lat="41.37172833" lon="1.12787">
        <ele>727.0</ele>
        <time>2021-07-11T08:29:08.000Z</time>
      </trkpt>
      <trkpt lat="41.37174333" lon="1.12787167">
        <ele>727.0</ele>
        <time>2021-07-11T08:29:09.000Z</time>
      </trkpt>
      <trkpt lat="41.37175833" lon="1.12787167">
        <ele>727.0</ele>
        <time>2021-07-11T08:29:10.000Z</time>
      </trkpt>
      <trkpt lat="41.37177167" lon="1.12787">
        <ele>727.0</ele>
        <time>2021-07-11T08:29:11.000Z</time>
      </trkpt>
      <trkpt lat="41.37178333" lon="1.127865">
        <ele>727.0</ele>
        <time>2021-07-11T08:29:12.000Z</time>
      </trkpt>
      <trkpt lat="41.37179333" lon="1.12786">
        <ele>727.0</ele>
        <time>2021-07-11T08:29:13.000Z</time>
      </trkpt>
      <trkpt lat="41.371805" lon="1.12785667">
        <ele>727.0</ele>
        <time>2021-07-11T08:29:14.000Z</time>
      </trkpt>
      <trkpt lat="41.371815" lon="1.12785333">
        <ele>727.0</ele>
        <time>2021-07-11T08:29:15.000Z</time>
      </trkpt>
      <trkpt lat="41.371825" lon="1.12785">
        <ele>727.0</ele>
        <time>2021-07-11T08:29:16.000Z</time>
      </trkpt>
      <trkpt lat="41.37183667" lon="1.12784667">
        <ele>727.0</ele>
        <time>2021-07-11T08:29:17.000Z</time>
      </trkpt>
      <trkpt lat="41.37184667" lon="1.127845">
        <ele>727.0</ele>
        <time>2021-07-11T08:29:18.000Z</time>
      </trkpt>
      <trkpt lat="41.37185667" lon="1.12784333">
        <ele>727.0</ele>
        <time>2021-07-11T08:29:19.000Z</time>
      </trkpt>
      <trkpt lat="41.371865" lon="1.12784333">
        <ele>728.0</ele>
        <time>2021-07-11T08:29:20.000Z</time>
      </trkpt>
      <trkpt lat="41.371875" lon="1.12784333">
        <ele>728.0</ele>
        <time>2021-07-11T08:29:21.000Z</time>
      </trkpt>
      <trkpt lat="41.37188333" lon="1.12784333">
        <ele>728.0</ele>
        <time>2021-07-11T08:29:22.000Z</time>
      </trkpt>
      <trkpt lat="41.37189333" lon="1.127845">
        <ele>728.0</ele>
        <time>2021-07-11T08:29:23.000Z</time>
      </trkpt>
      <trkpt lat="41.37190333" lon="1.12785">
        <ele>728.0</ele>
        <time>2021-07-11T08:29:24.000Z</time>
      </trkpt>
      <trkpt lat="41.37191667" lon="1.12785167">
        <ele>728.0</ele>
        <time>2021-07-11T08:29:25.000Z</time>
      </trkpt>
      <trkpt lat="41.37192833" lon="1.12785333">
        <ele>728.0</ele>
        <time>2021-07-11T08:29:26.000Z</time>
      </trkpt>
      <trkpt lat="41.37194" lon="1.12785667">
        <ele>728.0</ele>
        <time>2021-07-11T08:29:27.000Z</time>
      </trkpt>
      <trkpt lat="41.37194833" lon="1.12786">
        <ele>728.0</ele>
        <time>2021-07-11T08:29:28.000Z</time>
      </trkpt>
      <trkpt lat="41.37195833" lon="1.12786167">
        <ele>728.0</ele>
        <time>2021-07-11T08:29:29.000Z</time>
      </trkpt>
      <trkpt lat="41.37196833" lon="1.127865">
        <ele>728.0</ele>
        <time>2021-07-11T08:29:30.000Z</time>
      </trkpt>
      <trkpt lat="41.37197833" lon="1.12786833">
        <ele>728.0</ele>
        <time>2021-07-11T08:29:31.000Z</time>
      </trkpt>
      <trkpt lat="41.37199167" lon="1.12787167">
        <ele>728.0</ele>
        <time>2021-07-11T08:29:32.000Z</time>
      </trkpt>
      <trkpt lat="41.372005" lon="1.12787667">
        <ele>728.0</ele>
        <time>2021-07-11T08:29:33.000Z</time>
      </trkpt>
      <trkpt lat="41.37201667" lon="1.12788333">
        <ele>728.0</ele>
        <time>2021-07-11T08:29:34.000Z</time>
      </trkpt>
      <trkpt lat="41.37203" lon="1.127885">
        <ele>728.0</ele>
        <time>2021-07-11T08:29:35.000Z</time>
      </trkpt>
      <trkpt lat="41.37204167" lon="1.12788833">
        <ele>728.0</ele>
        <time>2021-07-11T08:29:36.000Z</time>
      </trkpt>
      <trkpt lat="41.37205167" lon="1.12789167">
        <ele>728.0</ele>
        <time>2021-07-11T08:29:37.000Z</time>
      </trkpt>
      <trkpt lat="41.37206333" lon="1.12789667">
        <ele>729.0</ele>
        <time>2021-07-11T08:29:38.000Z</time>
      </trkpt>
      <trkpt lat="41.37207667" lon="1.12789833">
        <ele>729.0</ele>
        <time>2021-07-11T08:29:39.000Z</time>
      </trkpt>
      <trkpt lat="41.37208667" lon="1.12790167">
        <ele>729.0</ele>
        <time>2021-07-11T08:29:40.000Z</time>
      </trkpt>
      <trkpt lat="41.3721" lon="1.127905">
        <ele>729.0</ele>
        <time>2021-07-11T08:29:41.000Z</time>
      </trkpt>
      <trkpt lat="41.37211333" lon="1.12791167">
        <ele>729.0</ele>
        <time>2021-07-11T08:29:42.000Z</time>
      </trkpt>
      <trkpt lat="41.37212667" lon="1.12791833">
        <ele>729.0</ele>
        <time>2021-07-11T08:29:43.000Z</time>
      </trkpt>
      <trkpt lat="41.37213833" lon="1.12792833">
        <ele>729.0</ele>
        <time>2021-07-11T08:29:44.000Z</time>
      </trkpt>
      <trkpt lat="41.37214833" lon="1.12793833">
        <ele>729.0</ele>
        <time>2021-07-11T08:29:45.000Z</time>
      </trkpt>
      <trkpt lat="41.37215833" lon="1.12794667">
        <ele>729.0</ele>
        <time>2021-07-11T08:29:46.000Z</time>
      </trkpt>
      <trkpt lat="41.37216833" lon="1.12795333">
        <ele>729.0</ele>
        <time>2021-07-11T08:29:47.000Z</time>
      </trkpt>
      <trkpt lat="41.37218167" lon="1.12795833">
        <ele>728.0</ele>
        <time>2021-07-11T08:29:48.000Z</time>
      </trkpt>
      <trkpt lat="41.37219667" lon="1.12796167">
        <ele>728.0</ele>
        <time>2021-07-11T08:29:49.000Z</time>
      </trkpt>
      <trkpt lat="41.37220833" lon="1.12796667">
        <ele>728.0</ele>
        <time>2021-07-11T08:29:50.000Z</time>
      </trkpt>
      <trkpt lat="41.37221667" lon="1.12797333">
        <ele>728.0</ele>
        <time>2021-07-11T08:29:51.000Z</time>
      </trkpt>
      <trkpt lat="41.37222667" lon="1.12798">
        <ele>728.0</ele>
        <time>2021-07-11T08:29:52.000Z</time>
      </trkpt>
      <trkpt lat="41.372235" lon="1.12798667">
        <ele>728.0</ele>
        <time>2021-07-11T08:29:53.000Z</time>
      </trkpt>
      <trkpt lat="41.37224667" lon="1.12799333">
        <ele>728.0</ele>
        <time>2021-07-11T08:29:54.000Z</time>
      </trkpt>
      <trkpt lat="41.37225667" lon="1.128">
        <ele>728.0</ele>
        <time>2021-07-11T08:29:55.000Z</time>
      </trkpt>
      <trkpt lat="41.37226833" lon="1.12800833">
        <ele>728.0</ele>
        <time>2021-07-11T08:29:56.000Z</time>
      </trkpt>
      <trkpt lat="41.37227833" lon="1.12801333">
        <ele>728.0</ele>
        <time>2021-07-11T08:29:57.000Z</time>
      </trkpt>
      <trkpt lat="41.37229167" lon="1.128015">
        <ele>727.0</ele>
        <time>2021-07-11T08:29:58.000Z</time>
      </trkpt>
      <trkpt lat="41.37230333" lon="1.12801333">
        <ele>727.0</ele>
        <time>2021-07-11T08:29:59.000Z</time>
      </trkpt>
      <trkpt lat="41.37231333" lon="1.12801333">
        <ele>727.0</ele>
        <time>2021-07-11T08:30:00.000Z</time>
      </trkpt>
      <trkpt lat="41.37232667" lon="1.12801333">
        <ele>727.0</ele>
        <time>2021-07-11T08:30:01.000Z</time>
      </trkpt>
      <trkpt lat="41.37234" lon="1.12801333">
        <ele>727.0</ele>
        <time>2021-07-11T08:30:02.000Z</time>
      </trkpt>
      <trkpt lat="41.37235" lon="1.128015">
        <ele>727.0</ele>
        <time>2021-07-11T08:30:03.000Z</time>
      </trkpt>
      <trkpt lat="41.37236167" lon="1.12801667">
        <ele>727.0</ele>
        <time>2021-07-11T08:30:04.000Z</time>
      </trkpt>
      <trkpt lat="41.37237" lon="1.128015">
        <ele>727.0</ele>
        <time>2021-07-11T08:30:05.000Z</time>
      </trkpt>
      <trkpt lat="41.37238167" lon="1.12801333">
        <ele>727.0</ele>
        <time>2021-07-11T08:30:06.000Z</time>
      </trkpt>
      <trkpt lat="41.37238833" lon="1.12801167">
        <ele>727.0</ele>
        <time>2021-07-11T08:30:07.000Z</time>
      </trkpt>
      <trkpt lat="41.372395" lon="1.12801333">
        <ele>727.0</ele>
        <time>2021-07-11T08:30:08.000Z</time>
      </trkpt>
      <trkpt lat="41.37240667" lon="1.12801667">
        <ele>727.0</ele>
        <time>2021-07-11T08:30:09.000Z</time>
      </trkpt>
      <trkpt lat="41.37242" lon="1.12802167">
        <ele>727.0</ele>
        <time>2021-07-11T08:30:10.000Z</time>
      </trkpt>
      <trkpt lat="41.37243" lon="1.12802667">
        <ele>727.0</ele>
        <time>2021-07-11T08:30:11.000Z</time>
      </trkpt>
      <trkpt lat="41.37244" lon="1.12802833">
        <ele>727.0</ele>
        <time>2021-07-11T08:30:12.000Z</time>
      </trkpt>
      <trkpt lat="41.37245333" lon="1.12802667">
        <ele>727.0</ele>
        <time>2021-07-11T08:30:13.000Z</time>
      </trkpt>
      <trkpt lat="41.372465" lon="1.12802833">
        <ele>727.0</ele>
        <time>2021-07-11T08:30:14.000Z</time>
      </trkpt>
      <trkpt lat="41.372475" lon="1.12803">
        <ele>727.0</ele>
        <time>2021-07-11T08:30:15.000Z</time>
      </trkpt>
      <trkpt lat="41.37248833" lon="1.12803">
        <ele>727.0</ele>
        <time>2021-07-11T08:30:16.000Z</time>
      </trkpt>
      <trkpt lat="41.3725" lon="1.128025">
        <ele>726.0</ele>
        <time>2021-07-11T08:30:17.000Z</time>
      </trkpt>
      <trkpt lat="41.37251333" lon="1.12801833">
        <ele>726.0</ele>
        <time>2021-07-11T08:30:18.000Z</time>
      </trkpt>
      <trkpt lat="41.372525" lon="1.12801333">
        <ele>726.0</ele>
        <time>2021-07-11T08:30:19.000Z</time>
      </trkpt>
      <trkpt lat="41.37253833" lon="1.12801167">
        <ele>726.0</ele>
        <time>2021-07-11T08:30:20.000Z</time>
      </trkpt>
      <trkpt lat="41.37255" lon="1.12800667">
        <ele>726.0</ele>
        <time>2021-07-11T08:30:21.000Z</time>
      </trkpt>
      <trkpt lat="41.37256167" lon="1.12800833">
        <ele>726.0</ele>
        <time>2021-07-11T08:30:22.000Z</time>
      </trkpt>
      <trkpt lat="41.37257333" lon="1.12800833">
        <ele>726.0</ele>
        <time>2021-07-11T08:30:23.000Z</time>
      </trkpt>
      <trkpt lat="41.37258667" lon="1.128005">
        <ele>726.0</ele>
        <time>2021-07-11T08:30:24.000Z</time>
      </trkpt>
      <trkpt lat="41.3726" lon="1.12800167">
        <ele>726.0</ele>
        <time>2021-07-11T08:30:25.000Z</time>
      </trkpt>
      <trkpt lat="41.37261333" lon="1.12799667">
        <ele>726.0</ele>
        <time>2021-07-11T08:30:26.000Z</time>
      </trkpt>
      <trkpt lat="41.372625" lon="1.12799167">
        <ele>726.0</ele>
        <time>2021-07-11T08:30:27.000Z</time>
      </trkpt>
      <trkpt lat="41.37264" lon="1.12798667">
        <ele>726.0</ele>
        <time>2021-07-11T08:30:28.000Z</time>
      </trkpt>
      <trkpt lat="41.37265" lon="1.12798167">
        <ele>726.0</ele>
        <time>2021-07-11T08:30:29.000Z</time>
      </trkpt>
      <trkpt lat="41.37266167" lon="1.12797667">
        <ele>725.0</ele>
        <time>2021-07-11T08:30:30.000Z</time>
      </trkpt>
      <trkpt lat="41.37267333" lon="1.12796833">
        <ele>725.0</ele>
        <time>2021-07-11T08:30:31.000Z</time>
      </trkpt>
      <trkpt lat="41.37268167" lon="1.12796167">
        <ele>725.0</ele>
        <time>2021-07-11T08:30:32.000Z</time>
      </trkpt>
      <trkpt lat="41.37269167" lon="1.127955">
        <ele>725.0</ele>
        <time>2021-07-11T08:30:33.000Z</time>
      </trkpt>
      <trkpt lat="41.37270333" lon="1.12795167">
        <ele>725.0</ele>
        <time>2021-07-11T08:30:34.000Z</time>
      </trkpt>
      <trkpt lat="41.372715" lon="1.12794667">
        <ele>725.0</ele>
        <time>2021-07-11T08:30:35.000Z</time>
      </trkpt>
      <trkpt lat="41.37272667" lon="1.12794167">
        <ele>725.0</ele>
        <time>2021-07-11T08:30:36.000Z</time>
      </trkpt>
      <trkpt lat="41.37274" lon="1.12793667">
        <ele>725.0</ele>
        <time>2021-07-11T08:30:37.000Z</time>
      </trkpt>
      <trkpt lat="41.37275167" lon="1.12793167">
        <ele>725.0</ele>
        <time>2021-07-11T08:30:38.000Z</time>
      </trkpt>
      <trkpt lat="41.37276333" lon="1.12792667">
        <ele>725.0</ele>
        <time>2021-07-11T08:30:39.000Z</time>
      </trkpt>
      <trkpt lat="41.37277667" lon="1.127925">
        <ele>724.0</ele>
        <time>2021-07-11T08:30:40.000Z</time>
      </trkpt>
      <trkpt lat="41.37279" lon="1.12792667">
        <ele>724.0</ele>
        <time>2021-07-11T08:30:41.000Z</time>
      </trkpt>
      <trkpt lat="41.37280167" lon="1.12792833">
        <ele>724.0</ele>
        <time>2021-07-11T08:30:42.000Z</time>
      </trkpt>
      <trkpt lat="41.37281333" lon="1.12793">
        <ele>724.0</ele>
        <time>2021-07-11T08:30:43.000Z</time>
      </trkpt>
      <trkpt lat="41.37282333" lon="1.12793167">
        <ele>724.0</ele>
        <time>2021-07-11T08:30:44.000Z</time>
      </trkpt>
      <trkpt lat="41.37283667" lon="1.12793333">
        <ele>724.0</ele>
        <time>2021-07-11T08:30:45.000Z</time>
      </trkpt>
      <trkpt lat="41.37285" lon="1.127935">
        <ele>724.0</ele>
        <time>2021-07-11T08:30:46.000Z</time>
      </trkpt>
      <trkpt lat="41.37286333" lon="1.12794">
        <ele>723.0</ele>
        <time>2021-07-11T08:30:47.000Z</time>
      </trkpt>
      <trkpt lat="41.372875" lon="1.12795">
        <ele>723.0</ele>
        <time>2021-07-11T08:30:48.000Z</time>
      </trkpt>
      <trkpt lat="41.37288667" lon="1.12796">
        <ele>723.0</ele>
        <time>2021-07-11T08:30:49.000Z</time>
      </trkpt>
      <trkpt lat="41.37289667" lon="1.12797167">
        <ele>723.0</ele>
        <time>2021-07-11T08:30:50.000Z</time>
      </trkpt>
      <trkpt lat="41.37290333" lon="1.12798667">
        <ele>723.0</ele>
        <time>2021-07-11T08:30:51.000Z</time>
      </trkpt>
      <trkpt lat="41.37291333" lon="1.12800167">
        <ele>723.0</ele>
        <time>2021-07-11T08:30:52.000Z</time>
      </trkpt>
      <trkpt lat="41.37292" lon="1.128015">
        <ele>723.0</ele>
        <time>2021-07-11T08:30:53.000Z</time>
      </trkpt>
      <trkpt lat="41.372925" lon="1.12803167">
        <ele>722.0</ele>
        <time>2021-07-11T08:30:54.000Z</time>
      </trkpt>
      <trkpt lat="41.37292833" lon="1.12804833">
        <ele>722.0</ele>
        <time>2021-07-11T08:30:55.000Z</time>
      </trkpt>
      <trkpt lat="41.37293" lon="1.12806667">
        <ele>722.0</ele>
        <time>2021-07-11T08:30:56.000Z</time>
      </trkpt>
      <trkpt lat="41.37293167" lon="1.128085">
        <ele>722.0</ele>
        <time>2021-07-11T08:30:57.000Z</time>
      </trkpt>
      <trkpt lat="41.37293333" lon="1.1281">
        <ele>722.0</ele>
        <time>2021-07-11T08:30:58.000Z</time>
      </trkpt>
      <trkpt lat="41.37293167" lon="1.12811667">
        <ele>722.0</ele>
        <time>2021-07-11T08:30:59.000Z</time>
      </trkpt>
      <trkpt lat="41.37292833" lon="1.12813167">
        <ele>722.0</ele>
        <time>2021-07-11T08:31:00.000Z</time>
      </trkpt>
      <trkpt lat="41.37292833" lon="1.128145">
        <ele>722.0</ele>
        <time>2021-07-11T08:31:01.000Z</time>
      </trkpt>
      <trkpt lat="41.37293" lon="1.12815667">
        <ele>722.0</ele>
        <time>2021-07-11T08:31:02.000Z</time>
      </trkpt>
      <trkpt lat="41.37293333" lon="1.12817">
        <ele>722.0</ele>
        <time>2021-07-11T08:31:03.000Z</time>
      </trkpt>
      <trkpt lat="41.37293833" lon="1.12818167">
        <ele>722.0</ele>
        <time>2021-07-11T08:31:04.000Z</time>
      </trkpt>
      <trkpt lat="41.37294667" lon="1.12819167">
        <ele>721.0</ele>
        <time>2021-07-11T08:31:05.000Z</time>
      </trkpt>
      <trkpt lat="41.372955" lon="1.12820167">
        <ele>721.0</ele>
        <time>2021-07-11T08:31:06.000Z</time>
      </trkpt>
      <trkpt lat="41.372965" lon="1.12821333">
        <ele>721.0</ele>
        <time>2021-07-11T08:31:07.000Z</time>
      </trkpt>
      <trkpt lat="41.37297167" lon="1.12822167">
        <ele>721.0</ele>
        <time>2021-07-11T08:31:08.000Z</time>
      </trkpt>
      <trkpt lat="41.372975" lon="1.12823">
        <ele>721.0</ele>
        <time>2021-07-11T08:31:09.000Z</time>
      </trkpt>
      <trkpt lat="41.37298" lon="1.12824">
        <ele>721.0</ele>
        <time>2021-07-11T08:31:10.000Z</time>
      </trkpt>
      <trkpt lat="41.372985" lon="1.12825">
        <ele>721.0</ele>
        <time>2021-07-11T08:31:11.000Z</time>
      </trkpt>
      <trkpt lat="41.37299167" lon="1.12825833">
        <ele>720.0</ele>
        <time>2021-07-11T08:31:12.000Z</time>
      </trkpt>
      <trkpt lat="41.373" lon="1.12826833">
        <ele>720.0</ele>
        <time>2021-07-11T08:31:13.000Z</time>
      </trkpt>
      <trkpt lat="41.37300667" lon="1.12827667">
        <ele>720.0</ele>
        <time>2021-07-11T08:31:14.000Z</time>
      </trkpt>
      <trkpt lat="41.37301333" lon="1.128285">
        <ele>720.0</ele>
        <time>2021-07-11T08:31:15.000Z</time>
      </trkpt>
      <trkpt lat="41.37301667" lon="1.12829333">
        <ele>720.0</ele>
        <time>2021-07-11T08:31:16.000Z</time>
      </trkpt>
      <trkpt lat="41.37301667" lon="1.12830333">
        <ele>720.0</ele>
        <time>2021-07-11T08:31:17.000Z</time>
      </trkpt>
      <trkpt lat="41.37301833" lon="1.12831333">
        <ele>720.0</ele>
        <time>2021-07-11T08:31:18.000Z</time>
      </trkpt>
      <trkpt lat="41.37302" lon="1.12832167">
        <ele>720.0</ele>
        <time>2021-07-11T08:31:19.000Z</time>
      </trkpt>
      <trkpt lat="41.373025" lon="1.12833333">
        <ele>720.0</ele>
        <time>2021-07-11T08:31:20.000Z</time>
      </trkpt>
      <trkpt lat="41.37302833" lon="1.12834167">
        <ele>719.0</ele>
        <time>2021-07-11T08:31:21.000Z</time>
      </trkpt>
      <trkpt lat="41.37303333" lon="1.12835">
        <ele>719.0</ele>
        <time>2021-07-11T08:31:22.000Z</time>
      </trkpt>
      <trkpt lat="41.37303667" lon="1.12835833">
        <ele>719.0</ele>
        <time>2021-07-11T08:31:23.000Z</time>
      </trkpt>
      <trkpt lat="41.37304167" lon="1.128365">
        <ele>719.0</ele>
        <time>2021-07-11T08:31:24.000Z</time>
      </trkpt>
      <trkpt lat="41.373045" lon="1.128375">
        <ele>719.0</ele>
        <time>2021-07-11T08:31:25.000Z</time>
      </trkpt>
      <trkpt lat="41.37304833" lon="1.12838167">
        <ele>719.0</ele>
        <time>2021-07-11T08:31:26.000Z</time>
      </trkpt>
      <trkpt lat="41.37305333" lon="1.12839167">
        <ele>719.0</ele>
        <time>2021-07-11T08:31:27.000Z</time>
      </trkpt>
      <trkpt lat="41.37305667" lon="1.12840333">
        <ele>719.0</ele>
        <time>2021-07-11T08:31:28.000Z</time>
      </trkpt>
      <trkpt lat="41.37306" lon="1.12841667">
        <ele>719.0</ele>
        <time>2021-07-11T08:31:29.000Z</time>
      </trkpt>
      <trkpt lat="41.37306" lon="1.12842833">
        <ele>719.0</ele>
        <time>2021-07-11T08:31:30.000Z</time>
      </trkpt>
      <trkpt lat="41.37306167" lon="1.12843667">
        <ele>718.0</ele>
        <time>2021-07-11T08:31:31.000Z</time>
      </trkpt>
      <trkpt lat="41.37306333" lon="1.12844333">
        <ele>718.0</ele>
        <time>2021-07-11T08:31:32.000Z</time>
      </trkpt>
      <trkpt lat="41.37306667" lon="1.12844833">
        <ele>718.0</ele>
        <time>2021-07-11T08:31:33.000Z</time>
      </trkpt>
      <trkpt lat="41.37306833" lon="1.12845667">
        <ele>718.0</ele>
        <time>2021-07-11T08:31:34.000Z</time>
      </trkpt>
      <trkpt lat="41.37307167" lon="1.128465">
        <ele>718.0</ele>
        <time>2021-07-11T08:31:35.000Z</time>
      </trkpt>
      <trkpt lat="41.37307333" lon="1.12847333">
        <ele>718.0</ele>
        <time>2021-07-11T08:31:36.000Z</time>
      </trkpt>
      <trkpt lat="41.37308" lon="1.12848167">
        <ele>718.0</ele>
        <time>2021-07-11T08:31:37.000Z</time>
      </trkpt>
      <trkpt lat="41.373085" lon="1.12849">
        <ele>718.0</ele>
        <time>2021-07-11T08:31:38.000Z</time>
      </trkpt>
      <trkpt lat="41.37308833" lon="1.12849667">
        <ele>718.0</ele>
        <time>2021-07-11T08:31:39.000Z</time>
      </trkpt>
      <trkpt lat="41.37309167" lon="1.12850167">
        <ele>718.0</ele>
        <time>2021-07-11T08:31:40.000Z</time>
      </trkpt>
      <trkpt lat="41.373095" lon="1.128505">
        <ele>718.0</ele>
        <time>2021-07-11T08:31:41.000Z</time>
      </trkpt>
      <trkpt lat="41.3731" lon="1.12851167">
        <ele>718.0</ele>
        <time>2021-07-11T08:31:42.000Z</time>
      </trkpt>
      <trkpt lat="41.37310167" lon="1.12852167">
        <ele>717.0</ele>
        <time>2021-07-11T08:31:43.000Z</time>
      </trkpt>
      <trkpt lat="41.37310833" lon="1.12853">
        <ele>717.0</ele>
        <time>2021-07-11T08:31:44.000Z</time>
      </trkpt>
      <trkpt lat="41.37311167" lon="1.12853833">
        <ele>717.0</ele>
        <time>2021-07-11T08:31:45.000Z</time>
      </trkpt>
      <trkpt lat="41.373115" lon="1.128545">
        <ele>717.0</ele>
        <time>2021-07-11T08:31:46.000Z</time>
      </trkpt>
      <trkpt lat="41.37311833" lon="1.12855333">
        <ele>717.0</ele>
        <time>2021-07-11T08:31:47.000Z</time>
      </trkpt>
      <trkpt lat="41.37312333" lon="1.12856333">
        <ele>717.0</ele>
        <time>2021-07-11T08:31:48.000Z</time>
      </trkpt>
      <trkpt lat="41.37313" lon="1.12857167">
        <ele>716.0</ele>
        <time>2021-07-11T08:31:49.000Z</time>
      </trkpt>
      <trkpt lat="41.37313333" lon="1.12857833">
        <ele>716.0</ele>
        <time>2021-07-11T08:31:50.000Z</time>
      </trkpt>
      <trkpt lat="41.373135" lon="1.128585">
        <ele>716.0</ele>
        <time>2021-07-11T08:31:51.000Z</time>
      </trkpt>
      <trkpt lat="41.37313833" lon="1.12859333">
        <ele>716.0</ele>
        <time>2021-07-11T08:31:52.000Z</time>
      </trkpt>
      <trkpt lat="41.37313833" lon="1.128605">
        <ele>716.0</ele>
        <time>2021-07-11T08:31:53.000Z</time>
      </trkpt>
      <trkpt lat="41.37313833" lon="1.12862">
        <ele>716.0</ele>
        <time>2021-07-11T08:31:54.000Z</time>
      </trkpt>
      <trkpt lat="41.37313667" lon="1.128635">
        <ele>716.0</ele>
        <time>2021-07-11T08:31:55.000Z</time>
      </trkpt>
      <trkpt lat="41.373135" lon="1.12864833">
        <ele>716.0</ele>
        <time>2021-07-11T08:31:56.000Z</time>
      </trkpt>
      <trkpt lat="41.373135" lon="1.12866">
        <ele>716.0</ele>
        <time>2021-07-11T08:31:57.000Z</time>
      </trkpt>
      <trkpt lat="41.37313833" lon="1.12867333">
        <ele>716.0</ele>
        <time>2021-07-11T08:31:58.000Z</time>
      </trkpt>
      <trkpt lat="41.37314167" lon="1.128685">
        <ele>715.0</ele>
        <time>2021-07-11T08:31:59.000Z</time>
      </trkpt>
      <trkpt lat="41.37314833" lon="1.1287">
        <ele>715.0</ele>
        <time>2021-07-11T08:32:00.000Z</time>
      </trkpt>
      <trkpt lat="41.37315667" lon="1.12871">
        <ele>715.0</ele>
        <time>2021-07-11T08:32:01.000Z</time>
      </trkpt>
      <trkpt lat="41.373165" lon="1.128715">
        <ele>715.0</ele>
        <time>2021-07-11T08:32:02.000Z</time>
      </trkpt>
      <trkpt lat="41.37317" lon="1.12871833">
        <ele>715.0</ele>
        <time>2021-07-11T08:32:03.000Z</time>
      </trkpt>
      <trkpt lat="41.37317333" lon="1.12872333">
        <ele>715.0</ele>
        <time>2021-07-11T08:32:04.000Z</time>
      </trkpt>
      <trkpt lat="41.37317667" lon="1.12873">
        <ele>715.0</ele>
        <time>2021-07-11T08:32:05.000Z</time>
      </trkpt>
      <trkpt lat="41.37318333" lon="1.12874">
        <ele>715.0</ele>
        <time>2021-07-11T08:32:06.000Z</time>
      </trkpt>
      <trkpt lat="41.37318833" lon="1.12875">
        <ele>714.0</ele>
        <time>2021-07-11T08:32:07.000Z</time>
      </trkpt>
      <trkpt lat="41.373195" lon="1.12875667">
        <ele>714.0</ele>
        <time>2021-07-11T08:32:08.000Z</time>
      </trkpt>
      <trkpt lat="41.3732" lon="1.128765">
        <ele>714.0</ele>
        <time>2021-07-11T08:32:09.000Z</time>
      </trkpt>
      <trkpt lat="41.37320667" lon="1.128775">
        <ele>714.0</ele>
        <time>2021-07-11T08:32:10.000Z</time>
      </trkpt>
      <trkpt lat="41.37321333" lon="1.12878333">
        <ele>714.0</ele>
        <time>2021-07-11T08:32:11.000Z</time>
      </trkpt>
      <trkpt lat="41.373215" lon="1.12879">
        <ele>714.0</ele>
        <time>2021-07-11T08:32:12.000Z</time>
      </trkpt>
      <trkpt lat="41.37321667" lon="1.12879833">
        <ele>714.0</ele>
        <time>2021-07-11T08:32:13.000Z</time>
      </trkpt>
      <trkpt lat="41.37322333" lon="1.12880833">
        <ele>713.0</ele>
        <time>2021-07-11T08:32:14.000Z</time>
      </trkpt>
      <trkpt lat="41.37322833" lon="1.12882333">
        <ele>713.0</ele>
        <time>2021-07-11T08:32:15.000Z</time>
      </trkpt>
      <trkpt lat="41.37323333" lon="1.12883833">
        <ele>713.0</ele>
        <time>2021-07-11T08:32:16.000Z</time>
      </trkpt>
      <trkpt lat="41.37324" lon="1.12885167">
        <ele>713.0</ele>
        <time>2021-07-11T08:32:17.000Z</time>
      </trkpt>
      <trkpt lat="41.37324333" lon="1.12886333">
        <ele>713.0</ele>
        <time>2021-07-11T08:32:18.000Z</time>
      </trkpt>
      <trkpt lat="41.37324833" lon="1.12887333">
        <ele>713.0</ele>
        <time>2021-07-11T08:32:19.000Z</time>
      </trkpt>
      <trkpt lat="41.373255" lon="1.12888333">
        <ele>713.0</ele>
        <time>2021-07-11T08:32:20.000Z</time>
      </trkpt>
      <trkpt lat="41.37326167" lon="1.128895">
        <ele>713.0</ele>
        <time>2021-07-11T08:32:21.000Z</time>
      </trkpt>
      <trkpt lat="41.37326833" lon="1.128905">
        <ele>712.0</ele>
        <time>2021-07-11T08:32:22.000Z</time>
      </trkpt>
      <trkpt lat="41.37327333" lon="1.128915">
        <ele>712.0</ele>
        <time>2021-07-11T08:32:23.000Z</time>
      </trkpt>
      <trkpt lat="41.37327833" lon="1.12892333">
        <ele>712.0</ele>
        <time>2021-07-11T08:32:24.000Z</time>
      </trkpt>
      <trkpt lat="41.37328167" lon="1.12893167">
        <ele>712.0</ele>
        <time>2021-07-11T08:32:25.000Z</time>
      </trkpt>
      <trkpt lat="41.37328667" lon="1.12894">
        <ele>712.0</ele>
        <time>2021-07-11T08:32:26.000Z</time>
      </trkpt>
      <trkpt lat="41.37329167" lon="1.12894667">
        <ele>712.0</ele>
        <time>2021-07-11T08:32:27.000Z</time>
      </trkpt>
      <trkpt lat="41.37329667" lon="1.128955">
        <ele>712.0</ele>
        <time>2021-07-11T08:32:28.000Z</time>
      </trkpt>
      <trkpt lat="41.3733" lon="1.12896333">
        <ele>712.0</ele>
        <time>2021-07-11T08:32:29.000Z</time>
      </trkpt>
      <trkpt lat="41.37330667" lon="1.12897">
        <ele>711.0</ele>
        <time>2021-07-11T08:32:30.000Z</time>
      </trkpt>
      <trkpt lat="41.37331333" lon="1.12897333">
        <ele>711.0</ele>
        <time>2021-07-11T08:32:31.000Z</time>
      </trkpt>
      <trkpt lat="41.37332167" lon="1.12897333">
        <ele>711.0</ele>
        <time>2021-07-11T08:32:32.000Z</time>
      </trkpt>
      <trkpt lat="41.37333" lon="1.12897333">
        <ele>711.0</ele>
        <time>2021-07-11T08:32:33.000Z</time>
      </trkpt>
      <trkpt lat="41.37334167" lon="1.128975">
        <ele>711.0</ele>
        <time>2021-07-11T08:32:34.000Z</time>
      </trkpt>
      <trkpt lat="41.37335" lon="1.12897667">
        <ele>711.0</ele>
        <time>2021-07-11T08:32:35.000Z</time>
      </trkpt>
      <trkpt lat="41.37336167" lon="1.12897833">
        <ele>711.0</ele>
        <time>2021-07-11T08:32:36.000Z</time>
      </trkpt>
      <trkpt lat="41.37337333" lon="1.12897833">
        <ele>711.0</ele>
        <time>2021-07-11T08:32:37.000Z</time>
      </trkpt>
      <trkpt lat="41.37338333" lon="1.12898">
        <ele>711.0</ele>
        <time>2021-07-11T08:32:38.000Z</time>
      </trkpt>
      <trkpt lat="41.37339167" lon="1.12898">
        <ele>711.0</ele>
        <time>2021-07-11T08:32:39.000Z</time>
      </trkpt>
      <trkpt lat="41.37339667" lon="1.12898">
        <ele>711.0</ele>
        <time>2021-07-11T08:32:40.000Z</time>
      </trkpt>
      <trkpt lat="41.37340167" lon="1.12898167">
        <ele>711.0</ele>
        <time>2021-07-11T08:32:41.000Z</time>
      </trkpt>
      <trkpt lat="41.37340333" lon="1.12898333">
        <ele>711.0</ele>
        <time>2021-07-11T08:32:42.000Z</time>
      </trkpt>
      <trkpt lat="41.373405" lon="1.12898333">
        <ele>711.0</ele>
        <time>2021-07-11T08:32:43.000Z</time>
      </trkpt>
      <trkpt lat="41.37340667" lon="1.12898">
        <ele>711.0</ele>
        <time>2021-07-11T08:32:44.000Z</time>
      </trkpt>
      <trkpt lat="41.37340833" lon="1.12897667">
        <ele>711.0</ele>
        <time>2021-07-11T08:32:45.000Z</time>
      </trkpt>
      <trkpt lat="41.37341333" lon="1.12897667">
        <ele>711.0</ele>
        <time>2021-07-11T08:32:46.000Z</time>
      </trkpt>
      <trkpt lat="41.373415" lon="1.12897167">
        <ele>711.0</ele>
        <time>2021-07-11T08:32:47.000Z</time>
      </trkpt>
      <trkpt lat="41.37341833" lon="1.12896667">
        <ele>711.0</ele>
        <time>2021-07-11T08:32:48.000Z</time>
      </trkpt>
      <trkpt lat="41.37342333" lon="1.128965">
        <ele>711.0</ele>
        <time>2021-07-11T08:32:49.000Z</time>
      </trkpt>
      <trkpt lat="41.37343" lon="1.12896667">
        <ele>711.0</ele>
        <time>2021-07-11T08:32:50.000Z</time>
      </trkpt>
      <trkpt lat="41.37343667" lon="1.12897">
        <ele>711.0</ele>
        <time>2021-07-11T08:32:51.000Z</time>
      </trkpt>
      <trkpt lat="41.373445" lon="1.12896833">
        <ele>711.0</ele>
        <time>2021-07-11T08:32:52.000Z</time>
      </trkpt>
      <trkpt lat="41.37345" lon="1.12896833">
        <ele>711.0</ele>
        <time>2021-07-11T08:32:53.000Z</time>
      </trkpt>
      <trkpt lat="41.373455" lon="1.12897333">
        <ele>711.0</ele>
        <time>2021-07-11T08:32:54.000Z</time>
      </trkpt>
      <trkpt lat="41.37345667" lon="1.12897667">
        <ele>711.0</ele>
        <time>2021-07-11T08:32:55.000Z</time>
      </trkpt>
      <trkpt lat="41.37345833" lon="1.12897833">
        <ele>711.0</ele>
        <time>2021-07-11T08:32:56.000Z</time>
      </trkpt>
      <trkpt lat="41.37345833" lon="1.12897833">
        <ele>711.0</ele>
        <time>2021-07-11T08:32:57.000Z</time>
      </trkpt>
      <trkpt lat="41.37346" lon="1.12897833">
        <ele>711.0</ele>
        <time>2021-07-11T08:32:58.000Z</time>
      </trkpt>
      <trkpt lat="41.37346" lon="1.12897833">
        <ele>711.0</ele>
        <time>2021-07-11T08:32:59.000Z</time>
      </trkpt>
      <trkpt lat="41.37346167" lon="1.12897833">
        <ele>711.0</ele>
        <time>2021-07-11T08:33:00.000Z</time>
      </trkpt>
      <trkpt lat="41.37346167" lon="1.12897833">
        <ele>711.0</ele>
        <time>2021-07-11T08:33:01.000Z</time>
      </trkpt>
      <trkpt lat="41.37346167" lon="1.12897833">
        <ele>711.0</ele>
        <time>2021-07-11T08:33:02.000Z</time>
      </trkpt>
      <trkpt lat="41.37346333" lon="1.12897833">
        <ele>711.0</ele>
        <time>2021-07-11T08:33:03.000Z</time>
      </trkpt>
      <trkpt lat="41.37346333" lon="1.12897667">
        <ele>711.0</ele>
        <time>2021-07-11T08:33:04.000Z</time>
      </trkpt>
      <trkpt lat="41.373465" lon="1.12897667">
        <ele>711.0</ele>
        <time>2021-07-11T08:33:05.000Z</time>
      </trkpt>
      <trkpt lat="41.373465" lon="1.12897667">
        <ele>711.0</ele>
        <time>2021-07-11T08:33:06.000Z</time>
      </trkpt>
      <trkpt lat="41.37346667" lon="1.12897667">
        <ele>711.0</ele>
        <time>2021-07-11T08:33:07.000Z</time>
      </trkpt>
      <trkpt lat="41.37346833" lon="1.12897667">
        <ele>711.0</ele>
        <time>2021-07-11T08:33:08.000Z</time>
      </trkpt>
      <trkpt lat="41.37346833" lon="1.12897667">
        <ele>711.0</ele>
        <time>2021-07-11T08:33:09.000Z</time>
      </trkpt>
      <trkpt lat="41.37346833" lon="1.12898">
        <ele>711.0</ele>
        <time>2021-07-11T08:33:10.000Z</time>
      </trkpt>
      <trkpt lat="41.37346833" lon="1.12898">
        <ele>711.0</ele>
        <time>2021-07-11T08:33:11.000Z</time>
      </trkpt>
      <trkpt lat="41.37346833" lon="1.12898">
        <ele>711.0</ele>
        <time>2021-07-11T08:33:12.000Z</time>
      </trkpt>
      <trkpt lat="41.37346833" lon="1.12898167">
        <ele>711.0</ele>
        <time>2021-07-11T08:33:13.000Z</time>
      </trkpt>
      <trkpt lat="41.37346833" lon="1.12898333">
        <ele>711.0</ele>
        <time>2021-07-11T08:33:14.000Z</time>
      </trkpt>
      <trkpt lat="41.37346833" lon="1.12898167">
        <ele>712.0</ele>
        <time>2021-07-11T08:33:15.000Z</time>
      </trkpt>
      <trkpt lat="41.37346667" lon="1.12898167">
        <ele>712.0</ele>
        <time>2021-07-11T08:33:16.000Z</time>
      </trkpt>
      <trkpt lat="41.37346667" lon="1.12898167">
        <ele>712.0</ele>
        <time>2021-07-11T08:33:17.000Z</time>
      </trkpt>
      <trkpt lat="41.373465" lon="1.12898">
        <ele>712.0</ele>
        <time>2021-07-11T08:33:18.000Z</time>
      </trkpt>
      <trkpt lat="41.373465" lon="1.12898167">
        <ele>712.0</ele>
        <time>2021-07-11T08:33:19.000Z</time>
      </trkpt>
      <trkpt lat="41.37346667" lon="1.12898167">
        <ele>712.0</ele>
        <time>2021-07-11T08:33:20.000Z</time>
      </trkpt>
      <trkpt lat="41.37346667" lon="1.12898167">
        <ele>712.0</ele>
        <time>2021-07-11T08:33:21.000Z</time>
      </trkpt>
      <trkpt lat="41.37346667" lon="1.128985">
        <ele>712.0</ele>
        <time>2021-07-11T08:33:22.000Z</time>
      </trkpt>
      <trkpt lat="41.37346667" lon="1.128985">
        <ele>712.0</ele>
        <time>2021-07-11T08:33:23.000Z</time>
      </trkpt>
      <trkpt lat="41.37346667" lon="1.128985">
        <ele>712.0</ele>
        <time>2021-07-11T08:33:24.000Z</time>
      </trkpt>
      <trkpt lat="41.37346667" lon="1.128985">
        <ele>711.0</ele>
        <time>2021-07-11T08:33:25.000Z</time>
      </trkpt>
      <trkpt lat="41.37346667" lon="1.12898667">
        <ele>711.0</ele>
        <time>2021-07-11T08:33:26.000Z</time>
      </trkpt>
      <trkpt lat="41.37346667" lon="1.12898667">
        <ele>711.0</ele>
        <time>2021-07-11T08:33:27.000Z</time>
      </trkpt>
      <trkpt lat="41.37346667" lon="1.128985">
        <ele>711.0</ele>
        <time>2021-07-11T08:33:28.000Z</time>
      </trkpt>
      <trkpt lat="41.37346667" lon="1.128985">
        <ele>711.0</ele>
        <time>2021-07-11T08:33:29.000Z</time>
      </trkpt>
      <trkpt lat="41.37346667" lon="1.12898667">
        <ele>711.0</ele>
        <time>2021-07-11T08:33:30.000Z</time>
      </trkpt>
      <trkpt lat="41.37346667" lon="1.128985">
        <ele>711.0</ele>
        <time>2021-07-11T08:33:31.000Z</time>
      </trkpt>
      <trkpt lat="41.37346667" lon="1.128985">
        <ele>711.0</ele>
        <time>2021-07-11T08:33:32.000Z</time>
      </trkpt>
      <trkpt lat="41.37346833" lon="1.128985">
        <ele>711.0</ele>
        <time>2021-07-11T08:33:33.000Z</time>
      </trkpt>
      <trkpt lat="41.37346833" lon="1.128985">
        <ele>711.0</ele>
        <time>2021-07-11T08:33:34.000Z</time>
      </trkpt>
      <trkpt lat="41.37346833" lon="1.128985">
        <ele>711.0</ele>
        <time>2021-07-11T08:33:35.000Z</time>
      </trkpt>
      <trkpt lat="41.37347" lon="1.128985">
        <ele>711.0</ele>
        <time>2021-07-11T08:33:36.000Z</time>
      </trkpt>
      <trkpt lat="41.37347" lon="1.128985">
        <ele>711.0</ele>
        <time>2021-07-11T08:33:37.000Z</time>
      </trkpt>
      <trkpt lat="41.37347" lon="1.128985">
        <ele>711.0</ele>
        <time>2021-07-11T08:33:38.000Z</time>
      </trkpt>
      <trkpt lat="41.37347" lon="1.128985">
        <ele>711.0</ele>
        <time>2021-07-11T08:33:39.000Z</time>
      </trkpt>
      <trkpt lat="41.37347" lon="1.128985">
        <ele>711.0</ele>
        <time>2021-07-11T08:33:40.000Z</time>
      </trkpt>
      <trkpt lat="41.37347167" lon="1.128985">
        <ele>711.0</ele>
        <time>2021-07-11T08:33:41.000Z</time>
      </trkpt>
      <trkpt lat="41.37347167" lon="1.128985">
        <ele>711.0</ele>
        <time>2021-07-11T08:33:42.000Z</time>
      </trkpt>
      <trkpt lat="41.37347167" lon="1.128985">
        <ele>711.0</ele>
        <time>2021-07-11T08:33:43.000Z</time>
      </trkpt>
      <trkpt lat="41.37347167" lon="1.128985">
        <ele>711.0</ele>
        <time>2021-07-11T08:33:44.000Z</time>
      </trkpt>
      <trkpt lat="41.37347" lon="1.12898333">
        <ele>711.0</ele>
        <time>2021-07-11T08:33:45.000Z</time>
      </trkpt>
      <trkpt lat="41.37347" lon="1.128985">
        <ele>711.0</ele>
        <time>2021-07-11T08:33:46.000Z</time>
      </trkpt>
      <trkpt lat="41.37347" lon="1.12898667">
        <ele>711.0</ele>
        <time>2021-07-11T08:33:47.000Z</time>
      </trkpt>
      <trkpt lat="41.37347" lon="1.12898833">
        <ele>711.0</ele>
        <time>2021-07-11T08:33:48.000Z</time>
      </trkpt>
      <trkpt lat="41.37346833" lon="1.12899">
        <ele>711.0</ele>
        <time>2021-07-11T08:33:49.000Z</time>
      </trkpt>
      <trkpt lat="41.37347" lon="1.12899167">
        <ele>711.0</ele>
        <time>2021-07-11T08:33:50.000Z</time>
      </trkpt>
      <trkpt lat="41.37346833" lon="1.12899">
        <ele>711.0</ele>
        <time>2021-07-11T08:33:51.000Z</time>
      </trkpt>
      <trkpt lat="41.37346833" lon="1.12899">
        <ele>711.0</ele>
        <time>2021-07-11T08:33:52.000Z</time>
      </trkpt>
      <trkpt lat="41.37346833" lon="1.12899333">
        <ele>711.0</ele>
        <time>2021-07-11T08:33:53.000Z</time>
      </trkpt>
      <trkpt lat="41.37346833" lon="1.128995">
        <ele>711.0</ele>
        <time>2021-07-11T08:33:54.000Z</time>
      </trkpt>
      <trkpt lat="41.37346833" lon="1.12899667">
        <ele>710.0</ele>
        <time>2021-07-11T08:33:55.000Z</time>
      </trkpt>
      <trkpt lat="41.37346833" lon="1.12899667">
        <ele>710.0</ele>
        <time>2021-07-11T08:33:56.000Z</time>
      </trkpt>
      <trkpt lat="41.37346833" lon="1.12899833">
        <ele>710.0</ele>
        <time>2021-07-11T08:33:57.000Z</time>
      </trkpt>
      <trkpt lat="41.37346833" lon="1.12899667">
        <ele>710.0</ele>
        <time>2021-07-11T08:33:58.000Z</time>
      </trkpt>
      <trkpt lat="41.37347333" lon="1.12899833">
        <ele>710.0</ele>
        <time>2021-07-11T08:33:59.000Z</time>
      </trkpt>
      <trkpt lat="41.37347667" lon="1.129">
        <ele>710.0</ele>
        <time>2021-07-11T08:34:00.000Z</time>
      </trkpt>
      <trkpt lat="41.37347833" lon="1.12900167">
        <ele>710.0</ele>
        <time>2021-07-11T08:34:01.000Z</time>
      </trkpt>
      <trkpt lat="41.37347833" lon="1.12900167">
        <ele>710.0</ele>
        <time>2021-07-11T08:34:02.000Z</time>
      </trkpt>
      <trkpt lat="41.37347833" lon="1.12900167">
        <ele>710.0</ele>
        <time>2021-07-11T08:34:03.000Z</time>
      </trkpt>
      <trkpt lat="41.37347833" lon="1.12900167">
        <ele>710.0</ele>
        <time>2021-07-11T08:34:04.000Z</time>
      </trkpt>
      <trkpt lat="41.37347833" lon="1.12900167">
        <ele>710.0</ele>
        <time>2021-07-11T08:34:05.000Z</time>
      </trkpt>
      <trkpt lat="41.37347833" lon="1.12900333">
        <ele>710.0</ele>
        <time>2021-07-11T08:34:06.000Z</time>
      </trkpt>
      <trkpt lat="41.37347833" lon="1.12900333">
        <ele>710.0</ele>
        <time>2021-07-11T08:34:07.000Z</time>
      </trkpt>
      <trkpt lat="41.37347833" lon="1.12900333">
        <ele>710.0</ele>
        <time>2021-07-11T08:34:08.000Z</time>
      </trkpt>
      <trkpt lat="41.37347833" lon="1.12900333">
        <ele>710.0</ele>
        <time>2021-07-11T08:34:09.000Z</time>
      </trkpt>
      <trkpt lat="41.37348" lon="1.12900333">
        <ele>710.0</ele>
        <time>2021-07-11T08:34:10.000Z</time>
      </trkpt>
      <trkpt lat="41.37348" lon="1.12900333">
        <ele>710.0</ele>
        <time>2021-07-11T08:34:11.000Z</time>
      </trkpt>
      <trkpt lat="41.37348" lon="1.12900333">
        <ele>710.0</ele>
        <time>2021-07-11T08:34:12.000Z</time>
      </trkpt>
      <trkpt lat="41.37348167" lon="1.12900333">
        <ele>710.0</ele>
        <time>2021-07-11T08:34:13.000Z</time>
      </trkpt>
      <trkpt lat="41.37348167" lon="1.12900333">
        <ele>710.0</ele>
        <time>2021-07-11T08:34:14.000Z</time>
      </trkpt>
      <trkpt lat="41.37348167" lon="1.12900333">
        <ele>710.0</ele>
        <time>2021-07-11T08:34:15.000Z</time>
      </trkpt>
      <trkpt lat="41.37348167" lon="1.12900333">
        <ele>710.0</ele>
        <time>2021-07-11T08:34:16.000Z</time>
      </trkpt>
      <trkpt lat="41.37348167" lon="1.12900333">
        <ele>710.0</ele>
        <time>2021-07-11T08:34:17.000Z</time>
      </trkpt>
      <trkpt lat="41.37348167" lon="1.12900333">
        <ele>710.0</ele>
        <time>2021-07-11T08:34:18.000Z</time>
      </trkpt>
      <trkpt lat="41.37348167" lon="1.12900333">
        <ele>710.0</ele>
        <time>2021-07-11T08:34:19.000Z</time>
      </trkpt>
      <trkpt lat="41.37348167" lon="1.12900333">
        <ele>710.0</ele>
        <time>2021-07-11T08:34:20.000Z</time>
      </trkpt>
      <trkpt lat="41.37348167" lon="1.12900333">
        <ele>710.0</ele>
        <time>2021-07-11T08:34:21.000Z</time>
      </trkpt>
      <trkpt lat="41.37348" lon="1.12900167">
        <ele>710.0</ele>
        <time>2021-07-11T08:34:22.000Z</time>
      </trkpt>
      <trkpt lat="41.37348" lon="1.12900167">
        <ele>710.0</ele>
        <time>2021-07-11T08:34:23.000Z</time>
      </trkpt>
      <trkpt lat="41.37347833" lon="1.12899833">
        <ele>710.0</ele>
        <time>2021-07-11T08:34:24.000Z</time>
      </trkpt>
      <trkpt lat="41.37347833" lon="1.12899833">
        <ele>710.0</ele>
        <time>2021-07-11T08:34:25.000Z</time>
      </trkpt>
      <trkpt lat="41.37347833" lon="1.12899833">
        <ele>710.0</ele>
        <time>2021-07-11T08:34:26.000Z</time>
      </trkpt>
      <trkpt lat="41.37347833" lon="1.129">
        <ele>710.0</ele>
        <time>2021-07-11T08:34:27.000Z</time>
      </trkpt>
      <trkpt lat="41.37348" lon="1.129">
        <ele>710.0</ele>
        <time>2021-07-11T08:34:28.000Z</time>
      </trkpt>
      <trkpt lat="41.37348" lon="1.12899833">
        <ele>710.0</ele>
        <time>2021-07-11T08:34:29.000Z</time>
      </trkpt>
      <trkpt lat="41.37348167" lon="1.12899833">
        <ele>710.0</ele>
        <time>2021-07-11T08:34:30.000Z</time>
      </trkpt>
      <trkpt lat="41.37348167" lon="1.12899667">
        <ele>710.0</ele>
        <time>2021-07-11T08:34:31.000Z</time>
      </trkpt>
      <trkpt lat="41.37348167" lon="1.128995">
        <ele>710.0</ele>
        <time>2021-07-11T08:34:32.000Z</time>
      </trkpt>
      <trkpt lat="41.37348333" lon="1.12899333">
        <ele>710.0</ele>
        <time>2021-07-11T08:34:33.000Z</time>
      </trkpt>
      <trkpt lat="41.37348333" lon="1.12899167">
        <ele>710.0</ele>
        <time>2021-07-11T08:34:34.000Z</time>
      </trkpt>
      <trkpt lat="41.37348333" lon="1.12899167">
        <ele>710.0</ele>
        <time>2021-07-11T08:34:35.000Z</time>
      </trkpt>
      <trkpt lat="41.37348333" lon="1.128995">
        <ele>710.0</ele>
        <time>2021-07-11T08:34:36.000Z</time>
      </trkpt>
      <trkpt lat="41.373485" lon="1.128995">
        <ele>710.0</ele>
        <time>2021-07-11T08:34:37.000Z</time>
      </trkpt>
      <trkpt lat="41.373485" lon="1.128995">
        <ele>710.0</ele>
        <time>2021-07-11T08:34:38.000Z</time>
      </trkpt>
      <trkpt lat="41.373485" lon="1.128995">
        <ele>710.0</ele>
        <time>2021-07-11T08:34:39.000Z</time>
      </trkpt>
      <trkpt lat="41.37348333" lon="1.128995">
        <ele>710.0</ele>
        <time>2021-07-11T08:34:40.000Z</time>
      </trkpt>
      <trkpt lat="41.37348333" lon="1.128995">
        <ele>710.0</ele>
        <time>2021-07-11T08:34:41.000Z</time>
      </trkpt>
      <trkpt lat="41.37348333" lon="1.12899333">
        <ele>710.0</ele>
        <time>2021-07-11T08:34:42.000Z</time>
      </trkpt>
      <trkpt lat="41.37348333" lon="1.12899333">
        <ele>710.0</ele>
        <time>2021-07-11T08:34:43.000Z</time>
      </trkpt>
      <trkpt lat="41.37348333" lon="1.12899333">
        <ele>710.0</ele>
        <time>2021-07-11T08:34:44.000Z</time>
      </trkpt>
      <trkpt lat="41.37348" lon="1.12899167">
        <ele>710.0</ele>
        <time>2021-07-11T08:34:45.000Z</time>
      </trkpt>
      <trkpt lat="41.37348" lon="1.12899">
        <ele>710.0</ele>
        <time>2021-07-11T08:34:46.000Z</time>
      </trkpt>
      <trkpt lat="41.37347833" lon="1.12898833">
        <ele>710.0</ele>
        <time>2021-07-11T08:34:47.000Z</time>
      </trkpt>
      <trkpt lat="41.37347833" lon="1.12898833">
        <ele>710.0</ele>
        <time>2021-07-11T08:34:48.000Z</time>
      </trkpt>
      <trkpt lat="41.37348" lon="1.12898833">
        <ele>710.0</ele>
        <time>2021-07-11T08:34:49.000Z</time>
      </trkpt>
      <trkpt lat="41.37348" lon="1.12898833">
        <ele>710.0</ele>
        <time>2021-07-11T08:34:50.000Z</time>
      </trkpt>
      <trkpt lat="41.37347833" lon="1.12898833">
        <ele>710.0</ele>
        <time>2021-07-11T08:34:51.000Z</time>
      </trkpt>
      <trkpt lat="41.37347833" lon="1.12898833">
        <ele>710.0</ele>
        <time>2021-07-11T08:34:52.000Z</time>
      </trkpt>
      <trkpt lat="41.37347833" lon="1.12898833">
        <ele>710.0</ele>
        <time>2021-07-11T08:34:53.000Z</time>
      </trkpt>
      <trkpt lat="41.37347833" lon="1.12898833">
        <ele>710.0</ele>
        <time>2021-07-11T08:34:54.000Z</time>
      </trkpt>
      <trkpt lat="41.37347833" lon="1.12898833">
        <ele>710.0</ele>
        <time>2021-07-11T08:34:55.000Z</time>
      </trkpt>
      <trkpt lat="41.37348" lon="1.12898667">
        <ele>710.0</ele>
        <time>2021-07-11T08:34:56.000Z</time>
      </trkpt>
      <trkpt lat="41.37348167" lon="1.12898667">
        <ele>710.0</ele>
        <time>2021-07-11T08:34:57.000Z</time>
      </trkpt>
      <trkpt lat="41.37348167" lon="1.12898667">
        <ele>710.0</ele>
        <time>2021-07-11T08:34:58.000Z</time>
      </trkpt>
      <trkpt lat="41.37348" lon="1.12898667">
        <ele>710.0</ele>
        <time>2021-07-11T08:34:59.000Z</time>
      </trkpt>
      <trkpt lat="41.37348" lon="1.12898667">
        <ele>710.0</ele>
        <time>2021-07-11T08:35:00.000Z</time>
      </trkpt>
      <trkpt lat="41.37348" lon="1.12898667">
        <ele>710.0</ele>
        <time>2021-07-11T08:35:01.000Z</time>
      </trkpt>
      <trkpt lat="41.37348" lon="1.12898667">
        <ele>710.0</ele>
        <time>2021-07-11T08:35:02.000Z</time>
      </trkpt>
      <trkpt lat="41.37348" lon="1.12898667">
        <ele>710.0</ele>
        <time>2021-07-11T08:35:03.000Z</time>
      </trkpt>
      <trkpt lat="41.37347833" lon="1.12898833">
        <ele>710.0</ele>
        <time>2021-07-11T08:35:04.000Z</time>
      </trkpt>
      <trkpt lat="41.37347833" lon="1.12898833">
        <ele>710.0</ele>
        <time>2021-07-11T08:35:05.000Z</time>
      </trkpt>
      <trkpt lat="41.37347667" lon="1.12898833">
        <ele>710.0</ele>
        <time>2021-07-11T08:35:06.000Z</time>
      </trkpt>
      <trkpt lat="41.37347667" lon="1.12898833">
        <ele>710.0</ele>
        <time>2021-07-11T08:35:07.000Z</time>
      </trkpt>
      <trkpt lat="41.37347667" lon="1.12898833">
        <ele>710.0</ele>
        <time>2021-07-11T08:35:08.000Z</time>
      </trkpt>
      <trkpt lat="41.37347667" lon="1.12898833">
        <ele>710.0</ele>
        <time>2021-07-11T08:35:09.000Z</time>
      </trkpt>
      <trkpt lat="41.37347667" lon="1.12898833">
        <ele>710.0</ele>
        <time>2021-07-11T08:35:10.000Z</time>
      </trkpt>
      <trkpt lat="41.37347667" lon="1.12898833">
        <ele>710.0</ele>
        <time>2021-07-11T08:35:11.000Z</time>
      </trkpt>
      <trkpt lat="41.37347667" lon="1.12898833">
        <ele>710.0</ele>
        <time>2021-07-11T08:35:12.000Z</time>
      </trkpt>
      <trkpt lat="41.37347667" lon="1.12898667">
        <ele>710.0</ele>
        <time>2021-07-11T08:35:13.000Z</time>
      </trkpt>
      <trkpt lat="41.37347833" lon="1.12898667">
        <ele>710.0</ele>
        <time>2021-07-11T08:35:14.000Z</time>
      </trkpt>
      <trkpt lat="41.37347833" lon="1.12898667">
        <ele>710.0</ele>
        <time>2021-07-11T08:35:15.000Z</time>
      </trkpt>
      <trkpt lat="41.37347833" lon="1.12898667">
        <ele>710.0</ele>
        <time>2021-07-11T08:35:16.000Z</time>
      </trkpt>
      <trkpt lat="41.37347833" lon="1.128985">
        <ele>710.0</ele>
        <time>2021-07-11T08:35:17.000Z</time>
      </trkpt>
      <trkpt lat="41.37347833" lon="1.12898667">
        <ele>710.0</ele>
        <time>2021-07-11T08:35:18.000Z</time>
      </trkpt>
      <trkpt lat="41.37347833" lon="1.12898667">
        <ele>710.0</ele>
        <time>2021-07-11T08:35:19.000Z</time>
      </trkpt>
      <trkpt lat="41.37347833" lon="1.12898667">
        <ele>710.0</ele>
        <time>2021-07-11T08:35:20.000Z</time>
      </trkpt>
      <trkpt lat="41.37347833" lon="1.12898667">
        <ele>710.0</ele>
        <time>2021-07-11T08:35:21.000Z</time>
      </trkpt>
      <trkpt lat="41.37347833" lon="1.12898667">
        <ele>709.0</ele>
        <time>2021-07-11T08:35:22.000Z</time>
      </trkpt>
      <trkpt lat="41.37347833" lon="1.12898667">
        <ele>709.0</ele>
        <time>2021-07-11T08:35:23.000Z</time>
      </trkpt>
      <trkpt lat="41.37347833" lon="1.12898667">
        <ele>709.0</ele>
        <time>2021-07-11T08:35:24.000Z</time>
      </trkpt>
      <trkpt lat="41.37348" lon="1.12898667">
        <ele>709.0</ele>
        <time>2021-07-11T08:35:25.000Z</time>
      </trkpt>
      <trkpt lat="41.37348" lon="1.12898667">
        <ele>709.0</ele>
        <time>2021-07-11T08:35:26.000Z</time>
      </trkpt>
      <trkpt lat="41.37348" lon="1.12898667">
        <ele>709.0</ele>
        <time>2021-07-11T08:35:27.000Z</time>
      </trkpt>
      <trkpt lat="41.37348" lon="1.12898667">
        <ele>709.0</ele>
        <time>2021-07-11T08:35:28.000Z</time>
      </trkpt>
      <trkpt lat="41.37348" lon="1.12898833">
        <ele>709.0</ele>
        <time>2021-07-11T08:35:29.000Z</time>
      </trkpt>
      <trkpt lat="41.37348" lon="1.12898833">
        <ele>709.0</ele>
        <time>2021-07-11T08:35:30.000Z</time>
      </trkpt>
      <trkpt lat="41.37348" lon="1.12898833">
        <ele>709.0</ele>
        <time>2021-07-11T08:35:31.000Z</time>
      </trkpt>
      <trkpt lat="41.37348" lon="1.12898833">
        <ele>709.0</ele>
        <time>2021-07-11T08:35:32.000Z</time>
      </trkpt>
      <trkpt lat="41.37348" lon="1.12898667">
        <ele>709.0</ele>
        <time>2021-07-11T08:35:33.000Z</time>
      </trkpt>
      <trkpt lat="41.37348" lon="1.12898667">
        <ele>709.0</ele>
        <time>2021-07-11T08:35:34.000Z</time>
      </trkpt>
      <trkpt lat="41.37348" lon="1.12898667">
        <ele>709.0</ele>
        <time>2021-07-11T08:35:35.000Z</time>
      </trkpt>
      <trkpt lat="41.37348" lon="1.12898667">
        <ele>709.0</ele>
        <time>2021-07-11T08:35:36.000Z</time>
      </trkpt>
      <trkpt lat="41.37348" lon="1.12898667">
        <ele>709.0</ele>
        <time>2021-07-11T08:35:37.000Z</time>
      </trkpt>
      <trkpt lat="41.37348" lon="1.12898667">
        <ele>709.0</ele>
        <time>2021-07-11T08:35:38.000Z</time>
      </trkpt>
      <trkpt lat="41.37347833" lon="1.128985">
        <ele>709.0</ele>
        <time>2021-07-11T08:35:39.000Z</time>
      </trkpt>
      <trkpt lat="41.37347833" lon="1.128985">
        <ele>709.0</ele>
        <time>2021-07-11T08:35:40.000Z</time>
      </trkpt>
      <trkpt lat="41.37347833" lon="1.12898833">
        <ele>709.0</ele>
        <time>2021-07-11T08:35:41.000Z</time>
      </trkpt>
      <trkpt lat="41.37347833" lon="1.12898833">
        <ele>709.0</ele>
        <time>2021-07-11T08:35:42.000Z</time>
      </trkpt>
      <trkpt lat="41.37348" lon="1.12898833">
        <ele>709.0</ele>
        <time>2021-07-11T08:35:43.000Z</time>
      </trkpt>
      <trkpt lat="41.37348" lon="1.12898833">
        <ele>709.0</ele>
        <time>2021-07-11T08:35:44.000Z</time>
      </trkpt>
      <trkpt lat="41.37348167" lon="1.12898833">
        <ele>709.0</ele>
        <time>2021-07-11T08:35:45.000Z</time>
      </trkpt>
      <trkpt lat="41.37348167" lon="1.12898833">
        <ele>709.0</ele>
        <time>2021-07-11T08:35:46.000Z</time>
      </trkpt>
      <trkpt lat="41.37348333" lon="1.12898833">
        <ele>709.0</ele>
        <time>2021-07-11T08:35:47.000Z</time>
      </trkpt>
      <trkpt lat="41.37348333" lon="1.12898667">
        <ele>709.0</ele>
        <time>2021-07-11T08:35:48.000Z</time>
      </trkpt>
      <trkpt lat="41.37348333" lon="1.12898667">
        <ele>709.0</ele>
        <time>2021-07-11T08:35:49.000Z</time>
      </trkpt>
      <trkpt lat="41.373485" lon="1.12898667">
        <ele>709.0</ele>
        <time>2021-07-11T08:35:50.000Z</time>
      </trkpt>
      <trkpt lat="41.373485" lon="1.12898667">
        <ele>709.0</ele>
        <time>2021-07-11T08:35:51.000Z</time>
      </trkpt>
      <trkpt lat="41.373485" lon="1.128985">
        <ele>709.0</ele>
        <time>2021-07-11T08:35:52.000Z</time>
      </trkpt>
      <trkpt lat="41.373485" lon="1.128985">
        <ele>709.0</ele>
        <time>2021-07-11T08:35:53.000Z</time>
      </trkpt>
      <trkpt lat="41.373485" lon="1.12898667">
        <ele>709.0</ele>
        <time>2021-07-11T08:35:54.000Z</time>
      </trkpt>
      <trkpt lat="41.373485" lon="1.12898667">
        <ele>709.0</ele>
        <time>2021-07-11T08:35:55.000Z</time>
      </trkpt>
      <trkpt lat="41.37348667" lon="1.12898667">
        <ele>709.0</ele>
        <time>2021-07-11T08:35:56.000Z</time>
      </trkpt>
      <trkpt lat="41.37348833" lon="1.12898833">
        <ele>708.0</ele>
        <time>2021-07-11T08:35:57.000Z</time>
      </trkpt>
      <trkpt lat="41.37348833" lon="1.12898833">
        <ele>708.0</ele>
        <time>2021-07-11T08:35:58.000Z</time>
      </trkpt>
      <trkpt lat="41.37348833" lon="1.12898833">
        <ele>708.0</ele>
        <time>2021-07-11T08:35:59.000Z</time>
      </trkpt>
      <trkpt lat="41.37348833" lon="1.12898833">
        <ele>708.0</ele>
        <time>2021-07-11T08:36:00.000Z</time>
      </trkpt>
      <trkpt lat="41.37348833" lon="1.12898833">
        <ele>708.0</ele>
        <time>2021-07-11T08:36:01.000Z</time>
      </trkpt>
      <trkpt lat="41.37348833" lon="1.12898833">
        <ele>708.0</ele>
        <time>2021-07-11T08:36:02.000Z</time>
      </trkpt>
      <trkpt lat="41.37348833" lon="1.12898667">
        <ele>708.0</ele>
        <time>2021-07-11T08:36:03.000Z</time>
      </trkpt>
      <trkpt lat="41.37348833" lon="1.12898667">
        <ele>708.0</ele>
        <time>2021-07-11T08:36:04.000Z</time>
      </trkpt>
      <trkpt lat="41.37348833" lon="1.128985">
        <ele>708.0</ele>
        <time>2021-07-11T08:36:05.000Z</time>
      </trkpt>
      <trkpt lat="41.37349" lon="1.12898667">
        <ele>708.0</ele>
        <time>2021-07-11T08:36:06.000Z</time>
      </trkpt>
      <trkpt lat="41.37349" lon="1.12898667">
        <ele>708.0</ele>
        <time>2021-07-11T08:36:07.000Z</time>
      </trkpt>
      <trkpt lat="41.37349" lon="1.12898667">
        <ele>708.0</ele>
        <time>2021-07-11T08:36:08.000Z</time>
      </trkpt>
      <trkpt lat="41.37349" lon="1.12898833">
        <ele>708.0</ele>
        <time>2021-07-11T08:36:09.000Z</time>
      </trkpt>
      <trkpt lat="41.37349" lon="1.12898667">
        <ele>708.0</ele>
        <time>2021-07-11T08:36:10.000Z</time>
      </trkpt>
      <trkpt lat="41.37348833" lon="1.12898667">
        <ele>708.0</ele>
        <time>2021-07-11T08:36:11.000Z</time>
      </trkpt>
      <trkpt lat="41.37348833" lon="1.12898667">
        <ele>708.0</ele>
        <time>2021-07-11T08:36:12.000Z</time>
      </trkpt>
      <trkpt lat="41.37348833" lon="1.12898667">
        <ele>708.0</ele>
        <time>2021-07-11T08:36:13.000Z</time>
      </trkpt>
      <trkpt lat="41.37349" lon="1.12898833">
        <ele>708.0</ele>
        <time>2021-07-11T08:36:14.000Z</time>
      </trkpt>
      <trkpt lat="41.37349167" lon="1.12899">
        <ele>708.0</ele>
        <time>2021-07-11T08:36:15.000Z</time>
      </trkpt>
      <trkpt lat="41.37349333" lon="1.12899">
        <ele>708.0</ele>
        <time>2021-07-11T08:36:16.000Z</time>
      </trkpt>
      <trkpt lat="41.37349333" lon="1.12898833">
        <ele>708.0</ele>
        <time>2021-07-11T08:36:17.000Z</time>
      </trkpt>
      <trkpt lat="41.37349667" lon="1.12898833">
        <ele>708.0</ele>
        <time>2021-07-11T08:36:18.000Z</time>
      </trkpt>
      <trkpt lat="41.37349833" lon="1.12899">
        <ele>708.0</ele>
        <time>2021-07-11T08:36:19.000Z</time>
      </trkpt>
      <trkpt lat="41.3735" lon="1.12899">
        <ele>708.0</ele>
        <time>2021-07-11T08:36:20.000Z</time>
      </trkpt>
      <trkpt lat="41.3735" lon="1.12899">
        <ele>708.0</ele>
        <time>2021-07-11T08:36:21.000Z</time>
      </trkpt>
      <trkpt lat="41.3735" lon="1.12899">
        <ele>708.0</ele>
        <time>2021-07-11T08:36:22.000Z</time>
      </trkpt>
      <trkpt lat="41.3735" lon="1.12899">
        <ele>708.0</ele>
        <time>2021-07-11T08:36:23.000Z</time>
      </trkpt>
      <trkpt lat="41.3735" lon="1.12899">
        <ele>708.0</ele>
        <time>2021-07-11T08:36:24.000Z</time>
      </trkpt>
      <trkpt lat="41.3735" lon="1.12899">
        <ele>708.0</ele>
        <time>2021-07-11T08:36:25.000Z</time>
      </trkpt>
      <trkpt lat="41.3735" lon="1.12898667">
        <ele>708.0</ele>
        <time>2021-07-11T08:36:26.000Z</time>
      </trkpt>
      <trkpt lat="41.3735" lon="1.12898667">
        <ele>708.0</ele>
        <time>2021-07-11T08:36:27.000Z</time>
      </trkpt>
      <trkpt lat="41.37350167" lon="1.12898833">
        <ele>708.0</ele>
        <time>2021-07-11T08:36:28.000Z</time>
      </trkpt>
      <trkpt lat="41.37350167" lon="1.12898833">
        <ele>708.0</ele>
        <time>2021-07-11T08:36:29.000Z</time>
      </trkpt>
      <trkpt lat="41.37350167" lon="1.12898667">
        <ele>708.0</ele>
        <time>2021-07-11T08:36:30.000Z</time>
      </trkpt>
      <trkpt lat="41.37350167" lon="1.12898667">
        <ele>708.0</ele>
        <time>2021-07-11T08:36:31.000Z</time>
      </trkpt>
      <trkpt lat="41.37350167" lon="1.12898667">
        <ele>708.0</ele>
        <time>2021-07-11T08:36:32.000Z</time>
      </trkpt>
      <trkpt lat="41.37350167" lon="1.12898667">
        <ele>707.0</ele>
        <time>2021-07-11T08:36:33.000Z</time>
      </trkpt>
      <trkpt lat="41.37350167" lon="1.12898667">
        <ele>707.0</ele>
        <time>2021-07-11T08:36:34.000Z</time>
      </trkpt>
      <trkpt lat="41.37350167" lon="1.12898667">
        <ele>707.0</ele>
        <time>2021-07-11T08:36:35.000Z</time>
      </trkpt>
      <trkpt lat="41.37350167" lon="1.12898667">
        <ele>707.0</ele>
        <time>2021-07-11T08:36:36.000Z</time>
      </trkpt>
      <trkpt lat="41.37350167" lon="1.12898667">
        <ele>707.0</ele>
        <time>2021-07-11T08:36:37.000Z</time>
      </trkpt>
      <trkpt lat="41.37350167" lon="1.128985">
        <ele>707.0</ele>
        <time>2021-07-11T08:36:38.000Z</time>
      </trkpt>
      <trkpt lat="41.37350167" lon="1.12898333">
        <ele>707.0</ele>
        <time>2021-07-11T08:36:39.000Z</time>
      </trkpt>
      <trkpt lat="41.37350333" lon="1.12898167">
        <ele>707.0</ele>
        <time>2021-07-11T08:36:40.000Z</time>
      </trkpt>
      <trkpt lat="41.37350333" lon="1.12898167">
        <ele>707.0</ele>
        <time>2021-07-11T08:36:41.000Z</time>
      </trkpt>
      <trkpt lat="41.37350333" lon="1.12898167">
        <ele>707.0</ele>
        <time>2021-07-11T08:36:42.000Z</time>
      </trkpt>
      <trkpt lat="41.37350333" lon="1.12898167">
        <ele>707.0</ele>
        <time>2021-07-11T08:36:43.000Z</time>
      </trkpt>
      <trkpt lat="41.37350333" lon="1.12898167">
        <ele>707.0</ele>
        <time>2021-07-11T08:36:44.000Z</time>
      </trkpt>
      <trkpt lat="41.373505" lon="1.12897667">
        <ele>707.0</ele>
        <time>2021-07-11T08:36:45.000Z</time>
      </trkpt>
      <trkpt lat="41.37350667" lon="1.128975">
        <ele>707.0</ele>
        <time>2021-07-11T08:36:46.000Z</time>
      </trkpt>
      <trkpt lat="41.373505" lon="1.12897333">
        <ele>707.0</ele>
        <time>2021-07-11T08:36:47.000Z</time>
      </trkpt>
      <trkpt lat="41.373505" lon="1.12897333">
        <ele>707.0</ele>
        <time>2021-07-11T08:36:48.000Z</time>
      </trkpt>
      <trkpt lat="41.373505" lon="1.12897333">
        <ele>707.0</ele>
        <time>2021-07-11T08:36:49.000Z</time>
      </trkpt>
      <trkpt lat="41.373505" lon="1.12897">
        <ele>707.0</ele>
        <time>2021-07-11T08:36:50.000Z</time>
      </trkpt>
      <trkpt lat="41.373505" lon="1.12897">
        <ele>707.0</ele>
        <time>2021-07-11T08:36:51.000Z</time>
      </trkpt>
      <trkpt lat="41.373505" lon="1.12897">
        <ele>707.0</ele>
        <time>2021-07-11T08:36:52.000Z</time>
      </trkpt>
      <trkpt lat="41.373505" lon="1.12897">
        <ele>707.0</ele>
        <time>2021-07-11T08:36:53.000Z</time>
      </trkpt>
      <trkpt lat="41.373505" lon="1.12897">
        <ele>707.0</ele>
        <time>2021-07-11T08:36:54.000Z</time>
      </trkpt>
      <trkpt lat="41.373505" lon="1.12896833">
        <ele>707.0</ele>
        <time>2021-07-11T08:36:55.000Z</time>
      </trkpt>
      <trkpt lat="41.373505" lon="1.12896833">
        <ele>706.0</ele>
        <time>2021-07-11T08:36:56.000Z</time>
      </trkpt>
      <trkpt lat="41.373505" lon="1.12896833">
        <ele>706.0</ele>
        <time>2021-07-11T08:36:57.000Z</time>
      </trkpt>
      <trkpt lat="41.373505" lon="1.12896833">
        <ele>706.0</ele>
        <time>2021-07-11T08:36:58.000Z</time>
      </trkpt>
      <trkpt lat="41.373505" lon="1.12896833">
        <ele>706.0</ele>
        <time>2021-07-11T08:36:59.000Z</time>
      </trkpt>
      <trkpt lat="41.373505" lon="1.12896667">
        <ele>706.0</ele>
        <time>2021-07-11T08:37:00.000Z</time>
      </trkpt>
      <trkpt lat="41.373505" lon="1.12896667">
        <ele>706.0</ele>
        <time>2021-07-11T08:37:01.000Z</time>
      </trkpt>
      <trkpt lat="41.373505" lon="1.12896667">
        <ele>706.0</ele>
        <time>2021-07-11T08:37:02.000Z</time>
      </trkpt>
      <trkpt lat="41.373505" lon="1.12896667">
        <ele>706.0</ele>
        <time>2021-07-11T08:37:03.000Z</time>
      </trkpt>
      <trkpt lat="41.37350333" lon="1.128965">
        <ele>706.0</ele>
        <time>2021-07-11T08:37:04.000Z</time>
      </trkpt>
      <trkpt lat="41.37350333" lon="1.12896667">
        <ele>706.0</ele>
        <time>2021-07-11T08:37:05.000Z</time>
      </trkpt>
      <trkpt lat="41.37350333" lon="1.128965">
        <ele>706.0</ele>
        <time>2021-07-11T08:37:06.000Z</time>
      </trkpt>
      <trkpt lat="41.37350333" lon="1.128965">
        <ele>706.0</ele>
        <time>2021-07-11T08:37:07.000Z</time>
      </trkpt>
      <trkpt lat="41.37350333" lon="1.128965">
        <ele>706.0</ele>
        <time>2021-07-11T08:37:08.000Z</time>
      </trkpt>
      <trkpt lat="41.37350333" lon="1.128965">
        <ele>706.0</ele>
        <time>2021-07-11T08:37:09.000Z</time>
      </trkpt>
      <trkpt lat="41.37350333" lon="1.128965">
        <ele>706.0</ele>
        <time>2021-07-11T08:37:10.000Z</time>
      </trkpt>
      <trkpt lat="41.37350333" lon="1.12896333">
        <ele>706.0</ele>
        <time>2021-07-11T08:37:11.000Z</time>
      </trkpt>
      <trkpt lat="41.373505" lon="1.12896333">
        <ele>706.0</ele>
        <time>2021-07-11T08:37:12.000Z</time>
      </trkpt>
      <trkpt lat="41.373505" lon="1.12896333">
        <ele>706.0</ele>
        <time>2021-07-11T08:37:13.000Z</time>
      </trkpt>
      <trkpt lat="41.373505" lon="1.12896333">
        <ele>706.0</ele>
        <time>2021-07-11T08:37:14.000Z</time>
      </trkpt>
      <trkpt lat="41.373505" lon="1.12896167">
        <ele>706.0</ele>
        <time>2021-07-11T08:37:15.000Z</time>
      </trkpt>
      <trkpt lat="41.37350333" lon="1.12896167">
        <ele>706.0</ele>
        <time>2021-07-11T08:37:16.000Z</time>
      </trkpt>
      <trkpt lat="41.37350333" lon="1.12896">
        <ele>706.0</ele>
        <time>2021-07-11T08:37:17.000Z</time>
      </trkpt>
      <trkpt lat="41.37350333" lon="1.12896">
        <ele>706.0</ele>
        <time>2021-07-11T08:37:18.000Z</time>
      </trkpt>
      <trkpt lat="41.373505" lon="1.12896167">
        <ele>706.0</ele>
        <time>2021-07-11T08:37:19.000Z</time>
      </trkpt>
      <trkpt lat="41.37350667" lon="1.12896167">
        <ele>706.0</ele>
        <time>2021-07-11T08:37:20.000Z</time>
      </trkpt>
      <trkpt lat="41.37350667" lon="1.12896167">
        <ele>706.0</ele>
        <time>2021-07-11T08:37:21.000Z</time>
      </trkpt>
      <trkpt lat="41.37350667" lon="1.12896167">
        <ele>706.0</ele>
        <time>2021-07-11T08:37:22.000Z</time>
      </trkpt>
      <trkpt lat="41.37350667" lon="1.12896167">
        <ele>706.0</ele>
        <time>2021-07-11T08:37:23.000Z</time>
      </trkpt>
      <trkpt lat="41.37350667" lon="1.12896167">
        <ele>706.0</ele>
        <time>2021-07-11T08:37:24.000Z</time>
      </trkpt>
      <trkpt lat="41.37350667" lon="1.12896167">
        <ele>706.0</ele>
        <time>2021-07-11T08:37:25.000Z</time>
      </trkpt>
      <trkpt lat="41.37350667" lon="1.12896167">
        <ele>706.0</ele>
        <time>2021-07-11T08:37:26.000Z</time>
      </trkpt>
      <trkpt lat="41.37350833" lon="1.12896167">
        <ele>706.0</ele>
        <time>2021-07-11T08:37:27.000Z</time>
      </trkpt>
      <trkpt lat="41.37350833" lon="1.12896167">
        <ele>706.0</ele>
        <time>2021-07-11T08:37:28.000Z</time>
      </trkpt>
      <trkpt lat="41.37350833" lon="1.12896167">
        <ele>706.0</ele>
        <time>2021-07-11T08:37:29.000Z</time>
      </trkpt>
      <trkpt lat="41.37350833" lon="1.12896167">
        <ele>706.0</ele>
        <time>2021-07-11T08:37:30.000Z</time>
      </trkpt>
      <trkpt lat="41.37350833" lon="1.12896167">
        <ele>706.0</ele>
        <time>2021-07-11T08:37:31.000Z</time>
      </trkpt>
      <trkpt lat="41.37350833" lon="1.12896167">
        <ele>706.0</ele>
        <time>2021-07-11T08:37:32.000Z</time>
      </trkpt>
      <trkpt lat="41.37350833" lon="1.12896167">
        <ele>706.0</ele>
        <time>2021-07-11T08:37:33.000Z</time>
      </trkpt>
      <trkpt lat="41.37350833" lon="1.12896167">
        <ele>706.0</ele>
        <time>2021-07-11T08:37:34.000Z</time>
      </trkpt>
      <trkpt lat="41.37350833" lon="1.12896167">
        <ele>706.0</ele>
        <time>2021-07-11T08:37:35.000Z</time>
      </trkpt>
      <trkpt lat="41.37350833" lon="1.12896167">
        <ele>706.0</ele>
        <time>2021-07-11T08:37:36.000Z</time>
      </trkpt>
      <trkpt lat="41.37350833" lon="1.12896167">
        <ele>706.0</ele>
        <time>2021-07-11T08:37:37.000Z</time>
      </trkpt>
      <trkpt lat="41.37350833" lon="1.12896167">
        <ele>706.0</ele>
        <time>2021-07-11T08:37:38.000Z</time>
      </trkpt>
      <trkpt lat="41.37350833" lon="1.12896167">
        <ele>706.0</ele>
        <time>2021-07-11T08:37:39.000Z</time>
      </trkpt>
      <trkpt lat="41.37350833" lon="1.12896167">
        <ele>706.0</ele>
        <time>2021-07-11T08:37:40.000Z</time>
      </trkpt>
      <trkpt lat="41.37350833" lon="1.12896167">
        <ele>705.0</ele>
        <time>2021-07-11T08:37:41.000Z</time>
      </trkpt>
      <trkpt lat="41.37350833" lon="1.12896167">
        <ele>706.0</ele>
        <time>2021-07-11T08:37:42.000Z</time>
      </trkpt>
      <trkpt lat="41.37350667" lon="1.12896167">
        <ele>706.0</ele>
        <time>2021-07-11T08:37:43.000Z</time>
      </trkpt>
      <trkpt lat="41.37350667" lon="1.12896167">
        <ele>706.0</ele>
        <time>2021-07-11T08:37:44.000Z</time>
      </trkpt>
      <trkpt lat="41.37350667" lon="1.12896167">
        <ele>706.0</ele>
        <time>2021-07-11T08:37:45.000Z</time>
      </trkpt>
      <trkpt lat="41.37350667" lon="1.12896167">
        <ele>706.0</ele>
        <time>2021-07-11T08:37:46.000Z</time>
      </trkpt>
      <trkpt lat="41.37350667" lon="1.12896167">
        <ele>706.0</ele>
        <time>2021-07-11T08:37:47.000Z</time>
      </trkpt>
      <trkpt lat="41.37350667" lon="1.12896167">
        <ele>706.0</ele>
        <time>2021-07-11T08:37:48.000Z</time>
      </trkpt>
      <trkpt lat="41.37350667" lon="1.12896167">
        <ele>706.0</ele>
        <time>2021-07-11T08:37:49.000Z</time>
      </trkpt>
      <trkpt lat="41.37350667" lon="1.12896167">
        <ele>706.0</ele>
        <time>2021-07-11T08:37:50.000Z</time>
      </trkpt>
      <trkpt lat="41.37350667" lon="1.12896167">
        <ele>706.0</ele>
        <time>2021-07-11T08:37:51.000Z</time>
      </trkpt>
      <trkpt lat="41.37350667" lon="1.12896167">
        <ele>706.0</ele>
        <time>2021-07-11T08:37:52.000Z</time>
      </trkpt>
      <trkpt lat="41.37350667" lon="1.12896167">
        <ele>706.0</ele>
        <time>2021-07-11T08:37:53.000Z</time>
      </trkpt>
      <trkpt lat="41.37350667" lon="1.12896167">
        <ele>706.0</ele>
        <time>2021-07-11T08:37:54.000Z</time>
      </trkpt>
      <trkpt lat="41.37350667" lon="1.12896167">
        <ele>706.0</ele>
        <time>2021-07-11T08:37:55.000Z</time>
      </trkpt>
      <trkpt lat="41.37350667" lon="1.12896167">
        <ele>706.0</ele>
        <time>2021-07-11T08:37:56.000Z</time>
      </trkpt>
      <trkpt lat="41.37350667" lon="1.12896167">
        <ele>706.0</ele>
        <time>2021-07-11T08:37:57.000Z</time>
      </trkpt>
      <trkpt lat="41.37350667" lon="1.12896167">
        <ele>706.0</ele>
        <time>2021-07-11T08:37:58.000Z</time>
      </trkpt>
      <trkpt lat="41.37350667" lon="1.12896167">
        <ele>706.0</ele>
        <time>2021-07-11T08:37:59.000Z</time>
      </trkpt>
      <trkpt lat="41.373505" lon="1.12896167">
        <ele>706.0</ele>
        <time>2021-07-11T08:38:00.000Z</time>
      </trkpt>
      <trkpt lat="41.373505" lon="1.12896167">
        <ele>706.0</ele>
        <time>2021-07-11T08:38:01.000Z</time>
      </trkpt>
      <trkpt lat="41.373505" lon="1.12896167">
        <ele>706.0</ele>
        <time>2021-07-11T08:38:02.000Z</time>
      </trkpt>
      <trkpt lat="41.373505" lon="1.12896167">
        <ele>706.0</ele>
        <time>2021-07-11T08:38:03.000Z</time>
      </trkpt>
      <trkpt lat="41.373505" lon="1.12896167">
        <ele>706.0</ele>
        <time>2021-07-11T08:38:04.000Z</time>
      </trkpt>
      <trkpt lat="41.373505" lon="1.12896167">
        <ele>706.0</ele>
        <time>2021-07-11T08:38:05.000Z</time>
      </trkpt>
      <trkpt lat="41.373505" lon="1.12896167">
        <ele>706.0</ele>
        <time>2021-07-11T08:38:06.000Z</time>
      </trkpt>
      <trkpt lat="41.373505" lon="1.12895833">
        <ele>706.0</ele>
        <time>2021-07-11T08:38:07.000Z</time>
      </trkpt>
      <trkpt lat="41.37350667" lon="1.12895833">
        <ele>706.0</ele>
        <time>2021-07-11T08:38:08.000Z</time>
      </trkpt>
      <trkpt lat="41.373505" lon="1.128955">
        <ele>705.0</ele>
        <time>2021-07-11T08:38:09.000Z</time>
      </trkpt>
      <trkpt lat="41.37350667" lon="1.12895167">
        <ele>705.0</ele>
        <time>2021-07-11T08:38:10.000Z</time>
      </trkpt>
      <trkpt lat="41.373505" lon="1.12895167">
        <ele>705.0</ele>
        <time>2021-07-11T08:38:11.000Z</time>
      </trkpt>
      <trkpt lat="41.373505" lon="1.12895167">
        <ele>705.0</ele>
        <time>2021-07-11T08:38:12.000Z</time>
      </trkpt>
      <trkpt lat="41.373505" lon="1.12895167">
        <ele>705.0</ele>
        <time>2021-07-11T08:38:13.000Z</time>
      </trkpt>
      <trkpt lat="41.37350167" lon="1.12895333">
        <ele>705.0</ele>
        <time>2021-07-11T08:38:14.000Z</time>
      </trkpt>
      <trkpt lat="41.3735" lon="1.128955">
        <ele>705.0</ele>
        <time>2021-07-11T08:38:15.000Z</time>
      </trkpt>
      <trkpt lat="41.37350167" lon="1.12895667">
        <ele>705.0</ele>
        <time>2021-07-11T08:38:16.000Z</time>
      </trkpt>
      <trkpt lat="41.37350167" lon="1.12895667">
        <ele>705.0</ele>
        <time>2021-07-11T08:38:17.000Z</time>
      </trkpt>
      <trkpt lat="41.37350167" lon="1.12895667">
        <ele>705.0</ele>
        <time>2021-07-11T08:38:18.000Z</time>
      </trkpt>
      <trkpt lat="41.37350167" lon="1.12895667">
        <ele>705.0</ele>
        <time>2021-07-11T08:38:19.000Z</time>
      </trkpt>
      <trkpt lat="41.37350167" lon="1.12895667">
        <ele>705.0</ele>
        <time>2021-07-11T08:38:20.000Z</time>
      </trkpt>
      <trkpt lat="41.37350167" lon="1.12895833">
        <ele>705.0</ele>
        <time>2021-07-11T08:38:21.000Z</time>
      </trkpt>
      <trkpt lat="41.37350167" lon="1.12895833">
        <ele>705.0</ele>
        <time>2021-07-11T08:38:22.000Z</time>
      </trkpt>
      <trkpt lat="41.37350167" lon="1.12895833">
        <ele>705.0</ele>
        <time>2021-07-11T08:38:23.000Z</time>
      </trkpt>
      <trkpt lat="41.37350167" lon="1.12895833">
        <ele>705.0</ele>
        <time>2021-07-11T08:38:24.000Z</time>
      </trkpt>
      <trkpt lat="41.37350167" lon="1.12895833">
        <ele>705.0</ele>
        <time>2021-07-11T08:38:25.000Z</time>
      </trkpt>
      <trkpt lat="41.37350167" lon="1.12895833">
        <ele>705.0</ele>
        <time>2021-07-11T08:38:26.000Z</time>
      </trkpt>
      <trkpt lat="41.37350167" lon="1.12895833">
        <ele>705.0</ele>
        <time>2021-07-11T08:38:27.000Z</time>
      </trkpt>
      <trkpt lat="41.37350167" lon="1.12895833">
        <ele>705.0</ele>
        <time>2021-07-11T08:38:28.000Z</time>
      </trkpt>
      <trkpt lat="41.37350167" lon="1.12895833">
        <ele>705.0</ele>
        <time>2021-07-11T08:38:29.000Z</time>
      </trkpt>
      <trkpt lat="41.3735" lon="1.128955">
        <ele>705.0</ele>
        <time>2021-07-11T08:38:30.000Z</time>
      </trkpt>
      <trkpt lat="41.3735" lon="1.128955">
        <ele>705.0</ele>
        <time>2021-07-11T08:38:31.000Z</time>
      </trkpt>
      <trkpt lat="41.37349833" lon="1.12895333">
        <ele>705.0</ele>
        <time>2021-07-11T08:38:32.000Z</time>
      </trkpt>
      <trkpt lat="41.37349833" lon="1.12895">
        <ele>705.0</ele>
        <time>2021-07-11T08:38:33.000Z</time>
      </trkpt>
      <trkpt lat="41.37349833" lon="1.12894833">
        <ele>705.0</ele>
        <time>2021-07-11T08:38:34.000Z</time>
      </trkpt>
      <trkpt lat="41.37349833" lon="1.12894833">
        <ele>705.0</ele>
        <time>2021-07-11T08:38:35.000Z</time>
      </trkpt>
      <trkpt lat="41.37350167" lon="1.12895167">
        <ele>705.0</ele>
        <time>2021-07-11T08:38:36.000Z</time>
      </trkpt>
      <trkpt lat="41.37350167" lon="1.12895167">
        <ele>705.0</ele>
        <time>2021-07-11T08:38:37.000Z</time>
      </trkpt>
      <trkpt lat="41.37350333" lon="1.12895">
        <ele>705.0</ele>
        <time>2021-07-11T08:38:38.000Z</time>
      </trkpt>
      <trkpt lat="41.373505" lon="1.12895167">
        <ele>705.0</ele>
        <time>2021-07-11T08:38:39.000Z</time>
      </trkpt>
      <trkpt lat="41.37351" lon="1.12895">
        <ele>705.0</ele>
        <time>2021-07-11T08:38:40.000Z</time>
      </trkpt>
      <trkpt lat="41.37351333" lon="1.12895167">
        <ele>705.0</ele>
        <time>2021-07-11T08:38:41.000Z</time>
      </trkpt>
      <trkpt lat="41.37351333" lon="1.12895167">
        <ele>705.0</ele>
        <time>2021-07-11T08:38:42.000Z</time>
      </trkpt>
      <trkpt lat="41.37351167" lon="1.12894833">
        <ele>705.0</ele>
        <time>2021-07-11T08:38:43.000Z</time>
      </trkpt>
      <trkpt lat="41.37351167" lon="1.12894833">
        <ele>706.0</ele>
        <time>2021-07-11T08:38:44.000Z</time>
      </trkpt>
      <trkpt lat="41.373515" lon="1.12895">
        <ele>706.0</ele>
        <time>2021-07-11T08:38:45.000Z</time>
      </trkpt>
      <trkpt lat="41.37351833" lon="1.12895167">
        <ele>706.0</ele>
        <time>2021-07-11T08:38:46.000Z</time>
      </trkpt>
      <trkpt lat="41.37352" lon="1.12895333">
        <ele>706.0</ele>
        <time>2021-07-11T08:38:47.000Z</time>
      </trkpt>
      <trkpt lat="41.37352" lon="1.12895667">
        <ele>705.0</ele>
        <time>2021-07-11T08:38:48.000Z</time>
      </trkpt>
      <trkpt lat="41.37352167" lon="1.12896">
        <ele>705.0</ele>
        <time>2021-07-11T08:38:49.000Z</time>
      </trkpt>
      <trkpt lat="41.373525" lon="1.128965">
        <ele>705.0</ele>
        <time>2021-07-11T08:38:50.000Z</time>
      </trkpt>
      <trkpt lat="41.37352833" lon="1.12897167">
        <ele>705.0</ele>
        <time>2021-07-11T08:38:51.000Z</time>
      </trkpt>
      <trkpt lat="41.37352833" lon="1.12897333">
        <ele>705.0</ele>
        <time>2021-07-11T08:38:52.000Z</time>
      </trkpt>
      <trkpt lat="41.37352833" lon="1.12897333">
        <ele>705.0</ele>
        <time>2021-07-11T08:38:53.000Z</time>
      </trkpt>
      <trkpt lat="41.37352833" lon="1.12897333">
        <ele>705.0</ele>
        <time>2021-07-11T08:38:54.000Z</time>
      </trkpt>
      <trkpt lat="41.37352833" lon="1.12897333">
        <ele>705.0</ele>
        <time>2021-07-11T08:38:55.000Z</time>
      </trkpt>
      <trkpt lat="41.37352833" lon="1.12897">
        <ele>705.0</ele>
        <time>2021-07-11T08:38:56.000Z</time>
      </trkpt>
      <trkpt lat="41.37352667" lon="1.12896833">
        <ele>705.0</ele>
        <time>2021-07-11T08:38:57.000Z</time>
      </trkpt>
      <trkpt lat="41.37352333" lon="1.12896833">
        <ele>705.0</ele>
        <time>2021-07-11T08:38:58.000Z</time>
      </trkpt>
      <trkpt lat="41.37352167" lon="1.12897167">
        <ele>705.0</ele>
        <time>2021-07-11T08:38:59.000Z</time>
      </trkpt>
      <trkpt lat="41.37352167" lon="1.128975">
        <ele>705.0</ele>
        <time>2021-07-11T08:39:00.000Z</time>
      </trkpt>
      <trkpt lat="41.37352167" lon="1.12897833">
        <ele>705.0</ele>
        <time>2021-07-11T08:39:01.000Z</time>
      </trkpt>
      <trkpt lat="41.37352167" lon="1.12898167">
        <ele>705.0</ele>
        <time>2021-07-11T08:39:02.000Z</time>
      </trkpt>
      <trkpt lat="41.37352" lon="1.12898167">
        <ele>705.0</ele>
        <time>2021-07-11T08:39:03.000Z</time>
      </trkpt>
      <trkpt lat="41.37352" lon="1.12898167">
        <ele>705.0</ele>
        <time>2021-07-11T08:39:04.000Z</time>
      </trkpt>
      <trkpt lat="41.37352167" lon="1.12898167">
        <ele>705.0</ele>
        <time>2021-07-11T08:39:05.000Z</time>
      </trkpt>
      <trkpt lat="41.37352333" lon="1.12898167">
        <ele>705.0</ele>
        <time>2021-07-11T08:39:06.000Z</time>
      </trkpt>
      <trkpt lat="41.37352167" lon="1.12897833">
        <ele>705.0</ele>
        <time>2021-07-11T08:39:07.000Z</time>
      </trkpt>
      <trkpt lat="41.37352333" lon="1.12897333">
        <ele>705.0</ele>
        <time>2021-07-11T08:39:08.000Z</time>
      </trkpt>
      <trkpt lat="41.37352333" lon="1.12897167">
        <ele>705.0</ele>
        <time>2021-07-11T08:39:09.000Z</time>
      </trkpt>
      <trkpt lat="41.37352667" lon="1.12897333">
        <ele>705.0</ele>
        <time>2021-07-11T08:39:10.000Z</time>
      </trkpt>
      <trkpt lat="41.37352667" lon="1.12897333">
        <ele>705.0</ele>
        <time>2021-07-11T08:39:11.000Z</time>
      </trkpt>
      <trkpt lat="41.37352833" lon="1.12897">
        <ele>705.0</ele>
        <time>2021-07-11T08:39:12.000Z</time>
      </trkpt>
      <trkpt lat="41.373535" lon="1.12897167">
        <ele>705.0</ele>
        <time>2021-07-11T08:39:13.000Z</time>
      </trkpt>
      <trkpt lat="41.37353833" lon="1.12897">
        <ele>705.0</ele>
        <time>2021-07-11T08:39:14.000Z</time>
      </trkpt>
      <trkpt lat="41.37354167" lon="1.12896667">
        <ele>705.0</ele>
        <time>2021-07-11T08:39:15.000Z</time>
      </trkpt>
      <trkpt lat="41.373545" lon="1.128965">
        <ele>705.0</ele>
        <time>2021-07-11T08:39:16.000Z</time>
      </trkpt>
      <trkpt lat="41.37354667" lon="1.128965">
        <ele>705.0</ele>
        <time>2021-07-11T08:39:17.000Z</time>
      </trkpt>
      <trkpt lat="41.37354333" lon="1.12896667">
        <ele>705.0</ele>
        <time>2021-07-11T08:39:18.000Z</time>
      </trkpt>
      <trkpt lat="41.373545" lon="1.12897167">
        <ele>705.0</ele>
        <time>2021-07-11T08:39:19.000Z</time>
      </trkpt>
      <trkpt lat="41.373545" lon="1.128975">
        <ele>705.0</ele>
        <time>2021-07-11T08:39:20.000Z</time>
      </trkpt>
      <trkpt lat="41.37354667" lon="1.12897667">
        <ele>705.0</ele>
        <time>2021-07-11T08:39:21.000Z</time>
      </trkpt>
      <trkpt lat="41.37355" lon="1.12898">
        <ele>705.0</ele>
        <time>2021-07-11T08:39:22.000Z</time>
      </trkpt>
      <trkpt lat="41.37355167" lon="1.12898333">
        <ele>705.0</ele>
        <time>2021-07-11T08:39:23.000Z</time>
      </trkpt>
      <trkpt lat="41.37355333" lon="1.12899167">
        <ele>705.0</ele>
        <time>2021-07-11T08:39:24.000Z</time>
      </trkpt>
      <trkpt lat="41.37355333" lon="1.128995">
        <ele>705.0</ele>
        <time>2021-07-11T08:39:25.000Z</time>
      </trkpt>
      <trkpt lat="41.37355333" lon="1.12899667">
        <ele>705.0</ele>
        <time>2021-07-11T08:39:26.000Z</time>
      </trkpt>
      <trkpt lat="41.37355333" lon="1.128995">
        <ele>705.0</ele>
        <time>2021-07-11T08:39:27.000Z</time>
      </trkpt>
      <trkpt lat="41.37355167" lon="1.12899167">
        <ele>705.0</ele>
        <time>2021-07-11T08:39:28.000Z</time>
      </trkpt>
      <trkpt lat="41.37354667" lon="1.12899167">
        <ele>705.0</ele>
        <time>2021-07-11T08:39:29.000Z</time>
      </trkpt>
      <trkpt lat="41.373545" lon="1.12899">
        <ele>705.0</ele>
        <time>2021-07-11T08:39:30.000Z</time>
      </trkpt>
      <trkpt lat="41.37354833" lon="1.12898833">
        <ele>705.0</ele>
        <time>2021-07-11T08:39:31.000Z</time>
      </trkpt>
      <trkpt lat="41.37355" lon="1.12899167">
        <ele>705.0</ele>
        <time>2021-07-11T08:39:32.000Z</time>
      </trkpt>
      <trkpt lat="41.37355" lon="1.12899333">
        <ele>705.0</ele>
        <time>2021-07-11T08:39:33.000Z</time>
      </trkpt>
      <trkpt lat="41.37355" lon="1.128995">
        <ele>706.0</ele>
        <time>2021-07-11T08:39:34.000Z</time>
      </trkpt>
      <trkpt lat="41.37355" lon="1.128995">
        <ele>706.0</ele>
        <time>2021-07-11T08:39:35.000Z</time>
      </trkpt>
      <trkpt lat="41.37355167" lon="1.12899667">
        <ele>706.0</ele>
        <time>2021-07-11T08:39:36.000Z</time>
      </trkpt>
      <trkpt lat="41.37355167" lon="1.12899667">
        <ele>706.0</ele>
        <time>2021-07-11T08:39:37.000Z</time>
      </trkpt>
      <trkpt lat="41.37354667" lon="1.12900167">
        <ele>706.0</ele>
        <time>2021-07-11T08:39:38.000Z</time>
      </trkpt>
      <trkpt lat="41.37354333" lon="1.12900833">
        <ele>706.0</ele>
        <time>2021-07-11T08:39:39.000Z</time>
      </trkpt>
      <trkpt lat="41.373535" lon="1.12900833">
        <ele>706.0</ele>
        <time>2021-07-11T08:39:40.000Z</time>
      </trkpt>
      <trkpt lat="41.37352833" lon="1.12900333">
        <ele>706.0</ele>
        <time>2021-07-11T08:39:41.000Z</time>
      </trkpt>
      <trkpt lat="41.37352833" lon="1.129">
        <ele>706.0</ele>
        <time>2021-07-11T08:39:42.000Z</time>
      </trkpt>
      <trkpt lat="41.37352667" lon="1.12899833">
        <ele>706.0</ele>
        <time>2021-07-11T08:39:43.000Z</time>
      </trkpt>
      <trkpt lat="41.37352667" lon="1.12899833">
        <ele>706.0</ele>
        <time>2021-07-11T08:39:44.000Z</time>
      </trkpt>
      <trkpt lat="41.37352833" lon="1.12899833">
        <ele>706.0</ele>
        <time>2021-07-11T08:39:45.000Z</time>
      </trkpt>
      <trkpt lat="41.37352833" lon="1.129">
        <ele>706.0</ele>
        <time>2021-07-11T08:39:46.000Z</time>
      </trkpt>
      <trkpt lat="41.37352833" lon="1.12899833">
        <ele>706.0</ele>
        <time>2021-07-11T08:39:47.000Z</time>
      </trkpt>
      <trkpt lat="41.37353" lon="1.129">
        <ele>706.0</ele>
        <time>2021-07-11T08:39:48.000Z</time>
      </trkpt>
      <trkpt lat="41.37353" lon="1.129">
        <ele>706.0</ele>
        <time>2021-07-11T08:39:49.000Z</time>
      </trkpt>
      <trkpt lat="41.37352833" lon="1.12900167">
        <ele>706.0</ele>
        <time>2021-07-11T08:39:50.000Z</time>
      </trkpt>
      <trkpt lat="41.37353" lon="1.12900167">
        <ele>706.0</ele>
        <time>2021-07-11T08:39:51.000Z</time>
      </trkpt>
      <trkpt lat="41.37353" lon="1.12900333">
        <ele>706.0</ele>
        <time>2021-07-11T08:39:52.000Z</time>
      </trkpt>
      <trkpt lat="41.37353167" lon="1.12900667">
        <ele>706.0</ele>
        <time>2021-07-11T08:39:53.000Z</time>
      </trkpt>
      <trkpt lat="41.37353" lon="1.12900833">
        <ele>706.0</ele>
        <time>2021-07-11T08:39:54.000Z</time>
      </trkpt>
      <trkpt lat="41.37352833" lon="1.12900833">
        <ele>706.0</ele>
        <time>2021-07-11T08:39:55.000Z</time>
      </trkpt>
      <trkpt lat="41.37352667" lon="1.12900833">
        <ele>706.0</ele>
        <time>2021-07-11T08:39:56.000Z</time>
      </trkpt>
      <trkpt lat="41.37352667" lon="1.12900833">
        <ele>706.0</ele>
        <time>2021-07-11T08:39:57.000Z</time>
      </trkpt>
      <trkpt lat="41.37352667" lon="1.12901">
        <ele>706.0</ele>
        <time>2021-07-11T08:39:58.000Z</time>
      </trkpt>
      <trkpt lat="41.37352667" lon="1.12901167">
        <ele>706.0</ele>
        <time>2021-07-11T08:39:59.000Z</time>
      </trkpt>
      <trkpt lat="41.37352833" lon="1.12901">
        <ele>706.0</ele>
        <time>2021-07-11T08:40:00.000Z</time>
      </trkpt>
      <trkpt lat="41.37353167" lon="1.12900667">
        <ele>706.0</ele>
        <time>2021-07-11T08:40:01.000Z</time>
      </trkpt>
      <trkpt lat="41.37353167" lon="1.129005">
        <ele>706.0</ele>
        <time>2021-07-11T08:40:02.000Z</time>
      </trkpt>
      <trkpt lat="41.37353167" lon="1.129005">
        <ele>706.0</ele>
        <time>2021-07-11T08:40:03.000Z</time>
      </trkpt>
      <trkpt lat="41.37353167" lon="1.129005">
        <ele>706.0</ele>
        <time>2021-07-11T08:40:04.000Z</time>
      </trkpt>
      <trkpt lat="41.37353167" lon="1.12900667">
        <ele>707.0</ele>
        <time>2021-07-11T08:40:05.000Z</time>
      </trkpt>
      <trkpt lat="41.37353167" lon="1.12900833">
        <ele>707.0</ele>
        <time>2021-07-11T08:40:06.000Z</time>
      </trkpt>
      <trkpt lat="41.37353333" lon="1.12900833">
        <ele>707.0</ele>
        <time>2021-07-11T08:40:07.000Z</time>
      </trkpt>
      <trkpt lat="41.37353333" lon="1.12900833">
        <ele>707.0</ele>
        <time>2021-07-11T08:40:08.000Z</time>
      </trkpt>
      <trkpt lat="41.37353333" lon="1.12900833">
        <ele>707.0</ele>
        <time>2021-07-11T08:40:09.000Z</time>
      </trkpt>
      <trkpt lat="41.373535" lon="1.12900833">
        <ele>707.0</ele>
        <time>2021-07-11T08:40:10.000Z</time>
      </trkpt>
      <trkpt lat="41.373535" lon="1.12900833">
        <ele>707.0</ele>
        <time>2021-07-11T08:40:11.000Z</time>
      </trkpt>
      <trkpt lat="41.373535" lon="1.12900833">
        <ele>707.0</ele>
        <time>2021-07-11T08:40:12.000Z</time>
      </trkpt>
      <trkpt lat="41.373535" lon="1.12900667">
        <ele>707.0</ele>
        <time>2021-07-11T08:40:13.000Z</time>
      </trkpt>
      <trkpt lat="41.373535" lon="1.12900333">
        <ele>707.0</ele>
        <time>2021-07-11T08:40:14.000Z</time>
      </trkpt>
      <trkpt lat="41.373535" lon="1.12899833">
        <ele>707.0</ele>
        <time>2021-07-11T08:40:15.000Z</time>
      </trkpt>
      <trkpt lat="41.373535" lon="1.12899667">
        <ele>707.0</ele>
        <time>2021-07-11T08:40:16.000Z</time>
      </trkpt>
      <trkpt lat="41.373535" lon="1.12899667">
        <ele>707.0</ele>
        <time>2021-07-11T08:40:17.000Z</time>
      </trkpt>
      <trkpt lat="41.373535" lon="1.128995">
        <ele>707.0</ele>
        <time>2021-07-11T08:40:18.000Z</time>
      </trkpt>
      <trkpt lat="41.37353833" lon="1.12899667">
        <ele>707.0</ele>
        <time>2021-07-11T08:40:19.000Z</time>
      </trkpt>
      <trkpt lat="41.37353833" lon="1.128995">
        <ele>707.0</ele>
        <time>2021-07-11T08:40:20.000Z</time>
      </trkpt>
      <trkpt lat="41.37354" lon="1.12899333">
        <ele>707.0</ele>
        <time>2021-07-11T08:40:21.000Z</time>
      </trkpt>
      <trkpt lat="41.37354333" lon="1.12899167">
        <ele>707.0</ele>
        <time>2021-07-11T08:40:22.000Z</time>
      </trkpt>
      <trkpt lat="41.37354833" lon="1.12899167">
        <ele>707.0</ele>
        <time>2021-07-11T08:40:23.000Z</time>
      </trkpt>
      <trkpt lat="41.373555" lon="1.12899167">
        <ele>707.0</ele>
        <time>2021-07-11T08:40:24.000Z</time>
      </trkpt>
      <trkpt lat="41.37356167" lon="1.12899">
        <ele>707.0</ele>
        <time>2021-07-11T08:40:25.000Z</time>
      </trkpt>
      <trkpt lat="41.37356667" lon="1.128985">
        <ele>707.0</ele>
        <time>2021-07-11T08:40:26.000Z</time>
      </trkpt>
      <trkpt lat="41.37357167" lon="1.12898333">
        <ele>707.0</ele>
        <time>2021-07-11T08:40:27.000Z</time>
      </trkpt>
      <trkpt lat="41.373575" lon="1.12897667">
        <ele>707.0</ele>
        <time>2021-07-11T08:40:28.000Z</time>
      </trkpt>
      <trkpt lat="41.373575" lon="1.12897667">
        <ele>707.0</ele>
        <time>2021-07-11T08:40:29.000Z</time>
      </trkpt>
      <trkpt lat="41.373575" lon="1.12898167">
        <ele>707.0</ele>
        <time>2021-07-11T08:40:30.000Z</time>
      </trkpt>
      <trkpt lat="41.373575" lon="1.128985">
        <ele>707.0</ele>
        <time>2021-07-11T08:40:31.000Z</time>
      </trkpt>
      <trkpt lat="41.373575" lon="1.12898833">
        <ele>707.0</ele>
        <time>2021-07-11T08:40:32.000Z</time>
      </trkpt>
      <trkpt lat="41.37357333" lon="1.12899167">
        <ele>707.0</ele>
        <time>2021-07-11T08:40:33.000Z</time>
      </trkpt>
      <trkpt lat="41.37357333" lon="1.12899">
        <ele>707.0</ele>
        <time>2021-07-11T08:40:34.000Z</time>
      </trkpt>
      <trkpt lat="41.37357333" lon="1.128995">
        <ele>707.0</ele>
        <time>2021-07-11T08:40:35.000Z</time>
      </trkpt>
      <trkpt lat="41.37357333" lon="1.128995">
        <ele>707.0</ele>
        <time>2021-07-11T08:40:36.000Z</time>
      </trkpt>
      <trkpt lat="41.37357667" lon="1.128995">
        <ele>707.0</ele>
        <time>2021-07-11T08:40:37.000Z</time>
      </trkpt>
      <trkpt lat="41.37357667" lon="1.128995">
        <ele>707.0</ele>
        <time>2021-07-11T08:40:38.000Z</time>
      </trkpt>
      <trkpt lat="41.37357833" lon="1.128995">
        <ele>707.0</ele>
        <time>2021-07-11T08:40:39.000Z</time>
      </trkpt>
      <trkpt lat="41.37358167" lon="1.128995">
        <ele>707.0</ele>
        <time>2021-07-11T08:40:40.000Z</time>
      </trkpt>
      <trkpt lat="41.373585" lon="1.12899333">
        <ele>707.0</ele>
        <time>2021-07-11T08:40:41.000Z</time>
      </trkpt>
      <trkpt lat="41.37358667" lon="1.12899333">
        <ele>707.0</ele>
        <time>2021-07-11T08:40:42.000Z</time>
      </trkpt>
      <trkpt lat="41.37358667" lon="1.12899333">
        <ele>707.0</ele>
        <time>2021-07-11T08:40:43.000Z</time>
      </trkpt>
      <trkpt lat="41.37358667" lon="1.12899333">
        <ele>707.0</ele>
        <time>2021-07-11T08:40:44.000Z</time>
      </trkpt>
      <trkpt lat="41.37358833" lon="1.12899333">
        <ele>707.0</ele>
        <time>2021-07-11T08:40:45.000Z</time>
      </trkpt>
      <trkpt lat="41.37358833" lon="1.12899333">
        <ele>707.0</ele>
        <time>2021-07-11T08:40:46.000Z</time>
      </trkpt>
      <trkpt lat="41.37359" lon="1.12899333">
        <ele>707.0</ele>
        <time>2021-07-11T08:40:47.000Z</time>
      </trkpt>
      <trkpt lat="41.37359333" lon="1.12899333">
        <ele>707.0</ele>
        <time>2021-07-11T08:40:48.000Z</time>
      </trkpt>
      <trkpt lat="41.37359667" lon="1.12899333">
        <ele>707.0</ele>
        <time>2021-07-11T08:40:49.000Z</time>
      </trkpt>
      <trkpt lat="41.37359667" lon="1.128995">
        <ele>707.0</ele>
        <time>2021-07-11T08:40:50.000Z</time>
      </trkpt>
      <trkpt lat="41.37359833" lon="1.128995">
        <ele>707.0</ele>
        <time>2021-07-11T08:40:51.000Z</time>
      </trkpt>
      <trkpt lat="41.37359833" lon="1.128995">
        <ele>707.0</ele>
        <time>2021-07-11T08:40:52.000Z</time>
      </trkpt>
      <trkpt lat="41.37359667" lon="1.128995">
        <ele>707.0</ele>
        <time>2021-07-11T08:40:53.000Z</time>
      </trkpt>
      <trkpt lat="41.37359167" lon="1.12899333">
        <ele>707.0</ele>
        <time>2021-07-11T08:40:54.000Z</time>
      </trkpt>
      <trkpt lat="41.37358333" lon="1.12899167">
        <ele>707.0</ele>
        <time>2021-07-11T08:40:55.000Z</time>
      </trkpt>
      <trkpt lat="41.37357667" lon="1.12899167">
        <ele>706.0</ele>
        <time>2021-07-11T08:40:56.000Z</time>
      </trkpt>
      <trkpt lat="41.37357167" lon="1.12899167">
        <ele>706.0</ele>
        <time>2021-07-11T08:40:57.000Z</time>
      </trkpt>
      <trkpt lat="41.37356667" lon="1.12899">
        <ele>706.0</ele>
        <time>2021-07-11T08:40:58.000Z</time>
      </trkpt>
      <trkpt lat="41.373565" lon="1.12899167">
        <ele>706.0</ele>
        <time>2021-07-11T08:40:59.000Z</time>
      </trkpt>
      <trkpt lat="41.37356333" lon="1.12899333">
        <ele>706.0</ele>
        <time>2021-07-11T08:41:00.000Z</time>
      </trkpt>
      <trkpt lat="41.37356167" lon="1.12898833">
        <ele>706.0</ele>
        <time>2021-07-11T08:41:01.000Z</time>
      </trkpt>
      <trkpt lat="41.37356333" lon="1.12898333">
        <ele>706.0</ele>
        <time>2021-07-11T08:41:02.000Z</time>
      </trkpt>
      <trkpt lat="41.37355833" lon="1.12898167">
        <ele>706.0</ele>
        <time>2021-07-11T08:41:03.000Z</time>
      </trkpt>
      <trkpt lat="41.37355667" lon="1.12897833">
        <ele>706.0</ele>
        <time>2021-07-11T08:41:04.000Z</time>
      </trkpt>
      <trkpt lat="41.373555" lon="1.12897667">
        <ele>706.0</ele>
        <time>2021-07-11T08:41:05.000Z</time>
      </trkpt>
      <trkpt lat="41.373555" lon="1.12897">
        <ele>706.0</ele>
        <time>2021-07-11T08:41:06.000Z</time>
      </trkpt>
      <trkpt lat="41.373555" lon="1.12897">
        <ele>706.0</ele>
        <time>2021-07-11T08:41:07.000Z</time>
      </trkpt>
      <trkpt lat="41.37355333" lon="1.12897167">
        <ele>706.0</ele>
        <time>2021-07-11T08:41:08.000Z</time>
      </trkpt>
      <trkpt lat="41.37355333" lon="1.12897167">
        <ele>706.0</ele>
        <time>2021-07-11T08:41:09.000Z</time>
      </trkpt>
      <trkpt lat="41.373555" lon="1.12897167">
        <ele>706.0</ele>
        <time>2021-07-11T08:41:10.000Z</time>
      </trkpt>
      <trkpt lat="41.373555" lon="1.12897">
        <ele>706.0</ele>
        <time>2021-07-11T08:41:11.000Z</time>
      </trkpt>
      <trkpt lat="41.373555" lon="1.12897">
        <ele>706.0</ele>
        <time>2021-07-11T08:41:12.000Z</time>
      </trkpt>
      <trkpt lat="41.37355667" lon="1.12897">
        <ele>706.0</ele>
        <time>2021-07-11T08:41:13.000Z</time>
      </trkpt>
      <trkpt lat="41.37355667" lon="1.12897">
        <ele>706.0</ele>
        <time>2021-07-11T08:41:14.000Z</time>
      </trkpt>
      <trkpt lat="41.37355667" lon="1.12897">
        <ele>706.0</ele>
        <time>2021-07-11T08:41:15.000Z</time>
      </trkpt>
      <trkpt lat="41.37355833" lon="1.12897">
        <ele>706.0</ele>
        <time>2021-07-11T08:41:16.000Z</time>
      </trkpt>
      <trkpt lat="41.37355833" lon="1.12897">
        <ele>706.0</ele>
        <time>2021-07-11T08:41:17.000Z</time>
      </trkpt>
      <trkpt lat="41.37356" lon="1.12897">
        <ele>706.0</ele>
        <time>2021-07-11T08:41:18.000Z</time>
      </trkpt>
      <trkpt lat="41.37355833" lon="1.12897167">
        <ele>706.0</ele>
        <time>2021-07-11T08:41:19.000Z</time>
      </trkpt>
      <trkpt lat="41.37355833" lon="1.12897167">
        <ele>706.0</ele>
        <time>2021-07-11T08:41:20.000Z</time>
      </trkpt>
      <trkpt lat="41.37356" lon="1.12897">
        <ele>706.0</ele>
        <time>2021-07-11T08:41:21.000Z</time>
      </trkpt>
      <trkpt lat="41.37356" lon="1.12896833">
        <ele>706.0</ele>
        <time>2021-07-11T08:41:22.000Z</time>
      </trkpt>
      <trkpt lat="41.37356167" lon="1.12897">
        <ele>706.0</ele>
        <time>2021-07-11T08:41:23.000Z</time>
      </trkpt>
      <trkpt lat="41.37356333" lon="1.12897">
        <ele>706.0</ele>
        <time>2021-07-11T08:41:24.000Z</time>
      </trkpt>
      <trkpt lat="41.37356333" lon="1.12897167">
        <ele>706.0</ele>
        <time>2021-07-11T08:41:25.000Z</time>
      </trkpt>
      <trkpt lat="41.373565" lon="1.128975">
        <ele>706.0</ele>
        <time>2021-07-11T08:41:26.000Z</time>
      </trkpt>
      <trkpt lat="41.37356333" lon="1.128975">
        <ele>706.0</ele>
        <time>2021-07-11T08:41:27.000Z</time>
      </trkpt>
      <trkpt lat="41.37356333" lon="1.128975">
        <ele>706.0</ele>
        <time>2021-07-11T08:41:28.000Z</time>
      </trkpt>
      <trkpt lat="41.37356333" lon="1.12897667">
        <ele>706.0</ele>
        <time>2021-07-11T08:41:29.000Z</time>
      </trkpt>
      <trkpt lat="41.37356167" lon="1.12897833">
        <ele>707.0</ele>
        <time>2021-07-11T08:41:30.000Z</time>
      </trkpt>
      <trkpt lat="41.37356" lon="1.12897833">
        <ele>707.0</ele>
        <time>2021-07-11T08:41:31.000Z</time>
      </trkpt>
      <trkpt lat="41.37356" lon="1.12898333">
        <ele>707.0</ele>
        <time>2021-07-11T08:41:32.000Z</time>
      </trkpt>
      <trkpt lat="41.37356333" lon="1.12898667">
        <ele>707.0</ele>
        <time>2021-07-11T08:41:33.000Z</time>
      </trkpt>
      <trkpt lat="41.373565" lon="1.128985">
        <ele>707.0</ele>
        <time>2021-07-11T08:41:34.000Z</time>
      </trkpt>
      <trkpt lat="41.37356833" lon="1.12898167">
        <ele>707.0</ele>
        <time>2021-07-11T08:41:35.000Z</time>
      </trkpt>
      <trkpt lat="41.37356833" lon="1.12898">
        <ele>707.0</ele>
        <time>2021-07-11T08:41:36.000Z</time>
      </trkpt>
      <trkpt lat="41.37357" lon="1.128975">
        <ele>707.0</ele>
        <time>2021-07-11T08:41:37.000Z</time>
      </trkpt>
      <trkpt lat="41.37357167" lon="1.128975">
        <ele>707.0</ele>
        <time>2021-07-11T08:41:38.000Z</time>
      </trkpt>
      <trkpt lat="41.37357167" lon="1.128975">
        <ele>707.0</ele>
        <time>2021-07-11T08:41:39.000Z</time>
      </trkpt>
      <trkpt lat="41.37356833" lon="1.12897333">
        <ele>707.0</ele>
        <time>2021-07-11T08:41:40.000Z</time>
      </trkpt>
      <trkpt lat="41.37356667" lon="1.12897333">
        <ele>707.0</ele>
        <time>2021-07-11T08:41:41.000Z</time>
      </trkpt>
      <trkpt lat="41.37356667" lon="1.12897333">
        <ele>707.0</ele>
        <time>2021-07-11T08:41:42.000Z</time>
      </trkpt>
      <trkpt lat="41.373565" lon="1.12897333">
        <ele>707.0</ele>
        <time>2021-07-11T08:41:43.000Z</time>
      </trkpt>
      <trkpt lat="41.373565" lon="1.12897333">
        <ele>707.0</ele>
        <time>2021-07-11T08:41:44.000Z</time>
      </trkpt>
      <trkpt lat="41.373565" lon="1.12897333">
        <ele>706.0</ele>
        <time>2021-07-11T08:41:45.000Z</time>
      </trkpt>
      <trkpt lat="41.373565" lon="1.12897167">
        <ele>706.0</ele>
        <time>2021-07-11T08:41:46.000Z</time>
      </trkpt>
      <trkpt lat="41.37356833" lon="1.12897">
        <ele>707.0</ele>
        <time>2021-07-11T08:41:47.000Z</time>
      </trkpt>
      <trkpt lat="41.37357167" lon="1.128965">
        <ele>707.0</ele>
        <time>2021-07-11T08:41:48.000Z</time>
      </trkpt>
      <trkpt lat="41.373575" lon="1.12896">
        <ele>707.0</ele>
        <time>2021-07-11T08:41:49.000Z</time>
      </trkpt>
      <trkpt lat="41.37357833" lon="1.12895833">
        <ele>707.0</ele>
        <time>2021-07-11T08:41:50.000Z</time>
      </trkpt>
      <trkpt lat="41.37358" lon="1.128955">
        <ele>707.0</ele>
        <time>2021-07-11T08:41:51.000Z</time>
      </trkpt>
      <trkpt lat="41.37358167" lon="1.128955">
        <ele>707.0</ele>
        <time>2021-07-11T08:41:52.000Z</time>
      </trkpt>
      <trkpt lat="41.37358167" lon="1.12895333">
        <ele>707.0</ele>
        <time>2021-07-11T08:41:53.000Z</time>
      </trkpt>
      <trkpt lat="41.37358" lon="1.128955">
        <ele>707.0</ele>
        <time>2021-07-11T08:41:54.000Z</time>
      </trkpt>
      <trkpt lat="41.373575" lon="1.12896">
        <ele>707.0</ele>
        <time>2021-07-11T08:41:55.000Z</time>
      </trkpt>
      <trkpt lat="41.37356833" lon="1.12896667">
        <ele>707.0</ele>
        <time>2021-07-11T08:41:56.000Z</time>
      </trkpt>
      <trkpt lat="41.37355833" lon="1.12896667">
        <ele>707.0</ele>
        <time>2021-07-11T08:41:57.000Z</time>
      </trkpt>
      <trkpt lat="41.37355" lon="1.12896833">
        <ele>707.0</ele>
        <time>2021-07-11T08:41:58.000Z</time>
      </trkpt>
      <trkpt lat="41.37353833" lon="1.128965">
        <ele>707.0</ele>
        <time>2021-07-11T08:41:59.000Z</time>
      </trkpt>
      <trkpt lat="41.37353" lon="1.12896167">
        <ele>707.0</ele>
        <time>2021-07-11T08:42:00.000Z</time>
      </trkpt>
      <trkpt lat="41.37352333" lon="1.12895833">
        <ele>707.0</ele>
        <time>2021-07-11T08:42:01.000Z</time>
      </trkpt>
      <trkpt lat="41.37351333" lon="1.12895333">
        <ele>707.0</ele>
        <time>2021-07-11T08:42:02.000Z</time>
      </trkpt>
      <trkpt lat="41.373505" lon="1.12894833">
        <ele>707.0</ele>
        <time>2021-07-11T08:42:03.000Z</time>
      </trkpt>
      <trkpt lat="41.37349667" lon="1.12894667">
        <ele>707.0</ele>
        <time>2021-07-11T08:42:04.000Z</time>
      </trkpt>
      <trkpt lat="41.37348833" lon="1.12894833">
        <ele>707.0</ele>
        <time>2021-07-11T08:42:05.000Z</time>
      </trkpt>
      <trkpt lat="41.37347667" lon="1.12895167">
        <ele>707.0</ele>
        <time>2021-07-11T08:42:06.000Z</time>
      </trkpt>
      <trkpt lat="41.37346667" lon="1.12895333">
        <ele>707.0</ele>
        <time>2021-07-11T08:42:07.000Z</time>
      </trkpt>
      <trkpt lat="41.37345833" lon="1.12895833">
        <ele>707.0</ele>
        <time>2021-07-11T08:42:08.000Z</time>
      </trkpt>
      <trkpt lat="41.37344667" lon="1.12896167">
        <ele>707.0</ele>
        <time>2021-07-11T08:42:09.000Z</time>
      </trkpt>
      <trkpt lat="41.37343833" lon="1.12896667">
        <ele>707.0</ele>
        <time>2021-07-11T08:42:10.000Z</time>
      </trkpt>
      <trkpt lat="41.37343" lon="1.128975">
        <ele>707.0</ele>
        <time>2021-07-11T08:42:11.000Z</time>
      </trkpt>
      <trkpt lat="41.37342167" lon="1.12898167">
        <ele>707.0</ele>
        <time>2021-07-11T08:42:12.000Z</time>
      </trkpt>
      <trkpt lat="41.37341167" lon="1.12898833">
        <ele>707.0</ele>
        <time>2021-07-11T08:42:13.000Z</time>
      </trkpt>
      <trkpt lat="41.37340167" lon="1.12899">
        <ele>707.0</ele>
        <time>2021-07-11T08:42:14.000Z</time>
      </trkpt>
      <trkpt lat="41.37339" lon="1.12899167">
        <ele>707.0</ele>
        <time>2021-07-11T08:42:15.000Z</time>
      </trkpt>
      <trkpt lat="41.37338" lon="1.12899167">
        <ele>707.0</ele>
        <time>2021-07-11T08:42:16.000Z</time>
      </trkpt>
      <trkpt lat="41.37337333" lon="1.12899333">
        <ele>707.0</ele>
        <time>2021-07-11T08:42:17.000Z</time>
      </trkpt>
      <trkpt lat="41.37336833" lon="1.12899333">
        <ele>707.0</ele>
        <time>2021-07-11T08:42:18.000Z</time>
      </trkpt>
      <trkpt lat="41.37336167" lon="1.12899667">
        <ele>707.0</ele>
        <time>2021-07-11T08:42:19.000Z</time>
      </trkpt>
      <trkpt lat="41.37335333" lon="1.129">
        <ele>707.0</ele>
        <time>2021-07-11T08:42:20.000Z</time>
      </trkpt>
      <trkpt lat="41.37334167" lon="1.12900167">
        <ele>707.0</ele>
        <time>2021-07-11T08:42:21.000Z</time>
      </trkpt>
      <trkpt lat="41.37332833" lon="1.129005">
        <ele>707.0</ele>
        <time>2021-07-11T08:42:22.000Z</time>
      </trkpt>
      <trkpt lat="41.37332" lon="1.12901167">
        <ele>707.0</ele>
        <time>2021-07-11T08:42:23.000Z</time>
      </trkpt>
      <trkpt lat="41.37331333" lon="1.12901833">
        <ele>707.0</ele>
        <time>2021-07-11T08:42:24.000Z</time>
      </trkpt>
      <trkpt lat="41.37330667" lon="1.12902">
        <ele>707.0</ele>
        <time>2021-07-11T08:42:25.000Z</time>
      </trkpt>
      <trkpt lat="41.37330167" lon="1.12902167">
        <ele>707.0</ele>
        <time>2021-07-11T08:42:26.000Z</time>
      </trkpt>
      <trkpt lat="41.37330167" lon="1.129025">
        <ele>707.0</ele>
        <time>2021-07-11T08:42:27.000Z</time>
      </trkpt>
      <trkpt lat="41.37329833" lon="1.12903167">
        <ele>707.0</ele>
        <time>2021-07-11T08:42:28.000Z</time>
      </trkpt>
      <trkpt lat="41.37329667" lon="1.12903167">
        <ele>707.0</ele>
        <time>2021-07-11T08:42:29.000Z</time>
      </trkpt>
      <trkpt lat="41.37329833" lon="1.12903833">
        <ele>707.0</ele>
        <time>2021-07-11T08:42:30.000Z</time>
      </trkpt>
      <trkpt lat="41.3733" lon="1.12905">
        <ele>707.0</ele>
        <time>2021-07-11T08:42:31.000Z</time>
      </trkpt>
      <trkpt lat="41.373305" lon="1.12906333">
        <ele>706.0</ele>
        <time>2021-07-11T08:42:32.000Z</time>
      </trkpt>
      <trkpt lat="41.37331" lon="1.129075">
        <ele>706.0</ele>
        <time>2021-07-11T08:42:33.000Z</time>
      </trkpt>
      <trkpt lat="41.37331333" lon="1.12908333">
        <ele>706.0</ele>
        <time>2021-07-11T08:42:34.000Z</time>
      </trkpt>
      <trkpt lat="41.37331667" lon="1.12909167">
        <ele>706.0</ele>
        <time>2021-07-11T08:42:35.000Z</time>
      </trkpt>
      <trkpt lat="41.37331833" lon="1.1291">
        <ele>706.0</ele>
        <time>2021-07-11T08:42:36.000Z</time>
      </trkpt>
      <trkpt lat="41.37332" lon="1.12910667">
        <ele>706.0</ele>
        <time>2021-07-11T08:42:37.000Z</time>
      </trkpt>
      <trkpt lat="41.37332333" lon="1.12910667">
        <ele>706.0</ele>
        <time>2021-07-11T08:42:38.000Z</time>
      </trkpt>
      <trkpt lat="41.37332667" lon="1.12910833">
        <ele>706.0</ele>
        <time>2021-07-11T08:42:39.000Z</time>
      </trkpt>
      <trkpt lat="41.37332667" lon="1.12910833">
        <ele>705.0</ele>
        <time>2021-07-11T08:42:40.000Z</time>
      </trkpt>
      <trkpt lat="41.37332667" lon="1.129105">
        <ele>705.0</ele>
        <time>2021-07-11T08:42:41.000Z</time>
      </trkpt>
      <trkpt lat="41.37332667" lon="1.12910333">
        <ele>705.0</ele>
        <time>2021-07-11T08:42:42.000Z</time>
      </trkpt>
      <trkpt lat="41.37332833" lon="1.129105">
        <ele>705.0</ele>
        <time>2021-07-11T08:42:43.000Z</time>
      </trkpt>
      <trkpt lat="41.37333" lon="1.12910667">
        <ele>705.0</ele>
        <time>2021-07-11T08:42:44.000Z</time>
      </trkpt>
      <trkpt lat="41.37333333" lon="1.12910833">
        <ele>705.0</ele>
        <time>2021-07-11T08:42:45.000Z</time>
      </trkpt>
      <trkpt lat="41.37333667" lon="1.12911167">
        <ele>705.0</ele>
        <time>2021-07-11T08:42:46.000Z</time>
      </trkpt>
      <trkpt lat="41.37334" lon="1.129115">
        <ele>705.0</ele>
        <time>2021-07-11T08:42:47.000Z</time>
      </trkpt>
      <trkpt lat="41.37334" lon="1.12911833">
        <ele>705.0</ele>
        <time>2021-07-11T08:42:48.000Z</time>
      </trkpt>
      <trkpt lat="41.37334" lon="1.12912">
        <ele>705.0</ele>
        <time>2021-07-11T08:42:49.000Z</time>
      </trkpt>
      <trkpt lat="41.37333833" lon="1.12912167">
        <ele>705.0</ele>
        <time>2021-07-11T08:42:50.000Z</time>
      </trkpt>
      <trkpt lat="41.37333833" lon="1.12912333">
        <ele>705.0</ele>
        <time>2021-07-11T08:42:51.000Z</time>
      </trkpt>
      <trkpt lat="41.37333667" lon="1.12912333">
        <ele>705.0</ele>
        <time>2021-07-11T08:42:52.000Z</time>
      </trkpt>
      <trkpt lat="41.373335" lon="1.129125">
        <ele>705.0</ele>
        <time>2021-07-11T08:42:53.000Z</time>
      </trkpt>
      <trkpt lat="41.37333333" lon="1.129125">
        <ele>705.0</ele>
        <time>2021-07-11T08:42:54.000Z</time>
      </trkpt>
      <trkpt lat="41.37333" lon="1.129125">
        <ele>705.0</ele>
        <time>2021-07-11T08:42:55.000Z</time>
      </trkpt>
      <trkpt lat="41.373325" lon="1.12912833">
        <ele>705.0</ele>
        <time>2021-07-11T08:42:56.000Z</time>
      </trkpt>
      <trkpt lat="41.37332167" lon="1.129135">
        <ele>705.0</ele>
        <time>2021-07-11T08:42:57.000Z</time>
      </trkpt>
      <trkpt lat="41.37332167" lon="1.12913833">
        <ele>704.0</ele>
        <time>2021-07-11T08:42:58.000Z</time>
      </trkpt>
      <trkpt lat="41.37332333" lon="1.12914167">
        <ele>704.0</ele>
        <time>2021-07-11T08:42:59.000Z</time>
      </trkpt>
      <trkpt lat="41.373325" lon="1.12914167">
        <ele>704.0</ele>
        <time>2021-07-11T08:43:00.000Z</time>
      </trkpt>
      <trkpt lat="41.37332333" lon="1.12914167">
        <ele>704.0</ele>
        <time>2021-07-11T08:43:01.000Z</time>
      </trkpt>
      <trkpt lat="41.37332167" lon="1.12914333">
        <ele>704.0</ele>
        <time>2021-07-11T08:43:02.000Z</time>
      </trkpt>
      <trkpt lat="41.37332" lon="1.12914667">
        <ele>704.0</ele>
        <time>2021-07-11T08:43:03.000Z</time>
      </trkpt>
      <trkpt lat="41.37332" lon="1.12915">
        <ele>704.0</ele>
        <time>2021-07-11T08:43:04.000Z</time>
      </trkpt>
      <trkpt lat="41.37331833" lon="1.12915333">
        <ele>704.0</ele>
        <time>2021-07-11T08:43:05.000Z</time>
      </trkpt>
      <trkpt lat="41.37331833" lon="1.12915833">
        <ele>704.0</ele>
        <time>2021-07-11T08:43:06.000Z</time>
      </trkpt>
      <trkpt lat="41.37332" lon="1.129165">
        <ele>704.0</ele>
        <time>2021-07-11T08:43:07.000Z</time>
      </trkpt>
      <trkpt lat="41.37331833" lon="1.12917333">
        <ele>704.0</ele>
        <time>2021-07-11T08:43:08.000Z</time>
      </trkpt>
      <trkpt lat="41.373315" lon="1.12918167">
        <ele>704.0</ele>
        <time>2021-07-11T08:43:09.000Z</time>
      </trkpt>
      <trkpt lat="41.37331167" lon="1.12919167">
        <ele>704.0</ele>
        <time>2021-07-11T08:43:10.000Z</time>
      </trkpt>
      <trkpt lat="41.37331" lon="1.129195">
        <ele>704.0</ele>
        <time>2021-07-11T08:43:11.000Z</time>
      </trkpt>
      <trkpt lat="41.373305" lon="1.12919333">
        <ele>704.0</ele>
        <time>2021-07-11T08:43:12.000Z</time>
      </trkpt>
      <trkpt lat="41.37329833" lon="1.12919167">
        <ele>704.0</ele>
        <time>2021-07-11T08:43:13.000Z</time>
      </trkpt>
      <trkpt lat="41.37329167" lon="1.12919167">
        <ele>704.0</ele>
        <time>2021-07-11T08:43:14.000Z</time>
      </trkpt>
      <trkpt lat="41.37328833" lon="1.129195">
        <ele>704.0</ele>
        <time>2021-07-11T08:43:15.000Z</time>
      </trkpt>
      <trkpt lat="41.37328667" lon="1.12919833">
        <ele>704.0</ele>
        <time>2021-07-11T08:43:16.000Z</time>
      </trkpt>
      <trkpt lat="41.373285" lon="1.12920333">
        <ele>704.0</ele>
        <time>2021-07-11T08:43:17.000Z</time>
      </trkpt>
      <trkpt lat="41.373285" lon="1.12920833">
        <ele>704.0</ele>
        <time>2021-07-11T08:43:18.000Z</time>
      </trkpt>
      <trkpt lat="41.37328833" lon="1.129215">
        <ele>704.0</ele>
        <time>2021-07-11T08:43:19.000Z</time>
      </trkpt>
      <trkpt lat="41.37329" lon="1.12921667">
        <ele>704.0</ele>
        <time>2021-07-11T08:43:20.000Z</time>
      </trkpt>
      <trkpt lat="41.37329333" lon="1.12922">
        <ele>704.0</ele>
        <time>2021-07-11T08:43:21.000Z</time>
      </trkpt>
      <trkpt lat="41.3733" lon="1.12922">
        <ele>704.0</ele>
        <time>2021-07-11T08:43:22.000Z</time>
      </trkpt>
      <trkpt lat="41.373305" lon="1.12921833">
        <ele>704.0</ele>
        <time>2021-07-11T08:43:23.000Z</time>
      </trkpt>
      <trkpt lat="41.37330833" lon="1.12921667">
        <ele>704.0</ele>
        <time>2021-07-11T08:43:24.000Z</time>
      </trkpt>
      <trkpt lat="41.37331167" lon="1.129215">
        <ele>704.0</ele>
        <time>2021-07-11T08:43:25.000Z</time>
      </trkpt>
      <trkpt lat="41.37331167" lon="1.129215">
        <ele>704.0</ele>
        <time>2021-07-11T08:43:26.000Z</time>
      </trkpt>
      <trkpt lat="41.37331833" lon="1.129215">
        <ele>704.0</ele>
        <time>2021-07-11T08:43:27.000Z</time>
      </trkpt>
      <trkpt lat="41.373325" lon="1.12921333">
        <ele>704.0</ele>
        <time>2021-07-11T08:43:28.000Z</time>
      </trkpt>
      <trkpt lat="41.37332833" lon="1.12921167">
        <ele>704.0</ele>
        <time>2021-07-11T08:43:29.000Z</time>
      </trkpt>
      <trkpt lat="41.37332833" lon="1.12921167">
        <ele>704.0</ele>
        <time>2021-07-11T08:43:30.000Z</time>
      </trkpt>
      <trkpt lat="41.37332667" lon="1.12921333">
        <ele>704.0</ele>
        <time>2021-07-11T08:43:31.000Z</time>
      </trkpt>
      <trkpt lat="41.37332167" lon="1.12921667">
        <ele>704.0</ele>
        <time>2021-07-11T08:43:32.000Z</time>
      </trkpt>
      <trkpt lat="41.37332" lon="1.12922">
        <ele>704.0</ele>
        <time>2021-07-11T08:43:33.000Z</time>
      </trkpt>
      <trkpt lat="41.37332167" lon="1.12921833">
        <ele>704.0</ele>
        <time>2021-07-11T08:43:34.000Z</time>
      </trkpt>
      <trkpt lat="41.373325" lon="1.129215">
        <ele>704.0</ele>
        <time>2021-07-11T08:43:35.000Z</time>
      </trkpt>
      <trkpt lat="41.37332833" lon="1.12920667">
        <ele>704.0</ele>
        <time>2021-07-11T08:43:36.000Z</time>
      </trkpt>
      <trkpt lat="41.37332833" lon="1.129195">
        <ele>704.0</ele>
        <time>2021-07-11T08:43:37.000Z</time>
      </trkpt>
      <trkpt lat="41.37332667" lon="1.129185">
        <ele>704.0</ele>
        <time>2021-07-11T08:43:38.000Z</time>
      </trkpt>
      <trkpt lat="41.37332167" lon="1.12917833">
        <ele>704.0</ele>
        <time>2021-07-11T08:43:39.000Z</time>
      </trkpt>
      <trkpt lat="41.37331833" lon="1.12917833">
        <ele>704.0</ele>
        <time>2021-07-11T08:43:40.000Z</time>
      </trkpt>
      <trkpt lat="41.373315" lon="1.12917833">
        <ele>704.0</ele>
        <time>2021-07-11T08:43:41.000Z</time>
      </trkpt>
      <trkpt lat="41.37331" lon="1.12918">
        <ele>704.0</ele>
        <time>2021-07-11T08:43:42.000Z</time>
      </trkpt>
      <trkpt lat="41.37330333" lon="1.12918167">
        <ele>704.0</ele>
        <time>2021-07-11T08:43:43.000Z</time>
      </trkpt>
      <trkpt lat="41.37329667" lon="1.129185">
        <ele>704.0</ele>
        <time>2021-07-11T08:43:44.000Z</time>
      </trkpt>
      <trkpt lat="41.37328833" lon="1.12918833">
        <ele>704.0</ele>
        <time>2021-07-11T08:43:45.000Z</time>
      </trkpt>
      <trkpt lat="41.37328833" lon="1.12918833">
        <ele>704.0</ele>
        <time>2021-07-11T08:43:53.000Z</time>
      </trkpt>
      <trkpt lat="41.37328833" lon="1.12918833">
        <ele>704.0</ele>
        <time>2021-07-11T08:43:54.000Z</time>
      </trkpt>
      <trkpt lat="41.373225" lon="1.12921833">
        <ele>704.0</ele>
        <time>2021-07-11T08:43:55.000Z</time>
      </trkpt>
      <trkpt lat="41.37323333" lon="1.12920833">
        <ele>704.0</ele>
        <time>2021-07-11T08:43:56.000Z</time>
      </trkpt>
      <trkpt lat="41.37323333" lon="1.12920833">
        <ele>704.0</ele>
        <time>2021-07-11T08:43:58.000Z</time>
      </trkpt>
      <trkpt lat="41.37323333" lon="1.12920833">
        <ele>704.0</ele>
        <time>2021-07-11T08:43:59.000Z</time>
      </trkpt>
      <trkpt lat="41.37327167" lon="1.12917167">
        <ele>704.0</ele>
        <time>2021-07-11T08:44:00.000Z</time>
      </trkpt>
      <trkpt lat="41.37328167" lon="1.12916167">
        <ele>704.0</ele>
        <time>2021-07-11T08:44:01.000Z</time>
      </trkpt>
      <trkpt lat="41.37328167" lon="1.12916167">
        <ele>704.0</ele>
        <time>2021-07-11T08:44:03.000Z</time>
      </trkpt>
      <trkpt lat="41.37328167" lon="1.12916167">
        <ele>704.0</ele>
        <time>2021-07-11T08:44:04.000Z</time>
      </trkpt>
      <trkpt lat="41.37328167" lon="1.12916167">
        <ele>704.0</ele>
        <time>2021-07-11T08:44:06.000Z</time>
      </trkpt>
      <trkpt lat="41.37328167" lon="1.12916167">
        <ele>704.0</ele>
        <time>2021-07-11T08:44:07.000Z</time>
      </trkpt>
      <trkpt lat="41.37332" lon="1.12914">
        <ele>704.0</ele>
        <time>2021-07-11T08:44:08.000Z</time>
      </trkpt>
      <trkpt lat="41.37332" lon="1.12913833">
        <ele>704.0</ele>
        <time>2021-07-11T08:44:09.000Z</time>
      </trkpt>
      <trkpt lat="41.37331667" lon="1.12913833">
        <ele>704.0</ele>
        <time>2021-07-11T08:44:10.000Z</time>
      </trkpt>
      <trkpt lat="41.37331167" lon="1.12913833">
        <ele>704.0</ele>
        <time>2021-07-11T08:44:11.000Z</time>
      </trkpt>
      <trkpt lat="41.37331167" lon="1.12913833">
        <ele>704.0</ele>
        <time>2021-07-11T08:44:13.000Z</time>
      </trkpt>
      <trkpt lat="41.37331167" lon="1.12913833">
        <ele>704.0</ele>
        <time>2021-07-11T08:44:14.000Z</time>
      </trkpt>
      <trkpt lat="41.37331167" lon="1.12913833">
        <ele>704.0</ele>
        <time>2021-07-11T08:44:18.000Z</time>
      </trkpt>
      <trkpt lat="41.37331167" lon="1.12913833">
        <ele>704.0</ele>
        <time>2021-07-11T08:44:19.000Z</time>
      </trkpt>
      <trkpt lat="41.37328333" lon="1.129145">
        <ele>704.0</ele>
        <time>2021-07-11T08:44:20.000Z</time>
      </trkpt>
      <trkpt lat="41.37328667" lon="1.12914333">
        <ele>704.0</ele>
        <time>2021-07-11T08:44:21.000Z</time>
      </trkpt>
      <trkpt lat="41.37329667" lon="1.12913667">
        <ele>704.0</ele>
        <time>2021-07-11T08:44:22.000Z</time>
      </trkpt>
      <trkpt lat="41.37331167" lon="1.12913167">
        <ele>704.0</ele>
        <time>2021-07-11T08:44:23.000Z</time>
      </trkpt>
      <trkpt lat="41.37333167" lon="1.12913">
        <ele>704.0</ele>
        <time>2021-07-11T08:44:24.000Z</time>
      </trkpt>
      <trkpt lat="41.37335" lon="1.12913167">
        <ele>704.0</ele>
        <time>2021-07-11T08:44:25.000Z</time>
      </trkpt>
      <trkpt lat="41.373365" lon="1.12913">
        <ele>704.0</ele>
        <time>2021-07-11T08:44:26.000Z</time>
      </trkpt>
      <trkpt lat="41.37338167" lon="1.12913167">
        <ele>704.0</ele>
        <time>2021-07-11T08:44:27.000Z</time>
      </trkpt>
      <trkpt lat="41.37339667" lon="1.12913333">
        <ele>704.0</ele>
        <time>2021-07-11T08:44:28.000Z</time>
      </trkpt>
      <trkpt lat="41.37340833" lon="1.12913833">
        <ele>703.0</ele>
        <time>2021-07-11T08:44:29.000Z</time>
      </trkpt>
      <trkpt lat="41.37342167" lon="1.12914">
        <ele>703.0</ele>
        <time>2021-07-11T08:44:30.000Z</time>
      </trkpt>
      <trkpt lat="41.37343167" lon="1.12913833">
        <ele>703.0</ele>
        <time>2021-07-11T08:44:31.000Z</time>
      </trkpt>
      <trkpt lat="41.37344167" lon="1.12914167">
        <ele>703.0</ele>
        <time>2021-07-11T08:44:32.000Z</time>
      </trkpt>
      <trkpt lat="41.37344833" lon="1.12915">
        <ele>703.0</ele>
        <time>2021-07-11T08:44:33.000Z</time>
      </trkpt>
      <trkpt lat="41.37345667" lon="1.129155">
        <ele>703.0</ele>
        <time>2021-07-11T08:44:34.000Z</time>
      </trkpt>
      <trkpt lat="41.37346333" lon="1.12916">
        <ele>703.0</ele>
        <time>2021-07-11T08:44:35.000Z</time>
      </trkpt>
      <trkpt lat="41.37346833" lon="1.12916667">
        <ele>703.0</ele>
        <time>2021-07-11T08:44:36.000Z</time>
      </trkpt>
      <trkpt lat="41.37347" lon="1.12917333">
        <ele>703.0</ele>
        <time>2021-07-11T08:44:37.000Z</time>
      </trkpt>
      <trkpt lat="41.37347167" lon="1.12917833">
        <ele>703.0</ele>
        <time>2021-07-11T08:44:38.000Z</time>
      </trkpt>
      <trkpt lat="41.37347167" lon="1.129185">
        <ele>703.0</ele>
        <time>2021-07-11T08:44:39.000Z</time>
      </trkpt>
      <trkpt lat="41.37347" lon="1.12919167">
        <ele>703.0</ele>
        <time>2021-07-11T08:44:40.000Z</time>
      </trkpt>
      <trkpt lat="41.37346667" lon="1.12919833">
        <ele>703.0</ele>
        <time>2021-07-11T08:44:41.000Z</time>
      </trkpt>
      <trkpt lat="41.37346833" lon="1.1292">
        <ele>703.0</ele>
        <time>2021-07-11T08:44:42.000Z</time>
      </trkpt>
      <trkpt lat="41.37347167" lon="1.12920167">
        <ele>703.0</ele>
        <time>2021-07-11T08:44:43.000Z</time>
      </trkpt>
      <trkpt lat="41.37347667" lon="1.1292">
        <ele>702.0</ele>
        <time>2021-07-11T08:44:44.000Z</time>
      </trkpt>
      <trkpt lat="41.37348167" lon="1.1292">
        <ele>702.0</ele>
        <time>2021-07-11T08:44:45.000Z</time>
      </trkpt>
      <trkpt lat="41.373485" lon="1.12920167">
        <ele>702.0</ele>
        <time>2021-07-11T08:44:46.000Z</time>
      </trkpt>
      <trkpt lat="41.37349" lon="1.129205">
        <ele>702.0</ele>
        <time>2021-07-11T08:44:47.000Z</time>
      </trkpt>
      <trkpt lat="41.373495" lon="1.12920833">
        <ele>702.0</ele>
        <time>2021-07-11T08:44:48.000Z</time>
      </trkpt>
      <trkpt lat="41.3735" lon="1.12921167">
        <ele>701.0</ele>
        <time>2021-07-11T08:44:49.000Z</time>
      </trkpt>
      <trkpt lat="41.373505" lon="1.12921167">
        <ele>701.0</ele>
        <time>2021-07-11T08:44:50.000Z</time>
      </trkpt>
      <trkpt lat="41.37350833" lon="1.12921333">
        <ele>701.0</ele>
        <time>2021-07-11T08:44:51.000Z</time>
      </trkpt>
      <trkpt lat="41.37351333" lon="1.129215">
        <ele>701.0</ele>
        <time>2021-07-11T08:44:52.000Z</time>
      </trkpt>
      <trkpt lat="41.37351833" lon="1.129215">
        <ele>701.0</ele>
        <time>2021-07-11T08:44:53.000Z</time>
      </trkpt>
      <trkpt lat="41.37352167" lon="1.12921667">
        <ele>701.0</ele>
        <time>2021-07-11T08:44:54.000Z</time>
      </trkpt>
      <trkpt lat="41.37352333" lon="1.12921833">
        <ele>701.0</ele>
        <time>2021-07-11T08:44:55.000Z</time>
      </trkpt>
      <trkpt lat="41.37352667" lon="1.12922167">
        <ele>701.0</ele>
        <time>2021-07-11T08:44:56.000Z</time>
      </trkpt>
      <trkpt lat="41.37353167" lon="1.129225">
        <ele>701.0</ele>
        <time>2021-07-11T08:44:57.000Z</time>
      </trkpt>
      <trkpt lat="41.37354" lon="1.12923">
        <ele>701.0</ele>
        <time>2021-07-11T08:44:58.000Z</time>
      </trkpt>
      <trkpt lat="41.37354667" lon="1.12923167">
        <ele>700.0</ele>
        <time>2021-07-11T08:44:59.000Z</time>
      </trkpt>
      <trkpt lat="41.37355167" lon="1.12923167">
        <ele>700.0</ele>
        <time>2021-07-11T08:45:00.000Z</time>
      </trkpt>
      <trkpt lat="41.37355667" lon="1.12923333">
        <ele>700.0</ele>
        <time>2021-07-11T08:45:01.000Z</time>
      </trkpt>
      <trkpt lat="41.37356333" lon="1.129235">
        <ele>700.0</ele>
        <time>2021-07-11T08:45:02.000Z</time>
      </trkpt>
      <trkpt lat="41.373575" lon="1.12923333">
        <ele>700.0</ele>
        <time>2021-07-11T08:45:03.000Z</time>
      </trkpt>
      <trkpt lat="41.373585" lon="1.12923333">
        <ele>700.0</ele>
        <time>2021-07-11T08:45:04.000Z</time>
      </trkpt>
      <trkpt lat="41.37359333" lon="1.12923667">
        <ele>700.0</ele>
        <time>2021-07-11T08:45:05.000Z</time>
      </trkpt>
      <trkpt lat="41.3736" lon="1.129235">
        <ele>699.0</ele>
        <time>2021-07-11T08:45:06.000Z</time>
      </trkpt>
      <trkpt lat="41.37360833" lon="1.12923333">
        <ele>699.0</ele>
        <time>2021-07-11T08:45:07.000Z</time>
      </trkpt>
      <trkpt lat="41.37361833" lon="1.12923167">
        <ele>699.0</ele>
        <time>2021-07-11T08:45:08.000Z</time>
      </trkpt>
      <trkpt lat="41.37362833" lon="1.12922833">
        <ele>699.0</ele>
        <time>2021-07-11T08:45:09.000Z</time>
      </trkpt>
      <trkpt lat="41.373635" lon="1.129225">
        <ele>699.0</ele>
        <time>2021-07-11T08:45:10.000Z</time>
      </trkpt>
      <trkpt lat="41.37364167" lon="1.12922">
        <ele>698.0</ele>
        <time>2021-07-11T08:45:11.000Z</time>
      </trkpt>
      <trkpt lat="41.37365" lon="1.129215">
        <ele>698.0</ele>
        <time>2021-07-11T08:45:12.000Z</time>
      </trkpt>
      <trkpt lat="41.37365833" lon="1.12920833">
        <ele>698.0</ele>
        <time>2021-07-11T08:45:13.000Z</time>
      </trkpt>
      <trkpt lat="41.37366333" lon="1.129205">
        <ele>698.0</ele>
        <time>2021-07-11T08:45:14.000Z</time>
      </trkpt>
      <trkpt lat="41.37366667" lon="1.12920167">
        <ele>698.0</ele>
        <time>2021-07-11T08:45:15.000Z</time>
      </trkpt>
      <trkpt lat="41.37366833" lon="1.129195">
        <ele>698.0</ele>
        <time>2021-07-11T08:45:16.000Z</time>
      </trkpt>
      <trkpt lat="41.37367167" lon="1.12918667">
        <ele>698.0</ele>
        <time>2021-07-11T08:45:17.000Z</time>
      </trkpt>
      <trkpt lat="41.37367167" lon="1.12917833">
        <ele>698.0</ele>
        <time>2021-07-11T08:45:18.000Z</time>
      </trkpt>
      <trkpt lat="41.37367333" lon="1.12917">
        <ele>698.0</ele>
        <time>2021-07-11T08:45:19.000Z</time>
      </trkpt>
      <trkpt lat="41.37367833" lon="1.129165">
        <ele>698.0</ele>
        <time>2021-07-11T08:45:20.000Z</time>
      </trkpt>
      <trkpt lat="41.37368167" lon="1.12915833">
        <ele>697.0</ele>
        <time>2021-07-11T08:45:21.000Z</time>
      </trkpt>
      <trkpt lat="41.37368333" lon="1.12915167">
        <ele>697.0</ele>
        <time>2021-07-11T08:45:22.000Z</time>
      </trkpt>
      <trkpt lat="41.373685" lon="1.129145">
        <ele>697.0</ele>
        <time>2021-07-11T08:45:23.000Z</time>
      </trkpt>
      <trkpt lat="41.37368667" lon="1.12913667">
        <ele>697.0</ele>
        <time>2021-07-11T08:45:24.000Z</time>
      </trkpt>
      <trkpt lat="41.37369" lon="1.12912833">
        <ele>697.0</ele>
        <time>2021-07-11T08:45:25.000Z</time>
      </trkpt>
      <trkpt lat="41.37369333" lon="1.12912167">
        <ele>697.0</ele>
        <time>2021-07-11T08:45:26.000Z</time>
      </trkpt>
      <trkpt lat="41.3737" lon="1.12911333">
        <ele>697.0</ele>
        <time>2021-07-11T08:45:27.000Z</time>
      </trkpt>
      <trkpt lat="41.37370667" lon="1.12910667">
        <ele>697.0</ele>
        <time>2021-07-11T08:45:28.000Z</time>
      </trkpt>
      <trkpt lat="41.37371333" lon="1.1291">
        <ele>697.0</ele>
        <time>2021-07-11T08:45:29.000Z</time>
      </trkpt>
      <trkpt lat="41.37372167" lon="1.129095">
        <ele>697.0</ele>
        <time>2021-07-11T08:45:30.000Z</time>
      </trkpt>
      <trkpt lat="41.37372833" lon="1.12909">
        <ele>697.0</ele>
        <time>2021-07-11T08:45:31.000Z</time>
      </trkpt>
      <trkpt lat="41.37373667" lon="1.129085">
        <ele>697.0</ele>
        <time>2021-07-11T08:45:32.000Z</time>
      </trkpt>
      <trkpt lat="41.37374667" lon="1.12908167">
        <ele>697.0</ele>
        <time>2021-07-11T08:45:33.000Z</time>
      </trkpt>
      <trkpt lat="41.37375167" lon="1.129075">
        <ele>697.0</ele>
        <time>2021-07-11T08:45:34.000Z</time>
      </trkpt>
      <trkpt lat="41.37375667" lon="1.12907">
        <ele>697.0</ele>
        <time>2021-07-11T08:45:35.000Z</time>
      </trkpt>
      <trkpt lat="41.373765" lon="1.12906667">
        <ele>696.0</ele>
        <time>2021-07-11T08:45:36.000Z</time>
      </trkpt>
      <trkpt lat="41.37377333" lon="1.12906833">
        <ele>696.0</ele>
        <time>2021-07-11T08:45:37.000Z</time>
      </trkpt>
      <trkpt lat="41.373785" lon="1.12906667">
        <ele>696.0</ele>
        <time>2021-07-11T08:45:38.000Z</time>
      </trkpt>
      <trkpt lat="41.37380167" lon="1.12907">
        <ele>696.0</ele>
        <time>2021-07-11T08:45:39.000Z</time>
      </trkpt>
      <trkpt lat="41.373815" lon="1.12908">
        <ele>696.0</ele>
        <time>2021-07-11T08:45:40.000Z</time>
      </trkpt>
      <trkpt lat="41.37382167" lon="1.12909">
        <ele>696.0</ele>
        <time>2021-07-11T08:45:41.000Z</time>
      </trkpt>
      <trkpt lat="41.37383" lon="1.12909667">
        <ele>696.0</ele>
        <time>2021-07-11T08:45:42.000Z</time>
      </trkpt>
      <trkpt lat="41.373835" lon="1.12910333">
        <ele>696.0</ele>
        <time>2021-07-11T08:45:43.000Z</time>
      </trkpt>
      <trkpt lat="41.37383833" lon="1.12910833">
        <ele>696.0</ele>
        <time>2021-07-11T08:45:44.000Z</time>
      </trkpt>
      <trkpt lat="41.37384" lon="1.12911333">
        <ele>696.0</ele>
        <time>2021-07-11T08:45:45.000Z</time>
      </trkpt>
      <trkpt lat="41.37384" lon="1.129125">
        <ele>696.0</ele>
        <time>2021-07-11T08:45:46.000Z</time>
      </trkpt>
      <trkpt lat="41.37384" lon="1.12913">
        <ele>696.0</ele>
        <time>2021-07-11T08:45:47.000Z</time>
      </trkpt>
      <trkpt lat="41.37384167" lon="1.12913167">
        <ele>696.0</ele>
        <time>2021-07-11T08:45:48.000Z</time>
      </trkpt>
      <trkpt lat="41.37384167" lon="1.12914167">
        <ele>696.0</ele>
        <time>2021-07-11T08:45:49.000Z</time>
      </trkpt>
      <trkpt lat="41.37384167" lon="1.12915333">
        <ele>696.0</ele>
        <time>2021-07-11T08:45:50.000Z</time>
      </trkpt>
      <trkpt lat="41.37384167" lon="1.12916833">
        <ele>696.0</ele>
        <time>2021-07-11T08:45:51.000Z</time>
      </trkpt>
      <trkpt lat="41.37384" lon="1.12918833">
        <ele>696.0</ele>
        <time>2021-07-11T08:45:52.000Z</time>
      </trkpt>
      <trkpt lat="41.37383833" lon="1.12920167">
        <ele>696.0</ele>
        <time>2021-07-11T08:45:53.000Z</time>
      </trkpt>
      <trkpt lat="41.37383833" lon="1.12921333">
        <ele>696.0</ele>
        <time>2021-07-11T08:45:54.000Z</time>
      </trkpt>
      <trkpt lat="41.37383667" lon="1.12922833">
        <ele>696.0</ele>
        <time>2021-07-11T08:45:55.000Z</time>
      </trkpt>
      <trkpt lat="41.373835" lon="1.12924333">
        <ele>696.0</ele>
        <time>2021-07-11T08:45:56.000Z</time>
      </trkpt>
      <trkpt lat="41.37383333" lon="1.12926">
        <ele>696.0</ele>
        <time>2021-07-11T08:45:57.000Z</time>
      </trkpt>
      <trkpt lat="41.37383333" lon="1.12927333">
        <ele>696.0</ele>
        <time>2021-07-11T08:45:58.000Z</time>
      </trkpt>
      <trkpt lat="41.37383333" lon="1.12928833">
        <ele>696.0</ele>
        <time>2021-07-11T08:45:59.000Z</time>
      </trkpt>
      <trkpt lat="41.37383333" lon="1.12930167">
        <ele>696.0</ele>
        <time>2021-07-11T08:46:00.000Z</time>
      </trkpt>
      <trkpt lat="41.37383167" lon="1.12931333">
        <ele>696.0</ele>
        <time>2021-07-11T08:46:01.000Z</time>
      </trkpt>
      <trkpt lat="41.37382833" lon="1.12932333">
        <ele>695.0</ele>
        <time>2021-07-11T08:46:02.000Z</time>
      </trkpt>
      <trkpt lat="41.37382333" lon="1.12933167">
        <ele>695.0</ele>
        <time>2021-07-11T08:46:03.000Z</time>
      </trkpt>
      <trkpt lat="41.37382" lon="1.12934">
        <ele>695.0</ele>
        <time>2021-07-11T08:46:04.000Z</time>
      </trkpt>
      <trkpt lat="41.373815" lon="1.12935167">
        <ele>695.0</ele>
        <time>2021-07-11T08:46:05.000Z</time>
      </trkpt>
      <trkpt lat="41.37380667" lon="1.12935833">
        <ele>695.0</ele>
        <time>2021-07-11T08:46:06.000Z</time>
      </trkpt>
      <trkpt lat="41.37379833" lon="1.12936333">
        <ele>695.0</ele>
        <time>2021-07-11T08:46:07.000Z</time>
      </trkpt>
      <trkpt lat="41.37378833" lon="1.12937333">
        <ele>695.0</ele>
        <time>2021-07-11T08:46:08.000Z</time>
      </trkpt>
      <trkpt lat="41.37378167" lon="1.129385">
        <ele>695.0</ele>
        <time>2021-07-11T08:46:09.000Z</time>
      </trkpt>
      <trkpt lat="41.37377667" lon="1.12939333">
        <ele>695.0</ele>
        <time>2021-07-11T08:46:10.000Z</time>
      </trkpt>
      <trkpt lat="41.37377167" lon="1.12940167">
        <ele>695.0</ele>
        <time>2021-07-11T08:46:11.000Z</time>
      </trkpt>
      <trkpt lat="41.373765" lon="1.12941833">
        <ele>695.0</ele>
        <time>2021-07-11T08:46:12.000Z</time>
      </trkpt>
      <trkpt lat="41.37375833" lon="1.129435">
        <ele>695.0</ele>
        <time>2021-07-11T08:46:13.000Z</time>
      </trkpt>
      <trkpt lat="41.37375" lon="1.129455">
        <ele>695.0</ele>
        <time>2021-07-11T08:46:14.000Z</time>
      </trkpt>
      <trkpt lat="41.37373833" lon="1.12947167">
        <ele>695.0</ele>
        <time>2021-07-11T08:46:15.000Z</time>
      </trkpt>
      <trkpt lat="41.37372667" lon="1.12949">
        <ele>695.0</ele>
        <time>2021-07-11T08:46:16.000Z</time>
      </trkpt>
      <trkpt lat="41.37371333" lon="1.12951">
        <ele>695.0</ele>
        <time>2021-07-11T08:46:17.000Z</time>
      </trkpt>
      <trkpt lat="41.37370167" lon="1.12952833">
        <ele>695.0</ele>
        <time>2021-07-11T08:46:18.000Z</time>
      </trkpt>
      <trkpt lat="41.37369333" lon="1.12954">
        <ele>695.0</ele>
        <time>2021-07-11T08:46:19.000Z</time>
      </trkpt>
      <trkpt lat="41.37368333" lon="1.12954667">
        <ele>695.0</ele>
        <time>2021-07-11T08:46:20.000Z</time>
      </trkpt>
      <trkpt lat="41.37367667" lon="1.12955">
        <ele>695.0</ele>
        <time>2021-07-11T08:46:21.000Z</time>
      </trkpt>
      <trkpt lat="41.37366833" lon="1.12955">
        <ele>695.0</ele>
        <time>2021-07-11T08:46:22.000Z</time>
      </trkpt>
      <trkpt lat="41.37365833" lon="1.12954833">
        <ele>695.0</ele>
        <time>2021-07-11T08:46:23.000Z</time>
      </trkpt>
      <trkpt lat="41.37365" lon="1.12954667">
        <ele>694.0</ele>
        <time>2021-07-11T08:46:24.000Z</time>
      </trkpt>
      <trkpt lat="41.37364333" lon="1.129545">
        <ele>694.0</ele>
        <time>2021-07-11T08:46:25.000Z</time>
      </trkpt>
      <trkpt lat="41.37364" lon="1.12954333">
        <ele>694.0</ele>
        <time>2021-07-11T08:46:26.000Z</time>
      </trkpt>
      <trkpt lat="41.373635" lon="1.12954167">
        <ele>694.0</ele>
        <time>2021-07-11T08:46:27.000Z</time>
      </trkpt>
      <trkpt lat="41.37362833" lon="1.12953833">
        <ele>694.0</ele>
        <time>2021-07-11T08:46:28.000Z</time>
      </trkpt>
      <trkpt lat="41.373625" lon="1.12954">
        <ele>694.0</ele>
        <time>2021-07-11T08:46:29.000Z</time>
      </trkpt>
      <trkpt lat="41.37362167" lon="1.12954333">
        <ele>694.0</ele>
        <time>2021-07-11T08:46:30.000Z</time>
      </trkpt>
      <trkpt lat="41.37361833" lon="1.12954667">
        <ele>693.0</ele>
        <time>2021-07-11T08:46:31.000Z</time>
      </trkpt>
      <trkpt lat="41.373615" lon="1.12954833">
        <ele>693.0</ele>
        <time>2021-07-11T08:46:32.000Z</time>
      </trkpt>
      <trkpt lat="41.37361333" lon="1.12954833">
        <ele>693.0</ele>
        <time>2021-07-11T08:46:33.000Z</time>
      </trkpt>
      <trkpt lat="41.37360667" lon="1.12955">
        <ele>693.0</ele>
        <time>2021-07-11T08:46:34.000Z</time>
      </trkpt>
      <trkpt lat="41.37359833" lon="1.12955">
        <ele>693.0</ele>
        <time>2021-07-11T08:46:35.000Z</time>
      </trkpt>
      <trkpt lat="41.37358833" lon="1.12954667">
        <ele>693.0</ele>
        <time>2021-07-11T08:46:36.000Z</time>
      </trkpt>
      <trkpt lat="41.37357667" lon="1.12954333">
        <ele>692.0</ele>
        <time>2021-07-11T08:46:37.000Z</time>
      </trkpt>
      <trkpt lat="41.373565" lon="1.12954167">
        <ele>692.0</ele>
        <time>2021-07-11T08:46:38.000Z</time>
      </trkpt>
      <trkpt lat="41.373555" lon="1.12954167">
        <ele>692.0</ele>
        <time>2021-07-11T08:46:39.000Z</time>
      </trkpt>
      <trkpt lat="41.373545" lon="1.12954">
        <ele>691.0</ele>
        <time>2021-07-11T08:46:40.000Z</time>
      </trkpt>
      <trkpt lat="41.37353667" lon="1.12953667">
        <ele>691.0</ele>
        <time>2021-07-11T08:46:41.000Z</time>
      </trkpt>
      <trkpt lat="41.37352667" lon="1.12953667">
        <ele>691.0</ele>
        <time>2021-07-11T08:46:42.000Z</time>
      </trkpt>
      <trkpt lat="41.37351833" lon="1.12953833">
        <ele>691.0</ele>
        <time>2021-07-11T08:46:43.000Z</time>
      </trkpt>
      <trkpt lat="41.37351167" lon="1.12953333">
        <ele>691.0</ele>
        <time>2021-07-11T08:46:44.000Z</time>
      </trkpt>
      <trkpt lat="41.37350667" lon="1.12952333">
        <ele>691.0</ele>
        <time>2021-07-11T08:46:45.000Z</time>
      </trkpt>
      <trkpt lat="41.37350333" lon="1.12952">
        <ele>689.0</ele>
        <time>2021-07-11T08:46:46.000Z</time>
      </trkpt>
      <trkpt lat="41.37349833" lon="1.12951833">
        <ele>689.0</ele>
        <time>2021-07-11T08:46:47.000Z</time>
      </trkpt>
      <trkpt lat="41.373495" lon="1.12951">
        <ele>689.0</ele>
        <time>2021-07-11T08:46:48.000Z</time>
      </trkpt>
      <trkpt lat="41.37349" lon="1.1295">
        <ele>688.0</ele>
        <time>2021-07-11T08:46:49.000Z</time>
      </trkpt>
      <trkpt lat="41.37348833" lon="1.12949">
        <ele>688.0</ele>
        <time>2021-07-11T08:46:50.000Z</time>
      </trkpt>
      <trkpt lat="41.37348667" lon="1.12948333">
        <ele>688.0</ele>
        <time>2021-07-11T08:46:51.000Z</time>
      </trkpt>
      <trkpt lat="41.373485" lon="1.12947833">
        <ele>687.0</ele>
        <time>2021-07-11T08:46:52.000Z</time>
      </trkpt>
      <trkpt lat="41.37348" lon="1.129475">
        <ele>687.0</ele>
        <time>2021-07-11T08:46:53.000Z</time>
      </trkpt>
      <trkpt lat="41.373475" lon="1.12947167">
        <ele>687.0</ele>
        <time>2021-07-11T08:46:54.000Z</time>
      </trkpt>
      <trkpt lat="41.37346833" lon="1.12947167">
        <ele>687.0</ele>
        <time>2021-07-11T08:46:55.000Z</time>
      </trkpt>
      <trkpt lat="41.37346167" lon="1.12947333">
        <ele>686.0</ele>
        <time>2021-07-11T08:46:56.000Z</time>
      </trkpt>
      <trkpt lat="41.37345667" lon="1.12947833">
        <ele>686.0</ele>
        <time>2021-07-11T08:46:57.000Z</time>
      </trkpt>
      <trkpt lat="41.37345" lon="1.12948667">
        <ele>686.0</ele>
        <time>2021-07-11T08:46:58.000Z</time>
      </trkpt>
      <trkpt lat="41.37344333" lon="1.12949667">
        <ele>686.0</ele>
        <time>2021-07-11T08:46:59.000Z</time>
      </trkpt>
      <trkpt lat="41.37343167" lon="1.12951">
        <ele>686.0</ele>
        <time>2021-07-11T08:47:00.000Z</time>
      </trkpt>
      <trkpt lat="41.37342167" lon="1.12951833">
        <ele>686.0</ele>
        <time>2021-07-11T08:47:01.000Z</time>
      </trkpt>
      <trkpt lat="41.373415" lon="1.129525">
        <ele>685.0</ele>
        <time>2021-07-11T08:47:02.000Z</time>
      </trkpt>
      <trkpt lat="41.37341" lon="1.12952667">
        <ele>685.0</ele>
        <time>2021-07-11T08:47:03.000Z</time>
      </trkpt>
      <trkpt lat="41.37340667" lon="1.12953167">
        <ele>685.0</ele>
        <time>2021-07-11T08:47:04.000Z</time>
      </trkpt>
      <trkpt lat="41.373405" lon="1.12954">
        <ele>684.0</ele>
        <time>2021-07-11T08:47:05.000Z</time>
      </trkpt>
      <trkpt lat="41.373405" lon="1.12954667">
        <ele>684.0</ele>
        <time>2021-07-11T08:47:06.000Z</time>
      </trkpt>
      <trkpt lat="41.373405" lon="1.12954667">
        <ele>683.0</ele>
        <time>2021-07-11T08:47:07.000Z</time>
      </trkpt>
      <trkpt lat="41.373405" lon="1.12955167">
        <ele>683.0</ele>
        <time>2021-07-11T08:47:08.000Z</time>
      </trkpt>
      <trkpt lat="41.37340333" lon="1.12956">
        <ele>683.0</ele>
        <time>2021-07-11T08:47:09.000Z</time>
      </trkpt>
      <trkpt lat="41.3734" lon="1.129565">
        <ele>683.0</ele>
        <time>2021-07-11T08:47:10.000Z</time>
      </trkpt>
      <trkpt lat="41.37339833" lon="1.12956833">
        <ele>683.0</ele>
        <time>2021-07-11T08:47:11.000Z</time>
      </trkpt>
      <trkpt lat="41.373395" lon="1.12957">
        <ele>683.0</ele>
        <time>2021-07-11T08:47:12.000Z</time>
      </trkpt>
      <trkpt lat="41.373395" lon="1.12957167">
        <ele>682.0</ele>
        <time>2021-07-11T08:47:13.000Z</time>
      </trkpt>
      <trkpt lat="41.373395" lon="1.12957167">
        <ele>682.0</ele>
        <time>2021-07-11T08:47:14.000Z</time>
      </trkpt>
      <trkpt lat="41.373395" lon="1.12957167">
        <ele>682.0</ele>
        <time>2021-07-11T08:47:15.000Z</time>
      </trkpt>
      <trkpt lat="41.37339333" lon="1.129575">
        <ele>682.0</ele>
        <time>2021-07-11T08:47:16.000Z</time>
      </trkpt>
      <trkpt lat="41.37339167" lon="1.12958333">
        <ele>681.0</ele>
        <time>2021-07-11T08:47:17.000Z</time>
      </trkpt>
      <trkpt lat="41.37338667" lon="1.12958667">
        <ele>681.0</ele>
        <time>2021-07-11T08:47:18.000Z</time>
      </trkpt>
      <trkpt lat="41.37338333" lon="1.12959">
        <ele>681.0</ele>
        <time>2021-07-11T08:47:19.000Z</time>
      </trkpt>
      <trkpt lat="41.37338167" lon="1.12959667">
        <ele>681.0</ele>
        <time>2021-07-11T08:47:20.000Z</time>
      </trkpt>
      <trkpt lat="41.37338167" lon="1.12960667">
        <ele>681.0</ele>
        <time>2021-07-11T08:47:21.000Z</time>
      </trkpt>
      <trkpt lat="41.37338167" lon="1.129615">
        <ele>681.0</ele>
        <time>2021-07-11T08:47:22.000Z</time>
      </trkpt>
      <trkpt lat="41.37338" lon="1.12961667">
        <ele>681.0</ele>
        <time>2021-07-11T08:47:23.000Z</time>
      </trkpt>
      <trkpt lat="41.37338" lon="1.12962167">
        <ele>681.0</ele>
        <time>2021-07-11T08:47:24.000Z</time>
      </trkpt>
      <trkpt lat="41.37337833" lon="1.12962167">
        <ele>680.0</ele>
        <time>2021-07-11T08:47:25.000Z</time>
      </trkpt>
      <trkpt lat="41.37337167" lon="1.12962167">
        <ele>680.0</ele>
        <time>2021-07-11T08:47:26.000Z</time>
      </trkpt>
      <trkpt lat="41.37336667" lon="1.12962">
        <ele>680.0</ele>
        <time>2021-07-11T08:47:27.000Z</time>
      </trkpt>
      <trkpt lat="41.37336" lon="1.12961833">
        <ele>679.0</ele>
        <time>2021-07-11T08:47:28.000Z</time>
      </trkpt>
      <trkpt lat="41.37335167" lon="1.12961833">
        <ele>679.0</ele>
        <time>2021-07-11T08:47:29.000Z</time>
      </trkpt>
      <trkpt lat="41.373345" lon="1.12961667">
        <ele>679.0</ele>
        <time>2021-07-11T08:47:30.000Z</time>
      </trkpt>
      <trkpt lat="41.37333833" lon="1.12961833">
        <ele>679.0</ele>
        <time>2021-07-11T08:47:31.000Z</time>
      </trkpt>
      <trkpt lat="41.37332667" lon="1.12961833">
        <ele>678.0</ele>
        <time>2021-07-11T08:47:32.000Z</time>
      </trkpt>
      <trkpt lat="41.37331833" lon="1.12961833">
        <ele>678.0</ele>
        <time>2021-07-11T08:47:33.000Z</time>
      </trkpt>
      <trkpt lat="41.37331" lon="1.12961833">
        <ele>678.0</ele>
        <time>2021-07-11T08:47:34.000Z</time>
      </trkpt>
      <trkpt lat="41.3733" lon="1.129615">
        <ele>678.0</ele>
        <time>2021-07-11T08:47:35.000Z</time>
      </trkpt>
      <trkpt lat="41.37329167" lon="1.129615">
        <ele>678.0</ele>
        <time>2021-07-11T08:47:36.000Z</time>
      </trkpt>
      <trkpt lat="41.37328667" lon="1.12960833">
        <ele>678.0</ele>
        <time>2021-07-11T08:47:37.000Z</time>
      </trkpt>
      <trkpt lat="41.37328167" lon="1.12960333">
        <ele>678.0</ele>
        <time>2021-07-11T08:47:38.000Z</time>
      </trkpt>
      <trkpt lat="41.37327833" lon="1.12960333">
        <ele>678.0</ele>
        <time>2021-07-11T08:47:39.000Z</time>
      </trkpt>
      <trkpt lat="41.37327667" lon="1.12960167">
        <ele>677.0</ele>
        <time>2021-07-11T08:47:40.000Z</time>
      </trkpt>
      <trkpt lat="41.37327167" lon="1.1296">
        <ele>677.0</ele>
        <time>2021-07-11T08:47:41.000Z</time>
      </trkpt>
      <trkpt lat="41.37326667" lon="1.12960167">
        <ele>676.0</ele>
        <time>2021-07-11T08:47:42.000Z</time>
      </trkpt>
      <trkpt lat="41.37326" lon="1.12960167">
        <ele>676.0</ele>
        <time>2021-07-11T08:47:43.000Z</time>
      </trkpt>
      <trkpt lat="41.37325167" lon="1.1296">
        <ele>675.0</ele>
        <time>2021-07-11T08:47:44.000Z</time>
      </trkpt>
      <trkpt lat="41.373245" lon="1.1296">
        <ele>675.0</ele>
        <time>2021-07-11T08:47:45.000Z</time>
      </trkpt>
      <trkpt lat="41.37323667" lon="1.1296">
        <ele>675.0</ele>
        <time>2021-07-11T08:47:46.000Z</time>
      </trkpt>
      <trkpt lat="41.37323167" lon="1.12960333">
        <ele>675.0</ele>
        <time>2021-07-11T08:47:47.000Z</time>
      </trkpt>
      <trkpt lat="41.37322667" lon="1.129605">
        <ele>675.0</ele>
        <time>2021-07-11T08:47:48.000Z</time>
      </trkpt>
      <trkpt lat="41.37322167" lon="1.12960167">
        <ele>675.0</ele>
        <time>2021-07-11T08:47:49.000Z</time>
      </trkpt>
      <trkpt lat="41.373215" lon="1.12959833">
        <ele>674.0</ele>
        <time>2021-07-11T08:47:50.000Z</time>
      </trkpt>
      <trkpt lat="41.37321" lon="1.12959667">
        <ele>674.0</ele>
        <time>2021-07-11T08:47:51.000Z</time>
      </trkpt>
      <trkpt lat="41.37320667" lon="1.12959667">
        <ele>674.0</ele>
        <time>2021-07-11T08:47:52.000Z</time>
      </trkpt>
      <trkpt lat="41.3732" lon="1.1296">
        <ele>673.0</ele>
        <time>2021-07-11T08:47:53.000Z</time>
      </trkpt>
      <trkpt lat="41.37319333" lon="1.12960333">
        <ele>673.0</ele>
        <time>2021-07-11T08:47:54.000Z</time>
      </trkpt>
      <trkpt lat="41.37318667" lon="1.12960667">
        <ele>673.0</ele>
        <time>2021-07-11T08:47:55.000Z</time>
      </trkpt>
      <trkpt lat="41.37318333" lon="1.12961">
        <ele>673.0</ele>
        <time>2021-07-11T08:47:56.000Z</time>
      </trkpt>
      <trkpt lat="41.37317667" lon="1.12961333">
        <ele>673.0</ele>
        <time>2021-07-11T08:47:57.000Z</time>
      </trkpt>
      <trkpt lat="41.37317167" lon="1.129615">
        <ele>673.0</ele>
        <time>2021-07-11T08:47:58.000Z</time>
      </trkpt>
      <trkpt lat="41.37316333" lon="1.12961667">
        <ele>673.0</ele>
        <time>2021-07-11T08:47:59.000Z</time>
      </trkpt>
      <trkpt lat="41.37315333" lon="1.12961833">
        <ele>673.0</ele>
        <time>2021-07-11T08:48:00.000Z</time>
      </trkpt>
      <trkpt lat="41.37314333" lon="1.12962">
        <ele>673.0</ele>
        <time>2021-07-11T08:48:01.000Z</time>
      </trkpt>
      <trkpt lat="41.373135" lon="1.12962">
        <ele>672.0</ele>
        <time>2021-07-11T08:48:02.000Z</time>
      </trkpt>
      <trkpt lat="41.373125" lon="1.12962">
        <ele>672.0</ele>
        <time>2021-07-11T08:48:03.000Z</time>
      </trkpt>
      <trkpt lat="41.37311333" lon="1.12961833">
        <ele>672.0</ele>
        <time>2021-07-11T08:48:04.000Z</time>
      </trkpt>
      <trkpt lat="41.3731" lon="1.12962167">
        <ele>671.0</ele>
        <time>2021-07-11T08:48:05.000Z</time>
      </trkpt>
      <trkpt lat="41.37309167" lon="1.12962667">
        <ele>671.0</ele>
        <time>2021-07-11T08:48:06.000Z</time>
      </trkpt>
      <trkpt lat="41.37308333" lon="1.12963">
        <ele>671.0</ele>
        <time>2021-07-11T08:48:07.000Z</time>
      </trkpt>
      <trkpt lat="41.373075" lon="1.12963167">
        <ele>671.0</ele>
        <time>2021-07-11T08:48:08.000Z</time>
      </trkpt>
      <trkpt lat="41.37307167" lon="1.12963167">
        <ele>671.0</ele>
        <time>2021-07-11T08:48:09.000Z</time>
      </trkpt>
      <trkpt lat="41.373065" lon="1.12963167">
        <ele>671.0</ele>
        <time>2021-07-11T08:48:10.000Z</time>
      </trkpt>
      <trkpt lat="41.37305833" lon="1.12963167">
        <ele>671.0</ele>
        <time>2021-07-11T08:48:11.000Z</time>
      </trkpt>
      <trkpt lat="41.37305333" lon="1.12963167">
        <ele>671.0</ele>
        <time>2021-07-11T08:48:12.000Z</time>
      </trkpt>
      <trkpt lat="41.37305" lon="1.12963333">
        <ele>671.0</ele>
        <time>2021-07-11T08:48:13.000Z</time>
      </trkpt>
      <trkpt lat="41.37304833" lon="1.12963167">
        <ele>671.0</ele>
        <time>2021-07-11T08:48:14.000Z</time>
      </trkpt>
      <trkpt lat="41.37305" lon="1.12962667">
        <ele>671.0</ele>
        <time>2021-07-11T08:48:15.000Z</time>
      </trkpt>
      <trkpt lat="41.37305" lon="1.12962333">
        <ele>671.0</ele>
        <time>2021-07-11T08:48:16.000Z</time>
      </trkpt>
      <trkpt lat="41.37305167" lon="1.12962167">
        <ele>671.0</ele>
        <time>2021-07-11T08:48:17.000Z</time>
      </trkpt>
      <trkpt lat="41.373055" lon="1.12962167">
        <ele>671.0</ele>
        <time>2021-07-11T08:48:18.000Z</time>
      </trkpt>
      <trkpt lat="41.373055" lon="1.12962167">
        <ele>671.0</ele>
        <time>2021-07-11T08:48:19.000Z</time>
      </trkpt>
      <trkpt lat="41.373055" lon="1.129625">
        <ele>671.0</ele>
        <time>2021-07-11T08:48:20.000Z</time>
      </trkpt>
      <trkpt lat="41.37305333" lon="1.12963">
        <ele>671.0</ele>
        <time>2021-07-11T08:48:21.000Z</time>
      </trkpt>
      <trkpt lat="41.37305333" lon="1.12964167">
        <ele>671.0</ele>
        <time>2021-07-11T08:48:22.000Z</time>
      </trkpt>
      <trkpt lat="41.37305167" lon="1.12965167">
        <ele>671.0</ele>
        <time>2021-07-11T08:48:23.000Z</time>
      </trkpt>
      <trkpt lat="41.37305" lon="1.12966333">
        <ele>671.0</ele>
        <time>2021-07-11T08:48:24.000Z</time>
      </trkpt>
      <trkpt lat="41.37304833" lon="1.129675">
        <ele>671.0</ele>
        <time>2021-07-11T08:48:25.000Z</time>
      </trkpt>
      <trkpt lat="41.37304667" lon="1.129685">
        <ele>671.0</ele>
        <time>2021-07-11T08:48:26.000Z</time>
      </trkpt>
      <trkpt lat="41.37304667" lon="1.129695">
        <ele>671.0</ele>
        <time>2021-07-11T08:48:27.000Z</time>
      </trkpt>
      <trkpt lat="41.373045" lon="1.129705">
        <ele>671.0</ele>
        <time>2021-07-11T08:48:28.000Z</time>
      </trkpt>
      <trkpt lat="41.37304333" lon="1.12971333">
        <ele>671.0</ele>
        <time>2021-07-11T08:48:29.000Z</time>
      </trkpt>
      <trkpt lat="41.37304" lon="1.129725">
        <ele>671.0</ele>
        <time>2021-07-11T08:48:30.000Z</time>
      </trkpt>
      <trkpt lat="41.37303667" lon="1.12973667">
        <ele>671.0</ele>
        <time>2021-07-11T08:48:31.000Z</time>
      </trkpt>
      <trkpt lat="41.37302833" lon="1.12975">
        <ele>671.0</ele>
        <time>2021-07-11T08:48:32.000Z</time>
      </trkpt>
      <trkpt lat="41.37302333" lon="1.12976167">
        <ele>671.0</ele>
        <time>2021-07-11T08:48:33.000Z</time>
      </trkpt>
      <trkpt lat="41.37302" lon="1.12977333">
        <ele>671.0</ele>
        <time>2021-07-11T08:48:34.000Z</time>
      </trkpt>
      <trkpt lat="41.37301667" lon="1.12978667">
        <ele>671.0</ele>
        <time>2021-07-11T08:48:35.000Z</time>
      </trkpt>
      <trkpt lat="41.37301833" lon="1.12979333">
        <ele>671.0</ele>
        <time>2021-07-11T08:48:36.000Z</time>
      </trkpt>
      <trkpt lat="41.37301833" lon="1.1298">
        <ele>671.0</ele>
        <time>2021-07-11T08:48:37.000Z</time>
      </trkpt>
      <trkpt lat="41.37301833" lon="1.12981">
        <ele>671.0</ele>
        <time>2021-07-11T08:48:38.000Z</time>
      </trkpt>
      <trkpt lat="41.37302" lon="1.12982167">
        <ele>671.0</ele>
        <time>2021-07-11T08:48:39.000Z</time>
      </trkpt>
      <trkpt lat="41.37302167" lon="1.12983167">
        <ele>671.0</ele>
        <time>2021-07-11T08:48:40.000Z</time>
      </trkpt>
      <trkpt lat="41.37302167" lon="1.12984333">
        <ele>671.0</ele>
        <time>2021-07-11T08:48:41.000Z</time>
      </trkpt>
      <trkpt lat="41.37302167" lon="1.129855">
        <ele>671.0</ele>
        <time>2021-07-11T08:48:42.000Z</time>
      </trkpt>
      <trkpt lat="41.37301667" lon="1.12986667">
        <ele>671.0</ele>
        <time>2021-07-11T08:48:43.000Z</time>
      </trkpt>
      <trkpt lat="41.37301667" lon="1.12987833">
        <ele>671.0</ele>
        <time>2021-07-11T08:48:44.000Z</time>
      </trkpt>
      <trkpt lat="41.37301833" lon="1.12988833">
        <ele>671.0</ele>
        <time>2021-07-11T08:48:45.000Z</time>
      </trkpt>
      <trkpt lat="41.37301667" lon="1.129905">
        <ele>671.0</ele>
        <time>2021-07-11T08:48:46.000Z</time>
      </trkpt>
      <trkpt lat="41.37301333" lon="1.12992">
        <ele>671.0</ele>
        <time>2021-07-11T08:48:47.000Z</time>
      </trkpt>
      <trkpt lat="41.37300833" lon="1.12993167">
        <ele>671.0</ele>
        <time>2021-07-11T08:48:48.000Z</time>
      </trkpt>
      <trkpt lat="41.37300333" lon="1.12994">
        <ele>671.0</ele>
        <time>2021-07-11T08:48:49.000Z</time>
      </trkpt>
      <trkpt lat="41.37300167" lon="1.12994167">
        <ele>671.0</ele>
        <time>2021-07-11T08:48:50.000Z</time>
      </trkpt>
      <trkpt lat="41.37299833" lon="1.12994667">
        <ele>671.0</ele>
        <time>2021-07-11T08:48:51.000Z</time>
      </trkpt>
      <trkpt lat="41.37299667" lon="1.12995333">
        <ele>671.0</ele>
        <time>2021-07-11T08:48:52.000Z</time>
      </trkpt>
      <trkpt lat="41.37299333" lon="1.12996333">
        <ele>671.0</ele>
        <time>2021-07-11T08:48:53.000Z</time>
      </trkpt>
      <trkpt lat="41.37298667" lon="1.12997833">
        <ele>671.0</ele>
        <time>2021-07-11T08:48:54.000Z</time>
      </trkpt>
      <trkpt lat="41.37298" lon="1.12999833">
        <ele>671.0</ele>
        <time>2021-07-11T08:48:55.000Z</time>
      </trkpt>
      <trkpt lat="41.37297333" lon="1.13001833">
        <ele>671.0</ele>
        <time>2021-07-11T08:48:56.000Z</time>
      </trkpt>
      <trkpt lat="41.37296667" lon="1.13003667">
        <ele>671.0</ele>
        <time>2021-07-11T08:48:57.000Z</time>
      </trkpt>
      <trkpt lat="41.37295833" lon="1.13005667">
        <ele>671.0</ele>
        <time>2021-07-11T08:48:58.000Z</time>
      </trkpt>
      <trkpt lat="41.37295" lon="1.13007667">
        <ele>671.0</ele>
        <time>2021-07-11T08:48:59.000Z</time>
      </trkpt>
      <trkpt lat="41.372945" lon="1.13009333">
        <ele>671.0</ele>
        <time>2021-07-11T08:49:00.000Z</time>
      </trkpt>
      <trkpt lat="41.37294167" lon="1.13010667">
        <ele>670.0</ele>
        <time>2021-07-11T08:49:01.000Z</time>
      </trkpt>
      <trkpt lat="41.37294" lon="1.13011667">
        <ele>670.0</ele>
        <time>2021-07-11T08:49:02.000Z</time>
      </trkpt>
      <trkpt lat="41.37293833" lon="1.13013">
        <ele>670.0</ele>
        <time>2021-07-11T08:49:03.000Z</time>
      </trkpt>
      <trkpt lat="41.37293833" lon="1.13014667">
        <ele>670.0</ele>
        <time>2021-07-11T08:49:04.000Z</time>
      </trkpt>
      <trkpt lat="41.37293833" lon="1.13016333">
        <ele>670.0</ele>
        <time>2021-07-11T08:49:05.000Z</time>
      </trkpt>
      <trkpt lat="41.37293667" lon="1.13018667">
        <ele>670.0</ele>
        <time>2021-07-11T08:49:06.000Z</time>
      </trkpt>
      <trkpt lat="41.37293667" lon="1.13020833">
        <ele>670.0</ele>
        <time>2021-07-11T08:49:07.000Z</time>
      </trkpt>
      <trkpt lat="41.37293667" lon="1.13023">
        <ele>670.0</ele>
        <time>2021-07-11T08:49:08.000Z</time>
      </trkpt>
      <trkpt lat="41.37294" lon="1.13024833">
        <ele>670.0</ele>
        <time>2021-07-11T08:49:09.000Z</time>
      </trkpt>
      <trkpt lat="41.37294167" lon="1.13026667">
        <ele>670.0</ele>
        <time>2021-07-11T08:49:10.000Z</time>
      </trkpt>
      <trkpt lat="41.37294667" lon="1.13028333">
        <ele>670.0</ele>
        <time>2021-07-11T08:49:11.000Z</time>
      </trkpt>
      <trkpt lat="41.37294833" lon="1.1303">
        <ele>670.0</ele>
        <time>2021-07-11T08:49:12.000Z</time>
      </trkpt>
      <trkpt lat="41.37295167" lon="1.13031667">
        <ele>670.0</ele>
        <time>2021-07-11T08:49:13.000Z</time>
      </trkpt>
      <trkpt lat="41.37295167" lon="1.13033833">
        <ele>670.0</ele>
        <time>2021-07-11T08:49:14.000Z</time>
      </trkpt>
      <trkpt lat="41.37295" lon="1.13035667">
        <ele>670.0</ele>
        <time>2021-07-11T08:49:15.000Z</time>
      </trkpt>
      <trkpt lat="41.372945" lon="1.13038">
        <ele>670.0</ele>
        <time>2021-07-11T08:49:16.000Z</time>
      </trkpt>
      <trkpt lat="41.37294" lon="1.13040833">
        <ele>670.0</ele>
        <time>2021-07-11T08:49:17.000Z</time>
      </trkpt>
      <trkpt lat="41.37293333" lon="1.13044333">
        <ele>670.0</ele>
        <time>2021-07-11T08:49:18.000Z</time>
      </trkpt>
      <trkpt lat="41.37292333" lon="1.13048">
        <ele>670.0</ele>
        <time>2021-07-11T08:49:19.000Z</time>
      </trkpt>
      <trkpt lat="41.37291667" lon="1.13051167">
        <ele>670.0</ele>
        <time>2021-07-11T08:49:20.000Z</time>
      </trkpt>
      <trkpt lat="41.37291167" lon="1.13053667">
        <ele>669.0</ele>
        <time>2021-07-11T08:49:21.000Z</time>
      </trkpt>
      <trkpt lat="41.37291" lon="1.130555">
        <ele>669.0</ele>
        <time>2021-07-11T08:49:22.000Z</time>
      </trkpt>
      <trkpt lat="41.37290667" lon="1.13057167">
        <ele>669.0</ele>
        <time>2021-07-11T08:49:23.000Z</time>
      </trkpt>
      <trkpt lat="41.372905" lon="1.13058667">
        <ele>669.0</ele>
        <time>2021-07-11T08:49:24.000Z</time>
      </trkpt>
      <trkpt lat="41.37290667" lon="1.13060167">
        <ele>669.0</ele>
        <time>2021-07-11T08:49:25.000Z</time>
      </trkpt>
      <trkpt lat="41.37290833" lon="1.13061333">
        <ele>669.0</ele>
        <time>2021-07-11T08:49:26.000Z</time>
      </trkpt>
      <trkpt lat="41.37291167" lon="1.13062667">
        <ele>669.0</ele>
        <time>2021-07-11T08:49:27.000Z</time>
      </trkpt>
      <trkpt lat="41.372915" lon="1.130635">
        <ele>669.0</ele>
        <time>2021-07-11T08:49:28.000Z</time>
      </trkpt>
      <trkpt lat="41.37291667" lon="1.13065">
        <ele>668.0</ele>
        <time>2021-07-11T08:49:29.000Z</time>
      </trkpt>
      <trkpt lat="41.37291833" lon="1.13066333">
        <ele>668.0</ele>
        <time>2021-07-11T08:49:30.000Z</time>
      </trkpt>
      <trkpt lat="41.37292" lon="1.13067667">
        <ele>668.0</ele>
        <time>2021-07-11T08:49:31.000Z</time>
      </trkpt>
      <trkpt lat="41.37292" lon="1.13068667">
        <ele>668.0</ele>
        <time>2021-07-11T08:49:32.000Z</time>
      </trkpt>
      <trkpt lat="41.372925" lon="1.13069833">
        <ele>668.0</ele>
        <time>2021-07-11T08:49:33.000Z</time>
      </trkpt>
      <trkpt lat="41.37293167" lon="1.130715">
        <ele>668.0</ele>
        <time>2021-07-11T08:49:34.000Z</time>
      </trkpt>
      <trkpt lat="41.37293833" lon="1.130735">
        <ele>667.0</ele>
        <time>2021-07-11T08:49:35.000Z</time>
      </trkpt>
      <trkpt lat="41.37294667" lon="1.13075333">
        <ele>667.0</ele>
        <time>2021-07-11T08:49:36.000Z</time>
      </trkpt>
      <trkpt lat="41.37295667" lon="1.13076833">
        <ele>667.0</ele>
        <time>2021-07-11T08:49:37.000Z</time>
      </trkpt>
      <trkpt lat="41.372965" lon="1.13078">
        <ele>667.0</ele>
        <time>2021-07-11T08:49:38.000Z</time>
      </trkpt>
      <trkpt lat="41.37296833" lon="1.13079167">
        <ele>667.0</ele>
        <time>2021-07-11T08:49:39.000Z</time>
      </trkpt>
      <trkpt lat="41.37296833" lon="1.13080333">
        <ele>667.0</ele>
        <time>2021-07-11T08:49:40.000Z</time>
      </trkpt>
      <trkpt lat="41.37296667" lon="1.13081833">
        <ele>667.0</ele>
        <time>2021-07-11T08:49:41.000Z</time>
      </trkpt>
      <trkpt lat="41.37296833" lon="1.13083667">
        <ele>667.0</ele>
        <time>2021-07-11T08:49:42.000Z</time>
      </trkpt>
      <trkpt lat="41.37297167" lon="1.13085">
        <ele>667.0</ele>
        <time>2021-07-11T08:49:43.000Z</time>
      </trkpt>
      <trkpt lat="41.372975" lon="1.13085833">
        <ele>667.0</ele>
        <time>2021-07-11T08:49:44.000Z</time>
      </trkpt>
      <trkpt lat="41.37297667" lon="1.13086333">
        <ele>667.0</ele>
        <time>2021-07-11T08:49:45.000Z</time>
      </trkpt>
      <trkpt lat="41.37297833" lon="1.13086667">
        <ele>667.0</ele>
        <time>2021-07-11T08:49:46.000Z</time>
      </trkpt>
      <trkpt lat="41.37297833" lon="1.13087">
        <ele>667.0</ele>
        <time>2021-07-11T08:49:47.000Z</time>
      </trkpt>
      <trkpt lat="41.372985" lon="1.13086833">
        <ele>667.0</ele>
        <time>2021-07-11T08:49:48.000Z</time>
      </trkpt>
      <trkpt lat="41.37298833" lon="1.13087167">
        <ele>667.0</ele>
        <time>2021-07-11T08:49:49.000Z</time>
      </trkpt>
      <trkpt lat="41.37299333" lon="1.13086833">
        <ele>666.0</ele>
        <time>2021-07-11T08:49:50.000Z</time>
      </trkpt>
      <trkpt lat="41.37299667" lon="1.13086833">
        <ele>666.0</ele>
        <time>2021-07-11T08:49:51.000Z</time>
      </trkpt>
      <trkpt lat="41.373" lon="1.13087167">
        <ele>666.0</ele>
        <time>2021-07-11T08:49:52.000Z</time>
      </trkpt>
      <trkpt lat="41.373005" lon="1.13087167">
        <ele>665.0</ele>
        <time>2021-07-11T08:49:53.000Z</time>
      </trkpt>
      <trkpt lat="41.37301" lon="1.13087167">
        <ele>665.0</ele>
        <time>2021-07-11T08:49:54.000Z</time>
      </trkpt>
      <trkpt lat="41.37301667" lon="1.13087167">
        <ele>665.0</ele>
        <time>2021-07-11T08:49:55.000Z</time>
      </trkpt>
      <trkpt lat="41.373025" lon="1.130875">
        <ele>665.0</ele>
        <time>2021-07-11T08:49:56.000Z</time>
      </trkpt>
      <trkpt lat="41.37303" lon="1.13087667">
        <ele>665.0</ele>
        <time>2021-07-11T08:49:57.000Z</time>
      </trkpt>
      <trkpt lat="41.37303333" lon="1.13087833">
        <ele>665.0</ele>
        <time>2021-07-11T08:49:58.000Z</time>
      </trkpt>
      <trkpt lat="41.37303667" lon="1.13088167">
        <ele>665.0</ele>
        <time>2021-07-11T08:49:59.000Z</time>
      </trkpt>
      <trkpt lat="41.37303667" lon="1.13088667">
        <ele>665.0</ele>
        <time>2021-07-11T08:50:00.000Z</time>
      </trkpt>
      <trkpt lat="41.37303833" lon="1.13088833">
        <ele>665.0</ele>
        <time>2021-07-11T08:50:01.000Z</time>
      </trkpt>
      <trkpt lat="41.37304167" lon="1.13088333">
        <ele>664.0</ele>
        <time>2021-07-11T08:50:02.000Z</time>
      </trkpt>
      <trkpt lat="41.37304833" lon="1.13087667">
        <ele>664.0</ele>
        <time>2021-07-11T08:50:03.000Z</time>
      </trkpt>
      <trkpt lat="41.373055" lon="1.130865">
        <ele>664.0</ele>
        <time>2021-07-11T08:50:04.000Z</time>
      </trkpt>
      <trkpt lat="41.37306167" lon="1.13085">
        <ele>664.0</ele>
        <time>2021-07-11T08:50:05.000Z</time>
      </trkpt>
      <trkpt lat="41.37306833" lon="1.13084">
        <ele>664.0</ele>
        <time>2021-07-11T08:50:06.000Z</time>
      </trkpt>
      <trkpt lat="41.37307333" lon="1.13083167">
        <ele>664.0</ele>
        <time>2021-07-11T08:50:07.000Z</time>
      </trkpt>
      <trkpt lat="41.37308" lon="1.13082667">
        <ele>664.0</ele>
        <time>2021-07-11T08:50:08.000Z</time>
      </trkpt>
      <trkpt lat="41.373085" lon="1.13081833">
        <ele>664.0</ele>
        <time>2021-07-11T08:50:09.000Z</time>
      </trkpt>
      <trkpt lat="41.37308833" lon="1.13081333">
        <ele>664.0</ele>
        <time>2021-07-11T08:50:10.000Z</time>
      </trkpt>
      <trkpt lat="41.37309" lon="1.13081">
        <ele>664.0</ele>
        <time>2021-07-11T08:50:11.000Z</time>
      </trkpt>
      <trkpt lat="41.37309167" lon="1.13080667">
        <ele>664.0</ele>
        <time>2021-07-11T08:50:12.000Z</time>
      </trkpt>
      <trkpt lat="41.37309333" lon="1.13080167">
        <ele>664.0</ele>
        <time>2021-07-11T08:50:13.000Z</time>
      </trkpt>
      <trkpt lat="41.37309833" lon="1.13079833">
        <ele>664.0</ele>
        <time>2021-07-11T08:50:14.000Z</time>
      </trkpt>
      <trkpt lat="41.37310167" lon="1.130795">
        <ele>664.0</ele>
        <time>2021-07-11T08:50:15.000Z</time>
      </trkpt>
      <trkpt lat="41.37310333" lon="1.13079667">
        <ele>663.0</ele>
        <time>2021-07-11T08:50:16.000Z</time>
      </trkpt>
      <trkpt lat="41.37310333" lon="1.1308">
        <ele>663.0</ele>
        <time>2021-07-11T08:50:17.000Z</time>
      </trkpt>
      <trkpt lat="41.373105" lon="1.13080833">
        <ele>663.0</ele>
        <time>2021-07-11T08:50:18.000Z</time>
      </trkpt>
      <trkpt lat="41.37310333" lon="1.13081833">
        <ele>663.0</ele>
        <time>2021-07-11T08:50:19.000Z</time>
      </trkpt>
      <trkpt lat="41.3731" lon="1.13082667">
        <ele>663.0</ele>
        <time>2021-07-11T08:50:20.000Z</time>
      </trkpt>
      <trkpt lat="41.37309333" lon="1.130835">
        <ele>663.0</ele>
        <time>2021-07-11T08:50:21.000Z</time>
      </trkpt>
      <trkpt lat="41.37309" lon="1.130845">
        <ele>663.0</ele>
        <time>2021-07-11T08:50:22.000Z</time>
      </trkpt>
      <trkpt lat="41.373085" lon="1.13086">
        <ele>663.0</ele>
        <time>2021-07-11T08:50:23.000Z</time>
      </trkpt>
      <trkpt lat="41.37307833" lon="1.13086833">
        <ele>663.0</ele>
        <time>2021-07-11T08:50:24.000Z</time>
      </trkpt>
      <trkpt lat="41.37307" lon="1.13088167">
        <ele>663.0</ele>
        <time>2021-07-11T08:50:25.000Z</time>
      </trkpt>
      <trkpt lat="41.37306333" lon="1.13089167">
        <ele>663.0</ele>
        <time>2021-07-11T08:50:26.000Z</time>
      </trkpt>
      <trkpt lat="41.37305667" lon="1.13090167">
        <ele>663.0</ele>
        <time>2021-07-11T08:50:27.000Z</time>
      </trkpt>
      <trkpt lat="41.37305167" lon="1.1309">
        <ele>663.0</ele>
        <time>2021-07-11T08:50:28.000Z</time>
      </trkpt>
      <trkpt lat="41.37305167" lon="1.13090167">
        <ele>663.0</ele>
        <time>2021-07-11T08:50:29.000Z</time>
      </trkpt>
      <trkpt lat="41.37305167" lon="1.13090167">
        <ele>663.0</ele>
        <time>2021-07-11T08:50:30.000Z</time>
      </trkpt>
      <trkpt lat="41.37305333" lon="1.130905">
        <ele>663.0</ele>
        <time>2021-07-11T08:50:31.000Z</time>
      </trkpt>
      <trkpt lat="41.37305667" lon="1.13090833">
        <ele>663.0</ele>
        <time>2021-07-11T08:50:32.000Z</time>
      </trkpt>
      <trkpt lat="41.37305833" lon="1.13091333">
        <ele>663.0</ele>
        <time>2021-07-11T08:50:33.000Z</time>
      </trkpt>
      <trkpt lat="41.37306167" lon="1.13092167">
        <ele>663.0</ele>
        <time>2021-07-11T08:50:34.000Z</time>
      </trkpt>
      <trkpt lat="41.37306667" lon="1.130935">
        <ele>663.0</ele>
        <time>2021-07-11T08:50:35.000Z</time>
      </trkpt>
      <trkpt lat="41.37307167" lon="1.13094833">
        <ele>662.0</ele>
        <time>2021-07-11T08:50:36.000Z</time>
      </trkpt>
      <trkpt lat="41.37307833" lon="1.13095833">
        <ele>662.0</ele>
        <time>2021-07-11T08:50:37.000Z</time>
      </trkpt>
      <trkpt lat="41.373085" lon="1.13097167">
        <ele>662.0</ele>
        <time>2021-07-11T08:50:38.000Z</time>
      </trkpt>
      <trkpt lat="41.37309333" lon="1.13098667">
        <ele>662.0</ele>
        <time>2021-07-11T08:50:39.000Z</time>
      </trkpt>
      <trkpt lat="41.37310333" lon="1.131">
        <ele>662.0</ele>
        <time>2021-07-11T08:50:40.000Z</time>
      </trkpt>
      <trkpt lat="41.37311167" lon="1.131015">
        <ele>662.0</ele>
        <time>2021-07-11T08:50:41.000Z</time>
      </trkpt>
      <trkpt lat="41.37312167" lon="1.13103">
        <ele>662.0</ele>
        <time>2021-07-11T08:50:42.000Z</time>
      </trkpt>
      <trkpt lat="41.37312667" lon="1.13104333">
        <ele>662.0</ele>
        <time>2021-07-11T08:50:43.000Z</time>
      </trkpt>
      <trkpt lat="41.37313333" lon="1.13105667">
        <ele>661.0</ele>
        <time>2021-07-11T08:50:44.000Z</time>
      </trkpt>
      <trkpt lat="41.37313667" lon="1.13107">
        <ele>661.0</ele>
        <time>2021-07-11T08:50:45.000Z</time>
      </trkpt>
      <trkpt lat="41.37313833" lon="1.13108833">
        <ele>661.0</ele>
        <time>2021-07-11T08:50:46.000Z</time>
      </trkpt>
      <trkpt lat="41.37314333" lon="1.131105">
        <ele>661.0</ele>
        <time>2021-07-11T08:50:47.000Z</time>
      </trkpt>
      <trkpt lat="41.373145" lon="1.13112167">
        <ele>661.0</ele>
        <time>2021-07-11T08:50:48.000Z</time>
      </trkpt>
      <trkpt lat="41.373145" lon="1.13113667">
        <ele>661.0</ele>
        <time>2021-07-11T08:50:49.000Z</time>
      </trkpt>
      <trkpt lat="41.373145" lon="1.13114667">
        <ele>661.0</ele>
        <time>2021-07-11T08:50:50.000Z</time>
      </trkpt>
      <trkpt lat="41.37314667" lon="1.13115833">
        <ele>661.0</ele>
        <time>2021-07-11T08:50:51.000Z</time>
      </trkpt>
      <trkpt lat="41.37314833" lon="1.13117">
        <ele>661.0</ele>
        <time>2021-07-11T08:50:52.000Z</time>
      </trkpt>
      <trkpt lat="41.37315333" lon="1.13118333">
        <ele>661.0</ele>
        <time>2021-07-11T08:50:53.000Z</time>
      </trkpt>
      <trkpt lat="41.37316" lon="1.13120167">
        <ele>661.0</ele>
        <time>2021-07-11T08:50:54.000Z</time>
      </trkpt>
      <trkpt lat="41.37316333" lon="1.13121667">
        <ele>661.0</ele>
        <time>2021-07-11T08:50:55.000Z</time>
      </trkpt>
      <trkpt lat="41.37316667" lon="1.13123333">
        <ele>661.0</ele>
        <time>2021-07-11T08:50:56.000Z</time>
      </trkpt>
      <trkpt lat="41.37317167" lon="1.13124833">
        <ele>661.0</ele>
        <time>2021-07-11T08:50:57.000Z</time>
      </trkpt>
      <trkpt lat="41.37317667" lon="1.13126167">
        <ele>660.0</ele>
        <time>2021-07-11T08:50:58.000Z</time>
      </trkpt>
      <trkpt lat="41.37318333" lon="1.13127833">
        <ele>660.0</ele>
        <time>2021-07-11T08:50:59.000Z</time>
      </trkpt>
      <trkpt lat="41.37318833" lon="1.131295">
        <ele>660.0</ele>
        <time>2021-07-11T08:51:00.000Z</time>
      </trkpt>
      <trkpt lat="41.37319" lon="1.131315">
        <ele>660.0</ele>
        <time>2021-07-11T08:51:01.000Z</time>
      </trkpt>
      <trkpt lat="41.37319" lon="1.131335">
        <ele>660.0</ele>
        <time>2021-07-11T08:51:02.000Z</time>
      </trkpt>
      <trkpt lat="41.37318833" lon="1.131355">
        <ele>660.0</ele>
        <time>2021-07-11T08:51:03.000Z</time>
      </trkpt>
      <trkpt lat="41.37318667" lon="1.13137167">
        <ele>660.0</ele>
        <time>2021-07-11T08:51:04.000Z</time>
      </trkpt>
      <trkpt lat="41.37318833" lon="1.13139">
        <ele>660.0</ele>
        <time>2021-07-11T08:51:05.000Z</time>
      </trkpt>
      <trkpt lat="41.37318833" lon="1.131405">
        <ele>660.0</ele>
        <time>2021-07-11T08:51:06.000Z</time>
      </trkpt>
      <trkpt lat="41.37318" lon="1.13141333">
        <ele>660.0</ele>
        <time>2021-07-11T08:51:07.000Z</time>
      </trkpt>
      <trkpt lat="41.373175" lon="1.13142167">
        <ele>660.0</ele>
        <time>2021-07-11T08:51:08.000Z</time>
      </trkpt>
      <trkpt lat="41.37317" lon="1.13143">
        <ele>660.0</ele>
        <time>2021-07-11T08:51:09.000Z</time>
      </trkpt>
      <trkpt lat="41.37316667" lon="1.131445">
        <ele>659.0</ele>
        <time>2021-07-11T08:51:10.000Z</time>
      </trkpt>
      <trkpt lat="41.373165" lon="1.13146">
        <ele>659.0</ele>
        <time>2021-07-11T08:51:11.000Z</time>
      </trkpt>
      <trkpt lat="41.373165" lon="1.13148">
        <ele>659.0</ele>
        <time>2021-07-11T08:51:12.000Z</time>
      </trkpt>
      <trkpt lat="41.37316333" lon="1.13149667">
        <ele>659.0</ele>
        <time>2021-07-11T08:51:13.000Z</time>
      </trkpt>
      <trkpt lat="41.37316167" lon="1.13151333">
        <ele>659.0</ele>
        <time>2021-07-11T08:51:14.000Z</time>
      </trkpt>
      <trkpt lat="41.37316167" lon="1.13152667">
        <ele>659.0</ele>
        <time>2021-07-11T08:51:15.000Z</time>
      </trkpt>
      <trkpt lat="41.37316167" lon="1.13154">
        <ele>659.0</ele>
        <time>2021-07-11T08:51:16.000Z</time>
      </trkpt>
      <trkpt lat="41.37316" lon="1.13155167">
        <ele>659.0</ele>
        <time>2021-07-11T08:51:17.000Z</time>
      </trkpt>
      <trkpt lat="41.37315667" lon="1.13155667">
        <ele>658.0</ele>
        <time>2021-07-11T08:51:18.000Z</time>
      </trkpt>
      <trkpt lat="41.37315333" lon="1.13155833">
        <ele>658.0</ele>
        <time>2021-07-11T08:51:19.000Z</time>
      </trkpt>
      <trkpt lat="41.37315667" lon="1.13156333">
        <ele>658.0</ele>
        <time>2021-07-11T08:51:20.000Z</time>
      </trkpt>
      <trkpt lat="41.37315667" lon="1.13157">
        <ele>658.0</ele>
        <time>2021-07-11T08:51:21.000Z</time>
      </trkpt>
      <trkpt lat="41.373155" lon="1.131575">
        <ele>658.0</ele>
        <time>2021-07-11T08:51:22.000Z</time>
      </trkpt>
      <trkpt lat="41.37315333" lon="1.13158167">
        <ele>658.0</ele>
        <time>2021-07-11T08:51:23.000Z</time>
      </trkpt>
      <trkpt lat="41.373155" lon="1.13158667">
        <ele>657.0</ele>
        <time>2021-07-11T08:51:24.000Z</time>
      </trkpt>
      <trkpt lat="41.373155" lon="1.13158833">
        <ele>657.0</ele>
        <time>2021-07-11T08:51:25.000Z</time>
      </trkpt>
      <trkpt lat="41.37315833" lon="1.13158833">
        <ele>657.0</ele>
        <time>2021-07-11T08:51:26.000Z</time>
      </trkpt>
      <trkpt lat="41.373165" lon="1.13159167">
        <ele>657.0</ele>
        <time>2021-07-11T08:51:27.000Z</time>
      </trkpt>
      <trkpt lat="41.37317333" lon="1.13160167">
        <ele>657.0</ele>
        <time>2021-07-11T08:51:28.000Z</time>
      </trkpt>
      <trkpt lat="41.37318" lon="1.13161333">
        <ele>657.0</ele>
        <time>2021-07-11T08:51:29.000Z</time>
      </trkpt>
      <trkpt lat="41.37318833" lon="1.13162333">
        <ele>656.0</ele>
        <time>2021-07-11T08:51:30.000Z</time>
      </trkpt>
      <trkpt lat="41.373195" lon="1.13163833">
        <ele>656.0</ele>
        <time>2021-07-11T08:51:31.000Z</time>
      </trkpt>
      <trkpt lat="41.37320167" lon="1.13165333">
        <ele>656.0</ele>
        <time>2021-07-11T08:51:32.000Z</time>
      </trkpt>
      <trkpt lat="41.37320833" lon="1.13166667">
        <ele>656.0</ele>
        <time>2021-07-11T08:51:33.000Z</time>
      </trkpt>
      <trkpt lat="41.373215" lon="1.13167667">
        <ele>656.0</ele>
        <time>2021-07-11T08:51:34.000Z</time>
      </trkpt>
      <trkpt lat="41.37322167" lon="1.13168667">
        <ele>656.0</ele>
        <time>2021-07-11T08:51:35.000Z</time>
      </trkpt>
      <trkpt lat="41.37322833" lon="1.13169833">
        <ele>656.0</ele>
        <time>2021-07-11T08:51:36.000Z</time>
      </trkpt>
      <trkpt lat="41.37323" lon="1.13171">
        <ele>656.0</ele>
        <time>2021-07-11T08:51:37.000Z</time>
      </trkpt>
      <trkpt lat="41.37323167" lon="1.13172">
        <ele>656.0</ele>
        <time>2021-07-11T08:51:38.000Z</time>
      </trkpt>
      <trkpt lat="41.37323" lon="1.13173167">
        <ele>656.0</ele>
        <time>2021-07-11T08:51:39.000Z</time>
      </trkpt>
      <trkpt lat="41.37322833" lon="1.131745">
        <ele>655.0</ele>
        <time>2021-07-11T08:51:40.000Z</time>
      </trkpt>
      <trkpt lat="41.373225" lon="1.13176167">
        <ele>655.0</ele>
        <time>2021-07-11T08:51:41.000Z</time>
      </trkpt>
      <trkpt lat="41.37322333" lon="1.13178333">
        <ele>655.0</ele>
        <time>2021-07-11T08:51:42.000Z</time>
      </trkpt>
      <trkpt lat="41.37322167" lon="1.131805">
        <ele>655.0</ele>
        <time>2021-07-11T08:51:43.000Z</time>
      </trkpt>
      <trkpt lat="41.37321667" lon="1.13183">
        <ele>655.0</ele>
        <time>2021-07-11T08:51:44.000Z</time>
      </trkpt>
      <trkpt lat="41.37320833" lon="1.13185">
        <ele>655.0</ele>
        <time>2021-07-11T08:51:45.000Z</time>
      </trkpt>
      <trkpt lat="41.37320167" lon="1.13186833">
        <ele>654.0</ele>
        <time>2021-07-11T08:51:46.000Z</time>
      </trkpt>
      <trkpt lat="41.373195" lon="1.13188333">
        <ele>654.0</ele>
        <time>2021-07-11T08:51:47.000Z</time>
      </trkpt>
      <trkpt lat="41.37318833" lon="1.13189667">
        <ele>654.0</ele>
        <time>2021-07-11T08:51:48.000Z</time>
      </trkpt>
      <trkpt lat="41.373185" lon="1.131915">
        <ele>654.0</ele>
        <time>2021-07-11T08:51:49.000Z</time>
      </trkpt>
      <trkpt lat="41.37318167" lon="1.13193333">
        <ele>654.0</ele>
        <time>2021-07-11T08:51:50.000Z</time>
      </trkpt>
      <trkpt lat="41.37318667" lon="1.13194833">
        <ele>654.0</ele>
        <time>2021-07-11T08:51:51.000Z</time>
      </trkpt>
      <trkpt lat="41.37319333" lon="1.13196167">
        <ele>654.0</ele>
        <time>2021-07-11T08:51:52.000Z</time>
      </trkpt>
      <trkpt lat="41.37319667" lon="1.13197667">
        <ele>653.0</ele>
        <time>2021-07-11T08:51:53.000Z</time>
      </trkpt>
      <trkpt lat="41.3732" lon="1.13198833">
        <ele>653.0</ele>
        <time>2021-07-11T08:51:54.000Z</time>
      </trkpt>
      <trkpt lat="41.3732" lon="1.13199667">
        <ele>653.0</ele>
        <time>2021-07-11T08:51:55.000Z</time>
      </trkpt>
      <trkpt lat="41.3732" lon="1.13200833">
        <ele>653.0</ele>
        <time>2021-07-11T08:51:56.000Z</time>
      </trkpt>
      <trkpt lat="41.3732" lon="1.13201833">
        <ele>653.0</ele>
        <time>2021-07-11T08:51:57.000Z</time>
      </trkpt>
      <trkpt lat="41.37319833" lon="1.13203">
        <ele>653.0</ele>
        <time>2021-07-11T08:51:58.000Z</time>
      </trkpt>
      <trkpt lat="41.373195" lon="1.13204333">
        <ele>653.0</ele>
        <time>2021-07-11T08:51:59.000Z</time>
      </trkpt>
      <trkpt lat="41.37319" lon="1.13206">
        <ele>653.0</ele>
        <time>2021-07-11T08:52:00.000Z</time>
      </trkpt>
      <trkpt lat="41.373185" lon="1.13207833">
        <ele>652.0</ele>
        <time>2021-07-11T08:52:01.000Z</time>
      </trkpt>
      <trkpt lat="41.37318" lon="1.13209">
        <ele>652.0</ele>
        <time>2021-07-11T08:52:02.000Z</time>
      </trkpt>
      <trkpt lat="41.37317833" lon="1.13210667">
        <ele>652.0</ele>
        <time>2021-07-11T08:52:03.000Z</time>
      </trkpt>
      <trkpt lat="41.37317333" lon="1.132125">
        <ele>651.0</ele>
        <time>2021-07-11T08:52:04.000Z</time>
      </trkpt>
      <trkpt lat="41.37317167" lon="1.13214333">
        <ele>651.0</ele>
        <time>2021-07-11T08:52:05.000Z</time>
      </trkpt>
      <trkpt lat="41.37316667" lon="1.13216333">
        <ele>651.0</ele>
        <time>2021-07-11T08:52:06.000Z</time>
      </trkpt>
      <trkpt lat="41.37316167" lon="1.13218167">
        <ele>651.0</ele>
        <time>2021-07-11T08:52:07.000Z</time>
      </trkpt>
      <trkpt lat="41.37315833" lon="1.13219833">
        <ele>650.0</ele>
        <time>2021-07-11T08:52:08.000Z</time>
      </trkpt>
      <trkpt lat="41.37315667" lon="1.132215">
        <ele>650.0</ele>
        <time>2021-07-11T08:52:09.000Z</time>
      </trkpt>
      <trkpt lat="41.37315667" lon="1.13223333">
        <ele>650.0</ele>
        <time>2021-07-11T08:52:10.000Z</time>
      </trkpt>
      <trkpt lat="41.37315667" lon="1.13225167">
        <ele>650.0</ele>
        <time>2021-07-11T08:52:11.000Z</time>
      </trkpt>
      <trkpt lat="41.373155" lon="1.13227">
        <ele>650.0</ele>
        <time>2021-07-11T08:52:12.000Z</time>
      </trkpt>
      <trkpt lat="41.37315167" lon="1.13228667">
        <ele>650.0</ele>
        <time>2021-07-11T08:52:13.000Z</time>
      </trkpt>
      <trkpt lat="41.37314667" lon="1.13229833">
        <ele>649.0</ele>
        <time>2021-07-11T08:52:14.000Z</time>
      </trkpt>
      <trkpt lat="41.37314333" lon="1.13231167">
        <ele>649.0</ele>
        <time>2021-07-11T08:52:15.000Z</time>
      </trkpt>
      <trkpt lat="41.37313833" lon="1.13232333">
        <ele>649.0</ele>
        <time>2021-07-11T08:52:16.000Z</time>
      </trkpt>
      <trkpt lat="41.37313833" lon="1.13233167">
        <ele>649.0</ele>
        <time>2021-07-11T08:52:17.000Z</time>
      </trkpt>
      <trkpt lat="41.37313667" lon="1.13233667">
        <ele>649.0</ele>
        <time>2021-07-11T08:52:18.000Z</time>
      </trkpt>
      <trkpt lat="41.37313167" lon="1.13234167">
        <ele>649.0</ele>
        <time>2021-07-11T08:52:19.000Z</time>
      </trkpt>
      <trkpt lat="41.37313" lon="1.132355">
        <ele>649.0</ele>
        <time>2021-07-11T08:52:20.000Z</time>
      </trkpt>
      <trkpt lat="41.37313333" lon="1.13236667">
        <ele>649.0</ele>
        <time>2021-07-11T08:52:21.000Z</time>
      </trkpt>
      <trkpt lat="41.37313167" lon="1.13238167">
        <ele>649.0</ele>
        <time>2021-07-11T08:52:22.000Z</time>
      </trkpt>
      <trkpt lat="41.373135" lon="1.13239667">
        <ele>649.0</ele>
        <time>2021-07-11T08:52:23.000Z</time>
      </trkpt>
      <trkpt lat="41.37313833" lon="1.13240667">
        <ele>649.0</ele>
        <time>2021-07-11T08:52:24.000Z</time>
      </trkpt>
      <trkpt lat="41.37314" lon="1.13241667">
        <ele>649.0</ele>
        <time>2021-07-11T08:52:25.000Z</time>
      </trkpt>
      <trkpt lat="41.37314333" lon="1.13242667">
        <ele>649.0</ele>
        <time>2021-07-11T08:52:26.000Z</time>
      </trkpt>
      <trkpt lat="41.373145" lon="1.13243667">
        <ele>649.0</ele>
        <time>2021-07-11T08:52:27.000Z</time>
      </trkpt>
      <trkpt lat="41.37314667" lon="1.13244333">
        <ele>648.0</ele>
        <time>2021-07-11T08:52:28.000Z</time>
      </trkpt>
      <trkpt lat="41.37315" lon="1.13245167">
        <ele>648.0</ele>
        <time>2021-07-11T08:52:29.000Z</time>
      </trkpt>
      <trkpt lat="41.37315167" lon="1.13246333">
        <ele>648.0</ele>
        <time>2021-07-11T08:52:30.000Z</time>
      </trkpt>
      <trkpt lat="41.37315167" lon="1.13247">
        <ele>648.0</ele>
        <time>2021-07-11T08:52:31.000Z</time>
      </trkpt>
      <trkpt lat="41.37315" lon="1.13248">
        <ele>648.0</ele>
        <time>2021-07-11T08:52:32.000Z</time>
      </trkpt>
      <trkpt lat="41.37315" lon="1.13248833">
        <ele>648.0</ele>
        <time>2021-07-11T08:52:33.000Z</time>
      </trkpt>
      <trkpt lat="41.37315167" lon="1.13249833">
        <ele>648.0</ele>
        <time>2021-07-11T08:52:34.000Z</time>
      </trkpt>
      <trkpt lat="41.37315333" lon="1.13251333">
        <ele>648.0</ele>
        <time>2021-07-11T08:52:35.000Z</time>
      </trkpt>
      <trkpt lat="41.37315667" lon="1.13253167">
        <ele>648.0</ele>
        <time>2021-07-11T08:52:36.000Z</time>
      </trkpt>
      <trkpt lat="41.37315833" lon="1.13255167">
        <ele>648.0</ele>
        <time>2021-07-11T08:52:37.000Z</time>
      </trkpt>
      <trkpt lat="41.373155" lon="1.132575">
        <ele>648.0</ele>
        <time>2021-07-11T08:52:38.000Z</time>
      </trkpt>
      <trkpt lat="41.37315333" lon="1.13259833">
        <ele>648.0</ele>
        <time>2021-07-11T08:52:39.000Z</time>
      </trkpt>
      <trkpt lat="41.37315333" lon="1.13261833">
        <ele>648.0</ele>
        <time>2021-07-11T08:52:40.000Z</time>
      </trkpt>
      <trkpt lat="41.37315333" lon="1.132635">
        <ele>648.0</ele>
        <time>2021-07-11T08:52:41.000Z</time>
      </trkpt>
      <trkpt lat="41.37314833" lon="1.13265333">
        <ele>647.0</ele>
        <time>2021-07-11T08:52:42.000Z</time>
      </trkpt>
      <trkpt lat="41.373145" lon="1.13266833">
        <ele>647.0</ele>
        <time>2021-07-11T08:52:43.000Z</time>
      </trkpt>
      <trkpt lat="41.373145" lon="1.13268333">
        <ele>647.0</ele>
        <time>2021-07-11T08:52:44.000Z</time>
      </trkpt>
      <trkpt lat="41.373145" lon="1.13269667">
        <ele>647.0</ele>
        <time>2021-07-11T08:52:45.000Z</time>
      </trkpt>
      <trkpt lat="41.37315" lon="1.13271">
        <ele>647.0</ele>
        <time>2021-07-11T08:52:46.000Z</time>
      </trkpt>
      <trkpt lat="41.373155" lon="1.132725">
        <ele>647.0</ele>
        <time>2021-07-11T08:52:47.000Z</time>
      </trkpt>
      <trkpt lat="41.37315833" lon="1.13274">
        <ele>646.0</ele>
        <time>2021-07-11T08:52:48.000Z</time>
      </trkpt>
      <trkpt lat="41.37315833" lon="1.13275667">
        <ele>646.0</ele>
        <time>2021-07-11T08:52:49.000Z</time>
      </trkpt>
      <trkpt lat="41.37315833" lon="1.13277333">
        <ele>646.0</ele>
        <time>2021-07-11T08:52:50.000Z</time>
      </trkpt>
      <trkpt lat="41.37315833" lon="1.13279167">
        <ele>646.0</ele>
        <time>2021-07-11T08:52:51.000Z</time>
      </trkpt>
      <trkpt lat="41.37315833" lon="1.13280833">
        <ele>646.0</ele>
        <time>2021-07-11T08:52:52.000Z</time>
      </trkpt>
      <trkpt lat="41.37315667" lon="1.13282333">
        <ele>645.0</ele>
        <time>2021-07-11T08:52:53.000Z</time>
      </trkpt>
      <trkpt lat="41.37315333" lon="1.13283667">
        <ele>645.0</ele>
        <time>2021-07-11T08:52:54.000Z</time>
      </trkpt>
      <trkpt lat="41.37315" lon="1.132845">
        <ele>645.0</ele>
        <time>2021-07-11T08:52:55.000Z</time>
      </trkpt>
      <trkpt lat="41.37314667" lon="1.13285833">
        <ele>645.0</ele>
        <time>2021-07-11T08:52:56.000Z</time>
      </trkpt>
      <trkpt lat="41.37314667" lon="1.13287333">
        <ele>645.0</ele>
        <time>2021-07-11T08:52:57.000Z</time>
      </trkpt>
      <trkpt lat="41.37315167" lon="1.13289167">
        <ele>645.0</ele>
        <time>2021-07-11T08:52:58.000Z</time>
      </trkpt>
      <trkpt lat="41.373155" lon="1.13291">
        <ele>644.0</ele>
        <time>2021-07-11T08:52:59.000Z</time>
      </trkpt>
      <trkpt lat="41.37315833" lon="1.13292833">
        <ele>644.0</ele>
        <time>2021-07-11T08:53:00.000Z</time>
      </trkpt>
      <trkpt lat="41.37315667" lon="1.13295">
        <ele>644.0</ele>
        <time>2021-07-11T08:53:01.000Z</time>
      </trkpt>
      <trkpt lat="41.37315333" lon="1.13297">
        <ele>644.0</ele>
        <time>2021-07-11T08:53:02.000Z</time>
      </trkpt>
      <trkpt lat="41.37315167" lon="1.13298667">
        <ele>644.0</ele>
        <time>2021-07-11T08:53:03.000Z</time>
      </trkpt>
      <trkpt lat="41.37315" lon="1.13300167">
        <ele>644.0</ele>
        <time>2021-07-11T08:53:04.000Z</time>
      </trkpt>
      <trkpt lat="41.373145" lon="1.13301167">
        <ele>644.0</ele>
        <time>2021-07-11T08:53:05.000Z</time>
      </trkpt>
      <trkpt lat="41.37313667" lon="1.13302333">
        <ele>643.0</ele>
        <time>2021-07-11T08:53:06.000Z</time>
      </trkpt>
      <trkpt lat="41.37312833" lon="1.13304">
        <ele>643.0</ele>
        <time>2021-07-11T08:53:07.000Z</time>
      </trkpt>
      <trkpt lat="41.373125" lon="1.13305833">
        <ele>643.0</ele>
        <time>2021-07-11T08:53:08.000Z</time>
      </trkpt>
      <trkpt lat="41.37312" lon="1.13307667">
        <ele>643.0</ele>
        <time>2021-07-11T08:53:09.000Z</time>
      </trkpt>
      <trkpt lat="41.37311333" lon="1.13309667">
        <ele>643.0</ele>
        <time>2021-07-11T08:53:10.000Z</time>
      </trkpt>
      <trkpt lat="41.37310833" lon="1.13311667">
        <ele>643.0</ele>
        <time>2021-07-11T08:53:11.000Z</time>
      </trkpt>
      <trkpt lat="41.37310333" lon="1.13313833">
        <ele>642.0</ele>
        <time>2021-07-11T08:53:12.000Z</time>
      </trkpt>
      <trkpt lat="41.37309833" lon="1.13315667">
        <ele>642.0</ele>
        <time>2021-07-11T08:53:13.000Z</time>
      </trkpt>
      <trkpt lat="41.37309333" lon="1.13317167">
        <ele>642.0</ele>
        <time>2021-07-11T08:53:14.000Z</time>
      </trkpt>
      <trkpt lat="41.37308667" lon="1.13318167">
        <ele>642.0</ele>
        <time>2021-07-11T08:53:15.000Z</time>
      </trkpt>
      <trkpt lat="41.37308167" lon="1.13318333">
        <ele>642.0</ele>
        <time>2021-07-11T08:53:16.000Z</time>
      </trkpt>
      <trkpt lat="41.37308" lon="1.13318833">
        <ele>642.0</ele>
        <time>2021-07-11T08:53:17.000Z</time>
      </trkpt>
      <trkpt lat="41.37308167" lon="1.13319667">
        <ele>642.0</ele>
        <time>2021-07-11T08:53:18.000Z</time>
      </trkpt>
      <trkpt lat="41.373085" lon="1.13320833">
        <ele>642.0</ele>
        <time>2021-07-11T08:53:19.000Z</time>
      </trkpt>
      <trkpt lat="41.37308833" lon="1.13322">
        <ele>642.0</ele>
        <time>2021-07-11T08:53:20.000Z</time>
      </trkpt>
      <trkpt lat="41.37309" lon="1.13323333">
        <ele>642.0</ele>
        <time>2021-07-11T08:53:21.000Z</time>
      </trkpt>
      <trkpt lat="41.37309167" lon="1.133245">
        <ele>642.0</ele>
        <time>2021-07-11T08:53:22.000Z</time>
      </trkpt>
      <trkpt lat="41.37309167" lon="1.133255">
        <ele>641.0</ele>
        <time>2021-07-11T08:53:23.000Z</time>
      </trkpt>
      <trkpt lat="41.37309333" lon="1.13326667">
        <ele>641.0</ele>
        <time>2021-07-11T08:53:24.000Z</time>
      </trkpt>
      <trkpt lat="41.37309833" lon="1.13327667">
        <ele>641.0</ele>
        <time>2021-07-11T08:53:25.000Z</time>
      </trkpt>
      <trkpt lat="41.37310167" lon="1.13328667">
        <ele>641.0</ele>
        <time>2021-07-11T08:53:26.000Z</time>
      </trkpt>
      <trkpt lat="41.373105" lon="1.13329667">
        <ele>641.0</ele>
        <time>2021-07-11T08:53:27.000Z</time>
      </trkpt>
      <trkpt lat="41.37310667" lon="1.133305">
        <ele>641.0</ele>
        <time>2021-07-11T08:53:28.000Z</time>
      </trkpt>
      <trkpt lat="41.37311" lon="1.133315">
        <ele>641.0</ele>
        <time>2021-07-11T08:53:29.000Z</time>
      </trkpt>
      <trkpt lat="41.373115" lon="1.133325">
        <ele>641.0</ele>
        <time>2021-07-11T08:53:30.000Z</time>
      </trkpt>
      <trkpt lat="41.37312" lon="1.13333667">
        <ele>641.0</ele>
        <time>2021-07-11T08:53:31.000Z</time>
      </trkpt>
      <trkpt lat="41.37312333" lon="1.13334667">
        <ele>640.0</ele>
        <time>2021-07-11T08:53:32.000Z</time>
      </trkpt>
      <trkpt lat="41.37312333" lon="1.13336">
        <ele>640.0</ele>
        <time>2021-07-11T08:53:33.000Z</time>
      </trkpt>
      <trkpt lat="41.37312167" lon="1.13337667">
        <ele>640.0</ele>
        <time>2021-07-11T08:53:34.000Z</time>
      </trkpt>
      <trkpt lat="41.37311833" lon="1.13339167">
        <ele>640.0</ele>
        <time>2021-07-11T08:53:35.000Z</time>
      </trkpt>
      <trkpt lat="41.373115" lon="1.13341167">
        <ele>640.0</ele>
        <time>2021-07-11T08:53:36.000Z</time>
      </trkpt>
      <trkpt lat="41.373115" lon="1.13343">
        <ele>640.0</ele>
        <time>2021-07-11T08:53:37.000Z</time>
      </trkpt>
      <trkpt lat="41.37311333" lon="1.13344667">
        <ele>640.0</ele>
        <time>2021-07-11T08:53:38.000Z</time>
      </trkpt>
      <trkpt lat="41.37311167" lon="1.13345833">
        <ele>639.0</ele>
        <time>2021-07-11T08:53:39.000Z</time>
      </trkpt>
      <trkpt lat="41.37310833" lon="1.13347">
        <ele>639.0</ele>
        <time>2021-07-11T08:53:40.000Z</time>
      </trkpt>
      <trkpt lat="41.37310667" lon="1.13348167">
        <ele>639.0</ele>
        <time>2021-07-11T08:53:41.000Z</time>
      </trkpt>
      <trkpt lat="41.37310833" lon="1.13349167">
        <ele>639.0</ele>
        <time>2021-07-11T08:53:42.000Z</time>
      </trkpt>
      <trkpt lat="41.37310833" lon="1.13350833">
        <ele>639.0</ele>
        <time>2021-07-11T08:53:43.000Z</time>
      </trkpt>
      <trkpt lat="41.37311" lon="1.13352333">
        <ele>639.0</ele>
        <time>2021-07-11T08:53:44.000Z</time>
      </trkpt>
      <trkpt lat="41.37310833" lon="1.13353833">
        <ele>639.0</ele>
        <time>2021-07-11T08:53:45.000Z</time>
      </trkpt>
      <trkpt lat="41.373105" lon="1.13355">
        <ele>639.0</ele>
        <time>2021-07-11T08:53:46.000Z</time>
      </trkpt>
      <trkpt lat="41.37310167" lon="1.13355833">
        <ele>639.0</ele>
        <time>2021-07-11T08:53:47.000Z</time>
      </trkpt>
      <trkpt lat="41.3731" lon="1.133565">
        <ele>639.0</ele>
        <time>2021-07-11T08:53:48.000Z</time>
      </trkpt>
      <trkpt lat="41.37309833" lon="1.13357">
        <ele>639.0</ele>
        <time>2021-07-11T08:53:49.000Z</time>
      </trkpt>
      <trkpt lat="41.37309833" lon="1.13357833">
        <ele>639.0</ele>
        <time>2021-07-11T08:53:50.000Z</time>
      </trkpt>
      <trkpt lat="41.37309667" lon="1.13359">
        <ele>638.0</ele>
        <time>2021-07-11T08:53:51.000Z</time>
      </trkpt>
      <trkpt lat="41.37309667" lon="1.1336">
        <ele>638.0</ele>
        <time>2021-07-11T08:53:52.000Z</time>
      </trkpt>
      <trkpt lat="41.37310167" lon="1.13361">
        <ele>638.0</ele>
        <time>2021-07-11T08:53:53.000Z</time>
      </trkpt>
      <trkpt lat="41.373105" lon="1.13362">
        <ele>638.0</ele>
        <time>2021-07-11T08:53:54.000Z</time>
      </trkpt>
      <trkpt lat="41.37310667" lon="1.13362667">
        <ele>638.0</ele>
        <time>2021-07-11T08:53:55.000Z</time>
      </trkpt>
      <trkpt lat="41.37310833" lon="1.13363333">
        <ele>638.0</ele>
        <time>2021-07-11T08:53:56.000Z</time>
      </trkpt>
      <trkpt lat="41.37311" lon="1.13364333">
        <ele>638.0</ele>
        <time>2021-07-11T08:53:57.000Z</time>
      </trkpt>
      <trkpt lat="41.37311" lon="1.13365333">
        <ele>637.0</ele>
        <time>2021-07-11T08:53:58.000Z</time>
      </trkpt>
      <trkpt lat="41.37310833" lon="1.13366167">
        <ele>637.0</ele>
        <time>2021-07-11T08:53:59.000Z</time>
      </trkpt>
      <trkpt lat="41.37310833" lon="1.13366333">
        <ele>637.0</ele>
        <time>2021-07-11T08:54:00.000Z</time>
      </trkpt>
      <trkpt lat="41.373105" lon="1.13367167">
        <ele>637.0</ele>
        <time>2021-07-11T08:54:01.000Z</time>
      </trkpt>
      <trkpt lat="41.373105" lon="1.13368">
        <ele>637.0</ele>
        <time>2021-07-11T08:54:02.000Z</time>
      </trkpt>
      <trkpt lat="41.37310667" lon="1.13369">
        <ele>637.0</ele>
        <time>2021-07-11T08:54:03.000Z</time>
      </trkpt>
      <trkpt lat="41.37311333" lon="1.1337">
        <ele>637.0</ele>
        <time>2021-07-11T08:54:04.000Z</time>
      </trkpt>
      <trkpt lat="41.37312333" lon="1.13371">
        <ele>637.0</ele>
        <time>2021-07-11T08:54:05.000Z</time>
      </trkpt>
      <trkpt lat="41.37313167" lon="1.13372333">
        <ele>636.0</ele>
        <time>2021-07-11T08:54:06.000Z</time>
      </trkpt>
      <trkpt lat="41.37313833" lon="1.133735">
        <ele>636.0</ele>
        <time>2021-07-11T08:54:07.000Z</time>
      </trkpt>
      <trkpt lat="41.37314333" lon="1.13374167">
        <ele>636.0</ele>
        <time>2021-07-11T08:54:08.000Z</time>
      </trkpt>
      <trkpt lat="41.37314667" lon="1.13375167">
        <ele>636.0</ele>
        <time>2021-07-11T08:54:09.000Z</time>
      </trkpt>
      <trkpt lat="41.37314667" lon="1.13376333">
        <ele>636.0</ele>
        <time>2021-07-11T08:54:10.000Z</time>
      </trkpt>
      <trkpt lat="41.37314667" lon="1.13377333">
        <ele>636.0</ele>
        <time>2021-07-11T08:54:11.000Z</time>
      </trkpt>
      <trkpt lat="41.37314333" lon="1.13378333">
        <ele>635.0</ele>
        <time>2021-07-11T08:54:12.000Z</time>
      </trkpt>
      <trkpt lat="41.37314" lon="1.13379333">
        <ele>635.0</ele>
        <time>2021-07-11T08:54:13.000Z</time>
      </trkpt>
      <trkpt lat="41.37314" lon="1.133805">
        <ele>635.0</ele>
        <time>2021-07-11T08:54:14.000Z</time>
      </trkpt>
      <trkpt lat="41.37313667" lon="1.13381333">
        <ele>635.0</ele>
        <time>2021-07-11T08:54:15.000Z</time>
      </trkpt>
      <trkpt lat="41.37313333" lon="1.13382333">
        <ele>635.0</ele>
        <time>2021-07-11T08:54:16.000Z</time>
      </trkpt>
      <trkpt lat="41.37312833" lon="1.13383">
        <ele>635.0</ele>
        <time>2021-07-11T08:54:17.000Z</time>
      </trkpt>
      <trkpt lat="41.37312667" lon="1.133835">
        <ele>634.0</ele>
        <time>2021-07-11T08:54:18.000Z</time>
      </trkpt>
      <trkpt lat="41.37312833" lon="1.13383833">
        <ele>634.0</ele>
        <time>2021-07-11T08:54:19.000Z</time>
      </trkpt>
      <trkpt lat="41.37313" lon="1.13384">
        <ele>634.0</ele>
        <time>2021-07-11T08:54:20.000Z</time>
      </trkpt>
      <trkpt lat="41.37313" lon="1.13384833">
        <ele>634.0</ele>
        <time>2021-07-11T08:54:21.000Z</time>
      </trkpt>
      <trkpt lat="41.37312833" lon="1.13385833">
        <ele>634.0</ele>
        <time>2021-07-11T08:54:22.000Z</time>
      </trkpt>
      <trkpt lat="41.373125" lon="1.13387">
        <ele>634.0</ele>
        <time>2021-07-11T08:54:23.000Z</time>
      </trkpt>
      <trkpt lat="41.37312" lon="1.13388">
        <ele>633.0</ele>
        <time>2021-07-11T08:54:24.000Z</time>
      </trkpt>
      <trkpt lat="41.373115" lon="1.13389167">
        <ele>633.0</ele>
        <time>2021-07-11T08:54:25.000Z</time>
      </trkpt>
      <trkpt lat="41.37311" lon="1.1339">
        <ele>633.0</ele>
        <time>2021-07-11T08:54:26.000Z</time>
      </trkpt>
      <trkpt lat="41.37310833" lon="1.13390167">
        <ele>633.0</ele>
        <time>2021-07-11T08:54:27.000Z</time>
      </trkpt>
      <trkpt lat="41.37310833" lon="1.13390333">
        <ele>633.0</ele>
        <time>2021-07-11T08:54:28.000Z</time>
      </trkpt>
      <trkpt lat="41.373105" lon="1.13390667">
        <ele>633.0</ele>
        <time>2021-07-11T08:54:29.000Z</time>
      </trkpt>
      <trkpt lat="41.373105" lon="1.13391">
        <ele>633.0</ele>
        <time>2021-07-11T08:54:30.000Z</time>
      </trkpt>
      <trkpt lat="41.37310333" lon="1.13391667">
        <ele>632.0</ele>
        <time>2021-07-11T08:54:31.000Z</time>
      </trkpt>
      <trkpt lat="41.3731" lon="1.13392167">
        <ele>632.0</ele>
        <time>2021-07-11T08:54:32.000Z</time>
      </trkpt>
      <trkpt lat="41.37309667" lon="1.13392833">
        <ele>632.0</ele>
        <time>2021-07-11T08:54:33.000Z</time>
      </trkpt>
      <trkpt lat="41.37309333" lon="1.13393333">
        <ele>632.0</ele>
        <time>2021-07-11T08:54:34.000Z</time>
      </trkpt>
      <trkpt lat="41.37308833" lon="1.13393667">
        <ele>631.0</ele>
        <time>2021-07-11T08:54:35.000Z</time>
      </trkpt>
      <trkpt lat="41.373085" lon="1.13394333">
        <ele>631.0</ele>
        <time>2021-07-11T08:54:36.000Z</time>
      </trkpt>
      <trkpt lat="41.37308" lon="1.13395167">
        <ele>630.0</ele>
        <time>2021-07-11T08:54:37.000Z</time>
      </trkpt>
      <trkpt lat="41.37307167" lon="1.13396333">
        <ele>630.0</ele>
        <time>2021-07-11T08:54:38.000Z</time>
      </trkpt>
      <trkpt lat="41.37306167" lon="1.13397667">
        <ele>630.0</ele>
        <time>2021-07-11T08:54:39.000Z</time>
      </trkpt>
      <trkpt lat="41.37305333" lon="1.13399">
        <ele>629.0</ele>
        <time>2021-07-11T08:54:40.000Z</time>
      </trkpt>
      <trkpt lat="41.373045" lon="1.13400333">
        <ele>629.0</ele>
        <time>2021-07-11T08:54:41.000Z</time>
      </trkpt>
      <trkpt lat="41.373035" lon="1.134015">
        <ele>629.0</ele>
        <time>2021-07-11T08:54:42.000Z</time>
      </trkpt>
      <trkpt lat="41.373025" lon="1.13402667">
        <ele>629.0</ele>
        <time>2021-07-11T08:54:43.000Z</time>
      </trkpt>
      <trkpt lat="41.37301667" lon="1.13403333">
        <ele>629.0</ele>
        <time>2021-07-11T08:54:44.000Z</time>
      </trkpt>
      <trkpt lat="41.37301" lon="1.13404">
        <ele>628.0</ele>
        <time>2021-07-11T08:54:45.000Z</time>
      </trkpt>
      <trkpt lat="41.37300167" lon="1.134045">
        <ele>628.0</ele>
        <time>2021-07-11T08:54:46.000Z</time>
      </trkpt>
      <trkpt lat="41.37299167" lon="1.13405333">
        <ele>628.0</ele>
        <time>2021-07-11T08:54:47.000Z</time>
      </trkpt>
      <trkpt lat="41.37298167" lon="1.13406">
        <ele>627.0</ele>
        <time>2021-07-11T08:54:48.000Z</time>
      </trkpt>
      <trkpt lat="41.37297167" lon="1.134065">
        <ele>627.0</ele>
        <time>2021-07-11T08:54:49.000Z</time>
      </trkpt>
      <trkpt lat="41.37296333" lon="1.13406833">
        <ele>627.0</ele>
        <time>2021-07-11T08:54:50.000Z</time>
      </trkpt>
      <trkpt lat="41.37295333" lon="1.13407167">
        <ele>627.0</ele>
        <time>2021-07-11T08:54:51.000Z</time>
      </trkpt>
      <trkpt lat="41.37295167" lon="1.13407167">
        <ele>627.0</ele>
        <time>2021-07-11T08:54:52.000Z</time>
      </trkpt>
      <trkpt lat="41.37295167" lon="1.13407167">
        <ele>626.0</ele>
        <time>2021-07-11T08:54:53.000Z</time>
      </trkpt>
      <trkpt lat="41.37295" lon="1.13406667">
        <ele>626.0</ele>
        <time>2021-07-11T08:54:54.000Z</time>
      </trkpt>
      <trkpt lat="41.37295167" lon="1.13406">
        <ele>626.0</ele>
        <time>2021-07-11T08:54:55.000Z</time>
      </trkpt>
      <trkpt lat="41.372955" lon="1.134055">
        <ele>626.0</ele>
        <time>2021-07-11T08:54:56.000Z</time>
      </trkpt>
      <trkpt lat="41.372955" lon="1.13405333">
        <ele>626.0</ele>
        <time>2021-07-11T08:54:57.000Z</time>
      </trkpt>
      <trkpt lat="41.37295" lon="1.13405333">
        <ele>626.0</ele>
        <time>2021-07-11T08:54:58.000Z</time>
      </trkpt>
      <trkpt lat="41.37294" lon="1.13405667">
        <ele>626.0</ele>
        <time>2021-07-11T08:54:59.000Z</time>
      </trkpt>
      <trkpt lat="41.37292833" lon="1.13406167">
        <ele>626.0</ele>
        <time>2021-07-11T08:55:00.000Z</time>
      </trkpt>
      <trkpt lat="41.37291833" lon="1.13406833">
        <ele>626.0</ele>
        <time>2021-07-11T08:55:01.000Z</time>
      </trkpt>
      <trkpt lat="41.37290667" lon="1.13407167">
        <ele>626.0</ele>
        <time>2021-07-11T08:55:02.000Z</time>
      </trkpt>
      <trkpt lat="41.37289667" lon="1.13407167">
        <ele>626.0</ele>
        <time>2021-07-11T08:55:03.000Z</time>
      </trkpt>
      <trkpt lat="41.37288667" lon="1.13407167">
        <ele>626.0</ele>
        <time>2021-07-11T08:55:04.000Z</time>
      </trkpt>
      <trkpt lat="41.37287667" lon="1.13407167">
        <ele>626.0</ele>
        <time>2021-07-11T08:55:05.000Z</time>
      </trkpt>
      <trkpt lat="41.37286833" lon="1.13407">
        <ele>626.0</ele>
        <time>2021-07-11T08:55:06.000Z</time>
      </trkpt>
      <trkpt lat="41.372865" lon="1.13406667">
        <ele>626.0</ele>
        <time>2021-07-11T08:55:07.000Z</time>
      </trkpt>
      <trkpt lat="41.37286167" lon="1.13406833">
        <ele>626.0</ele>
        <time>2021-07-11T08:55:08.000Z</time>
      </trkpt>
      <trkpt lat="41.37285833" lon="1.13407">
        <ele>626.0</ele>
        <time>2021-07-11T08:55:09.000Z</time>
      </trkpt>
      <trkpt lat="41.37285333" lon="1.13406667">
        <ele>626.0</ele>
        <time>2021-07-11T08:55:10.000Z</time>
      </trkpt>
      <trkpt lat="41.37284833" lon="1.13406333">
        <ele>626.0</ele>
        <time>2021-07-11T08:55:11.000Z</time>
      </trkpt>
      <trkpt lat="41.37284333" lon="1.13406167">
        <ele>626.0</ele>
        <time>2021-07-11T08:55:12.000Z</time>
      </trkpt>
      <trkpt lat="41.37283833" lon="1.13406167">
        <ele>626.0</ele>
        <time>2021-07-11T08:55:13.000Z</time>
      </trkpt>
      <trkpt lat="41.37283333" lon="1.13406">
        <ele>626.0</ele>
        <time>2021-07-11T08:55:14.000Z</time>
      </trkpt>
      <trkpt lat="41.37282833" lon="1.13406">
        <ele>626.0</ele>
        <time>2021-07-11T08:55:15.000Z</time>
      </trkpt>
      <trkpt lat="41.372825" lon="1.13406167">
        <ele>626.0</ele>
        <time>2021-07-11T08:55:16.000Z</time>
      </trkpt>
      <trkpt lat="41.37282" lon="1.13406833">
        <ele>626.0</ele>
        <time>2021-07-11T08:55:17.000Z</time>
      </trkpt>
      <trkpt lat="41.37281167" lon="1.13407833">
        <ele>626.0</ele>
        <time>2021-07-11T08:55:18.000Z</time>
      </trkpt>
      <trkpt lat="41.3728" lon="1.13409">
        <ele>626.0</ele>
        <time>2021-07-11T08:55:19.000Z</time>
      </trkpt>
      <trkpt lat="41.37279" lon="1.13410167">
        <ele>626.0</ele>
        <time>2021-07-11T08:55:20.000Z</time>
      </trkpt>
      <trkpt lat="41.37278" lon="1.13411">
        <ele>626.0</ele>
        <time>2021-07-11T08:55:21.000Z</time>
      </trkpt>
      <trkpt lat="41.37277" lon="1.13412167">
        <ele>626.0</ele>
        <time>2021-07-11T08:55:22.000Z</time>
      </trkpt>
      <trkpt lat="41.37275833" lon="1.13412833">
        <ele>626.0</ele>
        <time>2021-07-11T08:55:23.000Z</time>
      </trkpt>
      <trkpt lat="41.37275167" lon="1.134135">
        <ele>626.0</ele>
        <time>2021-07-11T08:55:24.000Z</time>
      </trkpt>
      <trkpt lat="41.37274667" lon="1.134135">
        <ele>626.0</ele>
        <time>2021-07-11T08:55:25.000Z</time>
      </trkpt>
      <trkpt lat="41.37274333" lon="1.13413667">
        <ele>626.0</ele>
        <time>2021-07-11T08:55:26.000Z</time>
      </trkpt>
      <trkpt lat="41.37274" lon="1.13413667">
        <ele>626.0</ele>
        <time>2021-07-11T08:55:27.000Z</time>
      </trkpt>
      <trkpt lat="41.37273333" lon="1.13413667">
        <ele>626.0</ele>
        <time>2021-07-11T08:55:28.000Z</time>
      </trkpt>
      <trkpt lat="41.37272667" lon="1.13413667">
        <ele>626.0</ele>
        <time>2021-07-11T08:55:29.000Z</time>
      </trkpt>
      <trkpt lat="41.37271833" lon="1.13413667">
        <ele>626.0</ele>
        <time>2021-07-11T08:55:30.000Z</time>
      </trkpt>
      <trkpt lat="41.37271167" lon="1.13413833">
        <ele>626.0</ele>
        <time>2021-07-11T08:55:31.000Z</time>
      </trkpt>
      <trkpt lat="41.37270667" lon="1.134145">
        <ele>626.0</ele>
        <time>2021-07-11T08:55:32.000Z</time>
      </trkpt>
      <trkpt lat="41.37270167" lon="1.13415333">
        <ele>626.0</ele>
        <time>2021-07-11T08:55:33.000Z</time>
      </trkpt>
      <trkpt lat="41.37269667" lon="1.13416">
        <ele>626.0</ele>
        <time>2021-07-11T08:55:34.000Z</time>
      </trkpt>
      <trkpt lat="41.37269167" lon="1.13417">
        <ele>626.0</ele>
        <time>2021-07-11T08:55:35.000Z</time>
      </trkpt>
      <trkpt lat="41.37268833" lon="1.13418167">
        <ele>626.0</ele>
        <time>2021-07-11T08:55:36.000Z</time>
      </trkpt>
      <trkpt lat="41.372685" lon="1.13419333">
        <ele>625.0</ele>
        <time>2021-07-11T08:55:37.000Z</time>
      </trkpt>
      <trkpt lat="41.37268167" lon="1.134205">
        <ele>625.0</ele>
        <time>2021-07-11T08:55:38.000Z</time>
      </trkpt>
      <trkpt lat="41.37267667" lon="1.134215">
        <ele>625.0</ele>
        <time>2021-07-11T08:55:39.000Z</time>
      </trkpt>
      <trkpt lat="41.37267333" lon="1.13422833">
        <ele>625.0</ele>
        <time>2021-07-11T08:55:40.000Z</time>
      </trkpt>
      <trkpt lat="41.37266833" lon="1.13424167">
        <ele>625.0</ele>
        <time>2021-07-11T08:55:41.000Z</time>
      </trkpt>
      <trkpt lat="41.37266167" lon="1.13425833">
        <ele>625.0</ele>
        <time>2021-07-11T08:55:42.000Z</time>
      </trkpt>
      <trkpt lat="41.372655" lon="1.13427167">
        <ele>625.0</ele>
        <time>2021-07-11T08:55:43.000Z</time>
      </trkpt>
      <trkpt lat="41.372645" lon="1.134285">
        <ele>625.0</ele>
        <time>2021-07-11T08:55:44.000Z</time>
      </trkpt>
      <trkpt lat="41.37263667" lon="1.134295">
        <ele>625.0</ele>
        <time>2021-07-11T08:55:45.000Z</time>
      </trkpt>
      <trkpt lat="41.372625" lon="1.134305">
        <ele>624.0</ele>
        <time>2021-07-11T08:55:46.000Z</time>
      </trkpt>
      <trkpt lat="41.37261667" lon="1.134315">
        <ele>624.0</ele>
        <time>2021-07-11T08:55:47.000Z</time>
      </trkpt>
      <trkpt lat="41.372605" lon="1.13433">
        <ele>624.0</ele>
        <time>2021-07-11T08:55:48.000Z</time>
      </trkpt>
      <trkpt lat="41.37259333" lon="1.13434667">
        <ele>624.0</ele>
        <time>2021-07-11T08:55:49.000Z</time>
      </trkpt>
      <trkpt lat="41.37258333" lon="1.13436">
        <ele>624.0</ele>
        <time>2021-07-11T08:55:50.000Z</time>
      </trkpt>
      <trkpt lat="41.372575" lon="1.134375">
        <ele>624.0</ele>
        <time>2021-07-11T08:55:51.000Z</time>
      </trkpt>
      <trkpt lat="41.37256833" lon="1.13438833">
        <ele>624.0</ele>
        <time>2021-07-11T08:55:52.000Z</time>
      </trkpt>
      <trkpt lat="41.37256333" lon="1.13440167">
        <ele>624.0</ele>
        <time>2021-07-11T08:55:53.000Z</time>
      </trkpt>
      <trkpt lat="41.37255667" lon="1.13441333">
        <ele>624.0</ele>
        <time>2021-07-11T08:55:54.000Z</time>
      </trkpt>
      <trkpt lat="41.37255" lon="1.13443">
        <ele>624.0</ele>
        <time>2021-07-11T08:55:55.000Z</time>
      </trkpt>
      <trkpt lat="41.37254" lon="1.13444833">
        <ele>624.0</ele>
        <time>2021-07-11T08:55:56.000Z</time>
      </trkpt>
      <trkpt lat="41.37252667" lon="1.13446333">
        <ele>624.0</ele>
        <time>2021-07-11T08:55:57.000Z</time>
      </trkpt>
      <trkpt lat="41.37251167" lon="1.134475">
        <ele>624.0</ele>
        <time>2021-07-11T08:55:58.000Z</time>
      </trkpt>
      <trkpt lat="41.37249833" lon="1.13448333">
        <ele>624.0</ele>
        <time>2021-07-11T08:55:59.000Z</time>
      </trkpt>
      <trkpt lat="41.372485" lon="1.134495">
        <ele>624.0</ele>
        <time>2021-07-11T08:56:00.000Z</time>
      </trkpt>
      <trkpt lat="41.372475" lon="1.13450667">
        <ele>624.0</ele>
        <time>2021-07-11T08:56:01.000Z</time>
      </trkpt>
      <trkpt lat="41.372465" lon="1.13451667">
        <ele>624.0</ele>
        <time>2021-07-11T08:56:02.000Z</time>
      </trkpt>
      <trkpt lat="41.37245667" lon="1.13453167">
        <ele>623.0</ele>
        <time>2021-07-11T08:56:03.000Z</time>
      </trkpt>
      <trkpt lat="41.37245" lon="1.13455">
        <ele>623.0</ele>
        <time>2021-07-11T08:56:04.000Z</time>
      </trkpt>
      <trkpt lat="41.372445" lon="1.13456833">
        <ele>623.0</ele>
        <time>2021-07-11T08:56:05.000Z</time>
      </trkpt>
      <trkpt lat="41.37244333" lon="1.13458333">
        <ele>623.0</ele>
        <time>2021-07-11T08:56:06.000Z</time>
      </trkpt>
      <trkpt lat="41.37244167" lon="1.13459833">
        <ele>623.0</ele>
        <time>2021-07-11T08:56:07.000Z</time>
      </trkpt>
      <trkpt lat="41.37244333" lon="1.13461">
        <ele>623.0</ele>
        <time>2021-07-11T08:56:08.000Z</time>
      </trkpt>
      <trkpt lat="41.372445" lon="1.13462167">
        <ele>623.0</ele>
        <time>2021-07-11T08:56:09.000Z</time>
      </trkpt>
      <trkpt lat="41.37244667" lon="1.13463167">
        <ele>623.0</ele>
        <time>2021-07-11T08:56:10.000Z</time>
      </trkpt>
      <trkpt lat="41.37245167" lon="1.13464">
        <ele>623.0</ele>
        <time>2021-07-11T08:56:11.000Z</time>
      </trkpt>
      <trkpt lat="41.37245667" lon="1.13464667">
        <ele>623.0</ele>
        <time>2021-07-11T08:56:12.000Z</time>
      </trkpt>
      <trkpt lat="41.37246" lon="1.134655">
        <ele>623.0</ele>
        <time>2021-07-11T08:56:13.000Z</time>
      </trkpt>
      <trkpt lat="41.372465" lon="1.13466333">
        <ele>623.0</ele>
        <time>2021-07-11T08:56:14.000Z</time>
      </trkpt>
      <trkpt lat="41.37247" lon="1.13467333">
        <ele>623.0</ele>
        <time>2021-07-11T08:56:15.000Z</time>
      </trkpt>
      <trkpt lat="41.37247667" lon="1.13468333">
        <ele>623.0</ele>
        <time>2021-07-11T08:56:16.000Z</time>
      </trkpt>
      <trkpt lat="41.37248667" lon="1.13469833">
        <ele>623.0</ele>
        <time>2021-07-11T08:56:17.000Z</time>
      </trkpt>
      <trkpt lat="41.372495" lon="1.13471667">
        <ele>623.0</ele>
        <time>2021-07-11T08:56:18.000Z</time>
      </trkpt>
      <trkpt lat="41.37250333" lon="1.13473">
        <ele>622.0</ele>
        <time>2021-07-11T08:56:19.000Z</time>
      </trkpt>
      <trkpt lat="41.37251" lon="1.13474">
        <ele>622.0</ele>
        <time>2021-07-11T08:56:20.000Z</time>
      </trkpt>
      <trkpt lat="41.372515" lon="1.13475">
        <ele>622.0</ele>
        <time>2021-07-11T08:56:21.000Z</time>
      </trkpt>
      <trkpt lat="41.37251833" lon="1.13475833">
        <ele>622.0</ele>
        <time>2021-07-11T08:56:22.000Z</time>
      </trkpt>
      <trkpt lat="41.37252167" lon="1.13476833">
        <ele>622.0</ele>
        <time>2021-07-11T08:56:23.000Z</time>
      </trkpt>
      <trkpt lat="41.37252333" lon="1.13477667">
        <ele>622.0</ele>
        <time>2021-07-11T08:56:24.000Z</time>
      </trkpt>
      <trkpt lat="41.372525" lon="1.13478667">
        <ele>622.0</ele>
        <time>2021-07-11T08:56:25.000Z</time>
      </trkpt>
      <trkpt lat="41.37252667" lon="1.13480333">
        <ele>622.0</ele>
        <time>2021-07-11T08:56:26.000Z</time>
      </trkpt>
      <trkpt lat="41.372525" lon="1.134825">
        <ele>622.0</ele>
        <time>2021-07-11T08:56:27.000Z</time>
      </trkpt>
      <trkpt lat="41.372525" lon="1.13484667">
        <ele>622.0</ele>
        <time>2021-07-11T08:56:28.000Z</time>
      </trkpt>
      <trkpt lat="41.37252167" lon="1.13486833">
        <ele>621.0</ele>
        <time>2021-07-11T08:56:29.000Z</time>
      </trkpt>
      <trkpt lat="41.37251833" lon="1.13488833">
        <ele>621.0</ele>
        <time>2021-07-11T08:56:30.000Z</time>
      </trkpt>
      <trkpt lat="41.37251667" lon="1.134905">
        <ele>620.0</ele>
        <time>2021-07-11T08:56:31.000Z</time>
      </trkpt>
      <trkpt lat="41.37251833" lon="1.13492167">
        <ele>620.0</ele>
        <time>2021-07-11T08:56:32.000Z</time>
      </trkpt>
      <trkpt lat="41.37251833" lon="1.13494">
        <ele>620.0</ele>
        <time>2021-07-11T08:56:33.000Z</time>
      </trkpt>
      <trkpt lat="41.37251833" lon="1.13496">
        <ele>619.0</ele>
        <time>2021-07-11T08:56:34.000Z</time>
      </trkpt>
      <trkpt lat="41.37252" lon="1.134975">
        <ele>619.0</ele>
        <time>2021-07-11T08:56:35.000Z</time>
      </trkpt>
      <trkpt lat="41.37252167" lon="1.134985">
        <ele>619.0</ele>
        <time>2021-07-11T08:56:36.000Z</time>
      </trkpt>
      <trkpt lat="41.37252333" lon="1.13499667">
        <ele>619.0</ele>
        <time>2021-07-11T08:56:37.000Z</time>
      </trkpt>
      <trkpt lat="41.37252333" lon="1.13500667">
        <ele>619.0</ele>
        <time>2021-07-11T08:56:38.000Z</time>
      </trkpt>
      <trkpt lat="41.37252333" lon="1.13502">
        <ele>619.0</ele>
        <time>2021-07-11T08:56:39.000Z</time>
      </trkpt>
      <trkpt lat="41.372525" lon="1.13503333">
        <ele>619.0</ele>
        <time>2021-07-11T08:56:40.000Z</time>
      </trkpt>
      <trkpt lat="41.37253" lon="1.13505">
        <ele>618.0</ele>
        <time>2021-07-11T08:56:41.000Z</time>
      </trkpt>
      <trkpt lat="41.37253333" lon="1.13507">
        <ele>618.0</ele>
        <time>2021-07-11T08:56:42.000Z</time>
      </trkpt>
      <trkpt lat="41.37253667" lon="1.13509167">
        <ele>618.0</ele>
        <time>2021-07-11T08:56:43.000Z</time>
      </trkpt>
      <trkpt lat="41.37253833" lon="1.13510667">
        <ele>617.0</ele>
        <time>2021-07-11T08:56:44.000Z</time>
      </trkpt>
      <trkpt lat="41.37254333" lon="1.13512167">
        <ele>617.0</ele>
        <time>2021-07-11T08:56:45.000Z</time>
      </trkpt>
      <trkpt lat="41.37255" lon="1.13513667">
        <ele>617.0</ele>
        <time>2021-07-11T08:56:46.000Z</time>
      </trkpt>
      <trkpt lat="41.372555" lon="1.135155">
        <ele>617.0</ele>
        <time>2021-07-11T08:56:47.000Z</time>
      </trkpt>
      <trkpt lat="41.37255833" lon="1.135175">
        <ele>617.0</ele>
        <time>2021-07-11T08:56:48.000Z</time>
      </trkpt>
      <trkpt lat="41.37255833" lon="1.135195">
        <ele>617.0</ele>
        <time>2021-07-11T08:56:49.000Z</time>
      </trkpt>
      <trkpt lat="41.37256333" lon="1.135215">
        <ele>617.0</ele>
        <time>2021-07-11T08:56:50.000Z</time>
      </trkpt>
      <trkpt lat="41.37257" lon="1.13523">
        <ele>617.0</ele>
        <time>2021-07-11T08:56:51.000Z</time>
      </trkpt>
      <trkpt lat="41.372575" lon="1.135245">
        <ele>616.0</ele>
        <time>2021-07-11T08:56:52.000Z</time>
      </trkpt>
      <trkpt lat="41.37257833" lon="1.13526167">
        <ele>616.0</ele>
        <time>2021-07-11T08:56:53.000Z</time>
      </trkpt>
      <trkpt lat="41.37258" lon="1.135275">
        <ele>616.0</ele>
        <time>2021-07-11T08:56:54.000Z</time>
      </trkpt>
      <trkpt lat="41.37258333" lon="1.13529167">
        <ele>616.0</ele>
        <time>2021-07-11T08:56:55.000Z</time>
      </trkpt>
      <trkpt lat="41.37258667" lon="1.13530833">
        <ele>616.0</ele>
        <time>2021-07-11T08:56:56.000Z</time>
      </trkpt>
      <trkpt lat="41.372585" lon="1.13532667">
        <ele>616.0</ele>
        <time>2021-07-11T08:56:57.000Z</time>
      </trkpt>
      <trkpt lat="41.37258333" lon="1.135345">
        <ele>616.0</ele>
        <time>2021-07-11T08:56:58.000Z</time>
      </trkpt>
      <trkpt lat="41.372585" lon="1.13536333">
        <ele>616.0</ele>
        <time>2021-07-11T08:56:59.000Z</time>
      </trkpt>
      <trkpt lat="41.37258667" lon="1.13537667">
        <ele>616.0</ele>
        <time>2021-07-11T08:57:00.000Z</time>
      </trkpt>
      <trkpt lat="41.37259167" lon="1.13539333">
        <ele>616.0</ele>
        <time>2021-07-11T08:57:01.000Z</time>
      </trkpt>
      <trkpt lat="41.372595" lon="1.13541333">
        <ele>616.0</ele>
        <time>2021-07-11T08:57:02.000Z</time>
      </trkpt>
      <trkpt lat="41.3726" lon="1.13543">
        <ele>616.0</ele>
        <time>2021-07-11T08:57:03.000Z</time>
      </trkpt>
      <trkpt lat="41.37260333" lon="1.13544667">
        <ele>616.0</ele>
        <time>2021-07-11T08:57:04.000Z</time>
      </trkpt>
      <trkpt lat="41.37260833" lon="1.13546333">
        <ele>616.0</ele>
        <time>2021-07-11T08:57:05.000Z</time>
      </trkpt>
      <trkpt lat="41.37261167" lon="1.13547667">
        <ele>614.0</ele>
        <time>2021-07-11T08:57:06.000Z</time>
      </trkpt>
      <trkpt lat="41.37261333" lon="1.13549167">
        <ele>613.0</ele>
        <time>2021-07-11T08:57:07.000Z</time>
      </trkpt>
      <trkpt lat="41.372615" lon="1.13550333">
        <ele>613.0</ele>
        <time>2021-07-11T08:57:08.000Z</time>
      </trkpt>
      <trkpt lat="41.372615" lon="1.13551667">
        <ele>613.0</ele>
        <time>2021-07-11T08:57:09.000Z</time>
      </trkpt>
      <trkpt lat="41.37261833" lon="1.13552833">
        <ele>613.0</ele>
        <time>2021-07-11T08:57:10.000Z</time>
      </trkpt>
      <trkpt lat="41.37262" lon="1.13554">
        <ele>613.0</ele>
        <time>2021-07-11T08:57:11.000Z</time>
      </trkpt>
      <trkpt lat="41.37262167" lon="1.13555333">
        <ele>613.0</ele>
        <time>2021-07-11T08:57:12.000Z</time>
      </trkpt>
      <trkpt lat="41.37261833" lon="1.13556667">
        <ele>612.0</ele>
        <time>2021-07-11T08:57:13.000Z</time>
      </trkpt>
      <trkpt lat="41.372615" lon="1.13558167">
        <ele>612.0</ele>
        <time>2021-07-11T08:57:14.000Z</time>
      </trkpt>
      <trkpt lat="41.37261167" lon="1.13559833">
        <ele>612.0</ele>
        <time>2021-07-11T08:57:15.000Z</time>
      </trkpt>
      <trkpt lat="41.37260833" lon="1.13561333">
        <ele>612.0</ele>
        <time>2021-07-11T08:57:16.000Z</time>
      </trkpt>
      <trkpt lat="41.37260667" lon="1.135625">
        <ele>611.0</ele>
        <time>2021-07-11T08:57:17.000Z</time>
      </trkpt>
      <trkpt lat="41.37260333" lon="1.13564">
        <ele>611.0</ele>
        <time>2021-07-11T08:57:18.000Z</time>
      </trkpt>
      <trkpt lat="41.37259833" lon="1.13565333">
        <ele>611.0</ele>
        <time>2021-07-11T08:57:19.000Z</time>
      </trkpt>
      <trkpt lat="41.37259333" lon="1.135665">
        <ele>611.0</ele>
        <time>2021-07-11T08:57:20.000Z</time>
      </trkpt>
      <trkpt lat="41.37258833" lon="1.13567333">
        <ele>610.0</ele>
        <time>2021-07-11T08:57:21.000Z</time>
      </trkpt>
      <trkpt lat="41.372585" lon="1.13568333">
        <ele>610.0</ele>
        <time>2021-07-11T08:57:22.000Z</time>
      </trkpt>
      <trkpt lat="41.37258167" lon="1.135695">
        <ele>610.0</ele>
        <time>2021-07-11T08:57:23.000Z</time>
      </trkpt>
      <trkpt lat="41.37258" lon="1.13571">
        <ele>610.0</ele>
        <time>2021-07-11T08:57:24.000Z</time>
      </trkpt>
      <trkpt lat="41.37258" lon="1.13572167">
        <ele>610.0</ele>
        <time>2021-07-11T08:57:25.000Z</time>
      </trkpt>
      <trkpt lat="41.37258167" lon="1.13573333">
        <ele>610.0</ele>
        <time>2021-07-11T08:57:26.000Z</time>
      </trkpt>
      <trkpt lat="41.37258167" lon="1.13574833">
        <ele>610.0</ele>
        <time>2021-07-11T08:57:27.000Z</time>
      </trkpt>
      <trkpt lat="41.37258333" lon="1.13576167">
        <ele>609.0</ele>
        <time>2021-07-11T08:57:28.000Z</time>
      </trkpt>
      <trkpt lat="41.37258167" lon="1.13578167">
        <ele>609.0</ele>
        <time>2021-07-11T08:57:29.000Z</time>
      </trkpt>
      <trkpt lat="41.37258167" lon="1.1358">
        <ele>609.0</ele>
        <time>2021-07-11T08:57:30.000Z</time>
      </trkpt>
      <trkpt lat="41.37258" lon="1.13581833">
        <ele>608.0</ele>
        <time>2021-07-11T08:57:31.000Z</time>
      </trkpt>
      <trkpt lat="41.37257833" lon="1.13583167">
        <ele>608.0</ele>
        <time>2021-07-11T08:57:32.000Z</time>
      </trkpt>
      <trkpt lat="41.37257667" lon="1.13584667">
        <ele>608.0</ele>
        <time>2021-07-11T08:57:33.000Z</time>
      </trkpt>
      <trkpt lat="41.37257333" lon="1.13586">
        <ele>608.0</ele>
        <time>2021-07-11T08:57:34.000Z</time>
      </trkpt>
      <trkpt lat="41.37256833" lon="1.13587333">
        <ele>608.0</ele>
        <time>2021-07-11T08:57:35.000Z</time>
      </trkpt>
      <trkpt lat="41.37256167" lon="1.13588667">
        <ele>608.0</ele>
        <time>2021-07-11T08:57:36.000Z</time>
      </trkpt>
      <trkpt lat="41.37255667" lon="1.13590167">
        <ele>608.0</ele>
        <time>2021-07-11T08:57:37.000Z</time>
      </trkpt>
      <trkpt lat="41.37255167" lon="1.13591667">
        <ele>608.0</ele>
        <time>2021-07-11T08:57:38.000Z</time>
      </trkpt>
      <trkpt lat="41.37254667" lon="1.135935">
        <ele>608.0</ele>
        <time>2021-07-11T08:57:39.000Z</time>
      </trkpt>
      <trkpt lat="41.37254333" lon="1.13595333">
        <ele>607.0</ele>
        <time>2021-07-11T08:57:40.000Z</time>
      </trkpt>
      <trkpt lat="41.37254167" lon="1.13597333">
        <ele>607.0</ele>
        <time>2021-07-11T08:57:41.000Z</time>
      </trkpt>
      <trkpt lat="41.37253833" lon="1.13599">
        <ele>607.0</ele>
        <time>2021-07-11T08:57:42.000Z</time>
      </trkpt>
      <trkpt lat="41.37253333" lon="1.13600333">
        <ele>607.0</ele>
        <time>2021-07-11T08:57:43.000Z</time>
      </trkpt>
      <trkpt lat="41.37253" lon="1.13601667">
        <ele>607.0</ele>
        <time>2021-07-11T08:57:44.000Z</time>
      </trkpt>
      <trkpt lat="41.37252333" lon="1.13602833">
        <ele>607.0</ele>
        <time>2021-07-11T08:57:45.000Z</time>
      </trkpt>
      <trkpt lat="41.37251667" lon="1.13604167">
        <ele>607.0</ele>
        <time>2021-07-11T08:57:46.000Z</time>
      </trkpt>
      <trkpt lat="41.37251333" lon="1.136055">
        <ele>607.0</ele>
        <time>2021-07-11T08:57:47.000Z</time>
      </trkpt>
      <trkpt lat="41.37251" lon="1.13607">
        <ele>606.0</ele>
        <time>2021-07-11T08:57:48.000Z</time>
      </trkpt>
      <trkpt lat="41.372505" lon="1.13608833">
        <ele>606.0</ele>
        <time>2021-07-11T08:57:49.000Z</time>
      </trkpt>
      <trkpt lat="41.3725" lon="1.13610833">
        <ele>606.0</ele>
        <time>2021-07-11T08:57:50.000Z</time>
      </trkpt>
      <trkpt lat="41.37249667" lon="1.13612833">
        <ele>606.0</ele>
        <time>2021-07-11T08:57:51.000Z</time>
      </trkpt>
      <trkpt lat="41.37249333" lon="1.136145">
        <ele>606.0</ele>
        <time>2021-07-11T08:57:52.000Z</time>
      </trkpt>
      <trkpt lat="41.37249" lon="1.13616333">
        <ele>606.0</ele>
        <time>2021-07-11T08:57:53.000Z</time>
      </trkpt>
      <trkpt lat="41.37248667" lon="1.13617833">
        <ele>606.0</ele>
        <time>2021-07-11T08:57:54.000Z</time>
      </trkpt>
      <trkpt lat="41.372485" lon="1.13619167">
        <ele>606.0</ele>
        <time>2021-07-11T08:57:55.000Z</time>
      </trkpt>
      <trkpt lat="41.37248667" lon="1.136205">
        <ele>606.0</ele>
        <time>2021-07-11T08:57:56.000Z</time>
      </trkpt>
      <trkpt lat="41.37248667" lon="1.13622167">
        <ele>606.0</ele>
        <time>2021-07-11T08:57:57.000Z</time>
      </trkpt>
      <trkpt lat="41.372485" lon="1.136235">
        <ele>606.0</ele>
        <time>2021-07-11T08:57:58.000Z</time>
      </trkpt>
      <trkpt lat="41.372485" lon="1.13625">
        <ele>606.0</ele>
        <time>2021-07-11T08:57:59.000Z</time>
      </trkpt>
      <trkpt lat="41.37248667" lon="1.13626667">
        <ele>606.0</ele>
        <time>2021-07-11T08:58:00.000Z</time>
      </trkpt>
      <trkpt lat="41.37249" lon="1.13628167">
        <ele>606.0</ele>
        <time>2021-07-11T08:58:01.000Z</time>
      </trkpt>
      <trkpt lat="41.37249" lon="1.13629833">
        <ele>606.0</ele>
        <time>2021-07-11T08:58:02.000Z</time>
      </trkpt>
      <trkpt lat="41.37249333" lon="1.13631167">
        <ele>606.0</ele>
        <time>2021-07-11T08:58:03.000Z</time>
      </trkpt>
      <trkpt lat="41.37249333" lon="1.13632333">
        <ele>606.0</ele>
        <time>2021-07-11T08:58:04.000Z</time>
      </trkpt>
      <trkpt lat="41.372495" lon="1.13633667">
        <ele>606.0</ele>
        <time>2021-07-11T08:58:05.000Z</time>
      </trkpt>
      <trkpt lat="41.37249667" lon="1.13635">
        <ele>606.0</ele>
        <time>2021-07-11T08:58:06.000Z</time>
      </trkpt>
      <trkpt lat="41.3725" lon="1.13636333">
        <ele>606.0</ele>
        <time>2021-07-11T08:58:07.000Z</time>
      </trkpt>
      <trkpt lat="41.372505" lon="1.136375">
        <ele>606.0</ele>
        <time>2021-07-11T08:58:08.000Z</time>
      </trkpt>
      <trkpt lat="41.37250667" lon="1.136385">
        <ele>606.0</ele>
        <time>2021-07-11T08:58:09.000Z</time>
      </trkpt>
      <trkpt lat="41.37251167" lon="1.136395">
        <ele>606.0</ele>
        <time>2021-07-11T08:58:10.000Z</time>
      </trkpt>
      <trkpt lat="41.372515" lon="1.13640667">
        <ele>606.0</ele>
        <time>2021-07-11T08:58:11.000Z</time>
      </trkpt>
      <trkpt lat="41.37252" lon="1.13641667">
        <ele>606.0</ele>
        <time>2021-07-11T08:58:12.000Z</time>
      </trkpt>
      <trkpt lat="41.372525" lon="1.13642833">
        <ele>606.0</ele>
        <time>2021-07-11T08:58:13.000Z</time>
      </trkpt>
      <trkpt lat="41.37253167" lon="1.13644333">
        <ele>606.0</ele>
        <time>2021-07-11T08:58:14.000Z</time>
      </trkpt>
      <trkpt lat="41.37254167" lon="1.13645333">
        <ele>606.0</ele>
        <time>2021-07-11T08:58:15.000Z</time>
      </trkpt>
      <trkpt lat="41.37255333" lon="1.13646333">
        <ele>606.0</ele>
        <time>2021-07-11T08:58:16.000Z</time>
      </trkpt>
      <trkpt lat="41.37256333" lon="1.136475">
        <ele>605.0</ele>
        <time>2021-07-11T08:58:17.000Z</time>
      </trkpt>
      <trkpt lat="41.37257" lon="1.13649167">
        <ele>605.0</ele>
        <time>2021-07-11T08:58:18.000Z</time>
      </trkpt>
      <trkpt lat="41.372575" lon="1.13650833">
        <ele>605.0</ele>
        <time>2021-07-11T08:58:19.000Z</time>
      </trkpt>
      <trkpt lat="41.37258" lon="1.13652667">
        <ele>605.0</ele>
        <time>2021-07-11T08:58:20.000Z</time>
      </trkpt>
      <trkpt lat="41.37258333" lon="1.13654333">
        <ele>605.0</ele>
        <time>2021-07-11T08:58:21.000Z</time>
      </trkpt>
      <trkpt lat="41.372585" lon="1.136555">
        <ele>605.0</ele>
        <time>2021-07-11T08:58:22.000Z</time>
      </trkpt>
      <trkpt lat="41.37259" lon="1.136565">
        <ele>605.0</ele>
        <time>2021-07-11T08:58:23.000Z</time>
      </trkpt>
      <trkpt lat="41.37259333" lon="1.13657333">
        <ele>605.0</ele>
        <time>2021-07-11T08:58:24.000Z</time>
      </trkpt>
      <trkpt lat="41.37259333" lon="1.13658667">
        <ele>604.0</ele>
        <time>2021-07-11T08:58:25.000Z</time>
      </trkpt>
      <trkpt lat="41.37259167" lon="1.13660167">
        <ele>604.0</ele>
        <time>2021-07-11T08:58:26.000Z</time>
      </trkpt>
      <trkpt lat="41.37259333" lon="1.13661833">
        <ele>604.0</ele>
        <time>2021-07-11T08:58:27.000Z</time>
      </trkpt>
      <trkpt lat="41.372595" lon="1.13663167">
        <ele>604.0</ele>
        <time>2021-07-11T08:58:28.000Z</time>
      </trkpt>
      <trkpt lat="41.37259667" lon="1.136645">
        <ele>604.0</ele>
        <time>2021-07-11T08:58:29.000Z</time>
      </trkpt>
      <trkpt lat="41.3726" lon="1.13665667">
        <ele>604.0</ele>
        <time>2021-07-11T08:58:30.000Z</time>
      </trkpt>
      <trkpt lat="41.372605" lon="1.13666833">
        <ele>604.0</ele>
        <time>2021-07-11T08:58:31.000Z</time>
      </trkpt>
      <trkpt lat="41.37260833" lon="1.136685">
        <ele>604.0</ele>
        <time>2021-07-11T08:58:32.000Z</time>
      </trkpt>
      <trkpt lat="41.37261333" lon="1.13669833">
        <ele>603.0</ele>
        <time>2021-07-11T08:58:33.000Z</time>
      </trkpt>
      <trkpt lat="41.37261667" lon="1.13671333">
        <ele>603.0</ele>
        <time>2021-07-11T08:58:34.000Z</time>
      </trkpt>
      <trkpt lat="41.37262333" lon="1.13672833">
        <ele>603.0</ele>
        <time>2021-07-11T08:58:35.000Z</time>
      </trkpt>
      <trkpt lat="41.37262833" lon="1.136745">
        <ele>604.0</ele>
        <time>2021-07-11T08:58:36.000Z</time>
      </trkpt>
      <trkpt lat="41.37263333" lon="1.13676">
        <ele>604.0</ele>
        <time>2021-07-11T08:58:37.000Z</time>
      </trkpt>
      <trkpt lat="41.37263667" lon="1.13677167">
        <ele>604.0</ele>
        <time>2021-07-11T08:58:38.000Z</time>
      </trkpt>
      <trkpt lat="41.37264" lon="1.13678333">
        <ele>604.0</ele>
        <time>2021-07-11T08:58:39.000Z</time>
      </trkpt>
      <trkpt lat="41.37264667" lon="1.136795">
        <ele>604.0</ele>
        <time>2021-07-11T08:58:40.000Z</time>
      </trkpt>
      <trkpt lat="41.37265333" lon="1.13680833">
        <ele>604.0</ele>
        <time>2021-07-11T08:58:41.000Z</time>
      </trkpt>
      <trkpt lat="41.37265833" lon="1.136825">
        <ele>604.0</ele>
        <time>2021-07-11T08:58:42.000Z</time>
      </trkpt>
      <trkpt lat="41.37266333" lon="1.13684333">
        <ele>604.0</ele>
        <time>2021-07-11T08:58:43.000Z</time>
      </trkpt>
      <trkpt lat="41.37266333" lon="1.13686333">
        <ele>603.0</ele>
        <time>2021-07-11T08:58:44.000Z</time>
      </trkpt>
      <trkpt lat="41.37266167" lon="1.13688333">
        <ele>603.0</ele>
        <time>2021-07-11T08:58:45.000Z</time>
      </trkpt>
      <trkpt lat="41.37265833" lon="1.13690167">
        <ele>603.0</ele>
        <time>2021-07-11T08:58:46.000Z</time>
      </trkpt>
      <trkpt lat="41.372655" lon="1.13692167">
        <ele>603.0</ele>
        <time>2021-07-11T08:58:47.000Z</time>
      </trkpt>
      <trkpt lat="41.37265" lon="1.13693833">
        <ele>603.0</ele>
        <time>2021-07-11T08:58:48.000Z</time>
      </trkpt>
      <trkpt lat="41.37264667" lon="1.136955">
        <ele>603.0</ele>
        <time>2021-07-11T08:58:49.000Z</time>
      </trkpt>
      <trkpt lat="41.372645" lon="1.136975">
        <ele>603.0</ele>
        <time>2021-07-11T08:58:50.000Z</time>
      </trkpt>
      <trkpt lat="41.37264333" lon="1.13699">
        <ele>603.0</ele>
        <time>2021-07-11T08:58:51.000Z</time>
      </trkpt>
      <trkpt lat="41.37264167" lon="1.13700667">
        <ele>603.0</ele>
        <time>2021-07-11T08:58:52.000Z</time>
      </trkpt>
      <trkpt lat="41.37264167" lon="1.13702">
        <ele>603.0</ele>
        <time>2021-07-11T08:58:53.000Z</time>
      </trkpt>
      <trkpt lat="41.37264" lon="1.13703">
        <ele>603.0</ele>
        <time>2021-07-11T08:58:54.000Z</time>
      </trkpt>
      <trkpt lat="41.37264167" lon="1.13703667">
        <ele>603.0</ele>
        <time>2021-07-11T08:58:55.000Z</time>
      </trkpt>
      <trkpt lat="41.37264667" lon="1.13704333">
        <ele>603.0</ele>
        <time>2021-07-11T08:58:56.000Z</time>
      </trkpt>
      <trkpt lat="41.37265" lon="1.13704833">
        <ele>602.0</ele>
        <time>2021-07-11T08:58:57.000Z</time>
      </trkpt>
      <trkpt lat="41.372655" lon="1.13705333">
        <ele>602.0</ele>
        <time>2021-07-11T08:58:58.000Z</time>
      </trkpt>
      <trkpt lat="41.37266167" lon="1.13706">
        <ele>602.0</ele>
        <time>2021-07-11T08:58:59.000Z</time>
      </trkpt>
      <trkpt lat="41.37266667" lon="1.13706667">
        <ele>602.0</ele>
        <time>2021-07-11T08:59:00.000Z</time>
      </trkpt>
      <trkpt lat="41.37267" lon="1.13707833">
        <ele>602.0</ele>
        <time>2021-07-11T08:59:01.000Z</time>
      </trkpt>
      <trkpt lat="41.37267167" lon="1.13709">
        <ele>602.0</ele>
        <time>2021-07-11T08:59:02.000Z</time>
      </trkpt>
      <trkpt lat="41.37267167" lon="1.137105">
        <ele>602.0</ele>
        <time>2021-07-11T08:59:03.000Z</time>
      </trkpt>
      <trkpt lat="41.37267333" lon="1.13712">
        <ele>602.0</ele>
        <time>2021-07-11T08:59:04.000Z</time>
      </trkpt>
      <trkpt lat="41.37267667" lon="1.13713667">
        <ele>602.0</ele>
        <time>2021-07-11T08:59:05.000Z</time>
      </trkpt>
      <trkpt lat="41.37268" lon="1.13715333">
        <ele>602.0</ele>
        <time>2021-07-11T08:59:06.000Z</time>
      </trkpt>
      <trkpt lat="41.37268167" lon="1.13716833">
        <ele>602.0</ele>
        <time>2021-07-11T08:59:07.000Z</time>
      </trkpt>
      <trkpt lat="41.372685" lon="1.13718167">
        <ele>601.0</ele>
        <time>2021-07-11T08:59:08.000Z</time>
      </trkpt>
      <trkpt lat="41.37269" lon="1.13719833">
        <ele>601.0</ele>
        <time>2021-07-11T08:59:09.000Z</time>
      </trkpt>
      <trkpt lat="41.37269667" lon="1.13721667">
        <ele>601.0</ele>
        <time>2021-07-11T08:59:10.000Z</time>
      </trkpt>
      <trkpt lat="41.37270167" lon="1.13723333">
        <ele>601.0</ele>
        <time>2021-07-11T08:59:11.000Z</time>
      </trkpt>
      <trkpt lat="41.372705" lon="1.13724833">
        <ele>601.0</ele>
        <time>2021-07-11T08:59:12.000Z</time>
      </trkpt>
      <trkpt lat="41.37271" lon="1.137265">
        <ele>600.0</ele>
        <time>2021-07-11T08:59:13.000Z</time>
      </trkpt>
      <trkpt lat="41.37271167" lon="1.13727667">
        <ele>600.0</ele>
        <time>2021-07-11T08:59:14.000Z</time>
      </trkpt>
      <trkpt lat="41.37271167" lon="1.13728667">
        <ele>600.0</ele>
        <time>2021-07-11T08:59:15.000Z</time>
      </trkpt>
      <trkpt lat="41.37271" lon="1.137295">
        <ele>600.0</ele>
        <time>2021-07-11T08:59:16.000Z</time>
      </trkpt>
      <trkpt lat="41.37271167" lon="1.13730667">
        <ele>600.0</ele>
        <time>2021-07-11T08:59:17.000Z</time>
      </trkpt>
      <trkpt lat="41.37271167" lon="1.13732">
        <ele>600.0</ele>
        <time>2021-07-11T08:59:18.000Z</time>
      </trkpt>
      <trkpt lat="41.37271333" lon="1.13733667">
        <ele>599.0</ele>
        <time>2021-07-11T08:59:19.000Z</time>
      </trkpt>
      <trkpt lat="41.372715" lon="1.13735167">
        <ele>599.0</ele>
        <time>2021-07-11T08:59:20.000Z</time>
      </trkpt>
      <trkpt lat="41.372715" lon="1.13736833">
        <ele>599.0</ele>
        <time>2021-07-11T08:59:21.000Z</time>
      </trkpt>
      <trkpt lat="41.37271" lon="1.137385">
        <ele>599.0</ele>
        <time>2021-07-11T08:59:22.000Z</time>
      </trkpt>
      <trkpt lat="41.372705" lon="1.13739833">
        <ele>599.0</ele>
        <time>2021-07-11T08:59:23.000Z</time>
      </trkpt>
      <trkpt lat="41.37270167" lon="1.13741667">
        <ele>598.0</ele>
        <time>2021-07-11T08:59:24.000Z</time>
      </trkpt>
      <trkpt lat="41.37269833" lon="1.13743667">
        <ele>598.0</ele>
        <time>2021-07-11T08:59:25.000Z</time>
      </trkpt>
      <trkpt lat="41.37269667" lon="1.13745667">
        <ele>598.0</ele>
        <time>2021-07-11T08:59:26.000Z</time>
      </trkpt>
      <trkpt lat="41.372695" lon="1.13747833">
        <ele>598.0</ele>
        <time>2021-07-11T08:59:27.000Z</time>
      </trkpt>
      <trkpt lat="41.37269" lon="1.13749667">
        <ele>598.0</ele>
        <time>2021-07-11T08:59:28.000Z</time>
      </trkpt>
      <trkpt lat="41.37268333" lon="1.13751833">
        <ele>598.0</ele>
        <time>2021-07-11T08:59:29.000Z</time>
      </trkpt>
      <trkpt lat="41.37267667" lon="1.13753833">
        <ele>597.0</ele>
        <time>2021-07-11T08:59:30.000Z</time>
      </trkpt>
      <trkpt lat="41.37267" lon="1.13756">
        <ele>597.0</ele>
        <time>2021-07-11T08:59:31.000Z</time>
      </trkpt>
      <trkpt lat="41.37266333" lon="1.137575">
        <ele>597.0</ele>
        <time>2021-07-11T08:59:32.000Z</time>
      </trkpt>
      <trkpt lat="41.37265833" lon="1.13759167">
        <ele>596.0</ele>
        <time>2021-07-11T08:59:33.000Z</time>
      </trkpt>
      <trkpt lat="41.37265333" lon="1.13760667">
        <ele>596.0</ele>
        <time>2021-07-11T08:59:34.000Z</time>
      </trkpt>
      <trkpt lat="41.37264667" lon="1.13762167">
        <ele>596.0</ele>
        <time>2021-07-11T08:59:35.000Z</time>
      </trkpt>
      <trkpt lat="41.37264333" lon="1.13763667">
        <ele>596.0</ele>
        <time>2021-07-11T08:59:36.000Z</time>
      </trkpt>
      <trkpt lat="41.372645" lon="1.13765167">
        <ele>595.0</ele>
        <time>2021-07-11T08:59:37.000Z</time>
      </trkpt>
      <trkpt lat="41.37264833" lon="1.137665">
        <ele>595.0</ele>
        <time>2021-07-11T08:59:38.000Z</time>
      </trkpt>
      <trkpt lat="41.37265" lon="1.13768">
        <ele>595.0</ele>
        <time>2021-07-11T08:59:39.000Z</time>
      </trkpt>
      <trkpt lat="41.37265" lon="1.13769167">
        <ele>595.0</ele>
        <time>2021-07-11T08:59:40.000Z</time>
      </trkpt>
      <trkpt lat="41.37265167" lon="1.13770167">
        <ele>595.0</ele>
        <time>2021-07-11T08:59:41.000Z</time>
      </trkpt>
      <trkpt lat="41.372655" lon="1.13771333">
        <ele>595.0</ele>
        <time>2021-07-11T08:59:42.000Z</time>
      </trkpt>
      <trkpt lat="41.37265833" lon="1.13772667">
        <ele>595.0</ele>
        <time>2021-07-11T08:59:43.000Z</time>
      </trkpt>
      <trkpt lat="41.37266" lon="1.13773667">
        <ele>595.0</ele>
        <time>2021-07-11T08:59:44.000Z</time>
      </trkpt>
      <trkpt lat="41.37266" lon="1.13774833">
        <ele>595.0</ele>
        <time>2021-07-11T08:59:45.000Z</time>
      </trkpt>
      <trkpt lat="41.37266" lon="1.13776167">
        <ele>595.0</ele>
        <time>2021-07-11T08:59:46.000Z</time>
      </trkpt>
      <trkpt lat="41.37265833" lon="1.13777667">
        <ele>595.0</ele>
        <time>2021-07-11T08:59:47.000Z</time>
      </trkpt>
      <trkpt lat="41.37265833" lon="1.13779333">
        <ele>594.0</ele>
        <time>2021-07-11T08:59:48.000Z</time>
      </trkpt>
      <trkpt lat="41.37265833" lon="1.13780833">
        <ele>594.0</ele>
        <time>2021-07-11T08:59:49.000Z</time>
      </trkpt>
      <trkpt lat="41.37265667" lon="1.13782333">
        <ele>594.0</ele>
        <time>2021-07-11T08:59:50.000Z</time>
      </trkpt>
      <trkpt lat="41.372655" lon="1.13783667">
        <ele>594.0</ele>
        <time>2021-07-11T08:59:51.000Z</time>
      </trkpt>
      <trkpt lat="41.37265333" lon="1.137845">
        <ele>594.0</ele>
        <time>2021-07-11T08:59:52.000Z</time>
      </trkpt>
      <trkpt lat="41.37265167" lon="1.13785333">
        <ele>594.0</ele>
        <time>2021-07-11T08:59:53.000Z</time>
      </trkpt>
      <trkpt lat="41.37265167" lon="1.13785833">
        <ele>594.0</ele>
        <time>2021-07-11T08:59:54.000Z</time>
      </trkpt>
      <trkpt lat="41.37265167" lon="1.137865">
        <ele>593.0</ele>
        <time>2021-07-11T08:59:55.000Z</time>
      </trkpt>
      <trkpt lat="41.372655" lon="1.13786833">
        <ele>593.0</ele>
        <time>2021-07-11T08:59:56.000Z</time>
      </trkpt>
      <trkpt lat="41.37266" lon="1.13787167">
        <ele>593.0</ele>
        <time>2021-07-11T08:59:57.000Z</time>
      </trkpt>
      <trkpt lat="41.37266667" lon="1.137875">
        <ele>593.0</ele>
        <time>2021-07-11T08:59:58.000Z</time>
      </trkpt>
      <trkpt lat="41.37267333" lon="1.13787667">
        <ele>593.0</ele>
        <time>2021-07-11T08:59:59.000Z</time>
      </trkpt>
      <trkpt lat="41.37268333" lon="1.13788167">
        <ele>593.0</ele>
        <time>2021-07-11T09:00:00.000Z</time>
      </trkpt>
      <trkpt lat="41.37269167" lon="1.13788667">
        <ele>593.0</ele>
        <time>2021-07-11T09:00:01.000Z</time>
      </trkpt>
      <trkpt lat="41.37270167" lon="1.13789167">
        <ele>593.0</ele>
        <time>2021-07-11T09:00:02.000Z</time>
      </trkpt>
      <trkpt lat="41.37271167" lon="1.13789667">
        <ele>592.0</ele>
        <time>2021-07-11T09:00:03.000Z</time>
      </trkpt>
      <trkpt lat="41.37272" lon="1.1379">
        <ele>592.0</ele>
        <time>2021-07-11T09:00:04.000Z</time>
      </trkpt>
      <trkpt lat="41.37272667" lon="1.13790333">
        <ele>592.0</ele>
        <time>2021-07-11T09:00:05.000Z</time>
      </trkpt>
      <trkpt lat="41.372735" lon="1.13791">
        <ele>592.0</ele>
        <time>2021-07-11T09:00:06.000Z</time>
      </trkpt>
      <trkpt lat="41.37274" lon="1.13791333">
        <ele>592.0</ele>
        <time>2021-07-11T09:00:07.000Z</time>
      </trkpt>
      <trkpt lat="41.37274667" lon="1.13791667">
        <ele>592.0</ele>
        <time>2021-07-11T09:00:08.000Z</time>
      </trkpt>
      <trkpt lat="41.37275167" lon="1.13792167">
        <ele>592.0</ele>
        <time>2021-07-11T09:00:09.000Z</time>
      </trkpt>
      <trkpt lat="41.372755" lon="1.137925">
        <ele>592.0</ele>
        <time>2021-07-11T09:00:10.000Z</time>
      </trkpt>
      <trkpt lat="41.37276" lon="1.13793333">
        <ele>591.0</ele>
        <time>2021-07-11T09:00:11.000Z</time>
      </trkpt>
      <trkpt lat="41.372765" lon="1.13794">
        <ele>591.0</ele>
        <time>2021-07-11T09:00:12.000Z</time>
      </trkpt>
      <trkpt lat="41.37277" lon="1.13794833">
        <ele>591.0</ele>
        <time>2021-07-11T09:00:13.000Z</time>
      </trkpt>
      <trkpt lat="41.37277167" lon="1.13795333">
        <ele>591.0</ele>
        <time>2021-07-11T09:00:14.000Z</time>
      </trkpt>
      <trkpt lat="41.372775" lon="1.13796">
        <ele>591.0</ele>
        <time>2021-07-11T09:00:15.000Z</time>
      </trkpt>
      <trkpt lat="41.37277667" lon="1.13796667">
        <ele>591.0</ele>
        <time>2021-07-11T09:00:16.000Z</time>
      </trkpt>
      <trkpt lat="41.37277667" lon="1.137975">
        <ele>590.0</ele>
        <time>2021-07-11T09:00:17.000Z</time>
      </trkpt>
      <trkpt lat="41.372775" lon="1.13798667">
        <ele>590.0</ele>
        <time>2021-07-11T09:00:18.000Z</time>
      </trkpt>
      <trkpt lat="41.37277" lon="1.138">
        <ele>590.0</ele>
        <time>2021-07-11T09:00:19.000Z</time>
      </trkpt>
      <trkpt lat="41.37276333" lon="1.13801667">
        <ele>590.0</ele>
        <time>2021-07-11T09:00:20.000Z</time>
      </trkpt>
      <trkpt lat="41.37275667" lon="1.13803167">
        <ele>590.0</ele>
        <time>2021-07-11T09:00:21.000Z</time>
      </trkpt>
      <trkpt lat="41.37274833" lon="1.13804667">
        <ele>590.0</ele>
        <time>2021-07-11T09:00:22.000Z</time>
      </trkpt>
      <trkpt lat="41.37274167" lon="1.13806">
        <ele>590.0</ele>
        <time>2021-07-11T09:00:23.000Z</time>
      </trkpt>
      <trkpt lat="41.37273667" lon="1.13806833">
        <ele>590.0</ele>
        <time>2021-07-11T09:00:24.000Z</time>
      </trkpt>
      <trkpt lat="41.37273" lon="1.13807833">
        <ele>590.0</ele>
        <time>2021-07-11T09:00:25.000Z</time>
      </trkpt>
      <trkpt lat="41.37272667" lon="1.13808667">
        <ele>589.0</ele>
        <time>2021-07-11T09:00:26.000Z</time>
      </trkpt>
      <trkpt lat="41.372725" lon="1.13809333">
        <ele>589.0</ele>
        <time>2021-07-11T09:00:27.000Z</time>
      </trkpt>
      <trkpt lat="41.37272167" lon="1.13810167">
        <ele>589.0</ele>
        <time>2021-07-11T09:00:28.000Z</time>
      </trkpt>
      <trkpt lat="41.37271833" lon="1.138115">
        <ele>589.0</ele>
        <time>2021-07-11T09:00:29.000Z</time>
      </trkpt>
      <trkpt lat="41.37271667" lon="1.13813">
        <ele>589.0</ele>
        <time>2021-07-11T09:00:30.000Z</time>
      </trkpt>
      <trkpt lat="41.372715" lon="1.13814167">
        <ele>589.0</ele>
        <time>2021-07-11T09:00:31.000Z</time>
      </trkpt>
      <trkpt lat="41.37271667" lon="1.13815">
        <ele>589.0</ele>
        <time>2021-07-11T09:00:32.000Z</time>
      </trkpt>
      <trkpt lat="41.37272" lon="1.13816">
        <ele>589.0</ele>
        <time>2021-07-11T09:00:33.000Z</time>
      </trkpt>
      <trkpt lat="41.37272333" lon="1.13816833">
        <ele>589.0</ele>
        <time>2021-07-11T09:00:34.000Z</time>
      </trkpt>
      <trkpt lat="41.37272667" lon="1.13817833">
        <ele>588.0</ele>
        <time>2021-07-11T09:00:35.000Z</time>
      </trkpt>
      <trkpt lat="41.37272667" lon="1.13819">
        <ele>588.0</ele>
        <time>2021-07-11T09:00:36.000Z</time>
      </trkpt>
      <trkpt lat="41.372725" lon="1.1382">
        <ele>587.0</ele>
        <time>2021-07-11T09:00:37.000Z</time>
      </trkpt>
      <trkpt lat="41.37272167" lon="1.13821">
        <ele>587.0</ele>
        <time>2021-07-11T09:00:38.000Z</time>
      </trkpt>
      <trkpt lat="41.37272" lon="1.13821667">
        <ele>587.0</ele>
        <time>2021-07-11T09:00:39.000Z</time>
      </trkpt>
      <trkpt lat="41.37272" lon="1.13822833">
        <ele>587.0</ele>
        <time>2021-07-11T09:00:40.000Z</time>
      </trkpt>
      <trkpt lat="41.37271833" lon="1.13824">
        <ele>587.0</ele>
        <time>2021-07-11T09:00:41.000Z</time>
      </trkpt>
      <trkpt lat="41.37271667" lon="1.13824833">
        <ele>587.0</ele>
        <time>2021-07-11T09:00:42.000Z</time>
      </trkpt>
      <trkpt lat="41.372715" lon="1.13826">
        <ele>587.0</ele>
        <time>2021-07-11T09:00:43.000Z</time>
      </trkpt>
      <trkpt lat="41.37271167" lon="1.13827">
        <ele>586.0</ele>
        <time>2021-07-11T09:00:44.000Z</time>
      </trkpt>
      <trkpt lat="41.37271333" lon="1.13827667">
        <ele>586.0</ele>
        <time>2021-07-11T09:00:45.000Z</time>
      </trkpt>
      <trkpt lat="41.37271333" lon="1.138285">
        <ele>586.0</ele>
        <time>2021-07-11T09:00:46.000Z</time>
      </trkpt>
      <trkpt lat="41.37271667" lon="1.13829167">
        <ele>586.0</ele>
        <time>2021-07-11T09:00:47.000Z</time>
      </trkpt>
      <trkpt lat="41.37272167" lon="1.138295">
        <ele>586.0</ele>
        <time>2021-07-11T09:00:48.000Z</time>
      </trkpt>
      <trkpt lat="41.37273167" lon="1.138295">
        <ele>585.0</ele>
        <time>2021-07-11T09:00:49.000Z</time>
      </trkpt>
      <trkpt lat="41.37273833" lon="1.13829833">
        <ele>585.0</ele>
        <time>2021-07-11T09:00:50.000Z</time>
      </trkpt>
      <trkpt lat="41.37274833" lon="1.13830167">
        <ele>585.0</ele>
        <time>2021-07-11T09:00:51.000Z</time>
      </trkpt>
      <trkpt lat="41.37276" lon="1.13830167">
        <ele>584.0</ele>
        <time>2021-07-11T09:00:52.000Z</time>
      </trkpt>
      <trkpt lat="41.37277167" lon="1.13830333">
        <ele>584.0</ele>
        <time>2021-07-11T09:00:53.000Z</time>
      </trkpt>
      <trkpt lat="41.37278333" lon="1.13830667">
        <ele>584.0</ele>
        <time>2021-07-11T09:00:54.000Z</time>
      </trkpt>
      <trkpt lat="41.37279333" lon="1.13830667">
        <ele>584.0</ele>
        <time>2021-07-11T09:00:55.000Z</time>
      </trkpt>
      <trkpt lat="41.37280167" lon="1.13830333">
        <ele>584.0</ele>
        <time>2021-07-11T09:00:56.000Z</time>
      </trkpt>
      <trkpt lat="41.37281167" lon="1.13830167">
        <ele>583.0</ele>
        <time>2021-07-11T09:00:57.000Z</time>
      </trkpt>
      <trkpt lat="41.37281833" lon="1.13830167">
        <ele>583.0</ele>
        <time>2021-07-11T09:00:58.000Z</time>
      </trkpt>
      <trkpt lat="41.37282333" lon="1.13830167">
        <ele>583.0</ele>
        <time>2021-07-11T09:00:59.000Z</time>
      </trkpt>
      <trkpt lat="41.37283" lon="1.13830667">
        <ele>583.0</ele>
        <time>2021-07-11T09:01:00.000Z</time>
      </trkpt>
      <trkpt lat="41.372835" lon="1.13830833">
        <ele>583.0</ele>
        <time>2021-07-11T09:01:01.000Z</time>
      </trkpt>
      <trkpt lat="41.37283833" lon="1.13831667">
        <ele>583.0</ele>
        <time>2021-07-11T09:01:02.000Z</time>
      </trkpt>
      <trkpt lat="41.37284167" lon="1.138325">
        <ele>583.0</ele>
        <time>2021-07-11T09:01:03.000Z</time>
      </trkpt>
      <trkpt lat="41.372845" lon="1.13833667">
        <ele>583.0</ele>
        <time>2021-07-11T09:01:04.000Z</time>
      </trkpt>
      <trkpt lat="41.37284667" lon="1.13834667">
        <ele>583.0</ele>
        <time>2021-07-11T09:01:05.000Z</time>
      </trkpt>
      <trkpt lat="41.37284833" lon="1.13835833">
        <ele>582.0</ele>
        <time>2021-07-11T09:01:06.000Z</time>
      </trkpt>
      <trkpt lat="41.37285167" lon="1.13837">
        <ele>582.0</ele>
        <time>2021-07-11T09:01:07.000Z</time>
      </trkpt>
      <trkpt lat="41.37285333" lon="1.13838167">
        <ele>582.0</ele>
        <time>2021-07-11T09:01:08.000Z</time>
      </trkpt>
      <trkpt lat="41.37285333" lon="1.13839">
        <ele>582.0</ele>
        <time>2021-07-11T09:01:09.000Z</time>
      </trkpt>
      <trkpt lat="41.37285667" lon="1.13839833">
        <ele>582.0</ele>
        <time>2021-07-11T09:01:10.000Z</time>
      </trkpt>
      <trkpt lat="41.37286" lon="1.13840167">
        <ele>582.0</ele>
        <time>2021-07-11T09:01:11.000Z</time>
      </trkpt>
      <trkpt lat="41.37286167" lon="1.13840833">
        <ele>582.0</ele>
        <time>2021-07-11T09:01:12.000Z</time>
      </trkpt>
      <trkpt lat="41.372865" lon="1.13841167">
        <ele>582.0</ele>
        <time>2021-07-11T09:01:13.000Z</time>
      </trkpt>
      <trkpt lat="41.37286833" lon="1.13841667">
        <ele>582.0</ele>
        <time>2021-07-11T09:01:14.000Z</time>
      </trkpt>
      <trkpt lat="41.37287" lon="1.13842167">
        <ele>582.0</ele>
        <time>2021-07-11T09:01:15.000Z</time>
      </trkpt>
      <trkpt lat="41.372875" lon="1.13842833">
        <ele>582.0</ele>
        <time>2021-07-11T09:01:16.000Z</time>
      </trkpt>
      <trkpt lat="41.37288167" lon="1.13843333">
        <ele>581.0</ele>
        <time>2021-07-11T09:01:17.000Z</time>
      </trkpt>
      <trkpt lat="41.37288667" lon="1.13844167">
        <ele>581.0</ele>
        <time>2021-07-11T09:01:18.000Z</time>
      </trkpt>
      <trkpt lat="41.37289333" lon="1.138445">
        <ele>581.0</ele>
        <time>2021-07-11T09:01:19.000Z</time>
      </trkpt>
      <trkpt lat="41.372905" lon="1.13844667">
        <ele>581.0</ele>
        <time>2021-07-11T09:01:20.000Z</time>
      </trkpt>
      <trkpt lat="41.37291667" lon="1.13845">
        <ele>581.0</ele>
        <time>2021-07-11T09:01:21.000Z</time>
      </trkpt>
      <trkpt lat="41.37293167" lon="1.13845167">
        <ele>580.0</ele>
        <time>2021-07-11T09:01:22.000Z</time>
      </trkpt>
      <trkpt lat="41.37294667" lon="1.13845167">
        <ele>580.0</ele>
        <time>2021-07-11T09:01:23.000Z</time>
      </trkpt>
      <trkpt lat="41.37296167" lon="1.13845">
        <ele>580.0</ele>
        <time>2021-07-11T09:01:24.000Z</time>
      </trkpt>
      <trkpt lat="41.37297833" lon="1.13845167">
        <ele>580.0</ele>
        <time>2021-07-11T09:01:25.000Z</time>
      </trkpt>
      <trkpt lat="41.37299" lon="1.13845333">
        <ele>579.0</ele>
        <time>2021-07-11T09:01:26.000Z</time>
      </trkpt>
      <trkpt lat="41.37300167" lon="1.138455">
        <ele>579.0</ele>
        <time>2021-07-11T09:01:27.000Z</time>
      </trkpt>
      <trkpt lat="41.37301333" lon="1.13846">
        <ele>579.0</ele>
        <time>2021-07-11T09:01:28.000Z</time>
      </trkpt>
      <trkpt lat="41.37302833" lon="1.13846333">
        <ele>579.0</ele>
        <time>2021-07-11T09:01:29.000Z</time>
      </trkpt>
      <trkpt lat="41.37304167" lon="1.13846667">
        <ele>579.0</ele>
        <time>2021-07-11T09:01:30.000Z</time>
      </trkpt>
      <trkpt lat="41.37305667" lon="1.13846667">
        <ele>579.0</ele>
        <time>2021-07-11T09:01:31.000Z</time>
      </trkpt>
      <trkpt lat="41.37306833" lon="1.13846667">
        <ele>578.0</ele>
        <time>2021-07-11T09:01:32.000Z</time>
      </trkpt>
      <trkpt lat="41.37308167" lon="1.138465">
        <ele>578.0</ele>
        <time>2021-07-11T09:01:33.000Z</time>
      </trkpt>
      <trkpt lat="41.37309667" lon="1.13846667">
        <ele>578.0</ele>
        <time>2021-07-11T09:01:34.000Z</time>
      </trkpt>
      <trkpt lat="41.37311" lon="1.13847">
        <ele>578.0</ele>
        <time>2021-07-11T09:01:35.000Z</time>
      </trkpt>
      <trkpt lat="41.37312167" lon="1.13847333">
        <ele>577.0</ele>
        <time>2021-07-11T09:01:36.000Z</time>
      </trkpt>
      <trkpt lat="41.37312833" lon="1.13848333">
        <ele>577.0</ele>
        <time>2021-07-11T09:01:37.000Z</time>
      </trkpt>
      <trkpt lat="41.37313333" lon="1.13849833">
        <ele>577.0</ele>
        <time>2021-07-11T09:01:38.000Z</time>
      </trkpt>
      <trkpt lat="41.373135" lon="1.138515">
        <ele>577.0</ele>
        <time>2021-07-11T09:01:39.000Z</time>
      </trkpt>
      <trkpt lat="41.37313333" lon="1.138535">
        <ele>576.0</ele>
        <time>2021-07-11T09:01:40.000Z</time>
      </trkpt>
      <trkpt lat="41.37313167" lon="1.13855667">
        <ele>576.0</ele>
        <time>2021-07-11T09:01:41.000Z</time>
      </trkpt>
      <trkpt lat="41.37312667" lon="1.13858167">
        <ele>576.0</ele>
        <time>2021-07-11T09:01:42.000Z</time>
      </trkpt>
      <trkpt lat="41.37312333" lon="1.13860667">
        <ele>576.0</ele>
        <time>2021-07-11T09:01:43.000Z</time>
      </trkpt>
      <trkpt lat="41.37311667" lon="1.13863">
        <ele>576.0</ele>
        <time>2021-07-11T09:01:44.000Z</time>
      </trkpt>
      <trkpt lat="41.37311" lon="1.138655">
        <ele>576.0</ele>
        <time>2021-07-11T09:01:45.000Z</time>
      </trkpt>
      <trkpt lat="41.373105" lon="1.13868167">
        <ele>575.0</ele>
        <time>2021-07-11T09:01:46.000Z</time>
      </trkpt>
      <trkpt lat="41.37309833" lon="1.13871">
        <ele>575.0</ele>
        <time>2021-07-11T09:01:47.000Z</time>
      </trkpt>
      <trkpt lat="41.373095" lon="1.138735">
        <ele>575.0</ele>
        <time>2021-07-11T09:01:48.000Z</time>
      </trkpt>
      <trkpt lat="41.37309" lon="1.13875833">
        <ele>575.0</ele>
        <time>2021-07-11T09:01:49.000Z</time>
      </trkpt>
      <trkpt lat="41.37308667" lon="1.13877833">
        <ele>574.0</ele>
        <time>2021-07-11T09:01:50.000Z</time>
      </trkpt>
      <trkpt lat="41.373085" lon="1.138795">
        <ele>574.0</ele>
        <time>2021-07-11T09:01:51.000Z</time>
      </trkpt>
      <trkpt lat="41.373085" lon="1.13880833">
        <ele>574.0</ele>
        <time>2021-07-11T09:01:52.000Z</time>
      </trkpt>
      <trkpt lat="41.37308833" lon="1.13882333">
        <ele>574.0</ele>
        <time>2021-07-11T09:01:53.000Z</time>
      </trkpt>
      <trkpt lat="41.37308833" lon="1.13884333">
        <ele>574.0</ele>
        <time>2021-07-11T09:01:54.000Z</time>
      </trkpt>
      <trkpt lat="41.37309" lon="1.13886">
        <ele>574.0</ele>
        <time>2021-07-11T09:01:55.000Z</time>
      </trkpt>
      <trkpt lat="41.37309" lon="1.138875">
        <ele>574.0</ele>
        <time>2021-07-11T09:01:56.000Z</time>
      </trkpt>
      <trkpt lat="41.37308667" lon="1.13889167">
        <ele>574.0</ele>
        <time>2021-07-11T09:01:57.000Z</time>
      </trkpt>
      <trkpt lat="41.373085" lon="1.13891">
        <ele>573.0</ele>
        <time>2021-07-11T09:01:58.000Z</time>
      </trkpt>
      <trkpt lat="41.37308333" lon="1.13892833">
        <ele>573.0</ele>
        <time>2021-07-11T09:01:59.000Z</time>
      </trkpt>
      <trkpt lat="41.37308167" lon="1.13894667">
        <ele>573.0</ele>
        <time>2021-07-11T09:02:00.000Z</time>
      </trkpt>
      <trkpt lat="41.37308167" lon="1.13896167">
        <ele>573.0</ele>
        <time>2021-07-11T09:02:01.000Z</time>
      </trkpt>
      <trkpt lat="41.37308333" lon="1.138975">
        <ele>573.0</ele>
        <time>2021-07-11T09:02:02.000Z</time>
      </trkpt>
      <trkpt lat="41.373085" lon="1.13898667">
        <ele>572.0</ele>
        <time>2021-07-11T09:02:03.000Z</time>
      </trkpt>
      <trkpt lat="41.37308667" lon="1.13900167">
        <ele>572.0</ele>
        <time>2021-07-11T09:02:04.000Z</time>
      </trkpt>
      <trkpt lat="41.37309167" lon="1.13901667">
        <ele>572.0</ele>
        <time>2021-07-11T09:02:05.000Z</time>
      </trkpt>
      <trkpt lat="41.37309833" lon="1.13903">
        <ele>572.0</ele>
        <time>2021-07-11T09:02:06.000Z</time>
      </trkpt>
      <trkpt lat="41.37310333" lon="1.13904333">
        <ele>572.0</ele>
        <time>2021-07-11T09:02:07.000Z</time>
      </trkpt>
      <trkpt lat="41.37311333" lon="1.13905333">
        <ele>572.0</ele>
        <time>2021-07-11T09:02:08.000Z</time>
      </trkpt>
      <trkpt lat="41.37312" lon="1.13906167">
        <ele>573.0</ele>
        <time>2021-07-11T09:02:09.000Z</time>
      </trkpt>
      <trkpt lat="41.37312667" lon="1.13907333">
        <ele>573.0</ele>
        <time>2021-07-11T09:02:10.000Z</time>
      </trkpt>
      <trkpt lat="41.37313167" lon="1.13908833">
        <ele>573.0</ele>
        <time>2021-07-11T09:02:11.000Z</time>
      </trkpt>
      <trkpt lat="41.37313833" lon="1.1391">
        <ele>573.0</ele>
        <time>2021-07-11T09:02:12.000Z</time>
      </trkpt>
      <trkpt lat="41.373145" lon="1.13911167">
        <ele>573.0</ele>
        <time>2021-07-11T09:02:13.000Z</time>
      </trkpt>
      <trkpt lat="41.37314833" lon="1.13912667">
        <ele>573.0</ele>
        <time>2021-07-11T09:02:14.000Z</time>
      </trkpt>
      <trkpt lat="41.37315" lon="1.13914167">
        <ele>573.0</ele>
        <time>2021-07-11T09:02:15.000Z</time>
      </trkpt>
      <trkpt lat="41.37315333" lon="1.13915667">
        <ele>573.0</ele>
        <time>2021-07-11T09:02:16.000Z</time>
      </trkpt>
      <trkpt lat="41.373155" lon="1.13917667">
        <ele>573.0</ele>
        <time>2021-07-11T09:02:17.000Z</time>
      </trkpt>
      <trkpt lat="41.37315667" lon="1.139195">
        <ele>573.0</ele>
        <time>2021-07-11T09:02:18.000Z</time>
      </trkpt>
      <trkpt lat="41.37315833" lon="1.13921667">
        <ele>573.0</ele>
        <time>2021-07-11T09:02:19.000Z</time>
      </trkpt>
      <trkpt lat="41.37316" lon="1.13923833">
        <ele>573.0</ele>
        <time>2021-07-11T09:02:20.000Z</time>
      </trkpt>
      <trkpt lat="41.37316333" lon="1.13925833">
        <ele>573.0</ele>
        <time>2021-07-11T09:02:21.000Z</time>
      </trkpt>
      <trkpt lat="41.373165" lon="1.13928">
        <ele>573.0</ele>
        <time>2021-07-11T09:02:22.000Z</time>
      </trkpt>
      <trkpt lat="41.37316833" lon="1.13929833">
        <ele>574.0</ele>
        <time>2021-07-11T09:02:23.000Z</time>
      </trkpt>
      <trkpt lat="41.37317167" lon="1.13931333">
        <ele>574.0</ele>
        <time>2021-07-11T09:02:24.000Z</time>
      </trkpt>
      <trkpt lat="41.37317667" lon="1.13932667">
        <ele>574.0</ele>
        <time>2021-07-11T09:02:25.000Z</time>
      </trkpt>
      <trkpt lat="41.37318167" lon="1.13933667">
        <ele>574.0</ele>
        <time>2021-07-11T09:02:26.000Z</time>
      </trkpt>
      <trkpt lat="41.37318667" lon="1.13935">
        <ele>574.0</ele>
        <time>2021-07-11T09:02:27.000Z</time>
      </trkpt>
      <trkpt lat="41.37319833" lon="1.13935833">
        <ele>574.0</ele>
        <time>2021-07-11T09:02:28.000Z</time>
      </trkpt>
      <trkpt lat="41.37321" lon="1.13936667">
        <ele>574.0</ele>
        <time>2021-07-11T09:02:29.000Z</time>
      </trkpt>
      <trkpt lat="41.37322167" lon="1.139375">
        <ele>574.0</ele>
        <time>2021-07-11T09:02:30.000Z</time>
      </trkpt>
      <trkpt lat="41.37323333" lon="1.13938">
        <ele>574.0</ele>
        <time>2021-07-11T09:02:31.000Z</time>
      </trkpt>
      <trkpt lat="41.37324833" lon="1.13939">
        <ele>574.0</ele>
        <time>2021-07-11T09:02:32.000Z</time>
      </trkpt>
      <trkpt lat="41.37326167" lon="1.1394">
        <ele>571.0</ele>
        <time>2021-07-11T09:02:33.000Z</time>
      </trkpt>
      <trkpt lat="41.37328" lon="1.13941167">
        <ele>571.0</ele>
        <time>2021-07-11T09:02:34.000Z</time>
      </trkpt>
      <trkpt lat="41.37329667" lon="1.13941667">
        <ele>571.0</ele>
        <time>2021-07-11T09:02:35.000Z</time>
      </trkpt>
      <trkpt lat="41.37331333" lon="1.139425">
        <ele>570.0</ele>
        <time>2021-07-11T09:02:36.000Z</time>
      </trkpt>
      <trkpt lat="41.37333" lon="1.13943">
        <ele>570.0</ele>
        <time>2021-07-11T09:02:37.000Z</time>
      </trkpt>
      <trkpt lat="41.37334333" lon="1.13943833">
        <ele>570.0</ele>
        <time>2021-07-11T09:02:38.000Z</time>
      </trkpt>
      <trkpt lat="41.37335333" lon="1.139445">
        <ele>570.0</ele>
        <time>2021-07-11T09:02:39.000Z</time>
      </trkpt>
      <trkpt lat="41.37336167" lon="1.13945333">
        <ele>569.0</ele>
        <time>2021-07-11T09:02:40.000Z</time>
      </trkpt>
      <trkpt lat="41.37337" lon="1.13946167">
        <ele>569.0</ele>
        <time>2021-07-11T09:02:41.000Z</time>
      </trkpt>
      <trkpt lat="41.373375" lon="1.13947333">
        <ele>569.0</ele>
        <time>2021-07-11T09:02:42.000Z</time>
      </trkpt>
      <trkpt lat="41.37338167" lon="1.139485">
        <ele>569.0</ele>
        <time>2021-07-11T09:02:43.000Z</time>
      </trkpt>
      <trkpt lat="41.37338833" lon="1.13949667">
        <ele>569.0</ele>
        <time>2021-07-11T09:02:44.000Z</time>
      </trkpt>
      <trkpt lat="41.37339333" lon="1.13951333">
        <ele>569.0</ele>
        <time>2021-07-11T09:02:45.000Z</time>
      </trkpt>
      <trkpt lat="41.373395" lon="1.13953167">
        <ele>568.0</ele>
        <time>2021-07-11T09:02:46.000Z</time>
      </trkpt>
      <trkpt lat="41.373395" lon="1.13955167">
        <ele>568.0</ele>
        <time>2021-07-11T09:02:47.000Z</time>
      </trkpt>
      <trkpt lat="41.37339" lon="1.13957167">
        <ele>568.0</ele>
        <time>2021-07-11T09:02:48.000Z</time>
      </trkpt>
      <trkpt lat="41.37339" lon="1.13958667">
        <ele>568.0</ele>
        <time>2021-07-11T09:02:49.000Z</time>
      </trkpt>
      <trkpt lat="41.37338833" lon="1.1396">
        <ele>568.0</ele>
        <time>2021-07-11T09:02:50.000Z</time>
      </trkpt>
      <trkpt lat="41.373385" lon="1.139615">
        <ele>568.0</ele>
        <time>2021-07-11T09:02:51.000Z</time>
      </trkpt>
      <trkpt lat="41.37338333" lon="1.13963167">
        <ele>568.0</ele>
        <time>2021-07-11T09:02:52.000Z</time>
      </trkpt>
      <trkpt lat="41.37338333" lon="1.13964333">
        <ele>568.0</ele>
        <time>2021-07-11T09:02:53.000Z</time>
      </trkpt>
      <trkpt lat="41.373385" lon="1.13965167">
        <ele>568.0</ele>
        <time>2021-07-11T09:02:54.000Z</time>
      </trkpt>
      <trkpt lat="41.37338833" lon="1.13966167">
        <ele>568.0</ele>
        <time>2021-07-11T09:02:55.000Z</time>
      </trkpt>
      <trkpt lat="41.37339" lon="1.139675">
        <ele>567.0</ele>
        <time>2021-07-11T09:02:56.000Z</time>
      </trkpt>
      <trkpt lat="41.37339167" lon="1.139685">
        <ele>567.0</ele>
        <time>2021-07-11T09:02:57.000Z</time>
      </trkpt>
      <trkpt lat="41.37339167" lon="1.13969333">
        <ele>567.0</ele>
        <time>2021-07-11T09:02:58.000Z</time>
      </trkpt>
      <trkpt lat="41.37339167" lon="1.139705">
        <ele>567.0</ele>
        <time>2021-07-11T09:02:59.000Z</time>
      </trkpt>
      <trkpt lat="41.37339167" lon="1.13972">
        <ele>567.0</ele>
        <time>2021-07-11T09:03:00.000Z</time>
      </trkpt>
      <trkpt lat="41.37339333" lon="1.139735">
        <ele>567.0</ele>
        <time>2021-07-11T09:03:01.000Z</time>
      </trkpt>
      <trkpt lat="41.37339667" lon="1.13975167">
        <ele>567.0</ele>
        <time>2021-07-11T09:03:02.000Z</time>
      </trkpt>
      <trkpt lat="41.37339833" lon="1.13976833">
        <ele>567.0</ele>
        <time>2021-07-11T09:03:03.000Z</time>
      </trkpt>
      <trkpt lat="41.37340167" lon="1.139785">
        <ele>567.0</ele>
        <time>2021-07-11T09:03:04.000Z</time>
      </trkpt>
      <trkpt lat="41.37340167" lon="1.1398">
        <ele>567.0</ele>
        <time>2021-07-11T09:03:05.000Z</time>
      </trkpt>
      <trkpt lat="41.37340167" lon="1.13981833">
        <ele>567.0</ele>
        <time>2021-07-11T09:03:06.000Z</time>
      </trkpt>
      <trkpt lat="41.37339833" lon="1.13983333">
        <ele>567.0</ele>
        <time>2021-07-11T09:03:07.000Z</time>
      </trkpt>
      <trkpt lat="41.37339833" lon="1.13984667">
        <ele>567.0</ele>
        <time>2021-07-11T09:03:08.000Z</time>
      </trkpt>
      <trkpt lat="41.37339833" lon="1.139855">
        <ele>567.0</ele>
        <time>2021-07-11T09:03:09.000Z</time>
      </trkpt>
      <trkpt lat="41.3734" lon="1.13986333">
        <ele>567.0</ele>
        <time>2021-07-11T09:03:10.000Z</time>
      </trkpt>
      <trkpt lat="41.37340333" lon="1.13986833">
        <ele>566.0</ele>
        <time>2021-07-11T09:03:11.000Z</time>
      </trkpt>
      <trkpt lat="41.37341167" lon="1.13987333">
        <ele>566.0</ele>
        <time>2021-07-11T09:03:12.000Z</time>
      </trkpt>
      <trkpt lat="41.37341833" lon="1.13988167">
        <ele>566.0</ele>
        <time>2021-07-11T09:03:13.000Z</time>
      </trkpt>
      <trkpt lat="41.373425" lon="1.13989167">
        <ele>565.0</ele>
        <time>2021-07-11T09:03:14.000Z</time>
      </trkpt>
      <trkpt lat="41.37343" lon="1.13990167">
        <ele>565.0</ele>
        <time>2021-07-11T09:03:15.000Z</time>
      </trkpt>
      <trkpt lat="41.373435" lon="1.13991333">
        <ele>564.0</ele>
        <time>2021-07-11T09:03:16.000Z</time>
      </trkpt>
      <trkpt lat="41.37343667" lon="1.139925">
        <ele>564.0</ele>
        <time>2021-07-11T09:03:17.000Z</time>
      </trkpt>
      <trkpt lat="41.37343833" lon="1.13993667">
        <ele>563.0</ele>
        <time>2021-07-11T09:03:18.000Z</time>
      </trkpt>
      <trkpt lat="41.37344167" lon="1.13994667">
        <ele>563.0</ele>
        <time>2021-07-11T09:03:19.000Z</time>
      </trkpt>
      <trkpt lat="41.373445" lon="1.13996">
        <ele>563.0</ele>
        <time>2021-07-11T09:03:20.000Z</time>
      </trkpt>
      <trkpt lat="41.37344667" lon="1.139975">
        <ele>563.0</ele>
        <time>2021-07-11T09:03:21.000Z</time>
      </trkpt>
      <trkpt lat="41.37344833" lon="1.13998833">
        <ele>562.0</ele>
        <time>2021-07-11T09:03:22.000Z</time>
      </trkpt>
      <trkpt lat="41.37345167" lon="1.14">
        <ele>562.0</ele>
        <time>2021-07-11T09:03:23.000Z</time>
      </trkpt>
      <trkpt lat="41.373455" lon="1.14001167">
        <ele>562.0</ele>
        <time>2021-07-11T09:03:24.000Z</time>
      </trkpt>
      <trkpt lat="41.37345667" lon="1.14002167">
        <ele>562.0</ele>
        <time>2021-07-11T09:03:25.000Z</time>
      </trkpt>
      <trkpt lat="41.37345833" lon="1.14002833">
        <ele>562.0</ele>
        <time>2021-07-11T09:03:26.000Z</time>
      </trkpt>
      <trkpt lat="41.37345833" lon="1.140035">
        <ele>562.0</ele>
        <time>2021-07-11T09:03:27.000Z</time>
      </trkpt>
      <trkpt lat="41.37346" lon="1.14004">
        <ele>562.0</ele>
        <time>2021-07-11T09:03:28.000Z</time>
      </trkpt>
      <trkpt lat="41.37346" lon="1.140045">
        <ele>561.0</ele>
        <time>2021-07-11T09:03:29.000Z</time>
      </trkpt>
      <trkpt lat="41.37346333" lon="1.14005167">
        <ele>561.0</ele>
        <time>2021-07-11T09:03:30.000Z</time>
      </trkpt>
      <trkpt lat="41.373465" lon="1.14005833">
        <ele>561.0</ele>
        <time>2021-07-11T09:03:31.000Z</time>
      </trkpt>
      <trkpt lat="41.37347" lon="1.14006333">
        <ele>561.0</ele>
        <time>2021-07-11T09:03:32.000Z</time>
      </trkpt>
      <trkpt lat="41.37347333" lon="1.14007333">
        <ele>561.0</ele>
        <time>2021-07-11T09:03:33.000Z</time>
      </trkpt>
      <trkpt lat="41.37347333" lon="1.140085">
        <ele>561.0</ele>
        <time>2021-07-11T09:03:34.000Z</time>
      </trkpt>
      <trkpt lat="41.37347333" lon="1.140095">
        <ele>561.0</ele>
        <time>2021-07-11T09:03:35.000Z</time>
      </trkpt>
      <trkpt lat="41.373475" lon="1.14010833">
        <ele>561.0</ele>
        <time>2021-07-11T09:03:36.000Z</time>
      </trkpt>
      <trkpt lat="41.37348" lon="1.14011833">
        <ele>561.0</ele>
        <time>2021-07-11T09:03:37.000Z</time>
      </trkpt>
      <trkpt lat="41.37348667" lon="1.140125">
        <ele>560.0</ele>
        <time>2021-07-11T09:03:38.000Z</time>
      </trkpt>
      <trkpt lat="41.373495" lon="1.14012833">
        <ele>560.0</ele>
        <time>2021-07-11T09:03:39.000Z</time>
      </trkpt>
      <trkpt lat="41.37350167" lon="1.14013167">
        <ele>560.0</ele>
        <time>2021-07-11T09:03:40.000Z</time>
      </trkpt>
      <trkpt lat="41.373505" lon="1.14013833">
        <ele>560.0</ele>
        <time>2021-07-11T09:03:41.000Z</time>
      </trkpt>
      <trkpt lat="41.37350667" lon="1.14015167">
        <ele>560.0</ele>
        <time>2021-07-11T09:03:42.000Z</time>
      </trkpt>
      <trkpt lat="41.37351167" lon="1.140165">
        <ele>560.0</ele>
        <time>2021-07-11T09:03:43.000Z</time>
      </trkpt>
      <trkpt lat="41.373515" lon="1.14017667">
        <ele>560.0</ele>
        <time>2021-07-11T09:03:44.000Z</time>
      </trkpt>
      <trkpt lat="41.37351833" lon="1.14018667">
        <ele>560.0</ele>
        <time>2021-07-11T09:03:45.000Z</time>
      </trkpt>
      <trkpt lat="41.37352" lon="1.14019833">
        <ele>560.0</ele>
        <time>2021-07-11T09:03:46.000Z</time>
      </trkpt>
      <trkpt lat="41.373525" lon="1.14020833">
        <ele>560.0</ele>
        <time>2021-07-11T09:03:47.000Z</time>
      </trkpt>
      <trkpt lat="41.37352667" lon="1.14021667">
        <ele>559.0</ele>
        <time>2021-07-11T09:03:48.000Z</time>
      </trkpt>
      <trkpt lat="41.37353167" lon="1.140225">
        <ele>559.0</ele>
        <time>2021-07-11T09:03:49.000Z</time>
      </trkpt>
      <trkpt lat="41.373535" lon="1.14023333">
        <ele>558.0</ele>
        <time>2021-07-11T09:03:50.000Z</time>
      </trkpt>
      <trkpt lat="41.37353833" lon="1.14023833">
        <ele>558.0</ele>
        <time>2021-07-11T09:03:51.000Z</time>
      </trkpt>
      <trkpt lat="41.373545" lon="1.14024667">
        <ele>558.0</ele>
        <time>2021-07-11T09:03:52.000Z</time>
      </trkpt>
      <trkpt lat="41.37354833" lon="1.14025333">
        <ele>558.0</ele>
        <time>2021-07-11T09:03:53.000Z</time>
      </trkpt>
      <trkpt lat="41.37355" lon="1.14026167">
        <ele>558.0</ele>
        <time>2021-07-11T09:03:54.000Z</time>
      </trkpt>
      <trkpt lat="41.37355167" lon="1.14027">
        <ele>558.0</ele>
        <time>2021-07-11T09:03:55.000Z</time>
      </trkpt>
      <trkpt lat="41.37355167" lon="1.14027667">
        <ele>558.0</ele>
        <time>2021-07-11T09:03:56.000Z</time>
      </trkpt>
      <trkpt lat="41.37355167" lon="1.14029">
        <ele>557.0</ele>
        <time>2021-07-11T09:03:57.000Z</time>
      </trkpt>
      <trkpt lat="41.37355167" lon="1.140305">
        <ele>557.0</ele>
        <time>2021-07-11T09:03:58.000Z</time>
      </trkpt>
      <trkpt lat="41.37355167" lon="1.14031833">
        <ele>557.0</ele>
        <time>2021-07-11T09:03:59.000Z</time>
      </trkpt>
      <trkpt lat="41.37354833" lon="1.14033333">
        <ele>557.0</ele>
        <time>2021-07-11T09:04:00.000Z</time>
      </trkpt>
      <trkpt lat="41.373545" lon="1.14035167">
        <ele>557.0</ele>
        <time>2021-07-11T09:04:01.000Z</time>
      </trkpt>
      <trkpt lat="41.37354" lon="1.14036667">
        <ele>557.0</ele>
        <time>2021-07-11T09:04:02.000Z</time>
      </trkpt>
      <trkpt lat="41.37353667" lon="1.14038167">
        <ele>557.0</ele>
        <time>2021-07-11T09:04:03.000Z</time>
      </trkpt>
      <trkpt lat="41.37353167" lon="1.14039667">
        <ele>557.0</ele>
        <time>2021-07-11T09:04:04.000Z</time>
      </trkpt>
      <trkpt lat="41.37352833" lon="1.14041333">
        <ele>557.0</ele>
        <time>2021-07-11T09:04:05.000Z</time>
      </trkpt>
      <trkpt lat="41.373525" lon="1.14042833">
        <ele>557.0</ele>
        <time>2021-07-11T09:04:06.000Z</time>
      </trkpt>
      <trkpt lat="41.37352" lon="1.14044833">
        <ele>556.0</ele>
        <time>2021-07-11T09:04:07.000Z</time>
      </trkpt>
      <trkpt lat="41.373515" lon="1.14046833">
        <ele>556.0</ele>
        <time>2021-07-11T09:04:08.000Z</time>
      </trkpt>
      <trkpt lat="41.37350833" lon="1.140485">
        <ele>556.0</ele>
        <time>2021-07-11T09:04:09.000Z</time>
      </trkpt>
      <trkpt lat="41.37350333" lon="1.14049667">
        <ele>556.0</ele>
        <time>2021-07-11T09:04:10.000Z</time>
      </trkpt>
      <trkpt lat="41.37349833" lon="1.14051333">
        <ele>556.0</ele>
        <time>2021-07-11T09:04:11.000Z</time>
      </trkpt>
      <trkpt lat="41.373495" lon="1.14052667">
        <ele>556.0</ele>
        <time>2021-07-11T09:04:12.000Z</time>
      </trkpt>
      <trkpt lat="41.37349167" lon="1.14053833">
        <ele>556.0</ele>
        <time>2021-07-11T09:04:13.000Z</time>
      </trkpt>
      <trkpt lat="41.37349" lon="1.14055167">
        <ele>556.0</ele>
        <time>2021-07-11T09:04:14.000Z</time>
      </trkpt>
      <trkpt lat="41.37348833" lon="1.140565">
        <ele>556.0</ele>
        <time>2021-07-11T09:04:15.000Z</time>
      </trkpt>
      <trkpt lat="41.37348833" lon="1.14057667">
        <ele>556.0</ele>
        <time>2021-07-11T09:04:16.000Z</time>
      </trkpt>
      <trkpt lat="41.373485" lon="1.14059">
        <ele>556.0</ele>
        <time>2021-07-11T09:04:17.000Z</time>
      </trkpt>
      <trkpt lat="41.37348167" lon="1.14060333">
        <ele>556.0</ele>
        <time>2021-07-11T09:04:18.000Z</time>
      </trkpt>
      <trkpt lat="41.37348" lon="1.140615">
        <ele>556.0</ele>
        <time>2021-07-11T09:04:19.000Z</time>
      </trkpt>
      <trkpt lat="41.37347833" lon="1.14062333">
        <ele>556.0</ele>
        <time>2021-07-11T09:04:20.000Z</time>
      </trkpt>
      <trkpt lat="41.37347833" lon="1.140635">
        <ele>556.0</ele>
        <time>2021-07-11T09:04:21.000Z</time>
      </trkpt>
      <trkpt lat="41.37347667" lon="1.14064833">
        <ele>556.0</ele>
        <time>2021-07-11T09:04:22.000Z</time>
      </trkpt>
      <trkpt lat="41.373475" lon="1.14066167">
        <ele>556.0</ele>
        <time>2021-07-11T09:04:23.000Z</time>
      </trkpt>
      <trkpt lat="41.37346833" lon="1.14067667">
        <ele>556.0</ele>
        <time>2021-07-11T09:04:24.000Z</time>
      </trkpt>
      <trkpt lat="41.37346333" lon="1.14069333">
        <ele>556.0</ele>
        <time>2021-07-11T09:04:25.000Z</time>
      </trkpt>
      <trkpt lat="41.37345833" lon="1.14070667">
        <ele>556.0</ele>
        <time>2021-07-11T09:04:26.000Z</time>
      </trkpt>
      <trkpt lat="41.373455" lon="1.14072167">
        <ele>556.0</ele>
        <time>2021-07-11T09:04:27.000Z</time>
      </trkpt>
      <trkpt lat="41.37345167" lon="1.14073667">
        <ele>556.0</ele>
        <time>2021-07-11T09:04:28.000Z</time>
      </trkpt>
      <trkpt lat="41.37345167" lon="1.14074833">
        <ele>556.0</ele>
        <time>2021-07-11T09:04:29.000Z</time>
      </trkpt>
      <trkpt lat="41.37345" lon="1.14075667">
        <ele>556.0</ele>
        <time>2021-07-11T09:04:30.000Z</time>
      </trkpt>
      <trkpt lat="41.37345" lon="1.14077">
        <ele>556.0</ele>
        <time>2021-07-11T09:04:31.000Z</time>
      </trkpt>
      <trkpt lat="41.37344667" lon="1.14078333">
        <ele>556.0</ele>
        <time>2021-07-11T09:04:32.000Z</time>
      </trkpt>
      <trkpt lat="41.373445" lon="1.14079833">
        <ele>555.0</ele>
        <time>2021-07-11T09:04:33.000Z</time>
      </trkpt>
      <trkpt lat="41.373445" lon="1.14081167">
        <ele>555.0</ele>
        <time>2021-07-11T09:04:34.000Z</time>
      </trkpt>
      <trkpt lat="41.373445" lon="1.14082667">
        <ele>555.0</ele>
        <time>2021-07-11T09:04:35.000Z</time>
      </trkpt>
      <trkpt lat="41.37344667" lon="1.14083667">
        <ele>555.0</ele>
        <time>2021-07-11T09:04:36.000Z</time>
      </trkpt>
      <trkpt lat="41.37345" lon="1.14084667">
        <ele>555.0</ele>
        <time>2021-07-11T09:04:37.000Z</time>
      </trkpt>
      <trkpt lat="41.37345333" lon="1.14086">
        <ele>555.0</ele>
        <time>2021-07-11T09:04:38.000Z</time>
      </trkpt>
      <trkpt lat="41.373455" lon="1.14087333">
        <ele>555.0</ele>
        <time>2021-07-11T09:04:39.000Z</time>
      </trkpt>
      <trkpt lat="41.37345667" lon="1.14088333">
        <ele>555.0</ele>
        <time>2021-07-11T09:04:40.000Z</time>
      </trkpt>
      <trkpt lat="41.37345833" lon="1.14089333">
        <ele>555.0</ele>
        <time>2021-07-11T09:04:41.000Z</time>
      </trkpt>
      <trkpt lat="41.37346167" lon="1.14090333">
        <ele>555.0</ele>
        <time>2021-07-11T09:04:42.000Z</time>
      </trkpt>
      <trkpt lat="41.37346667" lon="1.140915">
        <ele>555.0</ele>
        <time>2021-07-11T09:04:43.000Z</time>
      </trkpt>
      <trkpt lat="41.37346667" lon="1.140925">
        <ele>555.0</ele>
        <time>2021-07-11T09:04:44.000Z</time>
      </trkpt>
      <trkpt lat="41.37347" lon="1.14093667">
        <ele>555.0</ele>
        <time>2021-07-11T09:04:45.000Z</time>
      </trkpt>
      <trkpt lat="41.37347333" lon="1.14094333">
        <ele>555.0</ele>
        <time>2021-07-11T09:04:46.000Z</time>
      </trkpt>
      <trkpt lat="41.37348" lon="1.14095">
        <ele>555.0</ele>
        <time>2021-07-11T09:04:47.000Z</time>
      </trkpt>
      <trkpt lat="41.37348667" lon="1.14095833">
        <ele>555.0</ele>
        <time>2021-07-11T09:04:48.000Z</time>
      </trkpt>
      <trkpt lat="41.37349167" lon="1.14096667">
        <ele>554.0</ele>
        <time>2021-07-11T09:04:49.000Z</time>
      </trkpt>
      <trkpt lat="41.373495" lon="1.140975">
        <ele>554.0</ele>
        <time>2021-07-11T09:04:50.000Z</time>
      </trkpt>
      <trkpt lat="41.3735" lon="1.14098333">
        <ele>554.0</ele>
        <time>2021-07-11T09:04:51.000Z</time>
      </trkpt>
      <trkpt lat="41.373505" lon="1.14098833">
        <ele>554.0</ele>
        <time>2021-07-11T09:04:52.000Z</time>
      </trkpt>
      <trkpt lat="41.37350833" lon="1.14099167">
        <ele>554.0</ele>
        <time>2021-07-11T09:04:53.000Z</time>
      </trkpt>
      <trkpt lat="41.373515" lon="1.14099333">
        <ele>554.0</ele>
        <time>2021-07-11T09:04:54.000Z</time>
      </trkpt>
      <trkpt lat="41.37352167" lon="1.14099333">
        <ele>554.0</ele>
        <time>2021-07-11T09:04:55.000Z</time>
      </trkpt>
      <trkpt lat="41.37352833" lon="1.14099667">
        <ele>554.0</ele>
        <time>2021-07-11T09:04:56.000Z</time>
      </trkpt>
      <trkpt lat="41.373535" lon="1.14100333">
        <ele>554.0</ele>
        <time>2021-07-11T09:04:57.000Z</time>
      </trkpt>
      <trkpt lat="41.37354" lon="1.14101167">
        <ele>554.0</ele>
        <time>2021-07-11T09:04:58.000Z</time>
      </trkpt>
      <trkpt lat="41.373545" lon="1.141025">
        <ele>554.0</ele>
        <time>2021-07-11T09:04:59.000Z</time>
      </trkpt>
      <trkpt lat="41.37354833" lon="1.14104">
        <ele>554.0</ele>
        <time>2021-07-11T09:05:00.000Z</time>
      </trkpt>
      <trkpt lat="41.37355" lon="1.14105833">
        <ele>554.0</ele>
        <time>2021-07-11T09:05:01.000Z</time>
      </trkpt>
      <trkpt lat="41.37355" lon="1.14108">
        <ele>554.0</ele>
        <time>2021-07-11T09:05:02.000Z</time>
      </trkpt>
      <trkpt lat="41.37354833" lon="1.1411">
        <ele>554.0</ele>
        <time>2021-07-11T09:05:03.000Z</time>
      </trkpt>
      <trkpt lat="41.37354667" lon="1.14112">
        <ele>554.0</ele>
        <time>2021-07-11T09:05:04.000Z</time>
      </trkpt>
      <trkpt lat="41.37354333" lon="1.14113833">
        <ele>553.0</ele>
        <time>2021-07-11T09:05:05.000Z</time>
      </trkpt>
      <trkpt lat="41.37354167" lon="1.141155">
        <ele>553.0</ele>
        <time>2021-07-11T09:05:06.000Z</time>
      </trkpt>
      <trkpt lat="41.37354" lon="1.141175">
        <ele>553.0</ele>
        <time>2021-07-11T09:05:07.000Z</time>
      </trkpt>
      <trkpt lat="41.37354" lon="1.14119333">
        <ele>552.0</ele>
        <time>2021-07-11T09:05:08.000Z</time>
      </trkpt>
      <trkpt lat="41.37354167" lon="1.14121">
        <ele>552.0</ele>
        <time>2021-07-11T09:05:09.000Z</time>
      </trkpt>
      <trkpt lat="41.37354333" lon="1.141225">
        <ele>552.0</ele>
        <time>2021-07-11T09:05:10.000Z</time>
      </trkpt>
      <trkpt lat="41.373545" lon="1.14123833">
        <ele>552.0</ele>
        <time>2021-07-11T09:05:11.000Z</time>
      </trkpt>
      <trkpt lat="41.373545" lon="1.14125333">
        <ele>552.0</ele>
        <time>2021-07-11T09:05:12.000Z</time>
      </trkpt>
      <trkpt lat="41.37354833" lon="1.14126667">
        <ele>552.0</ele>
        <time>2021-07-11T09:05:13.000Z</time>
      </trkpt>
      <trkpt lat="41.37355167" lon="1.14128">
        <ele>552.0</ele>
        <time>2021-07-11T09:05:14.000Z</time>
      </trkpt>
      <trkpt lat="41.373555" lon="1.14129167">
        <ele>552.0</ele>
        <time>2021-07-11T09:05:15.000Z</time>
      </trkpt>
      <trkpt lat="41.37355667" lon="1.14130333">
        <ele>552.0</ele>
        <time>2021-07-11T09:05:16.000Z</time>
      </trkpt>
      <trkpt lat="41.37355667" lon="1.14131333">
        <ele>551.0</ele>
        <time>2021-07-11T09:05:17.000Z</time>
      </trkpt>
      <trkpt lat="41.37355833" lon="1.14132833">
        <ele>551.0</ele>
        <time>2021-07-11T09:05:18.000Z</time>
      </trkpt>
      <trkpt lat="41.37355667" lon="1.141345">
        <ele>551.0</ele>
        <time>2021-07-11T09:05:19.000Z</time>
      </trkpt>
      <trkpt lat="41.37355667" lon="1.14135667">
        <ele>551.0</ele>
        <time>2021-07-11T09:05:20.000Z</time>
      </trkpt>
      <trkpt lat="41.37355667" lon="1.14136667">
        <ele>551.0</ele>
        <time>2021-07-11T09:05:21.000Z</time>
      </trkpt>
      <trkpt lat="41.37355667" lon="1.14137833">
        <ele>551.0</ele>
        <time>2021-07-11T09:05:22.000Z</time>
      </trkpt>
      <trkpt lat="41.37355667" lon="1.14139">
        <ele>551.0</ele>
        <time>2021-07-11T09:05:23.000Z</time>
      </trkpt>
      <trkpt lat="41.37355833" lon="1.141405">
        <ele>551.0</ele>
        <time>2021-07-11T09:05:24.000Z</time>
      </trkpt>
      <trkpt lat="41.37355833" lon="1.14141833">
        <ele>551.0</ele>
        <time>2021-07-11T09:05:25.000Z</time>
      </trkpt>
      <trkpt lat="41.37355833" lon="1.14143167">
        <ele>551.0</ele>
        <time>2021-07-11T09:05:26.000Z</time>
      </trkpt>
      <trkpt lat="41.37355833" lon="1.14144333">
        <ele>551.0</ele>
        <time>2021-07-11T09:05:27.000Z</time>
      </trkpt>
      <trkpt lat="41.37355833" lon="1.14145667">
        <ele>551.0</ele>
        <time>2021-07-11T09:05:28.000Z</time>
      </trkpt>
      <trkpt lat="41.37355833" lon="1.14146833">
        <ele>550.0</ele>
        <time>2021-07-11T09:05:29.000Z</time>
      </trkpt>
      <trkpt lat="41.37356" lon="1.14148333">
        <ele>550.0</ele>
        <time>2021-07-11T09:05:30.000Z</time>
      </trkpt>
      <trkpt lat="41.37356333" lon="1.14149667">
        <ele>550.0</ele>
        <time>2021-07-11T09:05:31.000Z</time>
      </trkpt>
      <trkpt lat="41.37356667" lon="1.14151">
        <ele>550.0</ele>
        <time>2021-07-11T09:05:32.000Z</time>
      </trkpt>
      <trkpt lat="41.37356833" lon="1.14152167">
        <ele>550.0</ele>
        <time>2021-07-11T09:05:33.000Z</time>
      </trkpt>
      <trkpt lat="41.37357" lon="1.14153167">
        <ele>550.0</ele>
        <time>2021-07-11T09:05:34.000Z</time>
      </trkpt>
      <trkpt lat="41.37356667" lon="1.141545">
        <ele>550.0</ele>
        <time>2021-07-11T09:05:35.000Z</time>
      </trkpt>
      <trkpt lat="41.37356667" lon="1.14155333">
        <ele>550.0</ele>
        <time>2021-07-11T09:05:36.000Z</time>
      </trkpt>
      <trkpt lat="41.37356667" lon="1.14156">
        <ele>550.0</ele>
        <time>2021-07-11T09:05:37.000Z</time>
      </trkpt>
      <trkpt lat="41.37357" lon="1.14156667">
        <ele>550.0</ele>
        <time>2021-07-11T09:05:38.000Z</time>
      </trkpt>
      <trkpt lat="41.37357167" lon="1.14158">
        <ele>550.0</ele>
        <time>2021-07-11T09:05:39.000Z</time>
      </trkpt>
      <trkpt lat="41.37358167" lon="1.141585">
        <ele>549.0</ele>
        <time>2021-07-11T09:05:40.000Z</time>
      </trkpt>
      <trkpt lat="41.37359333" lon="1.141585">
        <ele>549.0</ele>
        <time>2021-07-11T09:05:41.000Z</time>
      </trkpt>
      <trkpt lat="41.37360333" lon="1.14159">
        <ele>548.0</ele>
        <time>2021-07-11T09:05:42.000Z</time>
      </trkpt>
      <trkpt lat="41.373615" lon="1.14159667">
        <ele>548.0</ele>
        <time>2021-07-11T09:05:43.000Z</time>
      </trkpt>
      <trkpt lat="41.37362333" lon="1.14160333">
        <ele>548.0</ele>
        <time>2021-07-11T09:05:44.000Z</time>
      </trkpt>
      <trkpt lat="41.37363" lon="1.14161167">
        <ele>548.0</ele>
        <time>2021-07-11T09:05:45.000Z</time>
      </trkpt>
      <trkpt lat="41.373635" lon="1.14162167">
        <ele>546.0</ele>
        <time>2021-07-11T09:05:46.000Z</time>
      </trkpt>
      <trkpt lat="41.37364333" lon="1.14162833">
        <ele>546.0</ele>
        <time>2021-07-11T09:05:47.000Z</time>
      </trkpt>
      <trkpt lat="41.37364833" lon="1.141635">
        <ele>546.0</ele>
        <time>2021-07-11T09:05:48.000Z</time>
      </trkpt>
      <trkpt lat="41.37365667" lon="1.14163833">
        <ele>545.0</ele>
        <time>2021-07-11T09:05:49.000Z</time>
      </trkpt>
      <trkpt lat="41.37366167" lon="1.14164333">
        <ele>545.0</ele>
        <time>2021-07-11T09:05:50.000Z</time>
      </trkpt>
      <trkpt lat="41.37366667" lon="1.14164333">
        <ele>544.0</ele>
        <time>2021-07-11T09:05:51.000Z</time>
      </trkpt>
      <trkpt lat="41.37367167" lon="1.14164333">
        <ele>543.0</ele>
        <time>2021-07-11T09:05:52.000Z</time>
      </trkpt>
      <trkpt lat="41.37367833" lon="1.14164333">
        <ele>543.0</ele>
        <time>2021-07-11T09:05:53.000Z</time>
      </trkpt>
      <trkpt lat="41.37368333" lon="1.14164167">
        <ele>543.0</ele>
        <time>2021-07-11T09:05:54.000Z</time>
      </trkpt>
      <trkpt lat="41.37369" lon="1.14164167">
        <ele>543.0</ele>
        <time>2021-07-11T09:05:55.000Z</time>
      </trkpt>
      <trkpt lat="41.373695" lon="1.14164333">
        <ele>542.0</ele>
        <time>2021-07-11T09:05:56.000Z</time>
      </trkpt>
      <trkpt lat="41.3737" lon="1.14164333">
        <ele>542.0</ele>
        <time>2021-07-11T09:05:57.000Z</time>
      </trkpt>
      <trkpt lat="41.37370667" lon="1.14164">
        <ele>542.0</ele>
        <time>2021-07-11T09:05:58.000Z</time>
      </trkpt>
      <trkpt lat="41.37371167" lon="1.14163667">
        <ele>542.0</ele>
        <time>2021-07-11T09:05:59.000Z</time>
      </trkpt>
      <trkpt lat="41.373715" lon="1.141635">
        <ele>542.0</ele>
        <time>2021-07-11T09:06:00.000Z</time>
      </trkpt>
      <trkpt lat="41.37371833" lon="1.14163333">
        <ele>541.0</ele>
        <time>2021-07-11T09:06:01.000Z</time>
      </trkpt>
      <trkpt lat="41.37372167" lon="1.14163167">
        <ele>541.0</ele>
        <time>2021-07-11T09:06:02.000Z</time>
      </trkpt>
      <trkpt lat="41.373725" lon="1.14163">
        <ele>541.0</ele>
        <time>2021-07-11T09:06:03.000Z</time>
      </trkpt>
      <trkpt lat="41.37373" lon="1.14163">
        <ele>541.0</ele>
        <time>2021-07-11T09:06:04.000Z</time>
      </trkpt>
      <trkpt lat="41.373735" lon="1.14163167">
        <ele>541.0</ele>
        <time>2021-07-11T09:06:05.000Z</time>
      </trkpt>
      <trkpt lat="41.37374333" lon="1.14163667">
        <ele>540.0</ele>
        <time>2021-07-11T09:06:06.000Z</time>
      </trkpt>
      <trkpt lat="41.37375333" lon="1.14164167">
        <ele>540.0</ele>
        <time>2021-07-11T09:06:07.000Z</time>
      </trkpt>
      <trkpt lat="41.37376333" lon="1.14164667">
        <ele>540.0</ele>
        <time>2021-07-11T09:06:08.000Z</time>
      </trkpt>
      <trkpt lat="41.37377333" lon="1.14164667">
        <ele>540.0</ele>
        <time>2021-07-11T09:06:09.000Z</time>
      </trkpt>
      <trkpt lat="41.37378333" lon="1.141645">
        <ele>540.0</ele>
        <time>2021-07-11T09:06:10.000Z</time>
      </trkpt>
      <trkpt lat="41.37379333" lon="1.14164167">
        <ele>540.0</ele>
        <time>2021-07-11T09:06:11.000Z</time>
      </trkpt>
      <trkpt lat="41.37380667" lon="1.14163833">
        <ele>540.0</ele>
        <time>2021-07-11T09:06:12.000Z</time>
      </trkpt>
      <trkpt lat="41.37382" lon="1.14163667">
        <ele>539.0</ele>
        <time>2021-07-11T09:06:13.000Z</time>
      </trkpt>
      <trkpt lat="41.37383167" lon="1.14164">
        <ele>539.0</ele>
        <time>2021-07-11T09:06:14.000Z</time>
      </trkpt>
      <trkpt lat="41.37384" lon="1.14164833">
        <ele>539.0</ele>
        <time>2021-07-11T09:06:15.000Z</time>
      </trkpt>
      <trkpt lat="41.37385" lon="1.14165667">
        <ele>539.0</ele>
        <time>2021-07-11T09:06:16.000Z</time>
      </trkpt>
      <trkpt lat="41.37385833" lon="1.14166333">
        <ele>538.0</ele>
        <time>2021-07-11T09:06:17.000Z</time>
      </trkpt>
      <trkpt lat="41.37386833" lon="1.14167">
        <ele>538.0</ele>
        <time>2021-07-11T09:06:18.000Z</time>
      </trkpt>
      <trkpt lat="41.37387667" lon="1.141675">
        <ele>538.0</ele>
        <time>2021-07-11T09:06:19.000Z</time>
      </trkpt>
      <trkpt lat="41.37388333" lon="1.14168333">
        <ele>538.0</ele>
        <time>2021-07-11T09:06:20.000Z</time>
      </trkpt>
      <trkpt lat="41.37388833" lon="1.14169167">
        <ele>538.0</ele>
        <time>2021-07-11T09:06:21.000Z</time>
      </trkpt>
      <trkpt lat="41.37389167" lon="1.1417">
        <ele>538.0</ele>
        <time>2021-07-11T09:06:22.000Z</time>
      </trkpt>
      <trkpt lat="41.37389167" lon="1.141705">
        <ele>538.0</ele>
        <time>2021-07-11T09:06:23.000Z</time>
      </trkpt>
      <trkpt lat="41.37389333" lon="1.14171167">
        <ele>538.0</ele>
        <time>2021-07-11T09:06:24.000Z</time>
      </trkpt>
      <trkpt lat="41.37389667" lon="1.14171667">
        <ele>537.0</ele>
        <time>2021-07-11T09:06:25.000Z</time>
      </trkpt>
      <trkpt lat="41.37389833" lon="1.14172">
        <ele>537.0</ele>
        <time>2021-07-11T09:06:26.000Z</time>
      </trkpt>
      <trkpt lat="41.37390167" lon="1.14172667">
        <ele>537.0</ele>
        <time>2021-07-11T09:06:27.000Z</time>
      </trkpt>
      <trkpt lat="41.373905" lon="1.14173333">
        <ele>537.0</ele>
        <time>2021-07-11T09:06:28.000Z</time>
      </trkpt>
      <trkpt lat="41.37390333" lon="1.141745">
        <ele>537.0</ele>
        <time>2021-07-11T09:06:29.000Z</time>
      </trkpt>
      <trkpt lat="41.37390333" lon="1.14175667">
        <ele>537.0</ele>
        <time>2021-07-11T09:06:30.000Z</time>
      </trkpt>
      <trkpt lat="41.37390167" lon="1.14177">
        <ele>537.0</ele>
        <time>2021-07-11T09:06:31.000Z</time>
      </trkpt>
      <trkpt lat="41.37390333" lon="1.14178667">
        <ele>535.0</ele>
        <time>2021-07-11T09:06:32.000Z</time>
      </trkpt>
      <trkpt lat="41.37390667" lon="1.14180333">
        <ele>535.0</ele>
        <time>2021-07-11T09:06:33.000Z</time>
      </trkpt>
      <trkpt lat="41.37391" lon="1.14181833">
        <ele>535.0</ele>
        <time>2021-07-11T09:06:34.000Z</time>
      </trkpt>
      <trkpt lat="41.37391167" lon="1.14183667">
        <ele>534.0</ele>
        <time>2021-07-11T09:06:35.000Z</time>
      </trkpt>
      <trkpt lat="41.37391167" lon="1.14185333">
        <ele>534.0</ele>
        <time>2021-07-11T09:06:36.000Z</time>
      </trkpt>
      <trkpt lat="41.37391" lon="1.14187167">
        <ele>534.0</ele>
        <time>2021-07-11T09:06:37.000Z</time>
      </trkpt>
      <trkpt lat="41.37390667" lon="1.14188833">
        <ele>533.0</ele>
        <time>2021-07-11T09:06:38.000Z</time>
      </trkpt>
      <trkpt lat="41.37390333" lon="1.14190333">
        <ele>533.0</ele>
        <time>2021-07-11T09:06:39.000Z</time>
      </trkpt>
      <trkpt lat="41.3739" lon="1.14191333">
        <ele>533.0</ele>
        <time>2021-07-11T09:06:40.000Z</time>
      </trkpt>
      <trkpt lat="41.37389833" lon="1.14192">
        <ele>533.0</ele>
        <time>2021-07-11T09:06:41.000Z</time>
      </trkpt>
      <trkpt lat="41.37389333" lon="1.141925">
        <ele>533.0</ele>
        <time>2021-07-11T09:06:42.000Z</time>
      </trkpt>
      <trkpt lat="41.37388833" lon="1.14193">
        <ele>532.0</ele>
        <time>2021-07-11T09:06:43.000Z</time>
      </trkpt>
      <trkpt lat="41.37388333" lon="1.14193667">
        <ele>532.0</ele>
        <time>2021-07-11T09:06:44.000Z</time>
      </trkpt>
      <trkpt lat="41.37388" lon="1.14194333">
        <ele>532.0</ele>
        <time>2021-07-11T09:06:45.000Z</time>
      </trkpt>
      <trkpt lat="41.373875" lon="1.14195333">
        <ele>532.0</ele>
        <time>2021-07-11T09:06:46.000Z</time>
      </trkpt>
      <trkpt lat="41.37387167" lon="1.141965">
        <ele>532.0</ele>
        <time>2021-07-11T09:06:47.000Z</time>
      </trkpt>
      <trkpt lat="41.37387" lon="1.141975">
        <ele>532.0</ele>
        <time>2021-07-11T09:06:48.000Z</time>
      </trkpt>
      <trkpt lat="41.37386667" lon="1.14198333">
        <ele>532.0</ele>
        <time>2021-07-11T09:06:49.000Z</time>
      </trkpt>
      <trkpt lat="41.37386667" lon="1.14199167">
        <ele>532.0</ele>
        <time>2021-07-11T09:06:50.000Z</time>
      </trkpt>
      <trkpt lat="41.373865" lon="1.14199667">
        <ele>531.0</ele>
        <time>2021-07-11T09:06:51.000Z</time>
      </trkpt>
      <trkpt lat="41.37386167" lon="1.142">
        <ele>530.0</ele>
        <time>2021-07-11T09:06:52.000Z</time>
      </trkpt>
      <trkpt lat="41.37385833" lon="1.14200667">
        <ele>530.0</ele>
        <time>2021-07-11T09:06:53.000Z</time>
      </trkpt>
      <trkpt lat="41.37385333" lon="1.14201333">
        <ele>530.0</ele>
        <time>2021-07-11T09:06:54.000Z</time>
      </trkpt>
      <trkpt lat="41.37385167" lon="1.14201667">
        <ele>530.0</ele>
        <time>2021-07-11T09:06:55.000Z</time>
      </trkpt>
      <trkpt lat="41.37384833" lon="1.14202">
        <ele>529.0</ele>
        <time>2021-07-11T09:06:56.000Z</time>
      </trkpt>
      <trkpt lat="41.373845" lon="1.142025">
        <ele>529.0</ele>
        <time>2021-07-11T09:06:57.000Z</time>
      </trkpt>
      <trkpt lat="41.37384" lon="1.14202833">
        <ele>529.0</ele>
        <time>2021-07-11T09:06:58.000Z</time>
      </trkpt>
      <trkpt lat="41.373835" lon="1.14203167">
        <ele>529.0</ele>
        <time>2021-07-11T09:06:59.000Z</time>
      </trkpt>
      <trkpt lat="41.37382833" lon="1.14203667">
        <ele>529.0</ele>
        <time>2021-07-11T09:07:00.000Z</time>
      </trkpt>
      <trkpt lat="41.37382333" lon="1.14203833">
        <ele>529.0</ele>
        <time>2021-07-11T09:07:01.000Z</time>
      </trkpt>
      <trkpt lat="41.37381333" lon="1.14203833">
        <ele>529.0</ele>
        <time>2021-07-11T09:07:02.000Z</time>
      </trkpt>
      <trkpt lat="41.37380167" lon="1.14203833">
        <ele>529.0</ele>
        <time>2021-07-11T09:07:03.000Z</time>
      </trkpt>
      <trkpt lat="41.37379167" lon="1.14204">
        <ele>528.0</ele>
        <time>2021-07-11T09:07:04.000Z</time>
      </trkpt>
      <trkpt lat="41.37378" lon="1.14204167">
        <ele>528.0</ele>
        <time>2021-07-11T09:07:05.000Z</time>
      </trkpt>
      <trkpt lat="41.373765" lon="1.142045">
        <ele>528.0</ele>
        <time>2021-07-11T09:07:06.000Z</time>
      </trkpt>
      <trkpt lat="41.37375" lon="1.14204833">
        <ele>528.0</ele>
        <time>2021-07-11T09:07:07.000Z</time>
      </trkpt>
      <trkpt lat="41.373735" lon="1.14205167">
        <ele>527.0</ele>
        <time>2021-07-11T09:07:08.000Z</time>
      </trkpt>
      <trkpt lat="41.37372333" lon="1.14205333">
        <ele>527.0</ele>
        <time>2021-07-11T09:07:09.000Z</time>
      </trkpt>
      <trkpt lat="41.37371333" lon="1.14205667">
        <ele>527.0</ele>
        <time>2021-07-11T09:07:10.000Z</time>
      </trkpt>
      <trkpt lat="41.37370667" lon="1.14205667">
        <ele>527.0</ele>
        <time>2021-07-11T09:07:11.000Z</time>
      </trkpt>
      <trkpt lat="41.37369833" lon="1.14206">
        <ele>527.0</ele>
        <time>2021-07-11T09:07:12.000Z</time>
      </trkpt>
      <trkpt lat="41.37369167" lon="1.14206667">
        <ele>526.0</ele>
        <time>2021-07-11T09:07:13.000Z</time>
      </trkpt>
      <trkpt lat="41.373685" lon="1.14207333">
        <ele>526.0</ele>
        <time>2021-07-11T09:07:14.000Z</time>
      </trkpt>
      <trkpt lat="41.37367833" lon="1.14207667">
        <ele>526.0</ele>
        <time>2021-07-11T09:07:15.000Z</time>
      </trkpt>
      <trkpt lat="41.37367333" lon="1.14208">
        <ele>526.0</ele>
        <time>2021-07-11T09:07:16.000Z</time>
      </trkpt>
      <trkpt lat="41.37366833" lon="1.14208333">
        <ele>526.0</ele>
        <time>2021-07-11T09:07:17.000Z</time>
      </trkpt>
      <trkpt lat="41.373665" lon="1.14209167">
        <ele>525.0</ele>
        <time>2021-07-11T09:07:18.000Z</time>
      </trkpt>
      <trkpt lat="41.37366167" lon="1.14210333">
        <ele>525.0</ele>
        <time>2021-07-11T09:07:19.000Z</time>
      </trkpt>
      <trkpt lat="41.37365667" lon="1.14211833">
        <ele>525.0</ele>
        <time>2021-07-11T09:07:20.000Z</time>
      </trkpt>
      <trkpt lat="41.37365167" lon="1.14213167">
        <ele>525.0</ele>
        <time>2021-07-11T09:07:21.000Z</time>
      </trkpt>
      <trkpt lat="41.373645" lon="1.14214667">
        <ele>525.0</ele>
        <time>2021-07-11T09:07:22.000Z</time>
      </trkpt>
      <trkpt lat="41.37363833" lon="1.14215833">
        <ele>525.0</ele>
        <time>2021-07-11T09:07:23.000Z</time>
      </trkpt>
      <trkpt lat="41.37363667" lon="1.14217333">
        <ele>524.0</ele>
        <time>2021-07-11T09:07:24.000Z</time>
      </trkpt>
      <trkpt lat="41.37363333" lon="1.14218333">
        <ele>524.0</ele>
        <time>2021-07-11T09:07:25.000Z</time>
      </trkpt>
      <trkpt lat="41.37363167" lon="1.142195">
        <ele>524.0</ele>
        <time>2021-07-11T09:07:26.000Z</time>
      </trkpt>
      <trkpt lat="41.37362833" lon="1.14220667">
        <ele>524.0</ele>
        <time>2021-07-11T09:07:27.000Z</time>
      </trkpt>
      <trkpt lat="41.37362667" lon="1.14222">
        <ele>524.0</ele>
        <time>2021-07-11T09:07:28.000Z</time>
      </trkpt>
      <trkpt lat="41.37362333" lon="1.14222833">
        <ele>524.0</ele>
        <time>2021-07-11T09:07:29.000Z</time>
      </trkpt>
      <trkpt lat="41.37362" lon="1.14223667">
        <ele>524.0</ele>
        <time>2021-07-11T09:07:30.000Z</time>
      </trkpt>
      <trkpt lat="41.37361667" lon="1.14224667">
        <ele>524.0</ele>
        <time>2021-07-11T09:07:31.000Z</time>
      </trkpt>
      <trkpt lat="41.37361167" lon="1.14226">
        <ele>524.0</ele>
        <time>2021-07-11T09:07:32.000Z</time>
      </trkpt>
      <trkpt lat="41.37360667" lon="1.14227667">
        <ele>524.0</ele>
        <time>2021-07-11T09:07:33.000Z</time>
      </trkpt>
      <trkpt lat="41.37360333" lon="1.14229167">
        <ele>524.0</ele>
        <time>2021-07-11T09:07:34.000Z</time>
      </trkpt>
      <trkpt lat="41.37360167" lon="1.14230333">
        <ele>524.0</ele>
        <time>2021-07-11T09:07:35.000Z</time>
      </trkpt>
      <trkpt lat="41.3736" lon="1.14231667">
        <ele>524.0</ele>
        <time>2021-07-11T09:07:36.000Z</time>
      </trkpt>
      <trkpt lat="41.37359833" lon="1.14233167">
        <ele>524.0</ele>
        <time>2021-07-11T09:07:37.000Z</time>
      </trkpt>
      <trkpt lat="41.37359333" lon="1.14235">
        <ele>524.0</ele>
        <time>2021-07-11T09:07:38.000Z</time>
      </trkpt>
      <trkpt lat="41.37358833" lon="1.14236667">
        <ele>524.0</ele>
        <time>2021-07-11T09:07:39.000Z</time>
      </trkpt>
      <trkpt lat="41.37358167" lon="1.14237833">
        <ele>524.0</ele>
        <time>2021-07-11T09:07:40.000Z</time>
      </trkpt>
      <trkpt lat="41.373575" lon="1.14239333">
        <ele>524.0</ele>
        <time>2021-07-11T09:07:41.000Z</time>
      </trkpt>
      <trkpt lat="41.37357" lon="1.14240333">
        <ele>524.0</ele>
        <time>2021-07-11T09:07:42.000Z</time>
      </trkpt>
      <trkpt lat="41.373565" lon="1.14241667">
        <ele>524.0</ele>
        <time>2021-07-11T09:07:43.000Z</time>
      </trkpt>
      <trkpt lat="41.37356333" lon="1.14242667">
        <ele>524.0</ele>
        <time>2021-07-11T09:07:44.000Z</time>
      </trkpt>
      <trkpt lat="41.37356" lon="1.14243833">
        <ele>524.0</ele>
        <time>2021-07-11T09:07:45.000Z</time>
      </trkpt>
      <trkpt lat="41.37355833" lon="1.14245333">
        <ele>524.0</ele>
        <time>2021-07-11T09:07:46.000Z</time>
      </trkpt>
      <trkpt lat="41.37355667" lon="1.14246667">
        <ele>524.0</ele>
        <time>2021-07-11T09:07:47.000Z</time>
      </trkpt>
      <trkpt lat="41.373555" lon="1.14247667">
        <ele>524.0</ele>
        <time>2021-07-11T09:07:48.000Z</time>
      </trkpt>
      <trkpt lat="41.373555" lon="1.14248667">
        <ele>524.0</ele>
        <time>2021-07-11T09:07:49.000Z</time>
      </trkpt>
      <trkpt lat="41.37355333" lon="1.14249833">
        <ele>524.0</ele>
        <time>2021-07-11T09:07:50.000Z</time>
      </trkpt>
      <trkpt lat="41.37355333" lon="1.14250833">
        <ele>524.0</ele>
        <time>2021-07-11T09:07:51.000Z</time>
      </trkpt>
      <trkpt lat="41.37355333" lon="1.14251833">
        <ele>524.0</ele>
        <time>2021-07-11T09:07:52.000Z</time>
      </trkpt>
      <trkpt lat="41.37355333" lon="1.14252667">
        <ele>524.0</ele>
        <time>2021-07-11T09:07:53.000Z</time>
      </trkpt>
      <trkpt lat="41.37355333" lon="1.14253">
        <ele>524.0</ele>
        <time>2021-07-11T09:07:54.000Z</time>
      </trkpt>
      <trkpt lat="41.373555" lon="1.142535">
        <ele>524.0</ele>
        <time>2021-07-11T09:07:55.000Z</time>
      </trkpt>
      <trkpt lat="41.373555" lon="1.14253667">
        <ele>524.0</ele>
        <time>2021-07-11T09:07:56.000Z</time>
      </trkpt>
      <trkpt lat="41.373555" lon="1.14254">
        <ele>524.0</ele>
        <time>2021-07-11T09:07:57.000Z</time>
      </trkpt>
      <trkpt lat="41.37355333" lon="1.14254333">
        <ele>524.0</ele>
        <time>2021-07-11T09:07:58.000Z</time>
      </trkpt>
      <trkpt lat="41.37355333" lon="1.142545">
        <ele>524.0</ele>
        <time>2021-07-11T09:07:59.000Z</time>
      </trkpt>
      <trkpt lat="41.37355333" lon="1.14254667">
        <ele>524.0</ele>
        <time>2021-07-11T09:08:00.000Z</time>
      </trkpt>
      <trkpt lat="41.37355167" lon="1.14254667">
        <ele>524.0</ele>
        <time>2021-07-11T09:08:01.000Z</time>
      </trkpt>
      <trkpt lat="41.37355333" lon="1.14254833">
        <ele>524.0</ele>
        <time>2021-07-11T09:08:02.000Z</time>
      </trkpt>
      <trkpt lat="41.37355333" lon="1.14255">
        <ele>524.0</ele>
        <time>2021-07-11T09:08:03.000Z</time>
      </trkpt>
      <trkpt lat="41.37354833" lon="1.14255167">
        <ele>524.0</ele>
        <time>2021-07-11T09:08:04.000Z</time>
      </trkpt>
      <trkpt lat="41.373545" lon="1.14255333">
        <ele>524.0</ele>
        <time>2021-07-11T09:08:05.000Z</time>
      </trkpt>
      <trkpt lat="41.37353833" lon="1.14255833">
        <ele>524.0</ele>
        <time>2021-07-11T09:08:06.000Z</time>
      </trkpt>
      <trkpt lat="41.37353333" lon="1.14256333">
        <ele>524.0</ele>
        <time>2021-07-11T09:08:07.000Z</time>
      </trkpt>
      <trkpt lat="41.37353167" lon="1.142565">
        <ele>524.0</ele>
        <time>2021-07-11T09:08:08.000Z</time>
      </trkpt>
      <trkpt lat="41.37353167" lon="1.142565">
        <ele>524.0</ele>
        <time>2021-07-11T09:08:09.000Z</time>
      </trkpt>
      <trkpt lat="41.37353333" lon="1.14256667">
        <ele>524.0</ele>
        <time>2021-07-11T09:08:10.000Z</time>
      </trkpt>
      <trkpt lat="41.37353333" lon="1.14256667">
        <ele>524.0</ele>
        <time>2021-07-11T09:08:11.000Z</time>
      </trkpt>
      <trkpt lat="41.37353333" lon="1.14256833">
        <ele>524.0</ele>
        <time>2021-07-11T09:08:12.000Z</time>
      </trkpt>
      <trkpt lat="41.37353167" lon="1.14257">
        <ele>524.0</ele>
        <time>2021-07-11T09:08:13.000Z</time>
      </trkpt>
      <trkpt lat="41.37352833" lon="1.14257333">
        <ele>524.0</ele>
        <time>2021-07-11T09:08:14.000Z</time>
      </trkpt>
      <trkpt lat="41.37352333" lon="1.142575">
        <ele>524.0</ele>
        <time>2021-07-11T09:08:15.000Z</time>
      </trkpt>
      <trkpt lat="41.37352" lon="1.14257333">
        <ele>524.0</ele>
        <time>2021-07-11T09:08:16.000Z</time>
      </trkpt>
      <trkpt lat="41.37351667" lon="1.14257333">
        <ele>524.0</ele>
        <time>2021-07-11T09:08:17.000Z</time>
      </trkpt>
      <trkpt lat="41.37351333" lon="1.14257167">
        <ele>524.0</ele>
        <time>2021-07-11T09:08:18.000Z</time>
      </trkpt>
      <trkpt lat="41.37351" lon="1.14257">
        <ele>524.0</ele>
        <time>2021-07-11T09:08:19.000Z</time>
      </trkpt>
      <trkpt lat="41.373505" lon="1.14257">
        <ele>524.0</ele>
        <time>2021-07-11T09:08:20.000Z</time>
      </trkpt>
      <trkpt lat="41.37349833" lon="1.14256667">
        <ele>524.0</ele>
        <time>2021-07-11T09:08:21.000Z</time>
      </trkpt>
      <trkpt lat="41.37349" lon="1.14256167">
        <ele>524.0</ele>
        <time>2021-07-11T09:08:22.000Z</time>
      </trkpt>
      <trkpt lat="41.37347833" lon="1.14256">
        <ele>524.0</ele>
        <time>2021-07-11T09:08:23.000Z</time>
      </trkpt>
      <trkpt lat="41.37347" lon="1.14256167">
        <ele>523.0</ele>
        <time>2021-07-11T09:08:24.000Z</time>
      </trkpt>
      <trkpt lat="41.37346" lon="1.14256167">
        <ele>523.0</ele>
        <time>2021-07-11T09:08:25.000Z</time>
      </trkpt>
      <trkpt lat="41.37344667" lon="1.14256333">
        <ele>523.0</ele>
        <time>2021-07-11T09:08:26.000Z</time>
      </trkpt>
      <trkpt lat="41.373435" lon="1.14256833">
        <ele>523.0</ele>
        <time>2021-07-11T09:08:27.000Z</time>
      </trkpt>
      <trkpt lat="41.37342" lon="1.142575">
        <ele>523.0</ele>
        <time>2021-07-11T09:08:28.000Z</time>
      </trkpt>
      <trkpt lat="41.37340167" lon="1.142585">
        <ele>523.0</ele>
        <time>2021-07-11T09:08:29.000Z</time>
      </trkpt>
      <trkpt lat="41.373385" lon="1.14258833">
        <ele>523.0</ele>
        <time>2021-07-11T09:08:30.000Z</time>
      </trkpt>
      <trkpt lat="41.37337167" lon="1.14259167">
        <ele>523.0</ele>
        <time>2021-07-11T09:08:31.000Z</time>
      </trkpt>
      <trkpt lat="41.37336167" lon="1.14259167">
        <ele>523.0</ele>
        <time>2021-07-11T09:08:32.000Z</time>
      </trkpt>
      <trkpt lat="41.37335333" lon="1.14258833">
        <ele>523.0</ele>
        <time>2021-07-11T09:08:33.000Z</time>
      </trkpt>
      <trkpt lat="41.37334667" lon="1.142585">
        <ele>523.0</ele>
        <time>2021-07-11T09:08:34.000Z</time>
      </trkpt>
      <trkpt lat="41.37334167" lon="1.14258167">
        <ele>523.0</ele>
        <time>2021-07-11T09:08:35.000Z</time>
      </trkpt>
      <trkpt lat="41.37333333" lon="1.14258167">
        <ele>523.0</ele>
        <time>2021-07-11T09:08:36.000Z</time>
      </trkpt>
      <trkpt lat="41.37332333" lon="1.14258">
        <ele>523.0</ele>
        <time>2021-07-11T09:08:37.000Z</time>
      </trkpt>
      <trkpt lat="41.37331333" lon="1.14257667">
        <ele>523.0</ele>
        <time>2021-07-11T09:08:38.000Z</time>
      </trkpt>
      <trkpt lat="41.37330333" lon="1.14257333">
        <ele>523.0</ele>
        <time>2021-07-11T09:08:39.000Z</time>
      </trkpt>
      <trkpt lat="41.37329333" lon="1.14257167">
        <ele>523.0</ele>
        <time>2021-07-11T09:08:40.000Z</time>
      </trkpt>
      <trkpt lat="41.37328333" lon="1.14257167">
        <ele>523.0</ele>
        <time>2021-07-11T09:08:41.000Z</time>
      </trkpt>
      <trkpt lat="41.37327333" lon="1.14256833">
        <ele>523.0</ele>
        <time>2021-07-11T09:08:42.000Z</time>
      </trkpt>
      <trkpt lat="41.37326" lon="1.14256667">
        <ele>523.0</ele>
        <time>2021-07-11T09:08:43.000Z</time>
      </trkpt>
      <trkpt lat="41.37324833" lon="1.14256667">
        <ele>523.0</ele>
        <time>2021-07-11T09:08:44.000Z</time>
      </trkpt>
      <trkpt lat="41.37323167" lon="1.14256833">
        <ele>523.0</ele>
        <time>2021-07-11T09:08:45.000Z</time>
      </trkpt>
      <trkpt lat="41.37321833" lon="1.14256667">
        <ele>523.0</ele>
        <time>2021-07-11T09:08:46.000Z</time>
      </trkpt>
      <trkpt lat="41.37320833" lon="1.14256667">
        <ele>523.0</ele>
        <time>2021-07-11T09:08:47.000Z</time>
      </trkpt>
      <trkpt lat="41.37319667" lon="1.14256833">
        <ele>523.0</ele>
        <time>2021-07-11T09:08:48.000Z</time>
      </trkpt>
      <trkpt lat="41.37318667" lon="1.14257167">
        <ele>523.0</ele>
        <time>2021-07-11T09:08:49.000Z</time>
      </trkpt>
      <trkpt lat="41.37318" lon="1.14257333">
        <ele>523.0</ele>
        <time>2021-07-11T09:08:50.000Z</time>
      </trkpt>
      <trkpt lat="41.37317667" lon="1.14257667">
        <ele>523.0</ele>
        <time>2021-07-11T09:08:51.000Z</time>
      </trkpt>
      <trkpt lat="41.37317333" lon="1.14258167">
        <ele>523.0</ele>
        <time>2021-07-11T09:08:52.000Z</time>
      </trkpt>
      <trkpt lat="41.37317" lon="1.14258667">
        <ele>524.0</ele>
        <time>2021-07-11T09:08:53.000Z</time>
      </trkpt>
      <trkpt lat="41.37316667" lon="1.14259">
        <ele>524.0</ele>
        <time>2021-07-11T09:08:54.000Z</time>
      </trkpt>
      <trkpt lat="41.373165" lon="1.142595">
        <ele>524.0</ele>
        <time>2021-07-11T09:08:55.000Z</time>
      </trkpt>
      <trkpt lat="41.37316167" lon="1.1426">
        <ele>524.0</ele>
        <time>2021-07-11T09:08:56.000Z</time>
      </trkpt>
      <trkpt lat="41.37316" lon="1.14260667">
        <ele>524.0</ele>
        <time>2021-07-11T09:08:57.000Z</time>
      </trkpt>
      <trkpt lat="41.37315833" lon="1.14261">
        <ele>524.0</ele>
        <time>2021-07-11T09:08:58.000Z</time>
      </trkpt>
      <trkpt lat="41.373155" lon="1.142615">
        <ele>524.0</ele>
        <time>2021-07-11T09:08:59.000Z</time>
      </trkpt>
      <trkpt lat="41.37315333" lon="1.14262167">
        <ele>524.0</ele>
        <time>2021-07-11T09:09:00.000Z</time>
      </trkpt>
      <trkpt lat="41.37315" lon="1.14263">
        <ele>524.0</ele>
        <time>2021-07-11T09:09:01.000Z</time>
      </trkpt>
      <trkpt lat="41.37314667" lon="1.14263833">
        <ele>524.0</ele>
        <time>2021-07-11T09:09:02.000Z</time>
      </trkpt>
      <trkpt lat="41.37314333" lon="1.14265">
        <ele>524.0</ele>
        <time>2021-07-11T09:09:03.000Z</time>
      </trkpt>
      <trkpt lat="41.37313833" lon="1.14266">
        <ele>524.0</ele>
        <time>2021-07-11T09:09:04.000Z</time>
      </trkpt>
      <trkpt lat="41.37313333" lon="1.14266833">
        <ele>524.0</ele>
        <time>2021-07-11T09:09:05.000Z</time>
      </trkpt>
      <trkpt lat="41.37312667" lon="1.14267333">
        <ele>524.0</ele>
        <time>2021-07-11T09:09:06.000Z</time>
      </trkpt>
      <trkpt lat="41.37312" lon="1.14268333">
        <ele>524.0</ele>
        <time>2021-07-11T09:09:07.000Z</time>
      </trkpt>
      <trkpt lat="41.373115" lon="1.14269667">
        <ele>524.0</ele>
        <time>2021-07-11T09:09:08.000Z</time>
      </trkpt>
      <trkpt lat="41.37311" lon="1.14271">
        <ele>524.0</ele>
        <time>2021-07-11T09:09:09.000Z</time>
      </trkpt>
      <trkpt lat="41.373105" lon="1.14272167">
        <ele>523.0</ele>
        <time>2021-07-11T09:09:10.000Z</time>
      </trkpt>
      <trkpt lat="41.37309833" lon="1.14273167">
        <ele>523.0</ele>
        <time>2021-07-11T09:09:11.000Z</time>
      </trkpt>
      <trkpt lat="41.37309333" lon="1.14274333">
        <ele>523.0</ele>
        <time>2021-07-11T09:09:12.000Z</time>
      </trkpt>
      <trkpt lat="41.37309" lon="1.14275333">
        <ele>523.0</ele>
        <time>2021-07-11T09:09:13.000Z</time>
      </trkpt>
      <trkpt lat="41.37308667" lon="1.14276167">
        <ele>523.0</ele>
        <time>2021-07-11T09:09:14.000Z</time>
      </trkpt>
      <trkpt lat="41.37308333" lon="1.14277">
        <ele>524.0</ele>
        <time>2021-07-11T09:09:15.000Z</time>
      </trkpt>
      <trkpt lat="41.37307833" lon="1.14278">
        <ele>524.0</ele>
        <time>2021-07-11T09:09:16.000Z</time>
      </trkpt>
      <trkpt lat="41.37307167" lon="1.14279167">
        <ele>523.0</ele>
        <time>2021-07-11T09:09:17.000Z</time>
      </trkpt>
      <trkpt lat="41.37306667" lon="1.14280333">
        <ele>523.0</ele>
        <time>2021-07-11T09:09:18.000Z</time>
      </trkpt>
      <trkpt lat="41.37306" lon="1.14281667">
        <ele>523.0</ele>
        <time>2021-07-11T09:09:19.000Z</time>
      </trkpt>
      <trkpt lat="41.373055" lon="1.14282833">
        <ele>523.0</ele>
        <time>2021-07-11T09:09:20.000Z</time>
      </trkpt>
      <trkpt lat="41.37305167" lon="1.14283833">
        <ele>523.0</ele>
        <time>2021-07-11T09:09:21.000Z</time>
      </trkpt>
      <trkpt lat="41.37305" lon="1.14284667">
        <ele>523.0</ele>
        <time>2021-07-11T09:09:22.000Z</time>
      </trkpt>
      <trkpt lat="41.37304833" lon="1.14285167">
        <ele>523.0</ele>
        <time>2021-07-11T09:09:23.000Z</time>
      </trkpt>
      <trkpt lat="41.37305167" lon="1.142855">
        <ele>523.0</ele>
        <time>2021-07-11T09:09:24.000Z</time>
      </trkpt>
      <trkpt lat="41.373055" lon="1.14285833">
        <ele>524.0</ele>
        <time>2021-07-11T09:09:25.000Z</time>
      </trkpt>
      <trkpt lat="41.37305833" lon="1.14286167">
        <ele>524.0</ele>
        <time>2021-07-11T09:09:26.000Z</time>
      </trkpt>
      <trkpt lat="41.37305833" lon="1.142865">
        <ele>524.0</ele>
        <time>2021-07-11T09:09:27.000Z</time>
      </trkpt>
      <trkpt lat="41.37305833" lon="1.14287167">
        <ele>524.0</ele>
        <time>2021-07-11T09:09:28.000Z</time>
      </trkpt>
      <trkpt lat="41.37305667" lon="1.14288167">
        <ele>524.0</ele>
        <time>2021-07-11T09:09:29.000Z</time>
      </trkpt>
      <trkpt lat="41.37305667" lon="1.14289167">
        <ele>523.0</ele>
        <time>2021-07-11T09:09:30.000Z</time>
      </trkpt>
      <trkpt lat="41.373055" lon="1.14290333">
        <ele>523.0</ele>
        <time>2021-07-11T09:09:31.000Z</time>
      </trkpt>
      <trkpt lat="41.37305333" lon="1.14291333">
        <ele>523.0</ele>
        <time>2021-07-11T09:09:32.000Z</time>
      </trkpt>
      <trkpt lat="41.37305" lon="1.142925">
        <ele>523.0</ele>
        <time>2021-07-11T09:09:33.000Z</time>
      </trkpt>
      <trkpt lat="41.373045" lon="1.14293667">
        <ele>523.0</ele>
        <time>2021-07-11T09:09:34.000Z</time>
      </trkpt>
      <trkpt lat="41.37304167" lon="1.14294833">
        <ele>523.0</ele>
        <time>2021-07-11T09:09:35.000Z</time>
      </trkpt>
      <trkpt lat="41.37304" lon="1.14296333">
        <ele>523.0</ele>
        <time>2021-07-11T09:09:36.000Z</time>
      </trkpt>
      <trkpt lat="41.37303833" lon="1.14297333">
        <ele>523.0</ele>
        <time>2021-07-11T09:09:37.000Z</time>
      </trkpt>
      <trkpt lat="41.37303833" lon="1.14298">
        <ele>523.0</ele>
        <time>2021-07-11T09:09:38.000Z</time>
      </trkpt>
      <trkpt lat="41.37303833" lon="1.14298833">
        <ele>523.0</ele>
        <time>2021-07-11T09:09:39.000Z</time>
      </trkpt>
      <trkpt lat="41.37303833" lon="1.14299833">
        <ele>523.0</ele>
        <time>2021-07-11T09:09:40.000Z</time>
      </trkpt>
      <trkpt lat="41.37303833" lon="1.14301">
        <ele>523.0</ele>
        <time>2021-07-11T09:09:41.000Z</time>
      </trkpt>
      <trkpt lat="41.37304" lon="1.14302">
        <ele>523.0</ele>
        <time>2021-07-11T09:09:42.000Z</time>
      </trkpt>
      <trkpt lat="41.37304167" lon="1.14303167">
        <ele>523.0</ele>
        <time>2021-07-11T09:09:43.000Z</time>
      </trkpt>
      <trkpt lat="41.373045" lon="1.14304333">
        <ele>523.0</ele>
        <time>2021-07-11T09:09:44.000Z</time>
      </trkpt>
      <trkpt lat="41.37304667" lon="1.14305167">
        <ele>523.0</ele>
        <time>2021-07-11T09:09:45.000Z</time>
      </trkpt>
      <trkpt lat="41.37304833" lon="1.14305833">
        <ele>523.0</ele>
        <time>2021-07-11T09:09:46.000Z</time>
      </trkpt>
      <trkpt lat="41.37304833" lon="1.143065">
        <ele>523.0</ele>
        <time>2021-07-11T09:09:47.000Z</time>
      </trkpt>
      <trkpt lat="41.37304833" lon="1.14307333">
        <ele>523.0</ele>
        <time>2021-07-11T09:09:48.000Z</time>
      </trkpt>
      <trkpt lat="41.37304833" lon="1.143085">
        <ele>523.0</ele>
        <time>2021-07-11T09:09:49.000Z</time>
      </trkpt>
      <trkpt lat="41.37305" lon="1.14309667">
        <ele>523.0</ele>
        <time>2021-07-11T09:09:50.000Z</time>
      </trkpt>
      <trkpt lat="41.37305" lon="1.14310833">
        <ele>523.0</ele>
        <time>2021-07-11T09:09:51.000Z</time>
      </trkpt>
      <trkpt lat="41.37305167" lon="1.14312">
        <ele>523.0</ele>
        <time>2021-07-11T09:09:52.000Z</time>
      </trkpt>
      <trkpt lat="41.37305333" lon="1.14313167">
        <ele>523.0</ele>
        <time>2021-07-11T09:09:53.000Z</time>
      </trkpt>
      <trkpt lat="41.373055" lon="1.14314333">
        <ele>523.0</ele>
        <time>2021-07-11T09:09:54.000Z</time>
      </trkpt>
      <trkpt lat="41.37305667" lon="1.143155">
        <ele>523.0</ele>
        <time>2021-07-11T09:09:55.000Z</time>
      </trkpt>
      <trkpt lat="41.37305833" lon="1.143165">
        <ele>523.0</ele>
        <time>2021-07-11T09:09:56.000Z</time>
      </trkpt>
      <trkpt lat="41.37306" lon="1.14317667">
        <ele>523.0</ele>
        <time>2021-07-11T09:09:57.000Z</time>
      </trkpt>
      <trkpt lat="41.37306" lon="1.14319333">
        <ele>523.0</ele>
        <time>2021-07-11T09:09:58.000Z</time>
      </trkpt>
      <trkpt lat="41.37305833" lon="1.14320833">
        <ele>523.0</ele>
        <time>2021-07-11T09:09:59.000Z</time>
      </trkpt>
      <trkpt lat="41.37305833" lon="1.143225">
        <ele>523.0</ele>
        <time>2021-07-11T09:10:00.000Z</time>
      </trkpt>
      <trkpt lat="41.37305667" lon="1.14324167">
        <ele>523.0</ele>
        <time>2021-07-11T09:10:01.000Z</time>
      </trkpt>
      <trkpt lat="41.373055" lon="1.143255">
        <ele>523.0</ele>
        <time>2021-07-11T09:10:02.000Z</time>
      </trkpt>
      <trkpt lat="41.37305333" lon="1.143275">
        <ele>523.0</ele>
        <time>2021-07-11T09:10:03.000Z</time>
      </trkpt>
      <trkpt lat="41.37305333" lon="1.14329167">
        <ele>523.0</ele>
        <time>2021-07-11T09:10:04.000Z</time>
      </trkpt>
      <trkpt lat="41.37305333" lon="1.14331167">
        <ele>523.0</ele>
        <time>2021-07-11T09:10:05.000Z</time>
      </trkpt>
      <trkpt lat="41.37305333" lon="1.14332667">
        <ele>523.0</ele>
        <time>2021-07-11T09:10:06.000Z</time>
      </trkpt>
      <trkpt lat="41.37305333" lon="1.14334167">
        <ele>523.0</ele>
        <time>2021-07-11T09:10:07.000Z</time>
      </trkpt>
      <trkpt lat="41.37305333" lon="1.14335833">
        <ele>523.0</ele>
        <time>2021-07-11T09:10:08.000Z</time>
      </trkpt>
      <trkpt lat="41.37305167" lon="1.14337667">
        <ele>523.0</ele>
        <time>2021-07-11T09:10:09.000Z</time>
      </trkpt>
      <trkpt lat="41.37304833" lon="1.14339833">
        <ele>523.0</ele>
        <time>2021-07-11T09:10:10.000Z</time>
      </trkpt>
      <trkpt lat="41.373045" lon="1.14341667">
        <ele>523.0</ele>
        <time>2021-07-11T09:10:11.000Z</time>
      </trkpt>
      <trkpt lat="41.37304333" lon="1.143435">
        <ele>523.0</ele>
        <time>2021-07-11T09:10:12.000Z</time>
      </trkpt>
      <trkpt lat="41.37304167" lon="1.14345167">
        <ele>523.0</ele>
        <time>2021-07-11T09:10:13.000Z</time>
      </trkpt>
      <trkpt lat="41.37304" lon="1.14347">
        <ele>523.0</ele>
        <time>2021-07-11T09:10:14.000Z</time>
      </trkpt>
      <trkpt lat="41.37303833" lon="1.14349333">
        <ele>523.0</ele>
        <time>2021-07-11T09:10:15.000Z</time>
      </trkpt>
      <trkpt lat="41.37303333" lon="1.143515">
        <ele>523.0</ele>
        <time>2021-07-11T09:10:16.000Z</time>
      </trkpt>
      <trkpt lat="41.37303" lon="1.143535">
        <ele>523.0</ele>
        <time>2021-07-11T09:10:17.000Z</time>
      </trkpt>
      <trkpt lat="41.373025" lon="1.14355667">
        <ele>522.0</ele>
        <time>2021-07-11T09:10:18.000Z</time>
      </trkpt>
      <trkpt lat="41.37301833" lon="1.14357667">
        <ele>522.0</ele>
        <time>2021-07-11T09:10:19.000Z</time>
      </trkpt>
      <trkpt lat="41.37301" lon="1.14359333">
        <ele>522.0</ele>
        <time>2021-07-11T09:10:20.000Z</time>
      </trkpt>
      <trkpt lat="41.37300333" lon="1.14361">
        <ele>522.0</ele>
        <time>2021-07-11T09:10:21.000Z</time>
      </trkpt>
      <trkpt lat="41.37299833" lon="1.143625">
        <ele>522.0</ele>
        <time>2021-07-11T09:10:22.000Z</time>
      </trkpt>
      <trkpt lat="41.37299333" lon="1.14364">
        <ele>522.0</ele>
        <time>2021-07-11T09:10:23.000Z</time>
      </trkpt>
      <trkpt lat="41.37299" lon="1.14365333">
        <ele>522.0</ele>
        <time>2021-07-11T09:10:24.000Z</time>
      </trkpt>
      <trkpt lat="41.37299" lon="1.14366833">
        <ele>522.0</ele>
        <time>2021-07-11T09:10:25.000Z</time>
      </trkpt>
      <trkpt lat="41.37298833" lon="1.14368">
        <ele>522.0</ele>
        <time>2021-07-11T09:10:26.000Z</time>
      </trkpt>
      <trkpt lat="41.37298667" lon="1.14369">
        <ele>522.0</ele>
        <time>2021-07-11T09:10:27.000Z</time>
      </trkpt>
      <trkpt lat="41.372985" lon="1.14369833">
        <ele>522.0</ele>
        <time>2021-07-11T09:10:28.000Z</time>
      </trkpt>
      <trkpt lat="41.37298167" lon="1.14370667">
        <ele>522.0</ele>
        <time>2021-07-11T09:10:29.000Z</time>
      </trkpt>
      <trkpt lat="41.37298167" lon="1.14372">
        <ele>522.0</ele>
        <time>2021-07-11T09:10:30.000Z</time>
      </trkpt>
      <trkpt lat="41.37298167" lon="1.14373333">
        <ele>522.0</ele>
        <time>2021-07-11T09:10:31.000Z</time>
      </trkpt>
      <trkpt lat="41.37298" lon="1.14374833">
        <ele>522.0</ele>
        <time>2021-07-11T09:10:32.000Z</time>
      </trkpt>
      <trkpt lat="41.37297833" lon="1.14376167">
        <ele>522.0</ele>
        <time>2021-07-11T09:10:33.000Z</time>
      </trkpt>
      <trkpt lat="41.37297667" lon="1.143775">
        <ele>522.0</ele>
        <time>2021-07-11T09:10:34.000Z</time>
      </trkpt>
      <trkpt lat="41.37297667" lon="1.143785">
        <ele>522.0</ele>
        <time>2021-07-11T09:10:35.000Z</time>
      </trkpt>
      <trkpt lat="41.37297833" lon="1.143795">
        <ele>522.0</ele>
        <time>2021-07-11T09:10:36.000Z</time>
      </trkpt>
      <trkpt lat="41.37297667" lon="1.14380333">
        <ele>522.0</ele>
        <time>2021-07-11T09:10:37.000Z</time>
      </trkpt>
      <trkpt lat="41.37297667" lon="1.143815">
        <ele>522.0</ele>
        <time>2021-07-11T09:10:38.000Z</time>
      </trkpt>
      <trkpt lat="41.37297667" lon="1.14382667">
        <ele>522.0</ele>
        <time>2021-07-11T09:10:39.000Z</time>
      </trkpt>
      <trkpt lat="41.37298" lon="1.14383333">
        <ele>522.0</ele>
        <time>2021-07-11T09:10:40.000Z</time>
      </trkpt>
      <trkpt lat="41.37298" lon="1.14384333">
        <ele>522.0</ele>
        <time>2021-07-11T09:10:41.000Z</time>
      </trkpt>
      <trkpt lat="41.37297833" lon="1.143855">
        <ele>522.0</ele>
        <time>2021-07-11T09:10:42.000Z</time>
      </trkpt>
      <trkpt lat="41.37297333" lon="1.14386333">
        <ele>522.0</ele>
        <time>2021-07-11T09:10:43.000Z</time>
      </trkpt>
      <trkpt lat="41.37297" lon="1.14386833">
        <ele>522.0</ele>
        <time>2021-07-11T09:10:44.000Z</time>
      </trkpt>
      <trkpt lat="41.372965" lon="1.143875">
        <ele>522.0</ele>
        <time>2021-07-11T09:10:45.000Z</time>
      </trkpt>
      <trkpt lat="41.37296" lon="1.14388167">
        <ele>522.0</ele>
        <time>2021-07-11T09:10:46.000Z</time>
      </trkpt>
      <trkpt lat="41.37295667" lon="1.14388833">
        <ele>522.0</ele>
        <time>2021-07-11T09:10:47.000Z</time>
      </trkpt>
      <trkpt lat="41.37295167" lon="1.143895">
        <ele>522.0</ele>
        <time>2021-07-11T09:10:48.000Z</time>
      </trkpt>
      <trkpt lat="41.37294833" lon="1.14390333">
        <ele>522.0</ele>
        <time>2021-07-11T09:10:49.000Z</time>
      </trkpt>
      <trkpt lat="41.37294333" lon="1.14391167">
        <ele>522.0</ele>
        <time>2021-07-11T09:10:50.000Z</time>
      </trkpt>
      <trkpt lat="41.372935" lon="1.14391667">
        <ele>522.0</ele>
        <time>2021-07-11T09:10:51.000Z</time>
      </trkpt>
      <trkpt lat="41.37293" lon="1.14391667">
        <ele>522.0</ele>
        <time>2021-07-11T09:10:52.000Z</time>
      </trkpt>
      <trkpt lat="41.37292667" lon="1.14391833">
        <ele>522.0</ele>
        <time>2021-07-11T09:10:53.000Z</time>
      </trkpt>
      <trkpt lat="41.372925" lon="1.14392167">
        <ele>522.0</ele>
        <time>2021-07-11T09:10:54.000Z</time>
      </trkpt>
      <trkpt lat="41.37292167" lon="1.14392667">
        <ele>522.0</ele>
        <time>2021-07-11T09:10:55.000Z</time>
      </trkpt>
      <trkpt lat="41.37291667" lon="1.143935">
        <ele>522.0</ele>
        <time>2021-07-11T09:10:56.000Z</time>
      </trkpt>
      <trkpt lat="41.37291" lon="1.143945">
        <ele>522.0</ele>
        <time>2021-07-11T09:10:57.000Z</time>
      </trkpt>
      <trkpt lat="41.372905" lon="1.143955">
        <ele>522.0</ele>
        <time>2021-07-11T09:10:58.000Z</time>
      </trkpt>
      <trkpt lat="41.37289833" lon="1.14396667">
        <ele>522.0</ele>
        <time>2021-07-11T09:10:59.000Z</time>
      </trkpt>
      <trkpt lat="41.37289833" lon="1.14396667">
        <ele>522.0</ele>
        <time>2021-07-11T09:11:01.000Z</time>
      </trkpt>
      <trkpt lat="41.37289833" lon="1.14396667">
        <ele>522.0</ele>
        <time>2021-07-11T09:11:02.000Z</time>
      </trkpt>
      <trkpt lat="41.37287167" lon="1.14401833">
        <ele>522.0</ele>
        <time>2021-07-11T09:11:03.000Z</time>
      </trkpt>
      <trkpt lat="41.37286667" lon="1.14403667">
        <ele>522.0</ele>
        <time>2021-07-11T09:11:04.000Z</time>
      </trkpt>
      <trkpt lat="41.37286333" lon="1.14405333">
        <ele>522.0</ele>
        <time>2021-07-11T09:11:05.000Z</time>
      </trkpt>
      <trkpt lat="41.37286" lon="1.14406833">
        <ele>521.0</ele>
        <time>2021-07-11T09:11:06.000Z</time>
      </trkpt>
      <trkpt lat="41.372855" lon="1.14408667">
        <ele>521.0</ele>
        <time>2021-07-11T09:11:07.000Z</time>
      </trkpt>
      <trkpt lat="41.37285" lon="1.14409667">
        <ele>521.0</ele>
        <time>2021-07-11T09:11:08.000Z</time>
      </trkpt>
      <trkpt lat="41.37284667" lon="1.14410333">
        <ele>522.0</ele>
        <time>2021-07-11T09:11:09.000Z</time>
      </trkpt>
      <trkpt lat="41.372845" lon="1.14410833">
        <ele>522.0</ele>
        <time>2021-07-11T09:11:10.000Z</time>
      </trkpt>
      <trkpt lat="41.37284333" lon="1.14411333">
        <ele>522.0</ele>
        <time>2021-07-11T09:11:11.000Z</time>
      </trkpt>
      <trkpt lat="41.37284333" lon="1.14411333">
        <ele>522.0</ele>
        <time>2021-07-11T09:11:13.000Z</time>
      </trkpt>
      <trkpt lat="41.37284333" lon="1.14411333">
        <ele>522.0</ele>
        <time>2021-07-11T09:11:14.000Z</time>
      </trkpt>
      <trkpt lat="41.37283667" lon="1.14412667">
        <ele>522.0</ele>
        <time>2021-07-11T09:11:15.000Z</time>
      </trkpt>
      <trkpt lat="41.37283333" lon="1.14413">
        <ele>523.0</ele>
        <time>2021-07-11T09:11:16.000Z</time>
      </trkpt>
      <trkpt lat="41.37283333" lon="1.14413">
        <ele>523.0</ele>
        <time>2021-07-11T09:11:18.000Z</time>
      </trkpt>
      <trkpt lat="41.37283333" lon="1.14413">
        <ele>523.0</ele>
        <time>2021-07-11T09:11:19.000Z</time>
      </trkpt>
      <trkpt lat="41.37282" lon="1.14415167">
        <ele>523.0</ele>
        <time>2021-07-11T09:11:20.000Z</time>
      </trkpt>
      <trkpt lat="41.37281833" lon="1.144155">
        <ele>523.0</ele>
        <time>2021-07-11T09:11:21.000Z</time>
      </trkpt>
      <trkpt lat="41.37281833" lon="1.14416">
        <ele>523.0</ele>
        <time>2021-07-11T09:11:22.000Z</time>
      </trkpt>
      <trkpt lat="41.37281833" lon="1.144165">
        <ele>523.0</ele>
        <time>2021-07-11T09:11:23.000Z</time>
      </trkpt>
      <trkpt lat="41.37282" lon="1.14417333">
        <ele>523.0</ele>
        <time>2021-07-11T09:11:24.000Z</time>
      </trkpt>
      <trkpt lat="41.37282167" lon="1.14418167">
        <ele>523.0</ele>
        <time>2021-07-11T09:11:25.000Z</time>
      </trkpt>
      <trkpt lat="41.37282167" lon="1.14418833">
        <ele>523.0</ele>
        <time>2021-07-11T09:11:26.000Z</time>
      </trkpt>
      <trkpt lat="41.37282333" lon="1.144195">
        <ele>523.0</ele>
        <time>2021-07-11T09:11:27.000Z</time>
      </trkpt>
      <trkpt lat="41.37282333" lon="1.14420167">
        <ele>522.0</ele>
        <time>2021-07-11T09:11:28.000Z</time>
      </trkpt>
      <trkpt lat="41.372825" lon="1.14420833">
        <ele>522.0</ele>
        <time>2021-07-11T09:11:29.000Z</time>
      </trkpt>
      <trkpt lat="41.37282667" lon="1.14421333">
        <ele>522.0</ele>
        <time>2021-07-11T09:11:30.000Z</time>
      </trkpt>
      <trkpt lat="41.37282833" lon="1.14421833">
        <ele>522.0</ele>
        <time>2021-07-11T09:11:31.000Z</time>
      </trkpt>
      <trkpt lat="41.37283333" lon="1.14422167">
        <ele>521.0</ele>
        <time>2021-07-11T09:11:32.000Z</time>
      </trkpt>
      <trkpt lat="41.37283667" lon="1.14422333">
        <ele>521.0</ele>
        <time>2021-07-11T09:11:33.000Z</time>
      </trkpt>
      <trkpt lat="41.37284167" lon="1.14422333">
        <ele>521.0</ele>
        <time>2021-07-11T09:11:34.000Z</time>
      </trkpt>
      <trkpt lat="41.372845" lon="1.14422333">
        <ele>520.0</ele>
        <time>2021-07-11T09:11:35.000Z</time>
      </trkpt>
      <trkpt lat="41.37285" lon="1.14422333">
        <ele>520.0</ele>
        <time>2021-07-11T09:11:36.000Z</time>
      </trkpt>
      <trkpt lat="41.37285667" lon="1.14422667">
        <ele>519.0</ele>
        <time>2021-07-11T09:11:37.000Z</time>
      </trkpt>
      <trkpt lat="41.372865" lon="1.14423167">
        <ele>519.0</ele>
        <time>2021-07-11T09:11:38.000Z</time>
      </trkpt>
      <trkpt lat="41.37287167" lon="1.144235">
        <ele>519.0</ele>
        <time>2021-07-11T09:11:39.000Z</time>
      </trkpt>
      <trkpt lat="41.37287667" lon="1.14423833">
        <ele>517.0</ele>
        <time>2021-07-11T09:11:40.000Z</time>
      </trkpt>
      <trkpt lat="41.37288333" lon="1.14424167">
        <ele>517.0</ele>
        <time>2021-07-11T09:11:41.000Z</time>
      </trkpt>
      <trkpt lat="41.37288833" lon="1.14424833">
        <ele>516.0</ele>
        <time>2021-07-11T09:11:42.000Z</time>
      </trkpt>
      <trkpt lat="41.37289333" lon="1.14425333">
        <ele>516.0</ele>
        <time>2021-07-11T09:11:43.000Z</time>
      </trkpt>
      <trkpt lat="41.372895" lon="1.14425833">
        <ele>516.0</ele>
        <time>2021-07-11T09:11:44.000Z</time>
      </trkpt>
      <trkpt lat="41.37289833" lon="1.14426833">
        <ele>516.0</ele>
        <time>2021-07-11T09:11:45.000Z</time>
      </trkpt>
      <trkpt lat="41.3729" lon="1.144275">
        <ele>516.0</ele>
        <time>2021-07-11T09:11:46.000Z</time>
      </trkpt>
      <trkpt lat="41.37290333" lon="1.14427833">
        <ele>516.0</ele>
        <time>2021-07-11T09:11:47.000Z</time>
      </trkpt>
      <trkpt lat="41.37291167" lon="1.14428">
        <ele>516.0</ele>
        <time>2021-07-11T09:11:48.000Z</time>
      </trkpt>
      <trkpt lat="41.372915" lon="1.144285">
        <ele>516.0</ele>
        <time>2021-07-11T09:11:49.000Z</time>
      </trkpt>
      <trkpt lat="41.372915" lon="1.14429333">
        <ele>516.0</ele>
        <time>2021-07-11T09:11:50.000Z</time>
      </trkpt>
      <trkpt lat="41.37291333" lon="1.1443">
        <ele>516.0</ele>
        <time>2021-07-11T09:11:51.000Z</time>
      </trkpt>
      <trkpt lat="41.37291167" lon="1.14430833">
        <ele>516.0</ele>
        <time>2021-07-11T09:11:52.000Z</time>
      </trkpt>
      <trkpt lat="41.37291167" lon="1.14431833">
        <ele>516.0</ele>
        <time>2021-07-11T09:11:53.000Z</time>
      </trkpt>
      <trkpt lat="41.37291" lon="1.14432833">
        <ele>516.0</ele>
        <time>2021-07-11T09:11:54.000Z</time>
      </trkpt>
      <trkpt lat="41.37291167" lon="1.14434">
        <ele>516.0</ele>
        <time>2021-07-11T09:11:55.000Z</time>
      </trkpt>
      <trkpt lat="41.37291333" lon="1.14435167">
        <ele>517.0</ele>
        <time>2021-07-11T09:11:56.000Z</time>
      </trkpt>
      <trkpt lat="41.37291333" lon="1.14436167">
        <ele>517.0</ele>
        <time>2021-07-11T09:11:57.000Z</time>
      </trkpt>
      <trkpt lat="41.37291167" lon="1.14437">
        <ele>517.0</ele>
        <time>2021-07-11T09:11:58.000Z</time>
      </trkpt>
      <trkpt lat="41.37290833" lon="1.14438">
        <ele>517.0</ele>
        <time>2021-07-11T09:11:59.000Z</time>
      </trkpt>
      <trkpt lat="41.37290167" lon="1.14439167">
        <ele>517.0</ele>
        <time>2021-07-11T09:12:00.000Z</time>
      </trkpt>
      <trkpt lat="41.3729" lon="1.14440333">
        <ele>517.0</ele>
        <time>2021-07-11T09:12:01.000Z</time>
      </trkpt>
      <trkpt lat="41.37289667" lon="1.14441667">
        <ele>517.0</ele>
        <time>2021-07-11T09:12:02.000Z</time>
      </trkpt>
      <trkpt lat="41.37289333" lon="1.14442833">
        <ele>517.0</ele>
        <time>2021-07-11T09:12:03.000Z</time>
      </trkpt>
      <trkpt lat="41.37288667" lon="1.14444">
        <ele>517.0</ele>
        <time>2021-07-11T09:12:04.000Z</time>
      </trkpt>
      <trkpt lat="41.37288167" lon="1.144455">
        <ele>517.0</ele>
        <time>2021-07-11T09:12:05.000Z</time>
      </trkpt>
      <trkpt lat="41.37287833" lon="1.14446667">
        <ele>517.0</ele>
        <time>2021-07-11T09:12:06.000Z</time>
      </trkpt>
      <trkpt lat="41.37287333" lon="1.14448333">
        <ele>517.0</ele>
        <time>2021-07-11T09:12:07.000Z</time>
      </trkpt>
      <trkpt lat="41.37287" lon="1.14449833">
        <ele>517.0</ele>
        <time>2021-07-11T09:12:08.000Z</time>
      </trkpt>
      <trkpt lat="41.37286667" lon="1.14451167">
        <ele>517.0</ele>
        <time>2021-07-11T09:12:09.000Z</time>
      </trkpt>
      <trkpt lat="41.37286167" lon="1.14452333">
        <ele>517.0</ele>
        <time>2021-07-11T09:12:10.000Z</time>
      </trkpt>
      <trkpt lat="41.372855" lon="1.14453833">
        <ele>517.0</ele>
        <time>2021-07-11T09:12:11.000Z</time>
      </trkpt>
      <trkpt lat="41.37285167" lon="1.14455167">
        <ele>518.0</ele>
        <time>2021-07-11T09:12:12.000Z</time>
      </trkpt>
      <trkpt lat="41.37284833" lon="1.14456667">
        <ele>518.0</ele>
        <time>2021-07-11T09:12:13.000Z</time>
      </trkpt>
      <trkpt lat="41.372845" lon="1.14458">
        <ele>518.0</ele>
        <time>2021-07-11T09:12:14.000Z</time>
      </trkpt>
      <trkpt lat="41.37284" lon="1.14459667">
        <ele>518.0</ele>
        <time>2021-07-11T09:12:15.000Z</time>
      </trkpt>
      <trkpt lat="41.37283" lon="1.14461667">
        <ele>518.0</ele>
        <time>2021-07-11T09:12:16.000Z</time>
      </trkpt>
      <trkpt lat="41.37282" lon="1.14463833">
        <ele>518.0</ele>
        <time>2021-07-11T09:12:17.000Z</time>
      </trkpt>
      <trkpt lat="41.37281" lon="1.144655">
        <ele>518.0</ele>
        <time>2021-07-11T09:12:18.000Z</time>
      </trkpt>
      <trkpt lat="41.37280167" lon="1.14467333">
        <ele>518.0</ele>
        <time>2021-07-11T09:12:19.000Z</time>
      </trkpt>
      <trkpt lat="41.37279167" lon="1.14469">
        <ele>518.0</ele>
        <time>2021-07-11T09:12:20.000Z</time>
      </trkpt>
      <trkpt lat="41.37278" lon="1.14470833">
        <ele>518.0</ele>
        <time>2021-07-11T09:12:21.000Z</time>
      </trkpt>
      <trkpt lat="41.372765" lon="1.14472333">
        <ele>518.0</ele>
        <time>2021-07-11T09:12:22.000Z</time>
      </trkpt>
      <trkpt lat="41.37274667" lon="1.144735">
        <ele>518.0</ele>
        <time>2021-07-11T09:12:23.000Z</time>
      </trkpt>
      <trkpt lat="41.37273167" lon="1.14474667">
        <ele>518.0</ele>
        <time>2021-07-11T09:12:24.000Z</time>
      </trkpt>
      <trkpt lat="41.37271833" lon="1.14476">
        <ele>517.0</ele>
        <time>2021-07-11T09:12:25.000Z</time>
      </trkpt>
      <trkpt lat="41.37270333" lon="1.14477667">
        <ele>517.0</ele>
        <time>2021-07-11T09:12:26.000Z</time>
      </trkpt>
      <trkpt lat="41.37269" lon="1.14479667">
        <ele>517.0</ele>
        <time>2021-07-11T09:12:27.000Z</time>
      </trkpt>
      <trkpt lat="41.37267667" lon="1.14482">
        <ele>517.0</ele>
        <time>2021-07-11T09:12:28.000Z</time>
      </trkpt>
      <trkpt lat="41.37266333" lon="1.14484">
        <ele>517.0</ele>
        <time>2021-07-11T09:12:29.000Z</time>
      </trkpt>
      <trkpt lat="41.37265167" lon="1.14486167">
        <ele>517.0</ele>
        <time>2021-07-11T09:12:30.000Z</time>
      </trkpt>
      <trkpt lat="41.37264167" lon="1.14488167">
        <ele>517.0</ele>
        <time>2021-07-11T09:12:31.000Z</time>
      </trkpt>
      <trkpt lat="41.37263167" lon="1.1449">
        <ele>517.0</ele>
        <time>2021-07-11T09:12:32.000Z</time>
      </trkpt>
      <trkpt lat="41.37262" lon="1.14491667">
        <ele>517.0</ele>
        <time>2021-07-11T09:12:33.000Z</time>
      </trkpt>
      <trkpt lat="41.37260833" lon="1.14493333">
        <ele>517.0</ele>
        <time>2021-07-11T09:12:34.000Z</time>
      </trkpt>
      <trkpt lat="41.37259667" lon="1.14495167">
        <ele>517.0</ele>
        <time>2021-07-11T09:12:35.000Z</time>
      </trkpt>
      <trkpt lat="41.37258167" lon="1.14496833">
        <ele>517.0</ele>
        <time>2021-07-11T09:12:36.000Z</time>
      </trkpt>
      <trkpt lat="41.37256833" lon="1.14498167">
        <ele>516.0</ele>
        <time>2021-07-11T09:12:37.000Z</time>
      </trkpt>
      <trkpt lat="41.372555" lon="1.144995">
        <ele>516.0</ele>
        <time>2021-07-11T09:12:38.000Z</time>
      </trkpt>
      <trkpt lat="41.37254167" lon="1.14501167">
        <ele>516.0</ele>
        <time>2021-07-11T09:12:39.000Z</time>
      </trkpt>
      <trkpt lat="41.37253167" lon="1.145025">
        <ele>516.0</ele>
        <time>2021-07-11T09:12:40.000Z</time>
      </trkpt>
      <trkpt lat="41.372525" lon="1.14503">
        <ele>516.0</ele>
        <time>2021-07-11T09:12:41.000Z</time>
      </trkpt>
      <trkpt lat="41.37252" lon="1.14503333">
        <ele>516.0</ele>
        <time>2021-07-11T09:12:42.000Z</time>
      </trkpt>
      <trkpt lat="41.37251333" lon="1.145035">
        <ele>516.0</ele>
        <time>2021-07-11T09:12:43.000Z</time>
      </trkpt>
      <trkpt lat="41.372505" lon="1.145035">
        <ele>516.0</ele>
        <time>2021-07-11T09:12:44.000Z</time>
      </trkpt>
      <trkpt lat="41.37249667" lon="1.14503333">
        <ele>516.0</ele>
        <time>2021-07-11T09:12:45.000Z</time>
      </trkpt>
      <trkpt lat="41.37248667" lon="1.145035">
        <ele>516.0</ele>
        <time>2021-07-11T09:12:46.000Z</time>
      </trkpt>
      <trkpt lat="41.37247833" lon="1.14503833">
        <ele>515.0</ele>
        <time>2021-07-11T09:12:47.000Z</time>
      </trkpt>
      <trkpt lat="41.37247167" lon="1.14504667">
        <ele>515.0</ele>
        <time>2021-07-11T09:12:48.000Z</time>
      </trkpt>
      <trkpt lat="41.37246667" lon="1.14505333">
        <ele>515.0</ele>
        <time>2021-07-11T09:12:49.000Z</time>
      </trkpt>
      <trkpt lat="41.37246333" lon="1.14506">
        <ele>515.0</ele>
        <time>2021-07-11T09:12:50.000Z</time>
      </trkpt>
      <trkpt lat="41.37246" lon="1.14506667">
        <ele>515.0</ele>
        <time>2021-07-11T09:12:51.000Z</time>
      </trkpt>
      <trkpt lat="41.37245333" lon="1.14507333">
        <ele>515.0</ele>
        <time>2021-07-11T09:12:52.000Z</time>
      </trkpt>
      <trkpt lat="41.37245" lon="1.14508">
        <ele>515.0</ele>
        <time>2021-07-11T09:12:53.000Z</time>
      </trkpt>
      <trkpt lat="41.37244833" lon="1.14508833">
        <ele>515.0</ele>
        <time>2021-07-11T09:12:54.000Z</time>
      </trkpt>
      <trkpt lat="41.372445" lon="1.145095">
        <ele>515.0</ele>
        <time>2021-07-11T09:12:55.000Z</time>
      </trkpt>
      <trkpt lat="41.37244167" lon="1.14510333">
        <ele>515.0</ele>
        <time>2021-07-11T09:12:56.000Z</time>
      </trkpt>
      <trkpt lat="41.37243333" lon="1.14511167">
        <ele>515.0</ele>
        <time>2021-07-11T09:12:57.000Z</time>
      </trkpt>
      <trkpt lat="41.37242667" lon="1.14511667">
        <ele>514.0</ele>
        <time>2021-07-11T09:12:58.000Z</time>
      </trkpt>
      <trkpt lat="41.37242" lon="1.14512167">
        <ele>514.0</ele>
        <time>2021-07-11T09:12:59.000Z</time>
      </trkpt>
      <trkpt lat="41.37241" lon="1.14513167">
        <ele>514.0</ele>
        <time>2021-07-11T09:13:00.000Z</time>
      </trkpt>
      <trkpt lat="41.3724" lon="1.14514333">
        <ele>514.0</ele>
        <time>2021-07-11T09:13:01.000Z</time>
      </trkpt>
      <trkpt lat="41.37238833" lon="1.14515333">
        <ele>514.0</ele>
        <time>2021-07-11T09:13:02.000Z</time>
      </trkpt>
      <trkpt lat="41.37237833" lon="1.145165">
        <ele>514.0</ele>
        <time>2021-07-11T09:13:03.000Z</time>
      </trkpt>
      <trkpt lat="41.37237167" lon="1.14517333">
        <ele>514.0</ele>
        <time>2021-07-11T09:13:04.000Z</time>
      </trkpt>
      <trkpt lat="41.372365" lon="1.14518333">
        <ele>514.0</ele>
        <time>2021-07-11T09:13:05.000Z</time>
      </trkpt>
      <trkpt lat="41.37235667" lon="1.14519167">
        <ele>514.0</ele>
        <time>2021-07-11T09:13:06.000Z</time>
      </trkpt>
      <trkpt lat="41.372345" lon="1.14519667">
        <ele>514.0</ele>
        <time>2021-07-11T09:13:07.000Z</time>
      </trkpt>
      <trkpt lat="41.37233" lon="1.14520167">
        <ele>514.0</ele>
        <time>2021-07-11T09:13:08.000Z</time>
      </trkpt>
      <trkpt lat="41.37231833" lon="1.14520833">
        <ele>514.0</ele>
        <time>2021-07-11T09:13:09.000Z</time>
      </trkpt>
      <trkpt lat="41.37230833" lon="1.145215">
        <ele>514.0</ele>
        <time>2021-07-11T09:13:10.000Z</time>
      </trkpt>
      <trkpt lat="41.37229667" lon="1.14522">
        <ele>514.0</ele>
        <time>2021-07-11T09:13:11.000Z</time>
      </trkpt>
      <trkpt lat="41.372285" lon="1.14522667">
        <ele>513.0</ele>
        <time>2021-07-11T09:13:12.000Z</time>
      </trkpt>
      <trkpt lat="41.37227667" lon="1.14523">
        <ele>513.0</ele>
        <time>2021-07-11T09:13:13.000Z</time>
      </trkpt>
      <trkpt lat="41.372265" lon="1.14523333">
        <ele>513.0</ele>
        <time>2021-07-11T09:13:14.000Z</time>
      </trkpt>
      <trkpt lat="41.37225667" lon="1.14524">
        <ele>513.0</ele>
        <time>2021-07-11T09:13:15.000Z</time>
      </trkpt>
      <trkpt lat="41.37224833" lon="1.14524167">
        <ele>513.0</ele>
        <time>2021-07-11T09:13:16.000Z</time>
      </trkpt>
      <trkpt lat="41.37224" lon="1.14524">
        <ele>513.0</ele>
        <time>2021-07-11T09:13:17.000Z</time>
      </trkpt>
      <trkpt lat="41.37223167" lon="1.14523667">
        <ele>513.0</ele>
        <time>2021-07-11T09:13:18.000Z</time>
      </trkpt>
      <trkpt lat="41.37222167" lon="1.14523167">
        <ele>513.0</ele>
        <time>2021-07-11T09:13:19.000Z</time>
      </trkpt>
      <trkpt lat="41.37221167" lon="1.14522167">
        <ele>513.0</ele>
        <time>2021-07-11T09:13:20.000Z</time>
      </trkpt>
      <trkpt lat="41.37220667" lon="1.14520833">
        <ele>513.0</ele>
        <time>2021-07-11T09:13:21.000Z</time>
      </trkpt>
      <trkpt lat="41.3722" lon="1.14519667">
        <ele>513.0</ele>
        <time>2021-07-11T09:13:22.000Z</time>
      </trkpt>
      <trkpt lat="41.37219" lon="1.14518833">
        <ele>512.0</ele>
        <time>2021-07-11T09:13:23.000Z</time>
      </trkpt>
      <trkpt lat="41.37218167" lon="1.14518333">
        <ele>512.0</ele>
        <time>2021-07-11T09:13:24.000Z</time>
      </trkpt>
      <trkpt lat="41.37217667" lon="1.14518">
        <ele>512.0</ele>
        <time>2021-07-11T09:13:25.000Z</time>
      </trkpt>
      <trkpt lat="41.372175" lon="1.14517667">
        <ele>512.0</ele>
        <time>2021-07-11T09:13:26.000Z</time>
      </trkpt>
      <trkpt lat="41.372175" lon="1.145175">
        <ele>511.0</ele>
        <time>2021-07-11T09:13:27.000Z</time>
      </trkpt>
      <trkpt lat="41.37217333" lon="1.145175">
        <ele>511.0</ele>
        <time>2021-07-11T09:13:28.000Z</time>
      </trkpt>
      <trkpt lat="41.37217" lon="1.14517833">
        <ele>511.0</ele>
        <time>2021-07-11T09:13:29.000Z</time>
      </trkpt>
      <trkpt lat="41.37216833" lon="1.14518">
        <ele>511.0</ele>
        <time>2021-07-11T09:13:30.000Z</time>
      </trkpt>
      <trkpt lat="41.37216833" lon="1.14518">
        <ele>511.0</ele>
        <time>2021-07-11T09:13:31.000Z</time>
      </trkpt>
      <trkpt lat="41.37216333" lon="1.14518">
        <ele>510.0</ele>
        <time>2021-07-11T09:13:32.000Z</time>
      </trkpt>
      <trkpt lat="41.37215667" lon="1.14518">
        <ele>510.0</ele>
        <time>2021-07-11T09:13:33.000Z</time>
      </trkpt>
      <trkpt lat="41.37215167" lon="1.14518167">
        <ele>510.0</ele>
        <time>2021-07-11T09:13:34.000Z</time>
      </trkpt>
      <trkpt lat="41.37214667" lon="1.14518333">
        <ele>510.0</ele>
        <time>2021-07-11T09:13:35.000Z</time>
      </trkpt>
      <trkpt lat="41.37214333" lon="1.14518667">
        <ele>510.0</ele>
        <time>2021-07-11T09:13:36.000Z</time>
      </trkpt>
      <trkpt lat="41.37214" lon="1.145195">
        <ele>510.0</ele>
        <time>2021-07-11T09:13:37.000Z</time>
      </trkpt>
      <trkpt lat="41.37213833" lon="1.14520667">
        <ele>510.0</ele>
        <time>2021-07-11T09:13:38.000Z</time>
      </trkpt>
      <trkpt lat="41.37213833" lon="1.14521833">
        <ele>510.0</ele>
        <time>2021-07-11T09:13:39.000Z</time>
      </trkpt>
      <trkpt lat="41.37214" lon="1.14523">
        <ele>510.0</ele>
        <time>2021-07-11T09:13:40.000Z</time>
      </trkpt>
      <trkpt lat="41.372145" lon="1.14524">
        <ele>510.0</ele>
        <time>2021-07-11T09:13:41.000Z</time>
      </trkpt>
      <trkpt lat="41.37214667" lon="1.145255">
        <ele>510.0</ele>
        <time>2021-07-11T09:13:42.000Z</time>
      </trkpt>
      <trkpt lat="41.37214833" lon="1.14526833">
        <ele>509.0</ele>
        <time>2021-07-11T09:13:43.000Z</time>
      </trkpt>
      <trkpt lat="41.37214667" lon="1.14527833">
        <ele>509.0</ele>
        <time>2021-07-11T09:13:44.000Z</time>
      </trkpt>
      <trkpt lat="41.37214667" lon="1.14528333">
        <ele>509.0</ele>
        <time>2021-07-11T09:13:45.000Z</time>
      </trkpt>
      <trkpt lat="41.372145" lon="1.14528667">
        <ele>509.0</ele>
        <time>2021-07-11T09:13:46.000Z</time>
      </trkpt>
      <trkpt lat="41.37214333" lon="1.14529167">
        <ele>509.0</ele>
        <time>2021-07-11T09:13:47.000Z</time>
      </trkpt>
      <trkpt lat="41.37214167" lon="1.14529833">
        <ele>508.0</ele>
        <time>2021-07-11T09:13:48.000Z</time>
      </trkpt>
      <trkpt lat="41.37214333" lon="1.14530333">
        <ele>508.0</ele>
        <time>2021-07-11T09:13:49.000Z</time>
      </trkpt>
      <trkpt lat="41.37214667" lon="1.14531167">
        <ele>508.0</ele>
        <time>2021-07-11T09:13:50.000Z</time>
      </trkpt>
      <trkpt lat="41.37215167" lon="1.14531833">
        <ele>508.0</ele>
        <time>2021-07-11T09:13:51.000Z</time>
      </trkpt>
      <trkpt lat="41.37216" lon="1.14532333">
        <ele>508.0</ele>
        <time>2021-07-11T09:13:52.000Z</time>
      </trkpt>
      <trkpt lat="41.37216667" lon="1.14533167">
        <ele>508.0</ele>
        <time>2021-07-11T09:13:53.000Z</time>
      </trkpt>
      <trkpt lat="41.37217667" lon="1.14534">
        <ele>508.0</ele>
        <time>2021-07-11T09:13:54.000Z</time>
      </trkpt>
      <trkpt lat="41.37218833" lon="1.145345">
        <ele>508.0</ele>
        <time>2021-07-11T09:13:55.000Z</time>
      </trkpt>
      <trkpt lat="41.37219667" lon="1.14535">
        <ele>508.0</ele>
        <time>2021-07-11T09:13:56.000Z</time>
      </trkpt>
      <trkpt lat="41.37220167" lon="1.14535167">
        <ele>508.0</ele>
        <time>2021-07-11T09:13:57.000Z</time>
      </trkpt>
      <trkpt lat="41.37220833" lon="1.14535333">
        <ele>508.0</ele>
        <time>2021-07-11T09:13:58.000Z</time>
      </trkpt>
      <trkpt lat="41.37221333" lon="1.14535667">
        <ele>507.0</ele>
        <time>2021-07-11T09:13:59.000Z</time>
      </trkpt>
      <trkpt lat="41.37222333" lon="1.14536167">
        <ele>507.0</ele>
        <time>2021-07-11T09:14:00.000Z</time>
      </trkpt>
      <trkpt lat="41.37223333" lon="1.14536833">
        <ele>507.0</ele>
        <time>2021-07-11T09:14:01.000Z</time>
      </trkpt>
      <trkpt lat="41.372245" lon="1.14537667">
        <ele>507.0</ele>
        <time>2021-07-11T09:14:02.000Z</time>
      </trkpt>
      <trkpt lat="41.372255" lon="1.14538333">
        <ele>507.0</ele>
        <time>2021-07-11T09:14:03.000Z</time>
      </trkpt>
      <trkpt lat="41.372265" lon="1.14539">
        <ele>507.0</ele>
        <time>2021-07-11T09:14:04.000Z</time>
      </trkpt>
      <trkpt lat="41.372275" lon="1.145395">
        <ele>507.0</ele>
        <time>2021-07-11T09:14:05.000Z</time>
      </trkpt>
      <trkpt lat="41.37229" lon="1.14539667">
        <ele>507.0</ele>
        <time>2021-07-11T09:14:06.000Z</time>
      </trkpt>
      <trkpt lat="41.372305" lon="1.14539833">
        <ele>507.0</ele>
        <time>2021-07-11T09:14:07.000Z</time>
      </trkpt>
      <trkpt lat="41.37232167" lon="1.14539833">
        <ele>506.0</ele>
        <time>2021-07-11T09:14:08.000Z</time>
      </trkpt>
      <trkpt lat="41.372335" lon="1.14540167">
        <ele>506.0</ele>
        <time>2021-07-11T09:14:09.000Z</time>
      </trkpt>
      <trkpt lat="41.37234833" lon="1.14540833">
        <ele>506.0</ele>
        <time>2021-07-11T09:14:10.000Z</time>
      </trkpt>
      <trkpt lat="41.37236" lon="1.145415">
        <ele>506.0</ele>
        <time>2021-07-11T09:14:11.000Z</time>
      </trkpt>
      <trkpt lat="41.37237167" lon="1.14542167">
        <ele>506.0</ele>
        <time>2021-07-11T09:14:12.000Z</time>
      </trkpt>
      <trkpt lat="41.37238333" lon="1.14542833">
        <ele>506.0</ele>
        <time>2021-07-11T09:14:13.000Z</time>
      </trkpt>
      <trkpt lat="41.37239333" lon="1.14543333">
        <ele>506.0</ele>
        <time>2021-07-11T09:14:14.000Z</time>
      </trkpt>
      <trkpt lat="41.3724" lon="1.14544">
        <ele>506.0</ele>
        <time>2021-07-11T09:14:15.000Z</time>
      </trkpt>
      <trkpt lat="41.372405" lon="1.145445">
        <ele>505.0</ele>
        <time>2021-07-11T09:14:16.000Z</time>
      </trkpt>
      <trkpt lat="41.37241333" lon="1.14545">
        <ele>505.0</ele>
        <time>2021-07-11T09:14:17.000Z</time>
      </trkpt>
      <trkpt lat="41.372425" lon="1.14545333">
        <ele>505.0</ele>
        <time>2021-07-11T09:14:18.000Z</time>
      </trkpt>
      <trkpt lat="41.37243833" lon="1.14545833">
        <ele>505.0</ele>
        <time>2021-07-11T09:14:19.000Z</time>
      </trkpt>
      <trkpt lat="41.37245333" lon="1.14546333">
        <ele>504.0</ele>
        <time>2021-07-11T09:14:20.000Z</time>
      </trkpt>
      <trkpt lat="41.372465" lon="1.14547167">
        <ele>504.0</ele>
        <time>2021-07-11T09:14:21.000Z</time>
      </trkpt>
      <trkpt lat="41.372475" lon="1.14548167">
        <ele>504.0</ele>
        <time>2021-07-11T09:14:22.000Z</time>
      </trkpt>
      <trkpt lat="41.37248333" lon="1.14549">
        <ele>504.0</ele>
        <time>2021-07-11T09:14:23.000Z</time>
      </trkpt>
      <trkpt lat="41.37249" lon="1.1455">
        <ele>504.0</ele>
        <time>2021-07-11T09:14:24.000Z</time>
      </trkpt>
      <trkpt lat="41.37249667" lon="1.14551167">
        <ele>504.0</ele>
        <time>2021-07-11T09:14:25.000Z</time>
      </trkpt>
      <trkpt lat="41.372505" lon="1.145525">
        <ele>504.0</ele>
        <time>2021-07-11T09:14:26.000Z</time>
      </trkpt>
      <trkpt lat="41.372515" lon="1.14554">
        <ele>504.0</ele>
        <time>2021-07-11T09:14:27.000Z</time>
      </trkpt>
      <trkpt lat="41.372525" lon="1.14555167">
        <ele>504.0</ele>
        <time>2021-07-11T09:14:28.000Z</time>
      </trkpt>
      <trkpt lat="41.37253667" lon="1.14556667">
        <ele>503.0</ele>
        <time>2021-07-11T09:14:29.000Z</time>
      </trkpt>
      <trkpt lat="41.37254667" lon="1.145585">
        <ele>503.0</ele>
        <time>2021-07-11T09:14:30.000Z</time>
      </trkpt>
      <trkpt lat="41.37255167" lon="1.14560167">
        <ele>503.0</ele>
        <time>2021-07-11T09:14:31.000Z</time>
      </trkpt>
      <trkpt lat="41.372555" lon="1.145615">
        <ele>503.0</ele>
        <time>2021-07-11T09:14:32.000Z</time>
      </trkpt>
      <trkpt lat="41.37255333" lon="1.14562667">
        <ele>503.0</ele>
        <time>2021-07-11T09:14:33.000Z</time>
      </trkpt>
      <trkpt lat="41.37254667" lon="1.145635">
        <ele>503.0</ele>
        <time>2021-07-11T09:14:34.000Z</time>
      </trkpt>
      <trkpt lat="41.37253833" lon="1.14564333">
        <ele>503.0</ele>
        <time>2021-07-11T09:14:35.000Z</time>
      </trkpt>
      <trkpt lat="41.37252833" lon="1.14565">
        <ele>503.0</ele>
        <time>2021-07-11T09:14:36.000Z</time>
      </trkpt>
      <trkpt lat="41.37252167" lon="1.14565333">
        <ele>503.0</ele>
        <time>2021-07-11T09:14:37.000Z</time>
      </trkpt>
      <trkpt lat="41.372515" lon="1.14565833">
        <ele>503.0</ele>
        <time>2021-07-11T09:14:38.000Z</time>
      </trkpt>
      <trkpt lat="41.37251" lon="1.14566167">
        <ele>503.0</ele>
        <time>2021-07-11T09:14:39.000Z</time>
      </trkpt>
      <trkpt lat="41.372505" lon="1.14566333">
        <ele>503.0</ele>
        <time>2021-07-11T09:14:40.000Z</time>
      </trkpt>
      <trkpt lat="41.37249833" lon="1.14566667">
        <ele>503.0</ele>
        <time>2021-07-11T09:14:41.000Z</time>
      </trkpt>
      <trkpt lat="41.37249" lon="1.14567">
        <ele>502.0</ele>
        <time>2021-07-11T09:14:42.000Z</time>
      </trkpt>
      <trkpt lat="41.37248" lon="1.14567">
        <ele>502.0</ele>
        <time>2021-07-11T09:14:43.000Z</time>
      </trkpt>
      <trkpt lat="41.37247167" lon="1.14567333">
        <ele>502.0</ele>
        <time>2021-07-11T09:14:44.000Z</time>
      </trkpt>
      <trkpt lat="41.37246" lon="1.14567667">
        <ele>502.0</ele>
        <time>2021-07-11T09:14:45.000Z</time>
      </trkpt>
      <trkpt lat="41.37245" lon="1.14567667">
        <ele>502.0</ele>
        <time>2021-07-11T09:14:46.000Z</time>
      </trkpt>
      <trkpt lat="41.37244" lon="1.14567667">
        <ele>502.0</ele>
        <time>2021-07-11T09:14:47.000Z</time>
      </trkpt>
      <trkpt lat="41.37243167" lon="1.14567833">
        <ele>502.0</ele>
        <time>2021-07-11T09:14:48.000Z</time>
      </trkpt>
      <trkpt lat="41.37242333" lon="1.14567833">
        <ele>502.0</ele>
        <time>2021-07-11T09:14:49.000Z</time>
      </trkpt>
      <trkpt lat="41.37241667" lon="1.145675">
        <ele>502.0</ele>
        <time>2021-07-11T09:14:50.000Z</time>
      </trkpt>
      <trkpt lat="41.37240833" lon="1.145675">
        <ele>502.0</ele>
        <time>2021-07-11T09:14:51.000Z</time>
      </trkpt>
      <trkpt lat="41.37240333" lon="1.145675">
        <ele>502.0</ele>
        <time>2021-07-11T09:14:52.000Z</time>
      </trkpt>
      <trkpt lat="41.37239833" lon="1.145675">
        <ele>502.0</ele>
        <time>2021-07-11T09:14:53.000Z</time>
      </trkpt>
      <trkpt lat="41.37239333" lon="1.145675">
        <ele>502.0</ele>
        <time>2021-07-11T09:14:54.000Z</time>
      </trkpt>
      <trkpt lat="41.372385" lon="1.14567667">
        <ele>503.0</ele>
        <time>2021-07-11T09:14:55.000Z</time>
      </trkpt>
      <trkpt lat="41.37237833" lon="1.14567833">
        <ele>503.0</ele>
        <time>2021-07-11T09:14:56.000Z</time>
      </trkpt>
      <trkpt lat="41.37237" lon="1.14568167">
        <ele>503.0</ele>
        <time>2021-07-11T09:14:57.000Z</time>
      </trkpt>
      <trkpt lat="41.37236" lon="1.14568667">
        <ele>503.0</ele>
        <time>2021-07-11T09:14:58.000Z</time>
      </trkpt>
      <trkpt lat="41.37234833" lon="1.14569167">
        <ele>503.0</ele>
        <time>2021-07-11T09:14:59.000Z</time>
      </trkpt>
      <trkpt lat="41.37233833" lon="1.14569667">
        <ele>503.0</ele>
        <time>2021-07-11T09:15:00.000Z</time>
      </trkpt>
      <trkpt lat="41.37232667" lon="1.14570167">
        <ele>503.0</ele>
        <time>2021-07-11T09:15:01.000Z</time>
      </trkpt>
      <trkpt lat="41.372315" lon="1.14570833">
        <ele>503.0</ele>
        <time>2021-07-11T09:15:02.000Z</time>
      </trkpt>
      <trkpt lat="41.37230333" lon="1.14571667">
        <ele>503.0</ele>
        <time>2021-07-11T09:15:03.000Z</time>
      </trkpt>
      <trkpt lat="41.372295" lon="1.14572333">
        <ele>503.0</ele>
        <time>2021-07-11T09:15:04.000Z</time>
      </trkpt>
      <trkpt lat="41.372285" lon="1.14573167">
        <ele>503.0</ele>
        <time>2021-07-11T09:15:05.000Z</time>
      </trkpt>
      <trkpt lat="41.372275" lon="1.14573833">
        <ele>504.0</ele>
        <time>2021-07-11T09:15:06.000Z</time>
      </trkpt>
      <trkpt lat="41.37227" lon="1.14574">
        <ele>504.0</ele>
        <time>2021-07-11T09:15:07.000Z</time>
      </trkpt>
      <trkpt lat="41.37226333" lon="1.14573833">
        <ele>504.0</ele>
        <time>2021-07-11T09:15:08.000Z</time>
      </trkpt>
      <trkpt lat="41.37225833" lon="1.14573833">
        <ele>504.0</ele>
        <time>2021-07-11T09:15:09.000Z</time>
      </trkpt>
      <trkpt lat="41.37225667" lon="1.14573833">
        <ele>504.0</ele>
        <time>2021-07-11T09:15:10.000Z</time>
      </trkpt>
      <trkpt lat="41.37225667" lon="1.14573833">
        <ele>504.0</ele>
        <time>2021-07-11T09:15:11.000Z</time>
      </trkpt>
      <trkpt lat="41.372255" lon="1.14574167">
        <ele>504.0</ele>
        <time>2021-07-11T09:15:12.000Z</time>
      </trkpt>
      <trkpt lat="41.37225667" lon="1.14574333">
        <ele>504.0</ele>
        <time>2021-07-11T09:15:13.000Z</time>
      </trkpt>
      <trkpt lat="41.37226" lon="1.14574333">
        <ele>504.0</ele>
        <time>2021-07-11T09:15:14.000Z</time>
      </trkpt>
      <trkpt lat="41.37226667" lon="1.14574167">
        <ele>504.0</ele>
        <time>2021-07-11T09:15:15.000Z</time>
      </trkpt>
      <trkpt lat="41.37227167" lon="1.14574167">
        <ele>504.0</ele>
        <time>2021-07-11T09:15:16.000Z</time>
      </trkpt>
      <trkpt lat="41.37227667" lon="1.145745">
        <ele>504.0</ele>
        <time>2021-07-11T09:15:17.000Z</time>
      </trkpt>
      <trkpt lat="41.37227833" lon="1.14575167">
        <ele>504.0</ele>
        <time>2021-07-11T09:15:18.000Z</time>
      </trkpt>
      <trkpt lat="41.37228" lon="1.14576">
        <ele>505.0</ele>
        <time>2021-07-11T09:15:19.000Z</time>
      </trkpt>
      <trkpt lat="41.37228167" lon="1.14576667">
        <ele>505.0</ele>
        <time>2021-07-11T09:15:20.000Z</time>
      </trkpt>
      <trkpt lat="41.372285" lon="1.14577333">
        <ele>505.0</ele>
        <time>2021-07-11T09:15:21.000Z</time>
      </trkpt>
      <trkpt lat="41.37229" lon="1.14578">
        <ele>505.0</ele>
        <time>2021-07-11T09:15:22.000Z</time>
      </trkpt>
      <trkpt lat="41.37229833" lon="1.14578667">
        <ele>505.0</ele>
        <time>2021-07-11T09:15:23.000Z</time>
      </trkpt>
      <trkpt lat="41.372305" lon="1.14579667">
        <ele>505.0</ele>
        <time>2021-07-11T09:15:24.000Z</time>
      </trkpt>
      <trkpt lat="41.37231333" lon="1.14580667">
        <ele>505.0</ele>
        <time>2021-07-11T09:15:25.000Z</time>
      </trkpt>
      <trkpt lat="41.37232" lon="1.14581833">
        <ele>505.0</ele>
        <time>2021-07-11T09:15:26.000Z</time>
      </trkpt>
      <trkpt lat="41.37232667" lon="1.14582833">
        <ele>505.0</ele>
        <time>2021-07-11T09:15:27.000Z</time>
      </trkpt>
      <trkpt lat="41.37233" lon="1.14583833">
        <ele>505.0</ele>
        <time>2021-07-11T09:15:28.000Z</time>
      </trkpt>
      <trkpt lat="41.37233333" lon="1.14585167">
        <ele>505.0</ele>
        <time>2021-07-11T09:15:29.000Z</time>
      </trkpt>
      <trkpt lat="41.37233333" lon="1.14586333">
        <ele>505.0</ele>
        <time>2021-07-11T09:15:30.000Z</time>
      </trkpt>
      <trkpt lat="41.37233333" lon="1.14587667">
        <ele>505.0</ele>
        <time>2021-07-11T09:15:31.000Z</time>
      </trkpt>
      <trkpt lat="41.37233333" lon="1.14589333">
        <ele>505.0</ele>
        <time>2021-07-11T09:15:32.000Z</time>
      </trkpt>
      <trkpt lat="41.37233" lon="1.14590833">
        <ele>505.0</ele>
        <time>2021-07-11T09:15:33.000Z</time>
      </trkpt>
      <trkpt lat="41.372325" lon="1.14592667">
        <ele>505.0</ele>
        <time>2021-07-11T09:15:34.000Z</time>
      </trkpt>
      <trkpt lat="41.37232167" lon="1.14594333">
        <ele>505.0</ele>
        <time>2021-07-11T09:15:35.000Z</time>
      </trkpt>
      <trkpt lat="41.37232" lon="1.14596">
        <ele>505.0</ele>
        <time>2021-07-11T09:15:36.000Z</time>
      </trkpt>
      <trkpt lat="41.37232" lon="1.145975">
        <ele>505.0</ele>
        <time>2021-07-11T09:15:37.000Z</time>
      </trkpt>
      <trkpt lat="41.37232167" lon="1.14598833">
        <ele>505.0</ele>
        <time>2021-07-11T09:15:38.000Z</time>
      </trkpt>
      <trkpt lat="41.37232333" lon="1.146005">
        <ele>505.0</ele>
        <time>2021-07-11T09:15:39.000Z</time>
      </trkpt>
      <trkpt lat="41.37232333" lon="1.14602333">
        <ele>505.0</ele>
        <time>2021-07-11T09:15:40.000Z</time>
      </trkpt>
      <trkpt lat="41.37232167" lon="1.14604167">
        <ele>505.0</ele>
        <time>2021-07-11T09:15:41.000Z</time>
      </trkpt>
      <trkpt lat="41.37232333" lon="1.14605667">
        <ele>505.0</ele>
        <time>2021-07-11T09:15:42.000Z</time>
      </trkpt>
      <trkpt lat="41.37232667" lon="1.14607333">
        <ele>505.0</ele>
        <time>2021-07-11T09:15:43.000Z</time>
      </trkpt>
      <trkpt lat="41.37233167" lon="1.14609">
        <ele>505.0</ele>
        <time>2021-07-11T09:15:44.000Z</time>
      </trkpt>
      <trkpt lat="41.37233667" lon="1.14610167">
        <ele>505.0</ele>
        <time>2021-07-11T09:15:45.000Z</time>
      </trkpt>
      <trkpt lat="41.372345" lon="1.14610833">
        <ele>505.0</ele>
        <time>2021-07-11T09:15:46.000Z</time>
      </trkpt>
      <trkpt lat="41.37235333" lon="1.14611333">
        <ele>505.0</ele>
        <time>2021-07-11T09:15:47.000Z</time>
      </trkpt>
      <trkpt lat="41.37236167" lon="1.14612167">
        <ele>505.0</ele>
        <time>2021-07-11T09:15:48.000Z</time>
      </trkpt>
      <trkpt lat="41.37237" lon="1.14612667">
        <ele>505.0</ele>
        <time>2021-07-11T09:15:49.000Z</time>
      </trkpt>
      <trkpt lat="41.37237333" lon="1.14613833">
        <ele>505.0</ele>
        <time>2021-07-11T09:15:50.000Z</time>
      </trkpt>
      <trkpt lat="41.37237667" lon="1.14614667">
        <ele>505.0</ele>
        <time>2021-07-11T09:15:51.000Z</time>
      </trkpt>
      <trkpt lat="41.37238" lon="1.14615833">
        <ele>504.0</ele>
        <time>2021-07-11T09:15:52.000Z</time>
      </trkpt>
      <trkpt lat="41.37238333" lon="1.14617">
        <ele>504.0</ele>
        <time>2021-07-11T09:15:53.000Z</time>
      </trkpt>
      <trkpt lat="41.372385" lon="1.14618167">
        <ele>504.0</ele>
        <time>2021-07-11T09:15:54.000Z</time>
      </trkpt>
      <trkpt lat="41.37238667" lon="1.146195">
        <ele>504.0</ele>
        <time>2021-07-11T09:15:55.000Z</time>
      </trkpt>
      <trkpt lat="41.372385" lon="1.14620667">
        <ele>504.0</ele>
        <time>2021-07-11T09:15:56.000Z</time>
      </trkpt>
      <trkpt lat="41.372385" lon="1.14622167">
        <ele>504.0</ele>
        <time>2021-07-11T09:15:57.000Z</time>
      </trkpt>
      <trkpt lat="41.372385" lon="1.14623667">
        <ele>504.0</ele>
        <time>2021-07-11T09:15:58.000Z</time>
      </trkpt>
      <trkpt lat="41.37238167" lon="1.146245">
        <ele>504.0</ele>
        <time>2021-07-11T09:15:59.000Z</time>
      </trkpt>
      <trkpt lat="41.372375" lon="1.14625">
        <ele>504.0</ele>
        <time>2021-07-11T09:16:00.000Z</time>
      </trkpt>
      <trkpt lat="41.37236667" lon="1.14625833">
        <ele>504.0</ele>
        <time>2021-07-11T09:16:01.000Z</time>
      </trkpt>
      <trkpt lat="41.37235833" lon="1.14626167">
        <ele>504.0</ele>
        <time>2021-07-11T09:16:02.000Z</time>
      </trkpt>
      <trkpt lat="41.37235167" lon="1.14626333">
        <ele>503.0</ele>
        <time>2021-07-11T09:16:03.000Z</time>
      </trkpt>
      <trkpt lat="41.37234833" lon="1.146265">
        <ele>503.0</ele>
        <time>2021-07-11T09:16:04.000Z</time>
      </trkpt>
      <trkpt lat="41.372345" lon="1.14626833">
        <ele>503.0</ele>
        <time>2021-07-11T09:16:05.000Z</time>
      </trkpt>
      <trkpt lat="41.372345" lon="1.14627167">
        <ele>503.0</ele>
        <time>2021-07-11T09:16:06.000Z</time>
      </trkpt>
      <trkpt lat="41.37234667" lon="1.146275">
        <ele>503.0</ele>
        <time>2021-07-11T09:16:07.000Z</time>
      </trkpt>
      <trkpt lat="41.37234833" lon="1.14627667">
        <ele>503.0</ele>
        <time>2021-07-11T09:16:08.000Z</time>
      </trkpt>
      <trkpt lat="41.37235" lon="1.14628333">
        <ele>503.0</ele>
        <time>2021-07-11T09:16:09.000Z</time>
      </trkpt>
      <trkpt lat="41.37235333" lon="1.14628333">
        <ele>503.0</ele>
        <time>2021-07-11T09:16:10.000Z</time>
      </trkpt>
      <trkpt lat="41.37235667" lon="1.14628333">
        <ele>503.0</ele>
        <time>2021-07-11T09:16:11.000Z</time>
      </trkpt>
      <trkpt lat="41.37236" lon="1.14628333">
        <ele>503.0</ele>
        <time>2021-07-11T09:16:12.000Z</time>
      </trkpt>
      <trkpt lat="41.37236167" lon="1.14628167">
        <ele>503.0</ele>
        <time>2021-07-11T09:16:13.000Z</time>
      </trkpt>
      <trkpt lat="41.372365" lon="1.14628167">
        <ele>503.0</ele>
        <time>2021-07-11T09:16:14.000Z</time>
      </trkpt>
      <trkpt lat="41.37236833" lon="1.14628167">
        <ele>503.0</ele>
        <time>2021-07-11T09:16:15.000Z</time>
      </trkpt>
      <trkpt lat="41.37236833" lon="1.14628333">
        <ele>502.0</ele>
        <time>2021-07-11T09:16:16.000Z</time>
      </trkpt>
      <trkpt lat="41.37237" lon="1.14628667">
        <ele>502.0</ele>
        <time>2021-07-11T09:16:17.000Z</time>
      </trkpt>
      <trkpt lat="41.37237" lon="1.14628833">
        <ele>502.0</ele>
        <time>2021-07-11T09:16:18.000Z</time>
      </trkpt>
      <trkpt lat="41.37237" lon="1.14629167">
        <ele>503.0</ele>
        <time>2021-07-11T09:16:19.000Z</time>
      </trkpt>
      <trkpt lat="41.37237" lon="1.14629833">
        <ele>503.0</ele>
        <time>2021-07-11T09:16:20.000Z</time>
      </trkpt>
      <trkpt lat="41.37236833" lon="1.14630667">
        <ele>503.0</ele>
        <time>2021-07-11T09:16:21.000Z</time>
      </trkpt>
      <trkpt lat="41.37237" lon="1.14630833">
        <ele>503.0</ele>
        <time>2021-07-11T09:16:22.000Z</time>
      </trkpt>
      <trkpt lat="41.37237333" lon="1.14630833">
        <ele>503.0</ele>
        <time>2021-07-11T09:16:23.000Z</time>
      </trkpt>
      <trkpt lat="41.372375" lon="1.14630833">
        <ele>503.0</ele>
        <time>2021-07-11T09:16:24.000Z</time>
      </trkpt>
      <trkpt lat="41.372375" lon="1.14631">
        <ele>503.0</ele>
        <time>2021-07-11T09:16:25.000Z</time>
      </trkpt>
      <trkpt lat="41.37237667" lon="1.14631333">
        <ele>503.0</ele>
        <time>2021-07-11T09:16:26.000Z</time>
      </trkpt>
      <trkpt lat="41.37238167" lon="1.14631833">
        <ele>503.0</ele>
        <time>2021-07-11T09:16:27.000Z</time>
      </trkpt>
      <trkpt lat="41.37238833" lon="1.146325">
        <ele>503.0</ele>
        <time>2021-07-11T09:16:28.000Z</time>
      </trkpt>
      <trkpt lat="41.37239833" lon="1.14633">
        <ele>503.0</ele>
        <time>2021-07-11T09:16:29.000Z</time>
      </trkpt>
      <trkpt lat="41.37240833" lon="1.14633167">
        <ele>503.0</ele>
        <time>2021-07-11T09:16:30.000Z</time>
      </trkpt>
      <trkpt lat="41.37242167" lon="1.14633333">
        <ele>503.0</ele>
        <time>2021-07-11T09:16:31.000Z</time>
      </trkpt>
      <trkpt lat="41.37243333" lon="1.14633333">
        <ele>503.0</ele>
        <time>2021-07-11T09:16:32.000Z</time>
      </trkpt>
      <trkpt lat="41.37244333" lon="1.14633667">
        <ele>503.0</ele>
        <time>2021-07-11T09:16:33.000Z</time>
      </trkpt>
      <trkpt lat="41.37245333" lon="1.14634333">
        <ele>503.0</ele>
        <time>2021-07-11T09:16:34.000Z</time>
      </trkpt>
      <trkpt lat="41.37246333" lon="1.14634833">
        <ele>503.0</ele>
        <time>2021-07-11T09:16:35.000Z</time>
      </trkpt>
      <trkpt lat="41.37247167" lon="1.14635667">
        <ele>503.0</ele>
        <time>2021-07-11T09:16:36.000Z</time>
      </trkpt>
      <trkpt lat="41.37247833" lon="1.14636833">
        <ele>503.0</ele>
        <time>2021-07-11T09:16:37.000Z</time>
      </trkpt>
      <trkpt lat="41.37248333" lon="1.14637833">
        <ele>503.0</ele>
        <time>2021-07-11T09:16:38.000Z</time>
      </trkpt>
      <trkpt lat="41.37248667" lon="1.14639">
        <ele>503.0</ele>
        <time>2021-07-11T09:16:39.000Z</time>
      </trkpt>
      <trkpt lat="41.37249167" lon="1.14640833">
        <ele>503.0</ele>
        <time>2021-07-11T09:16:40.000Z</time>
      </trkpt>
      <trkpt lat="41.372495" lon="1.146425">
        <ele>503.0</ele>
        <time>2021-07-11T09:16:41.000Z</time>
      </trkpt>
      <trkpt lat="41.37249667" lon="1.14644167">
        <ele>503.0</ele>
        <time>2021-07-11T09:16:42.000Z</time>
      </trkpt>
      <trkpt lat="41.3725" lon="1.14645667">
        <ele>503.0</ele>
        <time>2021-07-11T09:16:43.000Z</time>
      </trkpt>
      <trkpt lat="41.37250333" lon="1.146475">
        <ele>503.0</ele>
        <time>2021-07-11T09:16:44.000Z</time>
      </trkpt>
      <trkpt lat="41.372505" lon="1.14649333">
        <ele>503.0</ele>
        <time>2021-07-11T09:16:45.000Z</time>
      </trkpt>
      <trkpt lat="41.37250833" lon="1.14650833">
        <ele>503.0</ele>
        <time>2021-07-11T09:16:46.000Z</time>
      </trkpt>
      <trkpt lat="41.37251167" lon="1.14652333">
        <ele>503.0</ele>
        <time>2021-07-11T09:16:47.000Z</time>
      </trkpt>
      <trkpt lat="41.372515" lon="1.14653333">
        <ele>503.0</ele>
        <time>2021-07-11T09:16:48.000Z</time>
      </trkpt>
      <trkpt lat="41.37251667" lon="1.146545">
        <ele>503.0</ele>
        <time>2021-07-11T09:16:49.000Z</time>
      </trkpt>
      <trkpt lat="41.37251833" lon="1.14655833">
        <ele>503.0</ele>
        <time>2021-07-11T09:16:50.000Z</time>
      </trkpt>
      <trkpt lat="41.37252" lon="1.14657167">
        <ele>504.0</ele>
        <time>2021-07-11T09:16:51.000Z</time>
      </trkpt>
      <trkpt lat="41.37252" lon="1.146585">
        <ele>504.0</ele>
        <time>2021-07-11T09:16:52.000Z</time>
      </trkpt>
      <trkpt lat="41.372515" lon="1.1466">
        <ele>504.0</ele>
        <time>2021-07-11T09:16:53.000Z</time>
      </trkpt>
      <trkpt lat="41.37251333" lon="1.14661167">
        <ele>504.0</ele>
        <time>2021-07-11T09:16:54.000Z</time>
      </trkpt>
      <trkpt lat="41.37251167" lon="1.14662833">
        <ele>504.0</ele>
        <time>2021-07-11T09:16:55.000Z</time>
      </trkpt>
      <trkpt lat="41.37251" lon="1.14664667">
        <ele>504.0</ele>
        <time>2021-07-11T09:16:56.000Z</time>
      </trkpt>
      <trkpt lat="41.37251167" lon="1.14666167">
        <ele>504.0</ele>
        <time>2021-07-11T09:16:57.000Z</time>
      </trkpt>
      <trkpt lat="41.37251333" lon="1.14667333">
        <ele>504.0</ele>
        <time>2021-07-11T09:16:58.000Z</time>
      </trkpt>
      <trkpt lat="41.37251333" lon="1.146685">
        <ele>504.0</ele>
        <time>2021-07-11T09:16:59.000Z</time>
      </trkpt>
      <trkpt lat="41.37251167" lon="1.14669667">
        <ele>505.0</ele>
        <time>2021-07-11T09:17:00.000Z</time>
      </trkpt>
      <trkpt lat="41.37251167" lon="1.14671">
        <ele>505.0</ele>
        <time>2021-07-11T09:17:01.000Z</time>
      </trkpt>
      <trkpt lat="41.372515" lon="1.14672667">
        <ele>505.0</ele>
        <time>2021-07-11T09:17:02.000Z</time>
      </trkpt>
      <trkpt lat="41.37251833" lon="1.14674333">
        <ele>505.0</ele>
        <time>2021-07-11T09:17:03.000Z</time>
      </trkpt>
      <trkpt lat="41.37251833" lon="1.14675833">
        <ele>505.0</ele>
        <time>2021-07-11T09:17:04.000Z</time>
      </trkpt>
      <trkpt lat="41.37251667" lon="1.14677">
        <ele>505.0</ele>
        <time>2021-07-11T09:17:05.000Z</time>
      </trkpt>
      <trkpt lat="41.37251167" lon="1.146785">
        <ele>505.0</ele>
        <time>2021-07-11T09:17:06.000Z</time>
      </trkpt>
      <trkpt lat="41.37250667" lon="1.14680167">
        <ele>505.0</ele>
        <time>2021-07-11T09:17:07.000Z</time>
      </trkpt>
      <trkpt lat="41.37250167" lon="1.146815">
        <ele>505.0</ele>
        <time>2021-07-11T09:17:08.000Z</time>
      </trkpt>
      <trkpt lat="41.372495" lon="1.146825">
        <ele>506.0</ele>
        <time>2021-07-11T09:17:09.000Z</time>
      </trkpt>
      <trkpt lat="41.37248667" lon="1.14683667">
        <ele>506.0</ele>
        <time>2021-07-11T09:17:10.000Z</time>
      </trkpt>
      <trkpt lat="41.37247667" lon="1.14685333">
        <ele>506.0</ele>
        <time>2021-07-11T09:17:11.000Z</time>
      </trkpt>
      <trkpt lat="41.37246333" lon="1.14687667">
        <ele>506.0</ele>
        <time>2021-07-11T09:17:12.000Z</time>
      </trkpt>
      <trkpt lat="41.372455" lon="1.1469">
        <ele>506.0</ele>
        <time>2021-07-11T09:17:13.000Z</time>
      </trkpt>
      <trkpt lat="41.37244833" lon="1.14692333">
        <ele>506.0</ele>
        <time>2021-07-11T09:17:14.000Z</time>
      </trkpt>
      <trkpt lat="41.37244167" lon="1.14694833">
        <ele>506.0</ele>
        <time>2021-07-11T09:17:15.000Z</time>
      </trkpt>
      <trkpt lat="41.37243167" lon="1.14697">
        <ele>507.0</ele>
        <time>2021-07-11T09:17:16.000Z</time>
      </trkpt>
      <trkpt lat="41.37242333" lon="1.14698667">
        <ele>507.0</ele>
        <time>2021-07-11T09:17:17.000Z</time>
      </trkpt>
      <trkpt lat="41.37241333" lon="1.147005">
        <ele>507.0</ele>
        <time>2021-07-11T09:17:18.000Z</time>
      </trkpt>
      <trkpt lat="41.3724" lon="1.14702333">
        <ele>507.0</ele>
        <time>2021-07-11T09:17:19.000Z</time>
      </trkpt>
      <trkpt lat="41.37239" lon="1.14703833">
        <ele>507.0</ele>
        <time>2021-07-11T09:17:20.000Z</time>
      </trkpt>
      <trkpt lat="41.372385" lon="1.14705">
        <ele>507.0</ele>
        <time>2021-07-11T09:17:21.000Z</time>
      </trkpt>
      <trkpt lat="41.37238" lon="1.14706">
        <ele>507.0</ele>
        <time>2021-07-11T09:17:22.000Z</time>
      </trkpt>
      <trkpt lat="41.37237667" lon="1.14707333">
        <ele>507.0</ele>
        <time>2021-07-11T09:17:23.000Z</time>
      </trkpt>
      <trkpt lat="41.37238" lon="1.147085">
        <ele>507.0</ele>
        <time>2021-07-11T09:17:24.000Z</time>
      </trkpt>
      <trkpt lat="41.37239" lon="1.147095">
        <ele>507.0</ele>
        <time>2021-07-11T09:17:25.000Z</time>
      </trkpt>
      <trkpt lat="41.37240333" lon="1.14710333">
        <ele>507.0</ele>
        <time>2021-07-11T09:17:26.000Z</time>
      </trkpt>
      <trkpt lat="41.37241833" lon="1.14711333">
        <ele>507.0</ele>
        <time>2021-07-11T09:17:27.000Z</time>
      </trkpt>
      <trkpt lat="41.37243167" lon="1.14712333">
        <ele>508.0</ele>
        <time>2021-07-11T09:17:28.000Z</time>
      </trkpt>
      <trkpt lat="41.37244667" lon="1.14713">
        <ele>508.0</ele>
        <time>2021-07-11T09:17:29.000Z</time>
      </trkpt>
      <trkpt lat="41.37246" lon="1.147135">
        <ele>508.0</ele>
        <time>2021-07-11T09:17:30.000Z</time>
      </trkpt>
      <trkpt lat="41.37247" lon="1.14714167">
        <ele>508.0</ele>
        <time>2021-07-11T09:17:31.000Z</time>
      </trkpt>
      <trkpt lat="41.37247833" lon="1.14714833">
        <ele>508.0</ele>
        <time>2021-07-11T09:17:32.000Z</time>
      </trkpt>
      <trkpt lat="41.37249333" lon="1.14715333">
        <ele>508.0</ele>
        <time>2021-07-11T09:17:33.000Z</time>
      </trkpt>
      <trkpt lat="41.37250833" lon="1.14715833">
        <ele>508.0</ele>
        <time>2021-07-11T09:17:34.000Z</time>
      </trkpt>
      <trkpt lat="41.37252333" lon="1.147165">
        <ele>508.0</ele>
        <time>2021-07-11T09:17:35.000Z</time>
      </trkpt>
      <trkpt lat="41.37253667" lon="1.14717167">
        <ele>508.0</ele>
        <time>2021-07-11T09:17:36.000Z</time>
      </trkpt>
      <trkpt lat="41.37254833" lon="1.14718">
        <ele>508.0</ele>
        <time>2021-07-11T09:17:37.000Z</time>
      </trkpt>
      <trkpt lat="41.37256333" lon="1.14718667">
        <ele>508.0</ele>
        <time>2021-07-11T09:17:38.000Z</time>
      </trkpt>
      <trkpt lat="41.37257667" lon="1.14719333">
        <ele>508.0</ele>
        <time>2021-07-11T09:17:39.000Z</time>
      </trkpt>
      <trkpt lat="41.37259" lon="1.14720167">
        <ele>508.0</ele>
        <time>2021-07-11T09:17:40.000Z</time>
      </trkpt>
      <trkpt lat="41.372605" lon="1.14720833">
        <ele>508.0</ele>
        <time>2021-07-11T09:17:41.000Z</time>
      </trkpt>
      <trkpt lat="41.37262" lon="1.14721833">
        <ele>508.0</ele>
        <time>2021-07-11T09:17:42.000Z</time>
      </trkpt>
      <trkpt lat="41.372635" lon="1.14722667">
        <ele>509.0</ele>
        <time>2021-07-11T09:17:43.000Z</time>
      </trkpt>
      <trkpt lat="41.37265" lon="1.14723667">
        <ele>509.0</ele>
        <time>2021-07-11T09:17:44.000Z</time>
      </trkpt>
      <trkpt lat="41.37266" lon="1.147255">
        <ele>509.0</ele>
        <time>2021-07-11T09:17:45.000Z</time>
      </trkpt>
      <trkpt lat="41.37266667" lon="1.14727667">
        <ele>509.0</ele>
        <time>2021-07-11T09:17:46.000Z</time>
      </trkpt>
      <trkpt lat="41.37266667" lon="1.14727667">
        <ele>509.0</ele>
        <time>2021-07-11T09:17:49.000Z</time>
      </trkpt>
      <trkpt lat="41.37266667" lon="1.14727667">
        <ele>509.0</ele>
        <time>2021-07-11T09:17:50.000Z</time>
      </trkpt>
      <trkpt lat="41.37269333" lon="1.14739667">
        <ele>509.0</ele>
        <time>2021-07-11T09:17:51.000Z</time>
      </trkpt>
      <trkpt lat="41.37269167" lon="1.14742333">
        <ele>509.0</ele>
        <time>2021-07-11T09:17:52.000Z</time>
      </trkpt>
      <trkpt lat="41.37268833" lon="1.14745">
        <ele>509.0</ele>
        <time>2021-07-11T09:17:53.000Z</time>
      </trkpt>
      <trkpt lat="41.37268333" lon="1.14747833">
        <ele>509.0</ele>
        <time>2021-07-11T09:17:54.000Z</time>
      </trkpt>
      <trkpt lat="41.37267833" lon="1.14751">
        <ele>509.0</ele>
        <time>2021-07-11T09:17:55.000Z</time>
      </trkpt>
      <trkpt lat="41.37267333" lon="1.14754">
        <ele>509.0</ele>
        <time>2021-07-11T09:17:56.000Z</time>
      </trkpt>
      <trkpt lat="41.37267" lon="1.14757">
        <ele>509.0</ele>
        <time>2021-07-11T09:17:57.000Z</time>
      </trkpt>
      <trkpt lat="41.37266667" lon="1.1476">
        <ele>509.0</ele>
        <time>2021-07-11T09:17:58.000Z</time>
      </trkpt>
      <trkpt lat="41.37266" lon="1.14763167">
        <ele>509.0</ele>
        <time>2021-07-11T09:17:59.000Z</time>
      </trkpt>
      <trkpt lat="41.372655" lon="1.14766">
        <ele>509.0</ele>
        <time>2021-07-11T09:18:00.000Z</time>
      </trkpt>
      <trkpt lat="41.37264667" lon="1.14768833">
        <ele>509.0</ele>
        <time>2021-07-11T09:18:01.000Z</time>
      </trkpt>
      <trkpt lat="41.37263667" lon="1.147715">
        <ele>509.0</ele>
        <time>2021-07-11T09:18:02.000Z</time>
      </trkpt>
      <trkpt lat="41.37263" lon="1.14774">
        <ele>509.0</ele>
        <time>2021-07-11T09:18:03.000Z</time>
      </trkpt>
      <trkpt lat="41.37262833" lon="1.14775667">
        <ele>509.0</ele>
        <time>2021-07-11T09:18:04.000Z</time>
      </trkpt>
      <trkpt lat="41.372625" lon="1.14777333">
        <ele>509.0</ele>
        <time>2021-07-11T09:18:05.000Z</time>
      </trkpt>
      <trkpt lat="41.37262167" lon="1.14779167">
        <ele>509.0</ele>
        <time>2021-07-11T09:18:06.000Z</time>
      </trkpt>
      <trkpt lat="41.37262" lon="1.14781">
        <ele>509.0</ele>
        <time>2021-07-11T09:18:07.000Z</time>
      </trkpt>
      <trkpt lat="41.37261833" lon="1.14782833">
        <ele>509.0</ele>
        <time>2021-07-11T09:18:08.000Z</time>
      </trkpt>
      <trkpt lat="41.37261833" lon="1.14784833">
        <ele>509.0</ele>
        <time>2021-07-11T09:18:09.000Z</time>
      </trkpt>
      <trkpt lat="41.37261833" lon="1.14786833">
        <ele>509.0</ele>
        <time>2021-07-11T09:18:10.000Z</time>
      </trkpt>
      <trkpt lat="41.37261667" lon="1.14788667">
        <ele>509.0</ele>
        <time>2021-07-11T09:18:11.000Z</time>
      </trkpt>
      <trkpt lat="41.37261333" lon="1.14790667">
        <ele>509.0</ele>
        <time>2021-07-11T09:18:12.000Z</time>
      </trkpt>
      <trkpt lat="41.37261167" lon="1.14792333">
        <ele>510.0</ele>
        <time>2021-07-11T09:18:13.000Z</time>
      </trkpt>
      <trkpt lat="41.37261333" lon="1.14793833">
        <ele>509.0</ele>
        <time>2021-07-11T09:18:14.000Z</time>
      </trkpt>
      <trkpt lat="41.372615" lon="1.147955">
        <ele>509.0</ele>
        <time>2021-07-11T09:18:15.000Z</time>
      </trkpt>
      <trkpt lat="41.37262" lon="1.14797">
        <ele>509.0</ele>
        <time>2021-07-11T09:18:16.000Z</time>
      </trkpt>
      <trkpt lat="41.372625" lon="1.14798667">
        <ele>509.0</ele>
        <time>2021-07-11T09:18:17.000Z</time>
      </trkpt>
      <trkpt lat="41.37263333" lon="1.148">
        <ele>509.0</ele>
        <time>2021-07-11T09:18:18.000Z</time>
      </trkpt>
      <trkpt lat="41.37264167" lon="1.14801">
        <ele>509.0</ele>
        <time>2021-07-11T09:18:19.000Z</time>
      </trkpt>
      <trkpt lat="41.37265" lon="1.14802333">
        <ele>509.0</ele>
        <time>2021-07-11T09:18:20.000Z</time>
      </trkpt>
      <trkpt lat="41.37266167" lon="1.148035">
        <ele>509.0</ele>
        <time>2021-07-11T09:18:21.000Z</time>
      </trkpt>
      <trkpt lat="41.37267333" lon="1.14804667">
        <ele>509.0</ele>
        <time>2021-07-11T09:18:22.000Z</time>
      </trkpt>
      <trkpt lat="41.37268167" lon="1.14806333">
        <ele>509.0</ele>
        <time>2021-07-11T09:18:23.000Z</time>
      </trkpt>
      <trkpt lat="41.37268833" lon="1.14808167">
        <ele>509.0</ele>
        <time>2021-07-11T09:18:24.000Z</time>
      </trkpt>
      <trkpt lat="41.37269167" lon="1.14810333">
        <ele>509.0</ele>
        <time>2021-07-11T09:18:25.000Z</time>
      </trkpt>
      <trkpt lat="41.372695" lon="1.14812333">
        <ele>509.0</ele>
        <time>2021-07-11T09:18:26.000Z</time>
      </trkpt>
      <trkpt lat="41.37269667" lon="1.14814167">
        <ele>509.0</ele>
        <time>2021-07-11T09:18:27.000Z</time>
      </trkpt>
      <trkpt lat="41.37270167" lon="1.14816167">
        <ele>509.0</ele>
        <time>2021-07-11T09:18:28.000Z</time>
      </trkpt>
      <trkpt lat="41.37270167" lon="1.148185">
        <ele>509.0</ele>
        <time>2021-07-11T09:18:29.000Z</time>
      </trkpt>
      <trkpt lat="41.3727" lon="1.148205">
        <ele>509.0</ele>
        <time>2021-07-11T09:18:30.000Z</time>
      </trkpt>
      <trkpt lat="41.37269667" lon="1.148225">
        <ele>509.0</ele>
        <time>2021-07-11T09:18:31.000Z</time>
      </trkpt>
      <trkpt lat="41.37269" lon="1.14824667">
        <ele>509.0</ele>
        <time>2021-07-11T09:18:32.000Z</time>
      </trkpt>
      <trkpt lat="41.37268333" lon="1.14827167">
        <ele>509.0</ele>
        <time>2021-07-11T09:18:33.000Z</time>
      </trkpt>
      <trkpt lat="41.372675" lon="1.148295">
        <ele>509.0</ele>
        <time>2021-07-11T09:18:34.000Z</time>
      </trkpt>
      <trkpt lat="41.37266833" lon="1.14831667">
        <ele>509.0</ele>
        <time>2021-07-11T09:18:35.000Z</time>
      </trkpt>
      <trkpt lat="41.37266333" lon="1.14834">
        <ele>509.0</ele>
        <time>2021-07-11T09:18:36.000Z</time>
      </trkpt>
      <trkpt lat="41.37266" lon="1.14836167">
        <ele>509.0</ele>
        <time>2021-07-11T09:18:37.000Z</time>
      </trkpt>
      <trkpt lat="41.37265833" lon="1.14838167">
        <ele>509.0</ele>
        <time>2021-07-11T09:18:38.000Z</time>
      </trkpt>
      <trkpt lat="41.37266" lon="1.14839833">
        <ele>509.0</ele>
        <time>2021-07-11T09:18:39.000Z</time>
      </trkpt>
      <trkpt lat="41.37266333" lon="1.14841667">
        <ele>509.0</ele>
        <time>2021-07-11T09:18:40.000Z</time>
      </trkpt>
      <trkpt lat="41.372665" lon="1.14843333">
        <ele>508.0</ele>
        <time>2021-07-11T09:18:41.000Z</time>
      </trkpt>
      <trkpt lat="41.37266667" lon="1.14845">
        <ele>508.0</ele>
        <time>2021-07-11T09:18:42.000Z</time>
      </trkpt>
      <trkpt lat="41.37266667" lon="1.14846833">
        <ele>508.0</ele>
        <time>2021-07-11T09:18:43.000Z</time>
      </trkpt>
      <trkpt lat="41.37266667" lon="1.14848333">
        <ele>508.0</ele>
        <time>2021-07-11T09:18:44.000Z</time>
      </trkpt>
      <trkpt lat="41.37266833" lon="1.14849833">
        <ele>508.0</ele>
        <time>2021-07-11T09:18:45.000Z</time>
      </trkpt>
      <trkpt lat="41.37267" lon="1.14851833">
        <ele>508.0</ele>
        <time>2021-07-11T09:18:46.000Z</time>
      </trkpt>
      <trkpt lat="41.37267167" lon="1.14853333">
        <ele>507.0</ele>
        <time>2021-07-11T09:18:47.000Z</time>
      </trkpt>
      <trkpt lat="41.372675" lon="1.14855">
        <ele>507.0</ele>
        <time>2021-07-11T09:18:48.000Z</time>
      </trkpt>
      <trkpt lat="41.37267667" lon="1.148565">
        <ele>507.0</ele>
        <time>2021-07-11T09:18:49.000Z</time>
      </trkpt>
      <trkpt lat="41.37268" lon="1.14858">
        <ele>507.0</ele>
        <time>2021-07-11T09:18:50.000Z</time>
      </trkpt>
      <trkpt lat="41.37268167" lon="1.14859667">
        <ele>507.0</ele>
        <time>2021-07-11T09:18:51.000Z</time>
      </trkpt>
      <trkpt lat="41.37268333" lon="1.14861167">
        <ele>507.0</ele>
        <time>2021-07-11T09:18:52.000Z</time>
      </trkpt>
      <trkpt lat="41.37268667" lon="1.14862667">
        <ele>506.0</ele>
        <time>2021-07-11T09:18:53.000Z</time>
      </trkpt>
      <trkpt lat="41.37269333" lon="1.14864333">
        <ele>506.0</ele>
        <time>2021-07-11T09:18:54.000Z</time>
      </trkpt>
      <trkpt lat="41.37269333" lon="1.14864333">
        <ele>506.0</ele>
        <time>2021-07-11T09:18:56.000Z</time>
      </trkpt>
      <trkpt lat="41.37269333" lon="1.14864333">
        <ele>506.0</ele>
        <time>2021-07-11T09:18:57.000Z</time>
      </trkpt>
      <trkpt lat="41.37271167" lon="1.14869667">
        <ele>506.0</ele>
        <time>2021-07-11T09:18:58.000Z</time>
      </trkpt>
      <trkpt lat="41.37271333" lon="1.14869833">
        <ele>506.0</ele>
        <time>2021-07-11T09:18:59.000Z</time>
      </trkpt>
      <trkpt lat="41.372715" lon="1.14869667">
        <ele>506.0</ele>
        <time>2021-07-11T09:19:00.000Z</time>
      </trkpt>
      <trkpt lat="41.37271833" lon="1.1487">
        <ele>506.0</ele>
        <time>2021-07-11T09:19:01.000Z</time>
      </trkpt>
      <trkpt lat="41.37272" lon="1.14871">
        <ele>506.0</ele>
        <time>2021-07-11T09:19:02.000Z</time>
      </trkpt>
      <trkpt lat="41.37272167" lon="1.14872167">
        <ele>505.0</ele>
        <time>2021-07-11T09:19:03.000Z</time>
      </trkpt>
      <trkpt lat="41.37272333" lon="1.148735">
        <ele>505.0</ele>
        <time>2021-07-11T09:19:04.000Z</time>
      </trkpt>
      <trkpt lat="41.37272667" lon="1.148745">
        <ele>505.0</ele>
        <time>2021-07-11T09:19:05.000Z</time>
      </trkpt>
      <trkpt lat="41.37272833" lon="1.148755">
        <ele>505.0</ele>
        <time>2021-07-11T09:19:06.000Z</time>
      </trkpt>
      <trkpt lat="41.37272833" lon="1.14876667">
        <ele>504.0</ele>
        <time>2021-07-11T09:19:07.000Z</time>
      </trkpt>
      <trkpt lat="41.37272833" lon="1.14878">
        <ele>503.0</ele>
        <time>2021-07-11T09:19:08.000Z</time>
      </trkpt>
      <trkpt lat="41.37272833" lon="1.14879167">
        <ele>503.0</ele>
        <time>2021-07-11T09:19:09.000Z</time>
      </trkpt>
      <trkpt lat="41.37273" lon="1.14879833">
        <ele>502.0</ele>
        <time>2021-07-11T09:19:10.000Z</time>
      </trkpt>
      <trkpt lat="41.37273" lon="1.148805">
        <ele>501.0</ele>
        <time>2021-07-11T09:19:11.000Z</time>
      </trkpt>
      <trkpt lat="41.37273" lon="1.14881167">
        <ele>501.0</ele>
        <time>2021-07-11T09:19:12.000Z</time>
      </trkpt>
      <trkpt lat="41.37272833" lon="1.14881667">
        <ele>501.0</ele>
        <time>2021-07-11T09:19:13.000Z</time>
      </trkpt>
      <trkpt lat="41.37272667" lon="1.14882667">
        <ele>501.0</ele>
        <time>2021-07-11T09:19:14.000Z</time>
      </trkpt>
      <trkpt lat="41.37272667" lon="1.14883333">
        <ele>498.0</ele>
        <time>2021-07-11T09:19:15.000Z</time>
      </trkpt>
      <trkpt lat="41.37272667" lon="1.14884167">
        <ele>498.0</ele>
        <time>2021-07-11T09:19:16.000Z</time>
      </trkpt>
      <trkpt lat="41.37273167" lon="1.14885167">
        <ele>496.0</ele>
        <time>2021-07-11T09:19:17.000Z</time>
      </trkpt>
      <trkpt lat="41.37273667" lon="1.14886333">
        <ele>496.0</ele>
        <time>2021-07-11T09:19:18.000Z</time>
      </trkpt>
      <trkpt lat="41.37273833" lon="1.148875">
        <ele>496.0</ele>
        <time>2021-07-11T09:19:19.000Z</time>
      </trkpt>
      <trkpt lat="41.37274333" lon="1.14888">
        <ele>496.0</ele>
        <time>2021-07-11T09:19:20.000Z</time>
      </trkpt>
      <trkpt lat="41.37275" lon="1.14888">
        <ele>491.0</ele>
        <time>2021-07-11T09:19:21.000Z</time>
      </trkpt>
      <trkpt lat="41.37276167" lon="1.14887833">
        <ele>491.0</ele>
        <time>2021-07-11T09:19:22.000Z</time>
      </trkpt>
      <trkpt lat="41.37277333" lon="1.14887833">
        <ele>488.0</ele>
        <time>2021-07-11T09:19:23.000Z</time>
      </trkpt>
      <trkpt lat="41.372785" lon="1.14888167">
        <ele>488.0</ele>
        <time>2021-07-11T09:19:24.000Z</time>
      </trkpt>
      <trkpt lat="41.37279667" lon="1.14888167">
        <ele>485.0</ele>
        <time>2021-07-11T09:19:25.000Z</time>
      </trkpt>
      <trkpt lat="41.372805" lon="1.148885">
        <ele>485.0</ele>
        <time>2021-07-11T09:19:26.000Z</time>
      </trkpt>
      <trkpt lat="41.37281167" lon="1.14889333">
        <ele>485.0</ele>
        <time>2021-07-11T09:19:27.000Z</time>
      </trkpt>
      <trkpt lat="41.37281667" lon="1.148905">
        <ele>481.0</ele>
        <time>2021-07-11T09:19:28.000Z</time>
      </trkpt>
      <trkpt lat="41.37281667" lon="1.14891833">
        <ele>481.0</ele>
        <time>2021-07-11T09:19:29.000Z</time>
      </trkpt>
      <trkpt lat="41.372815" lon="1.14893167">
        <ele>480.0</ele>
        <time>2021-07-11T09:19:30.000Z</time>
      </trkpt>
      <trkpt lat="41.372815" lon="1.14894833">
        <ele>480.0</ele>
        <time>2021-07-11T09:19:31.000Z</time>
      </trkpt>
      <trkpt lat="41.372815" lon="1.148965">
        <ele>480.0</ele>
        <time>2021-07-11T09:19:32.000Z</time>
      </trkpt>
      <trkpt lat="41.37281833" lon="1.14897833">
        <ele>479.0</ele>
        <time>2021-07-11T09:19:33.000Z</time>
      </trkpt>
      <trkpt lat="41.37282" lon="1.14899167">
        <ele>479.0</ele>
        <time>2021-07-11T09:19:34.000Z</time>
      </trkpt>
      <trkpt lat="41.37282167" lon="1.14900667">
        <ele>478.0</ele>
        <time>2021-07-11T09:19:35.000Z</time>
      </trkpt>
      <trkpt lat="41.372825" lon="1.14901833">
        <ele>478.0</ele>
        <time>2021-07-11T09:19:36.000Z</time>
      </trkpt>
      <trkpt lat="41.37282667" lon="1.14903">
        <ele>477.0</ele>
        <time>2021-07-11T09:19:37.000Z</time>
      </trkpt>
      <trkpt lat="41.37282833" lon="1.149045">
        <ele>477.0</ele>
        <time>2021-07-11T09:19:38.000Z</time>
      </trkpt>
      <trkpt lat="41.37283333" lon="1.149055">
        <ele>477.0</ele>
        <time>2021-07-11T09:19:39.000Z</time>
      </trkpt>
      <trkpt lat="41.37283667" lon="1.14906333">
        <ele>475.0</ele>
        <time>2021-07-11T09:19:40.000Z</time>
      </trkpt>
      <trkpt lat="41.37284167" lon="1.14907167">
        <ele>475.0</ele>
        <time>2021-07-11T09:19:41.000Z</time>
      </trkpt>
      <trkpt lat="41.37284667" lon="1.14908167">
        <ele>475.0</ele>
        <time>2021-07-11T09:19:42.000Z</time>
      </trkpt>
      <trkpt lat="41.37285" lon="1.14909167">
        <ele>475.0</ele>
        <time>2021-07-11T09:19:43.000Z</time>
      </trkpt>
      <trkpt lat="41.37285333" lon="1.14910167">
        <ele>472.0</ele>
        <time>2021-07-11T09:19:44.000Z</time>
      </trkpt>
      <trkpt lat="41.37285667" lon="1.14910833">
        <ele>472.0</ele>
        <time>2021-07-11T09:19:45.000Z</time>
      </trkpt>
      <trkpt lat="41.37286167" lon="1.14911833">
        <ele>472.0</ele>
        <time>2021-07-11T09:19:46.000Z</time>
      </trkpt>
      <trkpt lat="41.37286833" lon="1.149125">
        <ele>472.0</ele>
        <time>2021-07-11T09:19:47.000Z</time>
      </trkpt>
      <trkpt lat="41.372875" lon="1.14912667">
        <ele>467.0</ele>
        <time>2021-07-11T09:19:48.000Z</time>
      </trkpt>
      <trkpt lat="41.37288167" lon="1.14912667">
        <ele>467.0</ele>
        <time>2021-07-11T09:19:49.000Z</time>
      </trkpt>
      <trkpt lat="41.37289167" lon="1.149125">
        <ele>465.0</ele>
        <time>2021-07-11T09:19:50.000Z</time>
      </trkpt>
      <trkpt lat="41.3729" lon="1.14912667">
        <ele>465.0</ele>
        <time>2021-07-11T09:19:51.000Z</time>
      </trkpt>
      <trkpt lat="41.372905" lon="1.14913167">
        <ele>463.0</ele>
        <time>2021-07-11T09:19:52.000Z</time>
      </trkpt>
      <trkpt lat="41.37291" lon="1.14914">
        <ele>462.0</ele>
        <time>2021-07-11T09:19:53.000Z</time>
      </trkpt>
      <trkpt lat="41.37291667" lon="1.14914667">
        <ele>461.0</ele>
        <time>2021-07-11T09:19:54.000Z</time>
      </trkpt>
      <trkpt lat="41.37292333" lon="1.14915167">
        <ele>460.0</ele>
        <time>2021-07-11T09:19:55.000Z</time>
      </trkpt>
      <trkpt lat="41.37293" lon="1.14916">
        <ele>460.0</ele>
        <time>2021-07-11T09:19:56.000Z</time>
      </trkpt>
      <trkpt lat="41.37293667" lon="1.14916833">
        <ele>460.0</ele>
        <time>2021-07-11T09:19:57.000Z</time>
      </trkpt>
      <trkpt lat="41.37294333" lon="1.149175">
        <ele>457.0</ele>
        <time>2021-07-11T09:19:58.000Z</time>
      </trkpt>
      <trkpt lat="41.37294833" lon="1.14918">
        <ele>457.0</ele>
        <time>2021-07-11T09:19:59.000Z</time>
      </trkpt>
      <trkpt lat="41.37295333" lon="1.149185">
        <ele>457.0</ele>
        <time>2021-07-11T09:20:00.000Z</time>
      </trkpt>
      <trkpt lat="41.37295833" lon="1.14919333">
        <ele>457.0</ele>
        <time>2021-07-11T09:20:01.000Z</time>
      </trkpt>
      <trkpt lat="41.372965" lon="1.14919667">
        <ele>454.0</ele>
        <time>2021-07-11T09:20:02.000Z</time>
      </trkpt>
      <trkpt lat="41.37297167" lon="1.1492">
        <ele>454.0</ele>
        <time>2021-07-11T09:20:03.000Z</time>
      </trkpt>
      <trkpt lat="41.37297667" lon="1.14920333">
        <ele>454.0</ele>
        <time>2021-07-11T09:20:04.000Z</time>
      </trkpt>
      <trkpt lat="41.372985" lon="1.14920333">
        <ele>454.0</ele>
        <time>2021-07-11T09:20:05.000Z</time>
      </trkpt>
      <trkpt lat="41.372995" lon="1.1492">
        <ele>454.0</ele>
        <time>2021-07-11T09:20:06.000Z</time>
      </trkpt>
      <trkpt lat="41.37300833" lon="1.14919333">
        <ele>454.0</ele>
        <time>2021-07-11T09:20:07.000Z</time>
      </trkpt>
      <trkpt lat="41.37302" lon="1.14918667">
        <ele>454.0</ele>
        <time>2021-07-11T09:20:08.000Z</time>
      </trkpt>
      <trkpt lat="41.37303" lon="1.14918">
        <ele>454.0</ele>
        <time>2021-07-11T09:20:09.000Z</time>
      </trkpt>
      <trkpt lat="41.37304167" lon="1.149175">
        <ele>446.0</ele>
        <time>2021-07-11T09:20:10.000Z</time>
      </trkpt>
      <trkpt lat="41.37305167" lon="1.14916833">
        <ele>446.0</ele>
        <time>2021-07-11T09:20:11.000Z</time>
      </trkpt>
      <trkpt lat="41.37306" lon="1.14916333">
        <ele>446.0</ele>
        <time>2021-07-11T09:20:12.000Z</time>
      </trkpt>
      <trkpt lat="41.37306833" lon="1.14915667">
        <ele>443.0</ele>
        <time>2021-07-11T09:20:13.000Z</time>
      </trkpt>
      <trkpt lat="41.37307667" lon="1.14915333">
        <ele>442.0</ele>
        <time>2021-07-11T09:20:14.000Z</time>
      </trkpt>
      <trkpt lat="41.37308833" lon="1.14914833">
        <ele>442.0</ele>
        <time>2021-07-11T09:20:15.000Z</time>
      </trkpt>
      <trkpt lat="41.37310333" lon="1.14914333">
        <ele>440.0</ele>
        <time>2021-07-11T09:20:16.000Z</time>
      </trkpt>
      <trkpt lat="41.37311833" lon="1.14913833">
        <ele>439.0</ele>
        <time>2021-07-11T09:20:17.000Z</time>
      </trkpt>
      <trkpt lat="41.37313333" lon="1.14913167">
        <ele>438.0</ele>
        <time>2021-07-11T09:20:18.000Z</time>
      </trkpt>
      <trkpt lat="41.37314667" lon="1.14912667">
        <ele>437.0</ele>
        <time>2021-07-11T09:20:19.000Z</time>
      </trkpt>
      <trkpt lat="41.37316167" lon="1.149125">
        <ele>437.0</ele>
        <time>2021-07-11T09:20:20.000Z</time>
      </trkpt>
      <trkpt lat="41.373175" lon="1.149125">
        <ele>436.0</ele>
        <time>2021-07-11T09:20:21.000Z</time>
      </trkpt>
      <trkpt lat="41.37319167" lon="1.14913">
        <ele>435.0</ele>
        <time>2021-07-11T09:20:22.000Z</time>
      </trkpt>
      <trkpt lat="41.373205" lon="1.14913333">
        <ele>435.0</ele>
        <time>2021-07-11T09:20:23.000Z</time>
      </trkpt>
      <trkpt lat="41.37321833" lon="1.14913333">
        <ele>435.0</ele>
        <time>2021-07-11T09:20:24.000Z</time>
      </trkpt>
      <trkpt lat="41.37323167" lon="1.149135">
        <ele>435.0</ele>
        <time>2021-07-11T09:20:25.000Z</time>
      </trkpt>
      <trkpt lat="41.37324333" lon="1.14913667">
        <ele>432.0</ele>
        <time>2021-07-11T09:20:26.000Z</time>
      </trkpt>
      <trkpt lat="41.37325333" lon="1.14913667">
        <ele>432.0</ele>
        <time>2021-07-11T09:20:27.000Z</time>
      </trkpt>
      <trkpt lat="41.373265" lon="1.149135">
        <ele>431.0</ele>
        <time>2021-07-11T09:20:28.000Z</time>
      </trkpt>
      <trkpt lat="41.37327833" lon="1.14913">
        <ele>430.0</ele>
        <time>2021-07-11T09:20:29.000Z</time>
      </trkpt>
      <trkpt lat="41.37328833" lon="1.14912167">
        <ele>430.0</ele>
        <time>2021-07-11T09:20:30.000Z</time>
      </trkpt>
      <trkpt lat="41.37330167" lon="1.14911167">
        <ele>429.0</ele>
        <time>2021-07-11T09:20:31.000Z</time>
      </trkpt>
      <trkpt lat="41.37331667" lon="1.1491">
        <ele>428.0</ele>
        <time>2021-07-11T09:20:32.000Z</time>
      </trkpt>
      <trkpt lat="41.37333333" lon="1.14908833">
        <ele>427.0</ele>
        <time>2021-07-11T09:20:33.000Z</time>
      </trkpt>
      <trkpt lat="41.37334667" lon="1.149075">
        <ele>427.0</ele>
        <time>2021-07-11T09:20:34.000Z</time>
      </trkpt>
      <trkpt lat="41.37336" lon="1.14906333">
        <ele>426.0</ele>
        <time>2021-07-11T09:20:35.000Z</time>
      </trkpt>
      <trkpt lat="41.37337167" lon="1.14905667">
        <ele>426.0</ele>
        <time>2021-07-11T09:20:36.000Z</time>
      </trkpt>
      <trkpt lat="41.37338333" lon="1.14904833">
        <ele>424.0</ele>
        <time>2021-07-11T09:20:37.000Z</time>
      </trkpt>
      <trkpt lat="41.37339667" lon="1.14904">
        <ele>424.0</ele>
        <time>2021-07-11T09:20:38.000Z</time>
      </trkpt>
      <trkpt lat="41.37341" lon="1.149035">
        <ele>423.0</ele>
        <time>2021-07-11T09:20:39.000Z</time>
      </trkpt>
      <trkpt lat="41.37342" lon="1.14902667">
        <ele>422.0</ele>
        <time>2021-07-11T09:20:40.000Z</time>
      </trkpt>
      <trkpt lat="41.37343" lon="1.14902">
        <ele>422.0</ele>
        <time>2021-07-11T09:20:41.000Z</time>
      </trkpt>
      <trkpt lat="41.37344333" lon="1.14901">
        <ele>422.0</ele>
        <time>2021-07-11T09:20:42.000Z</time>
      </trkpt>
      <trkpt lat="41.373455" lon="1.14900333">
        <ele>421.0</ele>
        <time>2021-07-11T09:20:43.000Z</time>
      </trkpt>
      <trkpt lat="41.37346667" lon="1.148995">
        <ele>420.0</ele>
        <time>2021-07-11T09:20:44.000Z</time>
      </trkpt>
      <trkpt lat="41.37347833" lon="1.14899">
        <ele>420.0</ele>
        <time>2021-07-11T09:20:45.000Z</time>
      </trkpt>
      <trkpt lat="41.37349167" lon="1.14898333">
        <ele>419.0</ele>
        <time>2021-07-11T09:20:46.000Z</time>
      </trkpt>
      <trkpt lat="41.373505" lon="1.14897833">
        <ele>419.0</ele>
        <time>2021-07-11T09:20:47.000Z</time>
      </trkpt>
      <trkpt lat="41.37351833" lon="1.14896833">
        <ele>418.0</ele>
        <time>2021-07-11T09:20:48.000Z</time>
      </trkpt>
      <trkpt lat="41.37353333" lon="1.14895833">
        <ele>418.0</ele>
        <time>2021-07-11T09:20:49.000Z</time>
      </trkpt>
      <trkpt lat="41.37354833" lon="1.14895">
        <ele>417.0</ele>
        <time>2021-07-11T09:20:50.000Z</time>
      </trkpt>
      <trkpt lat="41.37356167" lon="1.14894333">
        <ele>417.0</ele>
        <time>2021-07-11T09:20:51.000Z</time>
      </trkpt>
      <trkpt lat="41.37357333" lon="1.14893833">
        <ele>416.0</ele>
        <time>2021-07-11T09:20:52.000Z</time>
      </trkpt>
      <trkpt lat="41.373585" lon="1.148935">
        <ele>416.0</ele>
        <time>2021-07-11T09:20:53.000Z</time>
      </trkpt>
      <trkpt lat="41.37359667" lon="1.14893333">
        <ele>416.0</ele>
        <time>2021-07-11T09:20:54.000Z</time>
      </trkpt>
      <trkpt lat="41.37360833" lon="1.14893333">
        <ele>415.0</ele>
        <time>2021-07-11T09:20:55.000Z</time>
      </trkpt>
      <trkpt lat="41.37362" lon="1.14893333">
        <ele>415.0</ele>
        <time>2021-07-11T09:20:56.000Z</time>
      </trkpt>
      <trkpt lat="41.37362833" lon="1.14893333">
        <ele>415.0</ele>
        <time>2021-07-11T09:20:57.000Z</time>
      </trkpt>
      <trkpt lat="41.37363667" lon="1.14893333">
        <ele>414.0</ele>
        <time>2021-07-11T09:20:58.000Z</time>
      </trkpt>
      <trkpt lat="41.37364667" lon="1.14893167">
        <ele>414.0</ele>
        <time>2021-07-11T09:20:59.000Z</time>
      </trkpt>
      <trkpt lat="41.373655" lon="1.14892833">
        <ele>413.0</ele>
        <time>2021-07-11T09:21:00.000Z</time>
      </trkpt>
      <trkpt lat="41.37366333" lon="1.14892167">
        <ele>413.0</ele>
        <time>2021-07-11T09:21:01.000Z</time>
      </trkpt>
      <trkpt lat="41.37367167" lon="1.14891667">
        <ele>412.0</ele>
        <time>2021-07-11T09:21:02.000Z</time>
      </trkpt>
      <trkpt lat="41.37368" lon="1.14891167">
        <ele>412.0</ele>
        <time>2021-07-11T09:21:03.000Z</time>
      </trkpt>
      <trkpt lat="41.37368833" lon="1.14890667">
        <ele>412.0</ele>
        <time>2021-07-11T09:21:04.000Z</time>
      </trkpt>
      <trkpt lat="41.3737" lon="1.14890167">
        <ele>412.0</ele>
        <time>2021-07-11T09:21:05.000Z</time>
      </trkpt>
      <trkpt lat="41.373715" lon="1.148895">
        <ele>412.0</ele>
        <time>2021-07-11T09:21:06.000Z</time>
      </trkpt>
      <trkpt lat="41.37373" lon="1.14889">
        <ele>411.0</ele>
        <time>2021-07-11T09:21:07.000Z</time>
      </trkpt>
      <trkpt lat="41.37374333" lon="1.14888167">
        <ele>411.0</ele>
        <time>2021-07-11T09:21:08.000Z</time>
      </trkpt>
      <trkpt lat="41.37375667" lon="1.148875">
        <ele>411.0</ele>
        <time>2021-07-11T09:21:09.000Z</time>
      </trkpt>
      <trkpt lat="41.37376833" lon="1.14887">
        <ele>411.0</ele>
        <time>2021-07-11T09:21:10.000Z</time>
      </trkpt>
      <trkpt lat="41.373775" lon="1.14886333">
        <ele>410.0</ele>
        <time>2021-07-11T09:21:11.000Z</time>
      </trkpt>
      <trkpt lat="41.37378667" lon="1.14885667">
        <ele>410.0</ele>
        <time>2021-07-11T09:21:12.000Z</time>
      </trkpt>
      <trkpt lat="41.3738" lon="1.14885">
        <ele>410.0</ele>
        <time>2021-07-11T09:21:13.000Z</time>
      </trkpt>
      <trkpt lat="41.373815" lon="1.14884">
        <ele>410.0</ele>
        <time>2021-07-11T09:21:14.000Z</time>
      </trkpt>
      <trkpt lat="41.37383167" lon="1.14882833">
        <ele>410.0</ele>
        <time>2021-07-11T09:21:15.000Z</time>
      </trkpt>
      <trkpt lat="41.37384333" lon="1.148815">
        <ele>410.0</ele>
        <time>2021-07-11T09:21:16.000Z</time>
      </trkpt>
      <trkpt lat="41.37385667" lon="1.148805">
        <ele>410.0</ele>
        <time>2021-07-11T09:21:17.000Z</time>
      </trkpt>
      <trkpt lat="41.37387" lon="1.148795">
        <ele>410.0</ele>
        <time>2021-07-11T09:21:18.000Z</time>
      </trkpt>
      <trkpt lat="41.37388167" lon="1.148785">
        <ele>409.0</ele>
        <time>2021-07-11T09:21:19.000Z</time>
      </trkpt>
      <trkpt lat="41.373895" lon="1.14877833">
        <ele>409.0</ele>
        <time>2021-07-11T09:21:20.000Z</time>
      </trkpt>
      <trkpt lat="41.37391" lon="1.14877">
        <ele>409.0</ele>
        <time>2021-07-11T09:21:21.000Z</time>
      </trkpt>
      <trkpt lat="41.37392333" lon="1.14876167">
        <ele>409.0</ele>
        <time>2021-07-11T09:21:22.000Z</time>
      </trkpt>
      <trkpt lat="41.373935" lon="1.148755">
        <ele>409.0</ele>
        <time>2021-07-11T09:21:23.000Z</time>
      </trkpt>
      <trkpt lat="41.37394667" lon="1.14875">
        <ele>409.0</ele>
        <time>2021-07-11T09:21:24.000Z</time>
      </trkpt>
      <trkpt lat="41.373955" lon="1.14874667">
        <ele>409.0</ele>
        <time>2021-07-11T09:21:25.000Z</time>
      </trkpt>
      <trkpt lat="41.373965" lon="1.14874">
        <ele>409.0</ele>
        <time>2021-07-11T09:21:26.000Z</time>
      </trkpt>
      <trkpt lat="41.37397333" lon="1.14873333">
        <ele>409.0</ele>
        <time>2021-07-11T09:21:27.000Z</time>
      </trkpt>
      <trkpt lat="41.37398167" lon="1.14872">
        <ele>409.0</ele>
        <time>2021-07-11T09:21:28.000Z</time>
      </trkpt>
      <trkpt lat="41.37399167" lon="1.14870833">
        <ele>409.0</ele>
        <time>2021-07-11T09:21:29.000Z</time>
      </trkpt>
      <trkpt lat="41.37400333" lon="1.14869333">
        <ele>409.0</ele>
        <time>2021-07-11T09:21:30.000Z</time>
      </trkpt>
      <trkpt lat="41.37401333" lon="1.14867833">
        <ele>409.0</ele>
        <time>2021-07-11T09:21:31.000Z</time>
      </trkpt>
      <trkpt lat="41.37402333" lon="1.14866667">
        <ele>409.0</ele>
        <time>2021-07-11T09:21:32.000Z</time>
      </trkpt>
      <trkpt lat="41.37403333" lon="1.14865333">
        <ele>409.0</ele>
        <time>2021-07-11T09:21:33.000Z</time>
      </trkpt>
      <trkpt lat="41.37404167" lon="1.14863667">
        <ele>409.0</ele>
        <time>2021-07-11T09:21:34.000Z</time>
      </trkpt>
      <trkpt lat="41.37405167" lon="1.14862333">
        <ele>409.0</ele>
        <time>2021-07-11T09:21:35.000Z</time>
      </trkpt>
      <trkpt lat="41.37405833" lon="1.14861">
        <ele>409.0</ele>
        <time>2021-07-11T09:21:36.000Z</time>
      </trkpt>
      <trkpt lat="41.37406667" lon="1.14859667">
        <ele>409.0</ele>
        <time>2021-07-11T09:21:37.000Z</time>
      </trkpt>
      <trkpt lat="41.37407667" lon="1.14858333">
        <ele>408.0</ele>
        <time>2021-07-11T09:21:38.000Z</time>
      </trkpt>
      <trkpt lat="41.37408833" lon="1.14857167">
        <ele>408.0</ele>
        <time>2021-07-11T09:21:39.000Z</time>
      </trkpt>
      <trkpt lat="41.37410167" lon="1.14855833">
        <ele>408.0</ele>
        <time>2021-07-11T09:21:40.000Z</time>
      </trkpt>
      <trkpt lat="41.37411667" lon="1.14854167">
        <ele>408.0</ele>
        <time>2021-07-11T09:21:41.000Z</time>
      </trkpt>
      <trkpt lat="41.374135" lon="1.14853">
        <ele>408.0</ele>
        <time>2021-07-11T09:21:42.000Z</time>
      </trkpt>
      <trkpt lat="41.37415167" lon="1.14852">
        <ele>407.0</ele>
        <time>2021-07-11T09:21:43.000Z</time>
      </trkpt>
      <trkpt lat="41.37416667" lon="1.14851">
        <ele>407.0</ele>
        <time>2021-07-11T09:21:44.000Z</time>
      </trkpt>
      <trkpt lat="41.37418333" lon="1.14849833">
        <ele>407.0</ele>
        <time>2021-07-11T09:21:45.000Z</time>
      </trkpt>
      <trkpt lat="41.37420167" lon="1.14849167">
        <ele>407.0</ele>
        <time>2021-07-11T09:21:46.000Z</time>
      </trkpt>
      <trkpt lat="41.37422" lon="1.14848667">
        <ele>406.0</ele>
        <time>2021-07-11T09:21:47.000Z</time>
      </trkpt>
      <trkpt lat="41.37423667" lon="1.148485">
        <ele>406.0</ele>
        <time>2021-07-11T09:21:48.000Z</time>
      </trkpt>
      <trkpt lat="41.37425" lon="1.14848667">
        <ele>406.0</ele>
        <time>2021-07-11T09:21:49.000Z</time>
      </trkpt>
      <trkpt lat="41.37426333" lon="1.14849">
        <ele>406.0</ele>
        <time>2021-07-11T09:21:50.000Z</time>
      </trkpt>
      <trkpt lat="41.37427833" lon="1.14849">
        <ele>406.0</ele>
        <time>2021-07-11T09:21:51.000Z</time>
      </trkpt>
      <trkpt lat="41.37429333" lon="1.14849167">
        <ele>406.0</ele>
        <time>2021-07-11T09:21:52.000Z</time>
      </trkpt>
      <trkpt lat="41.37430667" lon="1.14849167">
        <ele>405.0</ele>
        <time>2021-07-11T09:21:53.000Z</time>
      </trkpt>
      <trkpt lat="41.37432" lon="1.148495">
        <ele>405.0</ele>
        <time>2021-07-11T09:21:54.000Z</time>
      </trkpt>
      <trkpt lat="41.37433167" lon="1.14849833">
        <ele>405.0</ele>
        <time>2021-07-11T09:21:55.000Z</time>
      </trkpt>
      <trkpt lat="41.37434167" lon="1.14850167">
        <ele>405.0</ele>
        <time>2021-07-11T09:21:56.000Z</time>
      </trkpt>
      <trkpt lat="41.37435167" lon="1.14850667">
        <ele>405.0</ele>
        <time>2021-07-11T09:21:57.000Z</time>
      </trkpt>
      <trkpt lat="41.37436167" lon="1.14851333">
        <ele>405.0</ele>
        <time>2021-07-11T09:21:58.000Z</time>
      </trkpt>
      <trkpt lat="41.37437333" lon="1.14851667">
        <ele>405.0</ele>
        <time>2021-07-11T09:21:59.000Z</time>
      </trkpt>
      <trkpt lat="41.374385" lon="1.14852">
        <ele>405.0</ele>
        <time>2021-07-11T09:22:00.000Z</time>
      </trkpt>
      <trkpt lat="41.374395" lon="1.14852333">
        <ele>405.0</ele>
        <time>2021-07-11T09:22:01.000Z</time>
      </trkpt>
      <trkpt lat="41.37440833" lon="1.14852833">
        <ele>404.0</ele>
        <time>2021-07-11T09:22:02.000Z</time>
      </trkpt>
      <trkpt lat="41.37442" lon="1.14853167">
        <ele>404.0</ele>
        <time>2021-07-11T09:22:03.000Z</time>
      </trkpt>
      <trkpt lat="41.37443167" lon="1.14853667">
        <ele>404.0</ele>
        <time>2021-07-11T09:22:04.000Z</time>
      </trkpt>
      <trkpt lat="41.37444333" lon="1.14854667">
        <ele>404.0</ele>
        <time>2021-07-11T09:22:05.000Z</time>
      </trkpt>
      <trkpt lat="41.374455" lon="1.14855833">
        <ele>404.0</ele>
        <time>2021-07-11T09:22:06.000Z</time>
      </trkpt>
      <trkpt lat="41.374465" lon="1.14857333">
        <ele>404.0</ele>
        <time>2021-07-11T09:22:07.000Z</time>
      </trkpt>
      <trkpt lat="41.37447333" lon="1.14859167">
        <ele>403.0</ele>
        <time>2021-07-11T09:22:08.000Z</time>
      </trkpt>
      <trkpt lat="41.37448333" lon="1.14860667">
        <ele>403.0</ele>
        <time>2021-07-11T09:22:09.000Z</time>
      </trkpt>
      <trkpt lat="41.374495" lon="1.14861833">
        <ele>403.0</ele>
        <time>2021-07-11T09:22:10.000Z</time>
      </trkpt>
      <trkpt lat="41.374505" lon="1.14862833">
        <ele>403.0</ele>
        <time>2021-07-11T09:22:11.000Z</time>
      </trkpt>
      <trkpt lat="41.37451333" lon="1.14864167">
        <ele>403.0</ele>
        <time>2021-07-11T09:22:12.000Z</time>
      </trkpt>
      <trkpt lat="41.37452167" lon="1.14865333">
        <ele>403.0</ele>
        <time>2021-07-11T09:22:13.000Z</time>
      </trkpt>
      <trkpt lat="41.374525" lon="1.14867667">
        <ele>403.0</ele>
        <time>2021-07-11T09:22:14.000Z</time>
      </trkpt>
      <trkpt lat="41.37452833" lon="1.14869833">
        <ele>403.0</ele>
        <time>2021-07-11T09:22:15.000Z</time>
      </trkpt>
      <trkpt lat="41.374535" lon="1.14872">
        <ele>402.0</ele>
        <time>2021-07-11T09:22:16.000Z</time>
      </trkpt>
      <trkpt lat="41.37454167" lon="1.14874167">
        <ele>402.0</ele>
        <time>2021-07-11T09:22:17.000Z</time>
      </trkpt>
      <trkpt lat="41.37454667" lon="1.14876">
        <ele>402.0</ele>
        <time>2021-07-11T09:22:18.000Z</time>
      </trkpt>
      <trkpt lat="41.37455833" lon="1.14877667">
        <ele>402.0</ele>
        <time>2021-07-11T09:22:19.000Z</time>
      </trkpt>
      <trkpt lat="41.37456833" lon="1.14878667">
        <ele>402.0</ele>
        <time>2021-07-11T09:22:20.000Z</time>
      </trkpt>
      <trkpt lat="41.37457667" lon="1.14879833">
        <ele>402.0</ele>
        <time>2021-07-11T09:22:21.000Z</time>
      </trkpt>
      <trkpt lat="41.374585" lon="1.14881167">
        <ele>402.0</ele>
        <time>2021-07-11T09:22:22.000Z</time>
      </trkpt>
      <trkpt lat="41.374595" lon="1.14882833">
        <ele>402.0</ele>
        <time>2021-07-11T09:22:23.000Z</time>
      </trkpt>
      <trkpt lat="41.37460667" lon="1.14884167">
        <ele>402.0</ele>
        <time>2021-07-11T09:22:24.000Z</time>
      </trkpt>
      <trkpt lat="41.37461667" lon="1.148855">
        <ele>402.0</ele>
        <time>2021-07-11T09:22:25.000Z</time>
      </trkpt>
      <trkpt lat="41.374625" lon="1.148865">
        <ele>402.0</ele>
        <time>2021-07-11T09:22:26.000Z</time>
      </trkpt>
      <trkpt lat="41.37463333" lon="1.148875">
        <ele>402.0</ele>
        <time>2021-07-11T09:22:27.000Z</time>
      </trkpt>
      <trkpt lat="41.37464167" lon="1.14888667">
        <ele>402.0</ele>
        <time>2021-07-11T09:22:28.000Z</time>
      </trkpt>
      <trkpt lat="41.37465" lon="1.14889833">
        <ele>402.0</ele>
        <time>2021-07-11T09:22:29.000Z</time>
      </trkpt>
      <trkpt lat="41.37466" lon="1.14891167">
        <ele>402.0</ele>
        <time>2021-07-11T09:22:30.000Z</time>
      </trkpt>
      <trkpt lat="41.37466667" lon="1.14892833">
        <ele>402.0</ele>
        <time>2021-07-11T09:22:31.000Z</time>
      </trkpt>
      <trkpt lat="41.37467167" lon="1.14894667">
        <ele>402.0</ele>
        <time>2021-07-11T09:22:32.000Z</time>
      </trkpt>
      <trkpt lat="41.37467667" lon="1.148965">
        <ele>402.0</ele>
        <time>2021-07-11T09:22:33.000Z</time>
      </trkpt>
      <trkpt lat="41.37468167" lon="1.14898167">
        <ele>402.0</ele>
        <time>2021-07-11T09:22:34.000Z</time>
      </trkpt>
      <trkpt lat="41.37468667" lon="1.149">
        <ele>401.0</ele>
        <time>2021-07-11T09:22:35.000Z</time>
      </trkpt>
      <trkpt lat="41.37469333" lon="1.14901667">
        <ele>401.0</ele>
        <time>2021-07-11T09:22:36.000Z</time>
      </trkpt>
      <trkpt lat="41.37469833" lon="1.14903">
        <ele>401.0</ele>
        <time>2021-07-11T09:22:37.000Z</time>
      </trkpt>
      <trkpt lat="41.374705" lon="1.14904">
        <ele>401.0</ele>
        <time>2021-07-11T09:22:38.000Z</time>
      </trkpt>
      <trkpt lat="41.37471333" lon="1.14905167">
        <ele>401.0</ele>
        <time>2021-07-11T09:22:39.000Z</time>
      </trkpt>
      <trkpt lat="41.37472167" lon="1.149065">
        <ele>401.0</ele>
        <time>2021-07-11T09:22:40.000Z</time>
      </trkpt>
      <trkpt lat="41.37473167" lon="1.14908">
        <ele>401.0</ele>
        <time>2021-07-11T09:22:41.000Z</time>
      </trkpt>
      <trkpt lat="41.37473833" lon="1.14909833">
        <ele>401.0</ele>
        <time>2021-07-11T09:22:42.000Z</time>
      </trkpt>
      <trkpt lat="41.37474333" lon="1.14911833">
        <ele>401.0</ele>
        <time>2021-07-11T09:22:43.000Z</time>
      </trkpt>
      <trkpt lat="41.37474667" lon="1.14914">
        <ele>401.0</ele>
        <time>2021-07-11T09:22:44.000Z</time>
      </trkpt>
      <trkpt lat="41.37475" lon="1.14916">
        <ele>401.0</ele>
        <time>2021-07-11T09:22:45.000Z</time>
      </trkpt>
      <trkpt lat="41.37475333" lon="1.14917667">
        <ele>401.0</ele>
        <time>2021-07-11T09:22:46.000Z</time>
      </trkpt>
      <trkpt lat="41.37476" lon="1.14919167">
        <ele>401.0</ele>
        <time>2021-07-11T09:22:47.000Z</time>
      </trkpt>
      <trkpt lat="41.37476667" lon="1.14920667">
        <ele>401.0</ele>
        <time>2021-07-11T09:22:48.000Z</time>
      </trkpt>
      <trkpt lat="41.37477333" lon="1.14922">
        <ele>401.0</ele>
        <time>2021-07-11T09:22:49.000Z</time>
      </trkpt>
      <trkpt lat="41.37478" lon="1.14924">
        <ele>401.0</ele>
        <time>2021-07-11T09:22:50.000Z</time>
      </trkpt>
      <trkpt lat="41.374785" lon="1.14926167">
        <ele>401.0</ele>
        <time>2021-07-11T09:22:51.000Z</time>
      </trkpt>
      <trkpt lat="41.37479167" lon="1.14928167">
        <ele>401.0</ele>
        <time>2021-07-11T09:22:52.000Z</time>
      </trkpt>
      <trkpt lat="41.37479833" lon="1.14930167">
        <ele>401.0</ele>
        <time>2021-07-11T09:22:53.000Z</time>
      </trkpt>
      <trkpt lat="41.37480167" lon="1.14932167">
        <ele>401.0</ele>
        <time>2021-07-11T09:22:54.000Z</time>
      </trkpt>
      <trkpt lat="41.374805" lon="1.14933833">
        <ele>401.0</ele>
        <time>2021-07-11T09:22:55.000Z</time>
      </trkpt>
      <trkpt lat="41.37481" lon="1.14935333">
        <ele>401.0</ele>
        <time>2021-07-11T09:22:56.000Z</time>
      </trkpt>
      <trkpt lat="41.374815" lon="1.14936667">
        <ele>401.0</ele>
        <time>2021-07-11T09:22:57.000Z</time>
      </trkpt>
      <trkpt lat="41.37482" lon="1.14938167">
        <ele>401.0</ele>
        <time>2021-07-11T09:22:58.000Z</time>
      </trkpt>
      <trkpt lat="41.37482667" lon="1.149395">
        <ele>401.0</ele>
        <time>2021-07-11T09:22:59.000Z</time>
      </trkpt>
      <trkpt lat="41.37483333" lon="1.14941333">
        <ele>401.0</ele>
        <time>2021-07-11T09:23:00.000Z</time>
      </trkpt>
      <trkpt lat="41.37484" lon="1.14942833">
        <ele>401.0</ele>
        <time>2021-07-11T09:23:01.000Z</time>
      </trkpt>
      <trkpt lat="41.37484667" lon="1.14945">
        <ele>400.0</ele>
        <time>2021-07-11T09:23:02.000Z</time>
      </trkpt>
      <trkpt lat="41.37485" lon="1.149475">
        <ele>400.0</ele>
        <time>2021-07-11T09:23:03.000Z</time>
      </trkpt>
      <trkpt lat="41.374855" lon="1.14949833">
        <ele>400.0</ele>
        <time>2021-07-11T09:23:04.000Z</time>
      </trkpt>
      <trkpt lat="41.37486" lon="1.14952">
        <ele>400.0</ele>
        <time>2021-07-11T09:23:05.000Z</time>
      </trkpt>
      <trkpt lat="41.37486333" lon="1.14953667">
        <ele>400.0</ele>
        <time>2021-07-11T09:23:06.000Z</time>
      </trkpt>
      <trkpt lat="41.37486833" lon="1.14955667">
        <ele>400.0</ele>
        <time>2021-07-11T09:23:07.000Z</time>
      </trkpt>
      <trkpt lat="41.37487333" lon="1.14957333">
        <ele>400.0</ele>
        <time>2021-07-11T09:23:08.000Z</time>
      </trkpt>
      <trkpt lat="41.37488" lon="1.14959167">
        <ele>400.0</ele>
        <time>2021-07-11T09:23:09.000Z</time>
      </trkpt>
      <trkpt lat="41.37488667" lon="1.14960667">
        <ele>399.0</ele>
        <time>2021-07-11T09:23:10.000Z</time>
      </trkpt>
      <trkpt lat="41.37489333" lon="1.14961833">
        <ele>399.0</ele>
        <time>2021-07-11T09:23:11.000Z</time>
      </trkpt>
      <trkpt lat="41.3749" lon="1.14962667">
        <ele>399.0</ele>
        <time>2021-07-11T09:23:12.000Z</time>
      </trkpt>
      <trkpt lat="41.37490833" lon="1.14963667">
        <ele>399.0</ele>
        <time>2021-07-11T09:23:13.000Z</time>
      </trkpt>
      <trkpt lat="41.374915" lon="1.14964667">
        <ele>399.0</ele>
        <time>2021-07-11T09:23:14.000Z</time>
      </trkpt>
      <trkpt lat="41.37492167" lon="1.14965333">
        <ele>399.0</ele>
        <time>2021-07-11T09:23:15.000Z</time>
      </trkpt>
      <trkpt lat="41.37492833" lon="1.14966">
        <ele>398.0</ele>
        <time>2021-07-11T09:23:16.000Z</time>
      </trkpt>
      <trkpt lat="41.37493667" lon="1.149665">
        <ele>398.0</ele>
        <time>2021-07-11T09:23:17.000Z</time>
      </trkpt>
      <trkpt lat="41.374945" lon="1.14967167">
        <ele>398.0</ele>
        <time>2021-07-11T09:23:18.000Z</time>
      </trkpt>
      <trkpt lat="41.37495333" lon="1.14968">
        <ele>398.0</ele>
        <time>2021-07-11T09:23:19.000Z</time>
      </trkpt>
      <trkpt lat="41.37496333" lon="1.14968833">
        <ele>398.0</ele>
        <time>2021-07-11T09:23:20.000Z</time>
      </trkpt>
      <trkpt lat="41.374975" lon="1.14969333">
        <ele>398.0</ele>
        <time>2021-07-11T09:23:21.000Z</time>
      </trkpt>
      <trkpt lat="41.374985" lon="1.149695">
        <ele>398.0</ele>
        <time>2021-07-11T09:23:22.000Z</time>
      </trkpt>
      <trkpt lat="41.37499333" lon="1.14969667">
        <ele>397.0</ele>
        <time>2021-07-11T09:23:23.000Z</time>
      </trkpt>
      <trkpt lat="41.375005" lon="1.1497">
        <ele>397.0</ele>
        <time>2021-07-11T09:23:24.000Z</time>
      </trkpt>
      <trkpt lat="41.37501833" lon="1.14970167">
        <ele>397.0</ele>
        <time>2021-07-11T09:23:25.000Z</time>
      </trkpt>
      <trkpt lat="41.37503" lon="1.14970833">
        <ele>397.0</ele>
        <time>2021-07-11T09:23:26.000Z</time>
      </trkpt>
      <trkpt lat="41.37503833" lon="1.14971667">
        <ele>396.0</ele>
        <time>2021-07-11T09:23:27.000Z</time>
      </trkpt>
      <trkpt lat="41.37505167" lon="1.14972333">
        <ele>396.0</ele>
        <time>2021-07-11T09:23:28.000Z</time>
      </trkpt>
      <trkpt lat="41.37506167" lon="1.14973333">
        <ele>396.0</ele>
        <time>2021-07-11T09:23:29.000Z</time>
      </trkpt>
      <trkpt lat="41.37507333" lon="1.14974">
        <ele>396.0</ele>
        <time>2021-07-11T09:23:30.000Z</time>
      </trkpt>
      <trkpt lat="41.37508333" lon="1.14974667">
        <ele>396.0</ele>
        <time>2021-07-11T09:23:31.000Z</time>
      </trkpt>
      <trkpt lat="41.37509333" lon="1.149755">
        <ele>396.0</ele>
        <time>2021-07-11T09:23:32.000Z</time>
      </trkpt>
      <trkpt lat="41.37510333" lon="1.149765">
        <ele>395.0</ele>
        <time>2021-07-11T09:23:33.000Z</time>
      </trkpt>
      <trkpt lat="41.37511167" lon="1.149775">
        <ele>395.0</ele>
        <time>2021-07-11T09:23:34.000Z</time>
      </trkpt>
      <trkpt lat="41.37512" lon="1.14978833">
        <ele>395.0</ele>
        <time>2021-07-11T09:23:35.000Z</time>
      </trkpt>
      <trkpt lat="41.37512833" lon="1.1498">
        <ele>395.0</ele>
        <time>2021-07-11T09:23:36.000Z</time>
      </trkpt>
      <trkpt lat="41.37513667" lon="1.14981667">
        <ele>395.0</ele>
        <time>2021-07-11T09:23:37.000Z</time>
      </trkpt>
      <trkpt lat="41.37514333" lon="1.14983167">
        <ele>395.0</ele>
        <time>2021-07-11T09:23:38.000Z</time>
      </trkpt>
      <trkpt lat="41.37514833" lon="1.14984833">
        <ele>395.0</ele>
        <time>2021-07-11T09:23:39.000Z</time>
      </trkpt>
      <trkpt lat="41.375155" lon="1.14986333">
        <ele>395.0</ele>
        <time>2021-07-11T09:23:40.000Z</time>
      </trkpt>
      <trkpt lat="41.37516167" lon="1.149875">
        <ele>395.0</ele>
        <time>2021-07-11T09:23:41.000Z</time>
      </trkpt>
      <trkpt lat="41.37516833" lon="1.14989">
        <ele>395.0</ele>
        <time>2021-07-11T09:23:42.000Z</time>
      </trkpt>
      <trkpt lat="41.375175" lon="1.14990333">
        <ele>395.0</ele>
        <time>2021-07-11T09:23:43.000Z</time>
      </trkpt>
      <trkpt lat="41.37518" lon="1.14991667">
        <ele>395.0</ele>
        <time>2021-07-11T09:23:44.000Z</time>
      </trkpt>
      <trkpt lat="41.37518667" lon="1.14993">
        <ele>395.0</ele>
        <time>2021-07-11T09:23:45.000Z</time>
      </trkpt>
      <trkpt lat="41.375195" lon="1.14994167">
        <ele>394.0</ele>
        <time>2021-07-11T09:23:46.000Z</time>
      </trkpt>
      <trkpt lat="41.37520333" lon="1.14995167">
        <ele>394.0</ele>
        <time>2021-07-11T09:23:47.000Z</time>
      </trkpt>
      <trkpt lat="41.37521333" lon="1.14995667">
        <ele>394.0</ele>
        <time>2021-07-11T09:23:48.000Z</time>
      </trkpt>
      <trkpt lat="41.37522333" lon="1.149965">
        <ele>394.0</ele>
        <time>2021-07-11T09:23:49.000Z</time>
      </trkpt>
      <trkpt lat="41.37523167" lon="1.149975">
        <ele>394.0</ele>
        <time>2021-07-11T09:23:50.000Z</time>
      </trkpt>
      <trkpt lat="41.37524" lon="1.149985">
        <ele>394.0</ele>
        <time>2021-07-11T09:23:51.000Z</time>
      </trkpt>
      <trkpt lat="41.37525" lon="1.14999167">
        <ele>394.0</ele>
        <time>2021-07-11T09:23:52.000Z</time>
      </trkpt>
      <trkpt lat="41.37525667" lon="1.15000167">
        <ele>394.0</ele>
        <time>2021-07-11T09:23:53.000Z</time>
      </trkpt>
      <trkpt lat="41.37526167" lon="1.15001667">
        <ele>394.0</ele>
        <time>2021-07-11T09:23:54.000Z</time>
      </trkpt>
      <trkpt lat="41.37526833" lon="1.15003">
        <ele>394.0</ele>
        <time>2021-07-11T09:23:55.000Z</time>
      </trkpt>
      <trkpt lat="41.375275" lon="1.15004333">
        <ele>394.0</ele>
        <time>2021-07-11T09:23:56.000Z</time>
      </trkpt>
      <trkpt lat="41.37528167" lon="1.15005667">
        <ele>394.0</ele>
        <time>2021-07-11T09:23:57.000Z</time>
      </trkpt>
      <trkpt lat="41.37528667" lon="1.15007167">
        <ele>393.0</ele>
        <time>2021-07-11T09:23:58.000Z</time>
      </trkpt>
      <trkpt lat="41.37529167" lon="1.150085">
        <ele>393.0</ele>
        <time>2021-07-11T09:23:59.000Z</time>
      </trkpt>
      <trkpt lat="41.37529833" lon="1.15010333">
        <ele>393.0</ele>
        <time>2021-07-11T09:24:00.000Z</time>
      </trkpt>
      <trkpt lat="41.37530333" lon="1.15012167">
        <ele>393.0</ele>
        <time>2021-07-11T09:24:01.000Z</time>
      </trkpt>
      <trkpt lat="41.37531" lon="1.15014">
        <ele>393.0</ele>
        <time>2021-07-11T09:24:02.000Z</time>
      </trkpt>
      <trkpt lat="41.37531333" lon="1.15015667">
        <ele>393.0</ele>
        <time>2021-07-11T09:24:03.000Z</time>
      </trkpt>
      <trkpt lat="41.37531667" lon="1.15017667">
        <ele>393.0</ele>
        <time>2021-07-11T09:24:04.000Z</time>
      </trkpt>
      <trkpt lat="41.37532167" lon="1.15019667">
        <ele>392.0</ele>
        <time>2021-07-11T09:24:05.000Z</time>
      </trkpt>
      <trkpt lat="41.375325" lon="1.15021667">
        <ele>392.0</ele>
        <time>2021-07-11T09:24:06.000Z</time>
      </trkpt>
      <trkpt lat="41.37532833" lon="1.15023333">
        <ele>392.0</ele>
        <time>2021-07-11T09:24:07.000Z</time>
      </trkpt>
      <trkpt lat="41.37533167" lon="1.15025167">
        <ele>392.0</ele>
        <time>2021-07-11T09:24:08.000Z</time>
      </trkpt>
      <trkpt lat="41.375335" lon="1.15027333">
        <ele>392.0</ele>
        <time>2021-07-11T09:24:09.000Z</time>
      </trkpt>
      <trkpt lat="41.37533833" lon="1.15029167">
        <ele>391.0</ele>
        <time>2021-07-11T09:24:10.000Z</time>
      </trkpt>
      <trkpt lat="41.37534333" lon="1.15031">
        <ele>391.0</ele>
        <time>2021-07-11T09:24:11.000Z</time>
      </trkpt>
      <trkpt lat="41.37534833" lon="1.15032667">
        <ele>391.0</ele>
        <time>2021-07-11T09:24:12.000Z</time>
      </trkpt>
      <trkpt lat="41.37535333" lon="1.15034667">
        <ele>391.0</ele>
        <time>2021-07-11T09:24:13.000Z</time>
      </trkpt>
      <trkpt lat="41.37535667" lon="1.150365">
        <ele>391.0</ele>
        <time>2021-07-11T09:24:14.000Z</time>
      </trkpt>
      <trkpt lat="41.37536" lon="1.150385">
        <ele>391.0</ele>
        <time>2021-07-11T09:24:15.000Z</time>
      </trkpt>
      <trkpt lat="41.37536333" lon="1.15040333">
        <ele>391.0</ele>
        <time>2021-07-11T09:24:16.000Z</time>
      </trkpt>
      <trkpt lat="41.37536333" lon="1.15042333">
        <ele>391.0</ele>
        <time>2021-07-11T09:24:17.000Z</time>
      </trkpt>
      <trkpt lat="41.37536167" lon="1.15044333">
        <ele>391.0</ele>
        <time>2021-07-11T09:24:18.000Z</time>
      </trkpt>
      <trkpt lat="41.37535667" lon="1.15046667">
        <ele>390.0</ele>
        <time>2021-07-11T09:24:19.000Z</time>
      </trkpt>
      <trkpt lat="41.37535167" lon="1.15048667">
        <ele>390.0</ele>
        <time>2021-07-11T09:24:20.000Z</time>
      </trkpt>
      <trkpt lat="41.37534667" lon="1.15050667">
        <ele>390.0</ele>
        <time>2021-07-11T09:24:21.000Z</time>
      </trkpt>
      <trkpt lat="41.37534167" lon="1.150525">
        <ele>390.0</ele>
        <time>2021-07-11T09:24:22.000Z</time>
      </trkpt>
      <trkpt lat="41.375335" lon="1.15054333">
        <ele>390.0</ele>
        <time>2021-07-11T09:24:23.000Z</time>
      </trkpt>
      <trkpt lat="41.37532667" lon="1.15056">
        <ele>390.0</ele>
        <time>2021-07-11T09:24:24.000Z</time>
      </trkpt>
      <trkpt lat="41.37531833" lon="1.150575">
        <ele>390.0</ele>
        <time>2021-07-11T09:24:25.000Z</time>
      </trkpt>
      <trkpt lat="41.37531333" lon="1.15058833">
        <ele>390.0</ele>
        <time>2021-07-11T09:24:26.000Z</time>
      </trkpt>
      <trkpt lat="41.37530667" lon="1.15060333">
        <ele>390.0</ele>
        <time>2021-07-11T09:24:27.000Z</time>
      </trkpt>
      <trkpt lat="41.3753" lon="1.15061667">
        <ele>390.0</ele>
        <time>2021-07-11T09:24:28.000Z</time>
      </trkpt>
      <trkpt lat="41.37529167" lon="1.15063167">
        <ele>390.0</ele>
        <time>2021-07-11T09:24:29.000Z</time>
      </trkpt>
      <trkpt lat="41.37528" lon="1.150645">
        <ele>390.0</ele>
        <time>2021-07-11T09:24:30.000Z</time>
      </trkpt>
      <trkpt lat="41.37527333" lon="1.15066">
        <ele>390.0</ele>
        <time>2021-07-11T09:24:31.000Z</time>
      </trkpt>
      <trkpt lat="41.37526667" lon="1.15067333">
        <ele>389.0</ele>
        <time>2021-07-11T09:24:32.000Z</time>
      </trkpt>
      <trkpt lat="41.37526" lon="1.15069">
        <ele>389.0</ele>
        <time>2021-07-11T09:24:33.000Z</time>
      </trkpt>
      <trkpt lat="41.37525667" lon="1.150705">
        <ele>389.0</ele>
        <time>2021-07-11T09:24:34.000Z</time>
      </trkpt>
      <trkpt lat="41.37525167" lon="1.15072333">
        <ele>389.0</ele>
        <time>2021-07-11T09:24:35.000Z</time>
      </trkpt>
      <trkpt lat="41.37525" lon="1.15074333">
        <ele>389.0</ele>
        <time>2021-07-11T09:24:36.000Z</time>
      </trkpt>
      <trkpt lat="41.37524667" lon="1.15076167">
        <ele>389.0</ele>
        <time>2021-07-11T09:24:37.000Z</time>
      </trkpt>
      <trkpt lat="41.37524333" lon="1.15077833">
        <ele>388.0</ele>
        <time>2021-07-11T09:24:38.000Z</time>
      </trkpt>
      <trkpt lat="41.37524167" lon="1.15079333">
        <ele>388.0</ele>
        <time>2021-07-11T09:24:39.000Z</time>
      </trkpt>
      <trkpt lat="41.37524167" lon="1.15080833">
        <ele>388.0</ele>
        <time>2021-07-11T09:24:40.000Z</time>
      </trkpt>
      <trkpt lat="41.37524333" lon="1.15082167">
        <ele>388.0</ele>
        <time>2021-07-11T09:24:41.000Z</time>
      </trkpt>
      <trkpt lat="41.375245" lon="1.15083333">
        <ele>388.0</ele>
        <time>2021-07-11T09:24:42.000Z</time>
      </trkpt>
      <trkpt lat="41.37524833" lon="1.15084333">
        <ele>388.0</ele>
        <time>2021-07-11T09:24:43.000Z</time>
      </trkpt>
      <trkpt lat="41.37525333" lon="1.15085167">
        <ele>388.0</ele>
        <time>2021-07-11T09:24:44.000Z</time>
      </trkpt>
      <trkpt lat="41.37526167" lon="1.150855">
        <ele>388.0</ele>
        <time>2021-07-11T09:24:45.000Z</time>
      </trkpt>
      <trkpt lat="41.37527167" lon="1.15086">
        <ele>387.0</ele>
        <time>2021-07-11T09:24:46.000Z</time>
      </trkpt>
      <trkpt lat="41.37528167" lon="1.150865">
        <ele>387.0</ele>
        <time>2021-07-11T09:24:47.000Z</time>
      </trkpt>
      <trkpt lat="41.37529333" lon="1.15087167">
        <ele>387.0</ele>
        <time>2021-07-11T09:24:48.000Z</time>
      </trkpt>
      <trkpt lat="41.37530667" lon="1.15087833">
        <ele>387.0</ele>
        <time>2021-07-11T09:24:49.000Z</time>
      </trkpt>
      <trkpt lat="41.37532167" lon="1.15088167">
        <ele>387.0</ele>
        <time>2021-07-11T09:24:50.000Z</time>
      </trkpt>
      <trkpt lat="41.37533333" lon="1.15088667">
        <ele>387.0</ele>
        <time>2021-07-11T09:24:51.000Z</time>
      </trkpt>
      <trkpt lat="41.375345" lon="1.15089167">
        <ele>386.0</ele>
        <time>2021-07-11T09:24:52.000Z</time>
      </trkpt>
      <trkpt lat="41.37535333" lon="1.1509">
        <ele>386.0</ele>
        <time>2021-07-11T09:24:53.000Z</time>
      </trkpt>
      <trkpt lat="41.37536333" lon="1.150905">
        <ele>386.0</ele>
        <time>2021-07-11T09:24:54.000Z</time>
      </trkpt>
      <trkpt lat="41.37537333" lon="1.15090833">
        <ele>386.0</ele>
        <time>2021-07-11T09:24:55.000Z</time>
      </trkpt>
      <trkpt lat="41.37538333" lon="1.15091">
        <ele>386.0</ele>
        <time>2021-07-11T09:24:56.000Z</time>
      </trkpt>
      <trkpt lat="41.37539333" lon="1.150915">
        <ele>386.0</ele>
        <time>2021-07-11T09:24:57.000Z</time>
      </trkpt>
      <trkpt lat="41.37540333" lon="1.150925">
        <ele>386.0</ele>
        <time>2021-07-11T09:24:58.000Z</time>
      </trkpt>
      <trkpt lat="41.375415" lon="1.15093333">
        <ele>386.0</ele>
        <time>2021-07-11T09:24:59.000Z</time>
      </trkpt>
      <trkpt lat="41.37542333" lon="1.15094333">
        <ele>386.0</ele>
        <time>2021-07-11T09:25:00.000Z</time>
      </trkpt>
      <trkpt lat="41.37543333" lon="1.15095833">
        <ele>386.0</ele>
        <time>2021-07-11T09:25:01.000Z</time>
      </trkpt>
      <trkpt lat="41.37544333" lon="1.15097333">
        <ele>386.0</ele>
        <time>2021-07-11T09:25:02.000Z</time>
      </trkpt>
      <trkpt lat="41.37545" lon="1.15099333">
        <ele>386.0</ele>
        <time>2021-07-11T09:25:03.000Z</time>
      </trkpt>
      <trkpt lat="41.37545833" lon="1.15101167">
        <ele>386.0</ele>
        <time>2021-07-11T09:25:04.000Z</time>
      </trkpt>
      <trkpt lat="41.37546667" lon="1.15103">
        <ele>385.0</ele>
        <time>2021-07-11T09:25:05.000Z</time>
      </trkpt>
      <trkpt lat="41.375475" lon="1.151045">
        <ele>385.0</ele>
        <time>2021-07-11T09:25:06.000Z</time>
      </trkpt>
      <trkpt lat="41.375485" lon="1.15105667">
        <ele>385.0</ele>
        <time>2021-07-11T09:25:07.000Z</time>
      </trkpt>
      <trkpt lat="41.37549667" lon="1.15106667">
        <ele>385.0</ele>
        <time>2021-07-11T09:25:08.000Z</time>
      </trkpt>
      <trkpt lat="41.37551" lon="1.151075">
        <ele>385.0</ele>
        <time>2021-07-11T09:25:09.000Z</time>
      </trkpt>
      <trkpt lat="41.37552167" lon="1.151085">
        <ele>385.0</ele>
        <time>2021-07-11T09:25:10.000Z</time>
      </trkpt>
      <trkpt lat="41.37553333" lon="1.15109833">
        <ele>385.0</ele>
        <time>2021-07-11T09:25:11.000Z</time>
      </trkpt>
      <trkpt lat="41.37554333" lon="1.15110667">
        <ele>384.0</ele>
        <time>2021-07-11T09:25:12.000Z</time>
      </trkpt>
      <trkpt lat="41.37555333" lon="1.15111667">
        <ele>384.0</ele>
        <time>2021-07-11T09:25:13.000Z</time>
      </trkpt>
      <trkpt lat="41.37556" lon="1.151125">
        <ele>384.0</ele>
        <time>2021-07-11T09:25:14.000Z</time>
      </trkpt>
      <trkpt lat="41.37556667" lon="1.15113667">
        <ele>384.0</ele>
        <time>2021-07-11T09:25:15.000Z</time>
      </trkpt>
      <trkpt lat="41.37557167" lon="1.15115">
        <ele>384.0</ele>
        <time>2021-07-11T09:25:16.000Z</time>
      </trkpt>
      <trkpt lat="41.37557333" lon="1.15117">
        <ele>384.0</ele>
        <time>2021-07-11T09:25:17.000Z</time>
      </trkpt>
      <trkpt lat="41.37557" lon="1.15118833">
        <ele>384.0</ele>
        <time>2021-07-11T09:25:18.000Z</time>
      </trkpt>
      <trkpt lat="41.37556333" lon="1.15121167">
        <ele>384.0</ele>
        <time>2021-07-11T09:25:19.000Z</time>
      </trkpt>
      <trkpt lat="41.37555167" lon="1.15123667">
        <ele>384.0</ele>
        <time>2021-07-11T09:25:20.000Z</time>
      </trkpt>
      <trkpt lat="41.37554167" lon="1.15126333">
        <ele>383.0</ele>
        <time>2021-07-11T09:25:21.000Z</time>
      </trkpt>
      <trkpt lat="41.37552833" lon="1.15129167">
        <ele>383.0</ele>
        <time>2021-07-11T09:25:22.000Z</time>
      </trkpt>
      <trkpt lat="41.37551167" lon="1.15132">
        <ele>383.0</ele>
        <time>2021-07-11T09:25:23.000Z</time>
      </trkpt>
      <trkpt lat="41.37549667" lon="1.15134667">
        <ele>383.0</ele>
        <time>2021-07-11T09:25:24.000Z</time>
      </trkpt>
      <trkpt lat="41.37548167" lon="1.15136667">
        <ele>383.0</ele>
        <time>2021-07-11T09:25:25.000Z</time>
      </trkpt>
      <trkpt lat="41.37546667" lon="1.15138667">
        <ele>383.0</ele>
        <time>2021-07-11T09:25:26.000Z</time>
      </trkpt>
      <trkpt lat="41.37545167" lon="1.151405">
        <ele>383.0</ele>
        <time>2021-07-11T09:25:27.000Z</time>
      </trkpt>
      <trkpt lat="41.37543667" lon="1.15142">
        <ele>383.0</ele>
        <time>2021-07-11T09:25:28.000Z</time>
      </trkpt>
      <trkpt lat="41.37542167" lon="1.151435">
        <ele>382.0</ele>
        <time>2021-07-11T09:25:29.000Z</time>
      </trkpt>
      <trkpt lat="41.37541" lon="1.151445">
        <ele>382.0</ele>
        <time>2021-07-11T09:25:30.000Z</time>
      </trkpt>
      <trkpt lat="41.3754" lon="1.151455">
        <ele>382.0</ele>
        <time>2021-07-11T09:25:31.000Z</time>
      </trkpt>
      <trkpt lat="41.37539" lon="1.15146333">
        <ele>382.0</ele>
        <time>2021-07-11T09:25:32.000Z</time>
      </trkpt>
      <trkpt lat="41.37538167" lon="1.151475">
        <ele>382.0</ele>
        <time>2021-07-11T09:25:33.000Z</time>
      </trkpt>
      <trkpt lat="41.37537167" lon="1.15149">
        <ele>382.0</ele>
        <time>2021-07-11T09:25:34.000Z</time>
      </trkpt>
      <trkpt lat="41.37535833" lon="1.15150333">
        <ele>382.0</ele>
        <time>2021-07-11T09:25:35.000Z</time>
      </trkpt>
      <trkpt lat="41.375345" lon="1.15151667">
        <ele>382.0</ele>
        <time>2021-07-11T09:25:36.000Z</time>
      </trkpt>
      <trkpt lat="41.375335" lon="1.151525">
        <ele>382.0</ele>
        <time>2021-07-11T09:25:37.000Z</time>
      </trkpt>
      <trkpt lat="41.37532333" lon="1.151535">
        <ele>382.0</ele>
        <time>2021-07-11T09:25:38.000Z</time>
      </trkpt>
      <trkpt lat="41.37531333" lon="1.151545">
        <ele>382.0</ele>
        <time>2021-07-11T09:25:39.000Z</time>
      </trkpt>
      <trkpt lat="41.37530167" lon="1.151555">
        <ele>382.0</ele>
        <time>2021-07-11T09:25:40.000Z</time>
      </trkpt>
      <trkpt lat="41.37529333" lon="1.15156">
        <ele>382.0</ele>
        <time>2021-07-11T09:25:41.000Z</time>
      </trkpt>
      <trkpt lat="41.37528333" lon="1.15156667">
        <ele>382.0</ele>
        <time>2021-07-11T09:25:42.000Z</time>
      </trkpt>
      <trkpt lat="41.37527667" lon="1.15157167">
        <ele>382.0</ele>
        <time>2021-07-11T09:25:43.000Z</time>
      </trkpt>
      <trkpt lat="41.37526833" lon="1.15158">
        <ele>382.0</ele>
        <time>2021-07-11T09:25:44.000Z</time>
      </trkpt>
      <trkpt lat="41.37525667" lon="1.15159">
        <ele>382.0</ele>
        <time>2021-07-11T09:25:45.000Z</time>
      </trkpt>
      <trkpt lat="41.37524667" lon="1.15159833">
        <ele>382.0</ele>
        <time>2021-07-11T09:25:46.000Z</time>
      </trkpt>
      <trkpt lat="41.375235" lon="1.15160667">
        <ele>381.0</ele>
        <time>2021-07-11T09:25:47.000Z</time>
      </trkpt>
      <trkpt lat="41.37522333" lon="1.151615">
        <ele>381.0</ele>
        <time>2021-07-11T09:25:48.000Z</time>
      </trkpt>
      <trkpt lat="41.37521333" lon="1.15162333">
        <ele>381.0</ele>
        <time>2021-07-11T09:25:49.000Z</time>
      </trkpt>
      <trkpt lat="41.37520167" lon="1.15163333">
        <ele>381.0</ele>
        <time>2021-07-11T09:25:50.000Z</time>
      </trkpt>
      <trkpt lat="41.37518833" lon="1.15164">
        <ele>381.0</ele>
        <time>2021-07-11T09:25:51.000Z</time>
      </trkpt>
      <trkpt lat="41.37518" lon="1.151645">
        <ele>381.0</ele>
        <time>2021-07-11T09:25:52.000Z</time>
      </trkpt>
      <trkpt lat="41.37516833" lon="1.15165167">
        <ele>381.0</ele>
        <time>2021-07-11T09:25:53.000Z</time>
      </trkpt>
      <trkpt lat="41.37515833" lon="1.15166167">
        <ele>381.0</ele>
        <time>2021-07-11T09:25:54.000Z</time>
      </trkpt>
      <trkpt lat="41.37515833" lon="1.15166167">
        <ele>380.0</ele>
        <time>2021-07-11T09:25:57.000Z</time>
      </trkpt>
      <trkpt lat="41.37515833" lon="1.15166167">
        <ele>380.0</ele>
        <time>2021-07-11T09:25:58.000Z</time>
      </trkpt>
      <trkpt lat="41.37509167" lon="1.151705">
        <ele>380.0</ele>
        <time>2021-07-11T09:25:59.000Z</time>
      </trkpt>
      <trkpt lat="41.37507833" lon="1.151715">
        <ele>380.0</ele>
        <time>2021-07-11T09:26:00.000Z</time>
      </trkpt>
      <trkpt lat="41.37506833" lon="1.15172333">
        <ele>380.0</ele>
        <time>2021-07-11T09:26:01.000Z</time>
      </trkpt>
      <trkpt lat="41.37505833" lon="1.15172833">
        <ele>380.0</ele>
        <time>2021-07-11T09:26:02.000Z</time>
      </trkpt>
      <trkpt lat="41.37504833" lon="1.15173333">
        <ele>380.0</ele>
        <time>2021-07-11T09:26:03.000Z</time>
      </trkpt>
      <trkpt lat="41.37503833" lon="1.15174333">
        <ele>380.0</ele>
        <time>2021-07-11T09:26:04.000Z</time>
      </trkpt>
      <trkpt lat="41.37502833" lon="1.151755">
        <ele>380.0</ele>
        <time>2021-07-11T09:26:05.000Z</time>
      </trkpt>
      <trkpt lat="41.37502" lon="1.15176333">
        <ele>380.0</ele>
        <time>2021-07-11T09:26:06.000Z</time>
      </trkpt>
      <trkpt lat="41.37501" lon="1.15177333">
        <ele>380.0</ele>
        <time>2021-07-11T09:26:07.000Z</time>
      </trkpt>
      <trkpt lat="41.37499833" lon="1.151785">
        <ele>380.0</ele>
        <time>2021-07-11T09:26:08.000Z</time>
      </trkpt>
      <trkpt lat="41.37498833" lon="1.15179667">
        <ele>381.0</ele>
        <time>2021-07-11T09:26:09.000Z</time>
      </trkpt>
      <trkpt lat="41.37497833" lon="1.15181">
        <ele>381.0</ele>
        <time>2021-07-11T09:26:10.000Z</time>
      </trkpt>
      <trkpt lat="41.374965" lon="1.15182167">
        <ele>381.0</ele>
        <time>2021-07-11T09:26:11.000Z</time>
      </trkpt>
      <trkpt lat="41.37495667" lon="1.15183167">
        <ele>381.0</ele>
        <time>2021-07-11T09:26:12.000Z</time>
      </trkpt>
      <trkpt lat="41.37494667" lon="1.15184">
        <ele>381.0</ele>
        <time>2021-07-11T09:26:13.000Z</time>
      </trkpt>
      <trkpt lat="41.37493833" lon="1.15184833">
        <ele>381.0</ele>
        <time>2021-07-11T09:26:14.000Z</time>
      </trkpt>
      <trkpt lat="41.37492833" lon="1.15185333">
        <ele>381.0</ele>
        <time>2021-07-11T09:26:15.000Z</time>
      </trkpt>
      <trkpt lat="41.37492167" lon="1.15185667">
        <ele>380.0</ele>
        <time>2021-07-11T09:26:16.000Z</time>
      </trkpt>
      <trkpt lat="41.37491333" lon="1.15186">
        <ele>380.0</ele>
        <time>2021-07-11T09:26:17.000Z</time>
      </trkpt>
      <trkpt lat="41.37490333" lon="1.151865">
        <ele>380.0</ele>
        <time>2021-07-11T09:26:18.000Z</time>
      </trkpt>
      <trkpt lat="41.374895" lon="1.15187167">
        <ele>380.0</ele>
        <time>2021-07-11T09:26:19.000Z</time>
      </trkpt>
      <trkpt lat="41.374885" lon="1.15188167">
        <ele>380.0</ele>
        <time>2021-07-11T09:26:20.000Z</time>
      </trkpt>
      <trkpt lat="41.37487333" lon="1.15189333">
        <ele>380.0</ele>
        <time>2021-07-11T09:26:21.000Z</time>
      </trkpt>
      <trkpt lat="41.37486333" lon="1.15190667">
        <ele>380.0</ele>
        <time>2021-07-11T09:26:22.000Z</time>
      </trkpt>
      <trkpt lat="41.37485167" lon="1.15191833">
        <ele>380.0</ele>
        <time>2021-07-11T09:26:23.000Z</time>
      </trkpt>
      <trkpt lat="41.37484" lon="1.15192667">
        <ele>380.0</ele>
        <time>2021-07-11T09:26:24.000Z</time>
      </trkpt>
      <trkpt lat="41.37482833" lon="1.15193833">
        <ele>380.0</ele>
        <time>2021-07-11T09:26:25.000Z</time>
      </trkpt>
      <trkpt lat="41.37481667" lon="1.15195">
        <ele>380.0</ele>
        <time>2021-07-11T09:26:26.000Z</time>
      </trkpt>
      <trkpt lat="41.37480333" lon="1.15196333">
        <ele>380.0</ele>
        <time>2021-07-11T09:26:27.000Z</time>
      </trkpt>
      <trkpt lat="41.37479333" lon="1.15197333">
        <ele>381.0</ele>
        <time>2021-07-11T09:26:28.000Z</time>
      </trkpt>
      <trkpt lat="41.37478333" lon="1.151985">
        <ele>381.0</ele>
        <time>2021-07-11T09:26:29.000Z</time>
      </trkpt>
      <trkpt lat="41.37477333" lon="1.15199833">
        <ele>381.0</ele>
        <time>2021-07-11T09:26:30.000Z</time>
      </trkpt>
      <trkpt lat="41.374765" lon="1.15200833">
        <ele>381.0</ele>
        <time>2021-07-11T09:26:31.000Z</time>
      </trkpt>
      <trkpt lat="41.37475667" lon="1.15201833">
        <ele>381.0</ele>
        <time>2021-07-11T09:26:32.000Z</time>
      </trkpt>
      <trkpt lat="41.37474833" lon="1.15202667">
        <ele>381.0</ele>
        <time>2021-07-11T09:26:33.000Z</time>
      </trkpt>
      <trkpt lat="41.37474167" lon="1.15203333">
        <ele>381.0</ele>
        <time>2021-07-11T09:26:34.000Z</time>
      </trkpt>
      <trkpt lat="41.37473333" lon="1.15204167">
        <ele>381.0</ele>
        <time>2021-07-11T09:26:35.000Z</time>
      </trkpt>
      <trkpt lat="41.37472167" lon="1.15204833">
        <ele>381.0</ele>
        <time>2021-07-11T09:26:36.000Z</time>
      </trkpt>
      <trkpt lat="41.37471167" lon="1.15205667">
        <ele>381.0</ele>
        <time>2021-07-11T09:26:37.000Z</time>
      </trkpt>
      <trkpt lat="41.37469833" lon="1.15206667">
        <ele>381.0</ele>
        <time>2021-07-11T09:26:38.000Z</time>
      </trkpt>
      <trkpt lat="41.37469" lon="1.152075">
        <ele>381.0</ele>
        <time>2021-07-11T09:26:39.000Z</time>
      </trkpt>
      <trkpt lat="41.37468" lon="1.152085">
        <ele>381.0</ele>
        <time>2021-07-11T09:26:40.000Z</time>
      </trkpt>
      <trkpt lat="41.37467167" lon="1.15209667">
        <ele>381.0</ele>
        <time>2021-07-11T09:26:41.000Z</time>
      </trkpt>
      <trkpt lat="41.37466167" lon="1.15210833">
        <ele>381.0</ele>
        <time>2021-07-11T09:26:42.000Z</time>
      </trkpt>
      <trkpt lat="41.37465" lon="1.15212167">
        <ele>381.0</ele>
        <time>2021-07-11T09:26:43.000Z</time>
      </trkpt>
      <trkpt lat="41.37464167" lon="1.15213833">
        <ele>381.0</ele>
        <time>2021-07-11T09:26:44.000Z</time>
      </trkpt>
      <trkpt lat="41.37463167" lon="1.152155">
        <ele>381.0</ele>
        <time>2021-07-11T09:26:45.000Z</time>
      </trkpt>
      <trkpt lat="41.37462333" lon="1.15217667">
        <ele>381.0</ele>
        <time>2021-07-11T09:26:46.000Z</time>
      </trkpt>
      <trkpt lat="41.37461667" lon="1.1522">
        <ele>381.0</ele>
        <time>2021-07-11T09:26:47.000Z</time>
      </trkpt>
      <trkpt lat="41.37460833" lon="1.15222667">
        <ele>381.0</ele>
        <time>2021-07-11T09:26:48.000Z</time>
      </trkpt>
      <trkpt lat="41.37460167" lon="1.15225333">
        <ele>381.0</ele>
        <time>2021-07-11T09:26:49.000Z</time>
      </trkpt>
      <trkpt lat="41.374595" lon="1.15227833">
        <ele>381.0</ele>
        <time>2021-07-11T09:26:50.000Z</time>
      </trkpt>
      <trkpt lat="41.37459167" lon="1.15230167">
        <ele>381.0</ele>
        <time>2021-07-11T09:26:51.000Z</time>
      </trkpt>
      <trkpt lat="41.37458667" lon="1.15232667">
        <ele>381.0</ele>
        <time>2021-07-11T09:26:52.000Z</time>
      </trkpt>
      <trkpt lat="41.37458667" lon="1.15235">
        <ele>381.0</ele>
        <time>2021-07-11T09:26:53.000Z</time>
      </trkpt>
      <trkpt lat="41.37458833" lon="1.15237167">
        <ele>381.0</ele>
        <time>2021-07-11T09:26:54.000Z</time>
      </trkpt>
      <trkpt lat="41.37459333" lon="1.15239167">
        <ele>381.0</ele>
        <time>2021-07-11T09:26:55.000Z</time>
      </trkpt>
      <trkpt lat="41.37460167" lon="1.15240667">
        <ele>381.0</ele>
        <time>2021-07-11T09:26:56.000Z</time>
      </trkpt>
      <trkpt lat="41.37461333" lon="1.15241833">
        <ele>381.0</ele>
        <time>2021-07-11T09:26:57.000Z</time>
      </trkpt>
      <trkpt lat="41.37462333" lon="1.15243">
        <ele>381.0</ele>
        <time>2021-07-11T09:26:58.000Z</time>
      </trkpt>
      <trkpt lat="41.37463333" lon="1.15244">
        <ele>381.0</ele>
        <time>2021-07-11T09:26:59.000Z</time>
      </trkpt>
      <trkpt lat="41.374645" lon="1.15244833">
        <ele>381.0</ele>
        <time>2021-07-11T09:27:00.000Z</time>
      </trkpt>
      <trkpt lat="41.37465667" lon="1.15245667">
        <ele>381.0</ele>
        <time>2021-07-11T09:27:01.000Z</time>
      </trkpt>
      <trkpt lat="41.37466833" lon="1.15246333">
        <ele>380.0</ele>
        <time>2021-07-11T09:27:02.000Z</time>
      </trkpt>
      <trkpt lat="41.37468167" lon="1.152465">
        <ele>380.0</ele>
        <time>2021-07-11T09:27:03.000Z</time>
      </trkpt>
      <trkpt lat="41.37469333" lon="1.15247">
        <ele>380.0</ele>
        <time>2021-07-11T09:27:04.000Z</time>
      </trkpt>
      <trkpt lat="41.37470333" lon="1.152475">
        <ele>380.0</ele>
        <time>2021-07-11T09:27:05.000Z</time>
      </trkpt>
      <trkpt lat="41.374715" lon="1.15248167">
        <ele>380.0</ele>
        <time>2021-07-11T09:27:06.000Z</time>
      </trkpt>
      <trkpt lat="41.37472667" lon="1.15248667">
        <ele>380.0</ele>
        <time>2021-07-11T09:27:07.000Z</time>
      </trkpt>
      <trkpt lat="41.37473667" lon="1.15249167">
        <ele>380.0</ele>
        <time>2021-07-11T09:27:08.000Z</time>
      </trkpt>
      <trkpt lat="41.37475" lon="1.152495">
        <ele>380.0</ele>
        <time>2021-07-11T09:27:09.000Z</time>
      </trkpt>
      <trkpt lat="41.37476167" lon="1.15249667">
        <ele>379.0</ele>
        <time>2021-07-11T09:27:10.000Z</time>
      </trkpt>
      <trkpt lat="41.374775" lon="1.15250333">
        <ele>379.0</ele>
        <time>2021-07-11T09:27:11.000Z</time>
      </trkpt>
      <trkpt lat="41.37479" lon="1.15251">
        <ele>379.0</ele>
        <time>2021-07-11T09:27:12.000Z</time>
      </trkpt>
      <trkpt lat="41.37480333" lon="1.152515">
        <ele>379.0</ele>
        <time>2021-07-11T09:27:13.000Z</time>
      </trkpt>
      <trkpt lat="41.374815" lon="1.15252167">
        <ele>379.0</ele>
        <time>2021-07-11T09:27:14.000Z</time>
      </trkpt>
      <trkpt lat="41.37483" lon="1.152525">
        <ele>379.0</ele>
        <time>2021-07-11T09:27:15.000Z</time>
      </trkpt>
      <trkpt lat="41.37484333" lon="1.152525">
        <ele>379.0</ele>
        <time>2021-07-11T09:27:16.000Z</time>
      </trkpt>
      <trkpt lat="41.37485667" lon="1.152525">
        <ele>379.0</ele>
        <time>2021-07-11T09:27:17.000Z</time>
      </trkpt>
      <trkpt lat="41.37487167" lon="1.152525">
        <ele>379.0</ele>
        <time>2021-07-11T09:27:18.000Z</time>
      </trkpt>
      <trkpt lat="41.37488667" lon="1.15252333">
        <ele>379.0</ele>
        <time>2021-07-11T09:27:19.000Z</time>
      </trkpt>
      <trkpt lat="41.37490333" lon="1.15252333">
        <ele>379.0</ele>
        <time>2021-07-11T09:27:20.000Z</time>
      </trkpt>
      <trkpt lat="41.37491833" lon="1.152525">
        <ele>379.0</ele>
        <time>2021-07-11T09:27:21.000Z</time>
      </trkpt>
      <trkpt lat="41.374935" lon="1.15252667">
        <ele>378.0</ele>
        <time>2021-07-11T09:27:22.000Z</time>
      </trkpt>
      <trkpt lat="41.37495" lon="1.15252833">
        <ele>378.0</ele>
        <time>2021-07-11T09:27:23.000Z</time>
      </trkpt>
      <trkpt lat="41.37496333" lon="1.15253">
        <ele>378.0</ele>
        <time>2021-07-11T09:27:24.000Z</time>
      </trkpt>
      <trkpt lat="41.37497833" lon="1.15253">
        <ele>378.0</ele>
        <time>2021-07-11T09:27:25.000Z</time>
      </trkpt>
      <trkpt lat="41.37499167" lon="1.15253167">
        <ele>378.0</ele>
        <time>2021-07-11T09:27:26.000Z</time>
      </trkpt>
      <trkpt lat="41.37500667" lon="1.152535">
        <ele>378.0</ele>
        <time>2021-07-11T09:27:27.000Z</time>
      </trkpt>
      <trkpt lat="41.37502167" lon="1.15253667">
        <ele>378.0</ele>
        <time>2021-07-11T09:27:28.000Z</time>
      </trkpt>
      <trkpt lat="41.375035" lon="1.15254">
        <ele>377.0</ele>
        <time>2021-07-11T09:27:29.000Z</time>
      </trkpt>
      <trkpt lat="41.37504667" lon="1.15255">
        <ele>377.0</ele>
        <time>2021-07-11T09:27:30.000Z</time>
      </trkpt>
      <trkpt lat="41.37505833" lon="1.15255833">
        <ele>377.0</ele>
        <time>2021-07-11T09:27:31.000Z</time>
      </trkpt>
      <trkpt lat="41.37506833" lon="1.15256833">
        <ele>377.0</ele>
        <time>2021-07-11T09:27:32.000Z</time>
      </trkpt>
      <trkpt lat="41.37508" lon="1.15257667">
        <ele>377.0</ele>
        <time>2021-07-11T09:27:33.000Z</time>
      </trkpt>
      <trkpt lat="41.37509333" lon="1.152585">
        <ele>377.0</ele>
        <time>2021-07-11T09:27:34.000Z</time>
      </trkpt>
      <trkpt lat="41.37510833" lon="1.15259">
        <ele>377.0</ele>
        <time>2021-07-11T09:27:35.000Z</time>
      </trkpt>
      <trkpt lat="41.37512167" lon="1.152595">
        <ele>377.0</ele>
        <time>2021-07-11T09:27:36.000Z</time>
      </trkpt>
      <trkpt lat="41.37513167" lon="1.15260333">
        <ele>377.0</ele>
        <time>2021-07-11T09:27:37.000Z</time>
      </trkpt>
      <trkpt lat="41.375145" lon="1.15260833">
        <ele>377.0</ele>
        <time>2021-07-11T09:27:38.000Z</time>
      </trkpt>
      <trkpt lat="41.37515833" lon="1.15261">
        <ele>377.0</ele>
        <time>2021-07-11T09:27:39.000Z</time>
      </trkpt>
      <trkpt lat="41.375175" lon="1.15260833">
        <ele>377.0</ele>
        <time>2021-07-11T09:27:40.000Z</time>
      </trkpt>
      <trkpt lat="41.37519333" lon="1.152605">
        <ele>377.0</ele>
        <time>2021-07-11T09:27:41.000Z</time>
      </trkpt>
      <trkpt lat="41.37521167" lon="1.15260667">
        <ele>376.0</ele>
        <time>2021-07-11T09:27:42.000Z</time>
      </trkpt>
      <trkpt lat="41.37522833" lon="1.15260833">
        <ele>376.0</ele>
        <time>2021-07-11T09:27:43.000Z</time>
      </trkpt>
      <trkpt lat="41.375245" lon="1.15261">
        <ele>376.0</ele>
        <time>2021-07-11T09:27:44.000Z</time>
      </trkpt>
      <trkpt lat="41.37525833" lon="1.15261333">
        <ele>376.0</ele>
        <time>2021-07-11T09:27:45.000Z</time>
      </trkpt>
      <trkpt lat="41.37527333" lon="1.15261667">
        <ele>376.0</ele>
        <time>2021-07-11T09:27:46.000Z</time>
      </trkpt>
      <trkpt lat="41.37528667" lon="1.15261833">
        <ele>376.0</ele>
        <time>2021-07-11T09:27:47.000Z</time>
      </trkpt>
      <trkpt lat="41.37529833" lon="1.15262333">
        <ele>375.0</ele>
        <time>2021-07-11T09:27:48.000Z</time>
      </trkpt>
      <trkpt lat="41.37530833" lon="1.15263">
        <ele>375.0</ele>
        <time>2021-07-11T09:27:49.000Z</time>
      </trkpt>
      <trkpt lat="41.37531667" lon="1.15263833">
        <ele>375.0</ele>
        <time>2021-07-11T09:27:50.000Z</time>
      </trkpt>
      <trkpt lat="41.37532333" lon="1.15264667">
        <ele>375.0</ele>
        <time>2021-07-11T09:27:51.000Z</time>
      </trkpt>
      <trkpt lat="41.37532667" lon="1.15265667">
        <ele>375.0</ele>
        <time>2021-07-11T09:27:52.000Z</time>
      </trkpt>
      <trkpt lat="41.37532833" lon="1.15266667">
        <ele>375.0</ele>
        <time>2021-07-11T09:27:53.000Z</time>
      </trkpt>
      <trkpt lat="41.37532667" lon="1.15268">
        <ele>375.0</ele>
        <time>2021-07-11T09:27:54.000Z</time>
      </trkpt>
      <trkpt lat="41.37532333" lon="1.15268833">
        <ele>375.0</ele>
        <time>2021-07-11T09:27:55.000Z</time>
      </trkpt>
      <trkpt lat="41.37532" lon="1.15269833">
        <ele>375.0</ele>
        <time>2021-07-11T09:27:56.000Z</time>
      </trkpt>
      <trkpt lat="41.37531333" lon="1.15270833">
        <ele>375.0</ele>
        <time>2021-07-11T09:27:57.000Z</time>
      </trkpt>
      <trkpt lat="41.37530667" lon="1.15271833">
        <ele>374.0</ele>
        <time>2021-07-11T09:27:58.000Z</time>
      </trkpt>
      <trkpt lat="41.37529667" lon="1.15272833">
        <ele>374.0</ele>
        <time>2021-07-11T09:27:59.000Z</time>
      </trkpt>
      <trkpt lat="41.37529" lon="1.15273333">
        <ele>374.0</ele>
        <time>2021-07-11T09:28:00.000Z</time>
      </trkpt>
      <trkpt lat="41.37528167" lon="1.15273667">
        <ele>374.0</ele>
        <time>2021-07-11T09:28:01.000Z</time>
      </trkpt>
      <trkpt lat="41.37527333" lon="1.15273667">
        <ele>374.0</ele>
        <time>2021-07-11T09:28:02.000Z</time>
      </trkpt>
      <trkpt lat="41.37526333" lon="1.15273833">
        <ele>374.0</ele>
        <time>2021-07-11T09:28:03.000Z</time>
      </trkpt>
      <trkpt lat="41.37525333" lon="1.15274167">
        <ele>374.0</ele>
        <time>2021-07-11T09:28:04.000Z</time>
      </trkpt>
      <trkpt lat="41.375245" lon="1.152745">
        <ele>374.0</ele>
        <time>2021-07-11T09:28:05.000Z</time>
      </trkpt>
      <trkpt lat="41.37523667" lon="1.15274833">
        <ele>374.0</ele>
        <time>2021-07-11T09:28:06.000Z</time>
      </trkpt>
      <trkpt lat="41.37522833" lon="1.15275167">
        <ele>374.0</ele>
        <time>2021-07-11T09:28:07.000Z</time>
      </trkpt>
      <trkpt lat="41.37522" lon="1.15275667">
        <ele>374.0</ele>
        <time>2021-07-11T09:28:08.000Z</time>
      </trkpt>
      <trkpt lat="41.37520833" lon="1.15276667">
        <ele>374.0</ele>
        <time>2021-07-11T09:28:09.000Z</time>
      </trkpt>
      <trkpt lat="41.37519667" lon="1.15277667">
        <ele>374.0</ele>
        <time>2021-07-11T09:28:10.000Z</time>
      </trkpt>
      <trkpt lat="41.375185" lon="1.152785">
        <ele>373.0</ele>
        <time>2021-07-11T09:28:11.000Z</time>
      </trkpt>
      <trkpt lat="41.375175" lon="1.15279167">
        <ele>373.0</ele>
        <time>2021-07-11T09:28:12.000Z</time>
      </trkpt>
      <trkpt lat="41.375165" lon="1.15279833">
        <ele>373.0</ele>
        <time>2021-07-11T09:28:13.000Z</time>
      </trkpt>
      <trkpt lat="41.375155" lon="1.152805">
        <ele>373.0</ele>
        <time>2021-07-11T09:28:14.000Z</time>
      </trkpt>
      <trkpt lat="41.37514167" lon="1.15281667">
        <ele>373.0</ele>
        <time>2021-07-11T09:28:15.000Z</time>
      </trkpt>
      <trkpt lat="41.37512667" lon="1.15283167">
        <ele>373.0</ele>
        <time>2021-07-11T09:28:16.000Z</time>
      </trkpt>
      <trkpt lat="41.37511167" lon="1.15284667">
        <ele>373.0</ele>
        <time>2021-07-11T09:28:17.000Z</time>
      </trkpt>
      <trkpt lat="41.37510833" lon="1.15285333">
        <ele>373.0</ele>
        <time>2021-07-11T09:28:18.000Z</time>
      </trkpt>
      <trkpt lat="41.37510167" lon="1.15285667">
        <ele>373.0</ele>
        <time>2021-07-11T09:28:19.000Z</time>
      </trkpt>
      <trkpt lat="41.37509333" lon="1.152855">
        <ele>372.0</ele>
        <time>2021-07-11T09:28:20.000Z</time>
      </trkpt>
      <trkpt lat="41.37508667" lon="1.15285667">
        <ele>372.0</ele>
        <time>2021-07-11T09:28:21.000Z</time>
      </trkpt>
      <trkpt lat="41.37508" lon="1.15286">
        <ele>372.0</ele>
        <time>2021-07-11T09:28:22.000Z</time>
      </trkpt>
      <trkpt lat="41.37506667" lon="1.15287">
        <ele>372.0</ele>
        <time>2021-07-11T09:28:23.000Z</time>
      </trkpt>
      <trkpt lat="41.37505333" lon="1.152885">
        <ele>372.0</ele>
        <time>2021-07-11T09:28:24.000Z</time>
      </trkpt>
      <trkpt lat="41.37504" lon="1.15290333">
        <ele>372.0</ele>
        <time>2021-07-11T09:28:25.000Z</time>
      </trkpt>
      <trkpt lat="41.37502667" lon="1.15292333">
        <ele>372.0</ele>
        <time>2021-07-11T09:28:26.000Z</time>
      </trkpt>
      <trkpt lat="41.37501333" lon="1.15294">
        <ele>372.0</ele>
        <time>2021-07-11T09:28:27.000Z</time>
      </trkpt>
      <trkpt lat="41.37500167" lon="1.15295333">
        <ele>372.0</ele>
        <time>2021-07-11T09:28:28.000Z</time>
      </trkpt>
      <trkpt lat="41.37499167" lon="1.15296667">
        <ele>372.0</ele>
        <time>2021-07-11T09:28:29.000Z</time>
      </trkpt>
      <trkpt lat="41.37497833" lon="1.15297833">
        <ele>372.0</ele>
        <time>2021-07-11T09:28:30.000Z</time>
      </trkpt>
      <trkpt lat="41.37496667" lon="1.15299167">
        <ele>372.0</ele>
        <time>2021-07-11T09:28:31.000Z</time>
      </trkpt>
      <trkpt lat="41.37495667" lon="1.15300167">
        <ele>372.0</ele>
        <time>2021-07-11T09:28:32.000Z</time>
      </trkpt>
      <trkpt lat="41.374945" lon="1.153015">
        <ele>372.0</ele>
        <time>2021-07-11T09:28:33.000Z</time>
      </trkpt>
      <trkpt lat="41.37493333" lon="1.15302667">
        <ele>372.0</ele>
        <time>2021-07-11T09:28:34.000Z</time>
      </trkpt>
      <trkpt lat="41.37492" lon="1.15303833">
        <ele>372.0</ele>
        <time>2021-07-11T09:28:35.000Z</time>
      </trkpt>
      <trkpt lat="41.37490833" lon="1.15305167">
        <ele>372.0</ele>
        <time>2021-07-11T09:28:36.000Z</time>
      </trkpt>
      <trkpt lat="41.37489333" lon="1.15306833">
        <ele>372.0</ele>
        <time>2021-07-11T09:28:37.000Z</time>
      </trkpt>
      <trkpt lat="41.37487833" lon="1.15309">
        <ele>372.0</ele>
        <time>2021-07-11T09:28:38.000Z</time>
      </trkpt>
      <trkpt lat="41.37486167" lon="1.15310833">
        <ele>372.0</ele>
        <time>2021-07-11T09:28:39.000Z</time>
      </trkpt>
      <trkpt lat="41.374845" lon="1.15312667">
        <ele>372.0</ele>
        <time>2021-07-11T09:28:40.000Z</time>
      </trkpt>
      <trkpt lat="41.37483167" lon="1.15314333">
        <ele>372.0</ele>
        <time>2021-07-11T09:28:41.000Z</time>
      </trkpt>
      <trkpt lat="41.37481667" lon="1.15316167">
        <ele>372.0</ele>
        <time>2021-07-11T09:28:42.000Z</time>
      </trkpt>
      <trkpt lat="41.37480167" lon="1.15317833">
        <ele>372.0</ele>
        <time>2021-07-11T09:28:43.000Z</time>
      </trkpt>
      <trkpt lat="41.37478667" lon="1.153195">
        <ele>372.0</ele>
        <time>2021-07-11T09:28:44.000Z</time>
      </trkpt>
      <trkpt lat="41.374775" lon="1.15321333">
        <ele>372.0</ele>
        <time>2021-07-11T09:28:45.000Z</time>
      </trkpt>
      <trkpt lat="41.37476167" lon="1.15322833">
        <ele>372.0</ele>
        <time>2021-07-11T09:28:46.000Z</time>
      </trkpt>
      <trkpt lat="41.37475167" lon="1.15324167">
        <ele>372.0</ele>
        <time>2021-07-11T09:28:47.000Z</time>
      </trkpt>
      <trkpt lat="41.37473833" lon="1.153255">
        <ele>372.0</ele>
        <time>2021-07-11T09:28:48.000Z</time>
      </trkpt>
      <trkpt lat="41.37472667" lon="1.15326667">
        <ele>372.0</ele>
        <time>2021-07-11T09:28:49.000Z</time>
      </trkpt>
      <trkpt lat="41.374715" lon="1.153275">
        <ele>372.0</ele>
        <time>2021-07-11T09:28:50.000Z</time>
      </trkpt>
      <trkpt lat="41.374705" lon="1.153285">
        <ele>372.0</ele>
        <time>2021-07-11T09:28:51.000Z</time>
      </trkpt>
      <trkpt lat="41.374695" lon="1.153295">
        <ele>372.0</ele>
        <time>2021-07-11T09:28:52.000Z</time>
      </trkpt>
      <trkpt lat="41.37468167" lon="1.15331167">
        <ele>372.0</ele>
        <time>2021-07-11T09:28:53.000Z</time>
      </trkpt>
      <trkpt lat="41.37466833" lon="1.15332833">
        <ele>372.0</ele>
        <time>2021-07-11T09:28:54.000Z</time>
      </trkpt>
      <trkpt lat="41.37465333" lon="1.15334667">
        <ele>372.0</ele>
        <time>2021-07-11T09:28:55.000Z</time>
      </trkpt>
      <trkpt lat="41.37463667" lon="1.153365">
        <ele>372.0</ele>
        <time>2021-07-11T09:28:56.000Z</time>
      </trkpt>
      <trkpt lat="41.37462333" lon="1.15338">
        <ele>372.0</ele>
        <time>2021-07-11T09:28:57.000Z</time>
      </trkpt>
      <trkpt lat="41.37460833" lon="1.153395">
        <ele>372.0</ele>
        <time>2021-07-11T09:28:58.000Z</time>
      </trkpt>
      <trkpt lat="41.374595" lon="1.15340833">
        <ele>373.0</ele>
        <time>2021-07-11T09:28:59.000Z</time>
      </trkpt>
      <trkpt lat="41.37458167" lon="1.15342167">
        <ele>373.0</ele>
        <time>2021-07-11T09:29:00.000Z</time>
      </trkpt>
      <trkpt lat="41.37456833" lon="1.15343333">
        <ele>373.0</ele>
        <time>2021-07-11T09:29:01.000Z</time>
      </trkpt>
      <trkpt lat="41.37455667" lon="1.153445">
        <ele>373.0</ele>
        <time>2021-07-11T09:29:02.000Z</time>
      </trkpt>
      <trkpt lat="41.374545" lon="1.153455">
        <ele>373.0</ele>
        <time>2021-07-11T09:29:03.000Z</time>
      </trkpt>
      <trkpt lat="41.37453167" lon="1.15346833">
        <ele>373.0</ele>
        <time>2021-07-11T09:29:04.000Z</time>
      </trkpt>
      <trkpt lat="41.37451833" lon="1.15348167">
        <ele>373.0</ele>
        <time>2021-07-11T09:29:05.000Z</time>
      </trkpt>
      <trkpt lat="41.374505" lon="1.153495">
        <ele>373.0</ele>
        <time>2021-07-11T09:29:06.000Z</time>
      </trkpt>
      <trkpt lat="41.37449" lon="1.15350833">
        <ele>373.0</ele>
        <time>2021-07-11T09:29:07.000Z</time>
      </trkpt>
      <trkpt lat="41.37447333" lon="1.15352333">
        <ele>373.0</ele>
        <time>2021-07-11T09:29:08.000Z</time>
      </trkpt>
      <trkpt lat="41.37446" lon="1.15353667">
        <ele>373.0</ele>
        <time>2021-07-11T09:29:09.000Z</time>
      </trkpt>
      <trkpt lat="41.374445" lon="1.15355">
        <ele>373.0</ele>
        <time>2021-07-11T09:29:10.000Z</time>
      </trkpt>
      <trkpt lat="41.37443333" lon="1.15356167">
        <ele>374.0</ele>
        <time>2021-07-11T09:29:11.000Z</time>
      </trkpt>
      <trkpt lat="41.37442167" lon="1.15357333">
        <ele>374.0</ele>
        <time>2021-07-11T09:29:12.000Z</time>
      </trkpt>
      <trkpt lat="41.37440667" lon="1.15358833">
        <ele>374.0</ele>
        <time>2021-07-11T09:29:13.000Z</time>
      </trkpt>
      <trkpt lat="41.37439333" lon="1.15360167">
        <ele>374.0</ele>
        <time>2021-07-11T09:29:14.000Z</time>
      </trkpt>
      <trkpt lat="41.37437833" lon="1.15361833">
        <ele>374.0</ele>
        <time>2021-07-11T09:29:15.000Z</time>
      </trkpt>
      <trkpt lat="41.37436333" lon="1.15363333">
        <ele>374.0</ele>
        <time>2021-07-11T09:29:16.000Z</time>
      </trkpt>
      <trkpt lat="41.37434833" lon="1.153645">
        <ele>374.0</ele>
        <time>2021-07-11T09:29:17.000Z</time>
      </trkpt>
      <trkpt lat="41.37433667" lon="1.15365833">
        <ele>374.0</ele>
        <time>2021-07-11T09:29:18.000Z</time>
      </trkpt>
      <trkpt lat="41.374325" lon="1.15367167">
        <ele>374.0</ele>
        <time>2021-07-11T09:29:19.000Z</time>
      </trkpt>
      <trkpt lat="41.37431" lon="1.15368167">
        <ele>374.0</ele>
        <time>2021-07-11T09:29:20.000Z</time>
      </trkpt>
      <trkpt lat="41.37429667" lon="1.15369667">
        <ele>374.0</ele>
        <time>2021-07-11T09:29:21.000Z</time>
      </trkpt>
      <trkpt lat="41.37428167" lon="1.15371333">
        <ele>374.0</ele>
        <time>2021-07-11T09:29:22.000Z</time>
      </trkpt>
      <trkpt lat="41.37426833" lon="1.15372833">
        <ele>374.0</ele>
        <time>2021-07-11T09:29:23.000Z</time>
      </trkpt>
      <trkpt lat="41.374255" lon="1.15374167">
        <ele>374.0</ele>
        <time>2021-07-11T09:29:24.000Z</time>
      </trkpt>
      <trkpt lat="41.37424167" lon="1.15375167">
        <ele>374.0</ele>
        <time>2021-07-11T09:29:25.000Z</time>
      </trkpt>
      <trkpt lat="41.37423" lon="1.15376333">
        <ele>374.0</ele>
        <time>2021-07-11T09:29:26.000Z</time>
      </trkpt>
      <trkpt lat="41.37421667" lon="1.153775">
        <ele>374.0</ele>
        <time>2021-07-11T09:29:27.000Z</time>
      </trkpt>
      <trkpt lat="41.374205" lon="1.15378667">
        <ele>374.0</ele>
        <time>2021-07-11T09:29:28.000Z</time>
      </trkpt>
      <trkpt lat="41.37419667" lon="1.15379833">
        <ele>374.0</ele>
        <time>2021-07-11T09:29:29.000Z</time>
      </trkpt>
      <trkpt lat="41.37418833" lon="1.15380667">
        <ele>374.0</ele>
        <time>2021-07-11T09:29:30.000Z</time>
      </trkpt>
      <trkpt lat="41.37418" lon="1.15381333">
        <ele>374.0</ele>
        <time>2021-07-11T09:29:31.000Z</time>
      </trkpt>
      <trkpt lat="41.37417167" lon="1.15382167">
        <ele>374.0</ele>
        <time>2021-07-11T09:29:32.000Z</time>
      </trkpt>
      <trkpt lat="41.37416333" lon="1.15382833">
        <ele>374.0</ele>
        <time>2021-07-11T09:29:33.000Z</time>
      </trkpt>
      <trkpt lat="41.37415333" lon="1.15383833">
        <ele>374.0</ele>
        <time>2021-07-11T09:29:34.000Z</time>
      </trkpt>
      <trkpt lat="41.37414333" lon="1.15384667">
        <ele>374.0</ele>
        <time>2021-07-11T09:29:35.000Z</time>
      </trkpt>
      <trkpt lat="41.37413333" lon="1.153855">
        <ele>374.0</ele>
        <time>2021-07-11T09:29:36.000Z</time>
      </trkpt>
      <trkpt lat="41.37412167" lon="1.15386167">
        <ele>374.0</ele>
        <time>2021-07-11T09:29:37.000Z</time>
      </trkpt>
      <trkpt lat="41.37411" lon="1.15387167">
        <ele>374.0</ele>
        <time>2021-07-11T09:29:38.000Z</time>
      </trkpt>
      <trkpt lat="41.374095" lon="1.153885">
        <ele>374.0</ele>
        <time>2021-07-11T09:29:39.000Z</time>
      </trkpt>
      <trkpt lat="41.37408333" lon="1.15389667">
        <ele>374.0</ele>
        <time>2021-07-11T09:29:40.000Z</time>
      </trkpt>
      <trkpt lat="41.37407167" lon="1.15390667">
        <ele>374.0</ele>
        <time>2021-07-11T09:29:41.000Z</time>
      </trkpt>
      <trkpt lat="41.37406" lon="1.15391667">
        <ele>374.0</ele>
        <time>2021-07-11T09:29:42.000Z</time>
      </trkpt>
      <trkpt lat="41.37404833" lon="1.15392667">
        <ele>374.0</ele>
        <time>2021-07-11T09:29:43.000Z</time>
      </trkpt>
      <trkpt lat="41.37403667" lon="1.15393667">
        <ele>374.0</ele>
        <time>2021-07-11T09:29:44.000Z</time>
      </trkpt>
      <trkpt lat="41.37402667" lon="1.153945">
        <ele>374.0</ele>
        <time>2021-07-11T09:29:45.000Z</time>
      </trkpt>
      <trkpt lat="41.37401667" lon="1.153955">
        <ele>374.0</ele>
        <time>2021-07-11T09:29:46.000Z</time>
      </trkpt>
      <trkpt lat="41.374005" lon="1.15396333">
        <ele>374.0</ele>
        <time>2021-07-11T09:29:47.000Z</time>
      </trkpt>
      <trkpt lat="41.373995" lon="1.15397167">
        <ele>374.0</ele>
        <time>2021-07-11T09:29:48.000Z</time>
      </trkpt>
      <trkpt lat="41.37398333" lon="1.15398167">
        <ele>374.0</ele>
        <time>2021-07-11T09:29:49.000Z</time>
      </trkpt>
      <trkpt lat="41.37397" lon="1.153995">
        <ele>374.0</ele>
        <time>2021-07-11T09:29:50.000Z</time>
      </trkpt>
      <trkpt lat="41.373955" lon="1.15401">
        <ele>374.0</ele>
        <time>2021-07-11T09:29:51.000Z</time>
      </trkpt>
      <trkpt lat="41.37394" lon="1.154025">
        <ele>374.0</ele>
        <time>2021-07-11T09:29:52.000Z</time>
      </trkpt>
      <trkpt lat="41.373925" lon="1.15404">
        <ele>374.0</ele>
        <time>2021-07-11T09:29:53.000Z</time>
      </trkpt>
      <trkpt lat="41.37391" lon="1.15405833">
        <ele>374.0</ele>
        <time>2021-07-11T09:29:54.000Z</time>
      </trkpt>
      <trkpt lat="41.37389333" lon="1.15407333">
        <ele>374.0</ele>
        <time>2021-07-11T09:29:55.000Z</time>
      </trkpt>
      <trkpt lat="41.37387833" lon="1.15408667">
        <ele>374.0</ele>
        <time>2021-07-11T09:29:56.000Z</time>
      </trkpt>
      <trkpt lat="41.37386333" lon="1.15410167">
        <ele>374.0</ele>
        <time>2021-07-11T09:29:57.000Z</time>
      </trkpt>
      <trkpt lat="41.37384833" lon="1.154115">
        <ele>374.0</ele>
        <time>2021-07-11T09:29:58.000Z</time>
      </trkpt>
      <trkpt lat="41.37383667" lon="1.15412667">
        <ele>374.0</ele>
        <time>2021-07-11T09:29:59.000Z</time>
      </trkpt>
      <trkpt lat="41.37382333" lon="1.15414">
        <ele>374.0</ele>
        <time>2021-07-11T09:30:00.000Z</time>
      </trkpt>
      <trkpt lat="41.37380833" lon="1.15415333">
        <ele>374.0</ele>
        <time>2021-07-11T09:30:01.000Z</time>
      </trkpt>
      <trkpt lat="41.373795" lon="1.154165">
        <ele>374.0</ele>
        <time>2021-07-11T09:30:02.000Z</time>
      </trkpt>
      <trkpt lat="41.37378167" lon="1.15417667">
        <ele>374.0</ele>
        <time>2021-07-11T09:30:03.000Z</time>
      </trkpt>
      <trkpt lat="41.37377" lon="1.15418667">
        <ele>374.0</ele>
        <time>2021-07-11T09:30:04.000Z</time>
      </trkpt>
      <trkpt lat="41.37375667" lon="1.15419833">
        <ele>374.0</ele>
        <time>2021-07-11T09:30:05.000Z</time>
      </trkpt>
      <trkpt lat="41.373745" lon="1.15420667">
        <ele>374.0</ele>
        <time>2021-07-11T09:30:06.000Z</time>
      </trkpt>
      <trkpt lat="41.37373333" lon="1.15421833">
        <ele>374.0</ele>
        <time>2021-07-11T09:30:07.000Z</time>
      </trkpt>
      <trkpt lat="41.37372" lon="1.15423167">
        <ele>374.0</ele>
        <time>2021-07-11T09:30:08.000Z</time>
      </trkpt>
      <trkpt lat="41.37370667" lon="1.15424667">
        <ele>374.0</ele>
        <time>2021-07-11T09:30:09.000Z</time>
      </trkpt>
      <trkpt lat="41.373695" lon="1.15426">
        <ele>374.0</ele>
        <time>2021-07-11T09:30:10.000Z</time>
      </trkpt>
      <trkpt lat="41.37368167" lon="1.15427333">
        <ele>374.0</ele>
        <time>2021-07-11T09:30:11.000Z</time>
      </trkpt>
      <trkpt lat="41.37367" lon="1.15428333">
        <ele>374.0</ele>
        <time>2021-07-11T09:30:12.000Z</time>
      </trkpt>
      <trkpt lat="41.37365833" lon="1.15429333">
        <ele>374.0</ele>
        <time>2021-07-11T09:30:13.000Z</time>
      </trkpt>
      <trkpt lat="41.37364667" lon="1.154305">
        <ele>374.0</ele>
        <time>2021-07-11T09:30:14.000Z</time>
      </trkpt>
      <trkpt lat="41.373635" lon="1.154315">
        <ele>375.0</ele>
        <time>2021-07-11T09:30:15.000Z</time>
      </trkpt>
      <trkpt lat="41.37362167" lon="1.15432667">
        <ele>375.0</ele>
        <time>2021-07-11T09:30:16.000Z</time>
      </trkpt>
      <trkpt lat="41.37361167" lon="1.15433833">
        <ele>375.0</ele>
        <time>2021-07-11T09:30:17.000Z</time>
      </trkpt>
      <trkpt lat="41.37360167" lon="1.15434667">
        <ele>375.0</ele>
        <time>2021-07-11T09:30:18.000Z</time>
      </trkpt>
      <trkpt lat="41.37359333" lon="1.15435667">
        <ele>375.0</ele>
        <time>2021-07-11T09:30:19.000Z</time>
      </trkpt>
      <trkpt lat="41.37358333" lon="1.15436833">
        <ele>375.0</ele>
        <time>2021-07-11T09:30:20.000Z</time>
      </trkpt>
      <trkpt lat="41.37357167" lon="1.15438">
        <ele>375.0</ele>
        <time>2021-07-11T09:30:21.000Z</time>
      </trkpt>
      <trkpt lat="41.37355833" lon="1.15439">
        <ele>375.0</ele>
        <time>2021-07-11T09:30:22.000Z</time>
      </trkpt>
      <trkpt lat="41.37354667" lon="1.15440167">
        <ele>375.0</ele>
        <time>2021-07-11T09:30:23.000Z</time>
      </trkpt>
      <trkpt lat="41.37353333" lon="1.15441167">
        <ele>375.0</ele>
        <time>2021-07-11T09:30:24.000Z</time>
      </trkpt>
      <trkpt lat="41.37352167" lon="1.15442167">
        <ele>375.0</ele>
        <time>2021-07-11T09:30:25.000Z</time>
      </trkpt>
      <trkpt lat="41.37351167" lon="1.15442833">
        <ele>375.0</ele>
        <time>2021-07-11T09:30:26.000Z</time>
      </trkpt>
      <trkpt lat="41.3735" lon="1.15443333">
        <ele>375.0</ele>
        <time>2021-07-11T09:30:27.000Z</time>
      </trkpt>
      <trkpt lat="41.37349167" lon="1.15443833">
        <ele>375.0</ele>
        <time>2021-07-11T09:30:28.000Z</time>
      </trkpt>
      <trkpt lat="41.37348333" lon="1.154445">
        <ele>375.0</ele>
        <time>2021-07-11T09:30:29.000Z</time>
      </trkpt>
      <trkpt lat="41.373475" lon="1.15445167">
        <ele>375.0</ele>
        <time>2021-07-11T09:30:30.000Z</time>
      </trkpt>
      <trkpt lat="41.37346333" lon="1.15445833">
        <ele>376.0</ele>
        <time>2021-07-11T09:30:31.000Z</time>
      </trkpt>
      <trkpt lat="41.37345" lon="1.15446667">
        <ele>376.0</ele>
        <time>2021-07-11T09:30:32.000Z</time>
      </trkpt>
      <trkpt lat="41.37343667" lon="1.15447833">
        <ele>376.0</ele>
        <time>2021-07-11T09:30:33.000Z</time>
      </trkpt>
      <trkpt lat="41.373425" lon="1.15449">
        <ele>376.0</ele>
        <time>2021-07-11T09:30:34.000Z</time>
      </trkpt>
      <trkpt lat="41.37341167" lon="1.15450167">
        <ele>376.0</ele>
        <time>2021-07-11T09:30:35.000Z</time>
      </trkpt>
      <trkpt lat="41.37339667" lon="1.15451167">
        <ele>376.0</ele>
        <time>2021-07-11T09:30:36.000Z</time>
      </trkpt>
      <trkpt lat="41.37338333" lon="1.15452333">
        <ele>376.0</ele>
        <time>2021-07-11T09:30:37.000Z</time>
      </trkpt>
      <trkpt lat="41.37336833" lon="1.154535">
        <ele>376.0</ele>
        <time>2021-07-11T09:30:38.000Z</time>
      </trkpt>
      <trkpt lat="41.37335667" lon="1.15454667">
        <ele>376.0</ele>
        <time>2021-07-11T09:30:39.000Z</time>
      </trkpt>
      <trkpt lat="41.37334667" lon="1.154555">
        <ele>376.0</ele>
        <time>2021-07-11T09:30:40.000Z</time>
      </trkpt>
      <trkpt lat="41.37333667" lon="1.15456167">
        <ele>376.0</ele>
        <time>2021-07-11T09:30:41.000Z</time>
      </trkpt>
      <trkpt lat="41.37332667" lon="1.15456833">
        <ele>376.0</ele>
        <time>2021-07-11T09:30:42.000Z</time>
      </trkpt>
      <trkpt lat="41.373315" lon="1.15457667">
        <ele>376.0</ele>
        <time>2021-07-11T09:30:43.000Z</time>
      </trkpt>
      <trkpt lat="41.37330333" lon="1.154585">
        <ele>376.0</ele>
        <time>2021-07-11T09:30:44.000Z</time>
      </trkpt>
      <trkpt lat="41.37329167" lon="1.154595">
        <ele>376.0</ele>
        <time>2021-07-11T09:30:45.000Z</time>
      </trkpt>
      <trkpt lat="41.37327833" lon="1.15460333">
        <ele>376.0</ele>
        <time>2021-07-11T09:30:46.000Z</time>
      </trkpt>
      <trkpt lat="41.37326667" lon="1.15461167">
        <ele>375.0</ele>
        <time>2021-07-11T09:30:47.000Z</time>
      </trkpt>
      <trkpt lat="41.37325833" lon="1.15461833">
        <ele>375.0</ele>
        <time>2021-07-11T09:30:48.000Z</time>
      </trkpt>
      <trkpt lat="41.37324833" lon="1.154625">
        <ele>375.0</ele>
        <time>2021-07-11T09:30:49.000Z</time>
      </trkpt>
      <trkpt lat="41.37324" lon="1.15463167">
        <ele>375.0</ele>
        <time>2021-07-11T09:30:50.000Z</time>
      </trkpt>
      <trkpt lat="41.37323167" lon="1.15463833">
        <ele>375.0</ele>
        <time>2021-07-11T09:30:51.000Z</time>
      </trkpt>
      <trkpt lat="41.37322" lon="1.15464667">
        <ele>375.0</ele>
        <time>2021-07-11T09:30:52.000Z</time>
      </trkpt>
      <trkpt lat="41.37320667" lon="1.15465667">
        <ele>375.0</ele>
        <time>2021-07-11T09:30:53.000Z</time>
      </trkpt>
      <trkpt lat="41.373195" lon="1.15466667">
        <ele>375.0</ele>
        <time>2021-07-11T09:30:54.000Z</time>
      </trkpt>
      <trkpt lat="41.373185" lon="1.154675">
        <ele>375.0</ele>
        <time>2021-07-11T09:30:55.000Z</time>
      </trkpt>
      <trkpt lat="41.373175" lon="1.15468167">
        <ele>375.0</ele>
        <time>2021-07-11T09:30:56.000Z</time>
      </trkpt>
      <trkpt lat="41.37316333" lon="1.15469167">
        <ele>375.0</ele>
        <time>2021-07-11T09:30:57.000Z</time>
      </trkpt>
      <trkpt lat="41.37315167" lon="1.15470167">
        <ele>375.0</ele>
        <time>2021-07-11T09:30:58.000Z</time>
      </trkpt>
      <trkpt lat="41.37314" lon="1.15471">
        <ele>375.0</ele>
        <time>2021-07-11T09:30:59.000Z</time>
      </trkpt>
      <trkpt lat="41.37313" lon="1.15472">
        <ele>375.0</ele>
        <time>2021-07-11T09:31:00.000Z</time>
      </trkpt>
      <trkpt lat="41.37311833" lon="1.15473">
        <ele>375.0</ele>
        <time>2021-07-11T09:31:01.000Z</time>
      </trkpt>
      <trkpt lat="41.373105" lon="1.15474167">
        <ele>375.0</ele>
        <time>2021-07-11T09:31:02.000Z</time>
      </trkpt>
      <trkpt lat="41.37309167" lon="1.154755">
        <ele>375.0</ele>
        <time>2021-07-11T09:31:03.000Z</time>
      </trkpt>
      <trkpt lat="41.37307833" lon="1.15477">
        <ele>375.0</ele>
        <time>2021-07-11T09:31:04.000Z</time>
      </trkpt>
      <trkpt lat="41.373065" lon="1.15478667">
        <ele>375.0</ele>
        <time>2021-07-11T09:31:05.000Z</time>
      </trkpt>
      <trkpt lat="41.37305" lon="1.15480167">
        <ele>375.0</ele>
        <time>2021-07-11T09:31:06.000Z</time>
      </trkpt>
      <trkpt lat="41.37303667" lon="1.154815">
        <ele>375.0</ele>
        <time>2021-07-11T09:31:07.000Z</time>
      </trkpt>
      <trkpt lat="41.37302667" lon="1.154825">
        <ele>375.0</ele>
        <time>2021-07-11T09:31:08.000Z</time>
      </trkpt>
      <trkpt lat="41.373015" lon="1.154835">
        <ele>375.0</ele>
        <time>2021-07-11T09:31:09.000Z</time>
      </trkpt>
      <trkpt lat="41.373005" lon="1.154845">
        <ele>375.0</ele>
        <time>2021-07-11T09:31:10.000Z</time>
      </trkpt>
      <trkpt lat="41.37299333" lon="1.154855">
        <ele>375.0</ele>
        <time>2021-07-11T09:31:11.000Z</time>
      </trkpt>
      <trkpt lat="41.37298333" lon="1.154865">
        <ele>375.0</ele>
        <time>2021-07-11T09:31:12.000Z</time>
      </trkpt>
      <trkpt lat="41.37297333" lon="1.15487667">
        <ele>375.0</ele>
        <time>2021-07-11T09:31:13.000Z</time>
      </trkpt>
      <trkpt lat="41.37296333" lon="1.15488667">
        <ele>375.0</ele>
        <time>2021-07-11T09:31:14.000Z</time>
      </trkpt>
      <trkpt lat="41.37295333" lon="1.15489167">
        <ele>375.0</ele>
        <time>2021-07-11T09:31:15.000Z</time>
      </trkpt>
      <trkpt lat="41.372945" lon="1.15489667">
        <ele>375.0</ele>
        <time>2021-07-11T09:31:16.000Z</time>
      </trkpt>
      <trkpt lat="41.37293667" lon="1.15490333">
        <ele>375.0</ele>
        <time>2021-07-11T09:31:17.000Z</time>
      </trkpt>
      <trkpt lat="41.37292833" lon="1.15491">
        <ele>375.0</ele>
        <time>2021-07-11T09:31:18.000Z</time>
      </trkpt>
      <trkpt lat="41.37292" lon="1.15491667">
        <ele>375.0</ele>
        <time>2021-07-11T09:31:19.000Z</time>
      </trkpt>
      <trkpt lat="41.37291167" lon="1.15492333">
        <ele>375.0</ele>
        <time>2021-07-11T09:31:20.000Z</time>
      </trkpt>
      <trkpt lat="41.37290167" lon="1.15493">
        <ele>375.0</ele>
        <time>2021-07-11T09:31:21.000Z</time>
      </trkpt>
      <trkpt lat="41.37289333" lon="1.15493833">
        <ele>375.0</ele>
        <time>2021-07-11T09:31:22.000Z</time>
      </trkpt>
      <trkpt lat="41.37288333" lon="1.154945">
        <ele>375.0</ele>
        <time>2021-07-11T09:31:23.000Z</time>
      </trkpt>
      <trkpt lat="41.37287667" lon="1.15494833">
        <ele>375.0</ele>
        <time>2021-07-11T09:31:24.000Z</time>
      </trkpt>
      <trkpt lat="41.37287167" lon="1.15495333">
        <ele>375.0</ele>
        <time>2021-07-11T09:31:25.000Z</time>
      </trkpt>
      <trkpt lat="41.37286667" lon="1.15495167">
        <ele>374.0</ele>
        <time>2021-07-11T09:31:26.000Z</time>
      </trkpt>
      <trkpt lat="41.372865" lon="1.15494667">
        <ele>374.0</ele>
        <time>2021-07-11T09:31:27.000Z</time>
      </trkpt>
      <trkpt lat="41.37286333" lon="1.15494333">
        <ele>374.0</ele>
        <time>2021-07-11T09:31:28.000Z</time>
      </trkpt>
      <trkpt lat="41.37286167" lon="1.15493833">
        <ele>374.0</ele>
        <time>2021-07-11T09:31:29.000Z</time>
      </trkpt>
      <trkpt lat="41.37286167" lon="1.15492833">
        <ele>375.0</ele>
        <time>2021-07-11T09:31:30.000Z</time>
      </trkpt>
      <trkpt lat="41.37286167" lon="1.154915">
        <ele>375.0</ele>
        <time>2021-07-11T09:31:31.000Z</time>
      </trkpt>
      <trkpt lat="41.37286167" lon="1.15490167">
        <ele>375.0</ele>
        <time>2021-07-11T09:31:32.000Z</time>
      </trkpt>
      <trkpt lat="41.37286333" lon="1.15488833">
        <ele>375.0</ele>
        <time>2021-07-11T09:31:33.000Z</time>
      </trkpt>
      <trkpt lat="41.372865" lon="1.15487833">
        <ele>375.0</ele>
        <time>2021-07-11T09:31:34.000Z</time>
      </trkpt>
      <trkpt lat="41.37286333" lon="1.15486833">
        <ele>375.0</ele>
        <time>2021-07-11T09:31:35.000Z</time>
      </trkpt>
      <trkpt lat="41.37286167" lon="1.15486167">
        <ele>375.0</ele>
        <time>2021-07-11T09:31:36.000Z</time>
      </trkpt>
      <trkpt lat="41.37285833" lon="1.15485833">
        <ele>375.0</ele>
        <time>2021-07-11T09:31:37.000Z</time>
      </trkpt>
      <trkpt lat="41.37285167" lon="1.15486167">
        <ele>374.0</ele>
        <time>2021-07-11T09:31:38.000Z</time>
      </trkpt>
      <trkpt lat="41.372845" lon="1.15487">
        <ele>374.0</ele>
        <time>2021-07-11T09:31:39.000Z</time>
      </trkpt>
      <trkpt lat="41.372825" lon="1.15491">
        <ele>374.0</ele>
        <time>2021-07-11T09:31:40.000Z</time>
      </trkpt>
      <trkpt lat="41.372805" lon="1.15495167">
        <ele>374.0</ele>
        <time>2021-07-11T09:31:41.000Z</time>
      </trkpt>
      <trkpt lat="41.37278833" lon="1.15499167">
        <ele>374.0</ele>
        <time>2021-07-11T09:31:42.000Z</time>
      </trkpt>
      <trkpt lat="41.37277333" lon="1.15503167">
        <ele>374.0</ele>
        <time>2021-07-11T09:31:43.000Z</time>
      </trkpt>
      <trkpt lat="41.37275833" lon="1.15506833">
        <ele>374.0</ele>
        <time>2021-07-11T09:31:44.000Z</time>
      </trkpt>
      <trkpt lat="41.372745" lon="1.15510167">
        <ele>375.0</ele>
        <time>2021-07-11T09:31:45.000Z</time>
      </trkpt>
      <trkpt lat="41.372735" lon="1.155135">
        <ele>375.0</ele>
        <time>2021-07-11T09:31:46.000Z</time>
      </trkpt>
      <trkpt lat="41.37272667" lon="1.155165">
        <ele>375.0</ele>
        <time>2021-07-11T09:31:47.000Z</time>
      </trkpt>
      <trkpt lat="41.37272" lon="1.155195">
        <ele>375.0</ele>
        <time>2021-07-11T09:31:48.000Z</time>
      </trkpt>
      <trkpt lat="41.372715" lon="1.15522167">
        <ele>375.0</ele>
        <time>2021-07-11T09:31:49.000Z</time>
      </trkpt>
      <trkpt lat="41.37271333" lon="1.15524667">
        <ele>375.0</ele>
        <time>2021-07-11T09:31:50.000Z</time>
      </trkpt>
      <trkpt lat="41.37271333" lon="1.15527167">
        <ele>375.0</ele>
        <time>2021-07-11T09:31:51.000Z</time>
      </trkpt>
      <trkpt lat="41.372715" lon="1.15529333">
        <ele>375.0</ele>
        <time>2021-07-11T09:31:52.000Z</time>
      </trkpt>
      <trkpt lat="41.37271667" lon="1.15531667">
        <ele>375.0</ele>
        <time>2021-07-11T09:31:53.000Z</time>
      </trkpt>
      <trkpt lat="41.37272" lon="1.15533667">
        <ele>375.0</ele>
        <time>2021-07-11T09:31:54.000Z</time>
      </trkpt>
      <trkpt lat="41.37272333" lon="1.15535667">
        <ele>375.0</ele>
        <time>2021-07-11T09:31:55.000Z</time>
      </trkpt>
      <trkpt lat="41.37272667" lon="1.15537333">
        <ele>376.0</ele>
        <time>2021-07-11T09:31:56.000Z</time>
      </trkpt>
      <trkpt lat="41.37273167" lon="1.15538833">
        <ele>376.0</ele>
        <time>2021-07-11T09:31:57.000Z</time>
      </trkpt>
      <trkpt lat="41.37273667" lon="1.15540333">
        <ele>376.0</ele>
        <time>2021-07-11T09:31:58.000Z</time>
      </trkpt>
      <trkpt lat="41.372735" lon="1.15542833">
        <ele>376.0</ele>
        <time>2021-07-11T09:31:59.000Z</time>
      </trkpt>
      <trkpt lat="41.37273333" lon="1.155455">
        <ele>376.0</ele>
        <time>2021-07-11T09:32:00.000Z</time>
      </trkpt>
      <trkpt lat="41.37273" lon="1.15548833">
        <ele>376.0</ele>
        <time>2021-07-11T09:32:01.000Z</time>
      </trkpt>
      <trkpt lat="41.37272667" lon="1.15552">
        <ele>376.0</ele>
        <time>2021-07-11T09:32:02.000Z</time>
      </trkpt>
      <trkpt lat="41.37272667" lon="1.15555">
        <ele>377.0</ele>
        <time>2021-07-11T09:32:03.000Z</time>
      </trkpt>
      <trkpt lat="41.37272333" lon="1.15558">
        <ele>377.0</ele>
        <time>2021-07-11T09:32:04.000Z</time>
      </trkpt>
      <trkpt lat="41.372725" lon="1.15560667">
        <ele>377.0</ele>
        <time>2021-07-11T09:32:05.000Z</time>
      </trkpt>
      <trkpt lat="41.37272667" lon="1.15563167">
        <ele>377.0</ele>
        <time>2021-07-11T09:32:06.000Z</time>
      </trkpt>
      <trkpt lat="41.372725" lon="1.15566">
        <ele>378.0</ele>
        <time>2021-07-11T09:32:07.000Z</time>
      </trkpt>
      <trkpt lat="41.372725" lon="1.15569">
        <ele>378.0</ele>
        <time>2021-07-11T09:32:08.000Z</time>
      </trkpt>
      <trkpt lat="41.372725" lon="1.15572167">
        <ele>378.0</ele>
        <time>2021-07-11T09:32:09.000Z</time>
      </trkpt>
      <trkpt lat="41.37272333" lon="1.15574833">
        <ele>378.0</ele>
        <time>2021-07-11T09:32:10.000Z</time>
      </trkpt>
      <trkpt lat="41.37272167" lon="1.155775">
        <ele>378.0</ele>
        <time>2021-07-11T09:32:11.000Z</time>
      </trkpt>
      <trkpt lat="41.37272167" lon="1.15580167">
        <ele>378.0</ele>
        <time>2021-07-11T09:32:12.000Z</time>
      </trkpt>
      <trkpt lat="41.37272" lon="1.15583333">
        <ele>378.0</ele>
        <time>2021-07-11T09:32:13.000Z</time>
      </trkpt>
      <trkpt lat="41.37271667" lon="1.15586167">
        <ele>378.0</ele>
        <time>2021-07-11T09:32:14.000Z</time>
      </trkpt>
      <trkpt lat="41.37271333" lon="1.15588667">
        <ele>378.0</ele>
        <time>2021-07-11T09:32:15.000Z</time>
      </trkpt>
      <trkpt lat="41.37271167" lon="1.15590833">
        <ele>379.0</ele>
        <time>2021-07-11T09:32:16.000Z</time>
      </trkpt>
      <trkpt lat="41.37271" lon="1.15593167">
        <ele>379.0</ele>
        <time>2021-07-11T09:32:17.000Z</time>
      </trkpt>
      <trkpt lat="41.37271" lon="1.155955">
        <ele>379.0</ele>
        <time>2021-07-11T09:32:18.000Z</time>
      </trkpt>
      <trkpt lat="41.37271" lon="1.15597667">
        <ele>379.0</ele>
        <time>2021-07-11T09:32:19.000Z</time>
      </trkpt>
      <trkpt lat="41.37271" lon="1.15599833">
        <ele>379.0</ele>
        <time>2021-07-11T09:32:20.000Z</time>
      </trkpt>
      <trkpt lat="41.37271167" lon="1.15602">
        <ele>379.0</ele>
        <time>2021-07-11T09:32:21.000Z</time>
      </trkpt>
      <trkpt lat="41.372715" lon="1.15604">
        <ele>379.0</ele>
        <time>2021-07-11T09:32:22.000Z</time>
      </trkpt>
      <trkpt lat="41.372715" lon="1.15606167">
        <ele>379.0</ele>
        <time>2021-07-11T09:32:23.000Z</time>
      </trkpt>
      <trkpt lat="41.37271667" lon="1.15608167">
        <ele>379.0</ele>
        <time>2021-07-11T09:32:24.000Z</time>
      </trkpt>
      <trkpt lat="41.37271667" lon="1.15610667">
        <ele>380.0</ele>
        <time>2021-07-11T09:32:25.000Z</time>
      </trkpt>
      <trkpt lat="41.37271667" lon="1.15613167">
        <ele>380.0</ele>
        <time>2021-07-11T09:32:26.000Z</time>
      </trkpt>
      <trkpt lat="41.37271833" lon="1.15615833">
        <ele>380.0</ele>
        <time>2021-07-11T09:32:27.000Z</time>
      </trkpt>
      <trkpt lat="41.37271833" lon="1.15618">
        <ele>380.0</ele>
        <time>2021-07-11T09:32:28.000Z</time>
      </trkpt>
      <trkpt lat="41.37272" lon="1.15620333">
        <ele>380.0</ele>
        <time>2021-07-11T09:32:29.000Z</time>
      </trkpt>
      <trkpt lat="41.37272" lon="1.15622333">
        <ele>380.0</ele>
        <time>2021-07-11T09:32:30.000Z</time>
      </trkpt>
      <trkpt lat="41.37272333" lon="1.15624167">
        <ele>380.0</ele>
        <time>2021-07-11T09:32:31.000Z</time>
      </trkpt>
      <trkpt lat="41.37272667" lon="1.15625667">
        <ele>380.0</ele>
        <time>2021-07-11T09:32:32.000Z</time>
      </trkpt>
      <trkpt lat="41.37272667" lon="1.15626833">
        <ele>380.0</ele>
        <time>2021-07-11T09:32:33.000Z</time>
      </trkpt>
      <trkpt lat="41.37273" lon="1.156275">
        <ele>380.0</ele>
        <time>2021-07-11T09:32:34.000Z</time>
      </trkpt>
      <trkpt lat="41.37273667" lon="1.156285">
        <ele>380.0</ele>
        <time>2021-07-11T09:32:35.000Z</time>
      </trkpt>
      <trkpt lat="41.37274333" lon="1.15630167">
        <ele>380.0</ele>
        <time>2021-07-11T09:32:36.000Z</time>
      </trkpt>
      <trkpt lat="41.37275" lon="1.15631667">
        <ele>380.0</ele>
        <time>2021-07-11T09:32:37.000Z</time>
      </trkpt>
      <trkpt lat="41.37275667" lon="1.15633167">
        <ele>380.0</ele>
        <time>2021-07-11T09:32:38.000Z</time>
      </trkpt>
      <trkpt lat="41.37276333" lon="1.156345">
        <ele>380.0</ele>
        <time>2021-07-11T09:32:39.000Z</time>
      </trkpt>
      <trkpt lat="41.37277167" lon="1.15635667">
        <ele>380.0</ele>
        <time>2021-07-11T09:32:40.000Z</time>
      </trkpt>
      <trkpt lat="41.37278167" lon="1.15636833">
        <ele>380.0</ele>
        <time>2021-07-11T09:32:41.000Z</time>
      </trkpt>
      <trkpt lat="41.37279" lon="1.15637833">
        <ele>380.0</ele>
        <time>2021-07-11T09:32:42.000Z</time>
      </trkpt>
      <trkpt lat="41.37279833" lon="1.15638667">
        <ele>380.0</ele>
        <time>2021-07-11T09:32:43.000Z</time>
      </trkpt>
      <trkpt lat="41.37280667" lon="1.15639833">
        <ele>380.0</ele>
        <time>2021-07-11T09:32:44.000Z</time>
      </trkpt>
      <trkpt lat="41.372815" lon="1.15641">
        <ele>380.0</ele>
        <time>2021-07-11T09:32:45.000Z</time>
      </trkpt>
      <trkpt lat="41.37282" lon="1.156425">
        <ele>380.0</ele>
        <time>2021-07-11T09:32:46.000Z</time>
      </trkpt>
      <trkpt lat="41.37282333" lon="1.15644333">
        <ele>380.0</ele>
        <time>2021-07-11T09:32:47.000Z</time>
      </trkpt>
      <trkpt lat="41.37282833" lon="1.15646333">
        <ele>380.0</ele>
        <time>2021-07-11T09:32:48.000Z</time>
      </trkpt>
      <trkpt lat="41.37283167" lon="1.15648333">
        <ele>380.0</ele>
        <time>2021-07-11T09:32:49.000Z</time>
      </trkpt>
      <trkpt lat="41.37283333" lon="1.15650667">
        <ele>380.0</ele>
        <time>2021-07-11T09:32:50.000Z</time>
      </trkpt>
      <trkpt lat="41.37283167" lon="1.15653167">
        <ele>380.0</ele>
        <time>2021-07-11T09:32:51.000Z</time>
      </trkpt>
      <trkpt lat="41.37283" lon="1.15655667">
        <ele>380.0</ele>
        <time>2021-07-11T09:32:52.000Z</time>
      </trkpt>
      <trkpt lat="41.37282667" lon="1.15658833">
        <ele>380.0</ele>
        <time>2021-07-11T09:32:53.000Z</time>
      </trkpt>
      <trkpt lat="41.37282333" lon="1.156625">
        <ele>380.0</ele>
        <time>2021-07-11T09:32:54.000Z</time>
      </trkpt>
      <trkpt lat="41.37281667" lon="1.15666167">
        <ele>380.0</ele>
        <time>2021-07-11T09:32:55.000Z</time>
      </trkpt>
      <trkpt lat="41.37281167" lon="1.156695">
        <ele>380.0</ele>
        <time>2021-07-11T09:32:56.000Z</time>
      </trkpt>
      <trkpt lat="41.372805" lon="1.15672667">
        <ele>380.0</ele>
        <time>2021-07-11T09:32:57.000Z</time>
      </trkpt>
      <trkpt lat="41.37279667" lon="1.15676667">
        <ele>380.0</ele>
        <time>2021-07-11T09:32:58.000Z</time>
      </trkpt>
      <trkpt lat="41.37279" lon="1.15680167">
        <ele>380.0</ele>
        <time>2021-07-11T09:32:59.000Z</time>
      </trkpt>
      <trkpt lat="41.37278" lon="1.156835">
        <ele>380.0</ele>
        <time>2021-07-11T09:33:00.000Z</time>
      </trkpt>
      <trkpt lat="41.37277" lon="1.15686833">
        <ele>380.0</ele>
        <time>2021-07-11T09:33:01.000Z</time>
      </trkpt>
      <trkpt lat="41.37276" lon="1.1569">
        <ele>380.0</ele>
        <time>2021-07-11T09:33:02.000Z</time>
      </trkpt>
      <trkpt lat="41.37275333" lon="1.15692833">
        <ele>380.0</ele>
        <time>2021-07-11T09:33:03.000Z</time>
      </trkpt>
      <trkpt lat="41.37274667" lon="1.156955">
        <ele>380.0</ele>
        <time>2021-07-11T09:33:04.000Z</time>
      </trkpt>
      <trkpt lat="41.37274333" lon="1.15698">
        <ele>380.0</ele>
        <time>2021-07-11T09:33:05.000Z</time>
      </trkpt>
      <trkpt lat="41.37274167" lon="1.15700667">
        <ele>380.0</ele>
        <time>2021-07-11T09:33:06.000Z</time>
      </trkpt>
      <trkpt lat="41.37274167" lon="1.15703333">
        <ele>380.0</ele>
        <time>2021-07-11T09:33:07.000Z</time>
      </trkpt>
      <trkpt lat="41.37274333" lon="1.157055">
        <ele>380.0</ele>
        <time>2021-07-11T09:33:08.000Z</time>
      </trkpt>
      <trkpt lat="41.37274667" lon="1.157075">
        <ele>380.0</ele>
        <time>2021-07-11T09:33:09.000Z</time>
      </trkpt>
      <trkpt lat="41.37275" lon="1.157095">
        <ele>380.0</ele>
        <time>2021-07-11T09:33:10.000Z</time>
      </trkpt>
      <trkpt lat="41.37275167" lon="1.15711833">
        <ele>380.0</ele>
        <time>2021-07-11T09:33:11.000Z</time>
      </trkpt>
      <trkpt lat="41.37275333" lon="1.15714">
        <ele>380.0</ele>
        <time>2021-07-11T09:33:12.000Z</time>
      </trkpt>
      <trkpt lat="41.37275333" lon="1.15716333">
        <ele>380.0</ele>
        <time>2021-07-11T09:33:13.000Z</time>
      </trkpt>
      <trkpt lat="41.372755" lon="1.15718333">
        <ele>380.0</ele>
        <time>2021-07-11T09:33:14.000Z</time>
      </trkpt>
      <trkpt lat="41.37275833" lon="1.15720167">
        <ele>380.0</ele>
        <time>2021-07-11T09:33:15.000Z</time>
      </trkpt>
      <trkpt lat="41.37276333" lon="1.15721833">
        <ele>380.0</ele>
        <time>2021-07-11T09:33:16.000Z</time>
      </trkpt>
      <trkpt lat="41.37277" lon="1.15723667">
        <ele>380.0</ele>
        <time>2021-07-11T09:33:17.000Z</time>
      </trkpt>
      <trkpt lat="41.372775" lon="1.157255">
        <ele>380.0</ele>
        <time>2021-07-11T09:33:18.000Z</time>
      </trkpt>
      <trkpt lat="41.37278" lon="1.157275">
        <ele>380.0</ele>
        <time>2021-07-11T09:33:19.000Z</time>
      </trkpt>
      <trkpt lat="41.37278167" lon="1.15729833">
        <ele>380.0</ele>
        <time>2021-07-11T09:33:20.000Z</time>
      </trkpt>
      <trkpt lat="41.37278333" lon="1.15732333">
        <ele>380.0</ele>
        <time>2021-07-11T09:33:21.000Z</time>
      </trkpt>
      <trkpt lat="41.372785" lon="1.15734667">
        <ele>380.0</ele>
        <time>2021-07-11T09:33:22.000Z</time>
      </trkpt>
      <trkpt lat="41.37278667" lon="1.15736667">
        <ele>379.0</ele>
        <time>2021-07-11T09:33:23.000Z</time>
      </trkpt>
      <trkpt lat="41.37278833" lon="1.15738667">
        <ele>379.0</ele>
        <time>2021-07-11T09:33:24.000Z</time>
      </trkpt>
      <trkpt lat="41.37279167" lon="1.15740833">
        <ele>379.0</ele>
        <time>2021-07-11T09:33:25.000Z</time>
      </trkpt>
      <trkpt lat="41.372795" lon="1.15743">
        <ele>379.0</ele>
        <time>2021-07-11T09:33:26.000Z</time>
      </trkpt>
      <trkpt lat="41.372795" lon="1.15744833">
        <ele>378.0</ele>
        <time>2021-07-11T09:33:27.000Z</time>
      </trkpt>
      <trkpt lat="41.372795" lon="1.15747">
        <ele>378.0</ele>
        <time>2021-07-11T09:33:28.000Z</time>
      </trkpt>
      <trkpt lat="41.37279667" lon="1.15748833">
        <ele>378.0</ele>
        <time>2021-07-11T09:33:29.000Z</time>
      </trkpt>
      <trkpt lat="41.37279833" lon="1.157505">
        <ele>378.0</ele>
        <time>2021-07-11T09:33:30.000Z</time>
      </trkpt>
      <trkpt lat="41.37280167" lon="1.15752167">
        <ele>378.0</ele>
        <time>2021-07-11T09:33:31.000Z</time>
      </trkpt>
      <trkpt lat="41.37280333" lon="1.15753667">
        <ele>378.0</ele>
        <time>2021-07-11T09:33:32.000Z</time>
      </trkpt>
      <trkpt lat="41.37280833" lon="1.15755167">
        <ele>377.0</ele>
        <time>2021-07-11T09:33:33.000Z</time>
      </trkpt>
      <trkpt lat="41.37281" lon="1.15756833">
        <ele>377.0</ele>
        <time>2021-07-11T09:33:34.000Z</time>
      </trkpt>
      <trkpt lat="41.37281333" lon="1.15758833">
        <ele>377.0</ele>
        <time>2021-07-11T09:33:35.000Z</time>
      </trkpt>
      <trkpt lat="41.372815" lon="1.15761">
        <ele>376.0</ele>
        <time>2021-07-11T09:33:36.000Z</time>
      </trkpt>
      <trkpt lat="41.37281833" lon="1.15763">
        <ele>376.0</ele>
        <time>2021-07-11T09:33:37.000Z</time>
      </trkpt>
      <trkpt lat="41.37282333" lon="1.15764833">
        <ele>376.0</ele>
        <time>2021-07-11T09:33:38.000Z</time>
      </trkpt>
      <trkpt lat="41.37283" lon="1.15766667">
        <ele>376.0</ele>
        <time>2021-07-11T09:33:39.000Z</time>
      </trkpt>
      <trkpt lat="41.37283333" lon="1.15768167">
        <ele>376.0</ele>
        <time>2021-07-11T09:33:40.000Z</time>
      </trkpt>
      <trkpt lat="41.37283833" lon="1.15769667">
        <ele>376.0</ele>
        <time>2021-07-11T09:33:41.000Z</time>
      </trkpt>
      <trkpt lat="41.37284333" lon="1.15771">
        <ele>376.0</ele>
        <time>2021-07-11T09:33:42.000Z</time>
      </trkpt>
      <trkpt lat="41.37284833" lon="1.15772">
        <ele>375.0</ele>
        <time>2021-07-11T09:33:43.000Z</time>
      </trkpt>
      <trkpt lat="41.372855" lon="1.15773333">
        <ele>375.0</ele>
        <time>2021-07-11T09:33:44.000Z</time>
      </trkpt>
      <trkpt lat="41.37286" lon="1.15774667">
        <ele>375.0</ele>
        <time>2021-07-11T09:33:45.000Z</time>
      </trkpt>
      <trkpt lat="41.37286333" lon="1.15776167">
        <ele>375.0</ele>
        <time>2021-07-11T09:33:46.000Z</time>
      </trkpt>
      <trkpt lat="41.37286833" lon="1.157775">
        <ele>375.0</ele>
        <time>2021-07-11T09:33:47.000Z</time>
      </trkpt>
      <trkpt lat="41.37287167" lon="1.15779">
        <ele>375.0</ele>
        <time>2021-07-11T09:33:48.000Z</time>
      </trkpt>
      <trkpt lat="41.37287333" lon="1.15780333">
        <ele>375.0</ele>
        <time>2021-07-11T09:33:49.000Z</time>
      </trkpt>
      <trkpt lat="41.37287833" lon="1.157815">
        <ele>375.0</ele>
        <time>2021-07-11T09:33:50.000Z</time>
      </trkpt>
      <trkpt lat="41.37288167" lon="1.15782833">
        <ele>374.0</ele>
        <time>2021-07-11T09:33:51.000Z</time>
      </trkpt>
      <trkpt lat="41.372885" lon="1.15784">
        <ele>374.0</ele>
        <time>2021-07-11T09:33:52.000Z</time>
      </trkpt>
      <trkpt lat="41.37288833" lon="1.15785333">
        <ele>374.0</ele>
        <time>2021-07-11T09:33:53.000Z</time>
      </trkpt>
      <trkpt lat="41.37289167" lon="1.157865">
        <ele>373.0</ele>
        <time>2021-07-11T09:33:54.000Z</time>
      </trkpt>
      <trkpt lat="41.37289833" lon="1.15787333">
        <ele>373.0</ele>
        <time>2021-07-11T09:33:55.000Z</time>
      </trkpt>
      <trkpt lat="41.372905" lon="1.15788333">
        <ele>373.0</ele>
        <time>2021-07-11T09:33:56.000Z</time>
      </trkpt>
      <trkpt lat="41.37291" lon="1.15789667">
        <ele>373.0</ele>
        <time>2021-07-11T09:33:57.000Z</time>
      </trkpt>
      <trkpt lat="41.37291333" lon="1.15791167">
        <ele>373.0</ele>
        <time>2021-07-11T09:33:58.000Z</time>
      </trkpt>
      <trkpt lat="41.37291833" lon="1.15792833">
        <ele>373.0</ele>
        <time>2021-07-11T09:33:59.000Z</time>
      </trkpt>
      <trkpt lat="41.37292" lon="1.15794833">
        <ele>373.0</ele>
        <time>2021-07-11T09:34:00.000Z</time>
      </trkpt>
      <trkpt lat="41.37292333" lon="1.15796833">
        <ele>372.0</ele>
        <time>2021-07-11T09:34:01.000Z</time>
      </trkpt>
      <trkpt lat="41.37292667" lon="1.15798667">
        <ele>372.0</ele>
        <time>2021-07-11T09:34:02.000Z</time>
      </trkpt>
      <trkpt lat="41.37292667" lon="1.15798667">
        <ele>372.0</ele>
        <time>2021-07-11T09:34:04.000Z</time>
      </trkpt>
      <trkpt lat="41.37292667" lon="1.15798667">
        <ele>372.0</ele>
        <time>2021-07-11T09:34:05.000Z</time>
      </trkpt>
      <trkpt lat="41.37294167" lon="1.15805167">
        <ele>372.0</ele>
        <time>2021-07-11T09:34:06.000Z</time>
      </trkpt>
      <trkpt lat="41.37294333" lon="1.15807167">
        <ele>371.0</ele>
        <time>2021-07-11T09:34:07.000Z</time>
      </trkpt>
      <trkpt lat="41.37294667" lon="1.15808667">
        <ele>371.0</ele>
        <time>2021-07-11T09:34:08.000Z</time>
      </trkpt>
      <trkpt lat="41.37295167" lon="1.15810167">
        <ele>371.0</ele>
        <time>2021-07-11T09:34:09.000Z</time>
      </trkpt>
      <trkpt lat="41.372955" lon="1.15811833">
        <ele>370.0</ele>
        <time>2021-07-11T09:34:10.000Z</time>
      </trkpt>
      <trkpt lat="41.37295667" lon="1.15813667">
        <ele>370.0</ele>
        <time>2021-07-11T09:34:11.000Z</time>
      </trkpt>
      <trkpt lat="41.37296" lon="1.15815333">
        <ele>370.0</ele>
        <time>2021-07-11T09:34:12.000Z</time>
      </trkpt>
      <trkpt lat="41.372965" lon="1.15816667">
        <ele>370.0</ele>
        <time>2021-07-11T09:34:13.000Z</time>
      </trkpt>
      <trkpt lat="41.37297167" lon="1.15817667">
        <ele>369.0</ele>
        <time>2021-07-11T09:34:14.000Z</time>
      </trkpt>
      <trkpt lat="41.37297667" lon="1.15818333">
        <ele>369.0</ele>
        <time>2021-07-11T09:34:15.000Z</time>
      </trkpt>
      <trkpt lat="41.37298333" lon="1.15819167">
        <ele>368.0</ele>
        <time>2021-07-11T09:34:16.000Z</time>
      </trkpt>
      <trkpt lat="41.37299" lon="1.1582">
        <ele>368.0</ele>
        <time>2021-07-11T09:34:17.000Z</time>
      </trkpt>
      <trkpt lat="41.372995" lon="1.158205">
        <ele>368.0</ele>
        <time>2021-07-11T09:34:18.000Z</time>
      </trkpt>
      <trkpt lat="41.37300167" lon="1.15821167">
        <ele>368.0</ele>
        <time>2021-07-11T09:34:19.000Z</time>
      </trkpt>
      <trkpt lat="41.37301167" lon="1.15821833">
        <ele>368.0</ele>
        <time>2021-07-11T09:34:20.000Z</time>
      </trkpt>
      <trkpt lat="41.37302" lon="1.15822167">
        <ele>367.0</ele>
        <time>2021-07-11T09:34:21.000Z</time>
      </trkpt>
      <trkpt lat="41.37303" lon="1.158225">
        <ele>367.0</ele>
        <time>2021-07-11T09:34:22.000Z</time>
      </trkpt>
      <trkpt lat="41.37303667" lon="1.15823167">
        <ele>367.0</ele>
        <time>2021-07-11T09:34:23.000Z</time>
      </trkpt>
      <trkpt lat="41.37304" lon="1.15823833">
        <ele>367.0</ele>
        <time>2021-07-11T09:34:24.000Z</time>
      </trkpt>
      <trkpt lat="41.373045" lon="1.15824333">
        <ele>366.0</ele>
        <time>2021-07-11T09:34:25.000Z</time>
      </trkpt>
      <trkpt lat="41.37304833" lon="1.15825167">
        <ele>366.0</ele>
        <time>2021-07-11T09:34:26.000Z</time>
      </trkpt>
      <trkpt lat="41.37305167" lon="1.15826167">
        <ele>365.0</ele>
        <time>2021-07-11T09:34:27.000Z</time>
      </trkpt>
      <trkpt lat="41.37305667" lon="1.15826833">
        <ele>365.0</ele>
        <time>2021-07-11T09:34:28.000Z</time>
      </trkpt>
      <trkpt lat="41.37306" lon="1.15828">
        <ele>365.0</ele>
        <time>2021-07-11T09:34:29.000Z</time>
      </trkpt>
      <trkpt lat="41.373065" lon="1.15828833">
        <ele>365.0</ele>
        <time>2021-07-11T09:34:30.000Z</time>
      </trkpt>
      <trkpt lat="41.37307" lon="1.1583">
        <ele>365.0</ele>
        <time>2021-07-11T09:34:31.000Z</time>
      </trkpt>
      <trkpt lat="41.373075" lon="1.15831167">
        <ele>365.0</ele>
        <time>2021-07-11T09:34:32.000Z</time>
      </trkpt>
      <trkpt lat="41.37308" lon="1.15832333">
        <ele>365.0</ele>
        <time>2021-07-11T09:34:33.000Z</time>
      </trkpt>
      <trkpt lat="41.37308167" lon="1.15833">
        <ele>365.0</ele>
        <time>2021-07-11T09:34:34.000Z</time>
      </trkpt>
      <trkpt lat="41.37308167" lon="1.15833333">
        <ele>365.0</ele>
        <time>2021-07-11T09:34:35.000Z</time>
      </trkpt>
      <trkpt lat="41.37308167" lon="1.15833667">
        <ele>365.0</ele>
        <time>2021-07-11T09:34:36.000Z</time>
      </trkpt>
      <trkpt lat="41.37308167" lon="1.158335">
        <ele>365.0</ele>
        <time>2021-07-11T09:34:37.000Z</time>
      </trkpt>
      <trkpt lat="41.37308333" lon="1.158335">
        <ele>365.0</ele>
        <time>2021-07-11T09:34:38.000Z</time>
      </trkpt>
      <trkpt lat="41.37308167" lon="1.15833667">
        <ele>365.0</ele>
        <time>2021-07-11T09:34:39.000Z</time>
      </trkpt>
      <trkpt lat="41.37308167" lon="1.15833833">
        <ele>365.0</ele>
        <time>2021-07-11T09:34:40.000Z</time>
      </trkpt>
      <trkpt lat="41.37308167" lon="1.15833833">
        <ele>365.0</ele>
        <time>2021-07-11T09:34:41.000Z</time>
      </trkpt>
      <trkpt lat="41.37308167" lon="1.15833833">
        <ele>365.0</ele>
        <time>2021-07-11T09:34:42.000Z</time>
      </trkpt>
      <trkpt lat="41.37308167" lon="1.15833833">
        <ele>365.0</ele>
        <time>2021-07-11T09:34:43.000Z</time>
      </trkpt>
      <trkpt lat="41.37308167" lon="1.15833833">
        <ele>365.0</ele>
        <time>2021-07-11T09:34:44.000Z</time>
      </trkpt>
      <trkpt lat="41.37308" lon="1.15833833">
        <ele>365.0</ele>
        <time>2021-07-11T09:34:45.000Z</time>
      </trkpt>
      <trkpt lat="41.37307833" lon="1.15833833">
        <ele>365.0</ele>
        <time>2021-07-11T09:34:46.000Z</time>
      </trkpt>
      <trkpt lat="41.37307667" lon="1.15833833">
        <ele>365.0</ele>
        <time>2021-07-11T09:34:47.000Z</time>
      </trkpt>
      <trkpt lat="41.37307833" lon="1.15834">
        <ele>365.0</ele>
        <time>2021-07-11T09:34:48.000Z</time>
      </trkpt>
      <trkpt lat="41.37308" lon="1.15834167">
        <ele>365.0</ele>
        <time>2021-07-11T09:34:49.000Z</time>
      </trkpt>
      <trkpt lat="41.37308" lon="1.15834333">
        <ele>365.0</ele>
        <time>2021-07-11T09:34:50.000Z</time>
      </trkpt>
      <trkpt lat="41.37308167" lon="1.158345">
        <ele>365.0</ele>
        <time>2021-07-11T09:34:51.000Z</time>
      </trkpt>
      <trkpt lat="41.37308167" lon="1.158345">
        <ele>365.0</ele>
        <time>2021-07-11T09:34:52.000Z</time>
      </trkpt>
      <trkpt lat="41.373085" lon="1.15834667">
        <ele>365.0</ele>
        <time>2021-07-11T09:34:53.000Z</time>
      </trkpt>
      <trkpt lat="41.373085" lon="1.15834667">
        <ele>365.0</ele>
        <time>2021-07-11T09:34:54.000Z</time>
      </trkpt>
      <trkpt lat="41.373085" lon="1.15834833">
        <ele>365.0</ele>
        <time>2021-07-11T09:34:55.000Z</time>
      </trkpt>
      <trkpt lat="41.37308667" lon="1.15834667">
        <ele>365.0</ele>
        <time>2021-07-11T09:34:56.000Z</time>
      </trkpt>
      <trkpt lat="41.37308667" lon="1.15834833">
        <ele>365.0</ele>
        <time>2021-07-11T09:34:57.000Z</time>
      </trkpt>
      <trkpt lat="41.37308667" lon="1.15834667">
        <ele>365.0</ele>
        <time>2021-07-11T09:34:58.000Z</time>
      </trkpt>
      <trkpt lat="41.37308667" lon="1.15834667">
        <ele>365.0</ele>
        <time>2021-07-11T09:34:59.000Z</time>
      </trkpt>
      <trkpt lat="41.37308667" lon="1.158345">
        <ele>365.0</ele>
        <time>2021-07-11T09:35:00.000Z</time>
      </trkpt>
      <trkpt lat="41.373085" lon="1.15834333">
        <ele>365.0</ele>
        <time>2021-07-11T09:35:01.000Z</time>
      </trkpt>
      <trkpt lat="41.37308667" lon="1.158345">
        <ele>365.0</ele>
        <time>2021-07-11T09:35:02.000Z</time>
      </trkpt>
      <trkpt lat="41.373085" lon="1.158345">
        <ele>365.0</ele>
        <time>2021-07-11T09:35:03.000Z</time>
      </trkpt>
      <trkpt lat="41.37308667" lon="1.158345">
        <ele>365.0</ele>
        <time>2021-07-11T09:35:04.000Z</time>
      </trkpt>
      <trkpt lat="41.37308667" lon="1.158345">
        <ele>365.0</ele>
        <time>2021-07-11T09:35:05.000Z</time>
      </trkpt>
      <trkpt lat="41.37308667" lon="1.15834333">
        <ele>365.0</ele>
        <time>2021-07-11T09:35:06.000Z</time>
      </trkpt>
      <trkpt lat="41.37308667" lon="1.15834333">
        <ele>365.0</ele>
        <time>2021-07-11T09:35:07.000Z</time>
      </trkpt>
      <trkpt lat="41.37308667" lon="1.158345">
        <ele>365.0</ele>
        <time>2021-07-11T09:35:08.000Z</time>
      </trkpt>
      <trkpt lat="41.373085" lon="1.158345">
        <ele>364.0</ele>
        <time>2021-07-11T09:35:09.000Z</time>
      </trkpt>
      <trkpt lat="41.37308667" lon="1.15834333">
        <ele>364.0</ele>
        <time>2021-07-11T09:35:10.000Z</time>
      </trkpt>
      <trkpt lat="41.37308667" lon="1.15834333">
        <ele>364.0</ele>
        <time>2021-07-11T09:35:11.000Z</time>
      </trkpt>
      <trkpt lat="41.37308667" lon="1.15834333">
        <ele>364.0</ele>
        <time>2021-07-11T09:35:12.000Z</time>
      </trkpt>
      <trkpt lat="41.37308667" lon="1.15834">
        <ele>364.0</ele>
        <time>2021-07-11T09:35:13.000Z</time>
      </trkpt>
      <trkpt lat="41.37308667" lon="1.15834333">
        <ele>364.0</ele>
        <time>2021-07-11T09:35:14.000Z</time>
      </trkpt>
      <trkpt lat="41.37308833" lon="1.15834667">
        <ele>364.0</ele>
        <time>2021-07-11T09:35:15.000Z</time>
      </trkpt>
      <trkpt lat="41.37309" lon="1.15835167">
        <ele>364.0</ele>
        <time>2021-07-11T09:35:16.000Z</time>
      </trkpt>
      <trkpt lat="41.37309" lon="1.15835833">
        <ele>364.0</ele>
        <time>2021-07-11T09:35:17.000Z</time>
      </trkpt>
      <trkpt lat="41.37309333" lon="1.158365">
        <ele>364.0</ele>
        <time>2021-07-11T09:35:18.000Z</time>
      </trkpt>
      <trkpt lat="41.3731" lon="1.15837167">
        <ele>364.0</ele>
        <time>2021-07-11T09:35:19.000Z</time>
      </trkpt>
      <trkpt lat="41.37310667" lon="1.158375">
        <ele>364.0</ele>
        <time>2021-07-11T09:35:20.000Z</time>
      </trkpt>
      <trkpt lat="41.37311" lon="1.15837833">
        <ele>364.0</ele>
        <time>2021-07-11T09:35:21.000Z</time>
      </trkpt>
      <trkpt lat="41.37311167" lon="1.15838">
        <ele>364.0</ele>
        <time>2021-07-11T09:35:22.000Z</time>
      </trkpt>
      <trkpt lat="41.37311333" lon="1.15838167">
        <ele>364.0</ele>
        <time>2021-07-11T09:35:23.000Z</time>
      </trkpt>
      <trkpt lat="41.37311667" lon="1.15838167">
        <ele>364.0</ele>
        <time>2021-07-11T09:35:24.000Z</time>
      </trkpt>
      <trkpt lat="41.37311833" lon="1.15838167">
        <ele>363.0</ele>
        <time>2021-07-11T09:35:25.000Z</time>
      </trkpt>
      <trkpt lat="41.37311667" lon="1.15838167">
        <ele>363.0</ele>
        <time>2021-07-11T09:35:26.000Z</time>
      </trkpt>
      <trkpt lat="41.373115" lon="1.15838333">
        <ele>363.0</ele>
        <time>2021-07-11T09:35:27.000Z</time>
      </trkpt>
      <trkpt lat="41.373115" lon="1.15838333">
        <ele>363.0</ele>
        <time>2021-07-11T09:35:28.000Z</time>
      </trkpt>
      <trkpt lat="41.37311333" lon="1.15838167">
        <ele>363.0</ele>
        <time>2021-07-11T09:35:29.000Z</time>
      </trkpt>
      <trkpt lat="41.37311333" lon="1.15838">
        <ele>363.0</ele>
        <time>2021-07-11T09:35:30.000Z</time>
      </trkpt>
      <trkpt lat="41.37311167" lon="1.15837667">
        <ele>363.0</ele>
        <time>2021-07-11T09:35:31.000Z</time>
      </trkpt>
      <trkpt lat="41.37311333" lon="1.158375">
        <ele>363.0</ele>
        <time>2021-07-11T09:35:32.000Z</time>
      </trkpt>
      <trkpt lat="41.37311333" lon="1.15837667">
        <ele>363.0</ele>
        <time>2021-07-11T09:35:33.000Z</time>
      </trkpt>
      <trkpt lat="41.37311" lon="1.15837667">
        <ele>363.0</ele>
        <time>2021-07-11T09:35:34.000Z</time>
      </trkpt>
      <trkpt lat="41.37310833" lon="1.15838">
        <ele>363.0</ele>
        <time>2021-07-11T09:35:35.000Z</time>
      </trkpt>
      <trkpt lat="41.37310833" lon="1.15838167">
        <ele>363.0</ele>
        <time>2021-07-11T09:35:36.000Z</time>
      </trkpt>
      <trkpt lat="41.37310667" lon="1.15838333">
        <ele>363.0</ele>
        <time>2021-07-11T09:35:37.000Z</time>
      </trkpt>
      <trkpt lat="41.37310667" lon="1.158385">
        <ele>363.0</ele>
        <time>2021-07-11T09:35:38.000Z</time>
      </trkpt>
      <trkpt lat="41.37310667" lon="1.15838667">
        <ele>363.0</ele>
        <time>2021-07-11T09:35:39.000Z</time>
      </trkpt>
      <trkpt lat="41.373105" lon="1.15838833">
        <ele>363.0</ele>
        <time>2021-07-11T09:35:40.000Z</time>
      </trkpt>
      <trkpt lat="41.373105" lon="1.15838833">
        <ele>362.0</ele>
        <time>2021-07-11T09:35:41.000Z</time>
      </trkpt>
      <trkpt lat="41.373105" lon="1.15839">
        <ele>362.0</ele>
        <time>2021-07-11T09:35:42.000Z</time>
      </trkpt>
      <trkpt lat="41.373105" lon="1.15839167">
        <ele>362.0</ele>
        <time>2021-07-11T09:35:43.000Z</time>
      </trkpt>
      <trkpt lat="41.37310333" lon="1.15839333">
        <ele>362.0</ele>
        <time>2021-07-11T09:35:44.000Z</time>
      </trkpt>
      <trkpt lat="41.37310167" lon="1.15839667">
        <ele>362.0</ele>
        <time>2021-07-11T09:35:45.000Z</time>
      </trkpt>
      <trkpt lat="41.37309833" lon="1.1584">
        <ele>362.0</ele>
        <time>2021-07-11T09:35:46.000Z</time>
      </trkpt>
      <trkpt lat="41.37309667" lon="1.15840167">
        <ele>362.0</ele>
        <time>2021-07-11T09:35:47.000Z</time>
      </trkpt>
      <trkpt lat="41.37309667" lon="1.15840167">
        <ele>362.0</ele>
        <time>2021-07-11T09:35:48.000Z</time>
      </trkpt>
      <trkpt lat="41.37309667" lon="1.15840333">
        <ele>362.0</ele>
        <time>2021-07-11T09:35:49.000Z</time>
      </trkpt>
      <trkpt lat="41.37309667" lon="1.15840333">
        <ele>362.0</ele>
        <time>2021-07-11T09:35:50.000Z</time>
      </trkpt>
      <trkpt lat="41.37309833" lon="1.158405">
        <ele>362.0</ele>
        <time>2021-07-11T09:35:51.000Z</time>
      </trkpt>
      <trkpt lat="41.37309833" lon="1.15841">
        <ele>362.0</ele>
        <time>2021-07-11T09:35:52.000Z</time>
      </trkpt>
      <trkpt lat="41.37309833" lon="1.15841">
        <ele>362.0</ele>
        <time>2021-07-11T09:35:53.000Z</time>
      </trkpt>
      <trkpt lat="41.37309667" lon="1.15841167">
        <ele>362.0</ele>
        <time>2021-07-11T09:35:54.000Z</time>
      </trkpt>
      <trkpt lat="41.37309667" lon="1.15841167">
        <ele>362.0</ele>
        <time>2021-07-11T09:35:55.000Z</time>
      </trkpt>
      <trkpt lat="41.37309833" lon="1.15840833">
        <ele>362.0</ele>
        <time>2021-07-11T09:35:56.000Z</time>
      </trkpt>
      <trkpt lat="41.37309833" lon="1.15840833">
        <ele>362.0</ele>
        <time>2021-07-11T09:35:58.000Z</time>
      </trkpt>
      <trkpt lat="41.37309833" lon="1.15840833">
        <ele>362.0</ele>
        <time>2021-07-11T09:35:59.000Z</time>
      </trkpt>
      <trkpt lat="41.37310333" lon="1.15839333">
        <ele>362.0</ele>
        <time>2021-07-11T09:36:00.000Z</time>
      </trkpt>
      <trkpt lat="41.373105" lon="1.15839">
        <ele>362.0</ele>
        <time>2021-07-11T09:36:01.000Z</time>
      </trkpt>
      <trkpt lat="41.37310333" lon="1.15839">
        <ele>362.0</ele>
        <time>2021-07-11T09:36:02.000Z</time>
      </trkpt>
      <trkpt lat="41.373105" lon="1.15839">
        <ele>362.0</ele>
        <time>2021-07-11T09:36:03.000Z</time>
      </trkpt>
      <trkpt lat="41.37310333" lon="1.15839333">
        <ele>362.0</ele>
        <time>2021-07-11T09:36:04.000Z</time>
      </trkpt>
      <trkpt lat="41.37310167" lon="1.15839333">
        <ele>362.0</ele>
        <time>2021-07-11T09:36:05.000Z</time>
      </trkpt>
      <trkpt lat="41.3731" lon="1.15839167">
        <ele>362.0</ele>
        <time>2021-07-11T09:36:06.000Z</time>
      </trkpt>
      <trkpt lat="41.3731" lon="1.15838833">
        <ele>362.0</ele>
        <time>2021-07-11T09:36:07.000Z</time>
      </trkpt>
      <trkpt lat="41.37310333" lon="1.15838667">
        <ele>362.0</ele>
        <time>2021-07-11T09:36:08.000Z</time>
      </trkpt>
      <trkpt lat="41.373105" lon="1.15838667">
        <ele>362.0</ele>
        <time>2021-07-11T09:36:09.000Z</time>
      </trkpt>
      <trkpt lat="41.37310667" lon="1.15838667">
        <ele>362.0</ele>
        <time>2021-07-11T09:36:10.000Z</time>
      </trkpt>
      <trkpt lat="41.37310667" lon="1.15838667">
        <ele>362.0</ele>
        <time>2021-07-11T09:36:11.000Z</time>
      </trkpt>
      <trkpt lat="41.37310667" lon="1.15838667">
        <ele>362.0</ele>
        <time>2021-07-11T09:36:12.000Z</time>
      </trkpt>
      <trkpt lat="41.373105" lon="1.15838667">
        <ele>363.0</ele>
        <time>2021-07-11T09:36:13.000Z</time>
      </trkpt>
      <trkpt lat="41.37310333" lon="1.15839167">
        <ele>363.0</ele>
        <time>2021-07-11T09:36:14.000Z</time>
      </trkpt>
      <trkpt lat="41.37310333" lon="1.158395">
        <ele>363.0</ele>
        <time>2021-07-11T09:36:15.000Z</time>
      </trkpt>
      <trkpt lat="41.37310167" lon="1.15839667">
        <ele>363.0</ele>
        <time>2021-07-11T09:36:16.000Z</time>
      </trkpt>
      <trkpt lat="41.3731" lon="1.15839667">
        <ele>364.0</ele>
        <time>2021-07-11T09:36:17.000Z</time>
      </trkpt>
      <trkpt lat="41.3731" lon="1.15839667">
        <ele>364.0</ele>
        <time>2021-07-11T09:36:18.000Z</time>
      </trkpt>
      <trkpt lat="41.37309833" lon="1.15839667">
        <ele>364.0</ele>
        <time>2021-07-11T09:36:19.000Z</time>
      </trkpt>
      <trkpt lat="41.37309833" lon="1.158395">
        <ele>364.0</ele>
        <time>2021-07-11T09:36:20.000Z</time>
      </trkpt>
      <trkpt lat="41.37309667" lon="1.15839667">
        <ele>364.0</ele>
        <time>2021-07-11T09:36:21.000Z</time>
      </trkpt>
      <trkpt lat="41.373095" lon="1.15839833">
        <ele>364.0</ele>
        <time>2021-07-11T09:36:22.000Z</time>
      </trkpt>
      <trkpt lat="41.37309333" lon="1.1584">
        <ele>364.0</ele>
        <time>2021-07-11T09:36:23.000Z</time>
      </trkpt>
      <trkpt lat="41.37309167" lon="1.1584">
        <ele>365.0</ele>
        <time>2021-07-11T09:36:24.000Z</time>
      </trkpt>
      <trkpt lat="41.37309333" lon="1.15840167">
        <ele>365.0</ele>
        <time>2021-07-11T09:36:25.000Z</time>
      </trkpt>
      <trkpt lat="41.373095" lon="1.15840167">
        <ele>365.0</ele>
        <time>2021-07-11T09:36:26.000Z</time>
      </trkpt>
      <trkpt lat="41.373095" lon="1.15840333">
        <ele>365.0</ele>
        <time>2021-07-11T09:36:27.000Z</time>
      </trkpt>
      <trkpt lat="41.37309667" lon="1.15840167">
        <ele>365.0</ele>
        <time>2021-07-11T09:36:28.000Z</time>
      </trkpt>
      <trkpt lat="41.373095" lon="1.1584">
        <ele>365.0</ele>
        <time>2021-07-11T09:36:29.000Z</time>
      </trkpt>
      <trkpt lat="41.373095" lon="1.15839833">
        <ele>365.0</ele>
        <time>2021-07-11T09:36:30.000Z</time>
      </trkpt>
      <trkpt lat="41.37309667" lon="1.158395">
        <ele>365.0</ele>
        <time>2021-07-11T09:36:31.000Z</time>
      </trkpt>
      <trkpt lat="41.37309833" lon="1.15839167">
        <ele>365.0</ele>
        <time>2021-07-11T09:36:32.000Z</time>
      </trkpt>
      <trkpt lat="41.3731" lon="1.15838833">
        <ele>365.0</ele>
        <time>2021-07-11T09:36:33.000Z</time>
      </trkpt>
      <trkpt lat="41.37310167" lon="1.15838333">
        <ele>364.0</ele>
        <time>2021-07-11T09:36:34.000Z</time>
      </trkpt>
      <trkpt lat="41.37310167" lon="1.15838">
        <ele>364.0</ele>
        <time>2021-07-11T09:36:35.000Z</time>
      </trkpt>
      <trkpt lat="41.37310333" lon="1.15837833">
        <ele>364.0</ele>
        <time>2021-07-11T09:36:36.000Z</time>
      </trkpt>
      <trkpt lat="41.37310333" lon="1.15837833">
        <ele>364.0</ele>
        <time>2021-07-11T09:36:37.000Z</time>
      </trkpt>
      <trkpt lat="41.37310333" lon="1.15837833">
        <ele>363.0</ele>
        <time>2021-07-11T09:36:38.000Z</time>
      </trkpt>
      <trkpt lat="41.373105" lon="1.15837667">
        <ele>363.0</ele>
        <time>2021-07-11T09:36:39.000Z</time>
      </trkpt>
      <trkpt lat="41.373105" lon="1.158375">
        <ele>363.0</ele>
        <time>2021-07-11T09:36:40.000Z</time>
      </trkpt>
      <trkpt lat="41.37310667" lon="1.15837167">
        <ele>363.0</ele>
        <time>2021-07-11T09:36:41.000Z</time>
      </trkpt>
      <trkpt lat="41.37310833" lon="1.15836667">
        <ele>363.0</ele>
        <time>2021-07-11T09:36:42.000Z</time>
      </trkpt>
      <trkpt lat="41.37311" lon="1.15836167">
        <ele>363.0</ele>
        <time>2021-07-11T09:36:43.000Z</time>
      </trkpt>
      <trkpt lat="41.37311" lon="1.15835833">
        <ele>362.0</ele>
        <time>2021-07-11T09:36:44.000Z</time>
      </trkpt>
      <trkpt lat="41.37311" lon="1.15835667">
        <ele>362.0</ele>
        <time>2021-07-11T09:36:45.000Z</time>
      </trkpt>
      <trkpt lat="41.37311" lon="1.15835667">
        <ele>362.0</ele>
        <time>2021-07-11T09:36:46.000Z</time>
      </trkpt>
      <trkpt lat="41.37311167" lon="1.15835333">
        <ele>362.0</ele>
        <time>2021-07-11T09:36:47.000Z</time>
      </trkpt>
      <trkpt lat="41.37311167" lon="1.15835">
        <ele>362.0</ele>
        <time>2021-07-11T09:36:48.000Z</time>
      </trkpt>
      <trkpt lat="41.37311333" lon="1.15834667">
        <ele>362.0</ele>
        <time>2021-07-11T09:36:49.000Z</time>
      </trkpt>
      <trkpt lat="41.373115" lon="1.15834667">
        <ele>362.0</ele>
        <time>2021-07-11T09:36:50.000Z</time>
      </trkpt>
      <trkpt lat="41.37311667" lon="1.15834667">
        <ele>362.0</ele>
        <time>2021-07-11T09:36:51.000Z</time>
      </trkpt>
      <trkpt lat="41.37311667" lon="1.15834667">
        <ele>362.0</ele>
        <time>2021-07-11T09:36:52.000Z</time>
      </trkpt>
      <trkpt lat="41.37311667" lon="1.158345">
        <ele>362.0</ele>
        <time>2021-07-11T09:36:53.000Z</time>
      </trkpt>
      <trkpt lat="41.37311667" lon="1.15834667">
        <ele>362.0</ele>
        <time>2021-07-11T09:36:54.000Z</time>
      </trkpt>
      <trkpt lat="41.373115" lon="1.15834833">
        <ele>361.0</ele>
        <time>2021-07-11T09:36:55.000Z</time>
      </trkpt>
      <trkpt lat="41.373115" lon="1.15835">
        <ele>361.0</ele>
        <time>2021-07-11T09:36:56.000Z</time>
      </trkpt>
      <trkpt lat="41.37311667" lon="1.15835">
        <ele>361.0</ele>
        <time>2021-07-11T09:36:57.000Z</time>
      </trkpt>
      <trkpt lat="41.37311667" lon="1.15835">
        <ele>361.0</ele>
        <time>2021-07-11T09:36:59.000Z</time>
      </trkpt>
      <trkpt lat="41.37311667" lon="1.15835">
        <ele>361.0</ele>
        <time>2021-07-11T09:37:00.000Z</time>
      </trkpt>
      <trkpt lat="41.37312333" lon="1.15834167">
        <ele>361.0</ele>
        <time>2021-07-11T09:37:01.000Z</time>
      </trkpt>
      <trkpt lat="41.373125" lon="1.15834">
        <ele>361.0</ele>
        <time>2021-07-11T09:37:02.000Z</time>
      </trkpt>
      <trkpt lat="41.373125" lon="1.15833833">
        <ele>361.0</ele>
        <time>2021-07-11T09:37:03.000Z</time>
      </trkpt>
      <trkpt lat="41.373125" lon="1.15834167">
        <ele>361.0</ele>
        <time>2021-07-11T09:37:04.000Z</time>
      </trkpt>
      <trkpt lat="41.373125" lon="1.158345">
        <ele>361.0</ele>
        <time>2021-07-11T09:37:05.000Z</time>
      </trkpt>
      <trkpt lat="41.373125" lon="1.15834667">
        <ele>360.0</ele>
        <time>2021-07-11T09:37:06.000Z</time>
      </trkpt>
      <trkpt lat="41.373125" lon="1.15834667">
        <ele>360.0</ele>
        <time>2021-07-11T09:37:07.000Z</time>
      </trkpt>
      <trkpt lat="41.373125" lon="1.15834833">
        <ele>360.0</ele>
        <time>2021-07-11T09:37:08.000Z</time>
      </trkpt>
      <trkpt lat="41.37312833" lon="1.15835333">
        <ele>360.0</ele>
        <time>2021-07-11T09:37:09.000Z</time>
      </trkpt>
      <trkpt lat="41.37313167" lon="1.15836">
        <ele>360.0</ele>
        <time>2021-07-11T09:37:10.000Z</time>
      </trkpt>
      <trkpt lat="41.37313833" lon="1.15837167">
        <ele>360.0</ele>
        <time>2021-07-11T09:37:11.000Z</time>
      </trkpt>
      <trkpt lat="41.373145" lon="1.158385">
        <ele>360.0</ele>
        <time>2021-07-11T09:37:12.000Z</time>
      </trkpt>
      <trkpt lat="41.37315333" lon="1.15839667">
        <ele>360.0</ele>
        <time>2021-07-11T09:37:13.000Z</time>
      </trkpt>
      <trkpt lat="41.37316" lon="1.15841167">
        <ele>360.0</ele>
        <time>2021-07-11T09:37:14.000Z</time>
      </trkpt>
      <trkpt lat="41.373165" lon="1.15842833">
        <ele>359.0</ele>
        <time>2021-07-11T09:37:15.000Z</time>
      </trkpt>
      <trkpt lat="41.37316833" lon="1.15844">
        <ele>359.0</ele>
        <time>2021-07-11T09:37:16.000Z</time>
      </trkpt>
      <trkpt lat="41.37317167" lon="1.15845">
        <ele>358.0</ele>
        <time>2021-07-11T09:37:17.000Z</time>
      </trkpt>
      <trkpt lat="41.37317833" lon="1.15846167">
        <ele>358.0</ele>
        <time>2021-07-11T09:37:18.000Z</time>
      </trkpt>
      <trkpt lat="41.373185" lon="1.15847167">
        <ele>358.0</ele>
        <time>2021-07-11T09:37:19.000Z</time>
      </trkpt>
      <trkpt lat="41.37319" lon="1.15848333">
        <ele>357.0</ele>
        <time>2021-07-11T09:37:20.000Z</time>
      </trkpt>
      <trkpt lat="41.37319667" lon="1.15849167">
        <ele>357.0</ele>
        <time>2021-07-11T09:37:21.000Z</time>
      </trkpt>
      <trkpt lat="41.3732" lon="1.158505">
        <ele>356.0</ele>
        <time>2021-07-11T09:37:22.000Z</time>
      </trkpt>
      <trkpt lat="41.37320333" lon="1.15852">
        <ele>356.0</ele>
        <time>2021-07-11T09:37:23.000Z</time>
      </trkpt>
      <trkpt lat="41.37320667" lon="1.15853667">
        <ele>355.0</ele>
        <time>2021-07-11T09:37:24.000Z</time>
      </trkpt>
      <trkpt lat="41.37321333" lon="1.15855333">
        <ele>354.0</ele>
        <time>2021-07-11T09:37:25.000Z</time>
      </trkpt>
      <trkpt lat="41.37321833" lon="1.15856667">
        <ele>353.0</ele>
        <time>2021-07-11T09:37:26.000Z</time>
      </trkpt>
      <trkpt lat="41.37322333" lon="1.15857667">
        <ele>353.0</ele>
        <time>2021-07-11T09:37:27.000Z</time>
      </trkpt>
      <trkpt lat="41.37323" lon="1.158585">
        <ele>353.0</ele>
        <time>2021-07-11T09:37:28.000Z</time>
      </trkpt>
      <trkpt lat="41.37323667" lon="1.15859333">
        <ele>353.0</ele>
        <time>2021-07-11T09:37:29.000Z</time>
      </trkpt>
      <trkpt lat="41.37324" lon="1.15861">
        <ele>351.0</ele>
        <time>2021-07-11T09:37:30.000Z</time>
      </trkpt>
      <trkpt lat="41.37324333" lon="1.158635">
        <ele>351.0</ele>
        <time>2021-07-11T09:37:31.000Z</time>
      </trkpt>
      <trkpt lat="41.373245" lon="1.15865833">
        <ele>351.0</ele>
        <time>2021-07-11T09:37:32.000Z</time>
      </trkpt>
      <trkpt lat="41.37324667" lon="1.15867833">
        <ele>351.0</ele>
        <time>2021-07-11T09:37:33.000Z</time>
      </trkpt>
      <trkpt lat="41.37324833" lon="1.15869833">
        <ele>351.0</ele>
        <time>2021-07-11T09:37:34.000Z</time>
      </trkpt>
      <trkpt lat="41.37325" lon="1.15871833">
        <ele>351.0</ele>
        <time>2021-07-11T09:37:35.000Z</time>
      </trkpt>
      <trkpt lat="41.37325167" lon="1.15873833">
        <ele>351.0</ele>
        <time>2021-07-11T09:37:36.000Z</time>
      </trkpt>
      <trkpt lat="41.37325333" lon="1.15876">
        <ele>351.0</ele>
        <time>2021-07-11T09:37:37.000Z</time>
      </trkpt>
      <trkpt lat="41.373255" lon="1.15877667">
        <ele>351.0</ele>
        <time>2021-07-11T09:37:38.000Z</time>
      </trkpt>
      <trkpt lat="41.37326" lon="1.15879667">
        <ele>351.0</ele>
        <time>2021-07-11T09:37:39.000Z</time>
      </trkpt>
      <trkpt lat="41.37326333" lon="1.15882">
        <ele>351.0</ele>
        <time>2021-07-11T09:37:40.000Z</time>
      </trkpt>
      <trkpt lat="41.37326333" lon="1.15884667">
        <ele>352.0</ele>
        <time>2021-07-11T09:37:41.000Z</time>
      </trkpt>
      <trkpt lat="41.37326167" lon="1.15887333">
        <ele>352.0</ele>
        <time>2021-07-11T09:37:42.000Z</time>
      </trkpt>
      <trkpt lat="41.37326167" lon="1.15889833">
        <ele>352.0</ele>
        <time>2021-07-11T09:37:43.000Z</time>
      </trkpt>
      <trkpt lat="41.37325833" lon="1.15892333">
        <ele>352.0</ele>
        <time>2021-07-11T09:37:44.000Z</time>
      </trkpt>
      <trkpt lat="41.373255" lon="1.15894833">
        <ele>352.0</ele>
        <time>2021-07-11T09:37:45.000Z</time>
      </trkpt>
      <trkpt lat="41.37325167" lon="1.15897">
        <ele>352.0</ele>
        <time>2021-07-11T09:37:46.000Z</time>
      </trkpt>
      <trkpt lat="41.37325" lon="1.15899167">
        <ele>352.0</ele>
        <time>2021-07-11T09:37:47.000Z</time>
      </trkpt>
      <trkpt lat="41.37325" lon="1.15901667">
        <ele>352.0</ele>
        <time>2021-07-11T09:37:48.000Z</time>
      </trkpt>
      <trkpt lat="41.37325167" lon="1.15904667">
        <ele>352.0</ele>
        <time>2021-07-11T09:37:49.000Z</time>
      </trkpt>
      <trkpt lat="41.373255" lon="1.15907">
        <ele>353.0</ele>
        <time>2021-07-11T09:37:50.000Z</time>
      </trkpt>
      <trkpt lat="41.373255" lon="1.15909833">
        <ele>353.0</ele>
        <time>2021-07-11T09:37:51.000Z</time>
      </trkpt>
      <trkpt lat="41.37325333" lon="1.15912833">
        <ele>353.0</ele>
        <time>2021-07-11T09:37:52.000Z</time>
      </trkpt>
      <trkpt lat="41.37325167" lon="1.15916">
        <ele>353.0</ele>
        <time>2021-07-11T09:37:53.000Z</time>
      </trkpt>
      <trkpt lat="41.37325167" lon="1.15918667">
        <ele>354.0</ele>
        <time>2021-07-11T09:37:54.000Z</time>
      </trkpt>
      <trkpt lat="41.373255" lon="1.15920833">
        <ele>354.0</ele>
        <time>2021-07-11T09:37:55.000Z</time>
      </trkpt>
      <trkpt lat="41.37325667" lon="1.15923">
        <ele>354.0</ele>
        <time>2021-07-11T09:37:56.000Z</time>
      </trkpt>
      <trkpt lat="41.37326167" lon="1.15924833">
        <ele>354.0</ele>
        <time>2021-07-11T09:37:57.000Z</time>
      </trkpt>
      <trkpt lat="41.373265" lon="1.15926667">
        <ele>354.0</ele>
        <time>2021-07-11T09:37:58.000Z</time>
      </trkpt>
      <trkpt lat="41.37326833" lon="1.159285">
        <ele>354.0</ele>
        <time>2021-07-11T09:37:59.000Z</time>
      </trkpt>
      <trkpt lat="41.37327" lon="1.159305">
        <ele>354.0</ele>
        <time>2021-07-11T09:38:00.000Z</time>
      </trkpt>
      <trkpt lat="41.37327333" lon="1.159325">
        <ele>354.0</ele>
        <time>2021-07-11T09:38:01.000Z</time>
      </trkpt>
      <trkpt lat="41.37327667" lon="1.159345">
        <ele>354.0</ele>
        <time>2021-07-11T09:38:02.000Z</time>
      </trkpt>
      <trkpt lat="41.37328" lon="1.15936167">
        <ele>354.0</ele>
        <time>2021-07-11T09:38:03.000Z</time>
      </trkpt>
      <trkpt lat="41.373285" lon="1.15937667">
        <ele>354.0</ele>
        <time>2021-07-11T09:38:04.000Z</time>
      </trkpt>
      <trkpt lat="41.37329" lon="1.15939333">
        <ele>354.0</ele>
        <time>2021-07-11T09:38:05.000Z</time>
      </trkpt>
      <trkpt lat="41.373295" lon="1.15941">
        <ele>354.0</ele>
        <time>2021-07-11T09:38:06.000Z</time>
      </trkpt>
      <trkpt lat="41.37329833" lon="1.15942833">
        <ele>354.0</ele>
        <time>2021-07-11T09:38:07.000Z</time>
      </trkpt>
      <trkpt lat="41.3733" lon="1.15944833">
        <ele>354.0</ele>
        <time>2021-07-11T09:38:08.000Z</time>
      </trkpt>
      <trkpt lat="41.37330333" lon="1.15947">
        <ele>354.0</ele>
        <time>2021-07-11T09:38:09.000Z</time>
      </trkpt>
      <trkpt lat="41.37330667" lon="1.15949167">
        <ele>354.0</ele>
        <time>2021-07-11T09:38:10.000Z</time>
      </trkpt>
      <trkpt lat="41.37330833" lon="1.15951333">
        <ele>354.0</ele>
        <time>2021-07-11T09:38:11.000Z</time>
      </trkpt>
      <trkpt lat="41.37331333" lon="1.15953667">
        <ele>354.0</ele>
        <time>2021-07-11T09:38:12.000Z</time>
      </trkpt>
      <trkpt lat="41.37331833" lon="1.15956167">
        <ele>354.0</ele>
        <time>2021-07-11T09:38:13.000Z</time>
      </trkpt>
      <trkpt lat="41.37332167" lon="1.15958667">
        <ele>354.0</ele>
        <time>2021-07-11T09:38:14.000Z</time>
      </trkpt>
      <trkpt lat="41.37332833" lon="1.15961">
        <ele>354.0</ele>
        <time>2021-07-11T09:38:15.000Z</time>
      </trkpt>
      <trkpt lat="41.37333167" lon="1.15963167">
        <ele>354.0</ele>
        <time>2021-07-11T09:38:16.000Z</time>
      </trkpt>
      <trkpt lat="41.37333833" lon="1.15965">
        <ele>354.0</ele>
        <time>2021-07-11T09:38:17.000Z</time>
      </trkpt>
      <trkpt lat="41.373345" lon="1.15967333">
        <ele>354.0</ele>
        <time>2021-07-11T09:38:18.000Z</time>
      </trkpt>
      <trkpt lat="41.37335167" lon="1.15969333">
        <ele>354.0</ele>
        <time>2021-07-11T09:38:19.000Z</time>
      </trkpt>
      <trkpt lat="41.37335833" lon="1.159715">
        <ele>354.0</ele>
        <time>2021-07-11T09:38:20.000Z</time>
      </trkpt>
      <trkpt lat="41.37336333" lon="1.15973333">
        <ele>354.0</ele>
        <time>2021-07-11T09:38:21.000Z</time>
      </trkpt>
      <trkpt lat="41.37336667" lon="1.15975">
        <ele>354.0</ele>
        <time>2021-07-11T09:38:22.000Z</time>
      </trkpt>
      <trkpt lat="41.37337" lon="1.15977">
        <ele>354.0</ele>
        <time>2021-07-11T09:38:23.000Z</time>
      </trkpt>
      <trkpt lat="41.37337333" lon="1.15979167">
        <ele>354.0</ele>
        <time>2021-07-11T09:38:24.000Z</time>
      </trkpt>
      <trkpt lat="41.37337333" lon="1.15981333">
        <ele>355.0</ele>
        <time>2021-07-11T09:38:25.000Z</time>
      </trkpt>
      <trkpt lat="41.37337333" lon="1.159835">
        <ele>355.0</ele>
        <time>2021-07-11T09:38:26.000Z</time>
      </trkpt>
      <trkpt lat="41.37337667" lon="1.15985333">
        <ele>355.0</ele>
        <time>2021-07-11T09:38:27.000Z</time>
      </trkpt>
      <trkpt lat="41.37338" lon="1.15987167">
        <ele>355.0</ele>
        <time>2021-07-11T09:38:28.000Z</time>
      </trkpt>
      <trkpt lat="41.373385" lon="1.15988667">
        <ele>355.0</ele>
        <time>2021-07-11T09:38:29.000Z</time>
      </trkpt>
      <trkpt lat="41.37339333" lon="1.15990333">
        <ele>355.0</ele>
        <time>2021-07-11T09:38:30.000Z</time>
      </trkpt>
      <trkpt lat="41.3734" lon="1.15992">
        <ele>355.0</ele>
        <time>2021-07-11T09:38:31.000Z</time>
      </trkpt>
      <trkpt lat="41.373405" lon="1.15993333">
        <ele>355.0</ele>
        <time>2021-07-11T09:38:32.000Z</time>
      </trkpt>
      <trkpt lat="41.37341167" lon="1.15994667">
        <ele>355.0</ele>
        <time>2021-07-11T09:38:33.000Z</time>
      </trkpt>
      <trkpt lat="41.37341833" lon="1.15995667">
        <ele>355.0</ele>
        <time>2021-07-11T09:38:34.000Z</time>
      </trkpt>
      <trkpt lat="41.37342167" lon="1.15997167">
        <ele>355.0</ele>
        <time>2021-07-11T09:38:35.000Z</time>
      </trkpt>
      <trkpt lat="41.37342333" lon="1.15998833">
        <ele>355.0</ele>
        <time>2021-07-11T09:38:36.000Z</time>
      </trkpt>
      <trkpt lat="41.37342833" lon="1.160005">
        <ele>355.0</ele>
        <time>2021-07-11T09:38:37.000Z</time>
      </trkpt>
      <trkpt lat="41.373435" lon="1.16002833">
        <ele>355.0</ele>
        <time>2021-07-11T09:38:38.000Z</time>
      </trkpt>
      <trkpt lat="41.37344167" lon="1.16005">
        <ele>355.0</ele>
        <time>2021-07-11T09:38:39.000Z</time>
      </trkpt>
      <trkpt lat="41.37344833" lon="1.16007">
        <ele>356.0</ele>
        <time>2021-07-11T09:38:40.000Z</time>
      </trkpt>
      <trkpt lat="41.37345667" lon="1.16008833">
        <ele>356.0</ele>
        <time>2021-07-11T09:38:41.000Z</time>
      </trkpt>
      <trkpt lat="41.37346167" lon="1.16010333">
        <ele>356.0</ele>
        <time>2021-07-11T09:38:42.000Z</time>
      </trkpt>
      <trkpt lat="41.37346667" lon="1.160115">
        <ele>356.0</ele>
        <time>2021-07-11T09:38:43.000Z</time>
      </trkpt>
      <trkpt lat="41.37347167" lon="1.16013167">
        <ele>356.0</ele>
        <time>2021-07-11T09:38:44.000Z</time>
      </trkpt>
      <trkpt lat="41.37347167" lon="1.16015">
        <ele>356.0</ele>
        <time>2021-07-11T09:38:45.000Z</time>
      </trkpt>
      <trkpt lat="41.37347167" lon="1.160175">
        <ele>356.0</ele>
        <time>2021-07-11T09:38:46.000Z</time>
      </trkpt>
      <trkpt lat="41.37347167" lon="1.16019667">
        <ele>356.0</ele>
        <time>2021-07-11T09:38:47.000Z</time>
      </trkpt>
      <trkpt lat="41.37347667" lon="1.16021667">
        <ele>356.0</ele>
        <time>2021-07-11T09:38:48.000Z</time>
      </trkpt>
      <trkpt lat="41.37348" lon="1.16023667">
        <ele>356.0</ele>
        <time>2021-07-11T09:38:49.000Z</time>
      </trkpt>
      <trkpt lat="41.37348333" lon="1.160255">
        <ele>356.0</ele>
        <time>2021-07-11T09:38:50.000Z</time>
      </trkpt>
      <trkpt lat="41.373485" lon="1.16027667">
        <ele>356.0</ele>
        <time>2021-07-11T09:38:51.000Z</time>
      </trkpt>
      <trkpt lat="41.37348833" lon="1.16029833">
        <ele>356.0</ele>
        <time>2021-07-11T09:38:52.000Z</time>
      </trkpt>
      <trkpt lat="41.37349167" lon="1.16031833">
        <ele>356.0</ele>
        <time>2021-07-11T09:38:53.000Z</time>
      </trkpt>
      <trkpt lat="41.373495" lon="1.160335">
        <ele>356.0</ele>
        <time>2021-07-11T09:38:54.000Z</time>
      </trkpt>
      <trkpt lat="41.37349833" lon="1.160355">
        <ele>356.0</ele>
        <time>2021-07-11T09:38:55.000Z</time>
      </trkpt>
      <trkpt lat="41.37349833" lon="1.16037333">
        <ele>356.0</ele>
        <time>2021-07-11T09:38:56.000Z</time>
      </trkpt>
      <trkpt lat="41.37350167" lon="1.160395">
        <ele>356.0</ele>
        <time>2021-07-11T09:38:57.000Z</time>
      </trkpt>
      <trkpt lat="41.37350167" lon="1.16042">
        <ele>356.0</ele>
        <time>2021-07-11T09:38:58.000Z</time>
      </trkpt>
      <trkpt lat="41.37350167" lon="1.16044333">
        <ele>356.0</ele>
        <time>2021-07-11T09:38:59.000Z</time>
      </trkpt>
      <trkpt lat="41.37350333" lon="1.160465">
        <ele>356.0</ele>
        <time>2021-07-11T09:39:00.000Z</time>
      </trkpt>
      <trkpt lat="41.373505" lon="1.16049">
        <ele>356.0</ele>
        <time>2021-07-11T09:39:01.000Z</time>
      </trkpt>
      <trkpt lat="41.37350667" lon="1.16051333">
        <ele>356.0</ele>
        <time>2021-07-11T09:39:02.000Z</time>
      </trkpt>
      <trkpt lat="41.37351" lon="1.16053667">
        <ele>356.0</ele>
        <time>2021-07-11T09:39:03.000Z</time>
      </trkpt>
      <trkpt lat="41.373515" lon="1.16055667">
        <ele>356.0</ele>
        <time>2021-07-11T09:39:04.000Z</time>
      </trkpt>
      <trkpt lat="41.37352" lon="1.16057833">
        <ele>356.0</ele>
        <time>2021-07-11T09:39:05.000Z</time>
      </trkpt>
      <trkpt lat="41.373525" lon="1.16059833">
        <ele>356.0</ele>
        <time>2021-07-11T09:39:06.000Z</time>
      </trkpt>
      <trkpt lat="41.37352667" lon="1.16062">
        <ele>356.0</ele>
        <time>2021-07-11T09:39:07.000Z</time>
      </trkpt>
      <trkpt lat="41.37352833" lon="1.16064333">
        <ele>356.0</ele>
        <time>2021-07-11T09:39:08.000Z</time>
      </trkpt>
      <trkpt lat="41.37353" lon="1.16066833">
        <ele>356.0</ele>
        <time>2021-07-11T09:39:09.000Z</time>
      </trkpt>
      <trkpt lat="41.37353333" lon="1.16069">
        <ele>356.0</ele>
        <time>2021-07-11T09:39:10.000Z</time>
      </trkpt>
      <trkpt lat="41.37353167" lon="1.16071333">
        <ele>356.0</ele>
        <time>2021-07-11T09:39:11.000Z</time>
      </trkpt>
      <trkpt lat="41.37353" lon="1.16073833">
        <ele>356.0</ele>
        <time>2021-07-11T09:39:12.000Z</time>
      </trkpt>
      <trkpt lat="41.37353" lon="1.16076167">
        <ele>356.0</ele>
        <time>2021-07-11T09:39:13.000Z</time>
      </trkpt>
      <trkpt lat="41.37352833" lon="1.160785">
        <ele>356.0</ele>
        <time>2021-07-11T09:39:14.000Z</time>
      </trkpt>
      <trkpt lat="41.37352833" lon="1.16081">
        <ele>356.0</ele>
        <time>2021-07-11T09:39:15.000Z</time>
      </trkpt>
      <trkpt lat="41.37353" lon="1.16083167">
        <ele>356.0</ele>
        <time>2021-07-11T09:39:16.000Z</time>
      </trkpt>
      <trkpt lat="41.37353167" lon="1.16085333">
        <ele>356.0</ele>
        <time>2021-07-11T09:39:17.000Z</time>
      </trkpt>
      <trkpt lat="41.37353333" lon="1.16087667">
        <ele>356.0</ele>
        <time>2021-07-11T09:39:18.000Z</time>
      </trkpt>
      <trkpt lat="41.373535" lon="1.160895">
        <ele>356.0</ele>
        <time>2021-07-11T09:39:19.000Z</time>
      </trkpt>
      <trkpt lat="41.373535" lon="1.16091333">
        <ele>356.0</ele>
        <time>2021-07-11T09:39:20.000Z</time>
      </trkpt>
      <trkpt lat="41.37354" lon="1.16092833">
        <ele>356.0</ele>
        <time>2021-07-11T09:39:21.000Z</time>
      </trkpt>
      <trkpt lat="41.373545" lon="1.16093833">
        <ele>356.0</ele>
        <time>2021-07-11T09:39:22.000Z</time>
      </trkpt>
      <trkpt lat="41.37355333" lon="1.16094667">
        <ele>356.0</ele>
        <time>2021-07-11T09:39:23.000Z</time>
      </trkpt>
      <trkpt lat="41.37356167" lon="1.16095">
        <ele>356.0</ele>
        <time>2021-07-11T09:39:24.000Z</time>
      </trkpt>
      <trkpt lat="41.37356833" lon="1.160955">
        <ele>356.0</ele>
        <time>2021-07-11T09:39:25.000Z</time>
      </trkpt>
      <trkpt lat="41.373575" lon="1.16095833">
        <ele>356.0</ele>
        <time>2021-07-11T09:39:26.000Z</time>
      </trkpt>
      <trkpt lat="41.37358" lon="1.160965">
        <ele>356.0</ele>
        <time>2021-07-11T09:39:27.000Z</time>
      </trkpt>
      <trkpt lat="41.37358333" lon="1.16097167">
        <ele>356.0</ele>
        <time>2021-07-11T09:39:28.000Z</time>
      </trkpt>
      <trkpt lat="41.37358667" lon="1.160975">
        <ele>356.0</ele>
        <time>2021-07-11T09:39:29.000Z</time>
      </trkpt>
      <trkpt lat="41.37359" lon="1.16097833">
        <ele>356.0</ele>
        <time>2021-07-11T09:39:30.000Z</time>
      </trkpt>
      <trkpt lat="41.373595" lon="1.16098167">
        <ele>356.0</ele>
        <time>2021-07-11T09:39:31.000Z</time>
      </trkpt>
      <trkpt lat="41.37360333" lon="1.16098167">
        <ele>355.0</ele>
        <time>2021-07-11T09:39:32.000Z</time>
      </trkpt>
      <trkpt lat="41.37361" lon="1.16098333">
        <ele>355.0</ele>
        <time>2021-07-11T09:39:33.000Z</time>
      </trkpt>
      <trkpt lat="41.37361667" lon="1.16098167">
        <ele>355.0</ele>
        <time>2021-07-11T09:39:34.000Z</time>
      </trkpt>
      <trkpt lat="41.37362667" lon="1.16098167">
        <ele>355.0</ele>
        <time>2021-07-11T09:39:35.000Z</time>
      </trkpt>
      <trkpt lat="41.37363667" lon="1.16098167">
        <ele>355.0</ele>
        <time>2021-07-11T09:39:36.000Z</time>
      </trkpt>
      <trkpt lat="41.37364667" lon="1.16097833">
        <ele>355.0</ele>
        <time>2021-07-11T09:39:37.000Z</time>
      </trkpt>
      <trkpt lat="41.37365667" lon="1.16097833">
        <ele>355.0</ele>
        <time>2021-07-11T09:39:38.000Z</time>
      </trkpt>
      <trkpt lat="41.373665" lon="1.16098167">
        <ele>355.0</ele>
        <time>2021-07-11T09:39:39.000Z</time>
      </trkpt>
      <trkpt lat="41.37367167" lon="1.160985">
        <ele>355.0</ele>
        <time>2021-07-11T09:39:40.000Z</time>
      </trkpt>
      <trkpt lat="41.37367833" lon="1.16099167">
        <ele>355.0</ele>
        <time>2021-07-11T09:39:41.000Z</time>
      </trkpt>
      <trkpt lat="41.37368333" lon="1.161">
        <ele>354.0</ele>
        <time>2021-07-11T09:39:42.000Z</time>
      </trkpt>
      <trkpt lat="41.37368833" lon="1.16101">
        <ele>354.0</ele>
        <time>2021-07-11T09:39:43.000Z</time>
      </trkpt>
      <trkpt lat="41.37369167" lon="1.16102">
        <ele>354.0</ele>
        <time>2021-07-11T09:39:44.000Z</time>
      </trkpt>
      <trkpt lat="41.373695" lon="1.16103">
        <ele>354.0</ele>
        <time>2021-07-11T09:39:45.000Z</time>
      </trkpt>
      <trkpt lat="41.37369667" lon="1.16104">
        <ele>354.0</ele>
        <time>2021-07-11T09:39:46.000Z</time>
      </trkpt>
      <trkpt lat="41.37370167" lon="1.16105167">
        <ele>354.0</ele>
        <time>2021-07-11T09:39:47.000Z</time>
      </trkpt>
      <trkpt lat="41.373705" lon="1.16106167">
        <ele>354.0</ele>
        <time>2021-07-11T09:39:48.000Z</time>
      </trkpt>
      <trkpt lat="41.37370667" lon="1.16107">
        <ele>354.0</ele>
        <time>2021-07-11T09:39:49.000Z</time>
      </trkpt>
      <trkpt lat="41.37370667" lon="1.16108">
        <ele>355.0</ele>
        <time>2021-07-11T09:39:50.000Z</time>
      </trkpt>
      <trkpt lat="41.37370667" lon="1.16108667">
        <ele>355.0</ele>
        <time>2021-07-11T09:39:51.000Z</time>
      </trkpt>
      <trkpt lat="41.37370833" lon="1.16109167">
        <ele>355.0</ele>
        <time>2021-07-11T09:39:52.000Z</time>
      </trkpt>
      <trkpt lat="41.37371167" lon="1.16109833">
        <ele>355.0</ele>
        <time>2021-07-11T09:39:53.000Z</time>
      </trkpt>
      <trkpt lat="41.373715" lon="1.16110667">
        <ele>355.0</ele>
        <time>2021-07-11T09:39:54.000Z</time>
      </trkpt>
      <trkpt lat="41.37371833" lon="1.16111333">
        <ele>355.0</ele>
        <time>2021-07-11T09:39:55.000Z</time>
      </trkpt>
      <trkpt lat="41.373725" lon="1.16111833">
        <ele>355.0</ele>
        <time>2021-07-11T09:39:56.000Z</time>
      </trkpt>
      <trkpt lat="41.37373333" lon="1.16112333">
        <ele>355.0</ele>
        <time>2021-07-11T09:39:57.000Z</time>
      </trkpt>
      <trkpt lat="41.37374167" lon="1.16112833">
        <ele>355.0</ele>
        <time>2021-07-11T09:39:58.000Z</time>
      </trkpt>
      <trkpt lat="41.37375333" lon="1.16113">
        <ele>356.0</ele>
        <time>2021-07-11T09:39:59.000Z</time>
      </trkpt>
      <trkpt lat="41.37376333" lon="1.16113">
        <ele>356.0</ele>
        <time>2021-07-11T09:40:00.000Z</time>
      </trkpt>
      <trkpt lat="41.373775" lon="1.16112833">
        <ele>356.0</ele>
        <time>2021-07-11T09:40:01.000Z</time>
      </trkpt>
      <trkpt lat="41.37378667" lon="1.161125">
        <ele>356.0</ele>
        <time>2021-07-11T09:40:02.000Z</time>
      </trkpt>
      <trkpt lat="41.37380167" lon="1.16111833">
        <ele>356.0</ele>
        <time>2021-07-11T09:40:03.000Z</time>
      </trkpt>
      <trkpt lat="41.37381333" lon="1.16111">
        <ele>356.0</ele>
        <time>2021-07-11T09:40:04.000Z</time>
      </trkpt>
      <trkpt lat="41.37382333" lon="1.16110167">
        <ele>356.0</ele>
        <time>2021-07-11T09:40:05.000Z</time>
      </trkpt>
      <trkpt lat="41.37383333" lon="1.16109">
        <ele>356.0</ele>
        <time>2021-07-11T09:40:06.000Z</time>
      </trkpt>
      <trkpt lat="41.37384333" lon="1.16107667">
        <ele>356.0</ele>
        <time>2021-07-11T09:40:07.000Z</time>
      </trkpt>
      <trkpt lat="41.37385833" lon="1.16106167">
        <ele>356.0</ele>
        <time>2021-07-11T09:40:08.000Z</time>
      </trkpt>
      <trkpt lat="41.37387333" lon="1.16104667">
        <ele>356.0</ele>
        <time>2021-07-11T09:40:09.000Z</time>
      </trkpt>
      <trkpt lat="41.37388667" lon="1.16103">
        <ele>356.0</ele>
        <time>2021-07-11T09:40:10.000Z</time>
      </trkpt>
      <trkpt lat="41.37389667" lon="1.161015">
        <ele>356.0</ele>
        <time>2021-07-11T09:40:11.000Z</time>
      </trkpt>
      <trkpt lat="41.373905" lon="1.16100333">
        <ele>356.0</ele>
        <time>2021-07-11T09:40:12.000Z</time>
      </trkpt>
      <trkpt lat="41.37391167" lon="1.16099333">
        <ele>357.0</ele>
        <time>2021-07-11T09:40:13.000Z</time>
      </trkpt>
      <trkpt lat="41.373915" lon="1.16099">
        <ele>357.0</ele>
        <time>2021-07-11T09:40:14.000Z</time>
      </trkpt>
      <trkpt lat="41.37391833" lon="1.16098667">
        <ele>357.0</ele>
        <time>2021-07-11T09:40:15.000Z</time>
      </trkpt>
      <trkpt lat="41.37392167" lon="1.16098333">
        <ele>357.0</ele>
        <time>2021-07-11T09:40:16.000Z</time>
      </trkpt>
      <trkpt lat="41.373925" lon="1.16098">
        <ele>357.0</ele>
        <time>2021-07-11T09:40:17.000Z</time>
      </trkpt>
      <trkpt lat="41.37392833" lon="1.16097833">
        <ele>357.0</ele>
        <time>2021-07-11T09:40:18.000Z</time>
      </trkpt>
      <trkpt lat="41.373935" lon="1.16097667">
        <ele>357.0</ele>
        <time>2021-07-11T09:40:19.000Z</time>
      </trkpt>
      <trkpt lat="41.37394167" lon="1.16097667">
        <ele>357.0</ele>
        <time>2021-07-11T09:40:20.000Z</time>
      </trkpt>
      <trkpt lat="41.37395" lon="1.16097667">
        <ele>358.0</ele>
        <time>2021-07-11T09:40:21.000Z</time>
      </trkpt>
      <trkpt lat="41.37395667" lon="1.16097333">
        <ele>358.0</ele>
        <time>2021-07-11T09:40:22.000Z</time>
      </trkpt>
      <trkpt lat="41.37396" lon="1.16097">
        <ele>359.0</ele>
        <time>2021-07-11T09:40:23.000Z</time>
      </trkpt>
      <trkpt lat="41.373965" lon="1.16096667">
        <ele>359.0</ele>
        <time>2021-07-11T09:40:24.000Z</time>
      </trkpt>
      <trkpt lat="41.37396667" lon="1.16096333">
        <ele>359.0</ele>
        <time>2021-07-11T09:40:25.000Z</time>
      </trkpt>
      <trkpt lat="41.37396667" lon="1.16096333">
        <ele>360.0</ele>
        <time>2021-07-11T09:40:26.000Z</time>
      </trkpt>
      <trkpt lat="41.37396333" lon="1.160965">
        <ele>360.0</ele>
        <time>2021-07-11T09:40:27.000Z</time>
      </trkpt>
      <trkpt lat="41.37396167" lon="1.16096333">
        <ele>360.0</ele>
        <time>2021-07-11T09:40:28.000Z</time>
      </trkpt>
      <trkpt lat="41.37396167" lon="1.16096167">
        <ele>361.0</ele>
        <time>2021-07-11T09:40:29.000Z</time>
      </trkpt>
      <trkpt lat="41.37396167" lon="1.16096">
        <ele>361.0</ele>
        <time>2021-07-11T09:40:30.000Z</time>
      </trkpt>
      <trkpt lat="41.373965" lon="1.16096">
        <ele>361.0</ele>
        <time>2021-07-11T09:40:31.000Z</time>
      </trkpt>
      <trkpt lat="41.37396833" lon="1.16095667">
        <ele>361.0</ele>
        <time>2021-07-11T09:40:32.000Z</time>
      </trkpt>
      <trkpt lat="41.37397167" lon="1.16095667">
        <ele>362.0</ele>
        <time>2021-07-11T09:40:33.000Z</time>
      </trkpt>
      <trkpt lat="41.373975" lon="1.16095333">
        <ele>363.0</ele>
        <time>2021-07-11T09:40:34.000Z</time>
      </trkpt>
      <trkpt lat="41.373975" lon="1.160945">
        <ele>363.0</ele>
        <time>2021-07-11T09:40:35.000Z</time>
      </trkpt>
      <trkpt lat="41.37397167" lon="1.16093667">
        <ele>363.0</ele>
        <time>2021-07-11T09:40:36.000Z</time>
      </trkpt>
      <trkpt lat="41.37397167" lon="1.16093667">
        <ele>364.0</ele>
        <time>2021-07-11T09:40:39.000Z</time>
      </trkpt>
      <trkpt lat="41.37397167" lon="1.16093667">
        <ele>364.0</ele>
        <time>2021-07-11T09:40:40.000Z</time>
      </trkpt>
      <trkpt lat="41.373955" lon="1.16089">
        <ele>365.0</ele>
        <time>2021-07-11T09:40:41.000Z</time>
      </trkpt>
      <trkpt lat="41.37395667" lon="1.16088167">
        <ele>365.0</ele>
        <time>2021-07-11T09:40:42.000Z</time>
      </trkpt>
      <trkpt lat="41.37396167" lon="1.16086833">
        <ele>365.0</ele>
        <time>2021-07-11T09:40:43.000Z</time>
      </trkpt>
      <trkpt lat="41.373965" lon="1.160855">
        <ele>366.0</ele>
        <time>2021-07-11T09:40:44.000Z</time>
      </trkpt>
      <trkpt lat="41.37396833" lon="1.16084667">
        <ele>366.0</ele>
        <time>2021-07-11T09:40:45.000Z</time>
      </trkpt>
      <trkpt lat="41.37397167" lon="1.16084">
        <ele>366.0</ele>
        <time>2021-07-11T09:40:46.000Z</time>
      </trkpt>
      <trkpt lat="41.37397333" lon="1.16083667">
        <ele>366.0</ele>
        <time>2021-07-11T09:40:47.000Z</time>
      </trkpt>
      <trkpt lat="41.37397333" lon="1.16083333">
        <ele>366.0</ele>
        <time>2021-07-11T09:40:48.000Z</time>
      </trkpt>
      <trkpt lat="41.37397667" lon="1.16082833">
        <ele>367.0</ele>
        <time>2021-07-11T09:40:49.000Z</time>
      </trkpt>
      <trkpt lat="41.37398" lon="1.16082167">
        <ele>367.0</ele>
        <time>2021-07-11T09:40:50.000Z</time>
      </trkpt>
      <trkpt lat="41.373985" lon="1.160815">
        <ele>368.0</ele>
        <time>2021-07-11T09:40:51.000Z</time>
      </trkpt>
      <trkpt lat="41.37398833" lon="1.16080833">
        <ele>368.0</ele>
        <time>2021-07-11T09:40:52.000Z</time>
      </trkpt>
      <trkpt lat="41.37398667" lon="1.16080667">
        <ele>369.0</ele>
        <time>2021-07-11T09:40:53.000Z</time>
      </trkpt>
      <trkpt lat="41.37398833" lon="1.160805">
        <ele>369.0</ele>
        <time>2021-07-11T09:40:54.000Z</time>
      </trkpt>
      <trkpt lat="41.37399" lon="1.16080167">
        <ele>370.0</ele>
        <time>2021-07-11T09:40:55.000Z</time>
      </trkpt>
      <trkpt lat="41.37399167" lon="1.1608">
        <ele>370.0</ele>
        <time>2021-07-11T09:40:56.000Z</time>
      </trkpt>
      <trkpt lat="41.373995" lon="1.16079667">
        <ele>370.0</ele>
        <time>2021-07-11T09:40:57.000Z</time>
      </trkpt>
      <trkpt lat="41.37400167" lon="1.16078833">
        <ele>371.0</ele>
        <time>2021-07-11T09:40:58.000Z</time>
      </trkpt>
      <trkpt lat="41.37400667" lon="1.16078167">
        <ele>371.0</ele>
        <time>2021-07-11T09:40:59.000Z</time>
      </trkpt>
      <trkpt lat="41.37401" lon="1.16077833">
        <ele>371.0</ele>
        <time>2021-07-11T09:41:00.000Z</time>
      </trkpt>
      <trkpt lat="41.37401333" lon="1.16077333">
        <ele>371.0</ele>
        <time>2021-07-11T09:41:01.000Z</time>
      </trkpt>
      <trkpt lat="41.374015" lon="1.16076833">
        <ele>371.0</ele>
        <time>2021-07-11T09:41:02.000Z</time>
      </trkpt>
      <trkpt lat="41.374015" lon="1.16076833">
        <ele>372.0</ele>
        <time>2021-07-11T09:41:04.000Z</time>
      </trkpt>
      <trkpt lat="41.374015" lon="1.16076833">
        <ele>372.0</ele>
        <time>2021-07-11T09:41:06.000Z</time>
      </trkpt>
      <trkpt lat="41.374015" lon="1.16076833">
        <ele>372.0</ele>
        <time>2021-07-11T09:41:07.000Z</time>
      </trkpt>
      <trkpt lat="41.37401833" lon="1.16076833">
        <ele>373.0</ele>
        <time>2021-07-11T09:41:08.000Z</time>
      </trkpt>
      <trkpt lat="41.37401833" lon="1.160775">
        <ele>373.0</ele>
        <time>2021-07-11T09:41:09.000Z</time>
      </trkpt>
      <trkpt lat="41.37401667" lon="1.16078333">
        <ele>373.0</ele>
        <time>2021-07-11T09:41:10.000Z</time>
      </trkpt>
      <trkpt lat="41.37401667" lon="1.16079">
        <ele>372.0</ele>
        <time>2021-07-11T09:41:11.000Z</time>
      </trkpt>
      <trkpt lat="41.37402" lon="1.160795">
        <ele>372.0</ele>
        <time>2021-07-11T09:41:12.000Z</time>
      </trkpt>
      <trkpt lat="41.37402833" lon="1.160795">
        <ele>372.0</ele>
        <time>2021-07-11T09:41:13.000Z</time>
      </trkpt>
      <trkpt lat="41.37403333" lon="1.16078833">
        <ele>372.0</ele>
        <time>2021-07-11T09:41:14.000Z</time>
      </trkpt>
      <trkpt lat="41.37403833" lon="1.16078333">
        <ele>372.0</ele>
        <time>2021-07-11T09:41:15.000Z</time>
      </trkpt>
      <trkpt lat="41.37403833" lon="1.16078167">
        <ele>370.0</ele>
        <time>2021-07-11T09:41:16.000Z</time>
      </trkpt>
    </trkseg>
  </trk>
</gpx>
